<?xml version='1.0' encoding='UTF-8'?><gpx version="1.1" creator="JPX - https://github.com/jenetics/jpx" xmlns="http://www.topografix.com/GPX/1/1"><trk><trkseg><trkpt lat="43.2673971" lon="11.2848816"><ele>221.0</ele><time>2026-04-18T08:25:57.803Z</time></trkpt><trkpt lat="43.2678535" lon="11.2857977"><ele>221.0</ele><time>2026-04-18T08:26:04.352Z</time></trkpt><trkpt lat="43.2681047" lon="11.2862952"><ele>221.0</ele><time>2026-04-18T08:26:10.887Z</time></trkpt><trkpt lat="43.2682014" lon="11.2864895"><ele>219.5</ele><time>2026-04-18T08:26:17.378Z</time></trkpt><trkpt lat="43.2681402" lon="11.286357"><ele>218.0</ele><time>2026-04-18T08:26:23.934Z</time></trkpt><trkpt lat="43.2673956" lon="11.284879"><ele>218.0</ele><time>2026-04-18T08:26:30.436Z</time></trkpt><trkpt lat="43.2672988" lon="11.2846871"><ele>218.0</ele><time>2026-04-18T08:26:35.445Z</time></trkpt><trkpt lat="43.2673519" lon="11.2847927"><ele>218.0</ele><time>2026-04-18T08:27:01.585Z</time></trkpt><trkpt lat="43.2680504" lon="11.2862194"><ele>230.0</ele><time>2026-04-18T08:27:08.43Z</time></trkpt><trkpt lat="43.2683369" lon="11.2867606"><ele>230.0</ele><time>2026-04-18T08:27:16.134Z</time></trkpt><trkpt lat="43.2684007" lon="11.2868601"><ele>230.0</ele><time>2026-04-18T08:27:21.142Z</time></trkpt><trkpt lat="43.2681107" lon="11.286294"><ele>218.0</ele><time>2026-04-18T08:27:35.549Z</time></trkpt><trkpt lat="43.2674593" lon="11.2850029"><ele>228.0</ele><time>2026-04-18T08:27:42.023Z</time></trkpt><trkpt lat="43.2681354" lon="11.2863529"><ele>228.0</ele><time>2026-04-18T08:28:40.456Z</time></trkpt><trkpt lat="43.2682172" lon="11.2865971"><ele>228.0</ele><time>2026-04-18T08:29:12.683Z</time></trkpt><trkpt lat="43.2683021" lon="11.2862877"><ele>228.0</ele><time>2026-04-18T08:29:13.819Z</time></trkpt><trkpt lat="43.2682314" lon="11.2860445"><ele>228.0</ele><time>2026-04-18T08:29:15.864Z</time></trkpt><trkpt lat="43.2682149" lon="11.2859553"><ele>227.99999999999997</ele><time>2026-04-18T08:29:16.886Z</time></trkpt><trkpt lat="43.2682372" lon="11.2858514"><ele>228.0</ele><time>2026-04-18T08:29:20.853Z</time></trkpt><trkpt lat="43.2683273" lon="11.2858343"><ele>228.0</ele><time>2026-04-18T08:29:23.805Z</time></trkpt><trkpt lat="43.2683667" lon="11.2859025"><ele>227.99999999999997</ele><time>2026-04-18T08:29:28.784Z</time></trkpt><trkpt lat="43.2683319" lon="11.2859799"><ele>228.0</ele><time>2026-04-18T08:29:32.875Z</time></trkpt><trkpt lat="43.2683583" lon="11.2860723"><ele>228.0</ele><time>2026-04-18T08:29:35.826Z</time></trkpt><trkpt lat="43.2683651" lon="11.286164"><ele>228.0</ele><time>2026-04-18T08:29:37.871Z</time></trkpt><trkpt lat="43.2683763" lon="11.2862671"><ele>228.0</ele><time>2026-04-18T08:29:39.802Z</time></trkpt><trkpt lat="43.2684022" lon="11.2863646"><ele>228.0</ele><time>2026-04-18T08:29:41.846Z</time></trkpt><trkpt lat="43.2683474" lon="11.286415"><ele>228.0</ele><time>2026-04-18T08:29:42.869Z</time></trkpt><trkpt lat="43.2683256" lon="11.2865473"><ele>228.0</ele><time>2026-04-18T08:29:44.791Z</time></trkpt><trkpt lat="43.2682928" lon="11.286662"><ele>228.0</ele><time>2026-04-18T08:29:46.735Z</time></trkpt><trkpt lat="43.2682785" lon="11.2867691"><ele>228.14285714285714</ele><time>2026-04-18T08:29:48.871Z</time></trkpt><trkpt lat="43.268266" lon="11.2868668"><ele>228.28571428571428</ele><time>2026-04-18T08:29:50.722Z</time></trkpt><trkpt lat="43.2682585" lon="11.2869725"><ele>228.42857142857142</ele><time>2026-04-18T08:29:52.847Z</time></trkpt><trkpt lat="43.268253" lon="11.2870637"><ele>228.57142857142856</ele><time>2026-04-18T08:29:54.777Z</time></trkpt><trkpt lat="43.26823" lon="11.2871519"><ele>228.71428571428572</ele><time>2026-04-18T08:29:56.811Z</time></trkpt><trkpt lat="43.2682345" lon="11.2872467"><ele>228.85714285714283</ele><time>2026-04-18T08:29:58.855Z</time></trkpt><trkpt lat="43.2682301" lon="11.2873383"><ele>229.0</ele><time>2026-04-18T08:30:00.801Z</time></trkpt><trkpt lat="43.2682377" lon="11.2874519"><ele>228.99999999999997</ele><time>2026-04-18T08:30:03.854Z</time></trkpt><trkpt lat="43.2682157" lon="11.2875791"><ele>229.0</ele><time>2026-04-18T08:30:06.806Z</time></trkpt><trkpt lat="43.2682067" lon="11.2876883"><ele>229.0</ele><time>2026-04-18T08:30:08.765Z</time></trkpt><trkpt lat="43.2681733" lon="11.2877933"><ele>229.0</ele><time>2026-04-18T08:30:10.764Z</time></trkpt><trkpt lat="43.2681383" lon="11.2879"><ele>228.99999999999997</ele><time>2026-04-18T08:30:12.769Z</time></trkpt><trkpt lat="43.268105" lon="11.2880017"><ele>229.0</ele><time>2026-04-18T08:30:14.765Z</time></trkpt><trkpt lat="43.2680717" lon="11.2881033"><ele>230.16666666666666</ele><time>2026-04-18T08:30:16.766Z</time></trkpt><trkpt lat="43.2680467" lon="11.2882"><ele>231.33333333333331</ele><time>2026-04-18T08:30:18.769Z</time></trkpt><trkpt lat="43.26803" lon="11.2883117"><ele>232.5</ele><time>2026-04-18T08:30:20.763Z</time></trkpt><trkpt lat="43.2680017" lon="11.2884317"><ele>233.66666666666669</ele><time>2026-04-18T08:30:22.764Z</time></trkpt><trkpt lat="43.267975" lon="11.2885533"><ele>234.83333333333334</ele><time>2026-04-18T08:30:24.764Z</time></trkpt><trkpt lat="43.26796" lon="11.28867"><ele>236.0</ele><time>2026-04-18T08:30:26.764Z</time></trkpt><trkpt lat="43.2679533" lon="11.2887767"><ele>236.00000000000003</ele><time>2026-04-18T08:30:28.765Z</time></trkpt><trkpt lat="43.2679517" lon="11.2888917"><ele>236.0</ele><time>2026-04-18T08:30:30.77Z</time></trkpt><trkpt lat="43.2679567" lon="11.2889867"><ele>236.0</ele><time>2026-04-18T08:30:32.763Z</time></trkpt><trkpt lat="43.2679433" lon="11.28911"><ele>236.0</ele><time>2026-04-18T08:30:35.767Z</time></trkpt><trkpt lat="43.26791" lon="11.28921"><ele>236.00000000000003</ele><time>2026-04-18T08:30:37.765Z</time></trkpt><trkpt lat="43.2678767" lon="11.2892917"><ele>236.0</ele><time>2026-04-18T08:30:39.765Z</time></trkpt><trkpt lat="43.2678367" lon="11.2894033"><ele>238.0</ele><time>2026-04-18T08:30:41.768Z</time></trkpt><trkpt lat="43.2678217" lon="11.289575"><ele>240.00000000000003</ele><time>2026-04-18T08:30:43.767Z</time></trkpt><trkpt lat="43.2677967" lon="11.2896933"><ele>242.00000000000003</ele><time>2026-04-18T08:30:45.767Z</time></trkpt><trkpt lat="43.26779" lon="11.289785"><ele>244.0</ele><time>2026-04-18T08:30:47.767Z</time></trkpt><trkpt lat="43.2677483" lon="11.2898517"><ele>246.0</ele><time>2026-04-18T08:30:50.765Z</time></trkpt><trkpt lat="43.2676417" lon="11.2898167"><ele>246.0</ele><time>2026-04-18T08:30:52.765Z</time></trkpt><trkpt lat="43.2675767" lon="11.2897883"><ele>246.0</ele><time>2026-04-18T08:30:53.758Z</time></trkpt><trkpt lat="43.2674817" lon="11.2897383"><ele>246.0</ele><time>2026-04-18T08:30:54.76Z</time></trkpt><trkpt lat="43.2674083" lon="11.2897017"><ele>246.0</ele><time>2026-04-18T08:30:55.769Z</time></trkpt><trkpt lat="43.2673267" lon="11.2896633"><ele>246.0</ele><time>2026-04-18T08:30:56.764Z</time></trkpt><trkpt lat="43.2672533" lon="11.2896267"><ele>246.0</ele><time>2026-04-18T08:30:57.768Z</time></trkpt><trkpt lat="43.2671933" lon="11.2896"><ele>246.16666666666666</ele><time>2026-04-18T08:30:58.769Z</time></trkpt><trkpt lat="43.26707" lon="11.2895533"><ele>246.33333333333331</ele><time>2026-04-18T08:31:00.768Z</time></trkpt><trkpt lat="43.267005" lon="11.2895267"><ele>246.5</ele><time>2026-04-18T08:31:01.769Z</time></trkpt><trkpt lat="43.26694" lon="11.2895033"><ele>246.66666666666666</ele><time>2026-04-18T08:31:02.768Z</time></trkpt><trkpt lat="43.2668733" lon="11.2894617"><ele>246.83333333333331</ele><time>2026-04-18T08:31:03.769Z</time></trkpt><trkpt lat="43.266805" lon="11.2894217"><ele>247.0</ele><time>2026-04-18T08:31:04.768Z</time></trkpt><trkpt lat="43.2667283" lon="11.2893817"><ele>246.99999999999997</ele><time>2026-04-18T08:31:05.768Z</time></trkpt><trkpt lat="43.2666533" lon="11.289345"><ele>247.0</ele><time>2026-04-18T08:31:06.769Z</time></trkpt><trkpt lat="43.2665717" lon="11.289305"><ele>247.0</ele><time>2026-04-18T08:31:07.77Z</time></trkpt><trkpt lat="43.2664983" lon="11.289265"><ele>247.0</ele><time>2026-04-18T08:31:08.767Z</time></trkpt><trkpt lat="43.2664233" lon="11.28922"><ele>246.99999999999997</ele><time>2026-04-18T08:31:09.769Z</time></trkpt><trkpt lat="43.26634" lon="11.289175"><ele>247.0</ele><time>2026-04-18T08:31:10.767Z</time></trkpt><trkpt lat="43.26626" lon="11.289135"><ele>246.83333333333331</ele><time>2026-04-18T08:31:11.77Z</time></trkpt><trkpt lat="43.2661683" lon="11.2890883"><ele>246.66666666666666</ele><time>2026-04-18T08:31:12.769Z</time></trkpt><trkpt lat="43.2660867" lon="11.28905"><ele>246.5</ele><time>2026-04-18T08:31:13.769Z</time></trkpt><trkpt lat="43.2660083" lon="11.2890067"><ele>246.33333333333331</ele><time>2026-04-18T08:31:14.768Z</time></trkpt><trkpt lat="43.2659283" lon="11.2889617"><ele>246.16666666666666</ele><time>2026-04-18T08:31:15.768Z</time></trkpt><trkpt lat="43.2658567" lon="11.2889283"><ele>246.0</ele><time>2026-04-18T08:31:16.764Z</time></trkpt><trkpt lat="43.2657867" lon="11.2889017"><ele>246.0</ele><time>2026-04-18T08:31:17.769Z</time></trkpt><trkpt lat="43.265715" lon="11.2888767"><ele>246.0</ele><time>2026-04-18T08:31:18.768Z</time></trkpt><trkpt lat="43.265645" lon="11.2888483"><ele>246.0</ele><time>2026-04-18T08:31:19.77Z</time></trkpt><trkpt lat="43.26557" lon="11.2888167"><ele>246.0</ele><time>2026-04-18T08:31:20.767Z</time></trkpt><trkpt lat="43.2654933" lon="11.2887867"><ele>246.0</ele><time>2026-04-18T08:31:21.77Z</time></trkpt><trkpt lat="43.2654167" lon="11.2887617"><ele>246.0</ele><time>2026-04-18T08:31:22.765Z</time></trkpt><trkpt lat="43.265345" lon="11.288715"><ele>246.16666666666666</ele><time>2026-04-18T08:31:23.765Z</time></trkpt><trkpt lat="43.2652767" lon="11.28867"><ele>246.33333333333331</ele><time>2026-04-18T08:31:24.77Z</time></trkpt><trkpt lat="43.2652" lon="11.2886367"><ele>246.5</ele><time>2026-04-18T08:31:25.768Z</time></trkpt><trkpt lat="43.265125" lon="11.2885967"><ele>246.66666666666666</ele><time>2026-04-18T08:31:26.765Z</time></trkpt><trkpt lat="43.2650567" lon="11.2885667"><ele>246.83333333333331</ele><time>2026-04-18T08:31:27.768Z</time></trkpt><trkpt lat="43.2649783" lon="11.2885283"><ele>247.0</ele><time>2026-04-18T08:31:28.765Z</time></trkpt><trkpt lat="43.2648983" lon="11.28848"><ele>246.99999999999997</ele><time>2026-04-18T08:31:29.767Z</time></trkpt><trkpt lat="43.26482" lon="11.2884317"><ele>247.0</ele><time>2026-04-18T08:31:30.768Z</time></trkpt><trkpt lat="43.2647433" lon="11.2884"><ele>247.0</ele><time>2026-04-18T08:31:31.766Z</time></trkpt><trkpt lat="43.2646567" lon="11.2883517"><ele>247.0</ele><time>2026-04-18T08:31:32.767Z</time></trkpt><trkpt lat="43.2645667" lon="11.288305"><ele>246.99999999999997</ele><time>2026-04-18T08:31:33.765Z</time></trkpt><trkpt lat="43.2644783" lon="11.2882683"><ele>247.0</ele><time>2026-04-18T08:31:34.765Z</time></trkpt><trkpt lat="43.264385" lon="11.28823"><ele>246.8</ele><time>2026-04-18T08:31:35.765Z</time></trkpt><trkpt lat="43.264285" lon="11.2881917"><ele>246.6</ele><time>2026-04-18T08:31:36.769Z</time></trkpt><trkpt lat="43.2641817" lon="11.2881533"><ele>246.40000000000003</ele><time>2026-04-18T08:31:37.767Z</time></trkpt><trkpt lat="43.2640817" lon="11.2881167"><ele>246.20000000000002</ele><time>2026-04-18T08:31:38.765Z</time></trkpt><trkpt lat="43.2639883" lon="11.2880833"><ele>246.0</ele><time>2026-04-18T08:31:39.768Z</time></trkpt><trkpt lat="43.263895" lon="11.2880483"><ele>246.0</ele><time>2026-04-18T08:31:40.767Z</time></trkpt><trkpt lat="43.2638033" lon="11.2880117"><ele>246.00000000000003</ele><time>2026-04-18T08:31:41.768Z</time></trkpt><trkpt lat="43.26371" lon="11.287965"><ele>246.00000000000003</ele><time>2026-04-18T08:31:42.769Z</time></trkpt><trkpt lat="43.2636167" lon="11.2879133"><ele>246.0</ele><time>2026-04-18T08:31:43.766Z</time></trkpt><trkpt lat="43.263525" lon="11.28786"><ele>246.0</ele><time>2026-04-18T08:31:44.764Z</time></trkpt><trkpt lat="43.2634317" lon="11.2878"><ele>246.0</ele><time>2026-04-18T08:31:45.768Z</time></trkpt><trkpt lat="43.2633417" lon="11.2877333"><ele>246.00000000000003</ele><time>2026-04-18T08:31:46.768Z</time></trkpt><trkpt lat="43.2632517" lon="11.2876667"><ele>246.00000000000003</ele><time>2026-04-18T08:31:47.768Z</time></trkpt><trkpt lat="43.2631617" lon="11.2875967"><ele>246.0</ele><time>2026-04-18T08:31:48.77Z</time></trkpt><trkpt lat="43.2630717" lon="11.2875233"><ele>246.0</ele><time>2026-04-18T08:31:49.768Z</time></trkpt><trkpt lat="43.2629767" lon="11.28745"><ele>245.4</ele><time>2026-04-18T08:31:50.767Z</time></trkpt><trkpt lat="43.26288" lon="11.2873767"><ele>244.8</ele><time>2026-04-18T08:31:51.765Z</time></trkpt><trkpt lat="43.2627833" lon="11.2873117"><ele>244.20000000000002</ele><time>2026-04-18T08:31:52.767Z</time></trkpt><trkpt lat="43.2626783" lon="11.28725"><ele>243.60000000000002</ele><time>2026-04-18T08:31:53.769Z</time></trkpt><trkpt lat="43.2625767" lon="11.2871783"><ele>243.0</ele><time>2026-04-18T08:31:54.771Z</time></trkpt><trkpt lat="43.2624683" lon="11.287105"><ele>242.75</ele><time>2026-04-18T08:31:55.765Z</time></trkpt><trkpt lat="43.2623633" lon="11.28704"><ele>242.5</ele><time>2026-04-18T08:31:56.767Z</time></trkpt><trkpt lat="43.262255" lon="11.2869767"><ele>242.25</ele><time>2026-04-18T08:31:57.77Z</time></trkpt><trkpt lat="43.2621483" lon="11.2869133"><ele>242.0</ele><time>2026-04-18T08:31:58.768Z</time></trkpt><trkpt lat="43.2620383" lon="11.2868667"><ele>242.6</ele><time>2026-04-18T08:31:59.769Z</time></trkpt><trkpt lat="43.2619283" lon="11.286835"><ele>243.2</ele><time>2026-04-18T08:32:00.771Z</time></trkpt><trkpt lat="43.26182" lon="11.286815"><ele>243.8</ele><time>2026-04-18T08:32:01.766Z</time></trkpt><trkpt lat="43.26171" lon="11.2868"><ele>244.4</ele><time>2026-04-18T08:32:02.766Z</time></trkpt><trkpt lat="43.2616" lon="11.28679"><ele>245.0</ele><time>2026-04-18T08:32:03.765Z</time></trkpt><trkpt lat="43.2614867" lon="11.2867817"><ele>244.5</ele><time>2026-04-18T08:32:04.765Z</time></trkpt><trkpt lat="43.26137" lon="11.2867783"><ele>244.0</ele><time>2026-04-18T08:32:05.77Z</time></trkpt><trkpt lat="43.2612533" lon="11.2867733"><ele>243.5</ele><time>2026-04-18T08:32:06.767Z</time></trkpt><trkpt lat="43.26113" lon="11.286775"><ele>243.0</ele><time>2026-04-18T08:32:07.765Z</time></trkpt><trkpt lat="43.2610067" lon="11.28678"><ele>243.0</ele><time>2026-04-18T08:32:08.766Z</time></trkpt><trkpt lat="43.2608833" lon="11.28679"><ele>243.0</ele><time>2026-04-18T08:32:09.769Z</time></trkpt><trkpt lat="43.2607633" lon="11.286805"><ele>243.0</ele><time>2026-04-18T08:32:10.77Z</time></trkpt><trkpt lat="43.2606533" lon="11.2868217"><ele>243.0</ele><time>2026-04-18T08:32:11.769Z</time></trkpt><trkpt lat="43.26056" lon="11.28683"><ele>243.0</ele><time>2026-04-18T08:32:12.769Z</time></trkpt><trkpt lat="43.26049" lon="11.28682"><ele>243.0</ele><time>2026-04-18T08:32:13.766Z</time></trkpt><trkpt lat="43.2604067" lon="11.2867733"><ele>243.0</ele><time>2026-04-18T08:32:15.771Z</time></trkpt><trkpt lat="43.260375" lon="11.2866933"><ele>243.0</ele><time>2026-04-18T08:32:17.769Z</time></trkpt><trkpt lat="43.260315" lon="11.2866083"><ele>243.0</ele><time>2026-04-18T08:32:19.768Z</time></trkpt><trkpt lat="43.2602217" lon="11.28657"><ele>243.0</ele><time>2026-04-18T08:32:21.771Z</time></trkpt><trkpt lat="43.260115" lon="11.286565"><ele>243.0</ele><time>2026-04-18T08:32:23.767Z</time></trkpt><trkpt lat="43.2600533" lon="11.286545"><ele>243.0</ele><time>2026-04-18T08:32:24.77Z</time></trkpt><trkpt lat="43.25999" lon="11.286515"><ele>243.0</ele><time>2026-04-18T08:32:25.768Z</time></trkpt><trkpt lat="43.2599267" lon="11.286475"><ele>243.0</ele><time>2026-04-18T08:32:26.765Z</time></trkpt><trkpt lat="43.2598667" lon="11.2864233"><ele>243.0</ele><time>2026-04-18T08:32:27.77Z</time></trkpt><trkpt lat="43.2598083" lon="11.2863717"><ele>243.0</ele><time>2026-04-18T08:32:28.765Z</time></trkpt><trkpt lat="43.2597517" lon="11.2863183"><ele>243.0</ele><time>2026-04-18T08:32:29.769Z</time></trkpt><trkpt lat="43.259695" lon="11.2862683"><ele>243.0</ele><time>2026-04-18T08:32:30.772Z</time></trkpt><trkpt lat="43.2596383" lon="11.286215"><ele>244.2</ele><time>2026-04-18T08:32:31.768Z</time></trkpt><trkpt lat="43.2595833" lon="11.2861567"><ele>245.4</ele><time>2026-04-18T08:32:32.767Z</time></trkpt><trkpt lat="43.2595267" lon="11.2861"><ele>246.59999999999997</ele><time>2026-04-18T08:32:33.768Z</time></trkpt><trkpt lat="43.2594667" lon="11.28605"><ele>247.79999999999998</ele><time>2026-04-18T08:32:34.765Z</time></trkpt><trkpt lat="43.25936" lon="11.2859517"><ele>249.0</ele><time>2026-04-18T08:32:36.77Z</time></trkpt><trkpt lat="43.25926" lon="11.2858483"><ele>249.0</ele><time>2026-04-18T08:32:38.767Z</time></trkpt><trkpt lat="43.2592067" lon="11.2857983"><ele>248.99999999999997</ele><time>2026-04-18T08:32:39.764Z</time></trkpt><trkpt lat="43.2591417" lon="11.28574"><ele>249.0</ele><time>2026-04-18T08:32:40.764Z</time></trkpt><trkpt lat="43.2590817" lon="11.2856933"><ele>249.0</ele><time>2026-04-18T08:32:41.768Z</time></trkpt><trkpt lat="43.2590183" lon="11.2856467"><ele>248.99999999999997</ele><time>2026-04-18T08:32:42.77Z</time></trkpt><trkpt lat="43.25896" lon="11.28559"><ele>249.0</ele><time>2026-04-18T08:32:43.768Z</time></trkpt><trkpt lat="43.258895" lon="11.2855317"><ele>249.0</ele><time>2026-04-18T08:32:44.764Z</time></trkpt><trkpt lat="43.2588283" lon="11.285475"><ele>248.33333333333334</ele><time>2026-04-18T08:32:45.77Z</time></trkpt><trkpt lat="43.258755" lon="11.2854283"><ele>247.66666666666669</ele><time>2026-04-18T08:32:46.767Z</time></trkpt><trkpt lat="43.2586783" lon="11.2853917"><ele>247.0</ele><time>2026-04-18T08:32:47.769Z</time></trkpt><trkpt lat="43.2586017" lon="11.2853617"><ele>246.33333333333334</ele><time>2026-04-18T08:32:48.772Z</time></trkpt><trkpt lat="43.2585267" lon="11.285345"><ele>245.66666666666669</ele><time>2026-04-18T08:32:49.769Z</time></trkpt><trkpt lat="43.258455" lon="11.2853383"><ele>245.0</ele><time>2026-04-18T08:32:50.764Z</time></trkpt><trkpt lat="43.2583783" lon="11.2853317"><ele>245.00000000000003</ele><time>2026-04-18T08:32:51.768Z</time></trkpt><trkpt lat="43.2583017" lon="11.2853283"><ele>245.0</ele><time>2026-04-18T08:32:52.765Z</time></trkpt><trkpt lat="43.2582217" lon="11.285335"><ele>245.0</ele><time>2026-04-18T08:32:53.769Z</time></trkpt><trkpt lat="43.258145" lon="11.2853467"><ele>245.0</ele><time>2026-04-18T08:32:54.771Z</time></trkpt><trkpt lat="43.258065" lon="11.285355"><ele>245.00000000000003</ele><time>2026-04-18T08:32:55.759Z</time></trkpt><trkpt lat="43.257985" lon="11.28535"><ele>245.0</ele><time>2026-04-18T08:32:56.759Z</time></trkpt><trkpt lat="43.257905" lon="11.2853383"><ele>245.16666666666669</ele><time>2026-04-18T08:32:57.76Z</time></trkpt><trkpt lat="43.257825" lon="11.28532"><ele>245.33333333333334</ele><time>2026-04-18T08:32:58.768Z</time></trkpt><trkpt lat="43.2577467" lon="11.2853067"><ele>245.5</ele><time>2026-04-18T08:32:59.771Z</time></trkpt><trkpt lat="43.2576667" lon="11.2852883"><ele>245.66666666666669</ele><time>2026-04-18T08:33:00.772Z</time></trkpt><trkpt lat="43.25759" lon="11.2852733"><ele>245.83333333333334</ele><time>2026-04-18T08:33:01.766Z</time></trkpt><trkpt lat="43.25751" lon="11.2852583"><ele>246.0</ele><time>2026-04-18T08:33:02.767Z</time></trkpt><trkpt lat="43.2574283" lon="11.2852467"><ele>246.0</ele><time>2026-04-18T08:33:03.768Z</time></trkpt><trkpt lat="43.25735" lon="11.28523"><ele>246.0</ele><time>2026-04-18T08:33:04.767Z</time></trkpt><trkpt lat="43.257265" lon="11.285215"><ele>246.0</ele><time>2026-04-18T08:33:05.77Z</time></trkpt><trkpt lat="43.2571833" lon="11.2852"><ele>246.0</ele><time>2026-04-18T08:33:06.771Z</time></trkpt><trkpt lat="43.2571" lon="11.2851833"><ele>246.0</ele><time>2026-04-18T08:33:07.767Z</time></trkpt><trkpt lat="43.257015" lon="11.2851717"><ele>246.0</ele><time>2026-04-18T08:33:08.764Z</time></trkpt><trkpt lat="43.256935" lon="11.2851617"><ele>246.5</ele><time>2026-04-18T08:33:09.767Z</time></trkpt><trkpt lat="43.25686" lon="11.2851567"><ele>247.0</ele><time>2026-04-18T08:33:10.757Z</time></trkpt><trkpt lat="43.2567733" lon="11.28514"><ele>247.5</ele><time>2026-04-18T08:33:11.765Z</time></trkpt><trkpt lat="43.2566833" lon="11.28512"><ele>248.0</ele><time>2026-04-18T08:33:12.77Z</time></trkpt><trkpt lat="43.2565933" lon="11.2851033"><ele>248.5</ele><time>2026-04-18T08:33:13.768Z</time></trkpt><trkpt lat="43.2565017" lon="11.28509"><ele>249.0</ele><time>2026-04-18T08:33:14.767Z</time></trkpt><trkpt lat="43.2564117" lon="11.2850717"><ele>249.16666666666666</ele><time>2026-04-18T08:33:15.77Z</time></trkpt><trkpt lat="43.256325" lon="11.28505"><ele>249.33333333333331</ele><time>2026-04-18T08:33:16.764Z</time></trkpt><trkpt lat="43.25624" lon="11.2850333"><ele>249.5</ele><time>2026-04-18T08:33:17.768Z</time></trkpt><trkpt lat="43.2561583" lon="11.285015"><ele>249.66666666666666</ele><time>2026-04-18T08:33:18.769Z</time></trkpt><trkpt lat="43.2560817" lon="11.2849933"><ele>249.83333333333331</ele><time>2026-04-18T08:33:19.77Z</time></trkpt><trkpt lat="43.2559983" lon="11.2849667"><ele>250.0</ele><time>2026-04-18T08:33:20.768Z</time></trkpt><trkpt lat="43.2559133" lon="11.2849367"><ele>250.0</ele><time>2026-04-18T08:33:21.77Z</time></trkpt><trkpt lat="43.2558233" lon="11.284905"><ele>250.0</ele><time>2026-04-18T08:33:22.768Z</time></trkpt><trkpt lat="43.255735" lon="11.284865"><ele>250.0</ele><time>2026-04-18T08:33:23.769Z</time></trkpt><trkpt lat="43.2556467" lon="11.2848217"><ele>250.0</ele><time>2026-04-18T08:33:24.771Z</time></trkpt><trkpt lat="43.2555533" lon="11.28478"><ele>250.0</ele><time>2026-04-18T08:33:25.765Z</time></trkpt><trkpt lat="43.255465" lon="11.28474"><ele>249.4</ele><time>2026-04-18T08:33:26.768Z</time></trkpt><trkpt lat="43.2553767" lon="11.2846983"><ele>248.8</ele><time>2026-04-18T08:33:27.771Z</time></trkpt><trkpt lat="43.2552883" lon="11.2846583"><ele>248.2</ele><time>2026-04-18T08:33:28.764Z</time></trkpt><trkpt lat="43.2551967" lon="11.2846167"><ele>247.6</ele><time>2026-04-18T08:33:29.767Z</time></trkpt><trkpt lat="43.2550933" lon="11.2845783"><ele>247.0</ele><time>2026-04-18T08:33:30.769Z</time></trkpt><trkpt lat="43.2549917" lon="11.284535"><ele>247.0</ele><time>2026-04-18T08:33:31.769Z</time></trkpt><trkpt lat="43.254885" lon="11.2844967"><ele>247.0</ele><time>2026-04-18T08:33:32.764Z</time></trkpt><trkpt lat="43.254775" lon="11.2844633"><ele>247.0</ele><time>2026-04-18T08:33:33.768Z</time></trkpt><trkpt lat="43.2546567" lon="11.2844367"><ele>247.0</ele><time>2026-04-18T08:33:34.764Z</time></trkpt><trkpt lat="43.2545333" lon="11.2844167"><ele>246.25</ele><time>2026-04-18T08:33:35.772Z</time></trkpt><trkpt lat="43.2544117" lon="11.2844017"><ele>245.5</ele><time>2026-04-18T08:33:36.769Z</time></trkpt><trkpt lat="43.2542817" lon="11.2843867"><ele>244.75</ele><time>2026-04-18T08:33:37.77Z</time></trkpt><trkpt lat="43.2541517" lon="11.28437"><ele>244.0</ele><time>2026-04-18T08:33:38.764Z</time></trkpt><trkpt lat="43.2540217" lon="11.28435"><ele>242.0</ele><time>2026-04-18T08:33:39.769Z</time></trkpt><trkpt lat="43.2538817" lon="11.2843317"><ele>240.0</ele><time>2026-04-18T08:33:40.764Z</time></trkpt><trkpt lat="43.2537383" lon="11.2843183"><ele>238.0</ele><time>2026-04-18T08:33:41.767Z</time></trkpt><trkpt lat="43.2536033" lon="11.2843083"><ele>236.0</ele><time>2026-04-18T08:33:42.772Z</time></trkpt><trkpt lat="43.2534767" lon="11.2843"><ele>236.0</ele><time>2026-04-18T08:33:43.767Z</time></trkpt><trkpt lat="43.2533533" lon="11.284295"><ele>236.0</ele><time>2026-04-18T08:33:44.765Z</time></trkpt><trkpt lat="43.2532317" lon="11.284295"><ele>236.0</ele><time>2026-04-18T08:33:45.77Z</time></trkpt><trkpt lat="43.2531033" lon="11.2843033"><ele>236.0</ele><time>2026-04-18T08:33:46.764Z</time></trkpt><trkpt lat="43.25297" lon="11.2843117"><ele>236.0</ele><time>2026-04-18T08:33:47.77Z</time></trkpt><trkpt lat="43.252835" lon="11.28433"><ele>236.0</ele><time>2026-04-18T08:33:48.77Z</time></trkpt><trkpt lat="43.252695" lon="11.2843433"><ele>236.0</ele><time>2026-04-18T08:33:49.769Z</time></trkpt><trkpt lat="43.2525567" lon="11.2843533"><ele>236.0</ele><time>2026-04-18T08:33:50.764Z</time></trkpt><trkpt lat="43.2524233" lon="11.2843733"><ele>236.25</ele><time>2026-04-18T08:33:51.771Z</time></trkpt><trkpt lat="43.2522883" lon="11.2844033"><ele>236.5</ele><time>2026-04-18T08:33:52.765Z</time></trkpt><trkpt lat="43.25215" lon="11.2844317"><ele>236.75</ele><time>2026-04-18T08:33:53.768Z</time></trkpt><trkpt lat="43.25201" lon="11.284455"><ele>237.0</ele><time>2026-04-18T08:33:54.768Z</time></trkpt><trkpt lat="43.2518667" lon="11.2844783"><ele>237.0</ele><time>2026-04-18T08:33:55.765Z</time></trkpt><trkpt lat="43.2517167" lon="11.2844983"><ele>237.0</ele><time>2026-04-18T08:33:56.764Z</time></trkpt><trkpt lat="43.2515633" lon="11.2845133"><ele>237.0</ele><time>2026-04-18T08:33:57.765Z</time></trkpt><trkpt lat="43.2514083" lon="11.284525"><ele>236.0</ele><time>2026-04-18T08:33:58.764Z</time></trkpt><trkpt lat="43.2512517" lon="11.2845267"><ele>235.0</ele><time>2026-04-18T08:33:59.77Z</time></trkpt><trkpt lat="43.2510967" lon="11.284525"><ele>234.0</ele><time>2026-04-18T08:34:00.771Z</time></trkpt><trkpt lat="43.25094" lon="11.2845233"><ele>234.0</ele><time>2026-04-18T08:34:01.768Z</time></trkpt><trkpt lat="43.2507817" lon="11.28453"><ele>234.0</ele><time>2026-04-18T08:34:02.765Z</time></trkpt><trkpt lat="43.2506233" lon="11.284535"><ele>234.0</ele><time>2026-04-18T08:34:03.767Z</time></trkpt><trkpt lat="43.25046" lon="11.2845383"><ele>231.33333333333331</ele><time>2026-04-18T08:34:04.767Z</time></trkpt><trkpt lat="43.2502933" lon="11.28454"><ele>228.66666666666666</ele><time>2026-04-18T08:34:05.769Z</time></trkpt><trkpt lat="43.250125" lon="11.2845417"><ele>226.0</ele><time>2026-04-18T08:34:06.77Z</time></trkpt><trkpt lat="43.2499567" lon="11.2845433"><ele>223.33333333333331</ele><time>2026-04-18T08:34:07.766Z</time></trkpt><trkpt lat="43.249785" lon="11.284545"><ele>220.66666666666669</ele><time>2026-04-18T08:34:08.764Z</time></trkpt><trkpt lat="43.2496167" lon="11.2845467"><ele>218.0</ele><time>2026-04-18T08:34:09.767Z</time></trkpt><trkpt lat="43.2494517" lon="11.2845533"><ele>218.0</ele><time>2026-04-18T08:34:10.765Z</time></trkpt><trkpt lat="43.2492917" lon="11.28456"><ele>218.0</ele><time>2026-04-18T08:34:11.769Z</time></trkpt><trkpt lat="43.2491417" lon="11.2845667"><ele>218.0</ele><time>2026-04-18T08:34:12.77Z</time></trkpt><trkpt lat="43.2490017" lon="11.2845683"><ele>218.0</ele><time>2026-04-18T08:34:13.764Z</time></trkpt><trkpt lat="43.2488717" lon="11.2845633"><ele>218.0</ele><time>2026-04-18T08:34:14.765Z</time></trkpt><trkpt lat="43.2487467" lon="11.284555"><ele>218.0</ele><time>2026-04-18T08:34:15.768Z</time></trkpt><trkpt lat="43.2486283" lon="11.2845517"><ele>218.0</ele><time>2026-04-18T08:34:16.764Z</time></trkpt><trkpt lat="43.2485217" lon="11.2845517"><ele>218.0</ele><time>2026-04-18T08:34:17.764Z</time></trkpt><trkpt lat="43.2484133" lon="11.2845533"><ele>218.0</ele><time>2026-04-18T08:34:18.77Z</time></trkpt><trkpt lat="43.2483117" lon="11.2845567"><ele>218.0</ele><time>2026-04-18T08:34:19.768Z</time></trkpt><trkpt lat="43.2482117" lon="11.2845583"><ele>218.0</ele><time>2026-04-18T08:34:20.764Z</time></trkpt><trkpt lat="43.2481167" lon="11.284555"><ele>218.0</ele><time>2026-04-18T08:34:21.77Z</time></trkpt><trkpt lat="43.2480267" lon="11.284555"><ele>219.0</ele><time>2026-04-18T08:34:22.769Z</time></trkpt><trkpt lat="43.2479317" lon="11.284555"><ele>220.0</ele><time>2026-04-18T08:34:23.771Z</time></trkpt><trkpt lat="43.24783" lon="11.2845533"><ele>221.0</ele><time>2026-04-18T08:34:24.768Z</time></trkpt><trkpt lat="43.2477217" lon="11.28455"><ele>222.0</ele><time>2026-04-18T08:34:25.77Z</time></trkpt><trkpt lat="43.24761" lon="11.2845467"><ele>223.0</ele><time>2026-04-18T08:34:26.765Z</time></trkpt><trkpt lat="43.2474933" lon="11.28454"><ele>223.0</ele><time>2026-04-18T08:34:27.769Z</time></trkpt><trkpt lat="43.2473767" lon="11.2845317"><ele>223.0</ele><time>2026-04-18T08:34:28.765Z</time></trkpt><trkpt lat="43.2472533" lon="11.2845167"><ele>223.0</ele><time>2026-04-18T08:34:29.77Z</time></trkpt><trkpt lat="43.2471267" lon="11.2844933"><ele>223.0</ele><time>2026-04-18T08:34:30.768Z</time></trkpt><trkpt lat="43.2470017" lon="11.2844567"><ele>224.0</ele><time>2026-04-18T08:34:31.769Z</time></trkpt><trkpt lat="43.246875" lon="11.28441"><ele>225.0</ele><time>2026-04-18T08:34:32.765Z</time></trkpt><trkpt lat="43.2467483" lon="11.28436"><ele>226.0</ele><time>2026-04-18T08:34:33.764Z</time></trkpt><trkpt lat="43.2466167" lon="11.284305"><ele>227.0</ele><time>2026-04-18T08:34:34.764Z</time></trkpt><trkpt lat="43.2464833" lon="11.2842417"><ele>226.0</ele><time>2026-04-18T08:34:35.768Z</time></trkpt><trkpt lat="43.2463533" lon="11.2841733"><ele>225.0</ele><time>2026-04-18T08:34:36.769Z</time></trkpt><trkpt lat="43.2462217" lon="11.2841033"><ele>224.0</ele><time>2026-04-18T08:34:37.767Z</time></trkpt><trkpt lat="43.2460883" lon="11.2840317"><ele>223.0</ele><time>2026-04-18T08:34:38.767Z</time></trkpt><trkpt lat="43.245965" lon="11.2839583"><ele>222.75</ele><time>2026-04-18T08:34:39.765Z</time></trkpt><trkpt lat="43.2458317" lon="11.2838817"><ele>222.5</ele><time>2026-04-18T08:34:40.768Z</time></trkpt><trkpt lat="43.245695" lon="11.2837983"><ele>222.25</ele><time>2026-04-18T08:34:41.769Z</time></trkpt><trkpt lat="43.2455517" lon="11.2837167"><ele>222.0</ele><time>2026-04-18T08:34:42.769Z</time></trkpt><trkpt lat="43.2454067" lon="11.2836317"><ele>221.0</ele><time>2026-04-18T08:34:43.765Z</time></trkpt><trkpt lat="43.24526" lon="11.2835483"><ele>220.0</ele><time>2026-04-18T08:34:44.766Z</time></trkpt><trkpt lat="43.2451067" lon="11.2834683"><ele>219.0</ele><time>2026-04-18T08:34:45.764Z</time></trkpt><trkpt lat="43.2449467" lon="11.2833867"><ele>215.66666666666669</ele><time>2026-04-18T08:34:46.764Z</time></trkpt><trkpt lat="43.2447917" lon="11.2833033"><ele>212.33333333333334</ele><time>2026-04-18T08:34:47.769Z</time></trkpt><trkpt lat="43.2446383" lon="11.2832083"><ele>209.0</ele><time>2026-04-18T08:34:48.769Z</time></trkpt><trkpt lat="43.24447" lon="11.28312"><ele>209.33333333333334</ele><time>2026-04-18T08:34:49.768Z</time></trkpt><trkpt lat="43.2443" lon="11.2830267"><ele>209.66666666666669</ele><time>2026-04-18T08:34:50.764Z</time></trkpt><trkpt lat="43.24414" lon="11.2829367"><ele>210.0</ele><time>2026-04-18T08:34:51.767Z</time></trkpt><trkpt lat="43.2439867" lon="11.2828467"><ele>207.66666666666669</ele><time>2026-04-18T08:34:52.764Z</time></trkpt><trkpt lat="43.2438367" lon="11.2827617"><ele>205.33333333333334</ele><time>2026-04-18T08:34:53.767Z</time></trkpt><trkpt lat="43.243695" lon="11.282675"><ele>203.0</ele><time>2026-04-18T08:34:54.771Z</time></trkpt><trkpt lat="43.2435467" lon="11.2825833"><ele>203.0</ele><time>2026-04-18T08:34:55.765Z</time></trkpt><trkpt lat="43.2434017" lon="11.2824933"><ele>203.0</ele><time>2026-04-18T08:34:56.771Z</time></trkpt><trkpt lat="43.2432683" lon="11.28241"><ele>203.0</ele><time>2026-04-18T08:34:57.768Z</time></trkpt><trkpt lat="43.2431417" lon="11.2823283"><ele>203.0</ele><time>2026-04-18T08:34:58.77Z</time></trkpt><trkpt lat="43.2430233" lon="11.282255"><ele>201.75</ele><time>2026-04-18T08:34:59.769Z</time></trkpt><trkpt lat="43.2429133" lon="11.2821883"><ele>200.5</ele><time>2026-04-18T08:35:00.767Z</time></trkpt><trkpt lat="43.2428117" lon="11.2821183"><ele>199.25</ele><time>2026-04-18T08:35:01.769Z</time></trkpt><trkpt lat="43.2427083" lon="11.2820583"><ele>198.0</ele><time>2026-04-18T08:35:02.764Z</time></trkpt><trkpt lat="43.2426033" lon="11.2820167"><ele>198.0</ele><time>2026-04-18T08:35:03.766Z</time></trkpt><trkpt lat="43.242495" lon="11.2820067"><ele>198.0</ele><time>2026-04-18T08:35:04.764Z</time></trkpt><trkpt lat="43.2424" lon="11.2820283"><ele>198.0</ele><time>2026-04-18T08:35:05.765Z</time></trkpt><trkpt lat="43.24231" lon="11.2820433"><ele>198.0</ele><time>2026-04-18T08:35:06.771Z</time></trkpt><trkpt lat="43.242215" lon="11.28204"><ele>198.0</ele><time>2026-04-18T08:35:07.765Z</time></trkpt><trkpt lat="43.2421133" lon="11.281995"><ele>197.0</ele><time>2026-04-18T08:35:08.766Z</time></trkpt><trkpt lat="43.2419983" lon="11.281935"><ele>196.0</ele><time>2026-04-18T08:35:09.769Z</time></trkpt><trkpt lat="43.24187" lon="11.28188"><ele>195.0</ele><time>2026-04-18T08:35:10.764Z</time></trkpt><trkpt lat="43.241735" lon="11.281835"><ele>194.0</ele><time>2026-04-18T08:35:11.768Z</time></trkpt><trkpt lat="43.241605" lon="11.28179"><ele>194.0</ele><time>2026-04-18T08:35:12.765Z</time></trkpt><trkpt lat="43.2414717" lon="11.2817283"><ele>194.0</ele><time>2026-04-18T08:35:13.764Z</time></trkpt><trkpt lat="43.24134" lon="11.2816317"><ele>194.0</ele><time>2026-04-18T08:35:14.764Z</time></trkpt><trkpt lat="43.2412083" lon="11.2815133"><ele>194.0</ele><time>2026-04-18T08:35:15.768Z</time></trkpt><trkpt lat="43.2410783" lon="11.2813933"><ele>193.0</ele><time>2026-04-18T08:35:16.764Z</time></trkpt><trkpt lat="43.2409517" lon="11.2812633"><ele>192.0</ele><time>2026-04-18T08:35:17.764Z</time></trkpt><trkpt lat="43.24082" lon="11.2811317"><ele>191.0</ele><time>2026-04-18T08:35:18.766Z</time></trkpt><trkpt lat="43.2406883" lon="11.280995"><ele>190.66666666666666</ele><time>2026-04-18T08:35:19.77Z</time></trkpt><trkpt lat="43.240545" lon="11.28086"><ele>190.33333333333334</ele><time>2026-04-18T08:35:20.764Z</time></trkpt><trkpt lat="43.2403967" lon="11.2807267"><ele>190.0</ele><time>2026-04-18T08:35:21.764Z</time></trkpt><trkpt lat="43.240245" lon="11.2806067"><ele>189.66666666666669</ele><time>2026-04-18T08:35:22.764Z</time></trkpt><trkpt lat="43.2400967" lon="11.280495"><ele>189.33333333333334</ele><time>2026-04-18T08:35:23.768Z</time></trkpt><trkpt lat="43.23995" lon="11.2803883"><ele>189.0</ele><time>2026-04-18T08:35:24.773Z</time></trkpt><trkpt lat="43.2398" lon="11.28029"><ele>188.66666666666666</ele><time>2026-04-18T08:35:25.769Z</time></trkpt><trkpt lat="43.23964" lon="11.2801983"><ele>188.33333333333331</ele><time>2026-04-18T08:35:26.765Z</time></trkpt><trkpt lat="43.2394733" lon="11.2801133"><ele>188.0</ele><time>2026-04-18T08:35:27.771Z</time></trkpt><trkpt lat="43.2393033" lon="11.2800267"><ele>188.0</ele><time>2026-04-18T08:35:28.765Z</time></trkpt><trkpt lat="43.2391333" lon="11.27994"><ele>188.0</ele><time>2026-04-18T08:35:29.769Z</time></trkpt><trkpt lat="43.2389633" lon="11.2798533"><ele>188.0</ele><time>2026-04-18T08:35:30.768Z</time></trkpt><trkpt lat="43.2387883" lon="11.2797667"><ele>187.33333333333331</ele><time>2026-04-18T08:35:31.765Z</time></trkpt><trkpt lat="43.2386133" lon="11.27968"><ele>186.66666666666666</ele><time>2026-04-18T08:35:32.764Z</time></trkpt><trkpt lat="43.2384383" lon="11.2795933"><ele>186.0</ele><time>2026-04-18T08:35:33.766Z</time></trkpt><trkpt lat="43.2382633" lon="11.279505"><ele>186.33333333333334</ele><time>2026-04-18T08:35:34.765Z</time></trkpt><trkpt lat="43.2380867" lon="11.27941"><ele>186.66666666666669</ele><time>2026-04-18T08:35:35.767Z</time></trkpt><trkpt lat="43.2379033" lon="11.2793133"><ele>187.0</ele><time>2026-04-18T08:35:36.771Z</time></trkpt><trkpt lat="43.2377167" lon="11.2792117"><ele>187.0</ele><time>2026-04-18T08:35:37.771Z</time></trkpt><trkpt lat="43.2375317" lon="11.27911"><ele>187.0</ele><time>2026-04-18T08:35:38.769Z</time></trkpt><trkpt lat="43.2373467" lon="11.2790083"><ele>187.0</ele><time>2026-04-18T08:35:39.767Z</time></trkpt><trkpt lat="43.2371567" lon="11.2789017"><ele>187.0</ele><time>2026-04-18T08:35:40.764Z</time></trkpt><trkpt lat="43.2369617" lon="11.2787917"><ele>187.0</ele><time>2026-04-18T08:35:41.771Z</time></trkpt><trkpt lat="43.2367667" lon="11.2786817"><ele>187.0</ele><time>2026-04-18T08:35:42.764Z</time></trkpt><trkpt lat="43.23657" lon="11.2785733"><ele>188.0</ele><time>2026-04-18T08:35:43.77Z</time></trkpt><trkpt lat="43.23637" lon="11.2784583"><ele>189.0</ele><time>2026-04-18T08:35:44.764Z</time></trkpt><trkpt lat="43.23617" lon="11.2783417"><ele>190.0</ele><time>2026-04-18T08:35:45.769Z</time></trkpt><trkpt lat="43.23597" lon="11.2782233"><ele>190.0</ele><time>2026-04-18T08:35:46.766Z</time></trkpt><trkpt lat="43.2357667" lon="11.2781033"><ele>190.0</ele><time>2026-04-18T08:35:47.768Z</time></trkpt><trkpt lat="43.23556" lon="11.2779833"><ele>190.0</ele><time>2026-04-18T08:35:48.769Z</time></trkpt><trkpt lat="43.2353533" lon="11.277865"><ele>189.66666666666669</ele><time>2026-04-18T08:35:49.771Z</time></trkpt><trkpt lat="43.2351483" lon="11.277745"><ele>189.33333333333334</ele><time>2026-04-18T08:35:50.768Z</time></trkpt><trkpt lat="43.23494" lon="11.277625"><ele>189.0</ele><time>2026-04-18T08:35:51.767Z</time></trkpt><trkpt lat="43.2347317" lon="11.277505"><ele>189.0</ele><time>2026-04-18T08:35:52.764Z</time></trkpt><trkpt lat="43.2345233" lon="11.2773883"><ele>189.0</ele><time>2026-04-18T08:35:53.772Z</time></trkpt><trkpt lat="43.2343167" lon="11.2772783"><ele>189.0</ele><time>2026-04-18T08:35:54.769Z</time></trkpt><trkpt lat="43.2341083" lon="11.2771783"><ele>188.0</ele><time>2026-04-18T08:35:55.766Z</time></trkpt><trkpt lat="43.2339" lon="11.2770833"><ele>187.0</ele><time>2026-04-18T08:35:56.767Z</time></trkpt><trkpt lat="43.2336917" lon="11.276995"><ele>186.0</ele><time>2026-04-18T08:35:57.768Z</time></trkpt><trkpt lat="43.2334817" lon="11.2769117"><ele>186.0</ele><time>2026-04-18T08:35:58.767Z</time></trkpt><trkpt lat="43.2332717" lon="11.2768367"><ele>186.0</ele><time>2026-04-18T08:35:59.767Z</time></trkpt><trkpt lat="43.23306" lon="11.2767633"><ele>186.0</ele><time>2026-04-18T08:36:00.771Z</time></trkpt><trkpt lat="43.2328467" lon="11.2766933"><ele>186.66666666666666</ele><time>2026-04-18T08:36:01.77Z</time></trkpt><trkpt lat="43.2326333" lon="11.2766233"><ele>187.33333333333331</ele><time>2026-04-18T08:36:02.765Z</time></trkpt><trkpt lat="43.232425" lon="11.2765533"><ele>188.0</ele><time>2026-04-18T08:36:03.765Z</time></trkpt><trkpt lat="43.23222" lon="11.2764867"><ele>188.33333333333331</ele><time>2026-04-18T08:36:04.767Z</time></trkpt><trkpt lat="43.2320117" lon="11.2764183"><ele>188.66666666666666</ele><time>2026-04-18T08:36:05.77Z</time></trkpt><trkpt lat="43.2318033" lon="11.27635"><ele>189.0</ele><time>2026-04-18T08:36:06.769Z</time></trkpt><trkpt lat="43.231595" lon="11.2762817"><ele>189.66666666666666</ele><time>2026-04-18T08:36:07.77Z</time></trkpt><trkpt lat="43.231385" lon="11.2762083"><ele>190.33333333333331</ele><time>2026-04-18T08:36:08.768Z</time></trkpt><trkpt lat="43.2311767" lon="11.2761417"><ele>191.0</ele><time>2026-04-18T08:36:09.768Z</time></trkpt><trkpt lat="43.23097" lon="11.276075"><ele>191.0</ele><time>2026-04-18T08:36:10.765Z</time></trkpt><trkpt lat="43.23076" lon="11.2760083"><ele>191.0</ele><time>2026-04-18T08:36:11.77Z</time></trkpt><trkpt lat="43.2305483" lon="11.275945"><ele>191.0</ele><time>2026-04-18T08:36:12.773Z</time></trkpt><trkpt lat="43.2303367" lon="11.2758817"><ele>191.0</ele><time>2026-04-18T08:36:13.764Z</time></trkpt><trkpt lat="43.2301283" lon="11.2758133"><ele>191.0</ele><time>2026-04-18T08:36:14.768Z</time></trkpt><trkpt lat="43.2299183" lon="11.2757433"><ele>191.0</ele><time>2026-04-18T08:36:15.77Z</time></trkpt><trkpt lat="43.22971" lon="11.275675"><ele>191.0</ele><time>2026-04-18T08:36:16.764Z</time></trkpt><trkpt lat="43.2295" lon="11.2756067"><ele>191.0</ele><time>2026-04-18T08:36:17.765Z</time></trkpt><trkpt lat="43.2292933" lon="11.2755367"><ele>191.0</ele><time>2026-04-18T08:36:18.767Z</time></trkpt><trkpt lat="43.2290867" lon="11.2754633"><ele>191.66666666666666</ele><time>2026-04-18T08:36:19.769Z</time></trkpt><trkpt lat="43.2288817" lon="11.2753917"><ele>192.33333333333331</ele><time>2026-04-18T08:36:20.765Z</time></trkpt><trkpt lat="43.2286783" lon="11.27532"><ele>193.0</ele><time>2026-04-18T08:36:21.767Z</time></trkpt><trkpt lat="43.2284733" lon="11.2752417"><ele>193.0</ele><time>2026-04-18T08:36:22.769Z</time></trkpt><trkpt lat="43.22827" lon="11.27516"><ele>193.0</ele><time>2026-04-18T08:36:23.77Z</time></trkpt><trkpt lat="43.2280667" lon="11.27508"><ele>193.0</ele><time>2026-04-18T08:36:24.771Z</time></trkpt><trkpt lat="43.2278633" lon="11.2750033"><ele>192.33333333333331</ele><time>2026-04-18T08:36:25.771Z</time></trkpt><trkpt lat="43.2276567" lon="11.2749283"><ele>191.66666666666666</ele><time>2026-04-18T08:36:26.766Z</time></trkpt><trkpt lat="43.2274483" lon="11.2748567"><ele>191.0</ele><time>2026-04-18T08:36:27.77Z</time></trkpt><trkpt lat="43.22724" lon="11.274785"><ele>190.33333333333331</ele><time>2026-04-18T08:36:28.768Z</time></trkpt><trkpt lat="43.2270317" lon="11.2747117"><ele>189.66666666666666</ele><time>2026-04-18T08:36:29.768Z</time></trkpt><trkpt lat="43.2268233" lon="11.2746383"><ele>189.0</ele><time>2026-04-18T08:36:30.769Z</time></trkpt><trkpt lat="43.2266133" lon="11.2745733"><ele>189.66666666666666</ele><time>2026-04-18T08:36:31.771Z</time></trkpt><trkpt lat="43.2264067" lon="11.27451"><ele>190.33333333333331</ele><time>2026-04-18T08:36:32.765Z</time></trkpt><trkpt lat="43.2262" lon="11.2744417"><ele>191.0</ele><time>2026-04-18T08:36:33.767Z</time></trkpt><trkpt lat="43.2259883" lon="11.2743683"><ele>191.0</ele><time>2026-04-18T08:36:34.765Z</time></trkpt><trkpt lat="43.2257817" lon="11.2742967"><ele>191.0</ele><time>2026-04-18T08:36:35.769Z</time></trkpt><trkpt lat="43.225575" lon="11.274225"><ele>191.0</ele><time>2026-04-18T08:36:36.77Z</time></trkpt><trkpt lat="43.2253667" lon="11.274155"><ele>191.66666666666666</ele><time>2026-04-18T08:36:37.769Z</time></trkpt><trkpt lat="43.22516" lon="11.274085"><ele>192.33333333333331</ele><time>2026-04-18T08:36:38.769Z</time></trkpt><trkpt lat="43.2249567" lon="11.2740183"><ele>193.0</ele><time>2026-04-18T08:36:39.769Z</time></trkpt><trkpt lat="43.2247533" lon="11.27395"><ele>192.0</ele><time>2026-04-18T08:36:40.768Z</time></trkpt><trkpt lat="43.22455" lon="11.2738833"><ele>191.0</ele><time>2026-04-18T08:36:41.77Z</time></trkpt><trkpt lat="43.2243483" lon="11.2738133"><ele>190.0</ele><time>2026-04-18T08:36:42.764Z</time></trkpt><trkpt lat="43.2241467" lon="11.2737483"><ele>190.0</ele><time>2026-04-18T08:36:43.767Z</time></trkpt><trkpt lat="43.2239483" lon="11.273685"><ele>190.0</ele><time>2026-04-18T08:36:44.764Z</time></trkpt><trkpt lat="43.22375" lon="11.2736317"><ele>190.0</ele><time>2026-04-18T08:36:45.771Z</time></trkpt><trkpt lat="43.223545" lon="11.2735917"><ele>190.0</ele><time>2026-04-18T08:36:46.765Z</time></trkpt><trkpt lat="43.2233433" lon="11.2735633"><ele>190.0</ele><time>2026-04-18T08:36:47.765Z</time></trkpt><trkpt lat="43.2231417" lon="11.273545"><ele>190.0</ele><time>2026-04-18T08:36:48.771Z</time></trkpt><trkpt lat="43.2229367" lon="11.2735417"><ele>189.33333333333334</ele><time>2026-04-18T08:36:49.762Z</time></trkpt><trkpt lat="43.2227333" lon="11.2735483"><ele>188.66666666666666</ele><time>2026-04-18T08:36:50.764Z</time></trkpt><trkpt lat="43.2225317" lon="11.2735733"><ele>188.0</ele><time>2026-04-18T08:36:51.768Z</time></trkpt><trkpt lat="43.222335" lon="11.2736183"><ele>187.66666666666666</ele><time>2026-04-18T08:36:52.767Z</time></trkpt><trkpt lat="43.222145" lon="11.27368"><ele>187.33333333333334</ele><time>2026-04-18T08:36:53.768Z</time></trkpt><trkpt lat="43.2219567" lon="11.2737483"><ele>187.0</ele><time>2026-04-18T08:36:54.771Z</time></trkpt><trkpt lat="43.2217717" lon="11.2738233"><ele>187.0</ele><time>2026-04-18T08:36:55.771Z</time></trkpt><trkpt lat="43.2215967" lon="11.2738967"><ele>187.0</ele><time>2026-04-18T08:36:56.764Z</time></trkpt><trkpt lat="43.2214317" lon="11.27397"><ele>187.0</ele><time>2026-04-18T08:36:57.765Z</time></trkpt><trkpt lat="43.2212767" lon="11.27404"><ele>187.25</ele><time>2026-04-18T08:36:58.768Z</time></trkpt><trkpt lat="43.22113" lon="11.2741017"><ele>187.5</ele><time>2026-04-18T08:36:59.759Z</time></trkpt><trkpt lat="43.2209967" lon="11.2741583"><ele>187.75</ele><time>2026-04-18T08:37:00.76Z</time></trkpt><trkpt lat="43.2208717" lon="11.27422"><ele>188.0</ele><time>2026-04-18T08:37:01.767Z</time></trkpt><trkpt lat="43.2207517" lon="11.274275"><ele>187.4</ele><time>2026-04-18T08:37:02.769Z</time></trkpt><trkpt lat="43.2206383" lon="11.2743267"><ele>186.8</ele><time>2026-04-18T08:37:03.769Z</time></trkpt><trkpt lat="43.220535" lon="11.2743767"><ele>186.2</ele><time>2026-04-18T08:37:04.764Z</time></trkpt><trkpt lat="43.2204433" lon="11.2744183"><ele>185.6</ele><time>2026-04-18T08:37:05.77Z</time></trkpt><trkpt lat="43.220365" lon="11.2744517"><ele>185.0</ele><time>2026-04-18T08:37:06.768Z</time></trkpt><trkpt lat="43.2203" lon="11.2744767"><ele>185.0</ele><time>2026-04-18T08:37:07.765Z</time></trkpt><trkpt lat="43.2201767" lon="11.2745"><ele>185.0</ele><time>2026-04-18T08:37:09.769Z</time></trkpt><trkpt lat="43.2200617" lon="11.2744967"><ele>185.0</ele><time>2026-04-18T08:37:11.77Z</time></trkpt><trkpt lat="43.2199417" lon="11.2745067"><ele>185.0</ele><time>2026-04-18T08:37:13.769Z</time></trkpt><trkpt lat="43.219875" lon="11.2745433"><ele>185.0</ele><time>2026-04-18T08:37:14.769Z</time></trkpt><trkpt lat="43.21981" lon="11.274605"><ele>184.8</ele><time>2026-04-18T08:37:15.764Z</time></trkpt><trkpt lat="43.2197367" lon="11.2746783"><ele>184.6</ele><time>2026-04-18T08:37:16.765Z</time></trkpt><trkpt lat="43.21965" lon="11.2747483"><ele>184.39999999999998</ele><time>2026-04-18T08:37:17.768Z</time></trkpt><trkpt lat="43.2195567" lon="11.2748067"><ele>184.2</ele><time>2026-04-18T08:37:18.771Z</time></trkpt><trkpt lat="43.2194617" lon="11.274855"><ele>184.0</ele><time>2026-04-18T08:37:19.768Z</time></trkpt><trkpt lat="43.2193683" lon="11.2748983"><ele>184.0</ele><time>2026-04-18T08:37:20.76Z</time></trkpt><trkpt lat="43.219275" lon="11.27494"><ele>184.0</ele><time>2026-04-18T08:37:21.769Z</time></trkpt><trkpt lat="43.21918" lon="11.2749783"><ele>184.0</ele><time>2026-04-18T08:37:22.767Z</time></trkpt><trkpt lat="43.2190783" lon="11.2750167"><ele>184.0</ele><time>2026-04-18T08:37:23.767Z</time></trkpt><trkpt lat="43.21897" lon="11.27506"><ele>184.0</ele><time>2026-04-18T08:37:24.771Z</time></trkpt><trkpt lat="43.21886" lon="11.2751083"><ele>183.75</ele><time>2026-04-18T08:37:25.77Z</time></trkpt><trkpt lat="43.2187433" lon="11.2751567"><ele>183.5</ele><time>2026-04-18T08:37:26.767Z</time></trkpt><trkpt lat="43.2186183" lon="11.2752117"><ele>183.25</ele><time>2026-04-18T08:37:27.767Z</time></trkpt><trkpt lat="43.2184883" lon="11.27527"><ele>183.0</ele><time>2026-04-18T08:37:28.767Z</time></trkpt><trkpt lat="43.2183533" lon="11.275325"><ele>183.0</ele><time>2026-04-18T08:37:29.768Z</time></trkpt><trkpt lat="43.2182117" lon="11.275385"><ele>183.0</ele><time>2026-04-18T08:37:30.77Z</time></trkpt><trkpt lat="43.2180633" lon="11.2754517"><ele>183.0</ele><time>2026-04-18T08:37:31.77Z</time></trkpt><trkpt lat="43.21791" lon="11.2755217"><ele>182.66666666666666</ele><time>2026-04-18T08:37:32.764Z</time></trkpt><trkpt lat="43.217755" lon="11.275595"><ele>182.33333333333331</ele><time>2026-04-18T08:37:33.767Z</time></trkpt><trkpt lat="43.2175883" lon="11.275675"><ele>182.0</ele><time>2026-04-18T08:37:34.764Z</time></trkpt><trkpt lat="43.217415" lon="11.27576"><ele>182.0</ele><time>2026-04-18T08:37:35.767Z</time></trkpt><trkpt lat="43.2172333" lon="11.2758467"><ele>182.0</ele><time>2026-04-18T08:37:36.767Z</time></trkpt><trkpt lat="43.2170433" lon="11.2759317"><ele>182.0</ele><time>2026-04-18T08:37:37.768Z</time></trkpt><trkpt lat="43.2168467" lon="11.2760067"><ele>182.0</ele><time>2026-04-18T08:37:38.767Z</time></trkpt><trkpt lat="43.21665" lon="11.276075"><ele>182.0</ele><time>2026-04-18T08:37:39.772Z</time></trkpt><trkpt lat="43.2164567" lon="11.2761483"><ele>182.0</ele><time>2026-04-18T08:37:40.766Z</time></trkpt><trkpt lat="43.216265" lon="11.2762267"><ele>181.66666666666666</ele><time>2026-04-18T08:37:41.766Z</time></trkpt><trkpt lat="43.2160717" lon="11.2763133"><ele>181.33333333333334</ele><time>2026-04-18T08:37:42.77Z</time></trkpt><trkpt lat="43.21588" lon="11.2764"><ele>181.0</ele><time>2026-04-18T08:37:43.769Z</time></trkpt><trkpt lat="43.215685" lon="11.2764883"><ele>182.0</ele><time>2026-04-18T08:37:44.764Z</time></trkpt><trkpt lat="43.2154917" lon="11.2765783"><ele>183.0</ele><time>2026-04-18T08:37:45.769Z</time></trkpt><trkpt lat="43.2152967" lon="11.27667"><ele>184.0</ele><time>2026-04-18T08:37:46.767Z</time></trkpt><trkpt lat="43.2151" lon="11.27676"><ele>184.0</ele><time>2026-04-18T08:37:47.772Z</time></trkpt><trkpt lat="43.2149033" lon="11.2768467"><ele>184.0</ele><time>2026-04-18T08:37:48.767Z</time></trkpt><trkpt lat="43.2147067" lon="11.27693"><ele>184.0</ele><time>2026-04-18T08:37:49.769Z</time></trkpt><trkpt lat="43.21451" lon="11.277005"><ele>183.0</ele><time>2026-04-18T08:37:50.765Z</time></trkpt><trkpt lat="43.214315" lon="11.2770783"><ele>182.0</ele><time>2026-04-18T08:37:51.766Z</time></trkpt><trkpt lat="43.2141233" lon="11.2771567"><ele>181.0</ele><time>2026-04-18T08:37:52.768Z</time></trkpt><trkpt lat="43.213935" lon="11.2772333"><ele>181.0</ele><time>2026-04-18T08:37:53.768Z</time></trkpt><trkpt lat="43.213745" lon="11.27731"><ele>181.0</ele><time>2026-04-18T08:37:54.77Z</time></trkpt><trkpt lat="43.2135583" lon="11.2773883"><ele>181.0</ele><time>2026-04-18T08:37:55.771Z</time></trkpt><trkpt lat="43.21337" lon="11.2774717"><ele>181.0</ele><time>2026-04-18T08:37:56.765Z</time></trkpt><trkpt lat="43.2131833" lon="11.2775567"><ele>181.0</ele><time>2026-04-18T08:37:57.77Z</time></trkpt><trkpt lat="43.213" lon="11.27764"><ele>181.0</ele><time>2026-04-18T08:37:58.765Z</time></trkpt><trkpt lat="43.21282" lon="11.27772"><ele>180.33333333333334</ele><time>2026-04-18T08:37:59.769Z</time></trkpt><trkpt lat="43.2126483" lon="11.2777967"><ele>179.66666666666666</ele><time>2026-04-18T08:38:00.77Z</time></trkpt><trkpt lat="43.2124917" lon="11.2778633"><ele>179.0</ele><time>2026-04-18T08:38:01.768Z</time></trkpt><trkpt lat="43.212355" lon="11.2779233"><ele>179.25</ele><time>2026-04-18T08:38:02.765Z</time></trkpt><trkpt lat="43.2122317" lon="11.2779767"><ele>179.5</ele><time>2026-04-18T08:38:03.771Z</time></trkpt><trkpt lat="43.2121167" lon="11.278025"><ele>179.75</ele><time>2026-04-18T08:38:04.77Z</time></trkpt><trkpt lat="43.2120017" lon="11.2780733"><ele>180.0</ele><time>2026-04-18T08:38:05.77Z</time></trkpt><trkpt lat="43.2118833" lon="11.2781217"><ele>180.75</ele><time>2026-04-18T08:38:06.768Z</time></trkpt><trkpt lat="43.2117617" lon="11.2781733"><ele>181.5</ele><time>2026-04-18T08:38:07.771Z</time></trkpt><trkpt lat="43.2116383" lon="11.278225"><ele>182.25</ele><time>2026-04-18T08:38:08.769Z</time></trkpt><trkpt lat="43.21152" lon="11.278275"><ele>183.0</ele><time>2026-04-18T08:38:09.769Z</time></trkpt><trkpt lat="43.2114083" lon="11.2783217"><ele>183.0</ele><time>2026-04-18T08:38:10.764Z</time></trkpt><trkpt lat="43.2113033" lon="11.2783683"><ele>183.0</ele><time>2026-04-18T08:38:11.77Z</time></trkpt><trkpt lat="43.2111967" lon="11.2784133"><ele>183.0</ele><time>2026-04-18T08:38:12.769Z</time></trkpt><trkpt lat="43.21109" lon="11.2784583"><ele>183.0</ele><time>2026-04-18T08:38:13.769Z</time></trkpt><trkpt lat="43.2109767" lon="11.278505"><ele>183.0</ele><time>2026-04-18T08:38:14.764Z</time></trkpt><trkpt lat="43.21086" lon="11.2785533"><ele>183.0</ele><time>2026-04-18T08:38:15.769Z</time></trkpt><trkpt lat="43.21074" lon="11.2786033"><ele>183.0</ele><time>2026-04-18T08:38:16.767Z</time></trkpt><trkpt lat="43.21062" lon="11.2786583"><ele>183.0</ele><time>2026-04-18T08:38:17.769Z</time></trkpt><trkpt lat="43.2104933" lon="11.2787183"><ele>183.0</ele><time>2026-04-18T08:38:18.77Z</time></trkpt><trkpt lat="43.2103617" lon="11.2787767"><ele>183.0</ele><time>2026-04-18T08:38:19.77Z</time></trkpt><trkpt lat="43.21023" lon="11.27884"><ele>183.0</ele><time>2026-04-18T08:38:20.764Z</time></trkpt><trkpt lat="43.2100983" lon="11.2789"><ele>183.0</ele><time>2026-04-18T08:38:21.769Z</time></trkpt><trkpt lat="43.20997" lon="11.2789517"><ele>183.25</ele><time>2026-04-18T08:38:22.77Z</time></trkpt><trkpt lat="43.2098417" lon="11.279005"><ele>183.5</ele><time>2026-04-18T08:38:23.771Z</time></trkpt><trkpt lat="43.2097083" lon="11.27906"><ele>183.75</ele><time>2026-04-18T08:38:24.767Z</time></trkpt><trkpt lat="43.20957" lon="11.2791017"><ele>184.0</ele><time>2026-04-18T08:38:25.769Z</time></trkpt><trkpt lat="43.2094283" lon="11.2791333"><ele>184.66666666666669</ele><time>2026-04-18T08:38:26.765Z</time></trkpt><trkpt lat="43.2092817" lon="11.2791583"><ele>185.33333333333334</ele><time>2026-04-18T08:38:27.77Z</time></trkpt><trkpt lat="43.2091283" lon="11.2791717"><ele>186.0</ele><time>2026-04-18T08:38:28.764Z</time></trkpt><trkpt lat="43.2089667" lon="11.2791783"><ele>187.0</ele><time>2026-04-18T08:38:29.771Z</time></trkpt><trkpt lat="43.208795" lon="11.2791783"><ele>188.0</ele><time>2026-04-18T08:38:30.772Z</time></trkpt><trkpt lat="43.2086183" lon="11.2791633"><ele>189.0</ele><time>2026-04-18T08:38:31.768Z</time></trkpt><trkpt lat="43.2084383" lon="11.2791367"><ele>189.0</ele><time>2026-04-18T08:38:32.771Z</time></trkpt><trkpt lat="43.208265" lon="11.2790967"><ele>189.0</ele><time>2026-04-18T08:38:33.77Z</time></trkpt><trkpt lat="43.2080983" lon="11.2790467"><ele>189.0</ele><time>2026-04-18T08:38:34.764Z</time></trkpt><trkpt lat="43.207935" lon="11.2789933"><ele>188.75</ele><time>2026-04-18T08:38:35.767Z</time></trkpt><trkpt lat="43.2077867" lon="11.2789367"><ele>188.5</ele><time>2026-04-18T08:38:36.77Z</time></trkpt><trkpt lat="43.2076533" lon="11.2788783"><ele>188.25</ele><time>2026-04-18T08:38:37.763Z</time></trkpt><trkpt lat="43.20752" lon="11.278825"><ele>188.0</ele><time>2026-04-18T08:38:38.765Z</time></trkpt><trkpt lat="43.2073733" lon="11.2787733"><ele>186.33333333333331</ele><time>2026-04-18T08:38:39.768Z</time></trkpt><trkpt lat="43.2072233" lon="11.2787067"><ele>184.66666666666666</ele><time>2026-04-18T08:38:40.768Z</time></trkpt><trkpt lat="43.207065" lon="11.278635"><ele>183.0</ele><time>2026-04-18T08:38:41.769Z</time></trkpt><trkpt lat="43.2068967" lon="11.2785617"><ele>183.0</ele><time>2026-04-18T08:38:42.764Z</time></trkpt><trkpt lat="43.2067283" lon="11.278485"><ele>183.0</ele><time>2026-04-18T08:38:43.77Z</time></trkpt><trkpt lat="43.206565" lon="11.2784117"><ele>183.0</ele><time>2026-04-18T08:38:44.764Z</time></trkpt><trkpt lat="43.2064033" lon="11.2783433"><ele>182.66666666666666</ele><time>2026-04-18T08:38:45.768Z</time></trkpt><trkpt lat="43.206245" lon="11.2782817"><ele>182.33333333333331</ele><time>2026-04-18T08:38:46.767Z</time></trkpt><trkpt lat="43.20609" lon="11.2782183"><ele>182.0</ele><time>2026-04-18T08:38:47.769Z</time></trkpt><trkpt lat="43.20593" lon="11.2781567"><ele>182.33333333333331</ele><time>2026-04-18T08:38:48.769Z</time></trkpt><trkpt lat="43.2057667" lon="11.278095"><ele>182.66666666666666</ele><time>2026-04-18T08:38:49.769Z</time></trkpt><trkpt lat="43.2055967" lon="11.2780333"><ele>183.0</ele><time>2026-04-18T08:38:50.769Z</time></trkpt><trkpt lat="43.2054183" lon="11.2779717"><ele>182.0</ele><time>2026-04-18T08:38:51.77Z</time></trkpt><trkpt lat="43.2052383" lon="11.2779067"><ele>181.0</ele><time>2026-04-18T08:38:52.768Z</time></trkpt><trkpt lat="43.2050583" lon="11.2778383"><ele>180.0</ele><time>2026-04-18T08:38:53.772Z</time></trkpt><trkpt lat="43.2048783" lon="11.277765"><ele>180.66666666666666</ele><time>2026-04-18T08:38:54.766Z</time></trkpt><trkpt lat="43.2047" lon="11.277685"><ele>181.33333333333331</ele><time>2026-04-18T08:38:55.771Z</time></trkpt><trkpt lat="43.2045233" lon="11.277605"><ele>182.0</ele><time>2026-04-18T08:38:56.764Z</time></trkpt><trkpt lat="43.2043467" lon="11.277525"><ele>182.0</ele><time>2026-04-18T08:38:57.768Z</time></trkpt><trkpt lat="43.204165" lon="11.2774467"><ele>182.0</ele><time>2026-04-18T08:38:58.765Z</time></trkpt><trkpt lat="43.2039817" lon="11.277365"><ele>182.0</ele><time>2026-04-18T08:38:59.771Z</time></trkpt><trkpt lat="43.203795" lon="11.277285"><ele>181.33333333333331</ele><time>2026-04-18T08:39:00.771Z</time></trkpt><trkpt lat="43.2036067" lon="11.2772033"><ele>180.66666666666666</ele><time>2026-04-18T08:39:01.77Z</time></trkpt><trkpt lat="43.2034183" lon="11.2771233"><ele>180.0</ele><time>2026-04-18T08:39:02.765Z</time></trkpt><trkpt lat="43.2032283" lon="11.277045"><ele>180.33333333333334</ele><time>2026-04-18T08:39:03.766Z</time></trkpt><trkpt lat="43.203035" lon="11.2769667"><ele>180.66666666666669</ele><time>2026-04-18T08:39:04.767Z</time></trkpt><trkpt lat="43.2028417" lon="11.2768867"><ele>181.0</ele><time>2026-04-18T08:39:05.771Z</time></trkpt><trkpt lat="43.20265" lon="11.27681"><ele>181.0</ele><time>2026-04-18T08:39:06.771Z</time></trkpt><trkpt lat="43.2024567" lon="11.2767317"><ele>181.0</ele><time>2026-04-18T08:39:07.769Z</time></trkpt><trkpt lat="43.202265" lon="11.2766533"><ele>181.0</ele><time>2026-04-18T08:39:08.765Z</time></trkpt><trkpt lat="43.2020767" lon="11.2765767"><ele>181.0</ele><time>2026-04-18T08:39:09.771Z</time></trkpt><trkpt lat="43.201885" lon="11.2765017"><ele>181.0</ele><time>2026-04-18T08:39:10.765Z</time></trkpt><trkpt lat="43.2016967" lon="11.2764233"><ele>181.0</ele><time>2026-04-18T08:39:11.771Z</time></trkpt><trkpt lat="43.2015117" lon="11.2763483"><ele>182.33333333333334</ele><time>2026-04-18T08:39:12.764Z</time></trkpt><trkpt lat="43.2013267" lon="11.27628"><ele>183.66666666666666</ele><time>2026-04-18T08:39:13.765Z</time></trkpt><trkpt lat="43.2011383" lon="11.2762167"><ele>185.0</ele><time>2026-04-18T08:39:14.764Z</time></trkpt><trkpt lat="43.20095" lon="11.27616"><ele>185.0</ele><time>2026-04-18T08:39:15.767Z</time></trkpt><trkpt lat="43.2007567" lon="11.2761117"><ele>185.0</ele><time>2026-04-18T08:39:16.764Z</time></trkpt><trkpt lat="43.2005567" lon="11.276075"><ele>185.0</ele><time>2026-04-18T08:39:17.77Z</time></trkpt><trkpt lat="43.2003567" lon="11.2760483"><ele>183.66666666666666</ele><time>2026-04-18T08:39:18.771Z</time></trkpt><trkpt lat="43.2001567" lon="11.27603"><ele>182.33333333333334</ele><time>2026-04-18T08:39:19.771Z</time></trkpt><trkpt lat="43.1999533" lon="11.2760217"><ele>181.0</ele><time>2026-04-18T08:39:20.767Z</time></trkpt><trkpt lat="43.19975" lon="11.2760267"><ele>179.66666666666669</ele><time>2026-04-18T08:39:21.769Z</time></trkpt><trkpt lat="43.199545" lon="11.2760467"><ele>178.33333333333334</ele><time>2026-04-18T08:39:22.764Z</time></trkpt><trkpt lat="43.19934" lon="11.2760733"><ele>177.0</ele><time>2026-04-18T08:39:23.769Z</time></trkpt><trkpt lat="43.199135" lon="11.276105"><ele>176.66666666666666</ele><time>2026-04-18T08:39:24.77Z</time></trkpt><trkpt lat="43.1989317" lon="11.2761333"><ele>176.33333333333331</ele><time>2026-04-18T08:39:25.77Z</time></trkpt><trkpt lat="43.198725" lon="11.2761633"><ele>176.0</ele><time>2026-04-18T08:39:26.771Z</time></trkpt><trkpt lat="43.1985183" lon="11.276195"><ele>176.0</ele><time>2026-04-18T08:39:27.77Z</time></trkpt><trkpt lat="43.1983133" lon="11.276225"><ele>176.0</ele><time>2026-04-18T08:39:28.767Z</time></trkpt><trkpt lat="43.1981083" lon="11.2762567"><ele>176.0</ele><time>2026-04-18T08:39:29.77Z</time></trkpt><trkpt lat="43.1979017" lon="11.2762867"><ele>175.66666666666666</ele><time>2026-04-18T08:39:30.77Z</time></trkpt><trkpt lat="43.1976967" lon="11.276315"><ele>175.33333333333334</ele><time>2026-04-18T08:39:31.77Z</time></trkpt><trkpt lat="43.197495" lon="11.2763433"><ele>175.0</ele><time>2026-04-18T08:39:32.769Z</time></trkpt><trkpt lat="43.19729" lon="11.2763733"><ele>175.0</ele><time>2026-04-18T08:39:33.764Z</time></trkpt><trkpt lat="43.197085" lon="11.2764033"><ele>175.0</ele><time>2026-04-18T08:39:34.765Z</time></trkpt><trkpt lat="43.1968783" lon="11.276435"><ele>175.0</ele><time>2026-04-18T08:39:35.767Z</time></trkpt><trkpt lat="43.1966733" lon="11.276465"><ele>177.33333333333334</ele><time>2026-04-18T08:39:36.772Z</time></trkpt><trkpt lat="43.1964667" lon="11.276495"><ele>179.66666666666666</ele><time>2026-04-18T08:39:37.768Z</time></trkpt><trkpt lat="43.19626" lon="11.276525"><ele>182.0</ele><time>2026-04-18T08:39:38.771Z</time></trkpt><trkpt lat="43.1960533" lon="11.2765533"><ele>182.0</ele><time>2026-04-18T08:39:39.769Z</time></trkpt><trkpt lat="43.195845" lon="11.2765817"><ele>182.0</ele><time>2026-04-18T08:39:40.764Z</time></trkpt><trkpt lat="43.1956367" lon="11.2766117"><ele>182.0</ele><time>2026-04-18T08:39:41.768Z</time></trkpt><trkpt lat="43.19543" lon="11.2766417"><ele>181.0</ele><time>2026-04-18T08:39:42.764Z</time></trkpt><trkpt lat="43.1952217" lon="11.276675"><ele>180.0</ele><time>2026-04-18T08:39:43.77Z</time></trkpt><trkpt lat="43.195015" lon="11.2767117"><ele>179.0</ele><time>2026-04-18T08:39:44.768Z</time></trkpt><trkpt lat="43.1948117" lon="11.2767517"><ele>179.0</ele><time>2026-04-18T08:39:45.768Z</time></trkpt><trkpt lat="43.1946083" lon="11.2767967"><ele>179.0</ele><time>2026-04-18T08:39:46.764Z</time></trkpt><trkpt lat="43.194405" lon="11.27685"><ele>179.0</ele><time>2026-04-18T08:39:47.77Z</time></trkpt><trkpt lat="43.1942033" lon="11.2769167"><ele>179.0</ele><time>2026-04-18T08:39:48.77Z</time></trkpt><trkpt lat="43.194005" lon="11.2769967"><ele>179.0</ele><time>2026-04-18T08:39:49.769Z</time></trkpt><trkpt lat="43.1938083" lon="11.2770867"><ele>179.0</ele><time>2026-04-18T08:39:50.767Z</time></trkpt><trkpt lat="43.1936117" lon="11.2771767"><ele>179.0</ele><time>2026-04-18T08:39:51.769Z</time></trkpt><trkpt lat="43.1934183" lon="11.277265"><ele>179.0</ele><time>2026-04-18T08:39:52.765Z</time></trkpt><trkpt lat="43.1932267" lon="11.2773533"><ele>179.0</ele><time>2026-04-18T08:39:53.768Z</time></trkpt><trkpt lat="43.193035" lon="11.2774433"><ele>179.0</ele><time>2026-04-18T08:39:54.769Z</time></trkpt><trkpt lat="43.1928467" lon="11.2775367"><ele>179.0</ele><time>2026-04-18T08:39:55.767Z</time></trkpt><trkpt lat="43.192655" lon="11.27763"><ele>179.0</ele><time>2026-04-18T08:39:56.769Z</time></trkpt><trkpt lat="43.192465" lon="11.2777183"><ele>178.66666666666666</ele><time>2026-04-18T08:39:57.766Z</time></trkpt><trkpt lat="43.192275" lon="11.27781"><ele>178.33333333333334</ele><time>2026-04-18T08:39:58.767Z</time></trkpt><trkpt lat="43.1920883" lon="11.2778983"><ele>178.0</ele><time>2026-04-18T08:39:59.77Z</time></trkpt><trkpt lat="43.1918967" lon="11.2779683"><ele>178.0</ele><time>2026-04-18T08:40:00.772Z</time></trkpt><trkpt lat="43.1917" lon="11.2780217"><ele>178.0</ele><time>2026-04-18T08:40:01.77Z</time></trkpt><trkpt lat="43.1914967" lon="11.27805"><ele>178.0</ele><time>2026-04-18T08:40:02.767Z</time></trkpt><trkpt lat="43.1912917" lon="11.2780617"><ele>177.0</ele><time>2026-04-18T08:40:03.768Z</time></trkpt><trkpt lat="43.1910867" lon="11.2780533"><ele>176.0</ele><time>2026-04-18T08:40:04.765Z</time></trkpt><trkpt lat="43.190885" lon="11.278025"><ele>175.0</ele><time>2026-04-18T08:40:05.767Z</time></trkpt><trkpt lat="43.1906883" lon="11.2779767"><ele>177.33333333333334</ele><time>2026-04-18T08:40:06.767Z</time></trkpt><trkpt lat="43.19049" lon="11.2779083"><ele>179.66666666666666</ele><time>2026-04-18T08:40:07.766Z</time></trkpt><trkpt lat="43.1902967" lon="11.27782"><ele>182.0</ele><time>2026-04-18T08:40:08.767Z</time></trkpt><trkpt lat="43.190105" lon="11.2777117"><ele>182.0</ele><time>2026-04-18T08:40:09.769Z</time></trkpt><trkpt lat="43.1899167" lon="11.2775917"><ele>182.0</ele><time>2026-04-18T08:40:10.77Z</time></trkpt><trkpt lat="43.1897333" lon="11.2774617"><ele>182.0</ele><time>2026-04-18T08:40:11.77Z</time></trkpt><trkpt lat="43.1895533" lon="11.277335"><ele>180.33333333333331</ele><time>2026-04-18T08:40:12.764Z</time></trkpt><trkpt lat="43.18937" lon="11.2772083"><ele>178.66666666666666</ele><time>2026-04-18T08:40:13.764Z</time></trkpt><trkpt lat="43.189185" lon="11.277085"><ele>177.0</ele><time>2026-04-18T08:40:14.764Z</time></trkpt><trkpt lat="43.1889983" lon="11.2769633"><ele>180.33333333333334</ele><time>2026-04-18T08:40:15.769Z</time></trkpt><trkpt lat="43.188815" lon="11.2768417"><ele>183.66666666666669</ele><time>2026-04-18T08:40:16.765Z</time></trkpt><trkpt lat="43.18863" lon="11.2767267"><ele>187.0</ele><time>2026-04-18T08:40:17.768Z</time></trkpt><trkpt lat="43.18844" lon="11.2766217"><ele>187.0</ele><time>2026-04-18T08:40:18.771Z</time></trkpt><trkpt lat="43.18825" lon="11.2765367"><ele>187.0</ele><time>2026-04-18T08:40:19.77Z</time></trkpt><trkpt lat="43.1880583" lon="11.276475"><ele>187.0</ele><time>2026-04-18T08:40:20.766Z</time></trkpt><trkpt lat="43.18786" lon="11.2764333"><ele>187.0</ele><time>2026-04-18T08:40:21.769Z</time></trkpt><trkpt lat="43.187655" lon="11.27641"><ele>187.0</ele><time>2026-04-18T08:40:22.765Z</time></trkpt><trkpt lat="43.18745" lon="11.2764083"><ele>187.0</ele><time>2026-04-18T08:40:23.772Z</time></trkpt><trkpt lat="43.1872417" lon="11.2764183"><ele>190.33333333333334</ele><time>2026-04-18T08:40:24.768Z</time></trkpt><trkpt lat="43.1870317" lon="11.27644"><ele>193.66666666666669</ele><time>2026-04-18T08:40:25.768Z</time></trkpt><trkpt lat="43.18682" lon="11.27646"><ele>197.0</ele><time>2026-04-18T08:40:26.77Z</time></trkpt><trkpt lat="43.1866083" lon="11.276475"><ele>198.66666666666669</ele><time>2026-04-18T08:40:27.77Z</time></trkpt><trkpt lat="43.186395" lon="11.2764883"><ele>200.33333333333331</ele><time>2026-04-18T08:40:28.76Z</time></trkpt><trkpt lat="43.1861817" lon="11.2765017"><ele>202.0</ele><time>2026-04-18T08:40:29.769Z</time></trkpt><trkpt lat="43.1859683" lon="11.2765183"><ele>202.0</ele><time>2026-04-18T08:40:30.768Z</time></trkpt><trkpt lat="43.185755" lon="11.276535"><ele>202.0</ele><time>2026-04-18T08:40:31.77Z</time></trkpt><trkpt lat="43.18554" lon="11.2765533"><ele>202.0</ele><time>2026-04-18T08:40:32.765Z</time></trkpt><trkpt lat="43.1853233" lon="11.27657"><ele>203.0</ele><time>2026-04-18T08:40:33.769Z</time></trkpt><trkpt lat="43.1851083" lon="11.2765867"><ele>204.0</ele><time>2026-04-18T08:40:34.768Z</time></trkpt><trkpt lat="43.18489" lon="11.276605"><ele>205.0</ele><time>2026-04-18T08:40:35.767Z</time></trkpt><trkpt lat="43.18467" lon="11.27662"><ele>205.0</ele><time>2026-04-18T08:40:36.771Z</time></trkpt><trkpt lat="43.1844533" lon="11.276635"><ele>205.0</ele><time>2026-04-18T08:40:37.766Z</time></trkpt><trkpt lat="43.184235" lon="11.27665"><ele>205.0</ele><time>2026-04-18T08:40:38.763Z</time></trkpt><trkpt lat="43.184015" lon="11.2766667"><ele>204.33333333333331</ele><time>2026-04-18T08:40:39.764Z</time></trkpt><trkpt lat="43.183795" lon="11.2766833"><ele>203.66666666666669</ele><time>2026-04-18T08:40:40.769Z</time></trkpt><trkpt lat="43.1835783" lon="11.2767017"><ele>203.0</ele><time>2026-04-18T08:40:41.769Z</time></trkpt><trkpt lat="43.18336" lon="11.27672"><ele>203.33333333333334</ele><time>2026-04-18T08:40:42.764Z</time></trkpt><trkpt lat="43.183145" lon="11.2767367"><ele>203.66666666666669</ele><time>2026-04-18T08:40:43.766Z</time></trkpt><trkpt lat="43.1829283" lon="11.2767533"><ele>204.0</ele><time>2026-04-18T08:40:44.764Z</time></trkpt><trkpt lat="43.1827133" lon="11.2767683"><ele>204.0</ele><time>2026-04-18T08:40:45.764Z</time></trkpt><trkpt lat="43.1824967" lon="11.2767833"><ele>204.0</ele><time>2026-04-18T08:40:46.764Z</time></trkpt><trkpt lat="43.1822833" lon="11.276795"><ele>204.0</ele><time>2026-04-18T08:40:47.77Z</time></trkpt><trkpt lat="43.1820667" lon="11.2768067"><ele>204.66666666666669</ele><time>2026-04-18T08:40:48.768Z</time></trkpt><trkpt lat="43.18185" lon="11.2768233"><ele>205.33333333333334</ele><time>2026-04-18T08:40:49.767Z</time></trkpt><trkpt lat="43.1816333" lon="11.2768383"><ele>206.0</ele><time>2026-04-18T08:40:50.764Z</time></trkpt><trkpt lat="43.1814167" lon="11.276855"><ele>206.33333333333334</ele><time>2026-04-18T08:40:51.765Z</time></trkpt><trkpt lat="43.1812017" lon="11.2768717"><ele>206.66666666666669</ele><time>2026-04-18T08:40:52.764Z</time></trkpt><trkpt lat="43.1809867" lon="11.27689"><ele>207.0</ele><time>2026-04-18T08:40:53.765Z</time></trkpt><trkpt lat="43.18077" lon="11.2769033"><ele>205.0</ele><time>2026-04-18T08:40:54.771Z</time></trkpt><trkpt lat="43.1805517" lon="11.276915"><ele>203.0</ele><time>2026-04-18T08:40:55.766Z</time></trkpt><trkpt lat="43.1803333" lon="11.276935"><ele>201.0</ele><time>2026-04-18T08:40:56.764Z</time></trkpt><trkpt lat="43.1801117" lon="11.2769617"><ele>201.0</ele><time>2026-04-18T08:40:57.769Z</time></trkpt><trkpt lat="43.1798917" lon="11.276995"><ele>201.0</ele><time>2026-04-18T08:40:58.765Z</time></trkpt><trkpt lat="43.1796733" lon="11.2770433"><ele>201.0</ele><time>2026-04-18T08:40:59.771Z</time></trkpt><trkpt lat="43.1794533" lon="11.2771067"><ele>195.5</ele><time>2026-04-18T08:41:00.765Z</time></trkpt><trkpt lat="43.1792367" lon="11.2771933"><ele>190.0</ele><time>2026-04-18T08:41:01.769Z</time></trkpt><trkpt lat="43.1790167" lon="11.27729"><ele>188.5</ele><time>2026-04-18T08:41:02.765Z</time></trkpt><trkpt lat="43.1788" lon="11.2773933"><ele>187.0</ele><time>2026-04-18T08:41:03.765Z</time></trkpt><trkpt lat="43.1785833" lon="11.2775017"><ele>187.0</ele><time>2026-04-18T08:41:04.764Z</time></trkpt><trkpt lat="43.1783683" lon="11.277615"><ele>187.0</ele><time>2026-04-18T08:41:05.771Z</time></trkpt><trkpt lat="43.1781533" lon="11.277725"><ele>185.5</ele><time>2026-04-18T08:41:06.77Z</time></trkpt><trkpt lat="43.1779383" lon="11.2778333"><ele>184.0</ele><time>2026-04-18T08:41:07.767Z</time></trkpt><trkpt lat="43.177725" lon="11.27794"><ele>184.0</ele><time>2026-04-18T08:41:08.764Z</time></trkpt><trkpt lat="43.1775117" lon="11.2780467"><ele>184.0</ele><time>2026-04-18T08:41:09.77Z</time></trkpt><trkpt lat="43.1773017" lon="11.27815"><ele>181.0</ele><time>2026-04-18T08:41:10.765Z</time></trkpt><trkpt lat="43.17709" lon="11.2782583"><ele>178.0</ele><time>2026-04-18T08:41:11.766Z</time></trkpt><trkpt lat="43.17688" lon="11.278365"><ele>178.0</ele><time>2026-04-18T08:41:12.77Z</time></trkpt><trkpt lat="43.1766683" lon="11.27847"><ele>178.0</ele><time>2026-04-18T08:41:13.768Z</time></trkpt><trkpt lat="43.17646" lon="11.2785717"><ele>178.0</ele><time>2026-04-18T08:41:14.765Z</time></trkpt><trkpt lat="43.1762583" lon="11.2786683"><ele>176.0</ele><time>2026-04-18T08:41:15.771Z</time></trkpt><trkpt lat="43.1760533" lon="11.278765"><ele>174.0</ele><time>2026-04-18T08:41:16.766Z</time></trkpt><trkpt lat="43.1758517" lon="11.2788633"><ele>172.0</ele><time>2026-04-18T08:41:17.769Z</time></trkpt><trkpt lat="43.1756533" lon="11.2789583"><ele>171.66666666666669</ele><time>2026-04-18T08:41:18.767Z</time></trkpt><trkpt lat="43.175455" lon="11.279055"><ele>171.33333333333334</ele><time>2026-04-18T08:41:19.766Z</time></trkpt><trkpt lat="43.17526" lon="11.279155"><ele>171.0</ele><time>2026-04-18T08:41:20.764Z</time></trkpt><trkpt lat="43.1750633" lon="11.2792517"><ele>171.0</ele><time>2026-04-18T08:41:21.768Z</time></trkpt><trkpt lat="43.1748683" lon="11.2793433"><ele>171.0</ele><time>2026-04-18T08:41:22.769Z</time></trkpt><trkpt lat="43.1746717" lon="11.2794367"><ele>171.0</ele><time>2026-04-18T08:41:23.764Z</time></trkpt><trkpt lat="43.174475" lon="11.2795317"><ele>170.66666666666666</ele><time>2026-04-18T08:41:24.767Z</time></trkpt><trkpt lat="43.174275" lon="11.279625"><ele>170.33333333333331</ele><time>2026-04-18T08:41:25.767Z</time></trkpt><trkpt lat="43.1740783" lon="11.2797217"><ele>170.0</ele><time>2026-04-18T08:41:26.768Z</time></trkpt><trkpt lat="43.1738817" lon="11.2798233"><ele>170.0</ele><time>2026-04-18T08:41:27.765Z</time></trkpt><trkpt lat="43.17368" lon="11.279925"><ele>170.0</ele><time>2026-04-18T08:41:28.764Z</time></trkpt><trkpt lat="43.1734783" lon="11.280025"><ele>170.0</ele><time>2026-04-18T08:41:29.77Z</time></trkpt><trkpt lat="43.1732767" lon="11.280125"><ele>169.0</ele><time>2026-04-18T08:41:30.771Z</time></trkpt><trkpt lat="43.1730767" lon="11.28022"><ele>168.0</ele><time>2026-04-18T08:41:31.769Z</time></trkpt><trkpt lat="43.172875" lon="11.2803133"><ele>167.0</ele><time>2026-04-18T08:41:32.77Z</time></trkpt><trkpt lat="43.1726767" lon="11.2804117"><ele>167.0</ele><time>2026-04-18T08:41:33.768Z</time></trkpt><trkpt lat="43.1724783" lon="11.2805183"><ele>167.0</ele><time>2026-04-18T08:41:34.765Z</time></trkpt><trkpt lat="43.172285" lon="11.2806383"><ele>167.0</ele><time>2026-04-18T08:41:35.771Z</time></trkpt><trkpt lat="43.172095" lon="11.2807767"><ele>167.33333333333331</ele><time>2026-04-18T08:41:36.764Z</time></trkpt><trkpt lat="43.1719083" lon="11.2809267"><ele>167.66666666666666</ele><time>2026-04-18T08:41:37.77Z</time></trkpt><trkpt lat="43.1717283" lon="11.281085"><ele>168.0</ele><time>2026-04-18T08:41:38.77Z</time></trkpt><trkpt lat="43.1715583" lon="11.281255"><ele>167.66666666666666</ele><time>2026-04-18T08:41:39.766Z</time></trkpt><trkpt lat="43.1713967" lon="11.281435"><ele>167.33333333333331</ele><time>2026-04-18T08:41:40.769Z</time></trkpt><trkpt lat="43.17123" lon="11.2816167"><ele>167.0</ele><time>2026-04-18T08:41:41.77Z</time></trkpt><trkpt lat="43.1710667" lon="11.281805"><ele>167.0</ele><time>2026-04-18T08:41:42.767Z</time></trkpt><trkpt lat="43.1709033" lon="11.2819933"><ele>167.0</ele><time>2026-04-18T08:41:43.769Z</time></trkpt><trkpt lat="43.17074" lon="11.2821783"><ele>167.0</ele><time>2026-04-18T08:41:44.768Z</time></trkpt><trkpt lat="43.17058" lon="11.282365"><ele>167.0</ele><time>2026-04-18T08:41:45.769Z</time></trkpt><trkpt lat="43.1704183" lon="11.2825533"><ele>167.0</ele><time>2026-04-18T08:41:46.764Z</time></trkpt><trkpt lat="43.1702583" lon="11.2827433"><ele>167.0</ele><time>2026-04-18T08:41:47.764Z</time></trkpt><trkpt lat="43.1700983" lon="11.2829317"><ele>167.0</ele><time>2026-04-18T08:41:48.769Z</time></trkpt><trkpt lat="43.16994" lon="11.283115"><ele>167.0</ele><time>2026-04-18T08:41:49.767Z</time></trkpt><trkpt lat="43.1697817" lon="11.283295"><ele>167.0</ele><time>2026-04-18T08:41:50.764Z</time></trkpt><trkpt lat="43.1696333" lon="11.2834733"><ele>167.0</ele><time>2026-04-18T08:41:51.768Z</time></trkpt><trkpt lat="43.1694883" lon="11.2836433"><ele>167.0</ele><time>2026-04-18T08:41:52.764Z</time></trkpt><trkpt lat="43.1693467" lon="11.283805"><ele>167.0</ele><time>2026-04-18T08:41:53.761Z</time></trkpt><trkpt lat="43.1692133" lon="11.2839667"><ele>167.66666666666666</ele><time>2026-04-18T08:41:54.771Z</time></trkpt><trkpt lat="43.1690683" lon="11.284135"><ele>168.33333333333334</ele><time>2026-04-18T08:41:55.765Z</time></trkpt><trkpt lat="43.1689183" lon="11.2843117"><ele>169.0</ele><time>2026-04-18T08:41:56.764Z</time></trkpt><trkpt lat="43.1687617" lon="11.2844917"><ele>169.0</ele><time>2026-04-18T08:41:57.77Z</time></trkpt><trkpt lat="43.1686017" lon="11.284675"><ele>169.0</ele><time>2026-04-18T08:41:58.769Z</time></trkpt><trkpt lat="43.1684417" lon="11.2848583"><ele>169.0</ele><time>2026-04-18T08:41:59.77Z</time></trkpt><trkpt lat="43.1682817" lon="11.28504"><ele>169.33333333333334</ele><time>2026-04-18T08:42:00.769Z</time></trkpt><trkpt lat="43.168125" lon="11.2852183"><ele>169.66666666666666</ele><time>2026-04-18T08:42:01.766Z</time></trkpt><trkpt lat="43.16797" lon="11.285395"><ele>170.0</ele><time>2026-04-18T08:42:02.767Z</time></trkpt><trkpt lat="43.1678117" lon="11.2855767"><ele>170.33333333333331</ele><time>2026-04-18T08:42:03.76Z</time></trkpt><trkpt lat="43.167655" lon="11.285755"><ele>170.66666666666666</ele><time>2026-04-18T08:42:04.757Z</time></trkpt><trkpt lat="43.1674967" lon="11.2859333"><ele>171.0</ele><time>2026-04-18T08:42:05.769Z</time></trkpt><trkpt lat="43.16734" lon="11.28611"><ele>171.0</ele><time>2026-04-18T08:42:06.77Z</time></trkpt><trkpt lat="43.167185" lon="11.286275"><ele>171.0</ele><time>2026-04-18T08:42:07.769Z</time></trkpt><trkpt lat="43.1670333" lon="11.286425"><ele>171.0</ele><time>2026-04-18T08:42:08.769Z</time></trkpt><trkpt lat="43.16689" lon="11.286555"><ele>171.25</ele><time>2026-04-18T08:42:09.771Z</time></trkpt><trkpt lat="43.1667583" lon="11.286665"><ele>171.5</ele><time>2026-04-18T08:42:10.767Z</time></trkpt><trkpt lat="43.1666383" lon="11.2867533"><ele>171.75</ele><time>2026-04-18T08:42:11.77Z</time></trkpt><trkpt lat="43.1665267" lon="11.2868267"><ele>172.0</ele><time>2026-04-18T08:42:12.771Z</time></trkpt><trkpt lat="43.16643" lon="11.286885"><ele>172.0</ele><time>2026-04-18T08:42:13.768Z</time></trkpt><trkpt lat="43.166355" lon="11.2869417"><ele>172.0</ele><time>2026-04-18T08:42:14.763Z</time></trkpt><trkpt lat="43.166295" lon="11.2870133"><ele>172.0</ele><time>2026-04-18T08:42:15.768Z</time></trkpt><trkpt lat="43.166255" lon="11.2870983"><ele>172.0</ele><time>2026-04-18T08:42:16.764Z</time></trkpt><trkpt lat="43.166245" lon="11.2871983"><ele>172.0</ele><time>2026-04-18T08:42:17.767Z</time></trkpt><trkpt lat="43.1662667" lon="11.2873167"><ele>172.0</ele><time>2026-04-18T08:42:18.769Z</time></trkpt><trkpt lat="43.166335" lon="11.2874483"><ele>172.66666666666669</ele><time>2026-04-18T08:42:19.768Z</time></trkpt><trkpt lat="43.1664133" lon="11.2876033"><ele>173.33333333333334</ele><time>2026-04-18T08:42:20.77Z</time></trkpt><trkpt lat="43.1665033" lon="11.2878033"><ele>174.0</ele><time>2026-04-18T08:42:21.768Z</time></trkpt><trkpt lat="43.1665783" lon="11.2880117"><ele>175.33333333333334</ele><time>2026-04-18T08:42:22.767Z</time></trkpt><trkpt lat="43.1666517" lon="11.2882317"><ele>176.66666666666669</ele><time>2026-04-18T08:42:23.77Z</time></trkpt><trkpt lat="43.1667217" lon="11.288455"><ele>178.0</ele><time>2026-04-18T08:42:24.771Z</time></trkpt><trkpt lat="43.16679" lon="11.2886783"><ele>178.0</ele><time>2026-04-18T08:42:25.769Z</time></trkpt><trkpt lat="43.166855" lon="11.2889033"><ele>178.0</ele><time>2026-04-18T08:42:26.769Z</time></trkpt><trkpt lat="43.16691" lon="11.2891367"><ele>178.0</ele><time>2026-04-18T08:42:27.764Z</time></trkpt><trkpt lat="43.1669433" lon="11.2893783"><ele>178.66666666666669</ele><time>2026-04-18T08:42:28.768Z</time></trkpt><trkpt lat="43.16695" lon="11.2896233"><ele>179.33333333333334</ele><time>2026-04-18T08:42:29.77Z</time></trkpt><trkpt lat="43.16694" lon="11.2898717"><ele>180.0</ele><time>2026-04-18T08:42:30.77Z</time></trkpt><trkpt lat="43.16692" lon="11.29012"><ele>181.0</ele><time>2026-04-18T08:42:31.771Z</time></trkpt><trkpt lat="43.1669" lon="11.2903717"><ele>182.0</ele><time>2026-04-18T08:42:32.77Z</time></trkpt><trkpt lat="43.16688" lon="11.290625"><ele>183.0</ele><time>2026-04-18T08:42:33.769Z</time></trkpt><trkpt lat="43.1668633" lon="11.2908817"><ele>183.66666666666666</ele><time>2026-04-18T08:42:34.77Z</time></trkpt><trkpt lat="43.1668417" lon="11.2911467"><ele>184.33333333333331</ele><time>2026-04-18T08:42:35.767Z</time></trkpt><trkpt lat="43.1668183" lon="11.2914167"><ele>185.0</ele><time>2026-04-18T08:42:36.772Z</time></trkpt><trkpt lat="43.1667967" lon="11.2917017"><ele>185.0</ele><time>2026-04-18T08:42:37.77Z</time></trkpt><trkpt lat="43.1667717" lon="11.291995"><ele>185.0</ele><time>2026-04-18T08:42:38.77Z</time></trkpt><trkpt lat="43.1667467" lon="11.2922917"><ele>185.0</ele><time>2026-04-18T08:42:39.77Z</time></trkpt><trkpt lat="43.16672" lon="11.29259"><ele>186.33333333333331</ele><time>2026-04-18T08:42:40.767Z</time></trkpt><trkpt lat="43.1666917" lon="11.2928883"><ele>187.66666666666666</ele><time>2026-04-18T08:42:41.764Z</time></trkpt><trkpt lat="43.1666633" lon="11.2931783"><ele>189.0</ele><time>2026-04-18T08:42:42.766Z</time></trkpt><trkpt lat="43.16665" lon="11.2934633"><ele>189.33333333333334</ele><time>2026-04-18T08:42:43.769Z</time></trkpt><trkpt lat="43.1666617" lon="11.29375"><ele>189.66666666666669</ele><time>2026-04-18T08:42:44.769Z</time></trkpt><trkpt lat="43.1666983" lon="11.294035"><ele>190.0</ele><time>2026-04-18T08:42:45.772Z</time></trkpt><trkpt lat="43.166765" lon="11.29431"><ele>191.0</ele><time>2026-04-18T08:42:46.769Z</time></trkpt><trkpt lat="43.1668717" lon="11.29457"><ele>192.0</ele><time>2026-04-18T08:42:47.765Z</time></trkpt><trkpt lat="43.1670133" lon="11.2948083"><ele>193.0</ele><time>2026-04-18T08:42:48.771Z</time></trkpt><trkpt lat="43.1671667" lon="11.2950317"><ele>194.0</ele><time>2026-04-18T08:42:49.765Z</time></trkpt><trkpt lat="43.1673383" lon="11.2952383"><ele>195.0</ele><time>2026-04-18T08:42:50.768Z</time></trkpt><trkpt lat="43.1675233" lon="11.2954367"><ele>195.33333333333331</ele><time>2026-04-18T08:42:51.769Z</time></trkpt><trkpt lat="43.16771" lon="11.29561"><ele>195.66666666666666</ele><time>2026-04-18T08:42:52.766Z</time></trkpt><trkpt lat="43.1678867" lon="11.2957717"><ele>196.0</ele><time>2026-04-18T08:42:53.769Z</time></trkpt><trkpt lat="43.1680533" lon="11.2959167"><ele>196.0</ele><time>2026-04-18T08:42:54.77Z</time></trkpt><trkpt lat="43.1681917" lon="11.2960467"><ele>196.0</ele><time>2026-04-18T08:42:55.766Z</time></trkpt><trkpt lat="43.1683017" lon="11.2961917"><ele>196.0</ele><time>2026-04-18T08:42:56.765Z</time></trkpt><trkpt lat="43.1683783" lon="11.2963533"><ele>199.5</ele><time>2026-04-18T08:42:57.767Z</time></trkpt><trkpt lat="43.1684233" lon="11.2965283"><ele>203.0</ele><time>2026-04-18T08:42:58.765Z</time></trkpt><trkpt lat="43.1684317" lon="11.296715"><ele>206.5</ele><time>2026-04-18T08:42:59.77Z</time></trkpt><trkpt lat="43.1683783" lon="11.2968783"><ele>210.0</ele><time>2026-04-18T08:43:00.773Z</time></trkpt><trkpt lat="43.16825" lon="11.2970517"><ele>207.66666666666669</ele><time>2026-04-18T08:43:01.769Z</time></trkpt><trkpt lat="43.1681" lon="11.2972117"><ele>205.33333333333334</ele><time>2026-04-18T08:43:02.767Z</time></trkpt><trkpt lat="43.1680133" lon="11.297365"><ele>203.0</ele><time>2026-04-18T08:43:03.768Z</time></trkpt><trkpt lat="43.1679467" lon="11.2975383"><ele>203.0</ele><time>2026-04-18T08:43:04.764Z</time></trkpt><trkpt lat="43.167885" lon="11.2977383"><ele>203.0</ele><time>2026-04-18T08:43:05.768Z</time></trkpt><trkpt lat="43.1678517" lon="11.2979367"><ele>203.0</ele><time>2026-04-18T08:43:06.771Z</time></trkpt><trkpt lat="43.167935" lon="11.2980983"><ele>203.33333333333334</ele><time>2026-04-18T08:43:07.77Z</time></trkpt><trkpt lat="43.16808" lon="11.2982183"><ele>203.66666666666669</ele><time>2026-04-18T08:43:08.764Z</time></trkpt><trkpt lat="43.168255" lon="11.2983083"><ele>204.0</ele><time>2026-04-18T08:43:09.77Z</time></trkpt><trkpt lat="43.1684317" lon="11.2983983"><ele>208.33333333333331</ele><time>2026-04-18T08:43:10.769Z</time></trkpt><trkpt lat="43.1686117" lon="11.2984783"><ele>212.66666666666666</ele><time>2026-04-18T08:43:11.77Z</time></trkpt><trkpt lat="43.1687667" lon="11.2985933"><ele>217.0</ele><time>2026-04-18T08:43:12.768Z</time></trkpt><trkpt lat="43.1688683" lon="11.2987717"><ele>216.66666666666666</ele><time>2026-04-18T08:43:13.767Z</time></trkpt><trkpt lat="43.16893" lon="11.2989733"><ele>216.33333333333331</ele><time>2026-04-18T08:43:14.765Z</time></trkpt><trkpt lat="43.1689567" lon="11.2991783"><ele>216.0</ele><time>2026-04-18T08:43:15.767Z</time></trkpt><trkpt lat="43.16893" lon="11.2993983"><ele>216.0</ele><time>2026-04-18T08:43:16.769Z</time></trkpt><trkpt lat="43.168835" lon="11.29966"><ele>216.0</ele><time>2026-04-18T08:43:17.769Z</time></trkpt><trkpt lat="43.1687617" lon="11.2999083"><ele>216.0</ele><time>2026-04-18T08:43:18.768Z</time></trkpt><trkpt lat="43.16869" lon="11.3001417"><ele>217.66666666666669</ele><time>2026-04-18T08:43:19.768Z</time></trkpt><trkpt lat="43.1686433" lon="11.3003533"><ele>219.33333333333334</ele><time>2026-04-18T08:43:20.768Z</time></trkpt><trkpt lat="43.1686433" lon="11.3005533"><ele>221.0</ele><time>2026-04-18T08:43:21.767Z</time></trkpt><trkpt lat="43.1687" lon="11.300735"><ele>221.0</ele><time>2026-04-18T08:43:22.768Z</time></trkpt><trkpt lat="43.1688117" lon="11.3008667"><ele>221.0</ele><time>2026-04-18T08:43:23.77Z</time></trkpt><trkpt lat="43.16896" lon="11.300945"><ele>221.0</ele><time>2026-04-18T08:43:24.764Z</time></trkpt><trkpt lat="43.16913" lon="11.30097"><ele>226.0</ele><time>2026-04-18T08:43:25.769Z</time></trkpt><trkpt lat="43.1693183" lon="11.300995"><ele>231.0</ele><time>2026-04-18T08:43:26.764Z</time></trkpt><trkpt lat="43.1694967" lon="11.3010783"><ele>236.0</ele><time>2026-04-18T08:43:27.77Z</time></trkpt><trkpt lat="43.1696717" lon="11.3011933"><ele>236.0</ele><time>2026-04-18T08:43:28.767Z</time></trkpt><trkpt lat="43.1698483" lon="11.3013"><ele>236.0</ele><time>2026-04-18T08:43:29.771Z</time></trkpt><trkpt lat="43.1700383" lon="11.3013567"><ele>236.0</ele><time>2026-04-18T08:43:30.77Z</time></trkpt><trkpt lat="43.1702333" lon="11.3013967"><ele>239.0</ele><time>2026-04-18T08:43:31.77Z</time></trkpt><trkpt lat="43.1704233" lon="11.3014317"><ele>242.0</ele><time>2026-04-18T08:43:32.765Z</time></trkpt><trkpt lat="43.1706133" lon="11.3014817"><ele>245.0</ele><time>2026-04-18T08:43:33.77Z</time></trkpt><trkpt lat="43.1707883" lon="11.3015717"><ele>249.66666666666669</ele><time>2026-04-18T08:43:34.768Z</time></trkpt><trkpt lat="43.1709433" lon="11.30173"><ele>254.33333333333331</ele><time>2026-04-18T08:43:35.771Z</time></trkpt><trkpt lat="43.1710517" lon="11.3019467"><ele>259.0</ele><time>2026-04-18T08:43:36.771Z</time></trkpt><trkpt lat="43.171135" lon="11.3021933"><ele>257.66666666666663</ele><time>2026-04-18T08:43:37.77Z</time></trkpt><trkpt lat="43.1711883" lon="11.3024567"><ele>256.3333333333333</ele><time>2026-04-18T08:43:38.77Z</time></trkpt><trkpt lat="43.1712233" lon="11.302735"><ele>255.0</ele><time>2026-04-18T08:43:39.768Z</time></trkpt><trkpt lat="43.1712583" lon="11.3029967"><ele>253.66666666666669</ele><time>2026-04-18T08:43:40.771Z</time></trkpt><trkpt lat="43.1713117" lon="11.3032417"><ele>252.33333333333334</ele><time>2026-04-18T08:43:41.766Z</time></trkpt><trkpt lat="43.1713967" lon="11.3034667"><ele>251.0</ele><time>2026-04-18T08:43:42.77Z</time></trkpt><trkpt lat="43.1715267" lon="11.3036367"><ele>257.33333333333337</ele><time>2026-04-18T08:43:43.768Z</time></trkpt><trkpt lat="43.1716883" lon="11.3037533"><ele>263.6666666666667</ele><time>2026-04-18T08:43:44.762Z</time></trkpt><trkpt lat="43.1718733" lon="11.303805"><ele>270.0</ele><time>2026-04-18T08:43:45.767Z</time></trkpt><trkpt lat="43.172045" lon="11.3038583"><ele>268.0</ele><time>2026-04-18T08:43:46.768Z</time></trkpt><trkpt lat="43.1721933" lon="11.30397"><ele>266.0</ele><time>2026-04-18T08:43:47.769Z</time></trkpt><trkpt lat="43.172295" lon="11.30414"><ele>264.0</ele><time>2026-04-18T08:43:48.768Z</time></trkpt><trkpt lat="43.1723333" lon="11.3043767"><ele>264.0</ele><time>2026-04-18T08:43:49.766Z</time></trkpt><trkpt lat="43.1723133" lon="11.3046383"><ele>264.0</ele><time>2026-04-18T08:43:50.766Z</time></trkpt><trkpt lat="43.172265" lon="11.3049133"><ele>264.0</ele><time>2026-04-18T08:43:51.767Z</time></trkpt><trkpt lat="43.17224" lon="11.30518"><ele>264.6666666666667</ele><time>2026-04-18T08:43:52.768Z</time></trkpt><trkpt lat="43.1722517" lon="11.3054483"><ele>265.33333333333337</ele><time>2026-04-18T08:43:53.766Z</time></trkpt><trkpt lat="43.172305" lon="11.3057083"><ele>266.0</ele><time>2026-04-18T08:43:54.771Z</time></trkpt><trkpt lat="43.1723917" lon="11.3059583"><ele>274.6666666666667</ele><time>2026-04-18T08:43:55.765Z</time></trkpt><trkpt lat="43.172475" lon="11.3061983"><ele>283.3333333333333</ele><time>2026-04-18T08:43:56.765Z</time></trkpt><trkpt lat="43.1725417" lon="11.3064433"><ele>292.0</ele><time>2026-04-18T08:43:57.769Z</time></trkpt><trkpt lat="43.1725717" lon="11.306695"><ele>291.75</ele><time>2026-04-18T08:43:58.765Z</time></trkpt><trkpt lat="43.1725717" lon="11.3069217"><ele>291.5</ele><time>2026-04-18T08:43:59.768Z</time></trkpt><trkpt lat="43.1725767" lon="11.3071183"><ele>291.25</ele><time>2026-04-18T08:44:00.768Z</time></trkpt><trkpt lat="43.1726067" lon="11.3072983"><ele>291.0</ele><time>2026-04-18T08:44:01.768Z</time></trkpt><trkpt lat="43.1726833" lon="11.3074633"><ele>291.0</ele><time>2026-04-18T08:44:02.764Z</time></trkpt><trkpt lat="43.1727867" lon="11.3076"><ele>291.0</ele><time>2026-04-18T08:44:03.77Z</time></trkpt><trkpt lat="43.17292" lon="11.3076833"><ele>291.0</ele><time>2026-04-18T08:44:04.768Z</time></trkpt><trkpt lat="43.1730517" lon="11.3077517"><ele>291.0</ele><time>2026-04-18T08:44:05.768Z</time></trkpt><trkpt lat="43.1731683" lon="11.3078433"><ele>296.0</ele><time>2026-04-18T08:44:06.772Z</time></trkpt><trkpt lat="43.173255" lon="11.3079917"><ele>301.0</ele><time>2026-04-18T08:44:07.765Z</time></trkpt><trkpt lat="43.1733217" lon="11.308165"><ele>306.0</ele><time>2026-04-18T08:44:08.769Z</time></trkpt><trkpt lat="43.1733317" lon="11.3083667"><ele>311.0</ele><time>2026-04-18T08:44:09.766Z</time></trkpt><trkpt lat="43.1732967" lon="11.3085917"><ele>311.0</ele><time>2026-04-18T08:44:10.768Z</time></trkpt><trkpt lat="43.173255" lon="11.3088117"><ele>311.0</ele><time>2026-04-18T08:44:11.767Z</time></trkpt><trkpt lat="43.1732333" lon="11.3090167"><ele>311.0</ele><time>2026-04-18T08:44:12.762Z</time></trkpt><trkpt lat="43.1732533" lon="11.3092133"><ele>312.0</ele><time>2026-04-18T08:44:13.764Z</time></trkpt><trkpt lat="43.17332" lon="11.3093967"><ele>313.0</ele><time>2026-04-18T08:44:14.777Z</time></trkpt><trkpt lat="43.1734017" lon="11.309585"><ele>314.0</ele><time>2026-04-18T08:44:15.769Z</time></trkpt><trkpt lat="43.173475" lon="11.3097783"><ele>314.33333333333337</ele><time>2026-04-18T08:44:16.764Z</time></trkpt><trkpt lat="43.1735083" lon="11.30999"><ele>314.6666666666667</ele><time>2026-04-18T08:44:17.765Z</time></trkpt><trkpt lat="43.1735" lon="11.3102167"><ele>315.0</ele><time>2026-04-18T08:44:18.77Z</time></trkpt><trkpt lat="43.1734483" lon="11.3104733"><ele>319.5</ele><time>2026-04-18T08:44:19.769Z</time></trkpt><trkpt lat="43.17336" lon="11.31079"><ele>324.0</ele><time>2026-04-18T08:44:20.77Z</time></trkpt><trkpt lat="43.17326" lon="11.311145"><ele>317.0</ele><time>2026-04-18T08:44:21.765Z</time></trkpt><trkpt lat="43.1731433" lon="11.311485"><ele>310.0</ele><time>2026-04-18T08:44:22.766Z</time></trkpt><trkpt lat="43.1730317" lon="11.3117733"><ele>310.0</ele><time>2026-04-18T08:44:23.764Z</time></trkpt><trkpt lat="43.1729383" lon="11.3120233"><ele>310.0</ele><time>2026-04-18T08:44:24.763Z</time></trkpt><trkpt lat="43.17287" lon="11.3122883"><ele>310.0</ele><time>2026-04-18T08:44:25.77Z</time></trkpt><trkpt lat="43.172845" lon="11.3125667"><ele>313.3333333333333</ele><time>2026-04-18T08:44:26.769Z</time></trkpt><trkpt lat="43.1728533" lon="11.312855"><ele>316.6666666666667</ele><time>2026-04-18T08:44:27.769Z</time></trkpt><trkpt lat="43.1728683" lon="11.313145"><ele>320.0</ele><time>2026-04-18T08:44:28.769Z</time></trkpt><trkpt lat="43.1728583" lon="11.3134317"><ele>321.33333333333337</ele><time>2026-04-18T08:44:29.768Z</time></trkpt><trkpt lat="43.17282" lon="11.3137083"><ele>322.6666666666667</ele><time>2026-04-18T08:44:30.767Z</time></trkpt><trkpt lat="43.1727617" lon="11.3139683"><ele>324.0</ele><time>2026-04-18T08:44:31.768Z</time></trkpt><trkpt lat="43.172735" lon="11.3142383"><ele>326.6666666666667</ele><time>2026-04-18T08:44:32.77Z</time></trkpt><trkpt lat="43.1727417" lon="11.3145283"><ele>329.33333333333337</ele><time>2026-04-18T08:44:33.772Z</time></trkpt><trkpt lat="43.1727933" lon="11.3148283"><ele>332.0</ele><time>2026-04-18T08:44:34.769Z</time></trkpt><trkpt lat="43.1728467" lon="11.3151317"><ele>333.0</ele><time>2026-04-18T08:44:35.77Z</time></trkpt><trkpt lat="43.17289" lon="11.315425"><ele>334.0</ele><time>2026-04-18T08:44:36.771Z</time></trkpt><trkpt lat="43.1729117" lon="11.3156917"><ele>335.0</ele><time>2026-04-18T08:44:37.765Z</time></trkpt><trkpt lat="43.1729033" lon="11.3159667"><ele>337.0</ele><time>2026-04-18T08:44:38.767Z</time></trkpt><trkpt lat="43.1728333" lon="11.3162233"><ele>339.0</ele><time>2026-04-18T08:44:39.765Z</time></trkpt><trkpt lat="43.1726917" lon="11.316455"><ele>341.0</ele><time>2026-04-18T08:44:40.771Z</time></trkpt><trkpt lat="43.17249" lon="11.316655"><ele>344.0</ele><time>2026-04-18T08:44:41.769Z</time></trkpt><trkpt lat="43.1722867" lon="11.3168583"><ele>347.0</ele><time>2026-04-18T08:44:42.768Z</time></trkpt><trkpt lat="43.1721017" lon="11.3170733"><ele>351.5</ele><time>2026-04-18T08:44:43.765Z</time></trkpt><trkpt lat="43.171925" lon="11.3173017"><ele>356.0</ele><time>2026-04-18T08:44:44.77Z</time></trkpt><trkpt lat="43.17176" lon="11.317565"><ele>356.0</ele><time>2026-04-18T08:44:45.768Z</time></trkpt><trkpt lat="43.1716217" lon="11.3178467"><ele>356.0</ele><time>2026-04-18T08:44:46.765Z</time></trkpt><trkpt lat="43.1714983" lon="11.3181383"><ele>357.0</ele><time>2026-04-18T08:44:47.767Z</time></trkpt><trkpt lat="43.1713733" lon="11.3184233"><ele>358.0</ele><time>2026-04-18T08:44:48.772Z</time></trkpt><trkpt lat="43.17125" lon="11.318705"><ele>361.0</ele><time>2026-04-18T08:44:49.77Z</time></trkpt><trkpt lat="43.1711383" lon="11.31897"><ele>364.0</ele><time>2026-04-18T08:44:50.769Z</time></trkpt><trkpt lat="43.17103" lon="11.3192267"><ele>367.0</ele><time>2026-04-18T08:44:51.766Z</time></trkpt><trkpt lat="43.17093" lon="11.3194783"><ele>367.0</ele><time>2026-04-18T08:44:52.769Z</time></trkpt><trkpt lat="43.170835" lon="11.3197217"><ele>367.0</ele><time>2026-04-18T08:44:53.768Z</time></trkpt><trkpt lat="43.1707367" lon="11.3199583"><ele>367.0</ele><time>2026-04-18T08:44:54.772Z</time></trkpt><trkpt lat="43.1706383" lon="11.3201883"><ele>368.0</ele><time>2026-04-18T08:44:55.768Z</time></trkpt><trkpt lat="43.1705433" lon="11.3204133"><ele>369.0</ele><time>2026-04-18T08:44:56.77Z</time></trkpt><trkpt lat="43.17045" lon="11.3206367"><ele>370.0</ele><time>2026-04-18T08:44:57.767Z</time></trkpt><trkpt lat="43.1703433" lon="11.3208483"><ele>373.3333333333333</ele><time>2026-04-18T08:44:58.766Z</time></trkpt><trkpt lat="43.1702233" lon="11.3210433"><ele>376.6666666666667</ele><time>2026-04-18T08:44:59.77Z</time></trkpt><trkpt lat="43.1700917" lon="11.3212183"><ele>380.0</ele><time>2026-04-18T08:45:00.768Z</time></trkpt><trkpt lat="43.16996" lon="11.3213667"><ele>383.0</ele><time>2026-04-18T08:45:01.77Z</time></trkpt><trkpt lat="43.1698183" lon="11.3214867"><ele>386.0</ele><time>2026-04-18T08:45:02.77Z</time></trkpt><trkpt lat="43.1696683" lon="11.3215883"><ele>389.0</ele><time>2026-04-18T08:45:03.771Z</time></trkpt><trkpt lat="43.169515" lon="11.3216833"><ele>389.0</ele><time>2026-04-18T08:45:04.767Z</time></trkpt><trkpt lat="43.1693667" lon="11.321775"><ele>389.0</ele><time>2026-04-18T08:45:05.766Z</time></trkpt><trkpt lat="43.1692167" lon="11.3218717"><ele>389.0</ele><time>2026-04-18T08:45:06.77Z</time></trkpt><trkpt lat="43.1690717" lon="11.3219633"><ele>388.66666666666663</ele><time>2026-04-18T08:45:07.768Z</time></trkpt><trkpt lat="43.1689267" lon="11.3220467"><ele>388.33333333333337</ele><time>2026-04-18T08:45:08.77Z</time></trkpt><trkpt lat="43.1687817" lon="11.3221283"><ele>388.0</ele><time>2026-04-18T08:45:09.768Z</time></trkpt><trkpt lat="43.1686433" lon="11.3222117"><ele>390.25</ele><time>2026-04-18T08:45:10.764Z</time></trkpt><trkpt lat="43.1685083" lon="11.322295"><ele>392.5</ele><time>2026-04-18T08:45:11.769Z</time></trkpt><trkpt lat="43.1683767" lon="11.3223717"><ele>394.75</ele><time>2026-04-18T08:45:12.764Z</time></trkpt><trkpt lat="43.1682533" lon="11.32245"><ele>397.0</ele><time>2026-04-18T08:45:13.77Z</time></trkpt><trkpt lat="43.1681283" lon="11.322525"><ele>397.0</ele><time>2026-04-18T08:45:14.77Z</time></trkpt><trkpt lat="43.167995" lon="11.3226"><ele>397.0</ele><time>2026-04-18T08:45:15.772Z</time></trkpt><trkpt lat="43.1678683" lon="11.322675"><ele>397.0</ele><time>2026-04-18T08:45:16.767Z</time></trkpt><trkpt lat="43.1677567" lon="11.3227483"><ele>397.0</ele><time>2026-04-18T08:45:17.768Z</time></trkpt><trkpt lat="43.16766" lon="11.3228383"><ele>397.0</ele><time>2026-04-18T08:45:18.773Z</time></trkpt><trkpt lat="43.16758" lon="11.3229467"><ele>397.0</ele><time>2026-04-18T08:45:19.773Z</time></trkpt><trkpt lat="43.1675167" lon="11.3230667"><ele>397.0</ele><time>2026-04-18T08:45:20.768Z</time></trkpt><trkpt lat="43.1674667" lon="11.3231983"><ele>397.0</ele><time>2026-04-18T08:45:21.77Z</time></trkpt><trkpt lat="43.16744" lon="11.32334"><ele>397.0</ele><time>2026-04-18T08:45:22.773Z</time></trkpt><trkpt lat="43.1674333" lon="11.32349"><ele>398.8</ele><time>2026-04-18T08:45:23.77Z</time></trkpt><trkpt lat="43.1674433" lon="11.3236333"><ele>400.6</ele><time>2026-04-18T08:45:24.768Z</time></trkpt><trkpt lat="43.16747" lon="11.3237633"><ele>402.40000000000003</ele><time>2026-04-18T08:45:25.771Z</time></trkpt><trkpt lat="43.16749" lon="11.323885"><ele>404.20000000000005</ele><time>2026-04-18T08:45:26.772Z</time></trkpt><trkpt lat="43.167495" lon="11.3239933"><ele>406.0</ele><time>2026-04-18T08:45:27.77Z</time></trkpt><trkpt lat="43.1674833" lon="11.3240967"><ele>407.00000000000006</ele><time>2026-04-18T08:45:28.77Z</time></trkpt><trkpt lat="43.1674633" lon="11.3242067"><ele>408.0</ele><time>2026-04-18T08:45:29.77Z</time></trkpt><trkpt lat="43.1674317" lon="11.3243133"><ele>409.0</ele><time>2026-04-18T08:45:30.769Z</time></trkpt><trkpt lat="43.1673933" lon="11.32439"><ele>410.0</ele><time>2026-04-18T08:45:31.771Z</time></trkpt><trkpt lat="43.167305" lon="11.32448"><ele>411.00000000000006</ele><time>2026-04-18T08:45:33.77Z</time></trkpt><trkpt lat="43.1672417" lon="11.32449"><ele>412.0</ele><time>2026-04-18T08:45:34.768Z</time></trkpt><trkpt lat="43.1671633" lon="11.3245033"><ele>412.20000000000005</ele><time>2026-04-18T08:45:35.77Z</time></trkpt><trkpt lat="43.16708" lon="11.324515"><ele>412.4</ele><time>2026-04-18T08:45:36.769Z</time></trkpt><trkpt lat="43.166995" lon="11.3245283"><ele>412.6</ele><time>2026-04-18T08:45:37.771Z</time></trkpt><trkpt lat="43.1669083" lon="11.3245483"><ele>412.79999999999995</ele><time>2026-04-18T08:45:38.771Z</time></trkpt><trkpt lat="43.16681" lon="11.324565"><ele>413.0</ele><time>2026-04-18T08:45:39.771Z</time></trkpt><trkpt lat="43.1667067" lon="11.3245883"><ele>413.0</ele><time>2026-04-18T08:45:40.77Z</time></trkpt><trkpt lat="43.1666017" lon="11.3246133"><ele>413.0</ele><time>2026-04-18T08:45:41.771Z</time></trkpt><trkpt lat="43.1664917" lon="11.3246317"><ele>413.0</ele><time>2026-04-18T08:45:42.769Z</time></trkpt><trkpt lat="43.1663833" lon="11.324655"><ele>413.0</ele><time>2026-04-18T08:45:43.766Z</time></trkpt><trkpt lat="43.1662767" lon="11.3246817"><ele>413.0</ele><time>2026-04-18T08:45:44.766Z</time></trkpt><trkpt lat="43.1661767" lon="11.3247033"><ele>414.16666666666663</ele><time>2026-04-18T08:45:45.767Z</time></trkpt><trkpt lat="43.16608" lon="11.324725"><ele>415.3333333333333</ele><time>2026-04-18T08:45:46.769Z</time></trkpt><trkpt lat="43.1659883" lon="11.32475"><ele>416.5</ele><time>2026-04-18T08:45:47.77Z</time></trkpt><trkpt lat="43.1659067" lon="11.32477"><ele>417.66666666666663</ele><time>2026-04-18T08:45:48.77Z</time></trkpt><trkpt lat="43.1658267" lon="11.32479"><ele>418.8333333333333</ele><time>2026-04-18T08:45:49.767Z</time></trkpt><trkpt lat="43.1657367" lon="11.32481"><ele>420.0</ele><time>2026-04-18T08:45:50.766Z</time></trkpt><trkpt lat="43.1656467" lon="11.3248283"><ele>421.5</ele><time>2026-04-18T08:45:51.772Z</time></trkpt><trkpt lat="43.1655583" lon="11.3248433"><ele>423.0</ele><time>2026-04-18T08:45:52.768Z</time></trkpt><trkpt lat="43.1654733" lon="11.3248583"><ele>424.5</ele><time>2026-04-18T08:45:53.769Z</time></trkpt><trkpt lat="43.1653883" lon="11.3248667"><ele>426.0</ele><time>2026-04-18T08:45:54.77Z</time></trkpt><trkpt lat="43.1653" lon="11.324875"><ele>427.5</ele><time>2026-04-18T08:45:55.769Z</time></trkpt><trkpt lat="43.1652083" lon="11.3248867"><ele>429.0</ele><time>2026-04-18T08:45:56.769Z</time></trkpt><trkpt lat="43.1651217" lon="11.3248933"><ele>429.0</ele><time>2026-04-18T08:45:57.767Z</time></trkpt><trkpt lat="43.165035" lon="11.3248967"><ele>429.0</ele><time>2026-04-18T08:45:58.764Z</time></trkpt><trkpt lat="43.1649467" lon="11.3248983"><ele>429.0</ele><time>2026-04-18T08:45:59.769Z</time></trkpt><trkpt lat="43.1648567" lon="11.3249033"><ele>429.0</ele><time>2026-04-18T08:46:00.769Z</time></trkpt><trkpt lat="43.1647683" lon="11.32491"><ele>429.0</ele><time>2026-04-18T08:46:01.773Z</time></trkpt><trkpt lat="43.1646817" lon="11.324915"><ele>429.0</ele><time>2026-04-18T08:46:02.769Z</time></trkpt><trkpt lat="43.1645883" lon="11.3249233"><ele>430.2</ele><time>2026-04-18T08:46:03.769Z</time></trkpt><trkpt lat="43.164495" lon="11.3249333"><ele>431.4</ele><time>2026-04-18T08:46:04.768Z</time></trkpt><trkpt lat="43.1644033" lon="11.3249383"><ele>432.6</ele><time>2026-04-18T08:46:05.772Z</time></trkpt><trkpt lat="43.1643117" lon="11.32494"><ele>433.8</ele><time>2026-04-18T08:46:06.77Z</time></trkpt><trkpt lat="43.16422" lon="11.3249417"><ele>435.0</ele><time>2026-04-18T08:46:07.77Z</time></trkpt><trkpt lat="43.1641267" lon="11.3249483"><ele>435.0</ele><time>2026-04-18T08:46:08.767Z</time></trkpt><trkpt lat="43.1640383" lon="11.324955"><ele>435.0</ele><time>2026-04-18T08:46:09.773Z</time></trkpt><trkpt lat="43.1639567" lon="11.32496"><ele>435.0</ele><time>2026-04-18T08:46:10.77Z</time></trkpt><trkpt lat="43.1638767" lon="11.3249633"><ele>435.0</ele><time>2026-04-18T08:46:11.769Z</time></trkpt><trkpt lat="43.1638" lon="11.3249633"><ele>435.0</ele><time>2026-04-18T08:46:12.768Z</time></trkpt><trkpt lat="43.1637333" lon="11.3249633"><ele>435.0</ele><time>2026-04-18T08:46:13.769Z</time></trkpt><trkpt lat="43.1636683" lon="11.32497"><ele>436.4</ele><time>2026-04-18T08:46:14.763Z</time></trkpt><trkpt lat="43.1635633" lon="11.3250233"><ele>437.8</ele><time>2026-04-18T08:46:16.769Z</time></trkpt><trkpt lat="43.163465" lon="11.3251333"><ele>439.20000000000005</ele><time>2026-04-18T08:46:18.769Z</time></trkpt><trkpt lat="43.1634067" lon="11.3251867"><ele>440.6</ele><time>2026-04-18T08:46:19.77Z</time></trkpt><trkpt lat="43.1632967" lon="11.3252517"><ele>442.0</ele><time>2026-04-18T08:46:21.765Z</time></trkpt><trkpt lat="43.16324" lon="11.32529"><ele>442.83333333333337</ele><time>2026-04-18T08:46:22.769Z</time></trkpt><trkpt lat="43.1631783" lon="11.325335"><ele>443.6666666666667</ele><time>2026-04-18T08:46:23.769Z</time></trkpt><trkpt lat="43.16311" lon="11.325365"><ele>444.5</ele><time>2026-04-18T08:46:24.772Z</time></trkpt><trkpt lat="43.1630383" lon="11.3253933"><ele>445.33333333333337</ele><time>2026-04-18T08:46:25.769Z</time></trkpt><trkpt lat="43.16296" lon="11.325425"><ele>446.1666666666667</ele><time>2026-04-18T08:46:26.768Z</time></trkpt><trkpt lat="43.1628817" lon="11.3254617"><ele>447.0</ele><time>2026-04-18T08:46:27.768Z</time></trkpt><trkpt lat="43.1628017" lon="11.325505"><ele>447.0</ele><time>2026-04-18T08:46:28.77Z</time></trkpt><trkpt lat="43.1627183" lon="11.3255483"><ele>447.00000000000006</ele><time>2026-04-18T08:46:29.77Z</time></trkpt><trkpt lat="43.1626317" lon="11.3255983"><ele>447.00000000000006</ele><time>2026-04-18T08:46:30.771Z</time></trkpt><trkpt lat="43.1625367" lon="11.32565"><ele>447.0</ele><time>2026-04-18T08:46:31.768Z</time></trkpt><trkpt lat="43.162445" lon="11.3256983"><ele>447.0</ele><time>2026-04-18T08:46:32.771Z</time></trkpt><trkpt lat="43.16235" lon="11.3257483"><ele>447.6</ele><time>2026-04-18T08:46:33.768Z</time></trkpt><trkpt lat="43.1622583" lon="11.3257983"><ele>448.20000000000005</ele><time>2026-04-18T08:46:34.771Z</time></trkpt><trkpt lat="43.1621683" lon="11.3258467"><ele>448.8</ele><time>2026-04-18T08:46:35.768Z</time></trkpt><trkpt lat="43.1620667" lon="11.3258983"><ele>449.4</ele><time>2026-04-18T08:46:36.77Z</time></trkpt><trkpt lat="43.1619717" lon="11.3259433"><ele>450.0</ele><time>2026-04-18T08:46:37.769Z</time></trkpt><trkpt lat="43.1618783" lon="11.32599"><ele>450.0</ele><time>2026-04-18T08:46:38.764Z</time></trkpt><trkpt lat="43.161785" lon="11.32604"><ele>450.0</ele><time>2026-04-18T08:46:39.771Z</time></trkpt><trkpt lat="43.1616933" lon="11.3260967"><ele>450.0</ele><time>2026-04-18T08:46:40.77Z</time></trkpt><trkpt lat="43.1615967" lon="11.3261517"><ele>450.0</ele><time>2026-04-18T08:46:41.771Z</time></trkpt><trkpt lat="43.1615" lon="11.32621"><ele>450.0</ele><time>2026-04-18T08:46:42.771Z</time></trkpt><trkpt lat="43.1614067" lon="11.3262633"><ele>450.3333333333333</ele><time>2026-04-18T08:46:43.77Z</time></trkpt><trkpt lat="43.1613233" lon="11.3263083"><ele>450.66666666666663</ele><time>2026-04-18T08:46:44.769Z</time></trkpt><trkpt lat="43.161245" lon="11.3263433"><ele>451.0</ele><time>2026-04-18T08:46:45.769Z</time></trkpt><trkpt lat="43.1611667" lon="11.3263733"><ele>451.3333333333333</ele><time>2026-04-18T08:46:46.772Z</time></trkpt><trkpt lat="43.16109" lon="11.3264067"><ele>451.66666666666663</ele><time>2026-04-18T08:46:47.766Z</time></trkpt><trkpt lat="43.1610217" lon="11.3264383"><ele>452.0</ele><time>2026-04-18T08:46:48.771Z</time></trkpt><trkpt lat="43.1609017" lon="11.326505"><ele>451.49999999999994</ele><time>2026-04-18T08:46:50.768Z</time></trkpt><trkpt lat="43.1608283" lon="11.3265167"><ele>451.0</ele><time>2026-04-18T08:46:51.768Z</time></trkpt><trkpt lat="43.1607517" lon="11.32652"><ele>450.5</ele><time>2026-04-18T08:46:52.768Z</time></trkpt><trkpt lat="43.1606717" lon="11.326515"><ele>450.0</ele><time>2026-04-18T08:46:53.769Z</time></trkpt><trkpt lat="43.1605933" lon="11.3264883"><ele>449.49999999999994</ele><time>2026-04-18T08:46:54.768Z</time></trkpt><trkpt lat="43.16051" lon="11.3264433"><ele>449.0</ele><time>2026-04-18T08:46:55.77Z</time></trkpt><trkpt lat="43.1604217" lon="11.3264033"><ele>448.99999999999994</ele><time>2026-04-18T08:46:56.768Z</time></trkpt><trkpt lat="43.1603317" lon="11.32637"><ele>449.0</ele><time>2026-04-18T08:46:57.77Z</time></trkpt><trkpt lat="43.1602433" lon="11.3263283"><ele>449.0</ele><time>2026-04-18T08:46:58.766Z</time></trkpt><trkpt lat="43.16016" lon="11.32629"><ele>449.0</ele><time>2026-04-18T08:46:59.77Z</time></trkpt><trkpt lat="43.1600783" lon="11.3262583"><ele>448.99999999999994</ele><time>2026-04-18T08:47:00.769Z</time></trkpt><trkpt lat="43.159995" lon="11.3262283"><ele>449.0</ele><time>2026-04-18T08:47:01.768Z</time></trkpt><trkpt lat="43.1599117" lon="11.3261817"><ele>449.99999999999994</ele><time>2026-04-18T08:47:02.766Z</time></trkpt><trkpt lat="43.1598433" lon="11.32613"><ele>451.0</ele><time>2026-04-18T08:47:03.77Z</time></trkpt><trkpt lat="43.159775" lon="11.3260883"><ele>452.0</ele><time>2026-04-18T08:47:04.77Z</time></trkpt><trkpt lat="43.159705" lon="11.3260467"><ele>453.0</ele><time>2026-04-18T08:47:05.769Z</time></trkpt><trkpt lat="43.1596267" lon="11.32601"><ele>453.99999999999994</ele><time>2026-04-18T08:47:06.758Z</time></trkpt><trkpt lat="43.1595583" lon="11.3259767"><ele>455.0</ele><time>2026-04-18T08:47:07.758Z</time></trkpt><trkpt lat="43.159495" lon="11.3259317"><ele>454.99999999999994</ele><time>2026-04-18T08:47:08.76Z</time></trkpt><trkpt lat="43.15941" lon="11.3258967"><ele>455.0</ele><time>2026-04-18T08:47:10.769Z</time></trkpt><trkpt lat="43.1593367" lon="11.3259417"><ele>455.0</ele><time>2026-04-18T08:47:15.771Z</time></trkpt><trkpt lat="43.1592583" lon="11.3259683"><ele>455.0</ele><time>2026-04-18T08:47:17.772Z</time></trkpt><trkpt lat="43.1591833" lon="11.3259883"><ele>454.99999999999994</ele><time>2026-04-18T08:47:19.77Z</time></trkpt><trkpt lat="43.1591" lon="11.32606"><ele>455.0</ele><time>2026-04-18T08:47:21.771Z</time></trkpt><trkpt lat="43.15903" lon="11.32618"><ele>458.0</ele><time>2026-04-18T08:47:23.772Z</time></trkpt><trkpt lat="43.1589917" lon="11.3263317"><ele>461.0</ele><time>2026-04-18T08:47:25.773Z</time></trkpt><trkpt lat="43.1589367" lon="11.326465"><ele>464.0</ele><time>2026-04-18T08:47:27.772Z</time></trkpt><trkpt lat="43.1589017" lon="11.3266083"><ele>467.0</ele><time>2026-04-18T08:47:29.771Z</time></trkpt><trkpt lat="43.1588733" lon="11.3267617"><ele>467.20000000000005</ele><time>2026-04-18T08:47:31.769Z</time></trkpt><trkpt lat="43.158825" lon="11.3269033"><ele>467.40000000000003</ele><time>2026-04-18T08:47:33.77Z</time></trkpt><trkpt lat="43.158775" lon="11.3270083"><ele>467.59999999999997</ele><time>2026-04-18T08:47:35.769Z</time></trkpt><trkpt lat="43.1587117" lon="11.3271183"><ele>467.79999999999995</ele><time>2026-04-18T08:47:37.767Z</time></trkpt><trkpt lat="43.1586483" lon="11.32721"><ele>468.0</ele><time>2026-04-18T08:47:38.766Z</time></trkpt><trkpt lat="43.1585917" lon="11.3273017"><ele>467.1666666666667</ele><time>2026-04-18T08:47:39.768Z</time></trkpt><trkpt lat="43.1585317" lon="11.327395"><ele>466.33333333333337</ele><time>2026-04-18T08:47:40.768Z</time></trkpt><trkpt lat="43.1584767" lon="11.3274733"><ele>465.5</ele><time>2026-04-18T08:47:41.77Z</time></trkpt><trkpt lat="43.1584267" lon="11.32755"><ele>464.6666666666667</ele><time>2026-04-18T08:47:42.772Z</time></trkpt><trkpt lat="43.1583783" lon="11.32762"><ele>463.83333333333337</ele><time>2026-04-18T08:47:43.769Z</time></trkpt><trkpt lat="43.1583317" lon="11.3276883"><ele>463.0</ele><time>2026-04-18T08:47:44.772Z</time></trkpt><trkpt lat="43.1582867" lon="11.3277617"><ele>463.00000000000006</ele><time>2026-04-18T08:47:45.769Z</time></trkpt><trkpt lat="43.1582433" lon="11.3278367"><ele>463.0</ele><time>2026-04-18T08:47:46.767Z</time></trkpt><trkpt lat="43.1581967" lon="11.3279133"><ele>463.0</ele><time>2026-04-18T08:47:47.772Z</time></trkpt><trkpt lat="43.1581433" lon="11.327995"><ele>463.0</ele><time>2026-04-18T08:47:48.773Z</time></trkpt><trkpt lat="43.1580733" lon="11.3280867"><ele>463.00000000000006</ele><time>2026-04-18T08:47:49.772Z</time></trkpt><trkpt lat="43.1579883" lon="11.32818"><ele>463.0</ele><time>2026-04-18T08:47:50.772Z</time></trkpt><trkpt lat="43.15788" lon="11.32827"><ele>466.0</ele><time>2026-04-18T08:47:51.771Z</time></trkpt><trkpt lat="43.15775" lon="11.328365"><ele>469.0</ele><time>2026-04-18T08:47:52.771Z</time></trkpt><trkpt lat="43.1576283" lon="11.3284517"><ele>472.0</ele><time>2026-04-18T08:47:53.769Z</time></trkpt><trkpt lat="43.15753" lon="11.3285217"><ele>475.0</ele><time>2026-04-18T08:47:54.771Z</time></trkpt><trkpt lat="43.1574533" lon="11.3285917"><ele>475.00000000000006</ele><time>2026-04-18T08:47:55.77Z</time></trkpt><trkpt lat="43.1573783" lon="11.3286533"><ele>475.0</ele><time>2026-04-18T08:47:56.769Z</time></trkpt><trkpt lat="43.1573017" lon="11.32871"><ele>475.0</ele><time>2026-04-18T08:47:57.77Z</time></trkpt><trkpt lat="43.157235" lon="11.3287583"><ele>475.0</ele><time>2026-04-18T08:47:58.771Z</time></trkpt><trkpt lat="43.1571667" lon="11.3288117"><ele>475.00000000000006</ele><time>2026-04-18T08:47:59.771Z</time></trkpt><trkpt lat="43.157095" lon="11.328865"><ele>475.0</ele><time>2026-04-18T08:48:00.77Z</time></trkpt><trkpt lat="43.1570267" lon="11.3289033"><ele>475.1666666666667</ele><time>2026-04-18T08:48:01.77Z</time></trkpt><trkpt lat="43.1569617" lon="11.3289317"><ele>475.33333333333337</ele><time>2026-04-18T08:48:02.77Z</time></trkpt><trkpt lat="43.156845" lon="11.32896"><ele>475.5</ele><time>2026-04-18T08:48:04.769Z</time></trkpt><trkpt lat="43.1567283" lon="11.3290117"><ele>475.66666666666663</ele><time>2026-04-18T08:48:06.765Z</time></trkpt><trkpt lat="43.1566683" lon="11.3290533"><ele>475.8333333333333</ele><time>2026-04-18T08:48:07.771Z</time></trkpt><trkpt lat="43.15661" lon="11.3291033"><ele>476.0</ele><time>2026-04-18T08:48:08.77Z</time></trkpt><trkpt lat="43.1565533" lon="11.3291617"><ele>474.66666666666663</ele><time>2026-04-18T08:48:09.769Z</time></trkpt><trkpt lat="43.1564983" lon="11.3292233"><ele>473.3333333333333</ele><time>2026-04-18T08:48:10.77Z</time></trkpt><trkpt lat="43.1564433" lon="11.32929"><ele>472.0</ele><time>2026-04-18T08:48:11.763Z</time></trkpt><trkpt lat="43.1563833" lon="11.32937"><ele>470.66666666666663</ele><time>2026-04-18T08:48:12.772Z</time></trkpt><trkpt lat="43.1563283" lon="11.3294433"><ele>469.3333333333333</ele><time>2026-04-18T08:48:13.767Z</time></trkpt><trkpt lat="43.1562783" lon="11.3295117"><ele>468.0</ele><time>2026-04-18T08:48:14.766Z</time></trkpt><trkpt lat="43.156205" lon="11.329615"><ele>468.0</ele><time>2026-04-18T08:48:16.765Z</time></trkpt><trkpt lat="43.1561383" lon="11.3297"><ele>467.99999999999994</ele><time>2026-04-18T08:48:18.771Z</time></trkpt><trkpt lat="43.1560917" lon="11.3297617"><ele>467.99999999999994</ele><time>2026-04-18T08:48:19.769Z</time></trkpt><trkpt lat="43.156025" lon="11.329855"><ele>468.0</ele><time>2026-04-18T08:48:20.769Z</time></trkpt><trkpt lat="43.15595" lon="11.3299633"><ele>468.0</ele><time>2026-04-18T08:48:21.769Z</time></trkpt><trkpt lat="43.1558833" lon="11.3300867"><ele>468.0</ele><time>2026-04-18T08:48:22.765Z</time></trkpt><trkpt lat="43.1558183" lon="11.3302267"><ele>468.0</ele><time>2026-04-18T08:48:23.771Z</time></trkpt><trkpt lat="43.1557467" lon="11.330375"><ele>468.0</ele><time>2026-04-18T08:48:24.773Z</time></trkpt><trkpt lat="43.1556617" lon="11.33051"><ele>468.0</ele><time>2026-04-18T08:48:25.769Z</time></trkpt><trkpt lat="43.1555683" lon="11.3306417"><ele>464.75</ele><time>2026-04-18T08:48:26.764Z</time></trkpt><trkpt lat="43.1554517" lon="11.33076"><ele>461.5</ele><time>2026-04-18T08:48:27.769Z</time></trkpt><trkpt lat="43.155335" lon="11.33086"><ele>458.25</ele><time>2026-04-18T08:48:28.769Z</time></trkpt><trkpt lat="43.155225" lon="11.330955"><ele>455.0</ele><time>2026-04-18T08:48:29.77Z</time></trkpt><trkpt lat="43.1551033" lon="11.3310467"><ele>455.0</ele><time>2026-04-18T08:48:30.769Z</time></trkpt><trkpt lat="43.1549883" lon="11.3311367"><ele>455.0</ele><time>2026-04-18T08:48:31.77Z</time></trkpt><trkpt lat="43.1548683" lon="11.3312067"><ele>455.0</ele><time>2026-04-18T08:48:32.769Z</time></trkpt><trkpt lat="43.154755" lon="11.3312633"><ele>455.0</ele><time>2026-04-18T08:48:33.769Z</time></trkpt><trkpt lat="43.1546283" lon="11.3312933"><ele>452.0</ele><time>2026-04-18T08:48:34.764Z</time></trkpt><trkpt lat="43.154505" lon="11.3312983"><ele>449.0</ele><time>2026-04-18T08:48:35.769Z</time></trkpt><trkpt lat="43.154375" lon="11.331285"><ele>446.0</ele><time>2026-04-18T08:48:36.77Z</time></trkpt><trkpt lat="43.1542417" lon="11.3312717"><ele>443.0</ele><time>2026-04-18T08:48:37.762Z</time></trkpt><trkpt lat="43.154125" lon="11.331265"><ele>441.75</ele><time>2026-04-18T08:48:38.767Z</time></trkpt><trkpt lat="43.1540033" lon="11.3312767"><ele>440.5</ele><time>2026-04-18T08:48:39.768Z</time></trkpt><trkpt lat="43.153885" lon="11.331305"><ele>439.25</ele><time>2026-04-18T08:48:40.767Z</time></trkpt><trkpt lat="43.15377" lon="11.331345"><ele>438.0</ele><time>2026-04-18T08:48:41.767Z</time></trkpt><trkpt lat="43.15366" lon="11.3313967"><ele>438.0</ele><time>2026-04-18T08:48:42.771Z</time></trkpt><trkpt lat="43.15355" lon="11.3314567"><ele>438.0</ele><time>2026-04-18T08:48:43.769Z</time></trkpt><trkpt lat="43.1534433" lon="11.3315483"><ele>438.0</ele><time>2026-04-18T08:48:44.769Z</time></trkpt><trkpt lat="43.1533317" lon="11.3316383"><ele>438.0</ele><time>2026-04-18T08:48:45.768Z</time></trkpt><trkpt lat="43.1532033" lon="11.3317283"><ele>435.75</ele><time>2026-04-18T08:48:46.767Z</time></trkpt><trkpt lat="43.15307" lon="11.3318133"><ele>433.5</ele><time>2026-04-18T08:48:47.769Z</time></trkpt><trkpt lat="43.152935" lon="11.3319"><ele>431.25</ele><time>2026-04-18T08:48:48.771Z</time></trkpt><trkpt lat="43.1527983" lon="11.3319933"><ele>429.0</ele><time>2026-04-18T08:48:49.772Z</time></trkpt><trkpt lat="43.1526683" lon="11.332075"><ele>429.0</ele><time>2026-04-18T08:48:50.767Z</time></trkpt><trkpt lat="43.152535" lon="11.3321467"><ele>429.0</ele><time>2026-04-18T08:48:51.77Z</time></trkpt><trkpt lat="43.1524017" lon="11.3322017"><ele>429.0</ele><time>2026-04-18T08:48:52.764Z</time></trkpt><trkpt lat="43.152265" lon="11.3322283"><ele>429.0</ele><time>2026-04-18T08:48:53.771Z</time></trkpt><trkpt lat="43.1521283" lon="11.3322433"><ele>427.25</ele><time>2026-04-18T08:48:54.772Z</time></trkpt><trkpt lat="43.1519917" lon="11.332245"><ele>425.5</ele><time>2026-04-18T08:48:55.769Z</time></trkpt><trkpt lat="43.15184" lon="11.33225"><ele>423.75</ele><time>2026-04-18T08:48:56.768Z</time></trkpt><trkpt lat="43.1516933" lon="11.3322483"><ele>422.0</ele><time>2026-04-18T08:48:57.767Z</time></trkpt><trkpt lat="43.1515417" lon="11.3322617"><ele>423.0</ele><time>2026-04-18T08:48:58.768Z</time></trkpt><trkpt lat="43.1513983" lon="11.3322983"><ele>424.0</ele><time>2026-04-18T08:48:59.77Z</time></trkpt><trkpt lat="43.1512583" lon="11.3323533"><ele>425.0</ele><time>2026-04-18T08:49:00.765Z</time></trkpt><trkpt lat="43.1511117" lon="11.3324233"><ele>426.0</ele><time>2026-04-18T08:49:01.767Z</time></trkpt><trkpt lat="43.15097" lon="11.332485"><ele>426.0</ele><time>2026-04-18T08:49:02.765Z</time></trkpt><trkpt lat="43.150825" lon="11.3325483"><ele>426.0</ele><time>2026-04-18T08:49:03.768Z</time></trkpt><trkpt lat="43.15068" lon="11.3326217"><ele>426.0</ele><time>2026-04-18T08:49:04.769Z</time></trkpt><trkpt lat="43.1505317" lon="11.332695"><ele>424.33333333333337</ele><time>2026-04-18T08:49:05.771Z</time></trkpt><trkpt lat="43.150385" lon="11.3327633"><ele>422.6666666666667</ele><time>2026-04-18T08:49:06.769Z</time></trkpt><trkpt lat="43.1502367" lon="11.3328433"><ele>421.0</ele><time>2026-04-18T08:49:07.77Z</time></trkpt><trkpt lat="43.150105" lon="11.33295"><ele>421.75</ele><time>2026-04-18T08:49:08.77Z</time></trkpt><trkpt lat="43.14999" lon="11.3330767"><ele>422.5</ele><time>2026-04-18T08:49:09.769Z</time></trkpt><trkpt lat="43.1498833" lon="11.3332067"><ele>423.25</ele><time>2026-04-18T08:49:10.771Z</time></trkpt><trkpt lat="43.1497883" lon="11.333315"><ele>424.0</ele><time>2026-04-18T08:49:11.768Z</time></trkpt><trkpt lat="43.14969" lon="11.33339"><ele>424.0</ele><time>2026-04-18T08:49:12.77Z</time></trkpt><trkpt lat="43.1495883" lon="11.3334267"><ele>424.0</ele><time>2026-04-18T08:49:13.77Z</time></trkpt><trkpt lat="43.1494733" lon="11.3333867"><ele>424.0</ele><time>2026-04-18T08:49:14.771Z</time></trkpt><trkpt lat="43.1493517" lon="11.33331"><ele>424.0</ele><time>2026-04-18T08:49:15.77Z</time></trkpt><trkpt lat="43.149225" lon="11.3332183"><ele>424.0</ele><time>2026-04-18T08:49:16.768Z</time></trkpt><trkpt lat="43.1490933" lon="11.3331217"><ele>424.0</ele><time>2026-04-18T08:49:17.77Z</time></trkpt><trkpt lat="43.1489583" lon="11.3330333"><ele>424.0</ele><time>2026-04-18T08:49:18.771Z</time></trkpt><trkpt lat="43.1488167" lon="11.3329567"><ele>427.0</ele><time>2026-04-18T08:49:19.768Z</time></trkpt><trkpt lat="43.1486717" lon="11.3328767"><ele>430.0</ele><time>2026-04-18T08:49:20.766Z</time></trkpt><trkpt lat="43.1485333" lon="11.3328033"><ele>433.0</ele><time>2026-04-18T08:49:21.771Z</time></trkpt><trkpt lat="43.1484017" lon="11.332725"><ele>436.0</ele><time>2026-04-18T08:49:22.769Z</time></trkpt><trkpt lat="43.148275" lon="11.3326633"><ele>438.25</ele><time>2026-04-18T08:49:23.77Z</time></trkpt><trkpt lat="43.14814" lon="11.3325983"><ele>440.5</ele><time>2026-04-18T08:49:24.772Z</time></trkpt><trkpt lat="43.1480117" lon="11.3325383"><ele>442.75</ele><time>2026-04-18T08:49:25.77Z</time></trkpt><trkpt lat="43.1478767" lon="11.3324883"><ele>445.0</ele><time>2026-04-18T08:49:26.77Z</time></trkpt><trkpt lat="43.14774" lon="11.3324417"><ele>445.0</ele><time>2026-04-18T08:49:27.769Z</time></trkpt><trkpt lat="43.1476017" lon="11.3324"><ele>445.0</ele><time>2026-04-18T08:49:28.764Z</time></trkpt><trkpt lat="43.147445" lon="11.3323567"><ele>445.0</ele><time>2026-04-18T08:49:29.769Z</time></trkpt><trkpt lat="43.1472917" lon="11.3323267"><ele>444.6666666666667</ele><time>2026-04-18T08:49:30.77Z</time></trkpt><trkpt lat="43.147135" lon="11.3323"><ele>444.33333333333337</ele><time>2026-04-18T08:49:31.77Z</time></trkpt><trkpt lat="43.1469783" lon="11.332275"><ele>444.0</ele><time>2026-04-18T08:49:32.765Z</time></trkpt><trkpt lat="43.1468283" lon="11.33225"><ele>444.0</ele><time>2026-04-18T08:49:33.769Z</time></trkpt><trkpt lat="43.14667" lon="11.33223"><ele>444.0</ele><time>2026-04-18T08:49:34.767Z</time></trkpt><trkpt lat="43.1465033" lon="11.33221"><ele>444.0</ele><time>2026-04-18T08:49:35.768Z</time></trkpt><trkpt lat="43.14635" lon="11.3321867"><ele>444.75</ele><time>2026-04-18T08:49:36.771Z</time></trkpt><trkpt lat="43.1462033" lon="11.3321583"><ele>445.5</ele><time>2026-04-18T08:49:37.77Z</time></trkpt><trkpt lat="43.1460633" lon="11.3321083"><ele>446.25</ele><time>2026-04-18T08:49:38.764Z</time></trkpt><trkpt lat="43.1459183" lon="11.33203"><ele>447.0</ele><time>2026-04-18T08:49:39.768Z</time></trkpt><trkpt lat="43.1457883" lon="11.3319417"><ele>447.5</ele><time>2026-04-18T08:49:40.766Z</time></trkpt><trkpt lat="43.1456633" lon="11.33186"><ele>448.0</ele><time>2026-04-18T08:49:41.762Z</time></trkpt><trkpt lat="43.14555" lon="11.3318033"><ele>448.5</ele><time>2026-04-18T08:49:42.768Z</time></trkpt><trkpt lat="43.14542" lon="11.33179"><ele>449.0</ele><time>2026-04-18T08:49:43.768Z</time></trkpt><trkpt lat="43.1453117" lon="11.3318117"><ele>449.0</ele><time>2026-04-18T08:49:44.767Z</time></trkpt><trkpt lat="43.1452017" lon="11.3318717"><ele>449.0</ele><time>2026-04-18T08:49:45.767Z</time></trkpt><trkpt lat="43.14509" lon="11.3319867"><ele>449.0</ele><time>2026-04-18T08:49:46.765Z</time></trkpt><trkpt lat="43.1450033" lon="11.3321333"><ele>449.0</ele><time>2026-04-18T08:49:47.77Z</time></trkpt><trkpt lat="43.1449133" lon="11.3322633"><ele>450.0</ele><time>2026-04-18T08:49:48.771Z</time></trkpt><trkpt lat="43.1448267" lon="11.3323883"><ele>451.0</ele><time>2026-04-18T08:49:49.765Z</time></trkpt><trkpt lat="43.1447183" lon="11.3324833"><ele>452.0</ele><time>2026-04-18T08:49:50.769Z</time></trkpt><trkpt lat="43.1445867" lon="11.3325333"><ele>453.0</ele><time>2026-04-18T08:49:51.765Z</time></trkpt><trkpt lat="43.14444" lon="11.332545"><ele>453.0</ele><time>2026-04-18T08:49:52.767Z</time></trkpt><trkpt lat="43.1442917" lon="11.3325567"><ele>453.0</ele><time>2026-04-18T08:49:53.769Z</time></trkpt><trkpt lat="43.14417" lon="11.33258"><ele>453.0</ele><time>2026-04-18T08:49:54.771Z</time></trkpt><trkpt lat="43.1440683" lon="11.3326367"><ele>453.0</ele><time>2026-04-18T08:49:55.771Z</time></trkpt><trkpt lat="43.144005" lon="11.3327433"><ele>452.75</ele><time>2026-04-18T08:49:56.768Z</time></trkpt><trkpt lat="43.1439783" lon="11.3328867"><ele>452.5</ele><time>2026-04-18T08:49:57.77Z</time></trkpt><trkpt lat="43.14398" lon="11.3330517"><ele>452.25</ele><time>2026-04-18T08:49:58.765Z</time></trkpt><trkpt lat="43.1439933" lon="11.3332167"><ele>452.0</ele><time>2026-04-18T08:49:59.77Z</time></trkpt><trkpt lat="43.1439867" lon="11.3333967"><ele>452.25</ele><time>2026-04-18T08:50:00.77Z</time></trkpt><trkpt lat="43.1439683" lon="11.333575"><ele>452.5</ele><time>2026-04-18T08:50:01.767Z</time></trkpt><trkpt lat="43.1439283" lon="11.33375"><ele>452.75</ele><time>2026-04-18T08:50:02.769Z</time></trkpt><trkpt lat="43.1438483" lon="11.3339283"><ele>453.0</ele><time>2026-04-18T08:50:03.765Z</time></trkpt><trkpt lat="43.143765" lon="11.33409"><ele>453.0</ele><time>2026-04-18T08:50:04.768Z</time></trkpt><trkpt lat="43.14368" lon="11.3342567"><ele>453.0</ele><time>2026-04-18T08:50:05.768Z</time></trkpt><trkpt lat="43.1436067" lon="11.3344317"><ele>453.0</ele><time>2026-04-18T08:50:06.772Z</time></trkpt><trkpt lat="43.1435517" lon="11.33462"><ele>453.0</ele><time>2026-04-18T08:50:07.768Z</time></trkpt><trkpt lat="43.1435167" lon="11.33482"><ele>453.0</ele><time>2026-04-18T08:50:08.769Z</time></trkpt><trkpt lat="43.1434867" lon="11.3350267"><ele>453.0</ele><time>2026-04-18T08:50:09.77Z</time></trkpt><trkpt lat="43.1434617" lon="11.335235"><ele>453.0</ele><time>2026-04-18T08:50:10.77Z</time></trkpt><trkpt lat="43.14343" lon="11.3354483"><ele>453.66666666666663</ele><time>2026-04-18T08:50:11.769Z</time></trkpt><trkpt lat="43.1433917" lon="11.335665"><ele>454.3333333333333</ele><time>2026-04-18T08:50:12.768Z</time></trkpt><trkpt lat="43.1433517" lon="11.33588"><ele>455.0</ele><time>2026-04-18T08:50:13.767Z</time></trkpt><trkpt lat="43.1433183" lon="11.3360933"><ele>455.0</ele><time>2026-04-18T08:50:14.769Z</time></trkpt><trkpt lat="43.1433017" lon="11.3363067"><ele>455.0</ele><time>2026-04-18T08:50:15.769Z</time></trkpt><trkpt lat="43.14331" lon="11.336525"><ele>455.0</ele><time>2026-04-18T08:50:16.765Z</time></trkpt><trkpt lat="43.1433333" lon="11.336745"><ele>455.66666666666663</ele><time>2026-04-18T08:50:17.768Z</time></trkpt><trkpt lat="43.1433683" lon="11.336965"><ele>456.33333333333337</ele><time>2026-04-18T08:50:18.771Z</time></trkpt><trkpt lat="43.1434117" lon="11.337185"><ele>457.0</ele><time>2026-04-18T08:50:19.768Z</time></trkpt><trkpt lat="43.1434533" lon="11.3374083"><ele>457.33333333333337</ele><time>2026-04-18T08:50:20.767Z</time></trkpt><trkpt lat="43.1434883" lon="11.3376217"><ele>457.66666666666663</ele><time>2026-04-18T08:50:21.769Z</time></trkpt><trkpt lat="43.14351" lon="11.3378367"><ele>458.0</ele><time>2026-04-18T08:50:22.768Z</time></trkpt><trkpt lat="43.14352" lon="11.3380467"><ele>457.66666666666663</ele><time>2026-04-18T08:50:23.77Z</time></trkpt><trkpt lat="43.1435083" lon="11.3382583"><ele>457.33333333333337</ele><time>2026-04-18T08:50:24.772Z</time></trkpt><trkpt lat="43.1434783" lon="11.3384617"><ele>457.0</ele><time>2026-04-18T08:50:25.77Z</time></trkpt><trkpt lat="43.1434183" lon="11.3386633"><ele>457.0</ele><time>2026-04-18T08:50:26.768Z</time></trkpt><trkpt lat="43.143335" lon="11.3388517"><ele>457.0</ele><time>2026-04-18T08:50:27.769Z</time></trkpt><trkpt lat="43.1432417" lon="11.3390283"><ele>457.0</ele><time>2026-04-18T08:50:28.765Z</time></trkpt><trkpt lat="43.1431567" lon="11.3392167"><ele>460.0</ele><time>2026-04-18T08:50:29.766Z</time></trkpt><trkpt lat="43.1430867" lon="11.3394217"><ele>463.0</ele><time>2026-04-18T08:50:30.771Z</time></trkpt><trkpt lat="43.1430017" lon="11.3396283"><ele>466.0</ele><time>2026-04-18T08:50:31.77Z</time></trkpt><trkpt lat="43.1429267" lon="11.3398283"><ele>466.0</ele><time>2026-04-18T08:50:32.765Z</time></trkpt><trkpt lat="43.142855" lon="11.3400367"><ele>466.0</ele><time>2026-04-18T08:50:33.768Z</time></trkpt><trkpt lat="43.1428" lon="11.340265"><ele>466.0</ele><time>2026-04-18T08:50:34.772Z</time></trkpt><trkpt lat="43.1427667" lon="11.3404983"><ele>464.0</ele><time>2026-04-18T08:50:35.77Z</time></trkpt><trkpt lat="43.1427483" lon="11.34073"><ele>462.0</ele><time>2026-04-18T08:50:36.768Z</time></trkpt><trkpt lat="43.1427283" lon="11.340955"><ele>460.0</ele><time>2026-04-18T08:50:37.77Z</time></trkpt><trkpt lat="43.1426967" lon="11.34117"><ele>460.0</ele><time>2026-04-18T08:50:38.768Z</time></trkpt><trkpt lat="43.14264" lon="11.3413733"><ele>460.0</ele><time>2026-04-18T08:50:39.771Z</time></trkpt><trkpt lat="43.14257" lon="11.3415667"><ele>460.0</ele><time>2026-04-18T08:50:40.769Z</time></trkpt><trkpt lat="43.142495" lon="11.3417533"><ele>459.75</ele><time>2026-04-18T08:50:41.767Z</time></trkpt><trkpt lat="43.14241" lon="11.3419283"><ele>459.5</ele><time>2026-04-18T08:50:42.769Z</time></trkpt><trkpt lat="43.142325" lon="11.3420833"><ele>459.25</ele><time>2026-04-18T08:50:43.769Z</time></trkpt><trkpt lat="43.142225" lon="11.34222"><ele>459.0</ele><time>2026-04-18T08:50:44.77Z</time></trkpt><trkpt lat="43.1421117" lon="11.3423267"><ele>457.66666666666663</ele><time>2026-04-18T08:50:45.77Z</time></trkpt><trkpt lat="43.1419783" lon="11.3424133"><ele>456.3333333333333</ele><time>2026-04-18T08:50:46.772Z</time></trkpt><trkpt lat="43.14184" lon="11.34249"><ele>455.0</ele><time>2026-04-18T08:50:47.768Z</time></trkpt><trkpt lat="43.1416967" lon="11.342565"><ele>451.0</ele><time>2026-04-18T08:50:48.767Z</time></trkpt><trkpt lat="43.141545" lon="11.3426433"><ele>447.0</ele><time>2026-04-18T08:50:49.765Z</time></trkpt><trkpt lat="43.1413917" lon="11.3427233"><ele>443.0</ele><time>2026-04-18T08:50:50.766Z</time></trkpt><trkpt lat="43.141235" lon="11.3428033"><ele>443.0</ele><time>2026-04-18T08:50:51.77Z</time></trkpt><trkpt lat="43.14108" lon="11.342885"><ele>443.0</ele><time>2026-04-18T08:50:52.769Z</time></trkpt><trkpt lat="43.140935" lon="11.34297"><ele>443.0</ele><time>2026-04-18T08:50:53.77Z</time></trkpt><trkpt lat="43.1407917" lon="11.343055"><ele>443.3333333333333</ele><time>2026-04-18T08:50:54.772Z</time></trkpt><trkpt lat="43.1406533" lon="11.3431583"><ele>443.66666666666663</ele><time>2026-04-18T08:50:55.766Z</time></trkpt><trkpt lat="43.1405167" lon="11.3432767"><ele>444.0</ele><time>2026-04-18T08:50:56.769Z</time></trkpt><trkpt lat="43.1403667" lon="11.3433867"><ele>444.0</ele><time>2026-04-18T08:50:57.77Z</time></trkpt><trkpt lat="43.1402017" lon="11.343485"><ele>444.0</ele><time>2026-04-18T08:50:58.769Z</time></trkpt><trkpt lat="43.1400383" lon="11.34358"><ele>444.0</ele><time>2026-04-18T08:50:59.771Z</time></trkpt><trkpt lat="43.139875" lon="11.3436683"><ele>437.33333333333337</ele><time>2026-04-18T08:51:00.77Z</time></trkpt><trkpt lat="43.1397183" lon="11.34375"><ele>430.6666666666667</ele><time>2026-04-18T08:51:01.77Z</time></trkpt><trkpt lat="43.1395633" lon="11.3438167"><ele>424.0</ele><time>2026-04-18T08:51:02.77Z</time></trkpt><trkpt lat="43.1394183" lon="11.3438783"><ele>422.5</ele><time>2026-04-18T08:51:03.768Z</time></trkpt><trkpt lat="43.1392933" lon="11.3439483"><ele>421.0</ele><time>2026-04-18T08:51:04.77Z</time></trkpt><trkpt lat="43.1391867" lon="11.3440333"><ele>419.5</ele><time>2026-04-18T08:51:05.772Z</time></trkpt><trkpt lat="43.139105" lon="11.3441583"><ele>418.0</ele><time>2026-04-18T08:51:06.771Z</time></trkpt><trkpt lat="43.13905" lon="11.3443083"><ele>418.0</ele><time>2026-04-18T08:51:07.766Z</time></trkpt><trkpt lat="43.139025" lon="11.3444867"><ele>418.0</ele><time>2026-04-18T08:51:08.771Z</time></trkpt><trkpt lat="43.139025" lon="11.34468"><ele>418.0</ele><time>2026-04-18T08:51:09.77Z</time></trkpt><trkpt lat="43.13903" lon="11.3448783"><ele>418.0</ele><time>2026-04-18T08:51:10.765Z</time></trkpt><trkpt lat="43.139035" lon="11.345075"><ele>418.0</ele><time>2026-04-18T08:51:11.769Z</time></trkpt><trkpt lat="43.1390283" lon="11.3452667"><ele>418.0</ele><time>2026-04-18T08:51:12.769Z</time></trkpt><trkpt lat="43.1390033" lon="11.3454783"><ele>418.0</ele><time>2026-04-18T08:51:13.77Z</time></trkpt><trkpt lat="43.13896" lon="11.3456883"><ele>418.0</ele><time>2026-04-18T08:51:14.764Z</time></trkpt><trkpt lat="43.1388983" lon="11.3458917"><ele>418.0</ele><time>2026-04-18T08:51:15.766Z</time></trkpt><trkpt lat="43.1388133" lon="11.3460733"><ele>418.0</ele><time>2026-04-18T08:51:16.761Z</time></trkpt><trkpt lat="43.1387217" lon="11.34624"><ele>418.75</ele><time>2026-04-18T08:51:17.766Z</time></trkpt><trkpt lat="43.138635" lon="11.3463983"><ele>419.5</ele><time>2026-04-18T08:51:18.77Z</time></trkpt><trkpt lat="43.1385733" lon="11.3465633"><ele>420.25</ele><time>2026-04-18T08:51:19.764Z</time></trkpt><trkpt lat="43.1385383" lon="11.3467383"><ele>421.0</ele><time>2026-04-18T08:51:20.765Z</time></trkpt><trkpt lat="43.1385267" lon="11.3469283"><ele>421.0</ele><time>2026-04-18T08:51:21.767Z</time></trkpt><trkpt lat="43.1385267" lon="11.34712"><ele>421.0</ele><time>2026-04-18T08:51:22.766Z</time></trkpt><trkpt lat="43.1385317" lon="11.347295"><ele>421.0</ele><time>2026-04-18T08:51:23.765Z</time></trkpt><trkpt lat="43.1385283" lon="11.3474567"><ele>421.0</ele><time>2026-04-18T08:51:24.769Z</time></trkpt><trkpt lat="43.1384983" lon="11.34758"><ele>419.6</ele><time>2026-04-18T08:51:25.766Z</time></trkpt><trkpt lat="43.1384483" lon="11.3476817"><ele>418.20000000000005</ele><time>2026-04-18T08:51:26.768Z</time></trkpt><trkpt lat="43.13838" lon="11.3477633"><ele>416.79999999999995</ele><time>2026-04-18T08:51:27.766Z</time></trkpt><trkpt lat="43.138305" lon="11.3478083"><ele>415.4</ele><time>2026-04-18T08:51:28.765Z</time></trkpt><trkpt lat="43.1381983" lon="11.3478383"><ele>414.0</ele><time>2026-04-18T08:51:29.766Z</time></trkpt><trkpt lat="43.1380267" lon="11.34787"><ele>413.0</ele><time>2026-04-18T08:51:30.769Z</time></trkpt><trkpt lat="43.1378667" lon="11.3478883"><ele>412.0</ele><time>2026-04-18T08:51:31.766Z</time></trkpt><trkpt lat="43.13768" lon="11.3478833"><ele>411.0</ele><time>2026-04-18T08:51:32.765Z</time></trkpt><trkpt lat="43.137505" lon="11.3478717"><ele>408.0</ele><time>2026-04-18T08:51:33.766Z</time></trkpt><trkpt lat="43.1373617" lon="11.3478583"><ele>405.0</ele><time>2026-04-18T08:51:34.765Z</time></trkpt><trkpt lat="43.13722" lon="11.3477917"><ele>402.0</ele><time>2026-04-18T08:51:35.766Z</time></trkpt><trkpt lat="43.1370833" lon="11.347715"><ele>399.0</ele><time>2026-04-18T08:51:36.77Z</time></trkpt><trkpt lat="43.1369417" lon="11.347595"><ele>399.0</ele><time>2026-04-18T08:51:37.771Z</time></trkpt><trkpt lat="43.1367967" lon="11.347465"><ele>399.0</ele><time>2026-04-18T08:51:38.765Z</time></trkpt><trkpt lat="43.13667" lon="11.347325"><ele>399.0</ele><time>2026-04-18T08:51:39.767Z</time></trkpt><trkpt lat="43.1365567" lon="11.3471967"><ele>396.25</ele><time>2026-04-18T08:51:40.76Z</time></trkpt><trkpt lat="43.1364383" lon="11.3470783"><ele>393.5</ele><time>2026-04-18T08:51:41.768Z</time></trkpt><trkpt lat="43.1363167" lon="11.3469617"><ele>390.75</ele><time>2026-04-18T08:51:42.771Z</time></trkpt><trkpt lat="43.1361817" lon="11.3468617"><ele>388.0</ele><time>2026-04-18T08:51:43.767Z</time></trkpt><trkpt lat="43.1360367" lon="11.3467733"><ele>388.0</ele><time>2026-04-18T08:51:44.766Z</time></trkpt><trkpt lat="43.1358767" lon="11.3467333"><ele>388.0</ele><time>2026-04-18T08:51:45.77Z</time></trkpt><trkpt lat="43.13572" lon="11.3467117"><ele>388.0</ele><time>2026-04-18T08:51:46.771Z</time></trkpt><trkpt lat="43.1355383" lon="11.34671"><ele>385.33333333333337</ele><time>2026-04-18T08:51:47.768Z</time></trkpt><trkpt lat="43.1353667" lon="11.3467117"><ele>382.6666666666667</ele><time>2026-04-18T08:51:48.769Z</time></trkpt><trkpt lat="43.1351733" lon="11.3467317"><ele>380.0</ele><time>2026-04-18T08:51:49.768Z</time></trkpt><trkpt lat="43.1349483" lon="11.346795"><ele>376.0</ele><time>2026-04-18T08:51:50.766Z</time></trkpt><trkpt lat="43.1347467" lon="11.3468933"><ele>372.0</ele><time>2026-04-18T08:51:51.767Z</time></trkpt><trkpt lat="43.134585" lon="11.3469617"><ele>368.0</ele><time>2026-04-18T08:51:52.766Z</time></trkpt><trkpt lat="43.134435" lon="11.3470317"><ele>368.0</ele><time>2026-04-18T08:51:53.768Z</time></trkpt><trkpt lat="43.134285" lon="11.347095"><ele>368.0</ele><time>2026-04-18T08:51:54.772Z</time></trkpt><trkpt lat="43.1341417" lon="11.3471383"><ele>368.0</ele><time>2026-04-18T08:51:55.77Z</time></trkpt><trkpt lat="43.1339967" lon="11.34717"><ele>362.75</ele><time>2026-04-18T08:51:56.769Z</time></trkpt><trkpt lat="43.1338583" lon="11.3471833"><ele>357.5</ele><time>2026-04-18T08:51:57.76Z</time></trkpt><trkpt lat="43.1337217" lon="11.3471867"><ele>352.25</ele><time>2026-04-18T08:51:58.766Z</time></trkpt><trkpt lat="43.1335733" lon="11.34718"><ele>347.0</ele><time>2026-04-18T08:51:59.768Z</time></trkpt><trkpt lat="43.133425" lon="11.347165"><ele>347.0</ele><time>2026-04-18T08:52:00.771Z</time></trkpt><trkpt lat="43.133275" lon="11.3471383"><ele>347.0</ele><time>2026-04-18T08:52:01.769Z</time></trkpt><trkpt lat="43.1331533" lon="11.3471067"><ele>347.0</ele><time>2026-04-18T08:52:02.767Z</time></trkpt><trkpt lat="43.1330267" lon="11.3470617"><ele>347.0</ele><time>2026-04-18T08:52:03.766Z</time></trkpt><trkpt lat="43.1329067" lon="11.3470183"><ele>344.25</ele><time>2026-04-18T08:52:04.766Z</time></trkpt><trkpt lat="43.1327867" lon="11.3469517"><ele>341.5</ele><time>2026-04-18T08:52:05.765Z</time></trkpt><trkpt lat="43.1326883" lon="11.34686"><ele>338.75</ele><time>2026-04-18T08:52:06.767Z</time></trkpt><trkpt lat="43.1325867" lon="11.3467583"><ele>336.0</ele><time>2026-04-18T08:52:07.769Z</time></trkpt><trkpt lat="43.1324783" lon="11.3465767"><ele>331.3333333333333</ele><time>2026-04-18T08:52:08.77Z</time></trkpt><trkpt lat="43.1323817" lon="11.3463683"><ele>326.66666666666663</ele><time>2026-04-18T08:52:09.761Z</time></trkpt><trkpt lat="43.1322833" lon="11.34616"><ele>322.0</ele><time>2026-04-18T08:52:10.759Z</time></trkpt><trkpt lat="43.1321867" lon="11.345965"><ele>322.0</ele><time>2026-04-18T08:52:11.769Z</time></trkpt><trkpt lat="43.1320917" lon="11.345785"><ele>322.0</ele><time>2026-04-18T08:52:12.769Z</time></trkpt><trkpt lat="43.1319917" lon="11.3456183"><ele>322.0</ele><time>2026-04-18T08:52:13.77Z</time></trkpt><trkpt lat="43.131885" lon="11.3454683"><ele>321.25</ele><time>2026-04-18T08:52:14.765Z</time></trkpt><trkpt lat="43.1317767" lon="11.3453267"><ele>320.5</ele><time>2026-04-18T08:52:15.77Z</time></trkpt><trkpt lat="43.1316883" lon="11.3451783"><ele>319.75</ele><time>2026-04-18T08:52:16.77Z</time></trkpt><trkpt lat="43.1315917" lon="11.345045"><ele>319.0</ele><time>2026-04-18T08:52:17.766Z</time></trkpt><trkpt lat="43.1314733" lon="11.34493"><ele>318.3333333333333</ele><time>2026-04-18T08:52:18.768Z</time></trkpt><trkpt lat="43.131345" lon="11.3448217"><ele>317.6666666666667</ele><time>2026-04-18T08:52:19.769Z</time></trkpt><trkpt lat="43.1312033" lon="11.3447283"><ele>317.0</ele><time>2026-04-18T08:52:20.77Z</time></trkpt><trkpt lat="43.1310417" lon="11.3446283"><ele>317.0</ele><time>2026-04-18T08:52:21.77Z</time></trkpt><trkpt lat="43.1308567" lon="11.34453"><ele>317.0</ele><time>2026-04-18T08:52:22.768Z</time></trkpt><trkpt lat="43.1306617" lon="11.3444283"><ele>317.0</ele><time>2026-04-18T08:52:23.769Z</time></trkpt><trkpt lat="43.13047" lon="11.344325"><ele>315.6666666666667</ele><time>2026-04-18T08:52:24.771Z</time></trkpt><trkpt lat="43.130295" lon="11.3442133"><ele>314.3333333333333</ele><time>2026-04-18T08:52:25.766Z</time></trkpt><trkpt lat="43.13013" lon="11.3441117"><ele>313.0</ele><time>2026-04-18T08:52:26.764Z</time></trkpt><trkpt lat="43.1299783" lon="11.34401"><ele>312.25</ele><time>2026-04-18T08:52:27.771Z</time></trkpt><trkpt lat="43.129845" lon="11.3439033"><ele>311.5</ele><time>2026-04-18T08:52:28.77Z</time></trkpt><trkpt lat="43.1297217" lon="11.3438133"><ele>310.75</ele><time>2026-04-18T08:52:29.77Z</time></trkpt><trkpt lat="43.1295983" lon="11.3437433"><ele>310.0</ele><time>2026-04-18T08:52:30.77Z</time></trkpt><trkpt lat="43.12947" lon="11.3436967"><ele>310.0</ele><time>2026-04-18T08:52:31.77Z</time></trkpt><trkpt lat="43.1293367" lon="11.3436683"><ele>310.0</ele><time>2026-04-18T08:52:32.768Z</time></trkpt><trkpt lat="43.1292033" lon="11.34367"><ele>310.0</ele><time>2026-04-18T08:52:33.771Z</time></trkpt><trkpt lat="43.1290517" lon="11.343675"><ele>310.0</ele><time>2026-04-18T08:52:34.766Z</time></trkpt><trkpt lat="43.1289083" lon="11.3437017"><ele>305.3333333333333</ele><time>2026-04-18T08:52:35.771Z</time></trkpt><trkpt lat="43.128755" lon="11.34372"><ele>300.6666666666667</ele><time>2026-04-18T08:52:36.771Z</time></trkpt><trkpt lat="43.1286017" lon="11.3437317"><ele>296.0</ele><time>2026-04-18T08:52:37.771Z</time></trkpt><trkpt lat="43.128435" lon="11.343765"><ele>296.0</ele><time>2026-04-18T08:52:38.768Z</time></trkpt><trkpt lat="43.1282617" lon="11.3438"><ele>296.0</ele><time>2026-04-18T08:52:39.77Z</time></trkpt><trkpt lat="43.1280783" lon="11.3438133"><ele>296.0</ele><time>2026-04-18T08:52:40.768Z</time></trkpt><trkpt lat="43.12793" lon="11.3438383"><ele>296.33333333333337</ele><time>2026-04-18T08:52:41.77Z</time></trkpt><trkpt lat="43.1277383" lon="11.3438667"><ele>296.6666666666667</ele><time>2026-04-18T08:52:42.773Z</time></trkpt><trkpt lat="43.1275467" lon="11.3439133"><ele>297.0</ele><time>2026-04-18T08:52:43.771Z</time></trkpt><trkpt lat="43.1272883" lon="11.3439567"><ele>295.0</ele><time>2026-04-18T08:52:44.771Z</time></trkpt><trkpt lat="43.1270067" lon="11.3439967"><ele>293.0</ele><time>2026-04-18T08:52:45.769Z</time></trkpt><trkpt lat="43.126745" lon="11.3440517"><ele>292.0</ele><time>2026-04-18T08:52:46.771Z</time></trkpt><trkpt lat="43.1265017" lon="11.3441"><ele>291.0</ele><time>2026-04-18T08:52:47.771Z</time></trkpt><trkpt lat="43.12628" lon="11.3441417"><ele>291.0</ele><time>2026-04-18T08:52:48.772Z</time></trkpt><trkpt lat="43.1260833" lon="11.3441783"><ele>291.0</ele><time>2026-04-18T08:52:49.773Z</time></trkpt><trkpt lat="43.1259033" lon="11.3442133"><ele>291.0</ele><time>2026-04-18T08:52:50.77Z</time></trkpt><trkpt lat="43.12573" lon="11.3442667"><ele>294.0</ele><time>2026-04-18T08:52:51.77Z</time></trkpt><trkpt lat="43.1255717" lon="11.3443017"><ele>297.0</ele><time>2026-04-18T08:52:52.767Z</time></trkpt><trkpt lat="43.12541" lon="11.3443333"><ele>300.0</ele><time>2026-04-18T08:52:53.773Z</time></trkpt><trkpt lat="43.1252417" lon="11.3443517"><ele>300.0</ele><time>2026-04-18T08:52:54.773Z</time></trkpt><trkpt lat="43.1250733" lon="11.3443533"><ele>300.0</ele><time>2026-04-18T08:52:55.771Z</time></trkpt><trkpt lat="43.1249133" lon="11.3443383"><ele>300.0</ele><time>2026-04-18T08:52:56.769Z</time></trkpt><trkpt lat="43.1247467" lon="11.344295"><ele>301.6666666666667</ele><time>2026-04-18T08:52:57.77Z</time></trkpt><trkpt lat="43.1245817" lon="11.3442633"><ele>303.33333333333337</ele><time>2026-04-18T08:52:58.77Z</time></trkpt><trkpt lat="43.12442" lon="11.3442433"><ele>305.0</ele><time>2026-04-18T08:52:59.772Z</time></trkpt><trkpt lat="43.124265" lon="11.3442433"><ele>305.0</ele><time>2026-04-18T08:53:00.771Z</time></trkpt><trkpt lat="43.12411" lon="11.344265"><ele>305.0</ele><time>2026-04-18T08:53:01.772Z</time></trkpt><trkpt lat="43.123955" lon="11.3443217"><ele>305.0</ele><time>2026-04-18T08:53:02.768Z</time></trkpt><trkpt lat="43.1237967" lon="11.3443817"><ele>305.33333333333337</ele><time>2026-04-18T08:53:03.771Z</time></trkpt><trkpt lat="43.1236383" lon="11.3444533"><ele>305.6666666666667</ele><time>2026-04-18T08:53:04.769Z</time></trkpt><trkpt lat="43.123475" lon="11.3445267"><ele>306.0</ele><time>2026-04-18T08:53:05.77Z</time></trkpt><trkpt lat="43.12331" lon="11.3445933"><ele>308.0</ele><time>2026-04-18T08:53:06.772Z</time></trkpt><trkpt lat="43.12316" lon="11.344675"><ele>310.0</ele><time>2026-04-18T08:53:07.768Z</time></trkpt><trkpt lat="43.1230267" lon="11.3447917"><ele>312.0</ele><time>2026-04-18T08:53:08.768Z</time></trkpt><trkpt lat="43.1228967" lon="11.3449233"><ele>313.6666666666667</ele><time>2026-04-18T08:53:09.77Z</time></trkpt><trkpt lat="43.1227817" lon="11.3450783"><ele>315.33333333333337</ele><time>2026-04-18T08:53:10.768Z</time></trkpt><trkpt lat="43.1226767" lon="11.3452317"><ele>317.0</ele><time>2026-04-18T08:53:11.768Z</time></trkpt><trkpt lat="43.1225783" lon="11.345375"><ele>317.0</ele><time>2026-04-18T08:53:12.77Z</time></trkpt><trkpt lat="43.12249" lon="11.3455017"><ele>317.0</ele><time>2026-04-18T08:53:13.771Z</time></trkpt><trkpt lat="43.1223967" lon="11.3456083"><ele>317.0</ele><time>2026-04-18T08:53:14.768Z</time></trkpt><trkpt lat="43.122285" lon="11.3457033"><ele>317.0</ele><time>2026-04-18T08:53:15.767Z</time></trkpt><trkpt lat="43.12216" lon="11.3457983"><ele>314.0</ele><time>2026-04-18T08:53:16.77Z</time></trkpt><trkpt lat="43.1219933" lon="11.34585"><ele>311.0</ele><time>2026-04-18T08:53:17.77Z</time></trkpt><trkpt lat="43.1218233" lon="11.3459017"><ele>308.0</ele><time>2026-04-18T08:53:18.771Z</time></trkpt><trkpt lat="43.12166" lon="11.3459567"><ele>306.6666666666667</ele><time>2026-04-18T08:53:19.77Z</time></trkpt><trkpt lat="43.1214917" lon="11.3460117"><ele>305.3333333333333</ele><time>2026-04-18T08:53:20.768Z</time></trkpt><trkpt lat="43.1213317" lon="11.3460417"><ele>304.0</ele><time>2026-04-18T08:53:21.771Z</time></trkpt><trkpt lat="43.1211733" lon="11.346065"><ele>304.0</ele><time>2026-04-18T08:53:22.769Z</time></trkpt><trkpt lat="43.1210283" lon="11.3460633"><ele>304.0</ele><time>2026-04-18T08:53:23.771Z</time></trkpt><trkpt lat="43.1208867" lon="11.34602"><ele>304.0</ele><time>2026-04-18T08:53:24.772Z</time></trkpt><trkpt lat="43.1207467" lon="11.34592"><ele>304.0</ele><time>2026-04-18T08:53:25.769Z</time></trkpt><trkpt lat="43.120605" lon="11.34579"><ele>301.3333333333333</ele><time>2026-04-18T08:53:26.77Z</time></trkpt><trkpt lat="43.1204683" lon="11.34564"><ele>298.6666666666667</ele><time>2026-04-18T08:53:27.77Z</time></trkpt><trkpt lat="43.1203183" lon="11.345485"><ele>296.0</ele><time>2026-04-18T08:53:28.764Z</time></trkpt><trkpt lat="43.1201583" lon="11.345325"><ele>296.0</ele><time>2026-04-18T08:53:29.769Z</time></trkpt><trkpt lat="43.1199733" lon="11.34514"><ele>296.0</ele><time>2026-04-18T08:53:30.766Z</time></trkpt><trkpt lat="43.1197967" lon="11.3449417"><ele>294.6666666666667</ele><time>2026-04-18T08:53:31.771Z</time></trkpt><trkpt lat="43.119635" lon="11.3447533"><ele>293.3333333333333</ele><time>2026-04-18T08:53:32.768Z</time></trkpt><trkpt lat="43.1194833" lon="11.3445733"><ele>292.0</ele><time>2026-04-18T08:53:33.771Z</time></trkpt><trkpt lat="43.1193383" lon="11.344405"><ele>292.0</ele><time>2026-04-18T08:53:34.767Z</time></trkpt><trkpt lat="43.1191933" lon="11.344275"><ele>292.0</ele><time>2026-04-18T08:53:35.769Z</time></trkpt><trkpt lat="43.1190467" lon="11.3441617"><ele>292.0</ele><time>2026-04-18T08:53:36.769Z</time></trkpt><trkpt lat="43.1188867" lon="11.3440767"><ele>289.66666666666663</ele><time>2026-04-18T08:53:37.77Z</time></trkpt><trkpt lat="43.11872" lon="11.34401"><ele>287.3333333333333</ele><time>2026-04-18T08:53:38.769Z</time></trkpt><trkpt lat="43.1185533" lon="11.343955"><ele>285.0</ele><time>2026-04-18T08:53:39.767Z</time></trkpt><trkpt lat="43.11839" lon="11.3438933"><ele>285.6666666666667</ele><time>2026-04-18T08:53:40.765Z</time></trkpt><trkpt lat="43.11822" lon="11.343845"><ele>286.33333333333337</ele><time>2026-04-18T08:53:41.771Z</time></trkpt><trkpt lat="43.118065" lon="11.34382"><ele>287.0</ele><time>2026-04-18T08:53:42.772Z</time></trkpt><trkpt lat="43.1178983" lon="11.3438067"><ele>287.0</ele><time>2026-04-18T08:53:43.766Z</time></trkpt><trkpt lat="43.117725" lon="11.3437983"><ele>287.0</ele><time>2026-04-18T08:53:44.769Z</time></trkpt><trkpt lat="43.1175483" lon="11.3437867"><ele>287.0</ele><time>2026-04-18T08:53:45.77Z</time></trkpt><trkpt lat="43.1173817" lon="11.3437717"><ele>283.33333333333337</ele><time>2026-04-18T08:53:46.77Z</time></trkpt><trkpt lat="43.1172233" lon="11.3437533"><ele>279.6666666666667</ele><time>2026-04-18T08:53:47.766Z</time></trkpt><trkpt lat="43.1170633" lon="11.3437383"><ele>276.0</ele><time>2026-04-18T08:53:48.766Z</time></trkpt><trkpt lat="43.11691" lon="11.34371"><ele>276.0</ele><time>2026-04-18T08:53:49.768Z</time></trkpt><trkpt lat="43.1167667" lon="11.343655"><ele>276.0</ele><time>2026-04-18T08:53:50.765Z</time></trkpt><trkpt lat="43.1166183" lon="11.343565"><ele>276.0</ele><time>2026-04-18T08:53:51.769Z</time></trkpt><trkpt lat="43.1164767" lon="11.3434433"><ele>272.6666666666667</ele><time>2026-04-18T08:53:52.768Z</time></trkpt><trkpt lat="43.1163233" lon="11.3433067"><ele>269.33333333333337</ele><time>2026-04-18T08:53:53.769Z</time></trkpt><trkpt lat="43.1161683" lon="11.3431433"><ele>266.0</ele><time>2026-04-18T08:53:54.771Z</time></trkpt><trkpt lat="43.1160083" lon="11.3429867"><ele>264.6666666666667</ele><time>2026-04-18T08:53:55.769Z</time></trkpt><trkpt lat="43.1158683" lon="11.3428183"><ele>263.3333333333333</ele><time>2026-04-18T08:53:56.77Z</time></trkpt><trkpt lat="43.1157633" lon="11.34263"><ele>262.0</ele><time>2026-04-18T08:53:57.769Z</time></trkpt><trkpt lat="43.1156733" lon="11.3424283"><ele>261.3333333333333</ele><time>2026-04-18T08:53:58.771Z</time></trkpt><trkpt lat="43.1156033" lon="11.3422083"><ele>260.6666666666667</ele><time>2026-04-18T08:53:59.768Z</time></trkpt><trkpt lat="43.115555" lon="11.34197"><ele>260.0</ele><time>2026-04-18T08:54:00.767Z</time></trkpt><trkpt lat="43.1155133" lon="11.3417267"><ele>260.0</ele><time>2026-04-18T08:54:01.768Z</time></trkpt><trkpt lat="43.115475" lon="11.3414833"><ele>260.0</ele><time>2026-04-18T08:54:02.769Z</time></trkpt><trkpt lat="43.1154367" lon="11.3412433"><ele>260.0</ele><time>2026-04-18T08:54:03.771Z</time></trkpt><trkpt lat="43.1154083" lon="11.341"><ele>262.0</ele><time>2026-04-18T08:54:04.765Z</time></trkpt><trkpt lat="43.1153767" lon="11.3407667"><ele>264.0</ele><time>2026-04-18T08:54:05.771Z</time></trkpt><trkpt lat="43.115355" lon="11.3405317"><ele>266.0</ele><time>2026-04-18T08:54:06.768Z</time></trkpt><trkpt lat="43.11533" lon="11.3403167"><ele>268.25</ele><time>2026-04-18T08:54:07.771Z</time></trkpt><trkpt lat="43.1153" lon="11.3401217"><ele>270.5</ele><time>2026-04-18T08:54:08.768Z</time></trkpt><trkpt lat="43.1152617" lon="11.3399433"><ele>272.75</ele><time>2026-04-18T08:54:09.769Z</time></trkpt><trkpt lat="43.1152167" lon="11.3397883"><ele>275.0</ele><time>2026-04-18T08:54:10.765Z</time></trkpt><trkpt lat="43.115145" lon="11.339655"><ele>275.0</ele><time>2026-04-18T08:54:11.77Z</time></trkpt><trkpt lat="43.1150533" lon="11.33954"><ele>275.0</ele><time>2026-04-18T08:54:12.771Z</time></trkpt><trkpt lat="43.1149267" lon="11.339465"><ele>275.0</ele><time>2026-04-18T08:54:13.771Z</time></trkpt><trkpt lat="43.114785" lon="11.339385"><ele>275.0</ele><time>2026-04-18T08:54:14.769Z</time></trkpt><trkpt lat="43.114655" lon="11.3393167"><ele>273.6666666666667</ele><time>2026-04-18T08:54:15.771Z</time></trkpt><trkpt lat="43.1145217" lon="11.3392083"><ele>272.3333333333333</ele><time>2026-04-18T08:54:16.768Z</time></trkpt><trkpt lat="43.11438" lon="11.3391267"><ele>271.0</ele><time>2026-04-18T08:54:17.769Z</time></trkpt><trkpt lat="43.1142333" lon="11.3390417"><ele>271.0</ele><time>2026-04-18T08:54:18.772Z</time></trkpt><trkpt lat="43.114075" lon="11.339015"><ele>271.0</ele><time>2026-04-18T08:54:19.771Z</time></trkpt><trkpt lat="43.11392" lon="11.3389717"><ele>271.0</ele><time>2026-04-18T08:54:20.769Z</time></trkpt><trkpt lat="43.113755" lon="11.3389567"><ele>268.25</ele><time>2026-04-18T08:54:21.77Z</time></trkpt><trkpt lat="43.1136" lon="11.3389333"><ele>265.5</ele><time>2026-04-18T08:54:22.768Z</time></trkpt><trkpt lat="43.11345" lon="11.3389117"><ele>262.75</ele><time>2026-04-18T08:54:23.77Z</time></trkpt><trkpt lat="43.113315" lon="11.3388783"><ele>260.0</ele><time>2026-04-18T08:54:24.771Z</time></trkpt><trkpt lat="43.11319" lon="11.338835"><ele>259.25</ele><time>2026-04-18T08:54:25.769Z</time></trkpt><trkpt lat="43.113075" lon="11.3387667"><ele>258.5</ele><time>2026-04-18T08:54:26.772Z</time></trkpt><trkpt lat="43.11297" lon="11.3386933"><ele>257.75</ele><time>2026-04-18T08:54:27.771Z</time></trkpt><trkpt lat="43.112875" lon="11.3386117"><ele>257.0</ele><time>2026-04-18T08:54:28.77Z</time></trkpt><trkpt lat="43.112785" lon="11.33853"><ele>257.0</ele><time>2026-04-18T08:54:29.77Z</time></trkpt><trkpt lat="43.112705" lon="11.33845"><ele>257.0</ele><time>2026-04-18T08:54:30.771Z</time></trkpt><trkpt lat="43.112635" lon="11.3383667"><ele>257.0</ele><time>2026-04-18T08:54:31.77Z</time></trkpt><trkpt lat="43.1125733" lon="11.338295"><ele>257.0</ele><time>2026-04-18T08:54:32.767Z</time></trkpt><trkpt lat="43.112515" lon="11.3382167"><ele>257.0</ele><time>2026-04-18T08:54:33.768Z</time></trkpt><trkpt lat="43.1124617" lon="11.3381433"><ele>257.0</ele><time>2026-04-18T08:54:34.769Z</time></trkpt><trkpt lat="43.1123917" lon="11.3379983"><ele>256.6</ele><time>2026-04-18T08:54:36.773Z</time></trkpt><trkpt lat="43.11237" lon="11.33785"><ele>256.2</ele><time>2026-04-18T08:54:38.771Z</time></trkpt><trkpt lat="43.1123867" lon="11.3377667"><ele>255.8</ele><time>2026-04-18T08:54:39.77Z</time></trkpt><trkpt lat="43.1124517" lon="11.3376617"><ele>255.4</ele><time>2026-04-18T08:54:40.766Z</time></trkpt><trkpt lat="43.112515" lon="11.3375467"><ele>255.0</ele><time>2026-04-18T08:54:41.77Z</time></trkpt><trkpt lat="43.1125567" lon="11.337435"><ele>255.4</ele><time>2026-04-18T08:54:42.774Z</time></trkpt><trkpt lat="43.1126083" lon="11.33731"><ele>255.8</ele><time>2026-04-18T08:54:43.77Z</time></trkpt><trkpt lat="43.112645" lon="11.3371883"><ele>256.2</ele><time>2026-04-18T08:54:44.77Z</time></trkpt><trkpt lat="43.1126667" lon="11.3370667"><ele>256.6</ele><time>2026-04-18T08:54:45.772Z</time></trkpt><trkpt lat="43.1126667" lon="11.3369483"><ele>257.0</ele><time>2026-04-18T08:54:46.767Z</time></trkpt><trkpt lat="43.11265" lon="11.3368133"><ele>257.0</ele><time>2026-04-18T08:54:47.768Z</time></trkpt><trkpt lat="43.11261" lon="11.3366617"><ele>257.0</ele><time>2026-04-18T08:54:48.774Z</time></trkpt><trkpt lat="43.1125717" lon="11.336515"><ele>257.0</ele><time>2026-04-18T08:54:49.771Z</time></trkpt><trkpt lat="43.1125283" lon="11.336375"><ele>257.0</ele><time>2026-04-18T08:54:50.769Z</time></trkpt><trkpt lat="43.1124783" lon="11.3362517"><ele>257.0</ele><time>2026-04-18T08:54:51.77Z</time></trkpt><trkpt lat="43.11241" lon="11.3361483"><ele>256.6</ele><time>2026-04-18T08:54:52.768Z</time></trkpt><trkpt lat="43.1123383" lon="11.3360517"><ele>256.2</ele><time>2026-04-18T08:54:53.77Z</time></trkpt><trkpt lat="43.11226" lon="11.33596"><ele>255.8</ele><time>2026-04-18T08:54:54.771Z</time></trkpt><trkpt lat="43.1121767" lon="11.3358683"><ele>255.4</ele><time>2026-04-18T08:54:55.769Z</time></trkpt><trkpt lat="43.112105" lon="11.33577"><ele>255.0</ele><time>2026-04-18T08:54:56.768Z</time></trkpt><trkpt lat="43.1120417" lon="11.3356767"><ele>255.0</ele><time>2026-04-18T08:54:57.769Z</time></trkpt><trkpt lat="43.1119933" lon="11.3355583"><ele>255.0</ele><time>2026-04-18T08:54:58.769Z</time></trkpt><trkpt lat="43.1119367" lon="11.3354583"><ele>255.0</ele><time>2026-04-18T08:54:59.766Z</time></trkpt><trkpt lat="43.1118817" lon="11.335345"><ele>255.0</ele><time>2026-04-18T08:55:00.771Z</time></trkpt><trkpt lat="43.1118183" lon="11.3352733"><ele>255.0</ele><time>2026-04-18T08:55:01.77Z</time></trkpt><trkpt lat="43.111735" lon="11.3352333"><ele>254.0</ele><time>2026-04-18T08:55:02.768Z</time></trkpt><trkpt lat="43.1116617" lon="11.3351917"><ele>253.0</ele><time>2026-04-18T08:55:03.768Z</time></trkpt><trkpt lat="43.1115833" lon="11.3352217"><ele>252.0</ele><time>2026-04-18T08:55:04.765Z</time></trkpt><trkpt lat="43.1115033" lon="11.3352167"><ele>251.0</ele><time>2026-04-18T08:55:05.769Z</time></trkpt><trkpt lat="43.1114233" lon="11.33521"><ele>250.0</ele><time>2026-04-18T08:55:06.77Z</time></trkpt><trkpt lat="43.1113417" lon="11.335225"><ele>249.0</ele><time>2026-04-18T08:55:07.771Z</time></trkpt><trkpt lat="43.1112783" lon="11.3352483"><ele>249.0</ele><time>2026-04-18T08:55:08.767Z</time></trkpt><trkpt lat="43.1112083" lon="11.33533"><ele>249.0</ele><time>2026-04-18T08:55:10.769Z</time></trkpt><trkpt lat="43.1111033" lon="11.3353183"><ele>249.0</ele><time>2026-04-18T08:55:12.771Z</time></trkpt><trkpt lat="43.11104" lon="11.3352817"><ele>249.0</ele><time>2026-04-18T08:55:13.769Z</time></trkpt><trkpt lat="43.1109767" lon="11.3352383"><ele>249.0</ele><time>2026-04-18T08:55:14.768Z</time></trkpt><trkpt lat="43.1109183" lon="11.335175"><ele>249.0</ele><time>2026-04-18T08:55:15.768Z</time></trkpt><trkpt lat="43.1108567" lon="11.33512"><ele>249.0</ele><time>2026-04-18T08:55:16.768Z</time></trkpt><trkpt lat="43.1107833" lon="11.335045"><ele>249.0</ele><time>2026-04-18T08:55:17.766Z</time></trkpt><trkpt lat="43.110725" lon="11.3349633"><ele>249.0</ele><time>2026-04-18T08:55:18.771Z</time></trkpt><trkpt lat="43.11067" lon="11.3348833"><ele>249.0</ele><time>2026-04-18T08:55:19.771Z</time></trkpt><trkpt lat="43.110615" lon="11.3348033"><ele>249.0</ele><time>2026-04-18T08:55:20.768Z</time></trkpt><trkpt lat="43.110565" lon="11.33473"><ele>249.0</ele><time>2026-04-18T08:55:21.771Z</time></trkpt><trkpt lat="43.1105217" lon="11.334655"><ele>247.33333333333334</ele><time>2026-04-18T08:55:22.771Z</time></trkpt><trkpt lat="43.1104817" lon="11.3345883"><ele>245.66666666666669</ele><time>2026-04-18T08:55:23.769Z</time></trkpt><trkpt lat="43.1103983" lon="11.334455"><ele>244.0</ele><time>2026-04-18T08:55:25.767Z</time></trkpt><trkpt lat="43.110345" lon="11.3343883"><ele>242.33333333333334</ele><time>2026-04-18T08:55:26.765Z</time></trkpt><trkpt lat="43.1102867" lon="11.3343167"><ele>240.66666666666669</ele><time>2026-04-18T08:55:27.771Z</time></trkpt><trkpt lat="43.1102233" lon="11.3342333"><ele>239.0</ele><time>2026-04-18T08:55:28.768Z</time></trkpt><trkpt lat="43.110165" lon="11.3341417"><ele>239.00000000000003</ele><time>2026-04-18T08:55:29.771Z</time></trkpt><trkpt lat="43.1101083" lon="11.3340467"><ele>239.0</ele><time>2026-04-18T08:55:30.773Z</time></trkpt><trkpt lat="43.1100533" lon="11.3339483"><ele>239.0</ele><time>2026-04-18T08:55:31.769Z</time></trkpt><trkpt lat="43.1100017" lon="11.3338433"><ele>239.0</ele><time>2026-04-18T08:55:32.772Z</time></trkpt><trkpt lat="43.1099517" lon="11.3337367"><ele>239.00000000000003</ele><time>2026-04-18T08:55:33.77Z</time></trkpt><trkpt lat="43.10991" lon="11.3336483"><ele>239.0</ele><time>2026-04-18T08:55:34.766Z</time></trkpt><trkpt lat="43.109875" lon="11.3335683"><ele>239.00000000000003</ele><time>2026-04-18T08:55:35.77Z</time></trkpt><trkpt lat="43.1098483" lon="11.3334833"><ele>239.0</ele><time>2026-04-18T08:55:36.769Z</time></trkpt><trkpt lat="43.1098217" lon="11.33339"><ele>239.0</ele><time>2026-04-18T08:55:37.77Z</time></trkpt><trkpt lat="43.1097967" lon="11.33329"><ele>239.0</ele><time>2026-04-18T08:55:38.766Z</time></trkpt><trkpt lat="43.10977" lon="11.33317"><ele>239.00000000000003</ele><time>2026-04-18T08:55:39.769Z</time></trkpt><trkpt lat="43.10974" lon="11.33305"><ele>239.0</ele><time>2026-04-18T08:55:40.767Z</time></trkpt><trkpt lat="43.1097167" lon="11.33291"><ele>239.0</ele><time>2026-04-18T08:55:41.763Z</time></trkpt><trkpt lat="43.1096867" lon="11.3327683"><ele>238.99999999999997</ele><time>2026-04-18T08:55:42.771Z</time></trkpt><trkpt lat="43.1096383" lon="11.332645"><ele>238.99999999999997</ele><time>2026-04-18T08:55:43.769Z</time></trkpt><trkpt lat="43.109585" lon="11.3325267"><ele>239.0</ele><time>2026-04-18T08:55:44.766Z</time></trkpt><trkpt lat="43.10952" lon="11.3324217"><ele>239.0</ele><time>2026-04-18T08:55:45.769Z</time></trkpt><trkpt lat="43.10944" lon="11.332325"><ele>239.0</ele><time>2026-04-18T08:55:46.77Z</time></trkpt><trkpt lat="43.10935" lon="11.33224"><ele>239.0</ele><time>2026-04-18T08:55:47.767Z</time></trkpt><trkpt lat="43.109245" lon="11.3321683"><ele>239.0</ele><time>2026-04-18T08:55:48.77Z</time></trkpt><trkpt lat="43.109125" lon="11.3320967"><ele>239.0</ele><time>2026-04-18T08:55:49.768Z</time></trkpt><trkpt lat="43.1090067" lon="11.3321067"><ele>235.5</ele><time>2026-04-18T08:55:50.768Z</time></trkpt><trkpt lat="43.1088867" lon="11.3320617"><ele>232.0</ele><time>2026-04-18T08:55:51.771Z</time></trkpt><trkpt lat="43.1087717" lon="11.3320283"><ele>228.5</ele><time>2026-04-18T08:55:52.769Z</time></trkpt><trkpt lat="43.1086667" lon="11.33201"><ele>225.0</ele><time>2026-04-18T08:55:53.77Z</time></trkpt><trkpt lat="43.1085467" lon="11.3320033"><ele>225.0</ele><time>2026-04-18T08:55:54.77Z</time></trkpt><trkpt lat="43.108395" lon="11.33198"><ele>225.0</ele><time>2026-04-18T08:55:55.768Z</time></trkpt><trkpt lat="43.1082567" lon="11.3319867"><ele>225.0</ele><time>2026-04-18T08:55:56.77Z</time></trkpt><trkpt lat="43.1081117" lon="11.3319467"><ele>225.0</ele><time>2026-04-18T08:55:57.768Z</time></trkpt><trkpt lat="43.1079733" lon="11.3319183"><ele>222.75</ele><time>2026-04-18T08:55:58.769Z</time></trkpt><trkpt lat="43.107835" lon="11.3318833"><ele>220.5</ele><time>2026-04-18T08:55:59.77Z</time></trkpt><trkpt lat="43.1077033" lon="11.3318333"><ele>218.25</ele><time>2026-04-18T08:56:00.771Z</time></trkpt><trkpt lat="43.1075717" lon="11.3317767"><ele>216.0</ele><time>2026-04-18T08:56:01.77Z</time></trkpt><trkpt lat="43.107435" lon="11.331725"><ele>215.25</ele><time>2026-04-18T08:56:02.77Z</time></trkpt><trkpt lat="43.10731" lon="11.3316667"><ele>214.5</ele><time>2026-04-18T08:56:03.77Z</time></trkpt><trkpt lat="43.1071833" lon="11.3316033"><ele>213.75</ele><time>2026-04-18T08:56:04.767Z</time></trkpt><trkpt lat="43.10705" lon="11.3315383"><ele>213.0</ele><time>2026-04-18T08:56:05.77Z</time></trkpt><trkpt lat="43.1069067" lon="11.3314583"><ele>213.0</ele><time>2026-04-18T08:56:06.769Z</time></trkpt><trkpt lat="43.1067583" lon="11.3313883"><ele>213.0</ele><time>2026-04-18T08:56:07.767Z</time></trkpt><trkpt lat="43.106615" lon="11.33132"><ele>213.0</ele><time>2026-04-18T08:56:08.77Z</time></trkpt><trkpt lat="43.1064883" lon="11.3312533"><ele>213.0</ele><time>2026-04-18T08:56:09.77Z</time></trkpt><trkpt lat="43.1063767" lon="11.33119"><ele>212.0</ele><time>2026-04-18T08:56:10.768Z</time></trkpt><trkpt lat="43.106265" lon="11.331135"><ele>211.0</ele><time>2026-04-18T08:56:11.767Z</time></trkpt><trkpt lat="43.1061417" lon="11.3310933"><ele>210.0</ele><time>2026-04-18T08:56:12.773Z</time></trkpt><trkpt lat="43.1060133" lon="11.3310667"><ele>209.0</ele><time>2026-04-18T08:56:13.769Z</time></trkpt><trkpt lat="43.1058733" lon="11.3310433"><ele>207.0</ele><time>2026-04-18T08:56:14.767Z</time></trkpt><trkpt lat="43.1057283" lon="11.3310083"><ele>205.0</ele><time>2026-04-18T08:56:15.771Z</time></trkpt><trkpt lat="43.1055867" lon="11.3309617"><ele>203.0</ele><time>2026-04-18T08:56:16.767Z</time></trkpt><trkpt lat="43.105455" lon="11.3308933"><ele>201.0</ele><time>2026-04-18T08:56:17.772Z</time></trkpt><trkpt lat="43.105335" lon="11.3307933"><ele>201.0</ele><time>2026-04-18T08:56:18.771Z</time></trkpt><trkpt lat="43.1052217" lon="11.330665"><ele>201.0</ele><time>2026-04-18T08:56:19.77Z</time></trkpt><trkpt lat="43.1051183" lon="11.3305167"><ele>201.0</ele><time>2026-04-18T08:56:20.772Z</time></trkpt><trkpt lat="43.105015" lon="11.3303517"><ele>200.0</ele><time>2026-04-18T08:56:21.773Z</time></trkpt><trkpt lat="43.104915" lon="11.3301867"><ele>199.0</ele><time>2026-04-18T08:56:22.767Z</time></trkpt><trkpt lat="43.1048117" lon="11.3300167"><ele>198.0</ele><time>2026-04-18T08:56:23.773Z</time></trkpt><trkpt lat="43.104715" lon="11.3298567"><ele>198.25</ele><time>2026-04-18T08:56:24.769Z</time></trkpt><trkpt lat="43.1046233" lon="11.3296983"><ele>198.5</ele><time>2026-04-18T08:56:25.765Z</time></trkpt><trkpt lat="43.104535" lon="11.32955"><ele>198.75</ele><time>2026-04-18T08:56:26.767Z</time></trkpt><trkpt lat="43.1044483" lon="11.3294017"><ele>199.0</ele><time>2026-04-18T08:56:27.77Z</time></trkpt><trkpt lat="43.1043667" lon="11.329265"><ele>199.0</ele><time>2026-04-18T08:56:28.769Z</time></trkpt><trkpt lat="43.1042817" lon="11.329125"><ele>199.0</ele><time>2026-04-18T08:56:29.77Z</time></trkpt><trkpt lat="43.1041983" lon="11.3289867"><ele>199.0</ele><time>2026-04-18T08:56:30.771Z</time></trkpt><trkpt lat="43.1041167" lon="11.3288583"><ele>199.0</ele><time>2026-04-18T08:56:31.771Z</time></trkpt><trkpt lat="43.1040217" lon="11.3287367"><ele>197.5</ele><time>2026-04-18T08:56:32.773Z</time></trkpt><trkpt lat="43.103915" lon="11.3286133"><ele>196.0</ele><time>2026-04-18T08:56:33.77Z</time></trkpt><trkpt lat="43.1038" lon="11.3284983"><ele>194.5</ele><time>2026-04-18T08:56:34.766Z</time></trkpt><trkpt lat="43.1036717" lon="11.3283783"><ele>193.0</ele><time>2026-04-18T08:56:35.769Z</time></trkpt><trkpt lat="43.1035333" lon="11.3282583"><ele>193.0</ele><time>2026-04-18T08:56:36.771Z</time></trkpt><trkpt lat="43.1033983" lon="11.328135"><ele>193.0</ele><time>2026-04-18T08:56:37.771Z</time></trkpt><trkpt lat="43.10326" lon="11.3280117"><ele>193.0</ele><time>2026-04-18T08:56:38.765Z</time></trkpt><trkpt lat="43.10313" lon="11.3278867"><ele>190.25</ele><time>2026-04-18T08:56:39.77Z</time></trkpt><trkpt lat="43.1030033" lon="11.32777"><ele>187.5</ele><time>2026-04-18T08:56:40.765Z</time></trkpt><trkpt lat="43.10288" lon="11.3276567"><ele>184.75</ele><time>2026-04-18T08:56:41.771Z</time></trkpt><trkpt lat="43.1027617" lon="11.3275467"><ele>182.0</ele><time>2026-04-18T08:56:42.771Z</time></trkpt><trkpt lat="43.1026483" lon="11.3274317"><ele>182.0</ele><time>2026-04-18T08:56:43.768Z</time></trkpt><trkpt lat="43.1025333" lon="11.327315"><ele>182.0</ele><time>2026-04-18T08:56:44.767Z</time></trkpt><trkpt lat="43.1024133" lon="11.3271983"><ele>182.0</ele><time>2026-04-18T08:56:45.769Z</time></trkpt><trkpt lat="43.102295" lon="11.3270933"><ele>182.0</ele><time>2026-04-18T08:56:46.77Z</time></trkpt><trkpt lat="43.1021867" lon="11.3270017"><ele>180.0</ele><time>2026-04-18T08:56:47.771Z</time></trkpt><trkpt lat="43.1020767" lon="11.3269017"><ele>178.0</ele><time>2026-04-18T08:56:48.772Z</time></trkpt><trkpt lat="43.1019667" lon="11.3267833"><ele>176.0</ele><time>2026-04-18T08:56:49.769Z</time></trkpt><trkpt lat="43.1018517" lon="11.326665"><ele>174.0</ele><time>2026-04-18T08:56:50.769Z</time></trkpt><trkpt lat="43.1017383" lon="11.3265467"><ele>174.0</ele><time>2026-04-18T08:56:51.77Z</time></trkpt><trkpt lat="43.10163" lon="11.32643"><ele>174.0</ele><time>2026-04-18T08:56:52.769Z</time></trkpt><trkpt lat="43.1015217" lon="11.3263117"><ele>174.0</ele><time>2026-04-18T08:56:53.77Z</time></trkpt><trkpt lat="43.1014083" lon="11.32619"><ele>174.0</ele><time>2026-04-18T08:56:54.766Z</time></trkpt><trkpt lat="43.1012983" lon="11.3260767"><ele>171.0</ele><time>2026-04-18T08:56:55.767Z</time></trkpt><trkpt lat="43.10118" lon="11.325955"><ele>168.0</ele><time>2026-04-18T08:56:56.77Z</time></trkpt><trkpt lat="43.1010667" lon="11.3258567"><ele>165.0</ele><time>2026-04-18T08:56:57.768Z</time></trkpt><trkpt lat="43.1009583" lon="11.3257433"><ele>162.0</ele><time>2026-04-18T08:56:58.768Z</time></trkpt><trkpt lat="43.1008517" lon="11.3256417"><ele>158.75</ele><time>2026-04-18T08:56:59.771Z</time></trkpt><trkpt lat="43.1007483" lon="11.3255317"><ele>155.5</ele><time>2026-04-18T08:57:00.771Z</time></trkpt><trkpt lat="43.1006467" lon="11.3254233"><ele>152.25</ele><time>2026-04-18T08:57:01.769Z</time></trkpt><trkpt lat="43.10055" lon="11.3253267"><ele>149.0</ele><time>2026-04-18T08:57:02.768Z</time></trkpt><trkpt lat="43.1004633" lon="11.3252367"><ele>149.0</ele><time>2026-04-18T08:57:03.77Z</time></trkpt><trkpt lat="43.10038" lon="11.32516"><ele>149.0</ele><time>2026-04-18T08:57:04.767Z</time></trkpt><trkpt lat="43.1002933" lon="11.3251083"><ele>149.0</ele><time>2026-04-18T08:57:05.772Z</time></trkpt><trkpt lat="43.1002" lon="11.3250917"><ele>149.0</ele><time>2026-04-18T08:57:06.765Z</time></trkpt><trkpt lat="43.100105" lon="11.3251233"><ele>149.0</ele><time>2026-04-18T08:57:07.766Z</time></trkpt><trkpt lat="43.1000083" lon="11.3252067"><ele>145.25</ele><time>2026-04-18T08:57:08.768Z</time></trkpt><trkpt lat="43.0999117" lon="11.3253183"><ele>141.5</ele><time>2026-04-18T08:57:09.768Z</time></trkpt><trkpt lat="43.099815" lon="11.3254417"><ele>137.75</ele><time>2026-04-18T08:57:10.768Z</time></trkpt><trkpt lat="43.0997133" lon="11.3255667"><ele>134.0</ele><time>2026-04-18T08:57:11.766Z</time></trkpt><trkpt lat="43.0996217" lon="11.3257067"><ele>134.0</ele><time>2026-04-18T08:57:12.759Z</time></trkpt><trkpt lat="43.0995217" lon="11.32584"><ele>134.0</ele><time>2026-04-18T08:57:13.761Z</time></trkpt><trkpt lat="43.0994167" lon="11.3259683"><ele>134.0</ele><time>2026-04-18T08:57:14.771Z</time></trkpt><trkpt lat="43.0993233" lon="11.3260867"><ele>134.0</ele><time>2026-04-18T08:57:15.77Z</time></trkpt><trkpt lat="43.09921" lon="11.3261783"><ele>134.0</ele><time>2026-04-18T08:57:16.768Z</time></trkpt><trkpt lat="43.0990917" lon="11.326245"><ele>134.0</ele><time>2026-04-18T08:57:17.77Z</time></trkpt><trkpt lat="43.098965" lon="11.3263"><ele>134.0</ele><time>2026-04-18T08:57:18.766Z</time></trkpt><trkpt lat="43.0988367" lon="11.326355"><ele>134.0</ele><time>2026-04-18T08:57:19.772Z</time></trkpt><trkpt lat="43.0987033" lon="11.3264033"><ele>132.5</ele><time>2026-04-18T08:57:20.769Z</time></trkpt><trkpt lat="43.0985717" lon="11.3264517"><ele>131.0</ele><time>2026-04-18T08:57:21.771Z</time></trkpt><trkpt lat="43.0984433" lon="11.3265"><ele>129.5</ele><time>2026-04-18T08:57:22.773Z</time></trkpt><trkpt lat="43.0983117" lon="11.3265433"><ele>128.0</ele><time>2026-04-18T08:57:23.772Z</time></trkpt><trkpt lat="43.0981817" lon="11.3265867"><ele>127.0</ele><time>2026-04-18T08:57:24.765Z</time></trkpt><trkpt lat="43.0980467" lon="11.3266317"><ele>126.0</ele><time>2026-04-18T08:57:25.769Z</time></trkpt><trkpt lat="43.0979167" lon="11.3266817"><ele>125.0</ele><time>2026-04-18T08:57:26.768Z</time></trkpt><trkpt lat="43.0977867" lon="11.3267383"><ele>124.0</ele><time>2026-04-18T08:57:27.771Z</time></trkpt><trkpt lat="43.097635" lon="11.3267967"><ele>124.0</ele><time>2026-04-18T08:57:28.766Z</time></trkpt><trkpt lat="43.0974683" lon="11.32686"><ele>124.0</ele><time>2026-04-18T08:57:29.77Z</time></trkpt><trkpt lat="43.0973017" lon="11.3269233"><ele>124.0</ele><time>2026-04-18T08:57:30.765Z</time></trkpt><trkpt lat="43.0971167" lon="11.3269917"><ele>125.66666666666667</ele><time>2026-04-18T08:57:31.769Z</time></trkpt><trkpt lat="43.096915" lon="11.3270733"><ele>127.33333333333334</ele><time>2026-04-18T08:57:32.769Z</time></trkpt><trkpt lat="43.09672" lon="11.327155"><ele>129.0</ele><time>2026-04-18T08:57:33.77Z</time></trkpt><trkpt lat="43.0965333" lon="11.3272217"><ele>129.0</ele><time>2026-04-18T08:57:34.768Z</time></trkpt><trkpt lat="43.0963567" lon="11.3272633"><ele>129.0</ele><time>2026-04-18T08:57:35.77Z</time></trkpt><trkpt lat="43.0961917" lon="11.3272817"><ele>129.0</ele><time>2026-04-18T08:57:36.766Z</time></trkpt><trkpt lat="43.0960417" lon="11.327275"><ele>129.0</ele><time>2026-04-18T08:57:37.767Z</time></trkpt><trkpt lat="43.09591" lon="11.3272333"><ele>129.0</ele><time>2026-04-18T08:57:38.766Z</time></trkpt><trkpt lat="43.0957917" lon="11.327145"><ele>129.0</ele><time>2026-04-18T08:57:39.771Z</time></trkpt><trkpt lat="43.095685" lon="11.3270217"><ele>129.0</ele><time>2026-04-18T08:57:40.765Z</time></trkpt><trkpt lat="43.0955817" lon="11.3268667"><ele>132.66666666666666</ele><time>2026-04-18T08:57:41.77Z</time></trkpt><trkpt lat="43.0954783" lon="11.3266683"><ele>136.33333333333331</ele><time>2026-04-18T08:57:42.77Z</time></trkpt><trkpt lat="43.0953883" lon="11.3264067"><ele>140.0</ele><time>2026-04-18T08:57:43.771Z</time></trkpt><trkpt lat="43.0952967" lon="11.3261633"><ele>141.0</ele><time>2026-04-18T08:57:44.764Z</time></trkpt><trkpt lat="43.0952183" lon="11.3259633"><ele>142.0</ele><time>2026-04-18T08:57:45.772Z</time></trkpt><trkpt lat="43.0951283" lon="11.32579"><ele>143.0</ele><time>2026-04-18T08:57:46.765Z</time></trkpt><trkpt lat="43.09504" lon="11.3256633"><ele>144.0</ele><time>2026-04-18T08:57:47.77Z</time></trkpt><trkpt lat="43.0949483" lon="11.3255583"><ele>145.0</ele><time>2026-04-18T08:57:48.769Z</time></trkpt><trkpt lat="43.0948767" lon="11.3254433"><ele>146.0</ele><time>2026-04-18T08:57:49.769Z</time></trkpt><trkpt lat="43.0948033" lon="11.325315"><ele>147.0</ele><time>2026-04-18T08:57:50.769Z</time></trkpt><trkpt lat="43.0947333" lon="11.3251617"><ele>148.0</ele><time>2026-04-18T08:57:51.771Z</time></trkpt><trkpt lat="43.0946667" lon="11.3249733"><ele>148.0</ele><time>2026-04-18T08:57:52.769Z</time></trkpt><trkpt lat="43.0946217" lon="11.3247717"><ele>148.0</ele><time>2026-04-18T08:57:53.77Z</time></trkpt><trkpt lat="43.0945717" lon="11.324545"><ele>148.0</ele><time>2026-04-18T08:57:54.771Z</time></trkpt><trkpt lat="43.0945333" lon="11.324315"><ele>150.33333333333334</ele><time>2026-04-18T08:57:55.771Z</time></trkpt><trkpt lat="43.0944967" lon="11.32409"><ele>152.66666666666666</ele><time>2026-04-18T08:57:56.77Z</time></trkpt><trkpt lat="43.0944517" lon="11.323865"><ele>155.0</ele><time>2026-04-18T08:57:57.771Z</time></trkpt><trkpt lat="43.0944" lon="11.3236433"><ele>158.0</ele><time>2026-04-18T08:57:58.767Z</time></trkpt><trkpt lat="43.0943517" lon="11.3234067"><ele>161.0</ele><time>2026-04-18T08:57:59.771Z</time></trkpt><trkpt lat="43.0942983" lon="11.3231567"><ele>164.0</ele><time>2026-04-18T08:58:00.772Z</time></trkpt><trkpt lat="43.094245" lon="11.32291"><ele>167.33333333333331</ele><time>2026-04-18T08:58:01.771Z</time></trkpt><trkpt lat="43.0941967" lon="11.3226767"><ele>170.66666666666666</ele><time>2026-04-18T08:58:02.769Z</time></trkpt><trkpt lat="43.0941467" lon="11.32246"><ele>174.0</ele><time>2026-04-18T08:58:03.769Z</time></trkpt><trkpt lat="43.09411" lon="11.322255"><ele>176.5</ele><time>2026-04-18T08:58:04.77Z</time></trkpt><trkpt lat="43.094095" lon="11.3220633"><ele>179.0</ele><time>2026-04-18T08:58:05.77Z</time></trkpt><trkpt lat="43.0941133" lon="11.3218633"><ele>181.5</ele><time>2026-04-18T08:58:06.77Z</time></trkpt><trkpt lat="43.0941533" lon="11.3216533"><ele>184.0</ele><time>2026-04-18T08:58:07.769Z</time></trkpt><trkpt lat="43.0941983" lon="11.3214483"><ele>187.75</ele><time>2026-04-18T08:58:08.768Z</time></trkpt><trkpt lat="43.0942233" lon="11.321255"><ele>191.5</ele><time>2026-04-18T08:58:09.771Z</time></trkpt><trkpt lat="43.0942267" lon="11.3210667"><ele>195.25</ele><time>2026-04-18T08:58:10.765Z</time></trkpt><trkpt lat="43.0942" lon="11.3208767"><ele>199.0</ele><time>2026-04-18T08:58:11.77Z</time></trkpt><trkpt lat="43.0941533" lon="11.3206833"><ele>201.66666666666666</ele><time>2026-04-18T08:58:12.769Z</time></trkpt><trkpt lat="43.094095" lon="11.3204883"><ele>204.33333333333331</ele><time>2026-04-18T08:58:13.767Z</time></trkpt><trkpt lat="43.094025" lon="11.320295"><ele>207.0</ele><time>2026-04-18T08:58:14.772Z</time></trkpt><trkpt lat="43.09396" lon="11.320105"><ele>207.0</ele><time>2026-04-18T08:58:15.77Z</time></trkpt><trkpt lat="43.0938983" lon="11.319935"><ele>207.0</ele><time>2026-04-18T08:58:16.768Z</time></trkpt><trkpt lat="43.0938183" lon="11.319795"><ele>207.0</ele><time>2026-04-18T08:58:17.767Z</time></trkpt><trkpt lat="43.0937183" lon="11.31967"><ele>207.0</ele><time>2026-04-18T08:58:18.765Z</time></trkpt><trkpt lat="43.0935917" lon="11.3195733"><ele>213.33333333333331</ele><time>2026-04-18T08:58:19.769Z</time></trkpt><trkpt lat="43.0934517" lon="11.319485"><ele>219.66666666666666</ele><time>2026-04-18T08:58:20.77Z</time></trkpt><trkpt lat="43.0932867" lon="11.3194317"><ele>226.0</ele><time>2026-04-18T08:58:21.772Z</time></trkpt><trkpt lat="43.0931367" lon="11.31935"><ele>226.0</ele><time>2026-04-18T08:58:22.771Z</time></trkpt><trkpt lat="43.0929783" lon="11.3192767"><ele>226.0</ele><time>2026-04-18T08:58:23.771Z</time></trkpt><trkpt lat="43.09282" lon="11.3192233"><ele>226.0</ele><time>2026-04-18T08:58:24.768Z</time></trkpt><trkpt lat="43.0926783" lon="11.31919"><ele>226.0</ele><time>2026-04-18T08:58:25.77Z</time></trkpt><trkpt lat="43.092555" lon="11.3191567"><ele>226.0</ele><time>2026-04-18T08:58:26.767Z</time></trkpt><trkpt lat="43.09244" lon="11.3191033"><ele>226.0</ele><time>2026-04-18T08:58:27.766Z</time></trkpt><trkpt lat="43.0923317" lon="11.319055"><ele>226.0</ele><time>2026-04-18T08:58:28.765Z</time></trkpt><trkpt lat="43.0922267" lon="11.319"><ele>225.75</ele><time>2026-04-18T08:58:29.769Z</time></trkpt><trkpt lat="43.0921283" lon="11.3189333"><ele>225.5</ele><time>2026-04-18T08:58:30.772Z</time></trkpt><trkpt lat="43.0920283" lon="11.3188317"><ele>225.25</ele><time>2026-04-18T08:58:31.772Z</time></trkpt><trkpt lat="43.09193" lon="11.3187"><ele>225.0</ele><time>2026-04-18T08:58:32.767Z</time></trkpt><trkpt lat="43.091825" lon="11.31855"><ele>224.66666666666669</ele><time>2026-04-18T08:58:33.771Z</time></trkpt><trkpt lat="43.091725" lon="11.3183883"><ele>224.33333333333334</ele><time>2026-04-18T08:58:34.768Z</time></trkpt><trkpt lat="43.0916367" lon="11.3182217"><ele>224.0</ele><time>2026-04-18T08:58:35.772Z</time></trkpt><trkpt lat="43.0915467" lon="11.3180533"><ele>223.0</ele><time>2026-04-18T08:58:36.773Z</time></trkpt><trkpt lat="43.0914633" lon="11.3178933"><ele>222.0</ele><time>2026-04-18T08:58:37.772Z</time></trkpt><trkpt lat="43.0913883" lon="11.317725"><ele>221.0</ele><time>2026-04-18T08:58:38.766Z</time></trkpt><trkpt lat="43.0913283" lon="11.3175583"><ele>220.0</ele><time>2026-04-18T08:58:39.77Z</time></trkpt><trkpt lat="43.0912833" lon="11.3174083"><ele>220.0</ele><time>2026-04-18T08:58:40.769Z</time></trkpt><trkpt lat="43.0912583" lon="11.31726"><ele>220.0</ele><time>2026-04-18T08:58:41.77Z</time></trkpt><trkpt lat="43.0912667" lon="11.317095"><ele>220.0</ele><time>2026-04-18T08:58:42.772Z</time></trkpt><trkpt lat="43.091315" lon="11.316905"><ele>220.0</ele><time>2026-04-18T08:58:43.765Z</time></trkpt><trkpt lat="43.0913767" lon="11.3167183"><ele>217.33333333333331</ele><time>2026-04-18T08:58:44.769Z</time></trkpt><trkpt lat="43.0914667" lon="11.31653"><ele>214.66666666666669</ele><time>2026-04-18T08:58:45.768Z</time></trkpt><trkpt lat="43.0915633" lon="11.3163267"><ele>212.0</ele><time>2026-04-18T08:58:46.767Z</time></trkpt><trkpt lat="43.0916383" lon="11.3161067"><ele>211.0</ele><time>2026-04-18T08:58:47.77Z</time></trkpt><trkpt lat="43.0916917" lon="11.315875"><ele>210.0</ele><time>2026-04-18T08:58:48.774Z</time></trkpt><trkpt lat="43.0917367" lon="11.3156283"><ele>209.0</ele><time>2026-04-18T08:58:49.769Z</time></trkpt><trkpt lat="43.0917733" lon="11.31537"><ele>208.0</ele><time>2026-04-18T08:58:50.771Z</time></trkpt><trkpt lat="43.0918033" lon="11.31511"><ele>207.0</ele><time>2026-04-18T08:58:51.771Z</time></trkpt><trkpt lat="43.0918233" lon="11.3148467"><ele>206.0</ele><time>2026-04-18T08:58:52.769Z</time></trkpt><trkpt lat="43.0918467" lon="11.3145733"><ele>206.0</ele><time>2026-04-18T08:58:53.767Z</time></trkpt><trkpt lat="43.09187" lon="11.3143"><ele>206.0</ele><time>2026-04-18T08:58:54.772Z</time></trkpt><trkpt lat="43.0919033" lon="11.3140283"><ele>206.0</ele><time>2026-04-18T08:58:55.771Z</time></trkpt><trkpt lat="43.0919483" lon="11.3137517"><ele>206.66666666666669</ele><time>2026-04-18T08:58:56.766Z</time></trkpt><trkpt lat="43.0919867" lon="11.3134833"><ele>207.33333333333331</ele><time>2026-04-18T08:58:57.77Z</time></trkpt><trkpt lat="43.0920283" lon="11.31322"><ele>208.0</ele><time>2026-04-18T08:58:58.769Z</time></trkpt><trkpt lat="43.0920567" lon="11.312965"><ele>208.33333333333331</ele><time>2026-04-18T08:58:59.769Z</time></trkpt><trkpt lat="43.09208" lon="11.3127217"><ele>208.66666666666669</ele><time>2026-04-18T08:59:00.773Z</time></trkpt><trkpt lat="43.0920833" lon="11.3124683"><ele>209.0</ele><time>2026-04-18T08:59:01.769Z</time></trkpt><trkpt lat="43.0920817" lon="11.3121933"><ele>209.0</ele><time>2026-04-18T08:59:02.769Z</time></trkpt><trkpt lat="43.0920667" lon="11.31191"><ele>209.0</ele><time>2026-04-18T08:59:03.77Z</time></trkpt><trkpt lat="43.0920333" lon="11.3116483"><ele>209.0</ele><time>2026-04-18T08:59:04.766Z</time></trkpt><trkpt lat="43.0919883" lon="11.311405"><ele>209.66666666666669</ele><time>2026-04-18T08:59:05.77Z</time></trkpt><trkpt lat="43.0919333" lon="11.3111817"><ele>210.33333333333331</ele><time>2026-04-18T08:59:06.772Z</time></trkpt><trkpt lat="43.0918933" lon="11.3109617"><ele>211.0</ele><time>2026-04-18T08:59:07.771Z</time></trkpt><trkpt lat="43.0918667" lon="11.3107483"><ele>211.66666666666666</ele><time>2026-04-18T08:59:08.77Z</time></trkpt><trkpt lat="43.09185" lon="11.3105333"><ele>212.33333333333331</ele><time>2026-04-18T08:59:09.771Z</time></trkpt><trkpt lat="43.09184" lon="11.3103"><ele>213.0</ele><time>2026-04-18T08:59:10.766Z</time></trkpt><trkpt lat="43.0918367" lon="11.3100633"><ele>213.0</ele><time>2026-04-18T08:59:11.766Z</time></trkpt><trkpt lat="43.09184" lon="11.3098333"><ele>213.0</ele><time>2026-04-18T08:59:12.77Z</time></trkpt><trkpt lat="43.0918417" lon="11.30963"><ele>213.0</ele><time>2026-04-18T08:59:13.77Z</time></trkpt><trkpt lat="43.0918383" lon="11.3094583"><ele>213.0</ele><time>2026-04-18T08:59:14.771Z</time></trkpt><trkpt lat="43.0918417" lon="11.3093133"><ele>213.25</ele><time>2026-04-18T08:59:15.765Z</time></trkpt><trkpt lat="43.09188" lon="11.309175"><ele>213.5</ele><time>2026-04-18T08:59:16.764Z</time></trkpt><trkpt lat="43.0919533" lon="11.3090433"><ele>213.75</ele><time>2026-04-18T08:59:17.77Z</time></trkpt><trkpt lat="43.0920567" lon="11.30893"><ele>214.0</ele><time>2026-04-18T08:59:18.773Z</time></trkpt><trkpt lat="43.0921417" lon="11.3088167"><ele>213.39999999999998</ele><time>2026-04-18T08:59:19.77Z</time></trkpt><trkpt lat="43.0922133" lon="11.308705"><ele>212.79999999999998</ele><time>2026-04-18T08:59:20.769Z</time></trkpt><trkpt lat="43.092255" lon="11.30858"><ele>212.2</ele><time>2026-04-18T08:59:21.769Z</time></trkpt><trkpt lat="43.0922767" lon="11.3084333"><ele>211.60000000000002</ele><time>2026-04-18T08:59:22.766Z</time></trkpt><trkpt lat="43.0922717" lon="11.30828"><ele>211.0</ele><time>2026-04-18T08:59:23.77Z</time></trkpt><trkpt lat="43.092255" lon="11.3081183"><ele>212.60000000000002</ele><time>2026-04-18T08:59:24.77Z</time></trkpt><trkpt lat="43.0922417" lon="11.3079683"><ele>214.2</ele><time>2026-04-18T08:59:25.771Z</time></trkpt><trkpt lat="43.092235" lon="11.3078383"><ele>215.79999999999998</ele><time>2026-04-18T08:59:26.77Z</time></trkpt><trkpt lat="43.0922267" lon="11.3077133"><ele>217.39999999999998</ele><time>2026-04-18T08:59:27.767Z</time></trkpt><trkpt lat="43.0922183" lon="11.30761"><ele>219.0</ele><time>2026-04-18T08:59:28.771Z</time></trkpt><trkpt lat="43.0922017" lon="11.3075017"><ele>219.0</ele><time>2026-04-18T08:59:30.771Z</time></trkpt><trkpt lat="43.092125" lon="11.3074367"><ele>219.0</ele><time>2026-04-18T08:59:41.768Z</time></trkpt><trkpt lat="43.0920667" lon="11.3073933"><ele>219.0</ele><time>2026-04-18T08:59:42.769Z</time></trkpt><trkpt lat="43.0919983" lon="11.3073283"><ele>219.0</ele><time>2026-04-18T08:59:43.769Z</time></trkpt><trkpt lat="43.091935" lon="11.3072483"><ele>219.0</ele><time>2026-04-18T08:59:44.765Z</time></trkpt><trkpt lat="43.0918483" lon="11.3071317"><ele>219.0</ele><time>2026-04-18T08:59:45.769Z</time></trkpt><trkpt lat="43.0917683" lon="11.3069633"><ele>220.66666666666669</ele><time>2026-04-18T08:59:46.767Z</time></trkpt><trkpt lat="43.0917033" lon="11.30679"><ele>222.33333333333334</ele><time>2026-04-18T08:59:47.77Z</time></trkpt><trkpt lat="43.0916383" lon="11.306605"><ele>224.0</ele><time>2026-04-18T08:59:48.771Z</time></trkpt><trkpt lat="43.0915767" lon="11.3064033"><ele>220.33333333333334</ele><time>2026-04-18T08:59:49.769Z</time></trkpt><trkpt lat="43.0915133" lon="11.3061967"><ele>216.66666666666669</ele><time>2026-04-18T08:59:50.766Z</time></trkpt><trkpt lat="43.09146" lon="11.3060033"><ele>213.0</ele><time>2026-04-18T08:59:51.769Z</time></trkpt><trkpt lat="43.0914117" lon="11.3058167"><ele>213.0</ele><time>2026-04-18T08:59:52.77Z</time></trkpt><trkpt lat="43.0913533" lon="11.3056333"><ele>213.0</ele><time>2026-04-18T08:59:53.769Z</time></trkpt><trkpt lat="43.0912667" lon="11.3054483"><ele>213.0</ele><time>2026-04-18T08:59:54.768Z</time></trkpt><trkpt lat="43.09116" lon="11.3052717"><ele>213.0</ele><time>2026-04-18T08:59:55.756Z</time></trkpt><trkpt lat="43.091045" lon="11.3051017"><ele>213.0</ele><time>2026-04-18T08:59:56.765Z</time></trkpt><trkpt lat="43.0909417" lon="11.304935"><ele>213.0</ele><time>2026-04-18T08:59:57.769Z</time></trkpt><trkpt lat="43.0908567" lon="11.304775"><ele>213.0</ele><time>2026-04-18T08:59:58.765Z</time></trkpt><trkpt lat="43.0907833" lon="11.30462"><ele>213.0</ele><time>2026-04-18T08:59:59.77Z</time></trkpt><trkpt lat="43.0907033" lon="11.3045033"><ele>213.0</ele><time>2026-04-18T09:00:00.768Z</time></trkpt><trkpt lat="43.090605" lon="11.30445"><ele>213.0</ele><time>2026-04-18T09:00:01.767Z</time></trkpt><trkpt lat="43.0904767" lon="11.3044517"><ele>209.33333333333331</ele><time>2026-04-18T09:00:02.765Z</time></trkpt><trkpt lat="43.0903233" lon="11.3045"><ele>205.66666666666666</ele><time>2026-04-18T09:00:03.769Z</time></trkpt><trkpt lat="43.0901783" lon="11.30456"><ele>202.0</ele><time>2026-04-18T09:00:04.765Z</time></trkpt><trkpt lat="43.0900333" lon="11.3046033"><ele>198.0</ele><time>2026-04-18T09:00:05.766Z</time></trkpt><trkpt lat="43.0898817" lon="11.3046067"><ele>194.0</ele><time>2026-04-18T09:00:06.768Z</time></trkpt><trkpt lat="43.0897233" lon="11.3045933"><ele>190.0</ele><time>2026-04-18T09:00:07.769Z</time></trkpt><trkpt lat="43.0895583" lon="11.3045867"><ele>190.0</ele><time>2026-04-18T09:00:08.766Z</time></trkpt><trkpt lat="43.0893933" lon="11.304595"><ele>190.0</ele><time>2026-04-18T09:00:09.769Z</time></trkpt><trkpt lat="43.08921" lon="11.3046317"><ele>190.0</ele><time>2026-04-18T09:00:10.768Z</time></trkpt><trkpt lat="43.0890117" lon="11.30468"><ele>187.33333333333334</ele><time>2026-04-18T09:00:11.77Z</time></trkpt><trkpt lat="43.08881" lon="11.3047317"><ele>184.66666666666666</ele><time>2026-04-18T09:00:12.77Z</time></trkpt><trkpt lat="43.0886183" lon="11.3047767"><ele>182.0</ele><time>2026-04-18T09:00:13.77Z</time></trkpt><trkpt lat="43.08844" lon="11.3048267"><ele>182.0</ele><time>2026-04-18T09:00:14.765Z</time></trkpt><trkpt lat="43.0882717" lon="11.3048667"><ele>182.0</ele><time>2026-04-18T09:00:15.766Z</time></trkpt><trkpt lat="43.0881067" lon="11.3048967"><ele>182.0</ele><time>2026-04-18T09:00:16.769Z</time></trkpt><trkpt lat="43.0879467" lon="11.3049283"><ele>176.66666666666666</ele><time>2026-04-18T09:00:17.77Z</time></trkpt><trkpt lat="43.087785" lon="11.3049533"><ele>171.33333333333334</ele><time>2026-04-18T09:00:18.767Z</time></trkpt><trkpt lat="43.08763" lon="11.3049867"><ele>166.0</ele><time>2026-04-18T09:00:19.768Z</time></trkpt><trkpt lat="43.08748" lon="11.3050233"><ele>163.5</ele><time>2026-04-18T09:00:20.768Z</time></trkpt><trkpt lat="43.0873367" lon="11.30507"><ele>161.0</ele><time>2026-04-18T09:00:21.767Z</time></trkpt><trkpt lat="43.0871983" lon="11.30514"><ele>158.5</ele><time>2026-04-18T09:00:22.767Z</time></trkpt><trkpt lat="43.087075" lon="11.3052367"><ele>156.0</ele><time>2026-04-18T09:00:23.768Z</time></trkpt><trkpt lat="43.0869683" lon="11.30536"><ele>156.0</ele><time>2026-04-18T09:00:24.769Z</time></trkpt><trkpt lat="43.0868583" lon="11.3054733"><ele>156.0</ele><time>2026-04-18T09:00:25.764Z</time></trkpt><trkpt lat="43.086745" lon="11.3055567"><ele>156.0</ele><time>2026-04-18T09:00:26.77Z</time></trkpt><trkpt lat="43.0866167" lon="11.3055967"><ele>156.0</ele><time>2026-04-18T09:00:27.769Z</time></trkpt><trkpt lat="43.0864733" lon="11.3055933"><ele>154.66666666666666</ele><time>2026-04-18T09:00:28.764Z</time></trkpt><trkpt lat="43.0863167" lon="11.3055483"><ele>153.33333333333331</ele><time>2026-04-18T09:00:29.77Z</time></trkpt><trkpt lat="43.086165" lon="11.3054633"><ele>152.0</ele><time>2026-04-18T09:00:30.771Z</time></trkpt><trkpt lat="43.0860267" lon="11.3053183"><ele>152.0</ele><time>2026-04-18T09:00:31.767Z</time></trkpt><trkpt lat="43.0858983" lon="11.3051483"><ele>152.0</ele><time>2026-04-18T09:00:32.771Z</time></trkpt><trkpt lat="43.0857667" lon="11.304995"><ele>152.0</ele><time>2026-04-18T09:00:33.768Z</time></trkpt><trkpt lat="43.0856317" lon="11.3048667"><ele>151.66666666666666</ele><time>2026-04-18T09:00:34.764Z</time></trkpt><trkpt lat="43.0854917" lon="11.3047683"><ele>151.33333333333334</ele><time>2026-04-18T09:00:35.767Z</time></trkpt><trkpt lat="43.0853467" lon="11.304645"><ele>151.0</ele><time>2026-04-18T09:00:36.77Z</time></trkpt><trkpt lat="43.0852033" lon="11.3045567"><ele>151.0</ele><time>2026-04-18T09:00:37.764Z</time></trkpt><trkpt lat="43.08506" lon="11.3044567"><ele>151.0</ele><time>2026-04-18T09:00:38.767Z</time></trkpt><trkpt lat="43.0849233" lon="11.3043883"><ele>151.0</ele><time>2026-04-18T09:00:39.769Z</time></trkpt><trkpt lat="43.0848" lon="11.30431"><ele>151.0</ele><time>2026-04-18T09:00:40.767Z</time></trkpt><trkpt lat="43.0846817" lon="11.3042183"><ele>151.66666666666669</ele><time>2026-04-18T09:00:41.768Z</time></trkpt><trkpt lat="43.0845567" lon="11.3041167"><ele>152.33333333333334</ele><time>2026-04-18T09:00:42.77Z</time></trkpt><trkpt lat="43.08442" lon="11.30399"><ele>153.0</ele><time>2026-04-18T09:00:43.769Z</time></trkpt><trkpt lat="43.084285" lon="11.3038667"><ele>153.33333333333334</ele><time>2026-04-18T09:00:44.768Z</time></trkpt><trkpt lat="43.08414" lon="11.3037217"><ele>153.66666666666669</ele><time>2026-04-18T09:00:45.768Z</time></trkpt><trkpt lat="43.0839883" lon="11.3035883"><ele>154.0</ele><time>2026-04-18T09:00:46.762Z</time></trkpt><trkpt lat="43.08384" lon="11.30347"><ele>154.0</ele><time>2026-04-18T09:00:47.769Z</time></trkpt><trkpt lat="43.0836917" lon="11.3033683"><ele>154.0</ele><time>2026-04-18T09:00:48.77Z</time></trkpt><trkpt lat="43.08353" lon="11.3032783"><ele>154.0</ele><time>2026-04-18T09:00:49.764Z</time></trkpt><trkpt lat="43.08338" lon="11.3031833"><ele>153.66666666666669</ele><time>2026-04-18T09:00:50.766Z</time></trkpt><trkpt lat="43.0832417" lon="11.3030933"><ele>153.33333333333334</ele><time>2026-04-18T09:00:51.768Z</time></trkpt><trkpt lat="43.0831083" lon="11.3029817"><ele>153.0</ele><time>2026-04-18T09:00:52.767Z</time></trkpt><trkpt lat="43.0829783" lon="11.3028783"><ele>153.0</ele><time>2026-04-18T09:00:53.769Z</time></trkpt><trkpt lat="43.0828617" lon="11.3027717"><ele>153.0</ele><time>2026-04-18T09:00:54.769Z</time></trkpt><trkpt lat="43.0827433" lon="11.3026533"><ele>153.0</ele><time>2026-04-18T09:00:55.769Z</time></trkpt><trkpt lat="43.08264" lon="11.30255"><ele>153.0</ele><time>2026-04-18T09:00:56.771Z</time></trkpt><trkpt lat="43.082535" lon="11.3024267"><ele>153.66666666666666</ele><time>2026-04-18T09:00:57.771Z</time></trkpt><trkpt lat="43.0823933" lon="11.302235"><ele>154.33333333333331</ele><time>2026-04-18T09:00:58.769Z</time></trkpt><trkpt lat="43.082285" lon="11.3020967"><ele>155.0</ele><time>2026-04-18T09:00:59.77Z</time></trkpt><trkpt lat="43.0821767" lon="11.3019683"><ele>155.0</ele><time>2026-04-18T09:01:00.771Z</time></trkpt><trkpt lat="43.0820617" lon="11.30184"><ele>155.0</ele><time>2026-04-18T09:01:01.772Z</time></trkpt><trkpt lat="43.081955" lon="11.3017033"><ele>155.0</ele><time>2026-04-18T09:01:02.769Z</time></trkpt><trkpt lat="43.081855" lon="11.301555"><ele>155.0</ele><time>2026-04-18T09:01:03.77Z</time></trkpt><trkpt lat="43.08176" lon="11.3014183"><ele>155.4</ele><time>2026-04-18T09:01:04.768Z</time></trkpt><trkpt lat="43.0816717" lon="11.30128"><ele>155.8</ele><time>2026-04-18T09:01:05.771Z</time></trkpt><trkpt lat="43.081595" lon="11.301155"><ele>156.2</ele><time>2026-04-18T09:01:06.771Z</time></trkpt><trkpt lat="43.0815333" lon="11.3010433"><ele>156.6</ele><time>2026-04-18T09:01:07.771Z</time></trkpt><trkpt lat="43.0814817" lon="11.300965"><ele>157.0</ele><time>2026-04-18T09:01:08.768Z</time></trkpt><trkpt lat="43.08143" lon="11.30087"><ele>157.0</ele><time>2026-04-18T09:01:09.77Z</time></trkpt><trkpt lat="43.0813883" lon="11.3007983"><ele>157.0</ele><time>2026-04-18T09:01:10.768Z</time></trkpt><trkpt lat="43.0813283" lon="11.3006433"><ele>157.0</ele><time>2026-04-18T09:01:12.764Z</time></trkpt><trkpt lat="43.081315" lon="11.3005517"><ele>157.0</ele><time>2026-04-18T09:01:13.771Z</time></trkpt><trkpt lat="43.0813017" lon="11.3004617"><ele>157.0</ele><time>2026-04-18T09:01:14.77Z</time></trkpt><trkpt lat="43.081235" lon="11.3003133"><ele>159.0</ele><time>2026-04-18T09:01:16.768Z</time></trkpt><trkpt lat="43.0811767" lon="11.300245"><ele>161.0</ele><time>2026-04-18T09:01:17.771Z</time></trkpt><trkpt lat="43.0811117" lon="11.3001983"><ele>163.0</ele><time>2026-04-18T09:01:18.77Z</time></trkpt><trkpt lat="43.0810483" lon="11.3001533"><ele>165.0</ele><time>2026-04-18T09:01:19.769Z</time></trkpt><trkpt lat="43.0809633" lon="11.3000733"><ele>167.0</ele><time>2026-04-18T09:01:20.769Z</time></trkpt><trkpt lat="43.0808933" lon="11.3000267"><ele>169.0</ele><time>2026-04-18T09:01:21.769Z</time></trkpt><trkpt lat="43.08083" lon="11.29999"><ele>167.33333333333334</ele><time>2026-04-18T09:01:22.766Z</time></trkpt><trkpt lat="43.08076" lon="11.2999433"><ele>165.66666666666669</ele><time>2026-04-18T09:01:23.769Z</time></trkpt><trkpt lat="43.08068" lon="11.2999017"><ele>164.0</ele><time>2026-04-18T09:01:24.772Z</time></trkpt><trkpt lat="43.0806" lon="11.2998567"><ele>162.33333333333334</ele><time>2026-04-18T09:01:25.775Z</time></trkpt><trkpt lat="43.0805117" lon="11.2998233"><ele>160.66666666666666</ele><time>2026-04-18T09:01:26.772Z</time></trkpt><trkpt lat="43.0804317" lon="11.2997833"><ele>159.0</ele><time>2026-04-18T09:01:27.767Z</time></trkpt><trkpt lat="43.08035" lon="11.2997583"><ele>159.42857142857142</ele><time>2026-04-18T09:01:28.766Z</time></trkpt><trkpt lat="43.0802667" lon="11.2997433"><ele>159.85714285714286</ele><time>2026-04-18T09:01:29.767Z</time></trkpt><trkpt lat="43.0801933" lon="11.2997283"><ele>160.28571428571428</ele><time>2026-04-18T09:01:30.765Z</time></trkpt><trkpt lat="43.08012" lon="11.29972"><ele>160.71428571428572</ele><time>2026-04-18T09:01:31.768Z</time></trkpt><trkpt lat="43.080055" lon="11.2997083"><ele>161.14285714285714</ele><time>2026-04-18T09:01:32.766Z</time></trkpt><trkpt lat="43.079985" lon="11.2996917"><ele>161.57142857142858</ele><time>2026-04-18T09:01:33.768Z</time></trkpt><trkpt lat="43.0799217" lon="11.299685"><ele>162.0</ele><time>2026-04-18T09:01:34.768Z</time></trkpt><trkpt lat="43.079855" lon="11.299675"><ele>162.0</ele><time>2026-04-18T09:01:35.768Z</time></trkpt><trkpt lat="43.0797783" lon="11.2996683"><ele>162.0</ele><time>2026-04-18T09:01:36.77Z</time></trkpt><trkpt lat="43.079655" lon="11.29966"><ele>162.0</ele><time>2026-04-18T09:01:38.767Z</time></trkpt><trkpt lat="43.0795433" lon="11.2996583"><ele>162.0</ele><time>2026-04-18T09:01:40.768Z</time></trkpt><trkpt lat="43.0794467" lon="11.2997017"><ele>162.0</ele><time>2026-04-18T09:01:42.768Z</time></trkpt><trkpt lat="43.0793333" lon="11.2997817"><ele>162.6</ele><time>2026-04-18T09:01:44.767Z</time></trkpt><trkpt lat="43.079275" lon="11.2998317"><ele>163.2</ele><time>2026-04-18T09:01:45.772Z</time></trkpt><trkpt lat="43.0792083" lon="11.2998767"><ele>163.8</ele><time>2026-04-18T09:01:46.77Z</time></trkpt><trkpt lat="43.0791233" lon="11.2999917"><ele>164.4</ele><time>2026-04-18T09:01:48.771Z</time></trkpt><trkpt lat="43.079095" lon="11.300075"><ele>165.0</ele><time>2026-04-18T09:01:49.77Z</time></trkpt><trkpt lat="43.0791033" lon="11.3002417"><ele>165.83333333333334</ele><time>2026-04-18T09:01:51.769Z</time></trkpt><trkpt lat="43.0791217" lon="11.3003317"><ele>166.66666666666666</ele><time>2026-04-18T09:01:52.769Z</time></trkpt><trkpt lat="43.0791517" lon="11.3004183"><ele>167.5</ele><time>2026-04-18T09:01:53.771Z</time></trkpt><trkpt lat="43.079195" lon="11.3005117"><ele>168.33333333333331</ele><time>2026-04-18T09:01:54.774Z</time></trkpt><trkpt lat="43.0792467" lon="11.3006033"><ele>169.16666666666666</ele><time>2026-04-18T09:01:55.769Z</time></trkpt><trkpt lat="43.0792983" lon="11.30069"><ele>170.0</ele><time>2026-04-18T09:01:56.769Z</time></trkpt><trkpt lat="43.079355" lon="11.3007883"><ele>170.0</ele><time>2026-04-18T09:01:57.769Z</time></trkpt><trkpt lat="43.0794133" lon="11.3008967"><ele>170.0</ele><time>2026-04-18T09:01:58.768Z</time></trkpt><trkpt lat="43.0794617" lon="11.3010067"><ele>170.0</ele><time>2026-04-18T09:01:59.77Z</time></trkpt><trkpt lat="43.0795033" lon="11.301105"><ele>170.0</ele><time>2026-04-18T09:02:00.771Z</time></trkpt><trkpt lat="43.0795367" lon="11.3011933"><ele>170.0</ele><time>2026-04-18T09:02:01.768Z</time></trkpt><trkpt lat="43.079565" lon="11.3012867"><ele>170.0</ele><time>2026-04-18T09:02:02.766Z</time></trkpt><trkpt lat="43.0795967" lon="11.30138"><ele>172.4</ele><time>2026-04-18T09:02:03.769Z</time></trkpt><trkpt lat="43.0796067" lon="11.3014767"><ele>174.8</ele><time>2026-04-18T09:02:04.768Z</time></trkpt><trkpt lat="43.0795917" lon="11.3015867"><ele>177.2</ele><time>2026-04-18T09:02:05.771Z</time></trkpt><trkpt lat="43.07956" lon="11.3017067"><ele>179.6</ele><time>2026-04-18T09:02:06.771Z</time></trkpt><trkpt lat="43.0795083" lon="11.3018383"><ele>182.0</ele><time>2026-04-18T09:02:07.77Z</time></trkpt><trkpt lat="43.0794617" lon="11.3019717"><ele>182.0</ele><time>2026-04-18T09:02:08.769Z</time></trkpt><trkpt lat="43.079395" lon="11.3021233"><ele>182.0</ele><time>2026-04-18T09:02:09.77Z</time></trkpt><trkpt lat="43.0793083" lon="11.302295"><ele>182.0</ele><time>2026-04-18T09:02:10.764Z</time></trkpt><trkpt lat="43.079225" lon="11.30247"><ele>182.0</ele><time>2026-04-18T09:02:11.77Z</time></trkpt><trkpt lat="43.0791517" lon="11.3026317"><ele>187.0</ele><time>2026-04-18T09:02:12.771Z</time></trkpt><trkpt lat="43.07908" lon="11.3028083"><ele>192.0</ele><time>2026-04-18T09:02:13.765Z</time></trkpt><trkpt lat="43.079015" lon="11.3029933"><ele>197.0</ele><time>2026-04-18T09:02:14.767Z</time></trkpt><trkpt lat="43.0789567" lon="11.3031933"><ele>199.66666666666669</ele><time>2026-04-18T09:02:15.77Z</time></trkpt><trkpt lat="43.0789017" lon="11.3034"><ele>202.33333333333331</ele><time>2026-04-18T09:02:16.761Z</time></trkpt><trkpt lat="43.0788483" lon="11.30359"><ele>205.0</ele><time>2026-04-18T09:02:17.758Z</time></trkpt><trkpt lat="43.0788017" lon="11.3037883"><ele>207.5</ele><time>2026-04-18T09:02:18.769Z</time></trkpt><trkpt lat="43.07875" lon="11.3039767"><ele>210.0</ele><time>2026-04-18T09:02:19.767Z</time></trkpt><trkpt lat="43.0786917" lon="11.30416"><ele>212.5</ele><time>2026-04-18T09:02:20.767Z</time></trkpt><trkpt lat="43.0786417" lon="11.3043433"><ele>215.0</ele><time>2026-04-18T09:02:21.768Z</time></trkpt><trkpt lat="43.0785933" lon="11.3045267"><ele>215.0</ele><time>2026-04-18T09:02:22.767Z</time></trkpt><trkpt lat="43.078535" lon="11.304705"><ele>215.0</ele><time>2026-04-18T09:02:23.77Z</time></trkpt><trkpt lat="43.078515" lon="11.30486"><ele>215.0</ele><time>2026-04-18T09:02:24.771Z</time></trkpt><trkpt lat="43.0785367" lon="11.3050067"><ele>215.0</ele><time>2026-04-18T09:02:25.768Z</time></trkpt><trkpt lat="43.07855" lon="11.3051833"><ele>217.0</ele><time>2026-04-18T09:02:26.771Z</time></trkpt><trkpt lat="43.0785867" lon="11.305395"><ele>219.0</ele><time>2026-04-18T09:02:27.771Z</time></trkpt><trkpt lat="43.0786167" lon="11.3056267"><ele>221.0</ele><time>2026-04-18T09:02:28.77Z</time></trkpt><trkpt lat="43.0786483" lon="11.30586"><ele>222.33333333333334</ele><time>2026-04-18T09:02:29.769Z</time></trkpt><trkpt lat="43.078685" lon="11.30609"><ele>223.66666666666669</ele><time>2026-04-18T09:02:30.774Z</time></trkpt><trkpt lat="43.0787283" lon="11.3063067"><ele>225.0</ele><time>2026-04-18T09:02:31.769Z</time></trkpt><trkpt lat="43.07877" lon="11.3065383"><ele>226.66666666666669</ele><time>2026-04-18T09:02:32.766Z</time></trkpt><trkpt lat="43.0788133" lon="11.3067833"><ele>228.33333333333334</ele><time>2026-04-18T09:02:33.769Z</time></trkpt><trkpt lat="43.0788583" lon="11.3070267"><ele>230.0</ele><time>2026-04-18T09:02:34.769Z</time></trkpt><trkpt lat="43.0788817" lon="11.30726"><ele>231.0</ele><time>2026-04-18T09:02:35.77Z</time></trkpt><trkpt lat="43.0789067" lon="11.30746"><ele>232.0</ele><time>2026-04-18T09:02:36.774Z</time></trkpt><trkpt lat="43.078915" lon="11.3076317"><ele>233.0</ele><time>2026-04-18T09:02:37.77Z</time></trkpt><trkpt lat="43.0789317" lon="11.3077883"><ele>234.0</ele><time>2026-04-18T09:02:38.768Z</time></trkpt><trkpt lat="43.078945" lon="11.3079333"><ele>235.39999999999998</ele><time>2026-04-18T09:02:39.769Z</time></trkpt><trkpt lat="43.0789567" lon="11.3080767"><ele>236.79999999999998</ele><time>2026-04-18T09:02:40.764Z</time></trkpt><trkpt lat="43.0789483" lon="11.3082317"><ele>238.20000000000002</ele><time>2026-04-18T09:02:41.769Z</time></trkpt><trkpt lat="43.0789383" lon="11.3083733"><ele>239.60000000000002</ele><time>2026-04-18T09:02:42.772Z</time></trkpt><trkpt lat="43.0789167" lon="11.3085117"><ele>241.0</ele><time>2026-04-18T09:02:43.772Z</time></trkpt><trkpt lat="43.0788883" lon="11.30865"><ele>241.0</ele><time>2026-04-18T09:02:44.765Z</time></trkpt><trkpt lat="43.078835" lon="11.308765"><ele>241.0</ele><time>2026-04-18T09:02:45.771Z</time></trkpt><trkpt lat="43.07875" lon="11.30893"><ele>241.0</ele><time>2026-04-18T09:02:46.77Z</time></trkpt><trkpt lat="43.0786433" lon="11.3090633"><ele>241.0</ele><time>2026-04-18T09:02:47.769Z</time></trkpt><trkpt lat="43.0785067" lon="11.3091433"><ele>243.25</ele><time>2026-04-18T09:02:48.772Z</time></trkpt><trkpt lat="43.0783833" lon="11.3092017"><ele>245.5</ele><time>2026-04-18T09:02:49.767Z</time></trkpt><trkpt lat="43.0782417" lon="11.309245"><ele>247.75</ele><time>2026-04-18T09:02:50.768Z</time></trkpt><trkpt lat="43.0780917" lon="11.3092733"><ele>250.0</ele><time>2026-04-18T09:02:51.769Z</time></trkpt><trkpt lat="43.0779433" lon="11.3093"><ele>253.0</ele><time>2026-04-18T09:02:52.768Z</time></trkpt><trkpt lat="43.0777883" lon="11.3093383"><ele>256.0</ele><time>2026-04-18T09:02:53.769Z</time></trkpt><trkpt lat="43.0776417" lon="11.3093833"><ele>259.0</ele><time>2026-04-18T09:02:54.771Z</time></trkpt><trkpt lat="43.0774967" lon="11.309455"><ele>261.66666666666663</ele><time>2026-04-18T09:02:55.767Z</time></trkpt><trkpt lat="43.0773667" lon="11.30955"><ele>264.3333333333333</ele><time>2026-04-18T09:02:56.767Z</time></trkpt><trkpt lat="43.0772333" lon="11.3096533"><ele>267.0</ele><time>2026-04-18T09:02:57.771Z</time></trkpt><trkpt lat="43.0770917" lon="11.3097717"><ele>268.0</ele><time>2026-04-18T09:02:58.77Z</time></trkpt><trkpt lat="43.0769583" lon="11.3098783"><ele>269.0</ele><time>2026-04-18T09:02:59.771Z</time></trkpt><trkpt lat="43.0768283" lon="11.30997"><ele>270.0</ele><time>2026-04-18T09:03:00.774Z</time></trkpt><trkpt lat="43.076705" lon="11.31004"><ele>271.0</ele><time>2026-04-18T09:03:01.77Z</time></trkpt><trkpt lat="43.0765767" lon="11.310075"><ele>274.75</ele><time>2026-04-18T09:03:02.77Z</time></trkpt><trkpt lat="43.0764433" lon="11.3100683"><ele>278.5</ele><time>2026-04-18T09:03:03.772Z</time></trkpt><trkpt lat="43.07631" lon="11.3100333"><ele>282.25</ele><time>2026-04-18T09:03:04.769Z</time></trkpt><trkpt lat="43.07618" lon="11.30998"><ele>286.0</ele><time>2026-04-18T09:03:05.771Z</time></trkpt><trkpt lat="43.0760633" lon="11.309925"><ele>286.0</ele><time>2026-04-18T09:03:06.772Z</time></trkpt><trkpt lat="43.0759667" lon="11.309885"><ele>286.0</ele><time>2026-04-18T09:03:07.771Z</time></trkpt><trkpt lat="43.0758733" lon="11.3098783"><ele>286.0</ele><time>2026-04-18T09:03:08.769Z</time></trkpt><trkpt lat="43.0757783" lon="11.3098967"><ele>286.0</ele><time>2026-04-18T09:03:09.77Z</time></trkpt><trkpt lat="43.0756833" lon="11.3099567"><ele>286.0</ele><time>2026-04-18T09:03:10.771Z</time></trkpt><trkpt lat="43.0756083" lon="11.31009"><ele>287.66666666666663</ele><time>2026-04-18T09:03:11.77Z</time></trkpt><trkpt lat="43.0755133" lon="11.3102667"><ele>289.3333333333333</ele><time>2026-04-18T09:03:12.772Z</time></trkpt><trkpt lat="43.0754117" lon="11.3104667"><ele>291.0</ele><time>2026-04-18T09:03:13.77Z</time></trkpt><trkpt lat="43.0753167" lon="11.3106433"><ele>292.0</ele><time>2026-04-18T09:03:14.768Z</time></trkpt><trkpt lat="43.0752217" lon="11.3107867"><ele>293.0</ele><time>2026-04-18T09:03:15.769Z</time></trkpt><trkpt lat="43.0751383" lon="11.3109033"><ele>294.0</ele><time>2026-04-18T09:03:16.766Z</time></trkpt><trkpt lat="43.0750283" lon="11.3109717"><ele>295.0</ele><time>2026-04-18T09:03:17.771Z</time></trkpt><trkpt lat="43.0748933" lon="11.3110417"><ele>296.25</ele><time>2026-04-18T09:03:18.769Z</time></trkpt><trkpt lat="43.0747717" lon="11.3111183"><ele>297.5</ele><time>2026-04-18T09:03:19.77Z</time></trkpt><trkpt lat="43.0746283" lon="11.3111767"><ele>298.75</ele><time>2026-04-18T09:03:20.769Z</time></trkpt><trkpt lat="43.07449" lon="11.3112433"><ele>300.0</ele><time>2026-04-18T09:03:21.768Z</time></trkpt><trkpt lat="43.07435" lon="11.3113133"><ele>300.0</ele><time>2026-04-18T09:03:22.77Z</time></trkpt><trkpt lat="43.0742083" lon="11.3113833"><ele>300.0</ele><time>2026-04-18T09:03:23.77Z</time></trkpt><trkpt lat="43.074055" lon="11.3114617"><ele>300.0</ele><time>2026-04-18T09:03:24.774Z</time></trkpt><trkpt lat="43.0739133" lon="11.3115283"><ele>305.0</ele><time>2026-04-18T09:03:25.771Z</time></trkpt><trkpt lat="43.0737767" lon="11.3115833"><ele>310.0</ele><time>2026-04-18T09:03:26.769Z</time></trkpt><trkpt lat="43.073645" lon="11.311595"><ele>315.0</ele><time>2026-04-18T09:03:27.771Z</time></trkpt><trkpt lat="43.07352" lon="11.311565"><ele>320.0</ele><time>2026-04-18T09:03:28.767Z</time></trkpt><trkpt lat="43.0733933" lon="11.3114967"><ele>323.0</ele><time>2026-04-18T09:03:29.771Z</time></trkpt><trkpt lat="43.073265" lon="11.3113967"><ele>326.0</ele><time>2026-04-18T09:03:30.774Z</time></trkpt><trkpt lat="43.0731217" lon="11.311275"><ele>329.0</ele><time>2026-04-18T09:03:31.768Z</time></trkpt><trkpt lat="43.0729667" lon="11.3111433"><ele>329.0</ele><time>2026-04-18T09:03:32.768Z</time></trkpt><trkpt lat="43.072775" lon="11.3110083"><ele>329.0</ele><time>2026-04-18T09:03:33.77Z</time></trkpt><trkpt lat="43.07257" lon="11.3108683"><ele>329.0</ele><time>2026-04-18T09:03:34.768Z</time></trkpt><trkpt lat="43.07239" lon="11.3107383"><ele>332.33333333333337</ele><time>2026-04-18T09:03:35.769Z</time></trkpt><trkpt lat="43.0722417" lon="11.31063"><ele>335.6666666666667</ele><time>2026-04-18T09:03:36.772Z</time></trkpt><trkpt lat="43.0721033" lon="11.3105283"><ele>339.0</ele><time>2026-04-18T09:03:37.769Z</time></trkpt><trkpt lat="43.0719683" lon="11.3104233"><ele>339.0</ele><time>2026-04-18T09:03:38.769Z</time></trkpt><trkpt lat="43.0718483" lon="11.3103083"><ele>339.0</ele><time>2026-04-18T09:03:39.769Z</time></trkpt><trkpt lat="43.0717467" lon="11.3101617"><ele>339.0</ele><time>2026-04-18T09:03:40.769Z</time></trkpt><trkpt lat="43.071665" lon="11.3099817"><ele>339.0</ele><time>2026-04-18T09:03:41.765Z</time></trkpt><trkpt lat="43.0715867" lon="11.3098033"><ele>339.75</ele><time>2026-04-18T09:03:42.769Z</time></trkpt><trkpt lat="43.0714967" lon="11.3096333"><ele>340.5</ele><time>2026-04-18T09:03:43.767Z</time></trkpt><trkpt lat="43.071395" lon="11.3094983"><ele>341.25</ele><time>2026-04-18T09:03:44.769Z</time></trkpt><trkpt lat="43.0712833" lon="11.3094067"><ele>342.0</ele><time>2026-04-18T09:03:45.768Z</time></trkpt><trkpt lat="43.0711617" lon="11.309365"><ele>342.0</ele><time>2026-04-18T09:03:46.767Z</time></trkpt><trkpt lat="43.071025" lon="11.3093533"><ele>342.0</ele><time>2026-04-18T09:03:47.768Z</time></trkpt><trkpt lat="43.0708867" lon="11.309385"><ele>342.0</ele><time>2026-04-18T09:03:48.771Z</time></trkpt><trkpt lat="43.0707433" lon="11.30943"><ele>342.0</ele><time>2026-04-18T09:03:49.768Z</time></trkpt><trkpt lat="43.0705967" lon="11.3094883"><ele>341.6666666666667</ele><time>2026-04-18T09:03:50.769Z</time></trkpt><trkpt lat="43.0704483" lon="11.3095483"><ele>341.33333333333337</ele><time>2026-04-18T09:03:51.768Z</time></trkpt><trkpt lat="43.0703033" lon="11.309605"><ele>341.0</ele><time>2026-04-18T09:03:52.769Z</time></trkpt><trkpt lat="43.0701517" lon="11.3096217"><ele>341.0</ele><time>2026-04-18T09:03:53.768Z</time></trkpt><trkpt lat="43.0699933" lon="11.3096167"><ele>341.0</ele><time>2026-04-18T09:03:54.771Z</time></trkpt><trkpt lat="43.0698417" lon="11.3096"><ele>341.0</ele><time>2026-04-18T09:03:55.77Z</time></trkpt><trkpt lat="43.0696867" lon="11.3095767"><ele>341.33333333333337</ele><time>2026-04-18T09:03:56.766Z</time></trkpt><trkpt lat="43.069535" lon="11.3095683"><ele>341.6666666666667</ele><time>2026-04-18T09:03:57.768Z</time></trkpt><trkpt lat="43.0693867" lon="11.3095717"><ele>342.0</ele><time>2026-04-18T09:03:58.769Z</time></trkpt><trkpt lat="43.0692317" lon="11.3095917"><ele>343.6666666666667</ele><time>2026-04-18T09:03:59.769Z</time></trkpt><trkpt lat="43.06908" lon="11.3096133"><ele>345.33333333333337</ele><time>2026-04-18T09:04:00.771Z</time></trkpt><trkpt lat="43.0689233" lon="11.309635"><ele>347.0</ele><time>2026-04-18T09:04:01.769Z</time></trkpt><trkpt lat="43.0687683" lon="11.30965"><ele>347.0</ele><time>2026-04-18T09:04:02.767Z</time></trkpt><trkpt lat="43.0686117" lon="11.3096567"><ele>347.0</ele><time>2026-04-18T09:04:03.768Z</time></trkpt><trkpt lat="43.0684633" lon="11.3096733"><ele>347.0</ele><time>2026-04-18T09:04:04.767Z</time></trkpt><trkpt lat="43.068325" lon="11.3096833"><ele>347.0</ele><time>2026-04-18T09:04:05.769Z</time></trkpt><trkpt lat="43.0681967" lon="11.309685"><ele>351.25</ele><time>2026-04-18T09:04:06.769Z</time></trkpt><trkpt lat="43.06808" lon="11.3096733"><ele>355.5</ele><time>2026-04-18T09:04:07.77Z</time></trkpt><trkpt lat="43.067955" lon="11.3095933"><ele>359.75</ele><time>2026-04-18T09:04:08.764Z</time></trkpt><trkpt lat="43.0678483" lon="11.309465"><ele>364.0</ele><time>2026-04-18T09:04:09.77Z</time></trkpt><trkpt lat="43.0677633" lon="11.3092767"><ele>364.0</ele><time>2026-04-18T09:04:10.769Z</time></trkpt><trkpt lat="43.067675" lon="11.3090917"><ele>364.0</ele><time>2026-04-18T09:04:11.771Z</time></trkpt><trkpt lat="43.06758" lon="11.3089167"><ele>364.0</ele><time>2026-04-18T09:04:12.772Z</time></trkpt><trkpt lat="43.0674883" lon="11.308755"><ele>365.5</ele><time>2026-04-18T09:04:13.771Z</time></trkpt><trkpt lat="43.06738" lon="11.30861"><ele>367.0</ele><time>2026-04-18T09:04:14.769Z</time></trkpt><trkpt lat="43.0672683" lon="11.30848"><ele>368.5</ele><time>2026-04-18T09:04:15.769Z</time></trkpt><trkpt lat="43.06715" lon="11.3083767"><ele>370.0</ele><time>2026-04-18T09:04:16.768Z</time></trkpt><trkpt lat="43.0670283" lon="11.3083283"><ele>370.0</ele><time>2026-04-18T09:04:17.77Z</time></trkpt><trkpt lat="43.066895" lon="11.308305"><ele>370.0</ele><time>2026-04-18T09:04:18.768Z</time></trkpt><trkpt lat="43.0667633" lon="11.30832"><ele>370.0</ele><time>2026-04-18T09:04:19.769Z</time></trkpt><trkpt lat="43.0666333" lon="11.3083533"><ele>370.0</ele><time>2026-04-18T09:04:20.77Z</time></trkpt><trkpt lat="43.066505" lon="11.3083633"><ele>372.4</ele><time>2026-04-18T09:04:21.771Z</time></trkpt><trkpt lat="43.0663967" lon="11.30834"><ele>374.8</ele><time>2026-04-18T09:04:22.769Z</time></trkpt><trkpt lat="43.0663133" lon="11.3082967"><ele>377.20000000000005</ele><time>2026-04-18T09:04:23.77Z</time></trkpt><trkpt lat="43.0662333" lon="11.3082533"><ele>379.6</ele><time>2026-04-18T09:04:24.772Z</time></trkpt><trkpt lat="43.0661517" lon="11.3082233"><ele>382.0</ele><time>2026-04-18T09:04:25.769Z</time></trkpt><trkpt lat="43.0660617" lon="11.308185"><ele>382.0</ele><time>2026-04-18T09:04:26.771Z</time></trkpt><trkpt lat="43.0659667" lon="11.3081383"><ele>382.0</ele><time>2026-04-18T09:04:27.77Z</time></trkpt><trkpt lat="43.0658683" lon="11.3080933"><ele>382.0</ele><time>2026-04-18T09:04:28.769Z</time></trkpt><trkpt lat="43.0657583" lon="11.3080417"><ele>382.0</ele><time>2026-04-18T09:04:29.771Z</time></trkpt><trkpt lat="43.0656433" lon="11.30798"><ele>382.0</ele><time>2026-04-18T09:04:30.772Z</time></trkpt><trkpt lat="43.065525" lon="11.3079083"><ele>385.3333333333333</ele><time>2026-04-18T09:04:31.772Z</time></trkpt><trkpt lat="43.0653967" lon="11.3078367"><ele>388.66666666666663</ele><time>2026-04-18T09:04:32.768Z</time></trkpt><trkpt lat="43.0652383" lon="11.3077583"><ele>392.0</ele><time>2026-04-18T09:04:33.77Z</time></trkpt><trkpt lat="43.0650733" lon="11.3076767"><ele>395.0</ele><time>2026-04-18T09:04:34.769Z</time></trkpt><trkpt lat="43.064915" lon="11.3076"><ele>398.0</ele><time>2026-04-18T09:04:35.766Z</time></trkpt><trkpt lat="43.0647767" lon="11.3075317"><ele>401.0</ele><time>2026-04-18T09:04:36.772Z</time></trkpt><trkpt lat="43.0646617" lon="11.3074767"><ele>404.0</ele><time>2026-04-18T09:04:37.768Z</time></trkpt><trkpt lat="43.064555" lon="11.307425"><ele>404.0</ele><time>2026-04-18T09:04:38.769Z</time></trkpt><trkpt lat="43.06446" lon="11.307395"><ele>404.0</ele><time>2026-04-18T09:04:39.769Z</time></trkpt><trkpt lat="43.06437" lon="11.3074067"><ele>404.0</ele><time>2026-04-18T09:04:40.77Z</time></trkpt><trkpt lat="43.064285" lon="11.3074233"><ele>404.0</ele><time>2026-04-18T09:04:41.769Z</time></trkpt><trkpt lat="43.064205" lon="11.30748"><ele>404.0</ele><time>2026-04-18T09:04:42.765Z</time></trkpt><trkpt lat="43.06412" lon="11.3075317"><ele>403.79999999999995</ele><time>2026-04-18T09:04:43.771Z</time></trkpt><trkpt lat="43.06404" lon="11.3075633"><ele>403.59999999999997</ele><time>2026-04-18T09:04:44.768Z</time></trkpt><trkpt lat="43.0639533" lon="11.30758"><ele>403.4</ele><time>2026-04-18T09:04:45.769Z</time></trkpt><trkpt lat="43.0638617" lon="11.30757"><ele>403.2</ele><time>2026-04-18T09:04:46.772Z</time></trkpt><trkpt lat="43.0637683" lon="11.3075217"><ele>403.0</ele><time>2026-04-18T09:04:47.77Z</time></trkpt><trkpt lat="43.06367" lon="11.3074383"><ele>403.0</ele><time>2026-04-18T09:04:48.77Z</time></trkpt><trkpt lat="43.06357" lon="11.3073383"><ele>403.0</ele><time>2026-04-18T09:04:49.772Z</time></trkpt><trkpt lat="43.0634683" lon="11.30724"><ele>403.0</ele><time>2026-04-18T09:04:50.77Z</time></trkpt><trkpt lat="43.0633717" lon="11.30716"><ele>403.0</ele><time>2026-04-18T09:04:51.769Z</time></trkpt><trkpt lat="43.0632783" lon="11.3070633"><ele>403.5</ele><time>2026-04-18T09:04:52.767Z</time></trkpt><trkpt lat="43.0631833" lon="11.3069933"><ele>404.0</ele><time>2026-04-18T09:04:53.765Z</time></trkpt><trkpt lat="43.0630883" lon="11.306925"><ele>404.5</ele><time>2026-04-18T09:04:54.768Z</time></trkpt><trkpt lat="43.06298" lon="11.3068517"><ele>405.0</ele><time>2026-04-18T09:04:55.769Z</time></trkpt><trkpt lat="43.0628683" lon="11.3067683"><ele>405.0</ele><time>2026-04-18T09:04:56.765Z</time></trkpt><trkpt lat="43.0627583" lon="11.3066767"><ele>405.0</ele><time>2026-04-18T09:04:57.763Z</time></trkpt><trkpt lat="43.06265" lon="11.306585"><ele>405.0</ele><time>2026-04-18T09:04:58.766Z</time></trkpt><trkpt lat="43.06254" lon="11.3064767"><ele>405.0</ele><time>2026-04-18T09:04:59.77Z</time></trkpt><trkpt lat="43.0624333" lon="11.3063533"><ele>404.75</ele><time>2026-04-18T09:05:00.769Z</time></trkpt><trkpt lat="43.0623317" lon="11.306215"><ele>404.5</ele><time>2026-04-18T09:05:01.77Z</time></trkpt><trkpt lat="43.062225" lon="11.30608"><ele>404.25</ele><time>2026-04-18T09:05:02.767Z</time></trkpt><trkpt lat="43.06212" lon="11.305935"><ele>404.0</ele><time>2026-04-18T09:05:03.767Z</time></trkpt><trkpt lat="43.062015" lon="11.30578"><ele>404.0</ele><time>2026-04-18T09:05:04.768Z</time></trkpt><trkpt lat="43.061915" lon="11.30561"><ele>404.0</ele><time>2026-04-18T09:05:05.77Z</time></trkpt><trkpt lat="43.061815" lon="11.3054383"><ele>404.0</ele><time>2026-04-18T09:05:06.772Z</time></trkpt><trkpt lat="43.0617133" lon="11.30527"><ele>403.3333333333333</ele><time>2026-04-18T09:05:07.772Z</time></trkpt><trkpt lat="43.0616117" lon="11.3051067"><ele>402.66666666666663</ele><time>2026-04-18T09:05:08.768Z</time></trkpt><trkpt lat="43.0615083" lon="11.30495"><ele>402.0</ele><time>2026-04-18T09:05:09.773Z</time></trkpt><trkpt lat="43.0614" lon="11.3048017"><ele>403.0</ele><time>2026-04-18T09:05:10.768Z</time></trkpt><trkpt lat="43.0612833" lon="11.3046617"><ele>404.0</ele><time>2026-04-18T09:05:11.772Z</time></trkpt><trkpt lat="43.0611583" lon="11.3045317"><ele>405.0</ele><time>2026-04-18T09:05:12.772Z</time></trkpt><trkpt lat="43.0610267" lon="11.3044033"><ele>405.0</ele><time>2026-04-18T09:05:13.771Z</time></trkpt><trkpt lat="43.0609" lon="11.3042767"><ele>405.0</ele><time>2026-04-18T09:05:14.771Z</time></trkpt><trkpt lat="43.06078" lon="11.3041617"><ele>405.0</ele><time>2026-04-18T09:05:15.771Z</time></trkpt><trkpt lat="43.0606717" lon="11.3040483"><ele>405.0</ele><time>2026-04-18T09:05:16.771Z</time></trkpt><trkpt lat="43.0605767" lon="11.3039433"><ele>406.2</ele><time>2026-04-18T09:05:17.771Z</time></trkpt><trkpt lat="43.060485" lon="11.303835"><ele>407.4</ele><time>2026-04-18T09:05:18.773Z</time></trkpt><trkpt lat="43.0604133" lon="11.3037283"><ele>408.6</ele><time>2026-04-18T09:05:19.773Z</time></trkpt><trkpt lat="43.06036" lon="11.3036067"><ele>409.8</ele><time>2026-04-18T09:05:20.767Z</time></trkpt><trkpt lat="43.0603233" lon="11.3034717"><ele>411.0</ele><time>2026-04-18T09:05:21.772Z</time></trkpt><trkpt lat="43.06029" lon="11.303325"><ele>411.0</ele><time>2026-04-18T09:05:22.77Z</time></trkpt><trkpt lat="43.060245" lon="11.303155"><ele>411.0</ele><time>2026-04-18T09:05:23.772Z</time></trkpt><trkpt lat="43.060195" lon="11.3029683"><ele>411.0</ele><time>2026-04-18T09:05:24.773Z</time></trkpt><trkpt lat="43.0601233" lon="11.3027667"><ele>411.0</ele><time>2026-04-18T09:05:25.772Z</time></trkpt><trkpt lat="43.0600433" lon="11.3025717"><ele>410.33333333333337</ele><time>2026-04-18T09:05:26.77Z</time></trkpt><trkpt lat="43.0599533" lon="11.3023917"><ele>409.6666666666667</ele><time>2026-04-18T09:05:27.771Z</time></trkpt><trkpt lat="43.0598483" lon="11.30224"><ele>409.0</ele><time>2026-04-18T09:05:28.77Z</time></trkpt><trkpt lat="43.059725" lon="11.302115"><ele>410.0</ele><time>2026-04-18T09:05:29.772Z</time></trkpt><trkpt lat="43.0595967" lon="11.3020067"><ele>411.0</ele><time>2026-04-18T09:05:30.769Z</time></trkpt><trkpt lat="43.05948" lon="11.3018983"><ele>412.0</ele><time>2026-04-18T09:05:31.771Z</time></trkpt><trkpt lat="43.0593867" lon="11.3017783"><ele>413.0</ele><time>2026-04-18T09:05:32.771Z</time></trkpt><trkpt lat="43.0593033" lon="11.3016333"><ele>413.0</ele><time>2026-04-18T09:05:33.77Z</time></trkpt><trkpt lat="43.0592417" lon="11.3014733"><ele>413.0</ele><time>2026-04-18T09:05:34.77Z</time></trkpt><trkpt lat="43.0591983" lon="11.30129"><ele>413.0</ele><time>2026-04-18T09:05:35.772Z</time></trkpt><trkpt lat="43.0591683" lon="11.3010783"><ele>413.0</ele><time>2026-04-18T09:05:36.771Z</time></trkpt><trkpt lat="43.0591533" lon="11.3008483"><ele>413.3333333333333</ele><time>2026-04-18T09:05:37.769Z</time></trkpt><trkpt lat="43.059135" lon="11.3006367"><ele>413.66666666666663</ele><time>2026-04-18T09:05:38.77Z</time></trkpt><trkpt lat="43.0591117" lon="11.30042"><ele>414.0</ele><time>2026-04-18T09:05:39.773Z</time></trkpt><trkpt lat="43.0590567" lon="11.300215"><ele>413.33333333333337</ele><time>2026-04-18T09:05:40.772Z</time></trkpt><trkpt lat="43.0589867" lon="11.300005"><ele>412.6666666666667</ele><time>2026-04-18T09:05:41.771Z</time></trkpt><trkpt lat="43.0588983" lon="11.299795"><ele>412.0</ele><time>2026-04-18T09:05:42.773Z</time></trkpt><trkpt lat="43.0587933" lon="11.299595"><ele>412.0</ele><time>2026-04-18T09:05:43.773Z</time></trkpt><trkpt lat="43.0586767" lon="11.2994117"><ele>412.0</ele><time>2026-04-18T09:05:44.769Z</time></trkpt><trkpt lat="43.0585533" lon="11.299225"><ele>412.0</ele><time>2026-04-18T09:05:45.767Z</time></trkpt><trkpt lat="43.0584183" lon="11.2990383"><ele>409.33333333333337</ele><time>2026-04-18T09:05:46.77Z</time></trkpt><trkpt lat="43.0582817" lon="11.298855"><ele>406.66666666666663</ele><time>2026-04-18T09:05:47.771Z</time></trkpt><trkpt lat="43.0581517" lon="11.2986833"><ele>404.0</ele><time>2026-04-18T09:05:48.772Z</time></trkpt><trkpt lat="43.0580333" lon="11.2985217"><ele>404.0</ele><time>2026-04-18T09:05:49.77Z</time></trkpt><trkpt lat="43.0579317" lon="11.29836"><ele>404.0</ele><time>2026-04-18T09:05:50.768Z</time></trkpt><trkpt lat="43.0578367" lon="11.2982067"><ele>404.0</ele><time>2026-04-18T09:05:51.769Z</time></trkpt><trkpt lat="43.0577417" lon="11.2980583"><ele>404.0</ele><time>2026-04-18T09:05:52.768Z</time></trkpt><trkpt lat="43.057645" lon="11.2979217"><ele>404.5</ele><time>2026-04-18T09:05:53.769Z</time></trkpt><trkpt lat="43.0575517" lon="11.297785"><ele>405.0</ele><time>2026-04-18T09:05:54.774Z</time></trkpt><trkpt lat="43.0574633" lon="11.2976517"><ele>405.5</ele><time>2026-04-18T09:05:55.772Z</time></trkpt><trkpt lat="43.0573817" lon="11.2975217"><ele>406.0</ele><time>2026-04-18T09:05:56.771Z</time></trkpt><trkpt lat="43.0573" lon="11.2973933"><ele>403.5</ele><time>2026-04-18T09:05:57.77Z</time></trkpt><trkpt lat="43.05722" lon="11.2972717"><ele>401.0</ele><time>2026-04-18T09:05:58.77Z</time></trkpt><trkpt lat="43.05714" lon="11.2971567"><ele>398.5</ele><time>2026-04-18T09:05:59.77Z</time></trkpt><trkpt lat="43.0570567" lon="11.29705"><ele>396.0</ele><time>2026-04-18T09:06:00.774Z</time></trkpt><trkpt lat="43.0569583" lon="11.2969583"><ele>396.0</ele><time>2026-04-18T09:06:01.771Z</time></trkpt><trkpt lat="43.0568417" lon="11.2968817"><ele>396.0</ele><time>2026-04-18T09:06:02.769Z</time></trkpt><trkpt lat="43.0567" lon="11.2968283"><ele>396.0</ele><time>2026-04-18T09:06:03.769Z</time></trkpt><trkpt lat="43.0565417" lon="11.2967917"><ele>396.0</ele><time>2026-04-18T09:06:04.769Z</time></trkpt><trkpt lat="43.0563683" lon="11.2967667"><ele>392.33333333333337</ele><time>2026-04-18T09:06:05.768Z</time></trkpt><trkpt lat="43.056185" lon="11.2967483"><ele>388.6666666666667</ele><time>2026-04-18T09:06:06.771Z</time></trkpt><trkpt lat="43.0560033" lon="11.2967233"><ele>385.0</ele><time>2026-04-18T09:06:07.769Z</time></trkpt><trkpt lat="43.05583" lon="11.2967083"><ele>381.75</ele><time>2026-04-18T09:06:08.771Z</time></trkpt><trkpt lat="43.055665" lon="11.29671"><ele>378.5</ele><time>2026-04-18T09:06:09.77Z</time></trkpt><trkpt lat="43.0555183" lon="11.2967333"><ele>375.25</ele><time>2026-04-18T09:06:10.767Z</time></trkpt><trkpt lat="43.055385" lon="11.2967333"><ele>372.0</ele><time>2026-04-18T09:06:11.77Z</time></trkpt><trkpt lat="43.0552533" lon="11.2966983"><ele>372.0</ele><time>2026-04-18T09:06:12.772Z</time></trkpt><trkpt lat="43.0551167" lon="11.2966117"><ele>372.0</ele><time>2026-04-18T09:06:13.765Z</time></trkpt><trkpt lat="43.0549883" lon="11.2964767"><ele>372.0</ele><time>2026-04-18T09:06:14.77Z</time></trkpt><trkpt lat="43.0548633" lon="11.2963267"><ele>368.6666666666667</ele><time>2026-04-18T09:06:15.769Z</time></trkpt><trkpt lat="43.054725" lon="11.2961817"><ele>365.33333333333337</ele><time>2026-04-18T09:06:16.77Z</time></trkpt><trkpt lat="43.0545767" lon="11.2960667"><ele>362.0</ele><time>2026-04-18T09:06:17.771Z</time></trkpt><trkpt lat="43.05443" lon="11.2959617"><ele>362.0</ele><time>2026-04-18T09:06:18.766Z</time></trkpt><trkpt lat="43.054305" lon="11.295855"><ele>362.0</ele><time>2026-04-18T09:06:19.768Z</time></trkpt><trkpt lat="43.0542067" lon="11.295735"><ele>362.0</ele><time>2026-04-18T09:06:20.767Z</time></trkpt><trkpt lat="43.0541317" lon="11.2955867"><ele>362.0</ele><time>2026-04-18T09:06:21.771Z</time></trkpt><trkpt lat="43.0541183" lon="11.2954033"><ele>361.20000000000005</ele><time>2026-04-18T09:06:22.768Z</time></trkpt><trkpt lat="43.0541083" lon="11.2952467"><ele>360.4</ele><time>2026-04-18T09:06:23.768Z</time></trkpt><trkpt lat="43.05412" lon="11.2951083"><ele>359.6</ele><time>2026-04-18T09:06:24.773Z</time></trkpt><trkpt lat="43.0541117" lon="11.2949783"><ele>358.79999999999995</ele><time>2026-04-18T09:06:25.77Z</time></trkpt><trkpt lat="43.0540733" lon="11.2948333"><ele>358.0</ele><time>2026-04-18T09:06:26.771Z</time></trkpt><trkpt lat="43.054" lon="11.2947183"><ele>362.75</ele><time>2026-04-18T09:06:27.766Z</time></trkpt><trkpt lat="43.0538967" lon="11.2946167"><ele>367.5</ele><time>2026-04-18T09:06:28.77Z</time></trkpt><trkpt lat="43.053805" lon="11.29456"><ele>372.25</ele><time>2026-04-18T09:06:29.77Z</time></trkpt><trkpt lat="43.0536917" lon="11.2945467"><ele>377.0</ele><time>2026-04-18T09:06:30.774Z</time></trkpt><trkpt lat="43.0535367" lon="11.2946"><ele>377.0</ele><time>2026-04-18T09:06:31.77Z</time></trkpt><trkpt lat="43.053335" lon="11.29471"><ele>377.0</ele><time>2026-04-18T09:06:32.758Z</time></trkpt><trkpt lat="43.0531517" lon="11.2947583"><ele>377.0</ele><time>2026-04-18T09:06:33.767Z</time></trkpt><trkpt lat="43.052925" lon="11.2948333"><ele>371.6666666666667</ele><time>2026-04-18T09:06:34.769Z</time></trkpt><trkpt lat="43.052715" lon="11.294855"><ele>366.3333333333333</ele><time>2026-04-18T09:06:35.767Z</time></trkpt><trkpt lat="43.0525283" lon="11.2948783"><ele>361.0</ele><time>2026-04-18T09:06:36.771Z</time></trkpt><trkpt lat="43.052365" lon="11.2948933"><ele>361.0</ele><time>2026-04-18T09:06:37.769Z</time></trkpt><trkpt lat="43.052215" lon="11.29488"><ele>361.0</ele><time>2026-04-18T09:06:38.77Z</time></trkpt><trkpt lat="43.05207" lon="11.2948133"><ele>361.0</ele><time>2026-04-18T09:06:39.767Z</time></trkpt><trkpt lat="43.0519283" lon="11.2947083"><ele>364.66666666666663</ele><time>2026-04-18T09:06:40.766Z</time></trkpt><trkpt lat="43.0517933" lon="11.294575"><ele>368.3333333333333</ele><time>2026-04-18T09:06:41.765Z</time></trkpt><trkpt lat="43.05165" lon="11.2944383"><ele>372.0</ele><time>2026-04-18T09:06:42.771Z</time></trkpt><trkpt lat="43.051495" lon="11.2943017"><ele>372.0</ele><time>2026-04-18T09:06:43.769Z</time></trkpt><trkpt lat="43.0513417" lon="11.2941783"><ele>372.0</ele><time>2026-04-18T09:06:44.767Z</time></trkpt><trkpt lat="43.0511933" lon="11.2940717"><ele>372.0</ele><time>2026-04-18T09:06:45.769Z</time></trkpt><trkpt lat="43.0510617" lon="11.2939867"><ele>372.0</ele><time>2026-04-18T09:06:46.769Z</time></trkpt><trkpt lat="43.0509333" lon="11.2939333"><ele>372.0</ele><time>2026-04-18T09:06:47.77Z</time></trkpt><trkpt lat="43.0508067" lon="11.2939083"><ele>372.0</ele><time>2026-04-18T09:06:48.771Z</time></trkpt><trkpt lat="43.0506717" lon="11.29393"><ele>372.0</ele><time>2026-04-18T09:06:49.771Z</time></trkpt><trkpt lat="43.0505433" lon="11.2940233"><ele>375.3333333333333</ele><time>2026-04-18T09:06:50.77Z</time></trkpt><trkpt lat="43.0504083" lon="11.2941683"><ele>378.66666666666663</ele><time>2026-04-18T09:06:51.771Z</time></trkpt><trkpt lat="43.0502633" lon="11.29432"><ele>382.0</ele><time>2026-04-18T09:06:52.769Z</time></trkpt><trkpt lat="43.05011" lon="11.2944617"><ele>382.0</ele><time>2026-04-18T09:06:53.772Z</time></trkpt><trkpt lat="43.0499633" lon="11.2945817"><ele>382.0</ele><time>2026-04-18T09:06:54.775Z</time></trkpt><trkpt lat="43.0498217" lon="11.294685"><ele>382.0</ele><time>2026-04-18T09:06:55.77Z</time></trkpt><trkpt lat="43.0496633" lon="11.2947717"><ele>379.3333333333333</ele><time>2026-04-18T09:06:56.77Z</time></trkpt><trkpt lat="43.0494883" lon="11.294845"><ele>376.6666666666667</ele><time>2026-04-18T09:06:57.771Z</time></trkpt><trkpt lat="43.0492967" lon="11.2949167"><ele>374.0</ele><time>2026-04-18T09:06:58.764Z</time></trkpt><trkpt lat="43.049105" lon="11.2950033"><ele>373.0</ele><time>2026-04-18T09:06:59.77Z</time></trkpt><trkpt lat="43.0489267" lon="11.295105"><ele>372.0</ele><time>2026-04-18T09:07:00.771Z</time></trkpt><trkpt lat="43.0487683" lon="11.29521"><ele>371.0</ele><time>2026-04-18T09:07:01.769Z</time></trkpt><trkpt lat="43.048635" lon="11.2953017"><ele>371.0</ele><time>2026-04-18T09:07:02.768Z</time></trkpt><trkpt lat="43.0485217" lon="11.2953717"><ele>371.0</ele><time>2026-04-18T09:07:03.77Z</time></trkpt><trkpt lat="43.048415" lon="11.2954067"><ele>371.0</ele><time>2026-04-18T09:07:04.769Z</time></trkpt><trkpt lat="43.0483167" lon="11.2954133"><ele>371.0</ele><time>2026-04-18T09:07:05.767Z</time></trkpt><trkpt lat="43.0482267" lon="11.2954233"><ele>371.0</ele><time>2026-04-18T09:07:06.772Z</time></trkpt><trkpt lat="43.048145" lon="11.2954567"><ele>369.25</ele><time>2026-04-18T09:07:07.771Z</time></trkpt><trkpt lat="43.04807" lon="11.2955267"><ele>367.5</ele><time>2026-04-18T09:07:08.766Z</time></trkpt><trkpt lat="43.0479983" lon="11.2956583"><ele>365.75</ele><time>2026-04-18T09:07:09.771Z</time></trkpt><trkpt lat="43.04791" lon="11.2957867"><ele>364.0</ele><time>2026-04-18T09:07:10.764Z</time></trkpt><trkpt lat="43.0478033" lon="11.2959067"><ele>364.0</ele><time>2026-04-18T09:07:11.771Z</time></trkpt><trkpt lat="43.0476883" lon="11.2960167"><ele>364.0</ele><time>2026-04-18T09:07:12.773Z</time></trkpt><trkpt lat="43.0475767" lon="11.2961167"><ele>364.0</ele><time>2026-04-18T09:07:13.771Z</time></trkpt><trkpt lat="43.04747" lon="11.29621"><ele>364.0</ele><time>2026-04-18T09:07:14.765Z</time></trkpt><trkpt lat="43.0473583" lon="11.296295"><ele>364.25</ele><time>2026-04-18T09:07:15.77Z</time></trkpt><trkpt lat="43.0472483" lon="11.29638"><ele>364.5</ele><time>2026-04-18T09:07:16.769Z</time></trkpt><trkpt lat="43.0471367" lon="11.2964633"><ele>364.75</ele><time>2026-04-18T09:07:17.769Z</time></trkpt><trkpt lat="43.047025" lon="11.2965417"><ele>365.0</ele><time>2026-04-18T09:07:18.772Z</time></trkpt><trkpt lat="43.0469183" lon="11.2966183"><ele>365.0</ele><time>2026-04-18T09:07:19.77Z</time></trkpt><trkpt lat="43.04681" lon="11.296695"><ele>365.0</ele><time>2026-04-18T09:07:20.756Z</time></trkpt><trkpt lat="43.046705" lon="11.2967667"><ele>365.0</ele><time>2026-04-18T09:07:21.759Z</time></trkpt><trkpt lat="43.046605" lon="11.296835"><ele>365.0</ele><time>2026-04-18T09:07:22.771Z</time></trkpt><trkpt lat="43.0465083" lon="11.2969067"><ele>365.4</ele><time>2026-04-18T09:07:23.769Z</time></trkpt><trkpt lat="43.0464117" lon="11.2969817"><ele>365.8</ele><time>2026-04-18T09:07:24.771Z</time></trkpt><trkpt lat="43.04632" lon="11.2970533"><ele>366.20000000000005</ele><time>2026-04-18T09:07:25.771Z</time></trkpt><trkpt lat="43.0462267" lon="11.2971183"><ele>366.6</ele><time>2026-04-18T09:07:26.771Z</time></trkpt><trkpt lat="43.0461333" lon="11.2971817"><ele>367.0</ele><time>2026-04-18T09:07:27.772Z</time></trkpt><trkpt lat="43.04604" lon="11.297245"><ele>366.8</ele><time>2026-04-18T09:07:28.768Z</time></trkpt><trkpt lat="43.0459517" lon="11.2973083"><ele>366.6</ele><time>2026-04-18T09:07:29.772Z</time></trkpt><trkpt lat="43.04587" lon="11.297365"><ele>366.40000000000003</ele><time>2026-04-18T09:07:30.772Z</time></trkpt><trkpt lat="43.0457983" lon="11.2974233"><ele>366.20000000000005</ele><time>2026-04-18T09:07:31.772Z</time></trkpt><trkpt lat="43.04572" lon="11.2974783"><ele>366.0</ele><time>2026-04-18T09:07:32.773Z</time></trkpt><trkpt lat="43.0456367" lon="11.297535"><ele>367.0</ele><time>2026-04-18T09:07:33.768Z</time></trkpt><trkpt lat="43.0455517" lon="11.2975983"><ele>368.0</ele><time>2026-04-18T09:07:34.77Z</time></trkpt><trkpt lat="43.0454617" lon="11.29766"><ele>369.0</ele><time>2026-04-18T09:07:35.769Z</time></trkpt><trkpt lat="43.0453717" lon="11.2977233"><ele>370.0</ele><time>2026-04-18T09:07:36.776Z</time></trkpt><trkpt lat="43.0452833" lon="11.2977867"><ele>371.0</ele><time>2026-04-18T09:07:37.77Z</time></trkpt><trkpt lat="43.0451967" lon="11.2978433"><ele>371.0</ele><time>2026-04-18T09:07:38.771Z</time></trkpt><trkpt lat="43.0451033" lon="11.29789"><ele>371.0</ele><time>2026-04-18T09:07:39.77Z</time></trkpt><trkpt lat="43.0450083" lon="11.29794"><ele>371.0</ele><time>2026-04-18T09:07:40.77Z</time></trkpt><trkpt lat="43.044915" lon="11.2979717"><ele>371.0</ele><time>2026-04-18T09:07:41.77Z</time></trkpt><trkpt lat="43.0448183" lon="11.2980033"><ele>371.0</ele><time>2026-04-18T09:07:42.767Z</time></trkpt><trkpt lat="43.0447133" lon="11.29804"><ele>371.5</ele><time>2026-04-18T09:07:43.77Z</time></trkpt><trkpt lat="43.0446017" lon="11.298075"><ele>372.0</ele><time>2026-04-18T09:07:44.769Z</time></trkpt><trkpt lat="43.04449" lon="11.298105"><ele>372.5</ele><time>2026-04-18T09:07:45.769Z</time></trkpt><trkpt lat="43.04438" lon="11.2981267"><ele>373.0</ele><time>2026-04-18T09:07:46.773Z</time></trkpt><trkpt lat="43.044265" lon="11.2981417"><ele>375.0</ele><time>2026-04-18T09:07:47.771Z</time></trkpt><trkpt lat="43.0441517" lon="11.2981467"><ele>377.0</ele><time>2026-04-18T09:07:48.772Z</time></trkpt><trkpt lat="43.0440367" lon="11.2981467"><ele>379.0</ele><time>2026-04-18T09:07:49.77Z</time></trkpt><trkpt lat="43.0439217" lon="11.2981417"><ele>381.0</ele><time>2026-04-18T09:07:50.765Z</time></trkpt><trkpt lat="43.0438117" lon="11.2981217"><ele>381.6</ele><time>2026-04-18T09:07:51.772Z</time></trkpt><trkpt lat="43.0437067" lon="11.2980833"><ele>382.20000000000005</ele><time>2026-04-18T09:07:52.762Z</time></trkpt><trkpt lat="43.0436067" lon="11.29804"><ele>382.79999999999995</ele><time>2026-04-18T09:07:53.77Z</time></trkpt><trkpt lat="43.0435067" lon="11.29801"><ele>383.4</ele><time>2026-04-18T09:07:54.772Z</time></trkpt><trkpt lat="43.0434067" lon="11.2979933"><ele>384.0</ele><time>2026-04-18T09:07:55.771Z</time></trkpt><trkpt lat="43.0432883" lon="11.2979967"><ele>387.0</ele><time>2026-04-18T09:07:56.767Z</time></trkpt><trkpt lat="43.043165" lon="11.2980233"><ele>390.0</ele><time>2026-04-18T09:07:57.769Z</time></trkpt><trkpt lat="43.0430383" lon="11.2980517"><ele>393.0</ele><time>2026-04-18T09:07:58.77Z</time></trkpt><trkpt lat="43.0429117" lon="11.2980833"><ele>396.0</ele><time>2026-04-18T09:07:59.77Z</time></trkpt><trkpt lat="43.0427833" lon="11.298095"><ele>396.0</ele><time>2026-04-18T09:08:00.77Z</time></trkpt><trkpt lat="43.0426617" lon="11.298085"><ele>396.0</ele><time>2026-04-18T09:08:01.769Z</time></trkpt><trkpt lat="43.042525" lon="11.29806"><ele>396.0</ele><time>2026-04-18T09:08:02.77Z</time></trkpt><trkpt lat="43.0423983" lon="11.2980033"><ele>396.0</ele><time>2026-04-18T09:08:03.768Z</time></trkpt><trkpt lat="43.0422833" lon="11.2979267"><ele>399.8</ele><time>2026-04-18T09:08:04.765Z</time></trkpt><trkpt lat="43.0421867" lon="11.297835"><ele>403.6</ele><time>2026-04-18T09:08:05.769Z</time></trkpt><trkpt lat="43.042105" lon="11.2977367"><ele>407.4</ele><time>2026-04-18T09:08:06.767Z</time></trkpt><trkpt lat="43.0420233" lon="11.2976583"><ele>411.2</ele><time>2026-04-18T09:08:07.77Z</time></trkpt><trkpt lat="43.0419217" lon="11.2975917"><ele>415.0</ele><time>2026-04-18T09:08:08.763Z</time></trkpt><trkpt lat="43.0418183" lon="11.297525"><ele>415.0</ele><time>2026-04-18T09:08:09.769Z</time></trkpt><trkpt lat="43.041725" lon="11.29745"><ele>415.0</ele><time>2026-04-18T09:08:10.767Z</time></trkpt><trkpt lat="43.0416383" lon="11.297365"><ele>415.0</ele><time>2026-04-18T09:08:11.769Z</time></trkpt><trkpt lat="43.0415517" lon="11.29729"><ele>415.0</ele><time>2026-04-18T09:08:12.767Z</time></trkpt><trkpt lat="43.0414667" lon="11.2972467"><ele>415.0</ele><time>2026-04-18T09:08:13.769Z</time></trkpt><trkpt lat="43.041385" lon="11.2971967"><ele>414.6666666666667</ele><time>2026-04-18T09:08:14.769Z</time></trkpt><trkpt lat="43.0413083" lon="11.2971933"><ele>414.33333333333337</ele><time>2026-04-18T09:08:15.77Z</time></trkpt><trkpt lat="43.0412383" lon="11.2971917"><ele>414.0</ele><time>2026-04-18T09:08:16.77Z</time></trkpt><trkpt lat="43.0411383" lon="11.29724"><ele>413.66666666666663</ele><time>2026-04-18T09:08:18.77Z</time></trkpt><trkpt lat="43.0410583" lon="11.2972817"><ele>413.3333333333333</ele><time>2026-04-18T09:08:20.769Z</time></trkpt><trkpt lat="43.0409933" lon="11.2972917"><ele>413.0</ele><time>2026-04-18T09:08:22.768Z</time></trkpt><trkpt lat="43.0409067" lon="11.2972967"><ele>415.4</ele><time>2026-04-18T09:08:25.769Z</time></trkpt><trkpt lat="43.0407767" lon="11.2972833"><ele>417.79999999999995</ele><time>2026-04-18T09:08:27.768Z</time></trkpt><trkpt lat="43.0406767" lon="11.2972583"><ele>420.2</ele><time>2026-04-18T09:08:28.768Z</time></trkpt><trkpt lat="43.0405717" lon="11.2972483"><ele>422.6</ele><time>2026-04-18T09:08:29.767Z</time></trkpt><trkpt lat="43.040465" lon="11.2972433"><ele>425.0</ele><time>2026-04-18T09:08:30.771Z</time></trkpt><trkpt lat="43.0403417" lon="11.2972533"><ele>425.0</ele><time>2026-04-18T09:08:31.769Z</time></trkpt><trkpt lat="43.0402167" lon="11.29726"><ele>425.0</ele><time>2026-04-18T09:08:32.769Z</time></trkpt><trkpt lat="43.040085" lon="11.2972767"><ele>425.0</ele><time>2026-04-18T09:08:33.772Z</time></trkpt><trkpt lat="43.03996" lon="11.2972883"><ele>425.0</ele><time>2026-04-18T09:08:34.77Z</time></trkpt><trkpt lat="43.039835" lon="11.297305"><ele>424.0</ele><time>2026-04-18T09:08:35.771Z</time></trkpt><trkpt lat="43.0397067" lon="11.2973283"><ele>423.0</ele><time>2026-04-18T09:08:36.773Z</time></trkpt><trkpt lat="43.03958" lon="11.2973567"><ele>422.0</ele><time>2026-04-18T09:08:37.771Z</time></trkpt><trkpt lat="43.0394533" lon="11.2974017"><ele>421.0</ele><time>2026-04-18T09:08:38.77Z</time></trkpt><trkpt lat="43.03933" lon="11.2974633"><ele>421.0</ele><time>2026-04-18T09:08:39.771Z</time></trkpt><trkpt lat="43.0392017" lon="11.29753"><ele>421.0</ele><time>2026-04-18T09:08:40.768Z</time></trkpt><trkpt lat="43.0390717" lon="11.2976"><ele>421.0</ele><time>2026-04-18T09:08:41.771Z</time></trkpt><trkpt lat="43.0389367" lon="11.2976667"><ele>421.0</ele><time>2026-04-18T09:08:42.773Z</time></trkpt><trkpt lat="43.0387967" lon="11.2977433"><ele>416.6666666666667</ele><time>2026-04-18T09:08:43.768Z</time></trkpt><trkpt lat="43.0386517" lon="11.297835"><ele>412.33333333333337</ele><time>2026-04-18T09:08:44.764Z</time></trkpt><trkpt lat="43.0385" lon="11.2979383"><ele>408.0</ele><time>2026-04-18T09:08:45.772Z</time></trkpt><trkpt lat="43.03835" lon="11.298045"><ele>405.33333333333337</ele><time>2026-04-18T09:08:46.767Z</time></trkpt><trkpt lat="43.0381933" lon="11.2981583"><ele>402.6666666666667</ele><time>2026-04-18T09:08:47.767Z</time></trkpt><trkpt lat="43.0380367" lon="11.2982717"><ele>400.0</ele><time>2026-04-18T09:08:48.771Z</time></trkpt><trkpt lat="43.0378767" lon="11.29838"><ele>400.0</ele><time>2026-04-18T09:08:49.769Z</time></trkpt><trkpt lat="43.0377133" lon="11.298485"><ele>400.0</ele><time>2026-04-18T09:08:50.764Z</time></trkpt><trkpt lat="43.0375567" lon="11.298575"><ele>400.0</ele><time>2026-04-18T09:08:51.769Z</time></trkpt><trkpt lat="43.037405" lon="11.2986583"><ele>397.75</ele><time>2026-04-18T09:08:52.77Z</time></trkpt><trkpt lat="43.0372667" lon="11.2987333"><ele>395.5</ele><time>2026-04-18T09:08:53.768Z</time></trkpt><trkpt lat="43.0371317" lon="11.2987867"><ele>393.25</ele><time>2026-04-18T09:08:54.765Z</time></trkpt><trkpt lat="43.0370033" lon="11.2988217"><ele>391.0</ele><time>2026-04-18T09:08:55.768Z</time></trkpt><trkpt lat="43.0368683" lon="11.298845"><ele>391.0</ele><time>2026-04-18T09:08:56.768Z</time></trkpt><trkpt lat="43.0367267" lon="11.2988633"><ele>391.0</ele><time>2026-04-18T09:08:57.77Z</time></trkpt><trkpt lat="43.0365783" lon="11.29889"><ele>391.0</ele><time>2026-04-18T09:08:58.767Z</time></trkpt><trkpt lat="43.0364267" lon="11.2989317"><ele>391.0</ele><time>2026-04-18T09:08:59.77Z</time></trkpt><trkpt lat="43.036265" lon="11.2989867"><ele>388.6666666666667</ele><time>2026-04-18T09:09:00.77Z</time></trkpt><trkpt lat="43.0360967" lon="11.2990567"><ele>386.33333333333337</ele><time>2026-04-18T09:09:01.765Z</time></trkpt><trkpt lat="43.0359283" lon="11.29914"><ele>384.0</ele><time>2026-04-18T09:09:02.769Z</time></trkpt><trkpt lat="43.035765" lon="11.29924"><ele>380.3333333333333</ele><time>2026-04-18T09:09:03.769Z</time></trkpt><trkpt lat="43.0356067" lon="11.2993417"><ele>376.66666666666663</ele><time>2026-04-18T09:09:04.771Z</time></trkpt><trkpt lat="43.03547" lon="11.2994383"><ele>373.0</ele><time>2026-04-18T09:09:05.771Z</time></trkpt><trkpt lat="43.035335" lon="11.2995383"><ele>373.0</ele><time>2026-04-18T09:09:06.771Z</time></trkpt><trkpt lat="43.0352017" lon="11.2996333"><ele>373.0</ele><time>2026-04-18T09:09:07.768Z</time></trkpt><trkpt lat="43.0350783" lon="11.2997233"><ele>373.0</ele><time>2026-04-18T09:09:08.768Z</time></trkpt><trkpt lat="43.0349583" lon="11.2998083"><ele>373.0</ele><time>2026-04-18T09:09:09.769Z</time></trkpt><trkpt lat="43.0348383" lon="11.2998967"><ele>372.25</ele><time>2026-04-18T09:09:10.77Z</time></trkpt><trkpt lat="43.0347183" lon="11.2999917"><ele>371.5</ele><time>2026-04-18T09:09:11.768Z</time></trkpt><trkpt lat="43.0345917" lon="11.3000883"><ele>370.75</ele><time>2026-04-18T09:09:12.772Z</time></trkpt><trkpt lat="43.0344567" lon="11.3001867"><ele>370.0</ele><time>2026-04-18T09:09:13.768Z</time></trkpt><trkpt lat="43.03432" lon="11.300285"><ele>370.0</ele><time>2026-04-18T09:09:14.769Z</time></trkpt><trkpt lat="43.0341767" lon="11.3003783"><ele>370.0</ele><time>2026-04-18T09:09:15.77Z</time></trkpt><trkpt lat="43.0340233" lon="11.3004667"><ele>370.0</ele><time>2026-04-18T09:09:16.768Z</time></trkpt><trkpt lat="43.0338667" lon="11.300555"><ele>372.3333333333333</ele><time>2026-04-18T09:09:17.77Z</time></trkpt><trkpt lat="43.0336983" lon="11.3006433"><ele>374.6666666666667</ele><time>2026-04-18T09:09:18.77Z</time></trkpt><trkpt lat="43.0335317" lon="11.3007233"><ele>377.0</ele><time>2026-04-18T09:09:19.77Z</time></trkpt><trkpt lat="43.033365" lon="11.3007967"><ele>375.0</ele><time>2026-04-18T09:09:20.768Z</time></trkpt><trkpt lat="43.033205" lon="11.3008717"><ele>373.0</ele><time>2026-04-18T09:09:21.766Z</time></trkpt><trkpt lat="43.03306" lon="11.3009483"><ele>371.0</ele><time>2026-04-18T09:09:22.76Z</time></trkpt><trkpt lat="43.0329567" lon="11.30105"><ele>371.0</ele><time>2026-04-18T09:09:23.771Z</time></trkpt><trkpt lat="43.03285" lon="11.30114"><ele>371.0</ele><time>2026-04-18T09:09:24.772Z</time></trkpt><trkpt lat="43.0327533" lon="11.3012683"><ele>371.0</ele><time>2026-04-18T09:09:25.77Z</time></trkpt><trkpt lat="43.0326733" lon="11.3014183"><ele>371.0</ele><time>2026-04-18T09:09:26.769Z</time></trkpt><trkpt lat="43.0325883" lon="11.3015883"><ele>372.33333333333337</ele><time>2026-04-18T09:09:27.769Z</time></trkpt><trkpt lat="43.0324967" lon="11.3017517"><ele>373.6666666666667</ele><time>2026-04-18T09:09:28.765Z</time></trkpt><trkpt lat="43.0323867" lon="11.3019017"><ele>375.0</ele><time>2026-04-18T09:09:29.771Z</time></trkpt><trkpt lat="43.0322533" lon="11.302015"><ele>375.0</ele><time>2026-04-18T09:09:30.772Z</time></trkpt><trkpt lat="43.032105" lon="11.3021"><ele>375.0</ele><time>2026-04-18T09:09:31.77Z</time></trkpt><trkpt lat="43.0319367" lon="11.3021567"><ele>375.0</ele><time>2026-04-18T09:09:32.772Z</time></trkpt><trkpt lat="43.031765" lon="11.302195"><ele>375.3333333333333</ele><time>2026-04-18T09:09:33.77Z</time></trkpt><trkpt lat="43.0315933" lon="11.302215"><ele>375.66666666666663</ele><time>2026-04-18T09:09:34.764Z</time></trkpt><trkpt lat="43.0314217" lon="11.3022267"><ele>376.0</ele><time>2026-04-18T09:09:35.771Z</time></trkpt><trkpt lat="43.0312433" lon="11.3022383"><ele>376.0</ele><time>2026-04-18T09:09:36.771Z</time></trkpt><trkpt lat="43.031065" lon="11.302245"><ele>376.0</ele><time>2026-04-18T09:09:37.769Z</time></trkpt><trkpt lat="43.0308883" lon="11.3022533"><ele>376.0</ele><time>2026-04-18T09:09:38.768Z</time></trkpt><trkpt lat="43.0307133" lon="11.3022517"><ele>377.75</ele><time>2026-04-18T09:09:39.771Z</time></trkpt><trkpt lat="43.0305517" lon="11.3022433"><ele>379.5</ele><time>2026-04-18T09:09:40.769Z</time></trkpt><trkpt lat="43.0304017" lon="11.3022333"><ele>381.25</ele><time>2026-04-18T09:09:41.768Z</time></trkpt><trkpt lat="43.030265" lon="11.3022383"><ele>383.0</ele><time>2026-04-18T09:09:42.762Z</time></trkpt><trkpt lat="43.0301317" lon="11.3022633"><ele>384.0</ele><time>2026-04-18T09:09:43.77Z</time></trkpt><trkpt lat="43.0300017" lon="11.3023267"><ele>385.0</ele><time>2026-04-18T09:09:44.764Z</time></trkpt><trkpt lat="43.02988" lon="11.3024217"><ele>386.0</ele><time>2026-04-18T09:09:45.768Z</time></trkpt><trkpt lat="43.0297467" lon="11.30255"><ele>387.0</ele><time>2026-04-18T09:09:46.77Z</time></trkpt><trkpt lat="43.02961" lon="11.3026883"><ele>383.6666666666667</ele><time>2026-04-18T09:09:47.769Z</time></trkpt><trkpt lat="43.02947" lon="11.3028283"><ele>380.33333333333337</ele><time>2026-04-18T09:09:48.771Z</time></trkpt><trkpt lat="43.029335" lon="11.30298"><ele>377.0</ele><time>2026-04-18T09:09:49.767Z</time></trkpt><trkpt lat="43.0292183" lon="11.30314"><ele>370.33333333333337</ele><time>2026-04-18T09:09:50.77Z</time></trkpt><trkpt lat="43.029125" lon="11.3033183"><ele>363.6666666666667</ele><time>2026-04-18T09:09:51.77Z</time></trkpt><trkpt lat="43.0290583" lon="11.30351"><ele>357.0</ele><time>2026-04-18T09:09:52.768Z</time></trkpt><trkpt lat="43.0290067" lon="11.3037117"><ele>357.0</ele><time>2026-04-18T09:09:53.77Z</time></trkpt><trkpt lat="43.0289517" lon="11.30391"><ele>357.0</ele><time>2026-04-18T09:09:54.772Z</time></trkpt><trkpt lat="43.0288833" lon="11.3040917"><ele>357.0</ele><time>2026-04-18T09:09:55.768Z</time></trkpt><trkpt lat="43.0288117" lon="11.3042633"><ele>357.0</ele><time>2026-04-18T09:09:56.764Z</time></trkpt><trkpt lat="43.0287633" lon="11.3044467"><ele>357.75</ele><time>2026-04-18T09:09:57.771Z</time></trkpt><trkpt lat="43.0287533" lon="11.3046433"><ele>358.5</ele><time>2026-04-18T09:09:58.771Z</time></trkpt><trkpt lat="43.0287667" lon="11.3048467"><ele>359.25</ele><time>2026-04-18T09:09:59.77Z</time></trkpt><trkpt lat="43.0287883" lon="11.305045"><ele>360.0</ele><time>2026-04-18T09:10:00.769Z</time></trkpt><trkpt lat="43.0287833" lon="11.3052383"><ele>360.5</ele><time>2026-04-18T09:10:01.767Z</time></trkpt><trkpt lat="43.0287567" lon="11.3054133"><ele>361.0</ele><time>2026-04-18T09:10:02.765Z</time></trkpt><trkpt lat="43.0287017" lon="11.3055633"><ele>361.5</ele><time>2026-04-18T09:10:03.77Z</time></trkpt><trkpt lat="43.0286083" lon="11.3056767"><ele>362.0</ele><time>2026-04-18T09:10:04.767Z</time></trkpt><trkpt lat="43.0284917" lon="11.3057817"><ele>361.75</ele><time>2026-04-18T09:10:05.77Z</time></trkpt><trkpt lat="43.0283733" lon="11.305885"><ele>361.5</ele><time>2026-04-18T09:10:06.766Z</time></trkpt><trkpt lat="43.0282433" lon="11.3059933"><ele>361.25</ele><time>2026-04-18T09:10:07.772Z</time></trkpt><trkpt lat="43.0281117" lon="11.3061067"><ele>361.0</ele><time>2026-04-18T09:10:08.767Z</time></trkpt><trkpt lat="43.0279867" lon="11.306215"><ele>361.0</ele><time>2026-04-18T09:10:09.77Z</time></trkpt><trkpt lat="43.0278567" lon="11.3063"><ele>361.0</ele><time>2026-04-18T09:10:10.77Z</time></trkpt><trkpt lat="43.0277367" lon="11.3063483"><ele>361.0</ele><time>2026-04-18T09:10:11.77Z</time></trkpt><trkpt lat="43.0276283" lon="11.3063683"><ele>361.0</ele><time>2026-04-18T09:10:12.767Z</time></trkpt><trkpt lat="43.0275217" lon="11.306355"><ele>359.75</ele><time>2026-04-18T09:10:13.771Z</time></trkpt><trkpt lat="43.02742" lon="11.3063117"><ele>358.5</ele><time>2026-04-18T09:10:14.768Z</time></trkpt><trkpt lat="43.0273067" lon="11.3062733"><ele>357.25</ele><time>2026-04-18T09:10:15.771Z</time></trkpt><trkpt lat="43.0271717" lon="11.3062617"><ele>356.0</ele><time>2026-04-18T09:10:16.77Z</time></trkpt><trkpt lat="43.0270233" lon="11.3062917"><ele>356.0</ele><time>2026-04-18T09:10:17.769Z</time></trkpt><trkpt lat="43.0268667" lon="11.3063583"><ele>356.0</ele><time>2026-04-18T09:10:18.77Z</time></trkpt><trkpt lat="43.026715" lon="11.306445"><ele>356.0</ele><time>2026-04-18T09:10:19.767Z</time></trkpt><trkpt lat="43.0265733" lon="11.306545"><ele>355.75</ele><time>2026-04-18T09:10:20.765Z</time></trkpt><trkpt lat="43.026445" lon="11.3066583"><ele>355.5</ele><time>2026-04-18T09:10:21.77Z</time></trkpt><trkpt lat="43.0263367" lon="11.3067983"><ele>355.25</ele><time>2026-04-18T09:10:22.766Z</time></trkpt><trkpt lat="43.0262567" lon="11.3069667"><ele>355.0</ele><time>2026-04-18T09:10:23.772Z</time></trkpt><trkpt lat="43.0261883" lon="11.307115"><ele>355.0</ele><time>2026-04-18T09:10:24.773Z</time></trkpt><trkpt lat="43.0261183" lon="11.3072317"><ele>355.0</ele><time>2026-04-18T09:10:25.765Z</time></trkpt><trkpt lat="43.0260433" lon="11.30731"><ele>355.0</ele><time>2026-04-18T09:10:26.768Z</time></trkpt><trkpt lat="43.025965" lon="11.3073583"><ele>355.0</ele><time>2026-04-18T09:10:27.773Z</time></trkpt><trkpt lat="43.0258733" lon="11.3073567"><ele>355.0</ele><time>2026-04-18T09:10:28.765Z</time></trkpt><trkpt lat="43.025775" lon="11.30734"><ele>354.0</ele><time>2026-04-18T09:10:29.769Z</time></trkpt><trkpt lat="43.0256317" lon="11.30728"><ele>353.0</ele><time>2026-04-18T09:10:30.772Z</time></trkpt><trkpt lat="43.0254733" lon="11.30721"><ele>352.0</ele><time>2026-04-18T09:10:31.769Z</time></trkpt><trkpt lat="43.02531" lon="11.3071833"><ele>349.66666666666663</ele><time>2026-04-18T09:10:32.764Z</time></trkpt><trkpt lat="43.025135" lon="11.30719"><ele>347.3333333333333</ele><time>2026-04-18T09:10:33.768Z</time></trkpt><trkpt lat="43.02495" lon="11.3072117"><ele>345.0</ele><time>2026-04-18T09:10:34.771Z</time></trkpt><trkpt lat="43.0247667" lon="11.30726"><ele>345.0</ele><time>2026-04-18T09:10:35.768Z</time></trkpt><trkpt lat="43.024585" lon="11.3073217"><ele>345.0</ele><time>2026-04-18T09:10:36.773Z</time></trkpt><trkpt lat="43.0244" lon="11.30738"><ele>345.0</ele><time>2026-04-18T09:10:37.77Z</time></trkpt><trkpt lat="43.024215" lon="11.3074367"><ele>341.6666666666667</ele><time>2026-04-18T09:10:38.768Z</time></trkpt><trkpt lat="43.0240233" lon="11.3074883"><ele>338.33333333333337</ele><time>2026-04-18T09:10:39.769Z</time></trkpt><trkpt lat="43.0238283" lon="11.307525"><ele>335.0</ele><time>2026-04-18T09:10:40.767Z</time></trkpt><trkpt lat="43.023645" lon="11.30756"><ele>335.0</ele><time>2026-04-18T09:10:41.771Z</time></trkpt><trkpt lat="43.0234733" lon="11.3075917"><ele>335.0</ele><time>2026-04-18T09:10:42.766Z</time></trkpt><trkpt lat="43.0233067" lon="11.307625"><ele>335.0</ele><time>2026-04-18T09:10:43.768Z</time></trkpt><trkpt lat="43.023155" lon="11.3076733"><ele>333.0</ele><time>2026-04-18T09:10:44.768Z</time></trkpt><trkpt lat="43.0230167" lon="11.307755"><ele>331.0</ele><time>2026-04-18T09:10:45.767Z</time></trkpt><trkpt lat="43.0228833" lon="11.3078683"><ele>329.0</ele><time>2026-04-18T09:10:46.769Z</time></trkpt><trkpt lat="43.0227417" lon="11.3079933"><ele>330.0</ele><time>2026-04-18T09:10:47.769Z</time></trkpt><trkpt lat="43.0226033" lon="11.3081117"><ele>331.0</ele><time>2026-04-18T09:10:48.771Z</time></trkpt><trkpt lat="43.0224617" lon="11.3082067"><ele>332.0</ele><time>2026-04-18T09:10:49.769Z</time></trkpt><trkpt lat="43.0223117" lon="11.3082817"><ele>329.33333333333337</ele><time>2026-04-18T09:10:50.77Z</time></trkpt><trkpt lat="43.02215" lon="11.3083417"><ele>326.6666666666667</ele><time>2026-04-18T09:10:51.77Z</time></trkpt><trkpt lat="43.022005" lon="11.3084083"><ele>324.0</ele><time>2026-04-18T09:10:52.765Z</time></trkpt><trkpt lat="43.021835" lon="11.3084633"><ele>324.0</ele><time>2026-04-18T09:10:53.772Z</time></trkpt><trkpt lat="43.0216583" lon="11.3085233"><ele>324.0</ele><time>2026-04-18T09:10:54.772Z</time></trkpt><trkpt lat="43.0214817" lon="11.3085833"><ele>324.0</ele><time>2026-04-18T09:10:55.769Z</time></trkpt><trkpt lat="43.02131" lon="11.3086467"><ele>322.0</ele><time>2026-04-18T09:10:56.772Z</time></trkpt><trkpt lat="43.021135" lon="11.3087117"><ele>320.0</ele><time>2026-04-18T09:10:57.77Z</time></trkpt><trkpt lat="43.020975" lon="11.30879"><ele>318.0</ele><time>2026-04-18T09:10:58.77Z</time></trkpt><trkpt lat="43.020825" lon="11.308875"><ele>318.6666666666667</ele><time>2026-04-18T09:10:59.77Z</time></trkpt><trkpt lat="43.0206833" lon="11.3089667"><ele>319.33333333333337</ele><time>2026-04-18T09:11:00.77Z</time></trkpt><trkpt lat="43.0205433" lon="11.309065"><ele>320.0</ele><time>2026-04-18T09:11:01.769Z</time></trkpt><trkpt lat="43.020415" lon="11.309175"><ele>320.0</ele><time>2026-04-18T09:11:02.769Z</time></trkpt><trkpt lat="43.0202917" lon="11.3092867"><ele>320.0</ele><time>2026-04-18T09:11:03.768Z</time></trkpt><trkpt lat="43.0201767" lon="11.3094"><ele>320.0</ele><time>2026-04-18T09:11:04.77Z</time></trkpt><trkpt lat="43.0200617" lon="11.3095117"><ele>320.0</ele><time>2026-04-18T09:11:05.771Z</time></trkpt><trkpt lat="43.019955" lon="11.3096317"><ele>320.0</ele><time>2026-04-18T09:11:06.776Z</time></trkpt><trkpt lat="43.01985" lon="11.3097583"><ele>320.0</ele><time>2026-04-18T09:11:07.772Z</time></trkpt><trkpt lat="43.0197417" lon="11.3098833"><ele>320.0</ele><time>2026-04-18T09:11:08.77Z</time></trkpt><trkpt lat="43.0196367" lon="11.31"><ele>320.0</ele><time>2026-04-18T09:11:09.769Z</time></trkpt><trkpt lat="43.0195333" lon="11.3101233"><ele>320.0</ele><time>2026-04-18T09:11:10.77Z</time></trkpt><trkpt lat="43.0194383" lon="11.3102517"><ele>320.0</ele><time>2026-04-18T09:11:11.77Z</time></trkpt><trkpt lat="43.0193467" lon="11.3103783"><ele>320.0</ele><time>2026-04-18T09:11:12.768Z</time></trkpt><trkpt lat="43.019255" lon="11.3105083"><ele>320.0</ele><time>2026-04-18T09:11:13.766Z</time></trkpt><trkpt lat="43.0191683" lon="11.3106333"><ele>319.8</ele><time>2026-04-18T09:11:14.769Z</time></trkpt><trkpt lat="43.0190933" lon="11.310755"><ele>319.6</ele><time>2026-04-18T09:11:15.768Z</time></trkpt><trkpt lat="43.0190233" lon="11.3108767"><ele>319.4</ele><time>2026-04-18T09:11:16.769Z</time></trkpt><trkpt lat="43.0189533" lon="11.3109917"><ele>319.2</ele><time>2026-04-18T09:11:17.771Z</time></trkpt><trkpt lat="43.0188817" lon="11.3111"><ele>319.0</ele><time>2026-04-18T09:11:18.773Z</time></trkpt><trkpt lat="43.0188" lon="11.3112"><ele>319.0</ele><time>2026-04-18T09:11:19.768Z</time></trkpt><trkpt lat="43.018715" lon="11.3112967"><ele>319.0</ele><time>2026-04-18T09:11:20.769Z</time></trkpt><trkpt lat="43.0186217" lon="11.3114033"><ele>319.0</ele><time>2026-04-18T09:11:21.772Z</time></trkpt><trkpt lat="43.0185217" lon="11.3115217"><ele>319.0</ele><time>2026-04-18T09:11:22.766Z</time></trkpt><trkpt lat="43.0184117" lon="11.3116367"><ele>315.0</ele><time>2026-04-18T09:11:23.772Z</time></trkpt><trkpt lat="43.0183017" lon="11.3117467"><ele>311.0</ele><time>2026-04-18T09:11:24.774Z</time></trkpt><trkpt lat="43.0181833" lon="11.3118617"><ele>307.0</ele><time>2026-04-18T09:11:25.77Z</time></trkpt><trkpt lat="43.018055" lon="11.311975"><ele>303.0</ele><time>2026-04-18T09:11:26.765Z</time></trkpt><trkpt lat="43.0179183" lon="11.312085"><ele>303.0</ele><time>2026-04-18T09:11:27.77Z</time></trkpt><trkpt lat="43.0177767" lon="11.3121867"><ele>303.0</ele><time>2026-04-18T09:11:28.77Z</time></trkpt><trkpt lat="43.01764" lon="11.3122817"><ele>303.0</ele><time>2026-04-18T09:11:29.77Z</time></trkpt><trkpt lat="43.0175033" lon="11.3123767"><ele>300.75</ele><time>2026-04-18T09:11:30.77Z</time></trkpt><trkpt lat="43.0173733" lon="11.3124667"><ele>298.5</ele><time>2026-04-18T09:11:31.77Z</time></trkpt><trkpt lat="43.017245" lon="11.31256"><ele>296.25</ele><time>2026-04-18T09:11:32.765Z</time></trkpt><trkpt lat="43.01713" lon="11.312655"><ele>294.0</ele><time>2026-04-18T09:11:33.773Z</time></trkpt><trkpt lat="43.0170117" lon="11.3127533"><ele>294.0</ele><time>2026-04-18T09:11:34.765Z</time></trkpt><trkpt lat="43.0168917" lon="11.312845"><ele>294.0</ele><time>2026-04-18T09:11:35.771Z</time></trkpt><trkpt lat="43.0167717" lon="11.3129333"><ele>294.0</ele><time>2026-04-18T09:11:36.77Z</time></trkpt><trkpt lat="43.01665" lon="11.3130233"><ele>294.0</ele><time>2026-04-18T09:11:37.768Z</time></trkpt><trkpt lat="43.0165367" lon="11.3131033"><ele>293.5</ele><time>2026-04-18T09:11:38.771Z</time></trkpt><trkpt lat="43.0164217" lon="11.3131633"><ele>293.0</ele><time>2026-04-18T09:11:39.77Z</time></trkpt><trkpt lat="43.016295" lon="11.3132"><ele>292.5</ele><time>2026-04-18T09:11:40.77Z</time></trkpt><trkpt lat="43.016155" lon="11.31318"><ele>292.0</ele><time>2026-04-18T09:11:41.768Z</time></trkpt><trkpt lat="43.0160233" lon="11.3131067"><ele>290.0</ele><time>2026-04-18T09:11:42.764Z</time></trkpt><trkpt lat="43.0158867" lon="11.31302"><ele>288.0</ele><time>2026-04-18T09:11:43.768Z</time></trkpt><trkpt lat="43.015755" lon="11.3129217"><ele>286.0</ele><time>2026-04-18T09:11:44.769Z</time></trkpt><trkpt lat="43.015625" lon="11.3128033"><ele>286.0</ele><time>2026-04-18T09:11:45.771Z</time></trkpt><trkpt lat="43.0154983" lon="11.31266"><ele>286.0</ele><time>2026-04-18T09:11:46.769Z</time></trkpt><trkpt lat="43.0153783" lon="11.3125033"><ele>286.0</ele><time>2026-04-18T09:11:47.771Z</time></trkpt><trkpt lat="43.0152633" lon="11.3123383"><ele>284.0</ele><time>2026-04-18T09:11:48.771Z</time></trkpt><trkpt lat="43.015145" lon="11.3121683"><ele>282.0</ele><time>2026-04-18T09:11:49.77Z</time></trkpt><trkpt lat="43.0150233" lon="11.3120083"><ele>280.0</ele><time>2026-04-18T09:11:50.766Z</time></trkpt><trkpt lat="43.0148967" lon="11.3118433"><ele>279.66666666666663</ele><time>2026-04-18T09:11:51.77Z</time></trkpt><trkpt lat="43.01477" lon="11.3116767"><ele>279.3333333333333</ele><time>2026-04-18T09:11:52.77Z</time></trkpt><trkpt lat="43.0146483" lon="11.311515"><ele>279.0</ele><time>2026-04-18T09:11:53.769Z</time></trkpt><trkpt lat="43.01453" lon="11.3113617"><ele>279.0</ele><time>2026-04-18T09:11:54.771Z</time></trkpt><trkpt lat="43.0144133" lon="11.3112183"><ele>279.0</ele><time>2026-04-18T09:11:55.77Z</time></trkpt><trkpt lat="43.014295" lon="11.3110967"><ele>279.0</ele><time>2026-04-18T09:11:56.769Z</time></trkpt><trkpt lat="43.0141683" lon="11.3110017"><ele>279.0</ele><time>2026-04-18T09:11:57.769Z</time></trkpt><trkpt lat="43.01403" lon="11.3109367"><ele>278.3333333333333</ele><time>2026-04-18T09:11:58.764Z</time></trkpt><trkpt lat="43.013885" lon="11.31088"><ele>277.66666666666663</ele><time>2026-04-18T09:11:59.771Z</time></trkpt><trkpt lat="43.01374" lon="11.3108117"><ele>277.0</ele><time>2026-04-18T09:12:00.773Z</time></trkpt><trkpt lat="43.0135933" lon="11.3107367"><ele>277.0</ele><time>2026-04-18T09:12:01.772Z</time></trkpt><trkpt lat="43.013445" lon="11.3106567"><ele>277.0</ele><time>2026-04-18T09:12:02.764Z</time></trkpt><trkpt lat="43.013295" lon="11.3105883"><ele>277.0</ele><time>2026-04-18T09:12:03.766Z</time></trkpt><trkpt lat="43.0131383" lon="11.310525"><ele>277.0</ele><time>2026-04-18T09:12:04.772Z</time></trkpt><trkpt lat="43.0129867" lon="11.3104583"><ele>277.0</ele><time>2026-04-18T09:12:05.77Z</time></trkpt><trkpt lat="43.0128433" lon="11.3103833"><ele>277.0</ele><time>2026-04-18T09:12:06.77Z</time></trkpt><trkpt lat="43.0127217" lon="11.310295"><ele>277.0</ele><time>2026-04-18T09:12:07.77Z</time></trkpt><trkpt lat="43.0126183" lon="11.3101883"><ele>277.0</ele><time>2026-04-18T09:12:08.769Z</time></trkpt><trkpt lat="43.0125383" lon="11.3100517"><ele>277.0</ele><time>2026-04-18T09:12:09.77Z</time></trkpt><trkpt lat="43.0124683" lon="11.3098867"><ele>277.0</ele><time>2026-04-18T09:12:10.759Z</time></trkpt><trkpt lat="43.0124033" lon="11.309705"><ele>276.5</ele><time>2026-04-18T09:12:11.769Z</time></trkpt><trkpt lat="43.01232" lon="11.30953"><ele>276.0</ele><time>2026-04-18T09:12:12.773Z</time></trkpt><trkpt lat="43.0122233" lon="11.3093767"><ele>275.5</ele><time>2026-04-18T09:12:13.771Z</time></trkpt><trkpt lat="43.0121033" lon="11.30927"><ele>275.0</ele><time>2026-04-18T09:12:14.77Z</time></trkpt><trkpt lat="43.0119667" lon="11.3092067"><ele>275.0</ele><time>2026-04-18T09:12:15.77Z</time></trkpt><trkpt lat="43.0118283" lon="11.30919"><ele>275.0</ele><time>2026-04-18T09:12:16.766Z</time></trkpt><trkpt lat="43.0116833" lon="11.3092217"><ele>275.0</ele><time>2026-04-18T09:12:17.767Z</time></trkpt><trkpt lat="43.0115467" lon="11.3092967"><ele>275.0</ele><time>2026-04-18T09:12:18.77Z</time></trkpt><trkpt lat="43.0114083" lon="11.3093867"><ele>275.0</ele><time>2026-04-18T09:12:19.768Z</time></trkpt><trkpt lat="43.0112733" lon="11.3094633"><ele>275.0</ele><time>2026-04-18T09:12:20.77Z</time></trkpt><trkpt lat="43.01113" lon="11.3095"><ele>275.0</ele><time>2026-04-18T09:12:21.77Z</time></trkpt><trkpt lat="43.0109817" lon="11.3095067"><ele>275.0</ele><time>2026-04-18T09:12:22.77Z</time></trkpt><trkpt lat="43.010825" lon="11.3094883"><ele>274.0</ele><time>2026-04-18T09:12:23.759Z</time></trkpt><trkpt lat="43.0106633" lon="11.3094567"><ele>273.0</ele><time>2026-04-18T09:12:24.759Z</time></trkpt><trkpt lat="43.0104933" lon="11.30942"><ele>272.0</ele><time>2026-04-18T09:12:25.765Z</time></trkpt><trkpt lat="43.010315" lon="11.3093767"><ele>272.0</ele><time>2026-04-18T09:12:26.766Z</time></trkpt><trkpt lat="43.0101233" lon="11.3093567"><ele>272.0</ele><time>2026-04-18T09:12:27.771Z</time></trkpt><trkpt lat="43.0099333" lon="11.30934"><ele>272.0</ele><time>2026-04-18T09:12:28.766Z</time></trkpt><trkpt lat="43.0097383" lon="11.3093233"><ele>270.0</ele><time>2026-04-18T09:12:29.768Z</time></trkpt><trkpt lat="43.009555" lon="11.3093233"><ele>268.0</ele><time>2026-04-18T09:12:30.772Z</time></trkpt><trkpt lat="43.009385" lon="11.3093167"><ele>266.0</ele><time>2026-04-18T09:12:31.771Z</time></trkpt><trkpt lat="43.0092083" lon="11.3093117"><ele>263.6666666666667</ele><time>2026-04-18T09:12:32.767Z</time></trkpt><trkpt lat="43.0090117" lon="11.3093067"><ele>261.3333333333333</ele><time>2026-04-18T09:12:33.769Z</time></trkpt><trkpt lat="43.0088083" lon="11.3093133"><ele>259.0</ele><time>2026-04-18T09:12:34.769Z</time></trkpt><trkpt lat="43.0086083" lon="11.3093233"><ele>259.0</ele><time>2026-04-18T09:12:35.771Z</time></trkpt><trkpt lat="43.0084117" lon="11.3093317"><ele>259.0</ele><time>2026-04-18T09:12:36.771Z</time></trkpt><trkpt lat="43.0082167" lon="11.30934"><ele>259.0</ele><time>2026-04-18T09:12:37.771Z</time></trkpt><trkpt lat="43.0080417" lon="11.3093533"><ele>257.0</ele><time>2026-04-18T09:12:38.771Z</time></trkpt><trkpt lat="43.0078683" lon="11.30937"><ele>255.0</ele><time>2026-04-18T09:12:39.771Z</time></trkpt><trkpt lat="43.0076933" lon="11.3093917"><ele>253.0</ele><time>2026-04-18T09:12:40.768Z</time></trkpt><trkpt lat="43.0075133" lon="11.3094083"><ele>250.66666666666666</ele><time>2026-04-18T09:12:41.77Z</time></trkpt><trkpt lat="43.0073317" lon="11.3094133"><ele>248.33333333333331</ele><time>2026-04-18T09:12:42.77Z</time></trkpt><trkpt lat="43.00715" lon="11.30942"><ele>246.0</ele><time>2026-04-18T09:12:43.77Z</time></trkpt><trkpt lat="43.0069633" lon="11.309415"><ele>246.0</ele><time>2026-04-18T09:12:44.77Z</time></trkpt><trkpt lat="43.0067633" lon="11.3094133"><ele>246.0</ele><time>2026-04-18T09:12:45.773Z</time></trkpt><trkpt lat="43.0065683" lon="11.30941"><ele>246.0</ele><time>2026-04-18T09:12:46.768Z</time></trkpt><trkpt lat="43.00637" lon="11.3094067"><ele>244.33333333333331</ele><time>2026-04-18T09:12:47.771Z</time></trkpt><trkpt lat="43.006175" lon="11.309405"><ele>242.66666666666666</ele><time>2026-04-18T09:12:48.773Z</time></trkpt><trkpt lat="43.0059833" lon="11.3094083"><ele>241.0</ele><time>2026-04-18T09:12:49.77Z</time></trkpt><trkpt lat="43.005795" lon="11.3094167"><ele>241.0</ele><time>2026-04-18T09:12:50.769Z</time></trkpt><trkpt lat="43.0056083" lon="11.3094267"><ele>241.0</ele><time>2026-04-18T09:12:51.771Z</time></trkpt><trkpt lat="43.0054233" lon="11.3094283"><ele>241.0</ele><time>2026-04-18T09:12:52.768Z</time></trkpt><trkpt lat="43.0052333" lon="11.3094267"><ele>241.0</ele><time>2026-04-18T09:12:53.77Z</time></trkpt><trkpt lat="43.0050483" lon="11.3094117"><ele>241.0</ele><time>2026-04-18T09:12:54.773Z</time></trkpt><trkpt lat="43.0048633" lon="11.3093917"><ele>241.0</ele><time>2026-04-18T09:12:55.769Z</time></trkpt><trkpt lat="43.00468" lon="11.3093683"><ele>242.66666666666666</ele><time>2026-04-18T09:12:56.771Z</time></trkpt><trkpt lat="43.0044967" lon="11.3093483"><ele>244.33333333333331</ele><time>2026-04-18T09:12:57.773Z</time></trkpt><trkpt lat="43.0043217" lon="11.309325"><ele>246.0</ele><time>2026-04-18T09:12:58.77Z</time></trkpt><trkpt lat="43.004145" lon="11.3093017"><ele>248.0</ele><time>2026-04-18T09:12:59.771Z</time></trkpt><trkpt lat="43.0039717" lon="11.309275"><ele>250.0</ele><time>2026-04-18T09:13:00.773Z</time></trkpt><trkpt lat="43.0038067" lon="11.3092583"><ele>252.0</ele><time>2026-04-18T09:13:01.767Z</time></trkpt><trkpt lat="43.0036417" lon="11.3092683"><ele>252.0</ele><time>2026-04-18T09:13:02.771Z</time></trkpt><trkpt lat="43.0034783" lon="11.3093"><ele>252.0</ele><time>2026-04-18T09:13:03.771Z</time></trkpt><trkpt lat="43.0033267" lon="11.30934"><ele>252.0</ele><time>2026-04-18T09:13:04.764Z</time></trkpt><trkpt lat="43.003175" lon="11.309385"><ele>251.0</ele><time>2026-04-18T09:13:05.769Z</time></trkpt><trkpt lat="43.0030217" lon="11.30941"><ele>250.0</ele><time>2026-04-18T09:13:06.77Z</time></trkpt><trkpt lat="43.0028583" lon="11.3094017"><ele>249.0</ele><time>2026-04-18T09:13:07.769Z</time></trkpt><trkpt lat="43.0026883" lon="11.309375"><ele>249.0</ele><time>2026-04-18T09:13:08.764Z</time></trkpt><trkpt lat="43.0025233" lon="11.3093383"><ele>249.0</ele><time>2026-04-18T09:13:09.768Z</time></trkpt><trkpt lat="43.0023683" lon="11.3092967"><ele>249.0</ele><time>2026-04-18T09:13:10.77Z</time></trkpt><trkpt lat="43.0022067" lon="11.3092867"><ele>247.33333333333331</ele><time>2026-04-18T09:13:11.769Z</time></trkpt><trkpt lat="43.002055" lon="11.3093017"><ele>245.66666666666666</ele><time>2026-04-18T09:13:12.772Z</time></trkpt><trkpt lat="43.0018883" lon="11.309355"><ele>244.0</ele><time>2026-04-18T09:13:13.771Z</time></trkpt><trkpt lat="43.00172" lon="11.309435"><ele>240.66666666666666</ele><time>2026-04-18T09:13:14.771Z</time></trkpt><trkpt lat="43.0015533" lon="11.30954"><ele>237.33333333333331</ele><time>2026-04-18T09:13:15.771Z</time></trkpt><trkpt lat="43.0013917" lon="11.30965"><ele>234.0</ele><time>2026-04-18T09:13:16.768Z</time></trkpt><trkpt lat="43.001225" lon="11.30977"><ele>234.0</ele><time>2026-04-18T09:13:17.765Z</time></trkpt><trkpt lat="43.00106" lon="11.3098817"><ele>234.0</ele><time>2026-04-18T09:13:18.771Z</time></trkpt><trkpt lat="43.0008833" lon="11.3099767"><ele>234.0</ele><time>2026-04-18T09:13:19.766Z</time></trkpt><trkpt lat="43.0007" lon="11.310065"><ele>233.33333333333331</ele><time>2026-04-18T09:13:20.764Z</time></trkpt><trkpt lat="43.00052" lon="11.3101467"><ele>232.66666666666666</ele><time>2026-04-18T09:13:21.77Z</time></trkpt><trkpt lat="43.0003333" lon="11.31023"><ele>232.0</ele><time>2026-04-18T09:13:22.765Z</time></trkpt><trkpt lat="43.000155" lon="11.3103233"><ele>232.0</ele><time>2026-04-18T09:13:23.766Z</time></trkpt><trkpt lat="42.99997" lon="11.3104183"><ele>232.0</ele><time>2026-04-18T09:13:24.773Z</time></trkpt><trkpt lat="42.9997867" lon="11.31051"><ele>232.0</ele><time>2026-04-18T09:13:25.77Z</time></trkpt><trkpt lat="42.9996" lon="11.3105917"><ele>230.0</ele><time>2026-04-18T09:13:26.77Z</time></trkpt><trkpt lat="42.9994117" lon="11.3106633"><ele>228.0</ele><time>2026-04-18T09:13:27.764Z</time></trkpt><trkpt lat="42.9992183" lon="11.3107183"><ele>226.0</ele><time>2026-04-18T09:13:28.768Z</time></trkpt><trkpt lat="42.99902" lon="11.3107517"><ele>224.66666666666666</ele><time>2026-04-18T09:13:29.769Z</time></trkpt><trkpt lat="42.9988183" lon="11.31076"><ele>223.33333333333331</ele><time>2026-04-18T09:13:30.77Z</time></trkpt><trkpt lat="42.9986183" lon="11.310765"><ele>222.0</ele><time>2026-04-18T09:13:31.771Z</time></trkpt><trkpt lat="42.9984233" lon="11.3107733"><ele>221.33333333333331</ele><time>2026-04-18T09:13:32.768Z</time></trkpt><trkpt lat="42.9982267" lon="11.3107767"><ele>220.66666666666666</ele><time>2026-04-18T09:13:33.771Z</time></trkpt><trkpt lat="42.998035" lon="11.3107817"><ele>220.0</ele><time>2026-04-18T09:13:34.769Z</time></trkpt><trkpt lat="42.99784" lon="11.3107883"><ele>220.0</ele><time>2026-04-18T09:13:35.769Z</time></trkpt><trkpt lat="42.997645" lon="11.3107933"><ele>220.0</ele><time>2026-04-18T09:13:36.77Z</time></trkpt><trkpt lat="42.9974533" lon="11.3107817"><ele>220.0</ele><time>2026-04-18T09:13:37.772Z</time></trkpt><trkpt lat="42.9972633" lon="11.3107633"><ele>221.0</ele><time>2026-04-18T09:13:38.769Z</time></trkpt><trkpt lat="42.9970767" lon="11.3107383"><ele>222.0</ele><time>2026-04-18T09:13:39.772Z</time></trkpt><trkpt lat="42.9968883" lon="11.3107117"><ele>223.0</ele><time>2026-04-18T09:13:40.767Z</time></trkpt><trkpt lat="42.9967" lon="11.3106883"><ele>222.66666666666666</ele><time>2026-04-18T09:13:41.771Z</time></trkpt><trkpt lat="42.9965067" lon="11.3106733"><ele>222.33333333333331</ele><time>2026-04-18T09:13:42.772Z</time></trkpt><trkpt lat="42.99632" lon="11.310665"><ele>222.0</ele><time>2026-04-18T09:13:43.77Z</time></trkpt><trkpt lat="42.9961367" lon="11.31067"><ele>222.0</ele><time>2026-04-18T09:13:44.769Z</time></trkpt><trkpt lat="42.9959517" lon="11.31069"><ele>222.0</ele><time>2026-04-18T09:13:45.77Z</time></trkpt><trkpt lat="42.9957583" lon="11.3107167"><ele>222.0</ele><time>2026-04-18T09:13:46.767Z</time></trkpt><trkpt lat="42.9955733" lon="11.3107633"><ele>220.33333333333331</ele><time>2026-04-18T09:13:47.77Z</time></trkpt><trkpt lat="42.9953867" lon="11.3108367"><ele>218.66666666666666</ele><time>2026-04-18T09:13:48.772Z</time></trkpt><trkpt lat="42.995205" lon="11.3109183"><ele>217.0</ele><time>2026-04-18T09:13:49.77Z</time></trkpt><trkpt lat="42.99502" lon="11.3110117"><ele>217.33333333333331</ele><time>2026-04-18T09:13:50.769Z</time></trkpt><trkpt lat="42.9948333" lon="11.3111083"><ele>217.66666666666669</ele><time>2026-04-18T09:13:51.772Z</time></trkpt><trkpt lat="42.9946433" lon="11.3112017"><ele>218.0</ele><time>2026-04-18T09:13:52.771Z</time></trkpt><trkpt lat="42.99445" lon="11.311275"><ele>218.0</ele><time>2026-04-18T09:13:53.768Z</time></trkpt><trkpt lat="42.9942567" lon="11.31132"><ele>218.0</ele><time>2026-04-18T09:13:54.771Z</time></trkpt><trkpt lat="42.9940633" lon="11.31133"><ele>218.0</ele><time>2026-04-18T09:13:55.77Z</time></trkpt><trkpt lat="42.99387" lon="11.3113133"><ele>216.66666666666669</ele><time>2026-04-18T09:13:56.769Z</time></trkpt><trkpt lat="42.993675" lon="11.3112783"><ele>215.33333333333331</ele><time>2026-04-18T09:13:57.769Z</time></trkpt><trkpt lat="42.9934867" lon="11.31122"><ele>214.0</ele><time>2026-04-18T09:13:58.768Z</time></trkpt><trkpt lat="42.9933" lon="11.3111483"><ele>211.0</ele><time>2026-04-18T09:13:59.772Z</time></trkpt><trkpt lat="42.9931133" lon="11.3110717"><ele>208.0</ele><time>2026-04-18T09:14:00.774Z</time></trkpt><trkpt lat="42.99293" lon="11.3110017"><ele>205.0</ele><time>2026-04-18T09:14:01.771Z</time></trkpt><trkpt lat="42.9927383" lon="11.31095"><ele>205.0</ele><time>2026-04-18T09:14:02.769Z</time></trkpt><trkpt lat="42.99255" lon="11.3109317"><ele>205.0</ele><time>2026-04-18T09:14:03.77Z</time></trkpt><trkpt lat="42.99236" lon="11.31094"><ele>205.0</ele><time>2026-04-18T09:14:04.766Z</time></trkpt><trkpt lat="42.9921717" lon="11.3109567"><ele>203.66666666666666</ele><time>2026-04-18T09:14:05.772Z</time></trkpt><trkpt lat="42.9919817" lon="11.3109717"><ele>202.33333333333331</ele><time>2026-04-18T09:14:06.769Z</time></trkpt><trkpt lat="42.9917883" lon="11.310985"><ele>201.0</ele><time>2026-04-18T09:14:07.77Z</time></trkpt><trkpt lat="42.9915967" lon="11.31099"><ele>199.66666666666669</ele><time>2026-04-18T09:14:08.77Z</time></trkpt><trkpt lat="42.9914033" lon="11.3109817"><ele>198.33333333333334</ele><time>2026-04-18T09:14:09.763Z</time></trkpt><trkpt lat="42.9912117" lon="11.3109567"><ele>197.0</ele><time>2026-04-18T09:14:10.772Z</time></trkpt><trkpt lat="42.9910167" lon="11.3109183"><ele>196.0</ele><time>2026-04-18T09:14:11.771Z</time></trkpt><trkpt lat="42.9908283" lon="11.3108617"><ele>195.0</ele><time>2026-04-18T09:14:12.766Z</time></trkpt><trkpt lat="42.99064" lon="11.3107933"><ele>194.0</ele><time>2026-04-18T09:14:13.77Z</time></trkpt><trkpt lat="42.990455" lon="11.3107183"><ele>194.0</ele><time>2026-04-18T09:14:14.769Z</time></trkpt><trkpt lat="42.9902717" lon="11.3106533"><ele>194.0</ele><time>2026-04-18T09:14:15.771Z</time></trkpt><trkpt lat="42.9900933" lon="11.310595"><ele>194.0</ele><time>2026-04-18T09:14:16.766Z</time></trkpt><trkpt lat="42.9899233" lon="11.3105433"><ele>193.33333333333334</ele><time>2026-04-18T09:14:17.772Z</time></trkpt><trkpt lat="42.989755" lon="11.31051"><ele>192.66666666666669</ele><time>2026-04-18T09:14:18.77Z</time></trkpt><trkpt lat="42.9895767" lon="11.3104833"><ele>192.0</ele><time>2026-04-18T09:14:19.772Z</time></trkpt><trkpt lat="42.9893933" lon="11.3104617"><ele>192.0</ele><time>2026-04-18T09:14:20.771Z</time></trkpt><trkpt lat="42.9892033" lon="11.3104483"><ele>192.0</ele><time>2026-04-18T09:14:21.771Z</time></trkpt><trkpt lat="42.9890083" lon="11.3104417"><ele>192.0</ele><time>2026-04-18T09:14:22.77Z</time></trkpt><trkpt lat="42.9888117" lon="11.3104417"><ele>191.66666666666666</ele><time>2026-04-18T09:14:23.771Z</time></trkpt><trkpt lat="42.988625" lon="11.3104383"><ele>191.33333333333331</ele><time>2026-04-18T09:14:24.773Z</time></trkpt><trkpt lat="42.98844" lon="11.3104333"><ele>191.0</ele><time>2026-04-18T09:14:25.77Z</time></trkpt><trkpt lat="42.988255" lon="11.3104317"><ele>191.0</ele><time>2026-04-18T09:14:26.768Z</time></trkpt><trkpt lat="42.9880767" lon="11.310425"><ele>191.0</ele><time>2026-04-18T09:14:27.77Z</time></trkpt><trkpt lat="42.9878933" lon="11.3104183"><ele>191.0</ele><time>2026-04-18T09:14:28.77Z</time></trkpt><trkpt lat="42.987705" lon="11.3104133"><ele>191.0</ele><time>2026-04-18T09:14:29.771Z</time></trkpt><trkpt lat="42.9875133" lon="11.3104217"><ele>191.0</ele><time>2026-04-18T09:14:30.773Z</time></trkpt><trkpt lat="42.9873233" lon="11.3104483"><ele>191.0</ele><time>2026-04-18T09:14:31.773Z</time></trkpt><trkpt lat="42.9871367" lon="11.3104933"><ele>188.33333333333331</ele><time>2026-04-18T09:14:32.769Z</time></trkpt><trkpt lat="42.98695" lon="11.3105433"><ele>185.66666666666666</ele><time>2026-04-18T09:14:33.769Z</time></trkpt><trkpt lat="42.9867617" lon="11.3105933"><ele>183.0</ele><time>2026-04-18T09:14:34.767Z</time></trkpt><trkpt lat="42.9865833" lon="11.3106417"><ele>181.33333333333334</ele><time>2026-04-18T09:14:35.769Z</time></trkpt><trkpt lat="42.9864033" lon="11.3107"><ele>179.66666666666669</ele><time>2026-04-18T09:14:36.77Z</time></trkpt><trkpt lat="42.9862283" lon="11.3107817"><ele>178.0</ele><time>2026-04-18T09:14:37.77Z</time></trkpt><trkpt lat="42.9860533" lon="11.3108783"><ele>178.0</ele><time>2026-04-18T09:14:38.771Z</time></trkpt><trkpt lat="42.9858833" lon="11.310985"><ele>178.0</ele><time>2026-04-18T09:14:39.77Z</time></trkpt><trkpt lat="42.9857183" lon="11.3110983"><ele>178.0</ele><time>2026-04-18T09:14:40.768Z</time></trkpt><trkpt lat="42.985555" lon="11.3112067"><ele>179.66666666666669</ele><time>2026-04-18T09:14:41.771Z</time></trkpt><trkpt lat="42.9853867" lon="11.3113067"><ele>181.33333333333334</ele><time>2026-04-18T09:14:42.764Z</time></trkpt><trkpt lat="42.985215" lon="11.311395"><ele>183.0</ele><time>2026-04-18T09:14:43.769Z</time></trkpt><trkpt lat="42.9850383" lon="11.3114683"><ele>183.0</ele><time>2026-04-18T09:14:44.764Z</time></trkpt><trkpt lat="42.9848533" lon="11.31153"><ele>183.0</ele><time>2026-04-18T09:14:45.766Z</time></trkpt><trkpt lat="42.9846667" lon="11.3115917"><ele>183.0</ele><time>2026-04-18T09:14:46.771Z</time></trkpt><trkpt lat="42.984485" lon="11.3116583"><ele>183.0</ele><time>2026-04-18T09:14:47.772Z</time></trkpt><trkpt lat="42.9843083" lon="11.3117233"><ele>183.0</ele><time>2026-04-18T09:14:48.771Z</time></trkpt><trkpt lat="42.9841417" lon="11.3117867"><ele>183.0</ele><time>2026-04-18T09:14:49.77Z</time></trkpt><trkpt lat="42.9839933" lon="11.311855"><ele>180.66666666666666</ele><time>2026-04-18T09:14:50.767Z</time></trkpt><trkpt lat="42.9838567" lon="11.311935"><ele>178.33333333333331</ele><time>2026-04-18T09:14:51.77Z</time></trkpt><trkpt lat="42.9837367" lon="11.31205"><ele>176.0</ele><time>2026-04-18T09:14:52.773Z</time></trkpt><trkpt lat="42.9836333" lon="11.3122133"><ele>177.0</ele><time>2026-04-18T09:14:53.77Z</time></trkpt><trkpt lat="42.9835533" lon="11.312415"><ele>178.0</ele><time>2026-04-18T09:14:54.772Z</time></trkpt><trkpt lat="42.983485" lon="11.312645"><ele>179.0</ele><time>2026-04-18T09:14:55.771Z</time></trkpt><trkpt lat="42.983425" lon="11.3128917"><ele>178.0</ele><time>2026-04-18T09:14:56.768Z</time></trkpt><trkpt lat="42.9833633" lon="11.3131467"><ele>177.0</ele><time>2026-04-18T09:14:57.771Z</time></trkpt><trkpt lat="42.9832983" lon="11.3133983"><ele>176.0</ele><time>2026-04-18T09:14:58.769Z</time></trkpt><trkpt lat="42.9832333" lon="11.313625"><ele>174.0</ele><time>2026-04-18T09:14:59.769Z</time></trkpt><trkpt lat="42.9831683" lon="11.3138317"><ele>172.0</ele><time>2026-04-18T09:15:00.771Z</time></trkpt><trkpt lat="42.9830833" lon="11.3140167"><ele>170.0</ele><time>2026-04-18T09:15:01.77Z</time></trkpt><trkpt lat="42.982975" lon="11.3141683"><ele>169.66666666666666</ele><time>2026-04-18T09:15:02.77Z</time></trkpt><trkpt lat="42.9828217" lon="11.3142883"><ele>169.33333333333334</ele><time>2026-04-18T09:15:03.769Z</time></trkpt><trkpt lat="42.98265" lon="11.3143783"><ele>169.0</ele><time>2026-04-18T09:15:04.767Z</time></trkpt><trkpt lat="42.9824583" lon="11.3144717"><ele>168.66666666666669</ele><time>2026-04-18T09:15:05.771Z</time></trkpt><trkpt lat="42.982265" lon="11.3145567"><ele>168.33333333333334</ele><time>2026-04-18T09:15:06.772Z</time></trkpt><trkpt lat="42.982075" lon="11.3146317"><ele>168.0</ele><time>2026-04-18T09:15:07.769Z</time></trkpt><trkpt lat="42.98188" lon="11.3146833"><ele>168.33333333333334</ele><time>2026-04-18T09:15:08.767Z</time></trkpt><trkpt lat="42.9816783" lon="11.3147133"><ele>168.66666666666669</ele><time>2026-04-18T09:15:09.771Z</time></trkpt><trkpt lat="42.98148" lon="11.31472"><ele>169.0</ele><time>2026-04-18T09:15:10.771Z</time></trkpt><trkpt lat="42.9812833" lon="11.314725"><ele>169.0</ele><time>2026-04-18T09:15:11.77Z</time></trkpt><trkpt lat="42.98109" lon="11.3147217"><ele>169.0</ele><time>2026-04-18T09:15:12.771Z</time></trkpt><trkpt lat="42.9809017" lon="11.3147183"><ele>169.0</ele><time>2026-04-18T09:15:13.77Z</time></trkpt><trkpt lat="42.9807167" lon="11.3147133"><ele>170.0</ele><time>2026-04-18T09:15:14.771Z</time></trkpt><trkpt lat="42.9805233" lon="11.3147083"><ele>171.0</ele><time>2026-04-18T09:15:15.772Z</time></trkpt><trkpt lat="42.9803383" lon="11.3147"><ele>172.0</ele><time>2026-04-18T09:15:16.768Z</time></trkpt><trkpt lat="42.9801533" lon="11.3147"><ele>175.0</ele><time>2026-04-18T09:15:17.769Z</time></trkpt><trkpt lat="42.9799717" lon="11.3146917"><ele>178.0</ele><time>2026-04-18T09:15:18.769Z</time></trkpt><trkpt lat="42.97979" lon="11.3146633"><ele>181.0</ele><time>2026-04-18T09:15:19.768Z</time></trkpt><trkpt lat="42.9796117" lon="11.3146183"><ele>181.0</ele><time>2026-04-18T09:15:20.768Z</time></trkpt><trkpt lat="42.9794333" lon="11.314565"><ele>181.0</ele><time>2026-04-18T09:15:21.771Z</time></trkpt><trkpt lat="42.9792633" lon="11.3145233"><ele>181.0</ele><time>2026-04-18T09:15:22.77Z</time></trkpt><trkpt lat="42.9790833" lon="11.3144833"><ele>181.66666666666669</ele><time>2026-04-18T09:15:23.768Z</time></trkpt><trkpt lat="42.9788983" lon="11.3144567"><ele>182.33333333333334</ele><time>2026-04-18T09:15:24.773Z</time></trkpt><trkpt lat="42.9787117" lon="11.3144333"><ele>183.0</ele><time>2026-04-18T09:15:25.771Z</time></trkpt><trkpt lat="42.9785217" lon="11.3144083"><ele>183.66666666666666</ele><time>2026-04-18T09:15:26.767Z</time></trkpt><trkpt lat="42.97833" lon="11.3143917"><ele>184.33333333333331</ele><time>2026-04-18T09:15:27.772Z</time></trkpt><trkpt lat="42.9781417" lon="11.3143767"><ele>185.0</ele><time>2026-04-18T09:15:28.768Z</time></trkpt><trkpt lat="42.977955" lon="11.3143567"><ele>185.0</ele><time>2026-04-18T09:15:29.768Z</time></trkpt><trkpt lat="42.97777" lon="11.3143317"><ele>185.0</ele><time>2026-04-18T09:15:30.773Z</time></trkpt><trkpt lat="42.97759" lon="11.3142883"><ele>185.0</ele><time>2026-04-18T09:15:31.769Z</time></trkpt><trkpt lat="42.9774117" lon="11.3142233"><ele>186.66666666666666</ele><time>2026-04-18T09:15:32.768Z</time></trkpt><trkpt lat="42.977245" lon="11.3141283"><ele>188.33333333333334</ele><time>2026-04-18T09:15:33.769Z</time></trkpt><trkpt lat="42.97709" lon="11.31401"><ele>190.0</ele><time>2026-04-18T09:15:34.77Z</time></trkpt><trkpt lat="42.9769417" lon="11.3138733"><ele>190.0</ele><time>2026-04-18T09:15:35.767Z</time></trkpt><trkpt lat="42.976785" lon="11.3137217"><ele>190.0</ele><time>2026-04-18T09:15:36.769Z</time></trkpt><trkpt lat="42.97662" lon="11.3135833"><ele>190.0</ele><time>2026-04-18T09:15:37.772Z</time></trkpt><trkpt lat="42.976455" lon="11.31345"><ele>194.33333333333334</ele><time>2026-04-18T09:15:38.768Z</time></trkpt><trkpt lat="42.976305" lon="11.31332"><ele>198.66666666666669</ele><time>2026-04-18T09:15:39.771Z</time></trkpt><trkpt lat="42.9761667" lon="11.3132183"><ele>203.0</ele><time>2026-04-18T09:15:40.767Z</time></trkpt><trkpt lat="42.9760133" lon="11.3131483"><ele>207.0</ele><time>2026-04-18T09:15:41.769Z</time></trkpt><trkpt lat="42.9758517" lon="11.3130983"><ele>211.0</ele><time>2026-04-18T09:15:42.772Z</time></trkpt><trkpt lat="42.975685" lon="11.3130967"><ele>215.0</ele><time>2026-04-18T09:15:43.771Z</time></trkpt><trkpt lat="42.9755417" lon="11.3131633"><ele>215.0</ele><time>2026-04-18T09:15:44.766Z</time></trkpt><trkpt lat="42.9753933" lon="11.313265"><ele>215.0</ele><time>2026-04-18T09:15:45.771Z</time></trkpt><trkpt lat="42.9752467" lon="11.3134133"><ele>215.0</ele><time>2026-04-18T09:15:46.769Z</time></trkpt><trkpt lat="42.9751333" lon="11.3136167"><ele>215.0</ele><time>2026-04-18T09:15:47.77Z</time></trkpt><trkpt lat="42.9750367" lon="11.3138233"><ele>215.0</ele><time>2026-04-18T09:15:48.771Z</time></trkpt><trkpt lat="42.9749433" lon="11.3140233"><ele>215.0</ele><time>2026-04-18T09:15:49.77Z</time></trkpt><trkpt lat="42.9748333" lon="11.3141817"><ele>216.0</ele><time>2026-04-18T09:15:50.769Z</time></trkpt><trkpt lat="42.9747033" lon="11.31431"><ele>217.0</ele><time>2026-04-18T09:15:51.769Z</time></trkpt><trkpt lat="42.9745533" lon="11.314395"><ele>218.0</ele><time>2026-04-18T09:15:52.77Z</time></trkpt><trkpt lat="42.9743717" lon="11.3144083"><ele>217.66666666666669</ele><time>2026-04-18T09:15:53.77Z</time></trkpt><trkpt lat="42.974175" lon="11.31438"><ele>217.33333333333331</ele><time>2026-04-18T09:15:54.773Z</time></trkpt><trkpt lat="42.9739683" lon="11.3142833"><ele>217.0</ele><time>2026-04-18T09:15:55.771Z</time></trkpt><trkpt lat="42.9737833" lon="11.3141667"><ele>217.0</ele><time>2026-04-18T09:15:56.768Z</time></trkpt><trkpt lat="42.9735933" lon="11.3140383"><ele>217.0</ele><time>2026-04-18T09:15:57.771Z</time></trkpt><trkpt lat="42.9734167" lon="11.3139017"><ele>217.0</ele><time>2026-04-18T09:15:58.771Z</time></trkpt><trkpt lat="42.9732367" lon="11.3137783"><ele>217.0</ele><time>2026-04-18T09:15:59.772Z</time></trkpt><trkpt lat="42.9730583" lon="11.31366"><ele>217.0</ele><time>2026-04-18T09:16:00.773Z</time></trkpt><trkpt lat="42.9728883" lon="11.3135433"><ele>217.0</ele><time>2026-04-18T09:16:01.771Z</time></trkpt><trkpt lat="42.97271" lon="11.31347"><ele>217.0</ele><time>2026-04-18T09:16:02.764Z</time></trkpt><trkpt lat="42.972535" lon="11.3134233"><ele>217.0</ele><time>2026-04-18T09:16:03.77Z</time></trkpt><trkpt lat="42.9723517" lon="11.3134283"><ele>217.0</ele><time>2026-04-18T09:16:04.77Z</time></trkpt><trkpt lat="42.97217" lon="11.3134867"><ele>215.66666666666666</ele><time>2026-04-18T09:16:05.77Z</time></trkpt><trkpt lat="42.9719967" lon="11.3135733"><ele>214.33333333333331</ele><time>2026-04-18T09:16:06.77Z</time></trkpt><trkpt lat="42.9718283" lon="11.3136433"><ele>213.0</ele><time>2026-04-18T09:16:07.769Z</time></trkpt><trkpt lat="42.9716583" lon="11.3136783"><ele>211.66666666666669</ele><time>2026-04-18T09:16:08.769Z</time></trkpt><trkpt lat="42.9714933" lon="11.31367"><ele>210.33333333333334</ele><time>2026-04-18T09:16:09.77Z</time></trkpt><trkpt lat="42.9713167" lon="11.3136017"><ele>209.0</ele><time>2026-04-18T09:16:10.77Z</time></trkpt><trkpt lat="42.9711367" lon="11.3135133"><ele>209.0</ele><time>2026-04-18T09:16:11.768Z</time></trkpt><trkpt lat="42.9709533" lon="11.3134133"><ele>209.0</ele><time>2026-04-18T09:16:12.772Z</time></trkpt><trkpt lat="42.9707733" lon="11.31331"><ele>209.0</ele><time>2026-04-18T09:16:13.77Z</time></trkpt><trkpt lat="42.9706067" lon="11.313195"><ele>207.0</ele><time>2026-04-18T09:16:14.768Z</time></trkpt><trkpt lat="42.9704333" lon="11.3130833"><ele>205.0</ele><time>2026-04-18T09:16:15.77Z</time></trkpt><trkpt lat="42.9702617" lon="11.3129617"><ele>203.0</ele><time>2026-04-18T09:16:16.771Z</time></trkpt><trkpt lat="42.9700917" lon="11.3128467"><ele>201.66666666666669</ele><time>2026-04-18T09:16:17.768Z</time></trkpt><trkpt lat="42.9699167" lon="11.3127367"><ele>200.33333333333331</ele><time>2026-04-18T09:16:18.77Z</time></trkpt><trkpt lat="42.9697317" lon="11.3126267"><ele>199.0</ele><time>2026-04-18T09:16:19.769Z</time></trkpt><trkpt lat="42.9695367" lon="11.3125267"><ele>199.0</ele><time>2026-04-18T09:16:20.769Z</time></trkpt><trkpt lat="42.9693483" lon="11.3124483"><ele>199.0</ele><time>2026-04-18T09:16:21.77Z</time></trkpt><trkpt lat="42.96915" lon="11.31237"><ele>199.0</ele><time>2026-04-18T09:16:22.769Z</time></trkpt><trkpt lat="42.9689533" lon="11.312295"><ele>198.0</ele><time>2026-04-18T09:16:23.771Z</time></trkpt><trkpt lat="42.9687467" lon="11.31222"><ele>197.0</ele><time>2026-04-18T09:16:24.771Z</time></trkpt><trkpt lat="42.968545" lon="11.312155"><ele>196.0</ele><time>2026-04-18T09:16:25.767Z</time></trkpt><trkpt lat="42.9683483" lon="11.3120783"><ele>196.0</ele><time>2026-04-18T09:16:26.768Z</time></trkpt><trkpt lat="42.9681583" lon="11.3120067"><ele>196.0</ele><time>2026-04-18T09:16:27.771Z</time></trkpt><trkpt lat="42.96797" lon="11.31194"><ele>196.0</ele><time>2026-04-18T09:16:28.77Z</time></trkpt><trkpt lat="42.9677867" lon="11.31188"><ele>196.0</ele><time>2026-04-18T09:16:29.767Z</time></trkpt><trkpt lat="42.967595" lon="11.3118217"><ele>196.0</ele><time>2026-04-18T09:16:30.768Z</time></trkpt><trkpt lat="42.9674017" lon="11.3117783"><ele>196.0</ele><time>2026-04-18T09:16:31.766Z</time></trkpt><trkpt lat="42.9672017" lon="11.3117483"><ele>195.0</ele><time>2026-04-18T09:16:32.768Z</time></trkpt><trkpt lat="42.96701" lon="11.3117283"><ele>194.0</ele><time>2026-04-18T09:16:33.767Z</time></trkpt><trkpt lat="42.966825" lon="11.3117183"><ele>193.0</ele><time>2026-04-18T09:16:34.767Z</time></trkpt><trkpt lat="42.9666517" lon="11.3116983"><ele>191.66666666666666</ele><time>2026-04-18T09:16:35.767Z</time></trkpt><trkpt lat="42.966485" lon="11.3116783"><ele>190.33333333333331</ele><time>2026-04-18T09:16:36.773Z</time></trkpt><trkpt lat="42.9663117" lon="11.3116517"><ele>189.0</ele><time>2026-04-18T09:16:37.772Z</time></trkpt><trkpt lat="42.96614" lon="11.311605"><ele>189.0</ele><time>2026-04-18T09:16:38.765Z</time></trkpt><trkpt lat="42.965965" lon="11.3115417"><ele>189.0</ele><time>2026-04-18T09:16:39.768Z</time></trkpt><trkpt lat="42.965795" lon="11.311465"><ele>189.0</ele><time>2026-04-18T09:16:40.771Z</time></trkpt><trkpt lat="42.9656317" lon="11.3113767"><ele>186.25</ele><time>2026-04-18T09:16:41.771Z</time></trkpt><trkpt lat="42.9654867" lon="11.3113033"><ele>183.5</ele><time>2026-04-18T09:16:42.77Z</time></trkpt><trkpt lat="42.9653433" lon="11.311265"><ele>180.75</ele><time>2026-04-18T09:16:43.771Z</time></trkpt><trkpt lat="42.9652067" lon="11.311265"><ele>178.0</ele><time>2026-04-18T09:16:44.766Z</time></trkpt><trkpt lat="42.965065" lon="11.3113183"><ele>177.33333333333334</ele><time>2026-04-18T09:16:45.77Z</time></trkpt><trkpt lat="42.9649217" lon="11.3114267"><ele>176.66666666666666</ele><time>2026-04-18T09:16:46.77Z</time></trkpt><trkpt lat="42.964795" lon="11.3115833"><ele>176.0</ele><time>2026-04-18T09:16:47.771Z</time></trkpt><trkpt lat="42.96467" lon="11.3117283"><ele>176.0</ele><time>2026-04-18T09:16:48.771Z</time></trkpt><trkpt lat="42.964545" lon="11.311855"><ele>176.0</ele><time>2026-04-18T09:16:49.767Z</time></trkpt><trkpt lat="42.9644" lon="11.3119567"><ele>176.0</ele><time>2026-04-18T09:16:50.77Z</time></trkpt><trkpt lat="42.964245" lon="11.3120167"><ele>172.66666666666666</ele><time>2026-04-18T09:16:51.771Z</time></trkpt><trkpt lat="42.9640767" lon="11.3120367"><ele>169.33333333333334</ele><time>2026-04-18T09:16:52.769Z</time></trkpt><trkpt lat="42.9639117" lon="11.31202"><ele>166.0</ele><time>2026-04-18T09:16:53.771Z</time></trkpt><trkpt lat="42.96376" lon="11.311955"><ele>166.0</ele><time>2026-04-18T09:16:54.773Z</time></trkpt><trkpt lat="42.9636133" lon="11.3118367"><ele>166.0</ele><time>2026-04-18T09:16:55.773Z</time></trkpt><trkpt lat="42.96348" lon="11.3116667"><ele>166.0</ele><time>2026-04-18T09:16:56.77Z</time></trkpt><trkpt lat="42.963375" lon="11.3114133"><ele>162.33333333333334</ele><time>2026-04-18T09:16:57.771Z</time></trkpt><trkpt lat="42.963295" lon="11.31115"><ele>158.66666666666666</ele><time>2026-04-18T09:16:58.765Z</time></trkpt><trkpt lat="42.9632083" lon="11.3109167"><ele>155.0</ele><time>2026-04-18T09:16:59.768Z</time></trkpt><trkpt lat="42.96312" lon="11.3106967"><ele>152.0</ele><time>2026-04-18T09:17:00.773Z</time></trkpt><trkpt lat="42.9630333" lon="11.31049"><ele>149.0</ele><time>2026-04-18T09:17:01.771Z</time></trkpt><trkpt lat="42.9629283" lon="11.3103067"><ele>146.0</ele><time>2026-04-18T09:17:02.77Z</time></trkpt><trkpt lat="42.9628" lon="11.3101617"><ele>146.0</ele><time>2026-04-18T09:17:03.771Z</time></trkpt><trkpt lat="42.9626533" lon="11.3100433"><ele>146.0</ele><time>2026-04-18T09:17:04.768Z</time></trkpt><trkpt lat="42.96249" lon="11.3099683"><ele>146.0</ele><time>2026-04-18T09:17:05.772Z</time></trkpt><trkpt lat="42.9623167" lon="11.3099383"><ele>147.66666666666666</ele><time>2026-04-18T09:17:06.773Z</time></trkpt><trkpt lat="42.96212" lon="11.3099517"><ele>149.33333333333334</ele><time>2026-04-18T09:17:07.772Z</time></trkpt><trkpt lat="42.9619233" lon="11.30995"><ele>151.0</ele><time>2026-04-18T09:17:08.771Z</time></trkpt><trkpt lat="42.96173" lon="11.309945"><ele>149.0</ele><time>2026-04-18T09:17:09.766Z</time></trkpt><trkpt lat="42.9615483" lon="11.30993"><ele>147.0</ele><time>2026-04-18T09:17:10.771Z</time></trkpt><trkpt lat="42.9613683" lon="11.3099117"><ele>145.0</ele><time>2026-04-18T09:17:11.771Z</time></trkpt><trkpt lat="42.9612017" lon="11.3098933"><ele>145.0</ele><time>2026-04-18T09:17:12.77Z</time></trkpt><trkpt lat="42.9610483" lon="11.309855"><ele>145.0</ele><time>2026-04-18T09:17:13.765Z</time></trkpt><trkpt lat="42.9609117" lon="11.30978"><ele>145.0</ele><time>2026-04-18T09:17:14.769Z</time></trkpt><trkpt lat="42.9607967" lon="11.3096467"><ele>142.33333333333334</ele><time>2026-04-18T09:17:15.771Z</time></trkpt><trkpt lat="42.9606967" lon="11.3095"><ele>139.66666666666666</ele><time>2026-04-18T09:17:16.769Z</time></trkpt><trkpt lat="42.9606017" lon="11.3093167"><ele>137.0</ele><time>2026-04-18T09:17:17.773Z</time></trkpt><trkpt lat="42.96051" lon="11.3091233"><ele>137.0</ele><time>2026-04-18T09:17:18.773Z</time></trkpt><trkpt lat="42.9604067" lon="11.3089367"><ele>137.0</ele><time>2026-04-18T09:17:19.768Z</time></trkpt><trkpt lat="42.9602783" lon="11.30878"><ele>137.0</ele><time>2026-04-18T09:17:20.767Z</time></trkpt><trkpt lat="42.9601217" lon="11.30865"><ele>133.33333333333331</ele><time>2026-04-18T09:17:21.77Z</time></trkpt><trkpt lat="42.9599483" lon="11.3085433"><ele>129.66666666666666</ele><time>2026-04-18T09:17:22.765Z</time></trkpt><trkpt lat="42.9597717" lon="11.30844"><ele>126.0</ele><time>2026-04-18T09:17:23.771Z</time></trkpt><trkpt lat="42.9595967" lon="11.30833"><ele>126.0</ele><time>2026-04-18T09:17:24.774Z</time></trkpt><trkpt lat="42.959425" lon="11.3082067"><ele>126.0</ele><time>2026-04-18T09:17:25.759Z</time></trkpt><trkpt lat="42.9592567" lon="11.308075"><ele>126.0</ele><time>2026-04-18T09:17:26.761Z</time></trkpt><trkpt lat="42.959085" lon="11.3079367"><ele>124.33333333333334</ele><time>2026-04-18T09:17:27.772Z</time></trkpt><trkpt lat="42.95892" lon="11.3077917"><ele>122.66666666666667</ele><time>2026-04-18T09:17:28.772Z</time></trkpt><trkpt lat="42.9587583" lon="11.3076467"><ele>121.0</ele><time>2026-04-18T09:17:29.77Z</time></trkpt><trkpt lat="42.9585967" lon="11.307505"><ele>121.0</ele><time>2026-04-18T09:17:30.772Z</time></trkpt><trkpt lat="42.958435" lon="11.307355"><ele>121.0</ele><time>2026-04-18T09:17:31.766Z</time></trkpt><trkpt lat="42.9582783" lon="11.3072117"><ele>121.0</ele><time>2026-04-18T09:17:32.771Z</time></trkpt><trkpt lat="42.9581117" lon="11.3070867"><ele>121.0</ele><time>2026-04-18T09:17:33.767Z</time></trkpt><trkpt lat="42.95794" lon="11.3069667"><ele>121.0</ele><time>2026-04-18T09:17:34.768Z</time></trkpt><trkpt lat="42.9577617" lon="11.3068567"><ele>121.0</ele><time>2026-04-18T09:17:35.771Z</time></trkpt><trkpt lat="42.957575" lon="11.30676"><ele>121.0</ele><time>2026-04-18T09:17:36.77Z</time></trkpt><trkpt lat="42.95739" lon="11.3066683"><ele>121.0</ele><time>2026-04-18T09:17:37.769Z</time></trkpt><trkpt lat="42.9572017" lon="11.3065717"><ele>121.0</ele><time>2026-04-18T09:17:38.77Z</time></trkpt><trkpt lat="42.9570083" lon="11.3064767"><ele>119.33333333333334</ele><time>2026-04-18T09:17:39.769Z</time></trkpt><trkpt lat="42.9568167" lon="11.3063717"><ele>117.66666666666666</ele><time>2026-04-18T09:17:40.766Z</time></trkpt><trkpt lat="42.9566283" lon="11.3062767"><ele>116.0</ele><time>2026-04-18T09:17:41.771Z</time></trkpt><trkpt lat="42.95644" lon="11.3061783"><ele>116.0</ele><time>2026-04-18T09:17:42.77Z</time></trkpt><trkpt lat="42.9562533" lon="11.30608"><ele>116.0</ele><time>2026-04-18T09:17:43.772Z</time></trkpt><trkpt lat="42.9560617" lon="11.305975"><ele>116.0</ele><time>2026-04-18T09:17:44.765Z</time></trkpt><trkpt lat="42.9558617" lon="11.3058817"><ele>115.66666666666666</ele><time>2026-04-18T09:17:45.77Z</time></trkpt><trkpt lat="42.9556517" lon="11.3058067"><ele>115.33333333333334</ele><time>2026-04-18T09:17:46.769Z</time></trkpt><trkpt lat="42.9554283" lon="11.3057467"><ele>115.0</ele><time>2026-04-18T09:17:47.771Z</time></trkpt><trkpt lat="42.9551883" lon="11.305695"><ele>114.0</ele><time>2026-04-18T09:17:48.773Z</time></trkpt><trkpt lat="42.9549517" lon="11.305645"><ele>113.0</ele><time>2026-04-18T09:17:49.771Z</time></trkpt><trkpt lat="42.9547317" lon="11.3055917"><ele>112.66666666666666</ele><time>2026-04-18T09:17:50.769Z</time></trkpt><trkpt lat="42.9545167" lon="11.3055417"><ele>112.33333333333334</ele><time>2026-04-18T09:17:51.771Z</time></trkpt><trkpt lat="42.9543133" lon="11.3054917"><ele>112.0</ele><time>2026-04-18T09:17:52.764Z</time></trkpt><trkpt lat="42.9541183" lon="11.3054517"><ele>111.0</ele><time>2026-04-18T09:17:53.769Z</time></trkpt><trkpt lat="42.953925" lon="11.305415"><ele>110.0</ele><time>2026-04-18T09:17:54.774Z</time></trkpt><trkpt lat="42.953735" lon="11.3053783"><ele>109.0</ele><time>2026-04-18T09:17:55.772Z</time></trkpt><trkpt lat="42.9535533" lon="11.3053483"><ele>108.33333333333334</ele><time>2026-04-18T09:17:56.768Z</time></trkpt><trkpt lat="42.9533717" lon="11.3053433"><ele>107.66666666666666</ele><time>2026-04-18T09:17:57.773Z</time></trkpt><trkpt lat="42.9531817" lon="11.305375"><ele>107.0</ele><time>2026-04-18T09:17:58.77Z</time></trkpt><trkpt lat="42.9529733" lon="11.305445"><ele>107.0</ele><time>2026-04-18T09:17:59.771Z</time></trkpt><trkpt lat="42.9527617" lon="11.3055383"><ele>107.0</ele><time>2026-04-18T09:18:00.771Z</time></trkpt><trkpt lat="42.9525517" lon="11.305635"><ele>107.0</ele><time>2026-04-18T09:18:01.77Z</time></trkpt><trkpt lat="42.9523533" lon="11.3057383"><ele>107.0</ele><time>2026-04-18T09:18:02.755Z</time></trkpt><trkpt lat="42.9521683" lon="11.3058267"><ele>107.0</ele><time>2026-04-18T09:18:03.771Z</time></trkpt><trkpt lat="42.9519933" lon="11.305895"><ele>107.0</ele><time>2026-04-18T09:18:04.771Z</time></trkpt><trkpt lat="42.95183" lon="11.3059283"><ele>105.66666666666666</ele><time>2026-04-18T09:18:05.766Z</time></trkpt><trkpt lat="42.9516633" lon="11.305925"><ele>104.33333333333334</ele><time>2026-04-18T09:18:06.772Z</time></trkpt><trkpt lat="42.9514917" lon="11.3058883"><ele>103.0</ele><time>2026-04-18T09:18:07.77Z</time></trkpt><trkpt lat="42.9513117" lon="11.3058333"><ele>103.0</ele><time>2026-04-18T09:18:08.765Z</time></trkpt><trkpt lat="42.951125" lon="11.3057683"><ele>103.0</ele><time>2026-04-18T09:18:09.766Z</time></trkpt><trkpt lat="42.950935" lon="11.3056983"><ele>103.0</ele><time>2026-04-18T09:18:10.772Z</time></trkpt><trkpt lat="42.9507467" lon="11.3056233"><ele>103.0</ele><time>2026-04-18T09:18:11.773Z</time></trkpt><trkpt lat="42.9505567" lon="11.3055367"><ele>103.0</ele><time>2026-04-18T09:18:12.771Z</time></trkpt><trkpt lat="42.9503767" lon="11.30542"><ele>103.0</ele><time>2026-04-18T09:18:13.771Z</time></trkpt><trkpt lat="42.9502033" lon="11.3052767"><ele>103.0</ele><time>2026-04-18T09:18:14.765Z</time></trkpt><trkpt lat="42.9500317" lon="11.3051233"><ele>103.0</ele><time>2026-04-18T09:18:15.771Z</time></trkpt><trkpt lat="42.94986" lon="11.3049633"><ele>103.0</ele><time>2026-04-18T09:18:16.768Z</time></trkpt><trkpt lat="42.949685" lon="11.3047983"><ele>102.66666666666667</ele><time>2026-04-18T09:18:17.77Z</time></trkpt><trkpt lat="42.9495067" lon="11.30463"><ele>102.33333333333334</ele><time>2026-04-18T09:18:18.771Z</time></trkpt><trkpt lat="42.9493217" lon="11.3044667"><ele>102.0</ele><time>2026-04-18T09:18:19.772Z</time></trkpt><trkpt lat="42.9491333" lon="11.3043033"><ele>101.66666666666666</ele><time>2026-04-18T09:18:20.771Z</time></trkpt><trkpt lat="42.948945" lon="11.3041383"><ele>101.33333333333333</ele><time>2026-04-18T09:18:21.768Z</time></trkpt><trkpt lat="42.9487567" lon="11.303975"><ele>101.0</ele><time>2026-04-18T09:18:22.765Z</time></trkpt><trkpt lat="42.9485667" lon="11.3038117"><ele>98.0</ele><time>2026-04-18T09:18:23.77Z</time></trkpt><trkpt lat="42.948375" lon="11.303645"><ele>95.0</ele><time>2026-04-18T09:18:24.773Z</time></trkpt><trkpt lat="42.9481783" lon="11.3034783"><ele>95.0</ele><time>2026-04-18T09:18:25.771Z</time></trkpt><trkpt lat="42.9479767" lon="11.3033117"><ele>95.0</ele><time>2026-04-18T09:18:26.771Z</time></trkpt><trkpt lat="42.947775" lon="11.3031567"><ele>93.33333333333334</ele><time>2026-04-18T09:18:27.77Z</time></trkpt><trkpt lat="42.9475767" lon="11.3030117"><ele>91.66666666666667</ele><time>2026-04-18T09:18:28.769Z</time></trkpt><trkpt lat="42.9473867" lon="11.302875"><ele>90.0</ele><time>2026-04-18T09:18:29.768Z</time></trkpt><trkpt lat="42.94721" lon="11.30273"><ele>90.0</ele><time>2026-04-18T09:18:30.771Z</time></trkpt><trkpt lat="42.9470467" lon="11.3025783"><ele>90.0</ele><time>2026-04-18T09:18:31.771Z</time></trkpt><trkpt lat="42.9468967" lon="11.3024167"><ele>90.0</ele><time>2026-04-18T09:18:32.768Z</time></trkpt><trkpt lat="42.9467617" lon="11.30225"><ele>88.33333333333333</ele><time>2026-04-18T09:18:33.77Z</time></trkpt><trkpt lat="42.9466367" lon="11.3020767"><ele>86.66666666666666</ele><time>2026-04-18T09:18:34.771Z</time></trkpt><trkpt lat="42.9465133" lon="11.3018967"><ele>85.0</ele><time>2026-04-18T09:18:35.771Z</time></trkpt><trkpt lat="42.9463933" lon="11.3017017"><ele>85.0</ele><time>2026-04-18T09:18:36.773Z</time></trkpt><trkpt lat="42.94627" lon="11.3014967"><ele>85.0</ele><time>2026-04-18T09:18:37.771Z</time></trkpt><trkpt lat="42.9461483" lon="11.301285"><ele>85.0</ele><time>2026-04-18T09:18:38.77Z</time></trkpt><trkpt lat="42.9460267" lon="11.3010783"><ele>84.33333333333333</ele><time>2026-04-18T09:18:39.768Z</time></trkpt><trkpt lat="42.94591" lon="11.3008783"><ele>83.66666666666667</ele><time>2026-04-18T09:18:40.768Z</time></trkpt><trkpt lat="42.9457933" lon="11.3006817"><ele>83.0</ele><time>2026-04-18T09:18:41.769Z</time></trkpt><trkpt lat="42.9456783" lon="11.30048"><ele>81.33333333333334</ele><time>2026-04-18T09:18:42.771Z</time></trkpt><trkpt lat="42.945565" lon="11.3002767"><ele>79.66666666666667</ele><time>2026-04-18T09:18:43.769Z</time></trkpt><trkpt lat="42.9454483" lon="11.3000783"><ele>78.0</ele><time>2026-04-18T09:18:44.769Z</time></trkpt><trkpt lat="42.94533" lon="11.2998833"><ele>76.66666666666667</ele><time>2026-04-18T09:18:45.767Z</time></trkpt><trkpt lat="42.9452167" lon="11.299695"><ele>75.33333333333334</ele><time>2026-04-18T09:18:46.765Z</time></trkpt><trkpt lat="42.9451033" lon="11.299525"><ele>74.0</ele><time>2026-04-18T09:18:47.77Z</time></trkpt><trkpt lat="42.9450017" lon="11.2993783"><ele>74.0</ele><time>2026-04-18T09:18:48.772Z</time></trkpt><trkpt lat="42.944895" lon="11.2992667"><ele>74.0</ele><time>2026-04-18T09:18:49.77Z</time></trkpt><trkpt lat="42.9447867" lon="11.2991883"><ele>74.0</ele><time>2026-04-18T09:18:50.767Z</time></trkpt><trkpt lat="42.9446717" lon="11.29915"><ele>74.0</ele><time>2026-04-18T09:18:51.771Z</time></trkpt><trkpt lat="42.9445633" lon="11.2991317"><ele>74.0</ele><time>2026-04-18T09:18:52.765Z</time></trkpt><trkpt lat="42.9444717" lon="11.2991183"><ele>74.0</ele><time>2026-04-18T09:18:53.768Z</time></trkpt><trkpt lat="42.94439" lon="11.29911"><ele>74.0</ele><time>2026-04-18T09:18:54.769Z</time></trkpt><trkpt lat="42.9443267" lon="11.299105"><ele>74.0</ele><time>2026-04-18T09:18:55.771Z</time></trkpt><trkpt lat="42.9442333" lon="11.2991183"><ele>74.0</ele><time>2026-04-18T09:18:57.772Z</time></trkpt><trkpt lat="42.944175" lon="11.2991567"><ele>74.0</ele><time>2026-04-18T09:18:59.77Z</time></trkpt><trkpt lat="42.9441383" lon="11.299265"><ele>74.75</ele><time>2026-04-18T09:19:01.769Z</time></trkpt><trkpt lat="42.9441233" lon="11.2993783"><ele>75.5</ele><time>2026-04-18T09:19:02.769Z</time></trkpt><trkpt lat="42.9441167" lon="11.299555"><ele>76.25</ele><time>2026-04-18T09:19:03.768Z</time></trkpt><trkpt lat="42.94414" lon="11.2998033"><ele>77.0</ele><time>2026-04-18T09:19:04.768Z</time></trkpt><trkpt lat="42.94424" lon="11.30036"><ele>79.5</ele><time>2026-04-18T09:19:05.767Z</time></trkpt><trkpt lat="42.9443117" lon="11.30085"><ele>82.0</ele><time>2026-04-18T09:19:06.771Z</time></trkpt><trkpt lat="42.9443767" lon="11.301305"><ele>82.5</ele><time>2026-04-18T09:19:07.769Z</time></trkpt><trkpt lat="42.944475" lon="11.30183"><ele>83.0</ele><time>2026-04-18T09:19:08.768Z</time></trkpt><trkpt lat="42.9445167" lon="11.3023083"><ele>84.0</ele><time>2026-04-18T09:19:09.769Z</time></trkpt><trkpt lat="42.94456" lon="11.3027983"><ele>85.0</ele><time>2026-04-18T09:19:10.769Z</time></trkpt><trkpt lat="42.9446117" lon="11.3032383"><ele>86.0</ele><time>2026-04-18T09:19:11.77Z</time></trkpt><trkpt lat="42.9446683" lon="11.30365"><ele>87.0</ele><time>2026-04-18T09:19:12.769Z</time></trkpt><trkpt lat="42.9447083" lon="11.30404"><ele>87.5</ele><time>2026-04-18T09:19:13.766Z</time></trkpt><trkpt lat="42.9447433" lon="11.3044167"><ele>88.0</ele><time>2026-04-18T09:19:14.768Z</time></trkpt><trkpt lat="42.94478" lon="11.3047883"><ele>89.5</ele><time>2026-04-18T09:19:15.77Z</time></trkpt><trkpt lat="42.9448167" lon="11.305175"><ele>91.0</ele><time>2026-04-18T09:19:16.768Z</time></trkpt><trkpt lat="42.94485" lon="11.3056017"><ele>91.5</ele><time>2026-04-18T09:19:17.767Z</time></trkpt><trkpt lat="42.944885" lon="11.3060767"><ele>92.0</ele><time>2026-04-18T09:19:18.773Z</time></trkpt><trkpt lat="42.944915" lon="11.3065467"><ele>93.0</ele><time>2026-04-18T09:19:19.771Z</time></trkpt><trkpt lat="42.94495" lon="11.30698"><ele>94.0</ele><time>2026-04-18T09:19:20.767Z</time></trkpt><trkpt lat="42.9449733" lon="11.3073683"><ele>94.5</ele><time>2026-04-18T09:19:21.769Z</time></trkpt><trkpt lat="42.9450183" lon="11.3077217"><ele>95.0</ele><time>2026-04-18T09:19:22.77Z</time></trkpt><trkpt lat="42.945075" lon="11.3080483"><ele>96.0</ele><time>2026-04-18T09:19:23.77Z</time></trkpt><trkpt lat="42.9451383" lon="11.30834"><ele>97.0</ele><time>2026-04-18T09:19:24.771Z</time></trkpt><trkpt lat="42.9452" lon="11.30861"><ele>98.0</ele><time>2026-04-18T09:19:25.771Z</time></trkpt><trkpt lat="42.945275" lon="11.3088667"><ele>98.66666666666666</ele><time>2026-04-18T09:19:26.771Z</time></trkpt><trkpt lat="42.9453583" lon="11.309115"><ele>99.33333333333334</ele><time>2026-04-18T09:19:27.77Z</time></trkpt><trkpt lat="42.9454567" lon="11.3093567"><ele>100.0</ele><time>2026-04-18T09:19:28.765Z</time></trkpt><trkpt lat="42.9455667" lon="11.3095983"><ele>99.66666666666667</ele><time>2026-04-18T09:19:29.77Z</time></trkpt><trkpt lat="42.9456933" lon="11.3098317"><ele>99.33333333333334</ele><time>2026-04-18T09:19:30.771Z</time></trkpt><trkpt lat="42.9458317" lon="11.3100583"><ele>99.0</ele><time>2026-04-18T09:19:31.771Z</time></trkpt><trkpt lat="42.9459783" lon="11.310275"><ele>98.66666666666666</ele><time>2026-04-18T09:19:32.765Z</time></trkpt><trkpt lat="42.946125" lon="11.31048"><ele>98.33333333333333</ele><time>2026-04-18T09:19:33.768Z</time></trkpt><trkpt lat="42.946265" lon="11.3106767"><ele>98.0</ele><time>2026-04-18T09:19:34.77Z</time></trkpt><trkpt lat="42.9463983" lon="11.310865"><ele>98.0</ele><time>2026-04-18T09:19:35.771Z</time></trkpt><trkpt lat="42.9465233" lon="11.3110433"><ele>98.0</ele><time>2026-04-18T09:19:36.772Z</time></trkpt><trkpt lat="42.9466417" lon="11.3112183"><ele>98.0</ele><time>2026-04-18T09:19:37.771Z</time></trkpt><trkpt lat="42.9467517" lon="11.311395"><ele>94.66666666666666</ele><time>2026-04-18T09:19:38.77Z</time></trkpt><trkpt lat="42.9468517" lon="11.3115767"><ele>91.33333333333333</ele><time>2026-04-18T09:19:39.77Z</time></trkpt><trkpt lat="42.9469433" lon="11.3117783"><ele>88.0</ele><time>2026-04-18T09:19:40.768Z</time></trkpt><trkpt lat="42.947025" lon="11.3119967"><ele>88.0</ele><time>2026-04-18T09:19:41.771Z</time></trkpt><trkpt lat="42.9470917" lon="11.3122333"><ele>88.0</ele><time>2026-04-18T09:19:42.772Z</time></trkpt><trkpt lat="42.9471417" lon="11.31248"><ele>88.0</ele><time>2026-04-18T09:19:43.77Z</time></trkpt><trkpt lat="42.9471883" lon="11.3127217"><ele>88.0</ele><time>2026-04-18T09:19:44.765Z</time></trkpt><trkpt lat="42.94722" lon="11.3129617"><ele>88.0</ele><time>2026-04-18T09:19:45.772Z</time></trkpt><trkpt lat="42.9472383" lon="11.3132"><ele>88.0</ele><time>2026-04-18T09:19:46.77Z</time></trkpt><trkpt lat="42.9472467" lon="11.3134333"><ele>88.66666666666666</ele><time>2026-04-18T09:19:47.771Z</time></trkpt><trkpt lat="42.9472467" lon="11.31366"><ele>89.33333333333333</ele><time>2026-04-18T09:19:48.77Z</time></trkpt><trkpt lat="42.9472217" lon="11.3138883"><ele>90.0</ele><time>2026-04-18T09:19:49.77Z</time></trkpt><trkpt lat="42.9471767" lon="11.3141183"><ele>90.0</ele><time>2026-04-18T09:19:50.771Z</time></trkpt><trkpt lat="42.947105" lon="11.3143417"><ele>90.0</ele><time>2026-04-18T09:19:51.772Z</time></trkpt><trkpt lat="42.9470033" lon="11.31456"><ele>90.0</ele><time>2026-04-18T09:19:52.772Z</time></trkpt><trkpt lat="42.9468867" lon="11.3147767"><ele>90.0</ele><time>2026-04-18T09:19:53.77Z</time></trkpt><trkpt lat="42.9467633" lon="11.315"><ele>90.0</ele><time>2026-04-18T09:19:54.769Z</time></trkpt><trkpt lat="42.9466417" lon="11.3152433"><ele>90.0</ele><time>2026-04-18T09:19:55.772Z</time></trkpt><trkpt lat="42.94653" lon="11.3155"><ele>89.0</ele><time>2026-04-18T09:19:56.77Z</time></trkpt><trkpt lat="42.94642" lon="11.315755"><ele>88.0</ele><time>2026-04-18T09:19:57.769Z</time></trkpt><trkpt lat="42.9463083" lon="11.3160033"><ele>87.0</ele><time>2026-04-18T09:19:58.77Z</time></trkpt><trkpt lat="42.94619" lon="11.3162567"><ele>84.5</ele><time>2026-04-18T09:19:59.766Z</time></trkpt><trkpt lat="42.9460683" lon="11.3165317"><ele>82.0</ele><time>2026-04-18T09:20:00.774Z</time></trkpt><trkpt lat="42.9459433" lon="11.3168333"><ele>84.0</ele><time>2026-04-18T09:20:01.766Z</time></trkpt><trkpt lat="42.9458367" lon="11.3171483"><ele>86.0</ele><time>2026-04-18T09:20:02.765Z</time></trkpt><trkpt lat="42.9457483" lon="11.317455"><ele>86.0</ele><time>2026-04-18T09:20:03.771Z</time></trkpt><trkpt lat="42.945665" lon="11.3177517"><ele>86.0</ele><time>2026-04-18T09:20:04.766Z</time></trkpt><trkpt lat="42.94559" lon="11.3180183"><ele>86.0</ele><time>2026-04-18T09:20:05.766Z</time></trkpt><trkpt lat="42.9455183" lon="11.3182567"><ele>84.0</ele><time>2026-04-18T09:20:06.772Z</time></trkpt><trkpt lat="42.9454433" lon="11.318475"><ele>82.0</ele><time>2026-04-18T09:20:07.767Z</time></trkpt><trkpt lat="42.9453567" lon="11.3186783"><ele>80.0</ele><time>2026-04-18T09:20:08.76Z</time></trkpt><trkpt lat="42.945255" lon="11.3188867"><ele>81.0</ele><time>2026-04-18T09:20:09.77Z</time></trkpt><trkpt lat="42.9451567" lon="11.3190917"><ele>82.0</ele><time>2026-04-18T09:20:10.766Z</time></trkpt><trkpt lat="42.94506" lon="11.3192983"><ele>83.0</ele><time>2026-04-18T09:20:11.767Z</time></trkpt><trkpt lat="42.94497" lon="11.3195067"><ele>83.0</ele><time>2026-04-18T09:20:12.772Z</time></trkpt><trkpt lat="42.944885" lon="11.31969"><ele>83.0</ele><time>2026-04-18T09:20:13.771Z</time></trkpt><trkpt lat="42.9448" lon="11.3198767"><ele>83.0</ele><time>2026-04-18T09:20:14.77Z</time></trkpt><trkpt lat="42.9447067" lon="11.32005"><ele>80.75</ele><time>2026-04-18T09:20:15.769Z</time></trkpt><trkpt lat="42.9446" lon="11.3201867"><ele>78.5</ele><time>2026-04-18T09:20:16.764Z</time></trkpt><trkpt lat="42.9444783" lon="11.3202833"><ele>76.25</ele><time>2026-04-18T09:20:17.77Z</time></trkpt><trkpt lat="42.94435" lon="11.3203467"><ele>74.0</ele><time>2026-04-18T09:20:18.772Z</time></trkpt><trkpt lat="42.944235" lon="11.3204133"><ele>73.5</ele><time>2026-04-18T09:20:19.765Z</time></trkpt><trkpt lat="42.9441167" lon="11.32047"><ele>73.0</ele><time>2026-04-18T09:20:20.765Z</time></trkpt><trkpt lat="42.9440067" lon="11.32053"><ele>72.5</ele><time>2026-04-18T09:20:21.766Z</time></trkpt><trkpt lat="42.9439017" lon="11.3206017"><ele>72.0</ele><time>2026-04-18T09:20:22.77Z</time></trkpt><trkpt lat="42.943835" lon="11.3206933"><ele>72.0</ele><time>2026-04-18T09:20:23.77Z</time></trkpt><trkpt lat="42.9437617" lon="11.3207717"><ele>72.0</ele><time>2026-04-18T09:20:24.772Z</time></trkpt><trkpt lat="42.9436733" lon="11.320865"><ele>72.0</ele><time>2026-04-18T09:20:25.766Z</time></trkpt><trkpt lat="42.9435767" lon="11.3210017"><ele>72.0</ele><time>2026-04-18T09:20:26.77Z</time></trkpt><trkpt lat="42.943465" lon="11.3211667"><ele>73.0</ele><time>2026-04-18T09:20:27.769Z</time></trkpt><trkpt lat="42.9433283" lon="11.3213583"><ele>74.0</ele><time>2026-04-18T09:20:28.766Z</time></trkpt><trkpt lat="42.9431833" lon="11.321525"><ele>75.0</ele><time>2026-04-18T09:20:29.767Z</time></trkpt><trkpt lat="42.9430067" lon="11.3216733"><ele>71.5</ele><time>2026-04-18T09:20:30.77Z</time></trkpt><trkpt lat="42.9428067" lon="11.321815"><ele>68.0</ele><time>2026-04-18T09:20:31.77Z</time></trkpt><trkpt lat="42.9425733" lon="11.3219333"><ele>66.33333333333334</ele><time>2026-04-18T09:20:32.768Z</time></trkpt><trkpt lat="42.94236" lon="11.3220567"><ele>64.66666666666667</ele><time>2026-04-18T09:20:33.769Z</time></trkpt><trkpt lat="42.9421633" lon="11.3221667"><ele>63.0</ele><time>2026-04-18T09:20:34.769Z</time></trkpt><trkpt lat="42.9419983" lon="11.322305"><ele>63.0</ele><time>2026-04-18T09:20:35.77Z</time></trkpt><trkpt lat="42.9418183" lon="11.32242"><ele>63.0</ele><time>2026-04-18T09:20:36.77Z</time></trkpt><trkpt lat="42.9416667" lon="11.32254"><ele>63.0</ele><time>2026-04-18T09:20:37.771Z</time></trkpt><trkpt lat="42.9415233" lon="11.3226433"><ele>65.0</ele><time>2026-04-18T09:20:38.77Z</time></trkpt><trkpt lat="42.9413817" lon="11.3227217"><ele>67.0</ele><time>2026-04-18T09:20:39.77Z</time></trkpt><trkpt lat="42.9412517" lon="11.3228"><ele>69.0</ele><time>2026-04-18T09:20:40.77Z</time></trkpt><trkpt lat="42.9411367" lon="11.3228967"><ele>71.0</ele><time>2026-04-18T09:20:41.77Z</time></trkpt><trkpt lat="42.94103" lon="11.3230167"><ele>71.33333333333334</ele><time>2026-04-18T09:20:42.773Z</time></trkpt><trkpt lat="42.94092" lon="11.3231983"><ele>71.66666666666667</ele><time>2026-04-18T09:20:43.771Z</time></trkpt><trkpt lat="42.9408" lon="11.3234317"><ele>72.0</ele><time>2026-04-18T09:20:44.769Z</time></trkpt><trkpt lat="42.9406883" lon="11.323645"><ele>72.0</ele><time>2026-04-18T09:20:45.766Z</time></trkpt><trkpt lat="42.940565" lon="11.3238433"><ele>72.0</ele><time>2026-04-18T09:20:46.77Z</time></trkpt><trkpt lat="42.9404283" lon="11.3240167"><ele>72.0</ele><time>2026-04-18T09:20:47.771Z</time></trkpt><trkpt lat="42.94026" lon="11.3241733"><ele>71.5</ele><time>2026-04-18T09:20:48.773Z</time></trkpt><trkpt lat="42.9400333" lon="11.3243"><ele>71.0</ele><time>2026-04-18T09:20:49.773Z</time></trkpt><trkpt lat="42.9398233" lon="11.32446"><ele>71.0</ele><time>2026-04-18T09:20:50.77Z</time></trkpt><trkpt lat="42.939585" lon="11.324625"><ele>71.0</ele><time>2026-04-18T09:20:51.769Z</time></trkpt><trkpt lat="42.93936" lon="11.3247817"><ele>71.0</ele><time>2026-04-18T09:20:52.769Z</time></trkpt><trkpt lat="42.9391667" lon="11.324895"><ele>71.0</ele><time>2026-04-18T09:20:53.772Z</time></trkpt><trkpt lat="42.938985" lon="11.3249783"><ele>71.0</ele><time>2026-04-18T09:20:54.772Z</time></trkpt><trkpt lat="42.9387967" lon="11.3250283"><ele>71.0</ele><time>2026-04-18T09:20:55.771Z</time></trkpt><trkpt lat="42.9385983" lon="11.3250083"><ele>71.0</ele><time>2026-04-18T09:20:56.766Z</time></trkpt><trkpt lat="42.93841" lon="11.3249383"><ele>71.0</ele><time>2026-04-18T09:20:57.768Z</time></trkpt><trkpt lat="42.9382283" lon="11.3248267"><ele>78.0</ele><time>2026-04-18T09:20:58.768Z</time></trkpt><trkpt lat="42.9380267" lon="11.324675"><ele>85.0</ele><time>2026-04-18T09:20:59.768Z</time></trkpt><trkpt lat="42.9377733" lon="11.32445"><ele>86.0</ele><time>2026-04-18T09:21:00.771Z</time></trkpt><trkpt lat="42.9375183" lon="11.32415"><ele>87.0</ele><time>2026-04-18T09:21:01.769Z</time></trkpt><trkpt lat="42.9372433" lon="11.32386"><ele>87.0</ele><time>2026-04-18T09:21:02.766Z</time></trkpt><trkpt lat="42.9369883" lon="11.323655"><ele>87.0</ele><time>2026-04-18T09:21:03.771Z</time></trkpt><trkpt lat="42.9367917" lon="11.3234867"><ele>87.33333333333333</ele><time>2026-04-18T09:21:04.765Z</time></trkpt><trkpt lat="42.9366233" lon="11.32333"><ele>87.66666666666666</ele><time>2026-04-18T09:21:05.771Z</time></trkpt><trkpt lat="42.9364817" lon="11.323175"><ele>88.0</ele><time>2026-04-18T09:21:06.773Z</time></trkpt><trkpt lat="42.9363517" lon="11.3229883"><ele>88.0</ele><time>2026-04-18T09:21:07.769Z</time></trkpt><trkpt lat="42.936225" lon="11.3227917"><ele>88.0</ele><time>2026-04-18T09:21:08.768Z</time></trkpt><trkpt lat="42.9360883" lon="11.322605"><ele>88.0</ele><time>2026-04-18T09:21:09.77Z</time></trkpt><trkpt lat="42.9359433" lon="11.3224383"><ele>90.33333333333333</ele><time>2026-04-18T09:21:10.771Z</time></trkpt><trkpt lat="42.935795" lon="11.3222717"><ele>92.66666666666667</ele><time>2026-04-18T09:21:11.769Z</time></trkpt><trkpt lat="42.935655" lon="11.322105"><ele>95.0</ele><time>2026-04-18T09:21:12.764Z</time></trkpt><trkpt lat="42.9355217" lon="11.3219483"><ele>95.0</ele><time>2026-04-18T09:21:13.764Z</time></trkpt><trkpt lat="42.9354083" lon="11.3218"><ele>95.0</ele><time>2026-04-18T09:21:14.764Z</time></trkpt><trkpt lat="42.9353117" lon="11.3216733"><ele>95.0</ele><time>2026-04-18T09:21:15.769Z</time></trkpt><trkpt lat="42.9352217" lon="11.3215917"><ele>95.0</ele><time>2026-04-18T09:21:16.767Z</time></trkpt><trkpt lat="42.93514" lon="11.321545"><ele>95.0</ele><time>2026-04-18T09:21:17.771Z</time></trkpt><trkpt lat="42.9350667" lon="11.32153"><ele>95.0</ele><time>2026-04-18T09:21:18.771Z</time></trkpt><trkpt lat="42.93498" lon="11.3215483"><ele>95.0</ele><time>2026-04-18T09:21:19.768Z</time></trkpt><trkpt lat="42.9349017" lon="11.321615"><ele>95.0</ele><time>2026-04-18T09:21:20.769Z</time></trkpt><trkpt lat="42.9348267" lon="11.32174"><ele>95.0</ele><time>2026-04-18T09:21:21.769Z</time></trkpt><trkpt lat="42.934745" lon="11.3219017"><ele>87.5</ele><time>2026-04-18T09:21:22.77Z</time></trkpt><trkpt lat="42.9346583" lon="11.3220667"><ele>80.0</ele><time>2026-04-18T09:21:23.771Z</time></trkpt><trkpt lat="42.9345683" lon="11.3222383"><ele>72.5</ele><time>2026-04-18T09:21:24.771Z</time></trkpt><trkpt lat="42.934495" lon="11.3223633"><ele>65.0</ele><time>2026-04-18T09:21:25.765Z</time></trkpt><trkpt lat="42.9344233" lon="11.3224783"><ele>64.8</ele><time>2026-04-18T09:21:26.765Z</time></trkpt><trkpt lat="42.9343517" lon="11.32256"><ele>64.6</ele><time>2026-04-18T09:21:27.765Z</time></trkpt><trkpt lat="42.9342733" lon="11.3226167"><ele>64.4</ele><time>2026-04-18T09:21:28.765Z</time></trkpt><trkpt lat="42.9341817" lon="11.3226367"><ele>64.2</ele><time>2026-04-18T09:21:29.767Z</time></trkpt><trkpt lat="42.9340733" lon="11.32261"><ele>64.0</ele><time>2026-04-18T09:21:30.769Z</time></trkpt><trkpt lat="42.933915" lon="11.32246"><ele>63.0</ele><time>2026-04-18T09:21:31.772Z</time></trkpt><trkpt lat="42.9337583" lon="11.3223033"><ele>62.0</ele><time>2026-04-18T09:21:32.77Z</time></trkpt><trkpt lat="42.9335967" lon="11.3221967"><ele>61.0</ele><time>2026-04-18T09:21:33.769Z</time></trkpt><trkpt lat="42.933425" lon="11.3221017"><ele>65.33333333333333</ele><time>2026-04-18T09:21:34.766Z</time></trkpt><trkpt lat="42.933245" lon="11.32202"><ele>69.66666666666667</ele><time>2026-04-18T09:21:35.77Z</time></trkpt><trkpt lat="42.93306" lon="11.3219267"><ele>74.0</ele><time>2026-04-18T09:21:36.77Z</time></trkpt><trkpt lat="42.9328883" lon="11.32182"><ele>74.0</ele><time>2026-04-18T09:21:37.772Z</time></trkpt><trkpt lat="42.93274" lon="11.3217133"><ele>74.0</ele><time>2026-04-18T09:21:38.771Z</time></trkpt><trkpt lat="42.9325933" lon="11.3216"><ele>74.0</ele><time>2026-04-18T09:21:39.772Z</time></trkpt><trkpt lat="42.9324767" lon="11.3214567"><ele>74.75</ele><time>2026-04-18T09:21:40.771Z</time></trkpt><trkpt lat="42.93237" lon="11.3213133"><ele>75.5</ele><time>2026-04-18T09:21:41.768Z</time></trkpt><trkpt lat="42.9322767" lon="11.3211733"><ele>76.25</ele><time>2026-04-18T09:21:42.768Z</time></trkpt><trkpt lat="42.9321733" lon="11.3210483"><ele>77.0</ele><time>2026-04-18T09:21:43.768Z</time></trkpt><trkpt lat="42.9320683" lon="11.3209617"><ele>77.0</ele><time>2026-04-18T09:21:44.767Z</time></trkpt><trkpt lat="42.9319133" lon="11.3208717"><ele>77.0</ele><time>2026-04-18T09:21:45.771Z</time></trkpt><trkpt lat="42.9317483" lon="11.3207917"><ele>77.0</ele><time>2026-04-18T09:21:46.77Z</time></trkpt><trkpt lat="42.9315383" lon="11.3207383"><ele>80.33333333333334</ele><time>2026-04-18T09:21:47.766Z</time></trkpt><trkpt lat="42.9313567" lon="11.3206733"><ele>83.66666666666667</ele><time>2026-04-18T09:21:48.77Z</time></trkpt><trkpt lat="42.93115" lon="11.3206517"><ele>87.0</ele><time>2026-04-18T09:21:49.769Z</time></trkpt><trkpt lat="42.930925" lon="11.320655"><ele>90.0</ele><time>2026-04-18T09:21:50.768Z</time></trkpt><trkpt lat="42.9307267" lon="11.3206533"><ele>93.0</ele><time>2026-04-18T09:21:51.765Z</time></trkpt><trkpt lat="42.9305267" lon="11.3206783"><ele>96.0</ele><time>2026-04-18T09:21:52.765Z</time></trkpt><trkpt lat="42.9303267" lon="11.3207267"><ele>96.0</ele><time>2026-04-18T09:21:53.768Z</time></trkpt><trkpt lat="42.9301383" lon="11.320785"><ele>96.0</ele><time>2026-04-18T09:21:54.771Z</time></trkpt><trkpt lat="42.929965" lon="11.3208467"><ele>96.0</ele><time>2026-04-18T09:21:55.771Z</time></trkpt><trkpt lat="42.92981" lon="11.3209217"><ele>98.33333333333334</ele><time>2026-04-18T09:21:56.767Z</time></trkpt><trkpt lat="42.9296167" lon="11.3210383"><ele>100.66666666666667</ele><time>2026-04-18T09:21:57.767Z</time></trkpt><trkpt lat="42.9294783" lon="11.3211767"><ele>103.0</ele><time>2026-04-18T09:21:58.771Z</time></trkpt><trkpt lat="42.9293517" lon="11.3213417"><ele>105.33333333333334</ele><time>2026-04-18T09:21:59.77Z</time></trkpt><trkpt lat="42.9292617" lon="11.32155"><ele>107.66666666666666</ele><time>2026-04-18T09:22:00.77Z</time></trkpt><trkpt lat="42.92921" lon="11.3217833"><ele>110.0</ele><time>2026-04-18T09:22:01.77Z</time></trkpt><trkpt lat="42.9291917" lon="11.32201"><ele>112.0</ele><time>2026-04-18T09:22:02.766Z</time></trkpt><trkpt lat="42.9291983" lon="11.3222333"><ele>114.0</ele><time>2026-04-18T09:22:03.769Z</time></trkpt><trkpt lat="42.92925" lon="11.3224483"><ele>116.0</ele><time>2026-04-18T09:22:04.767Z</time></trkpt><trkpt lat="42.9293417" lon="11.3226433"><ele>117.66666666666666</ele><time>2026-04-18T09:22:05.771Z</time></trkpt><trkpt lat="42.929465" lon="11.3228167"><ele>119.33333333333334</ele><time>2026-04-18T09:22:06.768Z</time></trkpt><trkpt lat="42.9296217" lon="11.3229317"><ele>121.0</ele><time>2026-04-18T09:22:07.767Z</time></trkpt><trkpt lat="42.9297833" lon="11.323005"><ele>121.0</ele><time>2026-04-18T09:22:08.77Z</time></trkpt><trkpt lat="42.9299567" lon="11.3230483"><ele>121.0</ele><time>2026-04-18T09:22:09.77Z</time></trkpt><trkpt lat="42.93012" lon="11.32309"><ele>121.0</ele><time>2026-04-18T09:22:10.765Z</time></trkpt><trkpt lat="42.9302917" lon="11.3231217"><ele>124.0</ele><time>2026-04-18T09:22:11.769Z</time></trkpt><trkpt lat="42.9304517" lon="11.3231583"><ele>127.0</ele><time>2026-04-18T09:22:12.769Z</time></trkpt><trkpt lat="42.930605" lon="11.3231883"><ele>130.0</ele><time>2026-04-18T09:22:13.77Z</time></trkpt><trkpt lat="42.9307517" lon="11.32322"><ele>130.0</ele><time>2026-04-18T09:22:14.77Z</time></trkpt><trkpt lat="42.9308783" lon="11.3232567"><ele>130.0</ele><time>2026-04-18T09:22:15.766Z</time></trkpt><trkpt lat="42.9309967" lon="11.3233"><ele>130.0</ele><time>2026-04-18T09:22:16.77Z</time></trkpt><trkpt lat="42.9311083" lon="11.3233533"><ele>130.0</ele><time>2026-04-18T09:22:17.769Z</time></trkpt><trkpt lat="42.9311933" lon="11.32343"><ele>130.2</ele><time>2026-04-18T09:22:18.771Z</time></trkpt><trkpt lat="42.9312517" lon="11.32353"><ele>130.4</ele><time>2026-04-18T09:22:19.769Z</time></trkpt><trkpt lat="42.931285" lon="11.3236517"><ele>130.6</ele><time>2026-04-18T09:22:20.767Z</time></trkpt><trkpt lat="42.9312867" lon="11.3237783"><ele>130.8</ele><time>2026-04-18T09:22:21.767Z</time></trkpt><trkpt lat="42.9312683" lon="11.3239033"><ele>131.0</ele><time>2026-04-18T09:22:22.77Z</time></trkpt><trkpt lat="42.9312417" lon="11.3240217"><ele>133.25</ele><time>2026-04-18T09:22:23.767Z</time></trkpt><trkpt lat="42.9311883" lon="11.3241467"><ele>135.5</ele><time>2026-04-18T09:22:24.772Z</time></trkpt><trkpt lat="42.9311" lon="11.3242667"><ele>137.75</ele><time>2026-04-18T09:22:25.769Z</time></trkpt><trkpt lat="42.9309317" lon="11.3243867"><ele>140.0</ele><time>2026-04-18T09:22:26.766Z</time></trkpt><trkpt lat="42.9307867" lon="11.3244817"><ele>140.0</ele><time>2026-04-18T09:22:27.761Z</time></trkpt><trkpt lat="42.93064" lon="11.3245633"><ele>140.0</ele><time>2026-04-18T09:22:28.759Z</time></trkpt><trkpt lat="42.930525" lon="11.324655"><ele>140.0</ele><time>2026-04-18T09:22:29.771Z</time></trkpt><trkpt lat="42.930435" lon="11.32475"><ele>140.0</ele><time>2026-04-18T09:22:30.764Z</time></trkpt><trkpt lat="42.930385" lon="11.3248733"><ele>142.2</ele><time>2026-04-18T09:22:31.769Z</time></trkpt><trkpt lat="42.9303633" lon="11.3250117"><ele>144.4</ele><time>2026-04-18T09:22:32.77Z</time></trkpt><trkpt lat="42.9303817" lon="11.3251417"><ele>146.6</ele><time>2026-04-18T09:22:33.77Z</time></trkpt><trkpt lat="42.9304467" lon="11.3252433"><ele>148.8</ele><time>2026-04-18T09:22:34.768Z</time></trkpt><trkpt lat="42.93053" lon="11.3253233"><ele>151.0</ele><time>2026-04-18T09:22:35.77Z</time></trkpt><trkpt lat="42.9306317" lon="11.325365"><ele>151.0</ele><time>2026-04-18T09:22:36.772Z</time></trkpt><trkpt lat="42.9307317" lon="11.3253683"><ele>151.0</ele><time>2026-04-18T09:22:37.771Z</time></trkpt><trkpt lat="42.9308283" lon="11.3253617"><ele>151.0</ele><time>2026-04-18T09:22:38.772Z</time></trkpt><trkpt lat="42.930925" lon="11.325335"><ele>151.0</ele><time>2026-04-18T09:22:39.772Z</time></trkpt><trkpt lat="42.931045" lon="11.3252817"><ele>151.0</ele><time>2026-04-18T09:22:40.769Z</time></trkpt><trkpt lat="42.931185" lon="11.325205"><ele>155.0</ele><time>2026-04-18T09:22:41.772Z</time></trkpt><trkpt lat="42.9313333" lon="11.32513"><ele>159.0</ele><time>2026-04-18T09:22:42.772Z</time></trkpt><trkpt lat="42.9314733" lon="11.3250583"><ele>163.0</ele><time>2026-04-18T09:22:43.771Z</time></trkpt><trkpt lat="42.9316233" lon="11.3249833"><ele>163.0</ele><time>2026-04-18T09:22:44.771Z</time></trkpt><trkpt lat="42.9317567" lon="11.3249217"><ele>163.0</ele><time>2026-04-18T09:22:45.771Z</time></trkpt><trkpt lat="42.9318767" lon="11.3248617"><ele>163.0</ele><time>2026-04-18T09:22:46.77Z</time></trkpt><trkpt lat="42.931985" lon="11.324805"><ele>163.0</ele><time>2026-04-18T09:22:47.761Z</time></trkpt><trkpt lat="42.9320733" lon="11.324765"><ele>163.0</ele><time>2026-04-18T09:22:48.773Z</time></trkpt><trkpt lat="42.9321767" lon="11.324695"><ele>163.0</ele><time>2026-04-18T09:22:50.768Z</time></trkpt><trkpt lat="42.9322883" lon="11.324715"><ele>163.0</ele><time>2026-04-18T09:22:52.766Z</time></trkpt><trkpt lat="42.9323617" lon="11.3248867"><ele>163.0</ele><time>2026-04-18T09:22:54.772Z</time></trkpt><trkpt lat="42.9323883" lon="11.3250167"><ele>163.0</ele><time>2026-04-18T09:22:55.772Z</time></trkpt><trkpt lat="42.9324083" lon="11.3251533"><ele>163.0</ele><time>2026-04-18T09:22:56.769Z</time></trkpt><trkpt lat="42.932425" lon="11.3253117"><ele>163.0</ele><time>2026-04-18T09:22:57.768Z</time></trkpt><trkpt lat="42.9324517" lon="11.3254533"><ele>163.0</ele><time>2026-04-18T09:22:58.771Z</time></trkpt><trkpt lat="42.9324783" lon="11.3255867"><ele>163.0</ele><time>2026-04-18T09:22:59.772Z</time></trkpt><trkpt lat="42.9324933" lon="11.32573"><ele>163.8</ele><time>2026-04-18T09:23:00.768Z</time></trkpt><trkpt lat="42.9324917" lon="11.3258767"><ele>164.60000000000002</ele><time>2026-04-18T09:23:01.764Z</time></trkpt><trkpt lat="42.9324733" lon="11.3260267"><ele>165.39999999999998</ele><time>2026-04-18T09:23:02.769Z</time></trkpt><trkpt lat="42.932465" lon="11.32616"><ele>166.2</ele><time>2026-04-18T09:23:03.768Z</time></trkpt><trkpt lat="42.9324433" lon="11.32629"><ele>167.0</ele><time>2026-04-18T09:23:04.765Z</time></trkpt><trkpt lat="42.932435" lon="11.326415"><ele>167.8</ele><time>2026-04-18T09:23:05.77Z</time></trkpt><trkpt lat="42.932445" lon="11.326545"><ele>168.6</ele><time>2026-04-18T09:23:06.769Z</time></trkpt><trkpt lat="42.9324917" lon="11.3266517"><ele>169.4</ele><time>2026-04-18T09:23:07.771Z</time></trkpt><trkpt lat="42.932535" lon="11.3267717"><ele>170.20000000000002</ele><time>2026-04-18T09:23:08.765Z</time></trkpt><trkpt lat="42.9325633" lon="11.3269067"><ele>171.0</ele><time>2026-04-18T09:23:09.767Z</time></trkpt><trkpt lat="42.9325783" lon="11.327055"><ele>170.5</ele><time>2026-04-18T09:23:10.764Z</time></trkpt><trkpt lat="42.93257" lon="11.3272083"><ele>170.0</ele><time>2026-04-18T09:23:11.769Z</time></trkpt><trkpt lat="42.9325333" lon="11.3273833"><ele>169.5</ele><time>2026-04-18T09:23:12.772Z</time></trkpt><trkpt lat="42.932485" lon="11.3275617"><ele>169.0</ele><time>2026-04-18T09:23:13.765Z</time></trkpt><trkpt lat="42.9324267" lon="11.3277433"><ele>169.0</ele><time>2026-04-18T09:23:14.765Z</time></trkpt><trkpt lat="42.93234" lon="11.3279317"><ele>169.0</ele><time>2026-04-18T09:23:15.769Z</time></trkpt><trkpt lat="42.9322383" lon="11.3281217"><ele>169.0</ele><time>2026-04-18T09:23:16.765Z</time></trkpt><trkpt lat="42.9321417" lon="11.328305"><ele>167.0</ele><time>2026-04-18T09:23:17.765Z</time></trkpt><trkpt lat="42.932045" lon="11.328485"><ele>165.0</ele><time>2026-04-18T09:23:18.771Z</time></trkpt><trkpt lat="42.9319433" lon="11.3286583"><ele>163.0</ele><time>2026-04-18T09:23:19.768Z</time></trkpt><trkpt lat="42.9318417" lon="11.32883"><ele>162.0</ele><time>2026-04-18T09:23:20.764Z</time></trkpt><trkpt lat="42.9317467" lon="11.3290017"><ele>161.0</ele><time>2026-04-18T09:23:21.767Z</time></trkpt><trkpt lat="42.931655" lon="11.3291683"><ele>160.0</ele><time>2026-04-18T09:23:22.766Z</time></trkpt><trkpt lat="42.931575" lon="11.3293217"><ele>159.0</ele><time>2026-04-18T09:23:23.771Z</time></trkpt><trkpt lat="42.931515" lon="11.32947"><ele>163.25</ele><time>2026-04-18T09:23:24.771Z</time></trkpt><trkpt lat="42.9314717" lon="11.3296317"><ele>167.5</ele><time>2026-04-18T09:23:25.771Z</time></trkpt><trkpt lat="42.9314617" lon="11.329805"><ele>171.75</ele><time>2026-04-18T09:23:26.771Z</time></trkpt><trkpt lat="42.9314617" lon="11.3299717"><ele>176.0</ele><time>2026-04-18T09:23:27.766Z</time></trkpt><trkpt lat="42.931445" lon="11.3301417"><ele>176.5</ele><time>2026-04-18T09:23:28.765Z</time></trkpt><trkpt lat="42.9314" lon="11.33031"><ele>177.0</ele><time>2026-04-18T09:23:29.77Z</time></trkpt><trkpt lat="42.9313317" lon="11.3304783"><ele>177.5</ele><time>2026-04-18T09:23:30.771Z</time></trkpt><trkpt lat="42.9312517" lon="11.33064"><ele>178.0</ele><time>2026-04-18T09:23:31.768Z</time></trkpt><trkpt lat="42.93116" lon="11.3307933"><ele>176.0</ele><time>2026-04-18T09:23:32.764Z</time></trkpt><trkpt lat="42.93105" lon="11.330925"><ele>174.0</ele><time>2026-04-18T09:23:33.771Z</time></trkpt><trkpt lat="42.930935" lon="11.331035"><ele>172.0</ele><time>2026-04-18T09:23:34.769Z</time></trkpt><trkpt lat="42.9308317" lon="11.331155"><ele>170.0</ele><time>2026-04-18T09:23:35.765Z</time></trkpt><trkpt lat="42.93072" lon="11.3312767"><ele>172.25</ele><time>2026-04-18T09:23:36.77Z</time></trkpt><trkpt lat="42.9306133" lon="11.331405"><ele>174.5</ele><time>2026-04-18T09:23:37.771Z</time></trkpt><trkpt lat="42.93051" lon="11.3315333"><ele>176.75</ele><time>2026-04-18T09:23:38.769Z</time></trkpt><trkpt lat="42.9304133" lon="11.3316583"><ele>179.0</ele><time>2026-04-18T09:23:39.766Z</time></trkpt><trkpt lat="42.9303183" lon="11.3317833"><ele>179.0</ele><time>2026-04-18T09:23:40.772Z</time></trkpt><trkpt lat="42.930215" lon="11.3319067"><ele>179.0</ele><time>2026-04-18T09:23:41.77Z</time></trkpt><trkpt lat="42.9301133" lon="11.3320383"><ele>179.0</ele><time>2026-04-18T09:23:42.771Z</time></trkpt><trkpt lat="42.93002" lon="11.3321917"><ele>179.0</ele><time>2026-04-18T09:23:43.769Z</time></trkpt><trkpt lat="42.9299367" lon="11.3323667"><ele>179.33333333333331</ele><time>2026-04-18T09:23:44.765Z</time></trkpt><trkpt lat="42.929845" lon="11.3325683"><ele>179.66666666666666</ele><time>2026-04-18T09:23:45.772Z</time></trkpt><trkpt lat="42.929755" lon="11.3327733"><ele>180.0</ele><time>2026-04-18T09:23:46.764Z</time></trkpt><trkpt lat="42.929655" lon="11.332965"><ele>177.33333333333334</ele><time>2026-04-18T09:23:47.77Z</time></trkpt><trkpt lat="42.9295483" lon="11.33316"><ele>174.66666666666669</ele><time>2026-04-18T09:23:48.771Z</time></trkpt><trkpt lat="42.92944" lon="11.3333517"><ele>172.0</ele><time>2026-04-18T09:23:49.766Z</time></trkpt><trkpt lat="42.9293333" lon="11.33353"><ele>172.0</ele><time>2026-04-18T09:23:50.768Z</time></trkpt><trkpt lat="42.92923" lon="11.3336917"><ele>172.0</ele><time>2026-04-18T09:23:51.77Z</time></trkpt><trkpt lat="42.9291067" lon="11.3338167"><ele>172.0</ele><time>2026-04-18T09:23:52.771Z</time></trkpt><trkpt lat="42.9289733" lon="11.3339117"><ele>172.0</ele><time>2026-04-18T09:23:53.77Z</time></trkpt><trkpt lat="42.9288333" lon="11.3339917"><ele>172.0</ele><time>2026-04-18T09:23:54.766Z</time></trkpt><trkpt lat="42.9286833" lon="11.3340533"><ele>172.0</ele><time>2026-04-18T09:23:55.77Z</time></trkpt><trkpt lat="42.9285433" lon="11.3341367"><ele>172.0</ele><time>2026-04-18T09:23:56.767Z</time></trkpt><trkpt lat="42.92842" lon="11.3342567"><ele>172.0</ele><time>2026-04-18T09:23:57.769Z</time></trkpt><trkpt lat="42.9283117" lon="11.33441"><ele>172.0</ele><time>2026-04-18T09:23:58.768Z</time></trkpt><trkpt lat="42.9281967" lon="11.3345733"><ele>170.66666666666669</ele><time>2026-04-18T09:23:59.77Z</time></trkpt><trkpt lat="42.9280817" lon="11.33475"><ele>169.33333333333334</ele><time>2026-04-18T09:24:00.771Z</time></trkpt><trkpt lat="42.9279667" lon="11.3349283"><ele>168.0</ele><time>2026-04-18T09:24:01.765Z</time></trkpt><trkpt lat="42.92785" lon="11.3351083"><ele>168.0</ele><time>2026-04-18T09:24:02.771Z</time></trkpt><trkpt lat="42.9277367" lon="11.33529"><ele>168.0</ele><time>2026-04-18T09:24:03.772Z</time></trkpt><trkpt lat="42.9276233" lon="11.335465"><ele>168.0</ele><time>2026-04-18T09:24:04.761Z</time></trkpt><trkpt lat="42.92751" lon="11.3356383"><ele>169.66666666666666</ele><time>2026-04-18T09:24:05.765Z</time></trkpt><trkpt lat="42.927395" lon="11.3358133"><ele>171.33333333333331</ele><time>2026-04-18T09:24:06.774Z</time></trkpt><trkpt lat="42.9272817" lon="11.3360017"><ele>173.0</ele><time>2026-04-18T09:24:07.764Z</time></trkpt><trkpt lat="42.92718" lon="11.3362017"><ele>171.0</ele><time>2026-04-18T09:24:08.772Z</time></trkpt><trkpt lat="42.927085" lon="11.3364033"><ele>169.0</ele><time>2026-04-18T09:24:09.769Z</time></trkpt><trkpt lat="42.9269933" lon="11.3365917"><ele>167.0</ele><time>2026-04-18T09:24:10.77Z</time></trkpt><trkpt lat="42.9269033" lon="11.3367617"><ele>167.0</ele><time>2026-04-18T09:24:11.764Z</time></trkpt><trkpt lat="42.9268017" lon="11.3369133"><ele>167.0</ele><time>2026-04-18T09:24:12.771Z</time></trkpt><trkpt lat="42.9266783" lon="11.3370433"><ele>167.0</ele><time>2026-04-18T09:24:13.769Z</time></trkpt><trkpt lat="42.926545" lon="11.3371617"><ele>167.33333333333331</ele><time>2026-04-18T09:24:14.77Z</time></trkpt><trkpt lat="42.926415" lon="11.3372767"><ele>167.66666666666666</ele><time>2026-04-18T09:24:15.765Z</time></trkpt><trkpt lat="42.9262883" lon="11.3374067"><ele>168.0</ele><time>2026-04-18T09:24:16.769Z</time></trkpt><trkpt lat="42.9261633" lon="11.3375433"><ele>168.0</ele><time>2026-04-18T09:24:17.765Z</time></trkpt><trkpt lat="42.9260333" lon="11.3376883"><ele>168.0</ele><time>2026-04-18T09:24:18.771Z</time></trkpt><trkpt lat="42.9259017" lon="11.337825"><ele>168.0</ele><time>2026-04-18T09:24:19.766Z</time></trkpt><trkpt lat="42.9257683" lon="11.3379517"><ele>168.33333333333334</ele><time>2026-04-18T09:24:20.768Z</time></trkpt><trkpt lat="42.92564" lon="11.33807"><ele>168.66666666666669</ele><time>2026-04-18T09:24:21.77Z</time></trkpt><trkpt lat="42.9255183" lon="11.338195"><ele>169.0</ele><time>2026-04-18T09:24:22.769Z</time></trkpt><trkpt lat="42.9254033" lon="11.3383417"><ele>169.0</ele><time>2026-04-18T09:24:23.764Z</time></trkpt><trkpt lat="42.9253" lon="11.3385167"><ele>169.0</ele><time>2026-04-18T09:24:24.771Z</time></trkpt><trkpt lat="42.925215" lon="11.3387033"><ele>169.0</ele><time>2026-04-18T09:24:25.767Z</time></trkpt><trkpt lat="42.9251433" lon="11.3389017"><ele>167.5</ele><time>2026-04-18T09:24:26.769Z</time></trkpt><trkpt lat="42.925085" lon="11.3391017"><ele>166.0</ele><time>2026-04-18T09:24:27.771Z</time></trkpt><trkpt lat="42.9250467" lon="11.33928"><ele>164.5</ele><time>2026-04-18T09:24:28.768Z</time></trkpt><trkpt lat="42.925005" lon="11.3394417"><ele>163.0</ele><time>2026-04-18T09:24:29.765Z</time></trkpt><trkpt lat="42.9249417" lon="11.3395783"><ele>164.5</ele><time>2026-04-18T09:24:30.773Z</time></trkpt><trkpt lat="42.9248467" lon="11.3396733"><ele>166.0</ele><time>2026-04-18T09:24:31.77Z</time></trkpt><trkpt lat="42.924735" lon="11.3397483"><ele>167.5</ele><time>2026-04-18T09:24:32.771Z</time></trkpt><trkpt lat="42.92459" lon="11.339805"><ele>169.0</ele><time>2026-04-18T09:24:33.769Z</time></trkpt><trkpt lat="42.9244617" lon="11.3398867"><ele>169.0</ele><time>2026-04-18T09:24:34.766Z</time></trkpt><trkpt lat="42.9243183" lon="11.339965"><ele>169.0</ele><time>2026-04-18T09:24:35.77Z</time></trkpt><trkpt lat="42.9241767" lon="11.340045"><ele>169.0</ele><time>2026-04-18T09:24:36.77Z</time></trkpt><trkpt lat="42.9240233" lon="11.3401183"><ele>169.66666666666669</ele><time>2026-04-18T09:24:37.769Z</time></trkpt><trkpt lat="42.92389" lon="11.3401967"><ele>170.33333333333334</ele><time>2026-04-18T09:24:38.766Z</time></trkpt><trkpt lat="42.92375" lon="11.3402583"><ele>171.0</ele><time>2026-04-18T09:24:39.769Z</time></trkpt><trkpt lat="42.9235917" lon="11.340275"><ele>171.0</ele><time>2026-04-18T09:24:40.767Z</time></trkpt><trkpt lat="42.9234767" lon="11.3403017"><ele>171.0</ele><time>2026-04-18T09:24:41.765Z</time></trkpt><trkpt lat="42.9233933" lon="11.3403667"><ele>171.0</ele><time>2026-04-18T09:24:42.771Z</time></trkpt><trkpt lat="42.9233383" lon="11.3404667"><ele>171.0</ele><time>2026-04-18T09:24:43.768Z</time></trkpt><trkpt lat="42.92327" lon="11.3405717"><ele>171.0</ele><time>2026-04-18T09:24:44.765Z</time></trkpt><trkpt lat="42.9232533" lon="11.3406983"><ele>171.0</ele><time>2026-04-18T09:24:45.768Z</time></trkpt><trkpt lat="42.9232483" lon="11.3408217"><ele>171.0</ele><time>2026-04-18T09:24:46.766Z</time></trkpt><trkpt lat="42.9232433" lon="11.340975"><ele>171.0</ele><time>2026-04-18T09:24:47.768Z</time></trkpt><trkpt lat="42.9232517" lon="11.3411517"><ele>171.0</ele><time>2026-04-18T09:24:48.771Z</time></trkpt><trkpt lat="42.9232467" lon="11.341365"><ele>168.66666666666666</ele><time>2026-04-18T09:24:49.767Z</time></trkpt><trkpt lat="42.9232267" lon="11.341555"><ele>166.33333333333331</ele><time>2026-04-18T09:24:50.766Z</time></trkpt><trkpt lat="42.9232217" lon="11.3417817"><ele>164.0</ele><time>2026-04-18T09:24:51.77Z</time></trkpt><trkpt lat="42.923185" lon="11.341985"><ele>164.0</ele><time>2026-04-18T09:24:52.765Z</time></trkpt><trkpt lat="42.92309" lon="11.3421967"><ele>164.0</ele><time>2026-04-18T09:24:53.77Z</time></trkpt><trkpt lat="42.92297" lon="11.3423833"><ele>164.0</ele><time>2026-04-18T09:24:54.771Z</time></trkpt><trkpt lat="42.9228417" lon="11.3425383"><ele>163.0</ele><time>2026-04-18T09:24:55.764Z</time></trkpt><trkpt lat="42.9227017" lon="11.342665"><ele>162.0</ele><time>2026-04-18T09:24:56.767Z</time></trkpt><trkpt lat="42.92256" lon="11.3427467"><ele>161.0</ele><time>2026-04-18T09:24:57.766Z</time></trkpt><trkpt lat="42.9224267" lon="11.3428383"><ele>161.0</ele><time>2026-04-18T09:24:58.766Z</time></trkpt><trkpt lat="42.9222933" lon="11.342965"><ele>161.0</ele><time>2026-04-18T09:24:59.769Z</time></trkpt><trkpt lat="42.92215" lon="11.3431117"><ele>161.0</ele><time>2026-04-18T09:25:00.771Z</time></trkpt><trkpt lat="42.922035" lon="11.343295"><ele>156.33333333333331</ele><time>2026-04-18T09:25:01.771Z</time></trkpt><trkpt lat="42.9219233" lon="11.3434983"><ele>151.66666666666666</ele><time>2026-04-18T09:25:02.768Z</time></trkpt><trkpt lat="42.9218183" lon="11.3437083"><ele>147.0</ele><time>2026-04-18T09:25:03.768Z</time></trkpt><trkpt lat="42.9217117" lon="11.3439133"><ele>146.33333333333334</ele><time>2026-04-18T09:25:04.77Z</time></trkpt><trkpt lat="42.9216267" lon="11.3441333"><ele>145.66666666666669</ele><time>2026-04-18T09:25:05.77Z</time></trkpt><trkpt lat="42.921555" lon="11.344365"><ele>145.0</ele><time>2026-04-18T09:25:06.771Z</time></trkpt><trkpt lat="42.9214933" lon="11.3446033"><ele>142.66666666666669</ele><time>2026-04-18T09:25:07.768Z</time></trkpt><trkpt lat="42.9214417" lon="11.34483"><ele>140.33333333333334</ele><time>2026-04-18T09:25:08.771Z</time></trkpt><trkpt lat="42.9213917" lon="11.3450383"><ele>138.0</ele><time>2026-04-18T09:25:09.77Z</time></trkpt><trkpt lat="42.9213333" lon="11.345225"><ele>138.0</ele><time>2026-04-18T09:25:10.77Z</time></trkpt><trkpt lat="42.9212433" lon="11.34539"><ele>138.0</ele><time>2026-04-18T09:25:11.77Z</time></trkpt><trkpt lat="42.9211083" lon="11.3455167"><ele>138.0</ele><time>2026-04-18T09:25:12.765Z</time></trkpt><trkpt lat="42.9209683" lon="11.345625"><ele>137.33333333333334</ele><time>2026-04-18T09:25:13.77Z</time></trkpt><trkpt lat="42.9208067" lon="11.3457133"><ele>136.66666666666669</ele><time>2026-04-18T09:25:14.765Z</time></trkpt><trkpt lat="42.9206467" lon="11.3458117"><ele>136.0</ele><time>2026-04-18T09:25:15.77Z</time></trkpt><trkpt lat="42.9205067" lon="11.34595"><ele>136.0</ele><time>2026-04-18T09:25:16.766Z</time></trkpt><trkpt lat="42.92039" lon="11.3461117"><ele>136.0</ele><time>2026-04-18T09:25:17.768Z</time></trkpt><trkpt lat="42.9203067" lon="11.3462967"><ele>136.0</ele><time>2026-04-18T09:25:18.773Z</time></trkpt><trkpt lat="42.9202283" lon="11.3464683"><ele>135.25</ele><time>2026-04-18T09:25:19.768Z</time></trkpt><trkpt lat="42.92014" lon="11.3466"><ele>134.5</ele><time>2026-04-18T09:25:20.768Z</time></trkpt><trkpt lat="42.9200417" lon="11.3466867"><ele>133.75</ele><time>2026-04-18T09:25:21.771Z</time></trkpt><trkpt lat="42.9199133" lon="11.346705"><ele>133.0</ele><time>2026-04-18T09:25:22.77Z</time></trkpt><trkpt lat="42.9197633" lon="11.346695"><ele>133.0</ele><time>2026-04-18T09:25:23.767Z</time></trkpt><trkpt lat="42.919595" lon="11.34671"><ele>133.0</ele><time>2026-04-18T09:25:24.77Z</time></trkpt><trkpt lat="42.919445" lon="11.3468033"><ele>133.0</ele><time>2026-04-18T09:25:25.766Z</time></trkpt><trkpt lat="42.9193183" lon="11.3469367"><ele>132.25</ele><time>2026-04-18T09:25:26.77Z</time></trkpt><trkpt lat="42.919205" lon="11.3470483"><ele>131.5</ele><time>2026-04-18T09:25:27.769Z</time></trkpt><trkpt lat="42.9191033" lon="11.3471133"><ele>130.75</ele><time>2026-04-18T09:25:28.767Z</time></trkpt><trkpt lat="42.9189967" lon="11.3471217"><ele>130.0</ele><time>2026-04-18T09:25:29.767Z</time></trkpt><trkpt lat="42.9188917" lon="11.3470883"><ele>130.0</ele><time>2026-04-18T09:25:30.772Z</time></trkpt><trkpt lat="42.9188133" lon="11.3469917"><ele>130.0</ele><time>2026-04-18T09:25:31.767Z</time></trkpt><trkpt lat="42.9187467" lon="11.3468067"><ele>130.0</ele><time>2026-04-18T09:25:32.769Z</time></trkpt><trkpt lat="42.9186767" lon="11.34658"><ele>130.0</ele><time>2026-04-18T09:25:33.765Z</time></trkpt><trkpt lat="42.9186033" lon="11.3463817"><ele>130.6</ele><time>2026-04-18T09:25:34.769Z</time></trkpt><trkpt lat="42.9185283" lon="11.346235"><ele>131.2</ele><time>2026-04-18T09:25:35.768Z</time></trkpt><trkpt lat="42.9184433" lon="11.3461467"><ele>131.8</ele><time>2026-04-18T09:25:36.77Z</time></trkpt><trkpt lat="42.9183483" lon="11.34612"><ele>132.4</ele><time>2026-04-18T09:25:37.767Z</time></trkpt><trkpt lat="42.9182483" lon="11.346155"><ele>133.0</ele><time>2026-04-18T09:25:38.77Z</time></trkpt><trkpt lat="42.9181483" lon="11.34624"><ele>128.33333333333334</ele><time>2026-04-18T09:25:39.769Z</time></trkpt><trkpt lat="42.9180467" lon="11.3464417"><ele>123.66666666666666</ele><time>2026-04-18T09:25:40.77Z</time></trkpt><trkpt lat="42.917945" lon="11.3467133"><ele>119.0</ele><time>2026-04-18T09:25:41.769Z</time></trkpt><trkpt lat="42.917845" lon="11.3469533"><ele>117.5</ele><time>2026-04-18T09:25:42.771Z</time></trkpt><trkpt lat="42.9177133" lon="11.3472483"><ele>116.0</ele><time>2026-04-18T09:25:43.768Z</time></trkpt><trkpt lat="42.9175733" lon="11.3475483"><ele>115.5</ele><time>2026-04-18T09:25:44.764Z</time></trkpt><trkpt lat="42.91745" lon="11.3478417"><ele>115.0</ele><time>2026-04-18T09:25:45.766Z</time></trkpt><trkpt lat="42.9173567" lon="11.3480867"><ele>115.0</ele><time>2026-04-18T09:25:46.765Z</time></trkpt><trkpt lat="42.9172633" lon="11.3482817"><ele>115.0</ele><time>2026-04-18T09:25:47.771Z</time></trkpt><trkpt lat="42.91716" lon="11.3484333"><ele>115.0</ele><time>2026-04-18T09:25:48.765Z</time></trkpt><trkpt lat="42.9170333" lon="11.3485233"><ele>115.0</ele><time>2026-04-18T09:25:49.765Z</time></trkpt><trkpt lat="42.9168833" lon="11.3485417"><ele>115.0</ele><time>2026-04-18T09:25:50.765Z</time></trkpt><trkpt lat="42.9167067" lon="11.348525"><ele>115.0</ele><time>2026-04-18T09:25:51.766Z</time></trkpt><trkpt lat="42.916505" lon="11.3484767"><ele>116.66666666666667</ele><time>2026-04-18T09:25:52.769Z</time></trkpt><trkpt lat="42.9163083" lon="11.3484617"><ele>118.33333333333334</ele><time>2026-04-18T09:25:53.769Z</time></trkpt><trkpt lat="42.9161083" lon="11.34846"><ele>120.0</ele><time>2026-04-18T09:25:54.771Z</time></trkpt><trkpt lat="42.915905" lon="11.348455"><ele>121.33333333333334</ele><time>2026-04-18T09:25:55.767Z</time></trkpt><trkpt lat="42.9157" lon="11.34844"><ele>122.66666666666667</ele><time>2026-04-18T09:25:56.766Z</time></trkpt><trkpt lat="42.9154917" lon="11.3484283"><ele>124.0</ele><time>2026-04-18T09:25:57.765Z</time></trkpt><trkpt lat="42.9152867" lon="11.348425"><ele>124.0</ele><time>2026-04-18T09:25:58.769Z</time></trkpt><trkpt lat="42.9150917" lon="11.3484233"><ele>124.0</ele><time>2026-04-18T09:25:59.768Z</time></trkpt><trkpt lat="42.9149067" lon="11.3484217"><ele>124.0</ele><time>2026-04-18T09:26:00.771Z</time></trkpt><trkpt lat="42.9147367" lon="11.3484517"><ele>125.0</ele><time>2026-04-18T09:26:01.766Z</time></trkpt><trkpt lat="42.9145767" lon="11.34853"><ele>126.0</ele><time>2026-04-18T09:26:02.767Z</time></trkpt><trkpt lat="42.9144283" lon="11.3486683"><ele>127.0</ele><time>2026-04-18T09:26:03.771Z</time></trkpt><trkpt lat="42.9142867" lon="11.34883"><ele>127.66666666666667</ele><time>2026-04-18T09:26:04.766Z</time></trkpt><trkpt lat="42.9141483" lon="11.349005"><ele>128.33333333333334</ele><time>2026-04-18T09:26:05.772Z</time></trkpt><trkpt lat="42.91401" lon="11.34919"><ele>129.0</ele><time>2026-04-18T09:26:06.769Z</time></trkpt><trkpt lat="42.9138717" lon="11.34938"><ele>129.0</ele><time>2026-04-18T09:26:07.767Z</time></trkpt><trkpt lat="42.9137433" lon="11.349585"><ele>129.0</ele><time>2026-04-18T09:26:08.769Z</time></trkpt><trkpt lat="42.9136283" lon="11.3498067"><ele>129.0</ele><time>2026-04-18T09:26:09.771Z</time></trkpt><trkpt lat="42.9135267" lon="11.3500467"><ele>129.66666666666666</ele><time>2026-04-18T09:26:10.769Z</time></trkpt><trkpt lat="42.913435" lon="11.3503"><ele>130.33333333333331</ele><time>2026-04-18T09:26:11.77Z</time></trkpt><trkpt lat="42.9133517" lon="11.350565"><ele>131.0</ele><time>2026-04-18T09:26:12.766Z</time></trkpt><trkpt lat="42.913285" lon="11.3508433"><ele>129.33333333333331</ele><time>2026-04-18T09:26:13.765Z</time></trkpt><trkpt lat="42.9132317" lon="11.3511317"><ele>127.66666666666666</ele><time>2026-04-18T09:26:14.765Z</time></trkpt><trkpt lat="42.9131783" lon="11.35142"><ele>126.0</ele><time>2026-04-18T09:26:15.767Z</time></trkpt><trkpt lat="42.9131217" lon="11.351715"><ele>124.66666666666666</ele><time>2026-04-18T09:26:16.769Z</time></trkpt><trkpt lat="42.9130733" lon="11.3520083"><ele>123.33333333333333</ele><time>2026-04-18T09:26:17.768Z</time></trkpt><trkpt lat="42.91303" lon="11.3523017"><ele>122.0</ele><time>2026-04-18T09:26:18.765Z</time></trkpt><trkpt lat="42.912985" lon="11.3525917"><ele>122.0</ele><time>2026-04-18T09:26:19.766Z</time></trkpt><trkpt lat="42.9129433" lon="11.3528817"><ele>122.0</ele><time>2026-04-18T09:26:20.765Z</time></trkpt><trkpt lat="42.9129017" lon="11.3531683"><ele>122.0</ele><time>2026-04-18T09:26:21.768Z</time></trkpt><trkpt lat="42.9128633" lon="11.3534533"><ele>121.0</ele><time>2026-04-18T09:26:22.769Z</time></trkpt><trkpt lat="42.9128217" lon="11.3537383"><ele>120.0</ele><time>2026-04-18T09:26:23.77Z</time></trkpt><trkpt lat="42.9127783" lon="11.3540217"><ele>119.0</ele><time>2026-04-18T09:26:24.769Z</time></trkpt><trkpt lat="42.912735" lon="11.354305"><ele>118.33333333333333</ele><time>2026-04-18T09:26:25.771Z</time></trkpt><trkpt lat="42.9126967" lon="11.35459"><ele>117.66666666666666</ele><time>2026-04-18T09:26:26.77Z</time></trkpt><trkpt lat="42.9126617" lon="11.354865"><ele>117.0</ele><time>2026-04-18T09:26:27.77Z</time></trkpt><trkpt lat="42.9126267" lon="11.355125"><ele>117.0</ele><time>2026-04-18T09:26:28.768Z</time></trkpt><trkpt lat="42.9125833" lon="11.3553667"><ele>117.0</ele><time>2026-04-18T09:26:29.77Z</time></trkpt><trkpt lat="42.912535" lon="11.3555833"><ele>117.0</ele><time>2026-04-18T09:26:30.769Z</time></trkpt><trkpt lat="42.912475" lon="11.3557767"><ele>118.0</ele><time>2026-04-18T09:26:31.767Z</time></trkpt><trkpt lat="42.9123883" lon="11.355945"><ele>119.0</ele><time>2026-04-18T09:26:32.772Z</time></trkpt><trkpt lat="42.912285" lon="11.3560833"><ele>120.0</ele><time>2026-04-18T09:26:33.769Z</time></trkpt><trkpt lat="42.9121567" lon="11.356185"><ele>121.0</ele><time>2026-04-18T09:26:34.766Z</time></trkpt><trkpt lat="42.9120067" lon="11.3562567"><ele>121.0</ele><time>2026-04-18T09:26:35.769Z</time></trkpt><trkpt lat="42.9118433" lon="11.3562833"><ele>121.0</ele><time>2026-04-18T09:26:36.772Z</time></trkpt><trkpt lat="42.911665" lon="11.3562817"><ele>121.0</ele><time>2026-04-18T09:26:37.77Z</time></trkpt><trkpt lat="42.9114767" lon="11.356265"><ele>122.66666666666667</ele><time>2026-04-18T09:26:38.768Z</time></trkpt><trkpt lat="42.9112983" lon="11.3562483"><ele>124.33333333333334</ele><time>2026-04-18T09:26:39.767Z</time></trkpt><trkpt lat="42.9111333" lon="11.3562333"><ele>126.0</ele><time>2026-04-18T09:26:40.766Z</time></trkpt><trkpt lat="42.91098" lon="11.3562383"><ele>126.25</ele><time>2026-04-18T09:26:41.765Z</time></trkpt><trkpt lat="42.9108517" lon="11.3562783"><ele>126.5</ele><time>2026-04-18T09:26:42.771Z</time></trkpt><trkpt lat="42.9107567" lon="11.3563583"><ele>126.75</ele><time>2026-04-18T09:26:43.765Z</time></trkpt><trkpt lat="42.9107067" lon="11.3564817"><ele>127.0</ele><time>2026-04-18T09:26:44.765Z</time></trkpt><trkpt lat="42.910675" lon="11.3566383"><ele>122.66666666666667</ele><time>2026-04-18T09:26:45.764Z</time></trkpt><trkpt lat="42.9107317" lon="11.3568283"><ele>118.33333333333334</ele><time>2026-04-18T09:26:46.764Z</time></trkpt><trkpt lat="42.9107883" lon="11.3570233"><ele>114.0</ele><time>2026-04-18T09:26:47.768Z</time></trkpt><trkpt lat="42.9108433" lon="11.3572267"><ele>113.33333333333334</ele><time>2026-04-18T09:26:48.766Z</time></trkpt><trkpt lat="42.9108867" lon="11.35743"><ele>112.66666666666667</ele><time>2026-04-18T09:26:49.768Z</time></trkpt><trkpt lat="42.910945" lon="11.357615"><ele>112.0</ele><time>2026-04-18T09:26:50.766Z</time></trkpt><trkpt lat="42.9110433" lon="11.3577717"><ele>112.0</ele><time>2026-04-18T09:26:51.769Z</time></trkpt><trkpt lat="42.9111817" lon="11.3578933"><ele>112.0</ele><time>2026-04-18T09:26:52.765Z</time></trkpt><trkpt lat="42.9113233" lon="11.3579933"><ele>112.0</ele><time>2026-04-18T09:26:53.77Z</time></trkpt><trkpt lat="42.9114617" lon="11.3580867"><ele>111.39999999999999</ele><time>2026-04-18T09:26:54.769Z</time></trkpt><trkpt lat="42.9115783" lon="11.3581817"><ele>110.79999999999998</ele><time>2026-04-18T09:26:55.765Z</time></trkpt><trkpt lat="42.911675" lon="11.3582833"><ele>110.2</ele><time>2026-04-18T09:26:56.765Z</time></trkpt><trkpt lat="42.9117383" lon="11.358395"><ele>109.6</ele><time>2026-04-18T09:26:57.765Z</time></trkpt><trkpt lat="42.9117633" lon="11.3584933"><ele>109.0</ele><time>2026-04-18T09:26:58.764Z</time></trkpt><trkpt lat="42.9117267" lon="11.35858"><ele>111.0</ele><time>2026-04-18T09:26:59.768Z</time></trkpt><trkpt lat="42.9116633" lon="11.3586283"><ele>113.0</ele><time>2026-04-18T09:27:00.772Z</time></trkpt><trkpt lat="42.9115367" lon="11.3586183"><ele>115.0</ele><time>2026-04-18T09:27:01.768Z</time></trkpt><trkpt lat="42.9114283" lon="11.3585733"><ele>117.0</ele><time>2026-04-18T09:27:02.766Z</time></trkpt><trkpt lat="42.9112333" lon="11.35848"><ele>117.0</ele><time>2026-04-18T09:27:03.769Z</time></trkpt><trkpt lat="42.91105" lon="11.3584383"><ele>117.0</ele><time>2026-04-18T09:27:04.766Z</time></trkpt><trkpt lat="42.9108583" lon="11.3584283"><ele>117.0</ele><time>2026-04-18T09:27:05.768Z</time></trkpt><trkpt lat="42.9106667" lon="11.358425"><ele>118.66666666666666</ele><time>2026-04-18T09:27:06.768Z</time></trkpt><trkpt lat="42.9104483" lon="11.3584167"><ele>120.33333333333333</ele><time>2026-04-18T09:27:07.768Z</time></trkpt><trkpt lat="42.9102383" lon="11.358415"><ele>122.0</ele><time>2026-04-18T09:27:08.764Z</time></trkpt><trkpt lat="42.9100167" lon="11.3584283"><ele>122.66666666666666</ele><time>2026-04-18T09:27:09.77Z</time></trkpt><trkpt lat="42.9098033" lon="11.3584383"><ele>123.33333333333334</ele><time>2026-04-18T09:27:10.765Z</time></trkpt><trkpt lat="42.9095867" lon="11.35845"><ele>124.0</ele><time>2026-04-18T09:27:11.764Z</time></trkpt><trkpt lat="42.9093917" lon="11.3584483"><ele>124.75</ele><time>2026-04-18T09:27:12.769Z</time></trkpt><trkpt lat="42.909225" lon="11.3584467"><ele>125.5</ele><time>2026-04-18T09:27:13.765Z</time></trkpt><trkpt lat="42.9090983" lon="11.3584683"><ele>126.25</ele><time>2026-04-18T09:27:14.769Z</time></trkpt><trkpt lat="42.9089983" lon="11.3585317"><ele>127.0</ele><time>2026-04-18T09:27:15.764Z</time></trkpt><trkpt lat="42.9089383" lon="11.3586517"><ele>127.0</ele><time>2026-04-18T09:27:16.765Z</time></trkpt><trkpt lat="42.90892" lon="11.3587933"><ele>127.0</ele><time>2026-04-18T09:27:17.765Z</time></trkpt><trkpt lat="42.9089083" lon="11.3589383"><ele>127.0</ele><time>2026-04-18T09:27:18.769Z</time></trkpt><trkpt lat="42.9089833" lon="11.3591133"><ele>127.0</ele><time>2026-04-18T09:27:19.765Z</time></trkpt><trkpt lat="42.9092617" lon="11.3593017"><ele>129.5</ele><time>2026-04-18T09:27:20.767Z</time></trkpt><trkpt lat="42.9094567" lon="11.3595183"><ele>132.0</ele><time>2026-04-18T09:27:21.766Z</time></trkpt><trkpt lat="42.9096217" lon="11.35971"><ele>133.0</ele><time>2026-04-18T09:27:22.765Z</time></trkpt><trkpt lat="42.9097933" lon="11.3599033"><ele>134.0</ele><time>2026-04-18T09:27:23.768Z</time></trkpt><trkpt lat="42.90996" lon="11.3600817"><ele>135.0</ele><time>2026-04-18T09:27:24.768Z</time></trkpt><trkpt lat="42.91011" lon="11.3602517"><ele>135.0</ele><time>2026-04-18T09:27:25.767Z</time></trkpt><trkpt lat="42.91025" lon="11.360435"><ele>135.0</ele><time>2026-04-18T09:27:26.769Z</time></trkpt><trkpt lat="42.9103583" lon="11.3606383"><ele>135.0</ele><time>2026-04-18T09:27:27.765Z</time></trkpt><trkpt lat="42.9104433" lon="11.36083"><ele>137.33333333333334</ele><time>2026-04-18T09:27:28.769Z</time></trkpt><trkpt lat="42.9105383" lon="11.3610067"><ele>139.66666666666669</ele><time>2026-04-18T09:27:29.766Z</time></trkpt><trkpt lat="42.91065" lon="11.361165"><ele>142.0</ele><time>2026-04-18T09:27:30.772Z</time></trkpt><trkpt lat="42.910795" lon="11.3612717"><ele>140.75</ele><time>2026-04-18T09:27:31.757Z</time></trkpt><trkpt lat="42.9109333" lon="11.3613633"><ele>139.5</ele><time>2026-04-18T09:27:32.765Z</time></trkpt><trkpt lat="42.9110517" lon="11.3614517"><ele>138.25</ele><time>2026-04-18T09:27:33.765Z</time></trkpt><trkpt lat="42.9111317" lon="11.3615517"><ele>137.0</ele><time>2026-04-18T09:27:34.764Z</time></trkpt><trkpt lat="42.911165" lon="11.3617"><ele>137.0</ele><time>2026-04-18T09:27:35.765Z</time></trkpt><trkpt lat="42.9111383" lon="11.3618667"><ele>137.0</ele><time>2026-04-18T09:27:36.772Z</time></trkpt><trkpt lat="42.91108" lon="11.362015"><ele>137.0</ele><time>2026-04-18T09:27:37.769Z</time></trkpt><trkpt lat="42.9109317" lon="11.36218"><ele>137.0</ele><time>2026-04-18T09:27:38.766Z</time></trkpt><trkpt lat="42.9107567" lon="11.36236"><ele>143.5</ele><time>2026-04-18T09:27:39.765Z</time></trkpt><trkpt lat="42.91058" lon="11.36255"><ele>150.0</ele><time>2026-04-18T09:27:40.765Z</time></trkpt><trkpt lat="42.9104117" lon="11.362755"><ele>150.0</ele><time>2026-04-18T09:27:41.765Z</time></trkpt><trkpt lat="42.9102417" lon="11.3629733"><ele>150.0</ele><time>2026-04-18T09:27:42.771Z</time></trkpt><trkpt lat="42.91007" lon="11.36319"><ele>153.33333333333334</ele><time>2026-04-18T09:27:43.769Z</time></trkpt><trkpt lat="42.9099133" lon="11.36339"><ele>156.66666666666669</ele><time>2026-04-18T09:27:44.769Z</time></trkpt><trkpt lat="42.90977" lon="11.36359"><ele>160.0</ele><time>2026-04-18T09:27:45.768Z</time></trkpt><trkpt lat="42.9096433" lon="11.363795"><ele>158.33333333333334</ele><time>2026-04-18T09:27:46.765Z</time></trkpt><trkpt lat="42.90953" lon="11.3639867"><ele>156.66666666666666</ele><time>2026-04-18T09:27:47.765Z</time></trkpt><trkpt lat="42.90942" lon="11.3641483"><ele>155.0</ele><time>2026-04-18T09:27:48.771Z</time></trkpt><trkpt lat="42.9093183" lon="11.3642967"><ele>157.75</ele><time>2026-04-18T09:27:49.765Z</time></trkpt><trkpt lat="42.909205" lon="11.3644017"><ele>160.5</ele><time>2026-04-18T09:27:50.765Z</time></trkpt><trkpt lat="42.9090917" lon="11.3644583"><ele>163.25</ele><time>2026-04-18T09:27:51.77Z</time></trkpt><trkpt lat="42.9089783" lon="11.3645017"><ele>166.0</ele><time>2026-04-18T09:27:52.769Z</time></trkpt><trkpt lat="42.9088917" lon="11.3645417"><ele>166.0</ele><time>2026-04-18T09:27:53.769Z</time></trkpt><trkpt lat="42.90883" lon="11.3645833"><ele>166.0</ele><time>2026-04-18T09:27:54.771Z</time></trkpt><trkpt lat="42.9087767" lon="11.3646417"><ele>166.0</ele><time>2026-04-18T09:27:55.769Z</time></trkpt><trkpt lat="42.9086867" lon="11.36477"><ele>166.0</ele><time>2026-04-18T09:27:57.765Z</time></trkpt><trkpt lat="42.90864" lon="11.3648783"><ele>166.0</ele><time>2026-04-18T09:27:58.765Z</time></trkpt><trkpt lat="42.9085967" lon="11.3650133"><ele>165.0</ele><time>2026-04-18T09:27:59.767Z</time></trkpt><trkpt lat="42.9084967" lon="11.3652017"><ele>164.0</ele><time>2026-04-18T09:28:00.77Z</time></trkpt><trkpt lat="42.9083933" lon="11.3654083"><ele>163.0</ele><time>2026-04-18T09:28:01.77Z</time></trkpt><trkpt lat="42.90827" lon="11.3656417"><ele>166.0</ele><time>2026-04-18T09:28:02.765Z</time></trkpt><trkpt lat="42.90812" lon="11.36591"><ele>169.0</ele><time>2026-04-18T09:28:03.765Z</time></trkpt><trkpt lat="42.9079733" lon="11.3661933"><ele>169.0</ele><time>2026-04-18T09:28:04.769Z</time></trkpt><trkpt lat="42.907825" lon="11.3664433"><ele>169.0</ele><time>2026-04-18T09:28:05.768Z</time></trkpt><trkpt lat="42.9076617" lon="11.3666917"><ele>168.5</ele><time>2026-04-18T09:28:06.766Z</time></trkpt><trkpt lat="42.9075" lon="11.3669317"><ele>168.0</ele><time>2026-04-18T09:28:07.769Z</time></trkpt><trkpt lat="42.9073283" lon="11.36717"><ele>172.5</ele><time>2026-04-18T09:28:08.766Z</time></trkpt><trkpt lat="42.907165" lon="11.3674083"><ele>177.0</ele><time>2026-04-18T09:28:09.764Z</time></trkpt><trkpt lat="42.907005" lon="11.367645"><ele>177.0</ele><time>2026-04-18T09:28:10.771Z</time></trkpt><trkpt lat="42.9068517" lon="11.3678783"><ele>177.0</ele><time>2026-04-18T09:28:11.765Z</time></trkpt><trkpt lat="42.9066983" lon="11.368115"><ele>178.33333333333334</ele><time>2026-04-18T09:28:12.768Z</time></trkpt><trkpt lat="42.9065467" lon="11.3683383"><ele>179.66666666666669</ele><time>2026-04-18T09:28:13.769Z</time></trkpt><trkpt lat="42.9063983" lon="11.3685533"><ele>181.0</ele><time>2026-04-18T09:28:14.765Z</time></trkpt><trkpt lat="42.906255" lon="11.368765"><ele>181.33333333333334</ele><time>2026-04-18T09:28:15.77Z</time></trkpt><trkpt lat="42.90612" lon="11.3689667"><ele>181.66666666666666</ele><time>2026-04-18T09:28:16.769Z</time></trkpt><trkpt lat="42.9059983" lon="11.3691567"><ele>182.0</ele><time>2026-04-18T09:28:17.766Z</time></trkpt><trkpt lat="42.90589" lon="11.369355"><ele>182.0</ele><time>2026-04-18T09:28:18.77Z</time></trkpt><trkpt lat="42.905795" lon="11.3695717"><ele>182.0</ele><time>2026-04-18T09:28:19.77Z</time></trkpt><trkpt lat="42.9057083" lon="11.3697983"><ele>182.0</ele><time>2026-04-18T09:28:20.769Z</time></trkpt><trkpt lat="42.905625" lon="11.3700267"><ele>184.66666666666666</ele><time>2026-04-18T09:28:21.769Z</time></trkpt><trkpt lat="42.905545" lon="11.3702567"><ele>187.33333333333334</ele><time>2026-04-18T09:28:22.765Z</time></trkpt><trkpt lat="42.9054833" lon="11.3704933"><ele>190.0</ele><time>2026-04-18T09:28:23.771Z</time></trkpt><trkpt lat="42.905435" lon="11.3707433"><ele>190.0</ele><time>2026-04-18T09:28:24.771Z</time></trkpt><trkpt lat="42.9053917" lon="11.371"><ele>190.0</ele><time>2026-04-18T09:28:25.768Z</time></trkpt><trkpt lat="42.90535" lon="11.37126"><ele>190.0</ele><time>2026-04-18T09:28:26.764Z</time></trkpt><trkpt lat="42.9053067" lon="11.371525"><ele>189.66666666666669</ele><time>2026-04-18T09:28:27.769Z</time></trkpt><trkpt lat="42.9052633" lon="11.3717867"><ele>189.33333333333334</ele><time>2026-04-18T09:28:28.769Z</time></trkpt><trkpt lat="42.9052117" lon="11.372045"><ele>189.0</ele><time>2026-04-18T09:28:29.772Z</time></trkpt><trkpt lat="42.9051433" lon="11.372305"><ele>191.33333333333331</ele><time>2026-04-18T09:28:30.767Z</time></trkpt><trkpt lat="42.90506" lon="11.3725667"><ele>193.66666666666666</ele><time>2026-04-18T09:28:31.769Z</time></trkpt><trkpt lat="42.9049683" lon="11.3728267"><ele>196.0</ele><time>2026-04-18T09:28:32.764Z</time></trkpt><trkpt lat="42.9048767" lon="11.373085"><ele>196.0</ele><time>2026-04-18T09:28:33.765Z</time></trkpt><trkpt lat="42.9047917" lon="11.3733317"><ele>196.0</ele><time>2026-04-18T09:28:34.768Z</time></trkpt><trkpt lat="42.9047117" lon="11.3735817"><ele>196.0</ele><time>2026-04-18T09:28:35.765Z</time></trkpt><trkpt lat="42.9046417" lon="11.37383"><ele>195.0</ele><time>2026-04-18T09:28:36.767Z</time></trkpt><trkpt lat="42.9045833" lon="11.3740883"><ele>194.0</ele><time>2026-04-18T09:28:37.767Z</time></trkpt><trkpt lat="42.90454" lon="11.37436"><ele>193.0</ele><time>2026-04-18T09:28:38.767Z</time></trkpt><trkpt lat="42.9045083" lon="11.374645"><ele>192.0</ele><time>2026-04-18T09:28:39.77Z</time></trkpt><trkpt lat="42.9044917" lon="11.3749317"><ele>191.0</ele><time>2026-04-18T09:28:40.764Z</time></trkpt><trkpt lat="42.9044883" lon="11.375205"><ele>190.0</ele><time>2026-04-18T09:28:41.765Z</time></trkpt><trkpt lat="42.9044833" lon="11.3754683"><ele>190.0</ele><time>2026-04-18T09:28:42.769Z</time></trkpt><trkpt lat="42.9044733" lon="11.3757183"><ele>190.0</ele><time>2026-04-18T09:28:43.769Z</time></trkpt><trkpt lat="42.9044433" lon="11.37597"><ele>190.0</ele><time>2026-04-18T09:28:44.765Z</time></trkpt><trkpt lat="42.9044067" lon="11.3762267"><ele>188.66666666666669</ele><time>2026-04-18T09:28:45.766Z</time></trkpt><trkpt lat="42.9043617" lon="11.3765017"><ele>187.33333333333334</ele><time>2026-04-18T09:28:46.765Z</time></trkpt><trkpt lat="42.90431" lon="11.3767867"><ele>186.0</ele><time>2026-04-18T09:28:47.765Z</time></trkpt><trkpt lat="42.90426" lon="11.3770733"><ele>190.66666666666669</ele><time>2026-04-18T09:28:48.771Z</time></trkpt><trkpt lat="42.9042117" lon="11.3773683"><ele>195.33333333333334</ele><time>2026-04-18T09:28:49.765Z</time></trkpt><trkpt lat="42.9041683" lon="11.37767"><ele>200.0</ele><time>2026-04-18T09:28:50.765Z</time></trkpt><trkpt lat="42.9041217" lon="11.37797"><ele>198.33333333333334</ele><time>2026-04-18T09:28:51.766Z</time></trkpt><trkpt lat="42.9040633" lon="11.37827"><ele>196.66666666666669</ele><time>2026-04-18T09:28:52.764Z</time></trkpt><trkpt lat="42.9040083" lon="11.3785633"><ele>195.0</ele><time>2026-04-18T09:28:53.768Z</time></trkpt><trkpt lat="42.9039583" lon="11.3788367"><ele>194.33333333333331</ele><time>2026-04-18T09:28:54.77Z</time></trkpt><trkpt lat="42.9039233" lon="11.3790917"><ele>193.66666666666666</ele><time>2026-04-18T09:28:55.765Z</time></trkpt><trkpt lat="42.9039117" lon="11.3793367"><ele>193.0</ele><time>2026-04-18T09:28:56.766Z</time></trkpt><trkpt lat="42.9039367" lon="11.3795917"><ele>194.0</ele><time>2026-04-18T09:28:57.769Z</time></trkpt><trkpt lat="42.9040083" lon="11.3798467"><ele>195.0</ele><time>2026-04-18T09:28:58.765Z</time></trkpt><trkpt lat="42.904125" lon="11.38009"><ele>196.0</ele><time>2026-04-18T09:28:59.767Z</time></trkpt><trkpt lat="42.9042583" lon="11.3803383"><ele>198.0</ele><time>2026-04-18T09:29:00.765Z</time></trkpt><trkpt lat="42.9043883" lon="11.380605"><ele>200.0</ele><time>2026-04-18T09:29:01.765Z</time></trkpt><trkpt lat="42.9045067" lon="11.3808867"><ele>200.0</ele><time>2026-04-18T09:29:02.771Z</time></trkpt><trkpt lat="42.9046133" lon="11.3811667"><ele>200.0</ele><time>2026-04-18T09:29:03.77Z</time></trkpt><trkpt lat="42.90472" lon="11.3814617"><ele>203.0</ele><time>2026-04-18T09:29:04.766Z</time></trkpt><trkpt lat="42.9048217" lon="11.3817533"><ele>206.0</ele><time>2026-04-18T09:29:05.769Z</time></trkpt><trkpt lat="42.9049217" lon="11.38205"><ele>204.5</ele><time>2026-04-18T09:29:06.773Z</time></trkpt><trkpt lat="42.90502" lon="11.3823417"><ele>203.0</ele><time>2026-04-18T09:29:07.767Z</time></trkpt><trkpt lat="42.90511" lon="11.3826217"><ele>203.33333333333334</ele><time>2026-04-18T09:29:08.771Z</time></trkpt><trkpt lat="42.90519" lon="11.3828817"><ele>203.66666666666669</ele><time>2026-04-18T09:29:09.77Z</time></trkpt><trkpt lat="42.9052483" lon="11.3831433"><ele>204.0</ele><time>2026-04-18T09:29:10.765Z</time></trkpt><trkpt lat="42.9052767" lon="11.383415"><ele>204.0</ele><time>2026-04-18T09:29:11.767Z</time></trkpt><trkpt lat="42.9052617" lon="11.3837033"><ele>204.0</ele><time>2026-04-18T09:29:12.768Z</time></trkpt><trkpt lat="42.9052133" lon="11.3839967"><ele>204.0</ele><time>2026-04-18T09:29:13.767Z</time></trkpt><trkpt lat="42.90515" lon="11.3843"><ele>202.0</ele><time>2026-04-18T09:29:14.767Z</time></trkpt><trkpt lat="42.90509" lon="11.3846017"><ele>200.0</ele><time>2026-04-18T09:29:15.77Z</time></trkpt><trkpt lat="42.9050383" lon="11.3848917"><ele>198.0</ele><time>2026-04-18T09:29:16.765Z</time></trkpt><trkpt lat="42.9049967" lon="11.3851483"><ele>202.33333333333331</ele><time>2026-04-18T09:29:17.765Z</time></trkpt><trkpt lat="42.9049483" lon="11.38536"><ele>206.66666666666666</ele><time>2026-04-18T09:29:18.77Z</time></trkpt><trkpt lat="42.904875" lon="11.38553"><ele>211.0</ele><time>2026-04-18T09:29:19.768Z</time></trkpt><trkpt lat="42.90478" lon="11.38568"><ele>213.66666666666666</ele><time>2026-04-18T09:29:20.764Z</time></trkpt><trkpt lat="42.9046367" lon="11.385775"><ele>216.33333333333331</ele><time>2026-04-18T09:29:21.768Z</time></trkpt><trkpt lat="42.9044433" lon="11.3858583"><ele>219.0</ele><time>2026-04-18T09:29:22.767Z</time></trkpt><trkpt lat="42.9042433" lon="11.3859483"><ele>221.5</ele><time>2026-04-18T09:29:23.767Z</time></trkpt><trkpt lat="42.9040283" lon="11.3860383"><ele>224.0</ele><time>2026-04-18T09:29:24.772Z</time></trkpt><trkpt lat="42.9038117" lon="11.386125"><ele>224.0</ele><time>2026-04-18T09:29:25.765Z</time></trkpt><trkpt lat="42.9035933" lon="11.3862017"><ele>224.0</ele><time>2026-04-18T09:29:26.767Z</time></trkpt><trkpt lat="42.9033883" lon="11.386275"><ele>224.0</ele><time>2026-04-18T09:29:27.767Z</time></trkpt><trkpt lat="42.9031917" lon="11.3863017"><ele>224.66666666666669</ele><time>2026-04-18T09:29:28.768Z</time></trkpt><trkpt lat="42.903" lon="11.3862933"><ele>225.33333333333331</ele><time>2026-04-18T09:29:29.764Z</time></trkpt><trkpt lat="42.9028083" lon="11.3862683"><ele>226.0</ele><time>2026-04-18T09:29:30.771Z</time></trkpt><trkpt lat="42.902625" lon="11.3861833"><ele>228.33333333333331</ele><time>2026-04-18T09:29:31.768Z</time></trkpt><trkpt lat="42.9024517" lon="11.3860667"><ele>230.66666666666669</ele><time>2026-04-18T09:29:32.766Z</time></trkpt><trkpt lat="42.902285" lon="11.3859533"><ele>233.0</ele><time>2026-04-18T09:29:33.769Z</time></trkpt><trkpt lat="42.9021217" lon="11.385865"><ele>233.0</ele><time>2026-04-18T09:29:34.77Z</time></trkpt><trkpt lat="42.9019567" lon="11.3858167"><ele>233.0</ele><time>2026-04-18T09:29:35.768Z</time></trkpt><trkpt lat="42.90178" lon="11.38583"><ele>233.0</ele><time>2026-04-18T09:29:36.769Z</time></trkpt><trkpt lat="42.9015967" lon="11.3858917"><ele>234.33333333333334</ele><time>2026-04-18T09:29:37.767Z</time></trkpt><trkpt lat="42.9014067" lon="11.3859783"><ele>235.66666666666669</ele><time>2026-04-18T09:29:38.768Z</time></trkpt><trkpt lat="42.9012133" lon="11.3860683"><ele>237.0</ele><time>2026-04-18T09:29:39.771Z</time></trkpt><trkpt lat="42.90102" lon="11.386155"><ele>238.0</ele><time>2026-04-18T09:29:40.765Z</time></trkpt><trkpt lat="42.90083" lon="11.3862533"><ele>239.0</ele><time>2026-04-18T09:29:41.77Z</time></trkpt><trkpt lat="42.9006483" lon="11.38637"><ele>240.0</ele><time>2026-04-18T09:29:42.768Z</time></trkpt><trkpt lat="42.9004667" lon="11.3864883"><ele>242.66666666666669</ele><time>2026-04-18T09:29:43.769Z</time></trkpt><trkpt lat="42.9002933" lon="11.3866"><ele>245.33333333333334</ele><time>2026-04-18T09:29:44.768Z</time></trkpt><trkpt lat="42.9001383" lon="11.3867"><ele>248.0</ele><time>2026-04-18T09:29:45.768Z</time></trkpt><trkpt lat="42.8999833" lon="11.38677"><ele>248.0</ele><time>2026-04-18T09:29:46.771Z</time></trkpt><trkpt lat="42.8998283" lon="11.3867867"><ele>248.0</ele><time>2026-04-18T09:29:47.77Z</time></trkpt><trkpt lat="42.8996783" lon="11.38672"><ele>248.0</ele><time>2026-04-18T09:29:48.771Z</time></trkpt><trkpt lat="42.8995533" lon="11.3866067"><ele>248.0</ele><time>2026-04-18T09:29:49.771Z</time></trkpt><trkpt lat="42.8994767" lon="11.3863917"><ele>248.0</ele><time>2026-04-18T09:29:50.768Z</time></trkpt><trkpt lat="42.8994067" lon="11.3861633"><ele>248.0</ele><time>2026-04-18T09:29:51.77Z</time></trkpt><trkpt lat="42.89931" lon="11.3860017"><ele>250.0</ele><time>2026-04-18T09:29:52.768Z</time></trkpt><trkpt lat="42.8991983" lon="11.3858817"><ele>252.0</ele><time>2026-04-18T09:29:53.771Z</time></trkpt><trkpt lat="42.8990633" lon="11.3858183"><ele>254.0</ele><time>2026-04-18T09:29:54.771Z</time></trkpt><trkpt lat="42.898895" lon="11.3858467"><ele>254.0</ele><time>2026-04-18T09:29:55.77Z</time></trkpt><trkpt lat="42.8986883" lon="11.3859367"><ele>254.0</ele><time>2026-04-18T09:29:56.768Z</time></trkpt><trkpt lat="42.8984767" lon="11.38603"><ele>254.0</ele><time>2026-04-18T09:29:57.77Z</time></trkpt><trkpt lat="42.89826" lon="11.3861083"><ele>254.0</ele><time>2026-04-18T09:29:58.769Z</time></trkpt><trkpt lat="42.8980217" lon="11.386185"><ele>254.0</ele><time>2026-04-18T09:29:59.768Z</time></trkpt><trkpt lat="42.8977717" lon="11.3862683"><ele>253.5</ele><time>2026-04-18T09:30:00.774Z</time></trkpt><trkpt lat="42.897535" lon="11.3863367"><ele>253.0</ele><time>2026-04-18T09:30:01.77Z</time></trkpt><trkpt lat="42.8973117" lon="11.3864233"><ele>255.33333333333331</ele><time>2026-04-18T09:30:02.764Z</time></trkpt><trkpt lat="42.8971067" lon="11.3865467"><ele>257.6666666666667</ele><time>2026-04-18T09:30:03.768Z</time></trkpt><trkpt lat="42.8969233" lon="11.386685"><ele>260.0</ele><time>2026-04-18T09:30:04.767Z</time></trkpt><trkpt lat="42.89676" lon="11.386805"><ele>261.33333333333337</ele><time>2026-04-18T09:30:05.766Z</time></trkpt><trkpt lat="42.8965933" lon="11.386875"><ele>262.6666666666667</ele><time>2026-04-18T09:30:06.767Z</time></trkpt><trkpt lat="42.8964217" lon="11.3868983"><ele>264.0</ele><time>2026-04-18T09:30:07.771Z</time></trkpt><trkpt lat="42.896245" lon="11.3868833"><ele>264.0</ele><time>2026-04-18T09:30:08.768Z</time></trkpt><trkpt lat="42.8960983" lon="11.3867917"><ele>264.0</ele><time>2026-04-18T09:30:09.764Z</time></trkpt><trkpt lat="42.89595" lon="11.3867"><ele>264.0</ele><time>2026-04-18T09:30:10.77Z</time></trkpt><trkpt lat="42.8957933" lon="11.3866767"><ele>265.3333333333333</ele><time>2026-04-18T09:30:11.77Z</time></trkpt><trkpt lat="42.8956217" lon="11.3867033"><ele>266.66666666666663</ele><time>2026-04-18T09:30:12.764Z</time></trkpt><trkpt lat="42.8954417" lon="11.3867783"><ele>268.0</ele><time>2026-04-18T09:30:13.765Z</time></trkpt><trkpt lat="42.895275" lon="11.38689"><ele>268.0</ele><time>2026-04-18T09:30:14.768Z</time></trkpt><trkpt lat="42.895125" lon="11.3870117"><ele>268.0</ele><time>2026-04-18T09:30:15.769Z</time></trkpt><trkpt lat="42.89497" lon="11.38712"><ele>268.0</ele><time>2026-04-18T09:30:16.768Z</time></trkpt><trkpt lat="42.894805" lon="11.38719"><ele>272.0</ele><time>2026-04-18T09:30:17.77Z</time></trkpt><trkpt lat="42.8946067" lon="11.3872067"><ele>276.0</ele><time>2026-04-18T09:30:18.77Z</time></trkpt><trkpt lat="42.89442" lon="11.3872117"><ele>280.0</ele><time>2026-04-18T09:30:19.769Z</time></trkpt><trkpt lat="42.89424" lon="11.3872333"><ele>282.3333333333333</ele><time>2026-04-18T09:30:20.768Z</time></trkpt><trkpt lat="42.8940683" lon="11.387275"><ele>284.6666666666667</ele><time>2026-04-18T09:30:21.77Z</time></trkpt><trkpt lat="42.8938933" lon="11.3873567"><ele>287.0</ele><time>2026-04-18T09:30:22.768Z</time></trkpt><trkpt lat="42.893725" lon="11.3874583"><ele>287.0</ele><time>2026-04-18T09:30:23.77Z</time></trkpt><trkpt lat="42.893565" lon="11.387565"><ele>287.0</ele><time>2026-04-18T09:30:24.772Z</time></trkpt><trkpt lat="42.8934133" lon="11.3876567"><ele>287.0</ele><time>2026-04-18T09:30:25.77Z</time></trkpt><trkpt lat="42.8932717" lon="11.387725"><ele>287.75</ele><time>2026-04-18T09:30:26.764Z</time></trkpt><trkpt lat="42.8931317" lon="11.3877633"><ele>288.5</ele><time>2026-04-18T09:30:27.768Z</time></trkpt><trkpt lat="42.89299" lon="11.3877683"><ele>289.25</ele><time>2026-04-18T09:30:28.764Z</time></trkpt><trkpt lat="42.892845" lon="11.3877567"><ele>290.0</ele><time>2026-04-18T09:30:29.769Z</time></trkpt><trkpt lat="42.8927067" lon="11.3877433"><ele>290.4</ele><time>2026-04-18T09:30:30.77Z</time></trkpt><trkpt lat="42.89258" lon="11.3877333"><ele>290.8</ele><time>2026-04-18T09:30:31.764Z</time></trkpt><trkpt lat="42.8924617" lon="11.3877283"><ele>291.2</ele><time>2026-04-18T09:30:32.767Z</time></trkpt><trkpt lat="42.892365" lon="11.3877267"><ele>291.6</ele><time>2026-04-18T09:30:33.768Z</time></trkpt><trkpt lat="42.8922833" lon="11.3877167"><ele>292.0</ele><time>2026-04-18T09:30:34.764Z</time></trkpt><trkpt lat="42.892215" lon="11.3877183"><ele>292.0</ele><time>2026-04-18T09:30:35.767Z</time></trkpt><trkpt lat="42.8921383" lon="11.3877333"><ele>292.0</ele><time>2026-04-18T09:30:37.768Z</time></trkpt><trkpt lat="42.892095" lon="11.3877967"><ele>292.0</ele><time>2026-04-18T09:30:40.767Z</time></trkpt><trkpt lat="42.8920233" lon="11.3878783"><ele>292.0</ele><time>2026-04-18T09:30:42.764Z</time></trkpt><trkpt lat="42.891985" lon="11.38795"><ele>292.0</ele><time>2026-04-18T09:30:43.77Z</time></trkpt><trkpt lat="42.8919383" lon="11.3880333"><ele>292.0</ele><time>2026-04-18T09:30:44.768Z</time></trkpt><trkpt lat="42.8918917" lon="11.38812"><ele>293.2</ele><time>2026-04-18T09:30:45.765Z</time></trkpt><trkpt lat="42.8918433" lon="11.388215"><ele>294.4</ele><time>2026-04-18T09:30:46.769Z</time></trkpt><trkpt lat="42.8917883" lon="11.3883167"><ele>295.6</ele><time>2026-04-18T09:30:47.767Z</time></trkpt><trkpt lat="42.8917283" lon="11.3884217"><ele>296.8</ele><time>2026-04-18T09:30:48.769Z</time></trkpt><trkpt lat="42.8916667" lon="11.3885267"><ele>298.0</ele><time>2026-04-18T09:30:49.767Z</time></trkpt><trkpt lat="42.8916017" lon="11.388625"><ele>298.6</ele><time>2026-04-18T09:30:50.767Z</time></trkpt><trkpt lat="42.8915383" lon="11.38873"><ele>299.20000000000005</ele><time>2026-04-18T09:30:51.768Z</time></trkpt><trkpt lat="42.8914717" lon="11.3888333"><ele>299.8</ele><time>2026-04-18T09:30:52.767Z</time></trkpt><trkpt lat="42.8914117" lon="11.3889233"><ele>300.40000000000003</ele><time>2026-04-18T09:30:53.769Z</time></trkpt><trkpt lat="42.891345" lon="11.38903"><ele>301.0</ele><time>2026-04-18T09:30:54.77Z</time></trkpt><trkpt lat="42.89128" lon="11.389135"><ele>298.40000000000003</ele><time>2026-04-18T09:30:55.769Z</time></trkpt><trkpt lat="42.8912167" lon="11.3892367"><ele>295.8</ele><time>2026-04-18T09:30:56.764Z</time></trkpt><trkpt lat="42.8911567" lon="11.3893383"><ele>293.20000000000005</ele><time>2026-04-18T09:30:57.77Z</time></trkpt><trkpt lat="42.891095" lon="11.3894383"><ele>290.6</ele><time>2026-04-18T09:30:58.769Z</time></trkpt><trkpt lat="42.8910333" lon="11.38953"><ele>288.0</ele><time>2026-04-18T09:30:59.767Z</time></trkpt><trkpt lat="42.8909817" lon="11.3896183"><ele>288.3333333333333</ele><time>2026-04-18T09:31:00.77Z</time></trkpt><trkpt lat="42.8909383" lon="11.3896917"><ele>288.6666666666667</ele><time>2026-04-18T09:31:01.77Z</time></trkpt><trkpt lat="42.8908667" lon="11.3897833"><ele>289.0</ele><time>2026-04-18T09:31:03.764Z</time></trkpt><trkpt lat="42.8908" lon="11.3898083"><ele>289.33333333333337</ele><time>2026-04-18T09:31:06.768Z</time></trkpt><trkpt lat="42.8907367" lon="11.3897417"><ele>289.6666666666667</ele><time>2026-04-18T09:31:08.765Z</time></trkpt><trkpt lat="42.8906917" lon="11.38962"><ele>290.0</ele><time>2026-04-18T09:31:10.764Z</time></trkpt><trkpt lat="42.8906683" lon="11.3895383"><ele>290.6666666666667</ele><time>2026-04-18T09:31:11.767Z</time></trkpt><trkpt lat="42.89064" lon="11.38945"><ele>291.33333333333337</ele><time>2026-04-18T09:31:12.771Z</time></trkpt><trkpt lat="42.8906117" lon="11.3893467"><ele>292.0</ele><time>2026-04-18T09:31:13.77Z</time></trkpt><trkpt lat="42.8905767" lon="11.3892467"><ele>292.6666666666667</ele><time>2026-04-18T09:31:14.764Z</time></trkpt><trkpt lat="42.89053" lon="11.3891533"><ele>293.3333333333333</ele><time>2026-04-18T09:31:15.767Z</time></trkpt><trkpt lat="42.89048" lon="11.38906"><ele>294.0</ele><time>2026-04-18T09:31:16.766Z</time></trkpt><trkpt lat="42.8904183" lon="11.3889683"><ele>294.0</ele><time>2026-04-18T09:31:17.771Z</time></trkpt><trkpt lat="42.8903467" lon="11.388885"><ele>294.0</ele><time>2026-04-18T09:31:18.767Z</time></trkpt><trkpt lat="42.890265" lon="11.3888083"><ele>294.0</ele><time>2026-04-18T09:31:19.768Z</time></trkpt><trkpt lat="42.8901767" lon="11.388735"><ele>294.0</ele><time>2026-04-18T09:31:20.764Z</time></trkpt><trkpt lat="42.8900833" lon="11.388665"><ele>294.0</ele><time>2026-04-18T09:31:21.769Z</time></trkpt><trkpt lat="42.889985" lon="11.3885867"><ele>295.0</ele><time>2026-04-18T09:31:22.765Z</time></trkpt><trkpt lat="42.8898917" lon="11.3885133"><ele>296.0</ele><time>2026-04-18T09:31:23.768Z</time></trkpt><trkpt lat="42.88979" lon="11.388445"><ele>297.0</ele><time>2026-04-18T09:31:24.77Z</time></trkpt><trkpt lat="42.8896883" lon="11.38838"><ele>298.0</ele><time>2026-04-18T09:31:25.77Z</time></trkpt><trkpt lat="42.8895833" lon="11.38831"><ele>298.0</ele><time>2026-04-18T09:31:26.764Z</time></trkpt><trkpt lat="42.8894683" lon="11.3882267"><ele>298.0</ele><time>2026-04-18T09:31:27.771Z</time></trkpt><trkpt lat="42.8893517" lon="11.3881267"><ele>298.0</ele><time>2026-04-18T09:31:28.769Z</time></trkpt><trkpt lat="42.8892383" lon="11.3880183"><ele>298.0</ele><time>2026-04-18T09:31:29.765Z</time></trkpt><trkpt lat="42.88913" lon="11.3879"><ele>299.0</ele><time>2026-04-18T09:31:30.772Z</time></trkpt><trkpt lat="42.889025" lon="11.387775"><ele>300.0</ele><time>2026-04-18T09:31:31.763Z</time></trkpt><trkpt lat="42.88893" lon="11.38765"><ele>301.0</ele><time>2026-04-18T09:31:32.768Z</time></trkpt><trkpt lat="42.88883" lon="11.3875183"><ele>302.0</ele><time>2026-04-18T09:31:33.771Z</time></trkpt><trkpt lat="42.8887267" lon="11.38739"><ele>302.0</ele><time>2026-04-18T09:31:34.764Z</time></trkpt><trkpt lat="42.8886233" lon="11.3872583"><ele>302.0</ele><time>2026-04-18T09:31:35.767Z</time></trkpt><trkpt lat="42.888515" lon="11.3871267"><ele>302.0</ele><time>2026-04-18T09:31:36.772Z</time></trkpt><trkpt lat="42.888405" lon="11.38699"><ele>302.0</ele><time>2026-04-18T09:31:37.77Z</time></trkpt><trkpt lat="42.8883" lon="11.386845"><ele>302.33333333333337</ele><time>2026-04-18T09:31:38.771Z</time></trkpt><trkpt lat="42.88819" lon="11.3866967"><ele>302.6666666666667</ele><time>2026-04-18T09:31:39.768Z</time></trkpt><trkpt lat="42.88808" lon="11.3865483"><ele>303.0</ele><time>2026-04-18T09:31:40.766Z</time></trkpt><trkpt lat="42.88797" lon="11.3863967"><ele>302.75</ele><time>2026-04-18T09:31:41.768Z</time></trkpt><trkpt lat="42.8878567" lon="11.3862567"><ele>302.5</ele><time>2026-04-18T09:31:42.765Z</time></trkpt><trkpt lat="42.8877517" lon="11.3861233"><ele>302.25</ele><time>2026-04-18T09:31:43.768Z</time></trkpt><trkpt lat="42.887655" lon="11.385995"><ele>302.0</ele><time>2026-04-18T09:31:44.764Z</time></trkpt><trkpt lat="42.8875733" lon="11.3858583"><ele>302.0</ele><time>2026-04-18T09:31:45.768Z</time></trkpt><trkpt lat="42.8875017" lon="11.3857117"><ele>302.0</ele><time>2026-04-18T09:31:46.769Z</time></trkpt><trkpt lat="42.8874483" lon="11.3855383"><ele>302.0</ele><time>2026-04-18T09:31:47.768Z</time></trkpt><trkpt lat="42.8874117" lon="11.3853517"><ele>302.0</ele><time>2026-04-18T09:31:48.769Z</time></trkpt><trkpt lat="42.8873983" lon="11.3851517"><ele>303.0</ele><time>2026-04-18T09:31:49.765Z</time></trkpt><trkpt lat="42.8874033" lon="11.3849483"><ele>304.0</ele><time>2026-04-18T09:31:50.764Z</time></trkpt><trkpt lat="42.8874267" lon="11.3847433"><ele>305.0</ele><time>2026-04-18T09:31:51.77Z</time></trkpt><trkpt lat="42.887465" lon="11.3845483"><ele>306.0</ele><time>2026-04-18T09:31:52.768Z</time></trkpt><trkpt lat="42.8875033" lon="11.3843467"><ele>307.0</ele><time>2026-04-18T09:31:53.766Z</time></trkpt><trkpt lat="42.887535" lon="11.3841333"><ele>308.0</ele><time>2026-04-18T09:31:54.768Z</time></trkpt><trkpt lat="42.8875483" lon="11.38392"><ele>309.0</ele><time>2026-04-18T09:31:55.768Z</time></trkpt><trkpt lat="42.887535" lon="11.3837133"><ele>310.25</ele><time>2026-04-18T09:31:56.77Z</time></trkpt><trkpt lat="42.8874933" lon="11.3835167"><ele>311.5</ele><time>2026-04-18T09:31:57.768Z</time></trkpt><trkpt lat="42.8874283" lon="11.3833367"><ele>312.75</ele><time>2026-04-18T09:31:58.764Z</time></trkpt><trkpt lat="42.887345" lon="11.3831717"><ele>314.0</ele><time>2026-04-18T09:31:59.765Z</time></trkpt><trkpt lat="42.887245" lon="11.3830283"><ele>313.5</ele><time>2026-04-18T09:32:00.768Z</time></trkpt><trkpt lat="42.8871333" lon="11.382905"><ele>313.0</ele><time>2026-04-18T09:32:01.766Z</time></trkpt><trkpt lat="42.8870167" lon="11.3827917"><ele>312.5</ele><time>2026-04-18T09:32:02.764Z</time></trkpt><trkpt lat="42.8868867" lon="11.3827033"><ele>312.0</ele><time>2026-04-18T09:32:03.765Z</time></trkpt><trkpt lat="42.8867567" lon="11.3826367"><ele>312.0</ele><time>2026-04-18T09:32:04.768Z</time></trkpt><trkpt lat="42.88662" lon="11.3825817"><ele>312.0</ele><time>2026-04-18T09:32:05.77Z</time></trkpt><trkpt lat="42.8865017" lon="11.3825233"><ele>312.0</ele><time>2026-04-18T09:32:06.763Z</time></trkpt><trkpt lat="42.8864017" lon="11.382445"><ele>312.0</ele><time>2026-04-18T09:32:07.769Z</time></trkpt><trkpt lat="42.8863217" lon="11.3823517"><ele>312.0</ele><time>2026-04-18T09:32:08.769Z</time></trkpt><trkpt lat="42.8862733" lon="11.3822617"><ele>312.0</ele><time>2026-04-18T09:32:09.77Z</time></trkpt><trkpt lat="42.886235" lon="11.38219"><ele>312.0</ele><time>2026-04-18T09:32:10.768Z</time></trkpt><trkpt lat="42.8861817" lon="11.3821167"><ele>312.0</ele><time>2026-04-18T09:32:13.768Z</time></trkpt><trkpt lat="42.8861117" lon="11.382075"><ele>312.0</ele><time>2026-04-18T09:32:15.767Z</time></trkpt><trkpt lat="42.88599" lon="11.382035"><ele>312.0</ele><time>2026-04-18T09:32:17.769Z</time></trkpt><trkpt lat="42.8859117" lon="11.382005"><ele>310.6</ele><time>2026-04-18T09:32:18.764Z</time></trkpt><trkpt lat="42.8858267" lon="11.3819567"><ele>309.2</ele><time>2026-04-18T09:32:19.767Z</time></trkpt><trkpt lat="42.88574" lon="11.38188"><ele>307.8</ele><time>2026-04-18T09:32:20.767Z</time></trkpt><trkpt lat="42.8856583" lon="11.3817683"><ele>306.4</ele><time>2026-04-18T09:32:21.767Z</time></trkpt><trkpt lat="42.88559" lon="11.38164"><ele>305.0</ele><time>2026-04-18T09:32:22.77Z</time></trkpt><trkpt lat="42.8855367" lon="11.3815033"><ele>305.0</ele><time>2026-04-18T09:32:23.77Z</time></trkpt><trkpt lat="42.8855" lon="11.3813533"><ele>305.0</ele><time>2026-04-18T09:32:24.77Z</time></trkpt><trkpt lat="42.8854767" lon="11.38119"><ele>305.0</ele><time>2026-04-18T09:32:25.771Z</time></trkpt><trkpt lat="42.885455" lon="11.3810217"><ele>305.0</ele><time>2026-04-18T09:32:26.77Z</time></trkpt><trkpt lat="42.88543" lon="11.3808433"><ele>303.5</ele><time>2026-04-18T09:32:27.771Z</time></trkpt><trkpt lat="42.8853867" lon="11.3806733"><ele>302.0</ele><time>2026-04-18T09:32:28.769Z</time></trkpt><trkpt lat="42.88532" lon="11.3805167"><ele>300.5</ele><time>2026-04-18T09:32:29.765Z</time></trkpt><trkpt lat="42.8852283" lon="11.3803817"><ele>299.0</ele><time>2026-04-18T09:32:30.77Z</time></trkpt><trkpt lat="42.8851117" lon="11.3802717"><ele>302.75</ele><time>2026-04-18T09:32:31.768Z</time></trkpt><trkpt lat="42.8849817" lon="11.3802"><ele>306.5</ele><time>2026-04-18T09:32:32.769Z</time></trkpt><trkpt lat="42.8848367" lon="11.3801617"><ele>310.25</ele><time>2026-04-18T09:32:33.769Z</time></trkpt><trkpt lat="42.8846933" lon="11.380145"><ele>314.0</ele><time>2026-04-18T09:32:34.761Z</time></trkpt><trkpt lat="42.8845517" lon="11.3801383"><ele>314.0</ele><time>2026-04-18T09:32:35.759Z</time></trkpt><trkpt lat="42.8844183" lon="11.3801283"><ele>314.0</ele><time>2026-04-18T09:32:36.773Z</time></trkpt><trkpt lat="42.8843033" lon="11.3800783"><ele>314.0</ele><time>2026-04-18T09:32:37.77Z</time></trkpt><trkpt lat="42.8842067" lon="11.3799883"><ele>314.0</ele><time>2026-04-18T09:32:38.765Z</time></trkpt><trkpt lat="42.88412" lon="11.3798667"><ele>314.75</ele><time>2026-04-18T09:32:39.764Z</time></trkpt><trkpt lat="42.8840417" lon="11.379715"><ele>315.5</ele><time>2026-04-18T09:32:40.763Z</time></trkpt><trkpt lat="42.88396" lon="11.37955"><ele>316.25</ele><time>2026-04-18T09:32:41.766Z</time></trkpt><trkpt lat="42.8838683" lon="11.3793833"><ele>317.0</ele><time>2026-04-18T09:32:42.77Z</time></trkpt><trkpt lat="42.8837717" lon="11.3792267"><ele>318.6666666666667</ele><time>2026-04-18T09:32:43.77Z</time></trkpt><trkpt lat="42.8836633" lon="11.3790933"><ele>320.3333333333333</ele><time>2026-04-18T09:32:44.768Z</time></trkpt><trkpt lat="42.8835383" lon="11.3789683"><ele>322.0</ele><time>2026-04-18T09:32:45.768Z</time></trkpt><trkpt lat="42.8834033" lon="11.378845"><ele>316.3333333333333</ele><time>2026-04-18T09:32:46.769Z</time></trkpt><trkpt lat="42.8832583" lon="11.3787217"><ele>310.6666666666667</ele><time>2026-04-18T09:32:47.771Z</time></trkpt><trkpt lat="42.8831167" lon="11.3785933"><ele>305.0</ele><time>2026-04-18T09:32:48.772Z</time></trkpt><trkpt lat="42.88297" lon="11.3784717"><ele>305.0</ele><time>2026-04-18T09:32:49.769Z</time></trkpt><trkpt lat="42.8828233" lon="11.37835"><ele>305.0</ele><time>2026-04-18T09:32:50.77Z</time></trkpt><trkpt lat="42.8826783" lon="11.378225"><ele>305.0</ele><time>2026-04-18T09:32:51.77Z</time></trkpt><trkpt lat="42.882535" lon="11.3780917"><ele>305.33333333333337</ele><time>2026-04-18T09:32:52.769Z</time></trkpt><trkpt lat="42.882395" lon="11.3779533"><ele>305.6666666666667</ele><time>2026-04-18T09:32:53.766Z</time></trkpt><trkpt lat="42.882255" lon="11.37781"><ele>306.0</ele><time>2026-04-18T09:32:54.77Z</time></trkpt><trkpt lat="42.8821183" lon="11.3776583"><ele>306.0</ele><time>2026-04-18T09:32:55.769Z</time></trkpt><trkpt lat="42.8819817" lon="11.3774983"><ele>306.0</ele><time>2026-04-18T09:32:56.77Z</time></trkpt><trkpt lat="42.8818433" lon="11.37734"><ele>306.0</ele><time>2026-04-18T09:32:57.768Z</time></trkpt><trkpt lat="42.8817017" lon="11.3771867"><ele>303.3333333333333</ele><time>2026-04-18T09:32:58.769Z</time></trkpt><trkpt lat="42.8815533" lon="11.3770467"><ele>300.66666666666663</ele><time>2026-04-18T09:32:59.771Z</time></trkpt><trkpt lat="42.8813983" lon="11.3769183"><ele>298.0</ele><time>2026-04-18T09:33:00.765Z</time></trkpt><trkpt lat="42.8812517" lon="11.3767967"><ele>298.0</ele><time>2026-04-18T09:33:01.769Z</time></trkpt><trkpt lat="42.88111" lon="11.3766783"><ele>298.0</ele><time>2026-04-18T09:33:02.765Z</time></trkpt><trkpt lat="42.8809783" lon="11.3765383"><ele>298.0</ele><time>2026-04-18T09:33:03.768Z</time></trkpt><trkpt lat="42.8808717" lon="11.37637"><ele>296.3333333333333</ele><time>2026-04-18T09:33:04.765Z</time></trkpt><trkpt lat="42.8807617" lon="11.37619"><ele>294.6666666666667</ele><time>2026-04-18T09:33:05.771Z</time></trkpt><trkpt lat="42.88065" lon="11.376015"><ele>293.0</ele><time>2026-04-18T09:33:06.765Z</time></trkpt><trkpt lat="42.8805117" lon="11.375875"><ele>293.0</ele><time>2026-04-18T09:33:07.768Z</time></trkpt><trkpt lat="42.8803567" lon="11.37576"><ele>293.0</ele><time>2026-04-18T09:33:08.769Z</time></trkpt><trkpt lat="42.8801867" lon="11.37568"><ele>293.0</ele><time>2026-04-18T09:33:09.765Z</time></trkpt><trkpt lat="42.8800083" lon="11.37561"><ele>293.6666666666667</ele><time>2026-04-18T09:33:10.765Z</time></trkpt><trkpt lat="42.87982" lon="11.3755483"><ele>294.3333333333333</ele><time>2026-04-18T09:33:11.771Z</time></trkpt><trkpt lat="42.8796367" lon="11.37549"><ele>295.0</ele><time>2026-04-18T09:33:12.764Z</time></trkpt><trkpt lat="42.8794667" lon="11.3754367"><ele>292.0</ele><time>2026-04-18T09:33:13.765Z</time></trkpt><trkpt lat="42.8793067" lon="11.3753767"><ele>289.0</ele><time>2026-04-18T09:33:14.766Z</time></trkpt><trkpt lat="42.879165" lon="11.3753017"><ele>286.0</ele><time>2026-04-18T09:33:15.765Z</time></trkpt><trkpt lat="42.8790483" lon="11.3751883"><ele>286.0</ele><time>2026-04-18T09:33:16.765Z</time></trkpt><trkpt lat="42.8789617" lon="11.3750317"><ele>286.0</ele><time>2026-04-18T09:33:17.767Z</time></trkpt><trkpt lat="42.8789183" lon="11.3748317"><ele>286.0</ele><time>2026-04-18T09:33:18.769Z</time></trkpt><trkpt lat="42.878925" lon="11.3745917"><ele>288.0</ele><time>2026-04-18T09:33:19.766Z</time></trkpt><trkpt lat="42.8789567" lon="11.3743467"><ele>290.0</ele><time>2026-04-18T09:33:20.768Z</time></trkpt><trkpt lat="42.878975" lon="11.3741117"><ele>292.0</ele><time>2026-04-18T09:33:21.765Z</time></trkpt><trkpt lat="42.8789583" lon="11.3738917"><ele>295.3333333333333</ele><time>2026-04-18T09:33:22.764Z</time></trkpt><trkpt lat="42.8789133" lon="11.3736817"><ele>298.6666666666667</ele><time>2026-04-18T09:33:23.764Z</time></trkpt><trkpt lat="42.8788383" lon="11.3734833"><ele>302.0</ele><time>2026-04-18T09:33:24.771Z</time></trkpt><trkpt lat="42.8787133" lon="11.3733333"><ele>302.0</ele><time>2026-04-18T09:33:25.77Z</time></trkpt><trkpt lat="42.8785617" lon="11.3732133"><ele>302.0</ele><time>2026-04-18T09:33:26.77Z</time></trkpt><trkpt lat="42.8783883" lon="11.3731433"><ele>302.0</ele><time>2026-04-18T09:33:27.769Z</time></trkpt><trkpt lat="42.87819" lon="11.3731267"><ele>298.33333333333337</ele><time>2026-04-18T09:33:28.769Z</time></trkpt><trkpt lat="42.87798" lon="11.3731567"><ele>294.6666666666667</ele><time>2026-04-18T09:33:29.77Z</time></trkpt><trkpt lat="42.8777733" lon="11.37319"><ele>291.0</ele><time>2026-04-18T09:33:30.765Z</time></trkpt><trkpt lat="42.8775617" lon="11.3732283"><ele>288.0</ele><time>2026-04-18T09:33:31.769Z</time></trkpt><trkpt lat="42.8773467" lon="11.3732633"><ele>285.0</ele><time>2026-04-18T09:33:32.77Z</time></trkpt><trkpt lat="42.87713" lon="11.373295"><ele>282.0</ele><time>2026-04-18T09:33:33.768Z</time></trkpt><trkpt lat="42.8769167" lon="11.373325"><ele>277.6666666666667</ele><time>2026-04-18T09:33:34.768Z</time></trkpt><trkpt lat="42.8767067" lon="11.3733433"><ele>273.33333333333337</ele><time>2026-04-18T09:33:35.77Z</time></trkpt><trkpt lat="42.8764983" lon="11.3733467"><ele>269.0</ele><time>2026-04-18T09:33:36.769Z</time></trkpt><trkpt lat="42.8762883" lon="11.3733467"><ele>269.0</ele><time>2026-04-18T09:33:37.764Z</time></trkpt><trkpt lat="42.8760733" lon="11.37335"><ele>269.0</ele><time>2026-04-18T09:33:38.771Z</time></trkpt><trkpt lat="42.8758567" lon="11.373355"><ele>269.0</ele><time>2026-04-18T09:33:39.769Z</time></trkpt><trkpt lat="42.87564" lon="11.373365"><ele>266.0</ele><time>2026-04-18T09:33:40.77Z</time></trkpt><trkpt lat="42.8754267" lon="11.3733717"><ele>263.0</ele><time>2026-04-18T09:33:41.764Z</time></trkpt><trkpt lat="42.8752133" lon="11.3733733"><ele>260.0</ele><time>2026-04-18T09:33:42.768Z</time></trkpt><trkpt lat="42.875" lon="11.37337"><ele>259.6666666666667</ele><time>2026-04-18T09:33:43.765Z</time></trkpt><trkpt lat="42.8747883" lon="11.3733633"><ele>259.3333333333333</ele><time>2026-04-18T09:33:44.764Z</time></trkpt><trkpt lat="42.874575" lon="11.3733533"><ele>259.0</ele><time>2026-04-18T09:33:45.765Z</time></trkpt><trkpt lat="42.8743617" lon="11.3733367"><ele>260.66666666666663</ele><time>2026-04-18T09:33:46.764Z</time></trkpt><trkpt lat="42.874145" lon="11.3733083"><ele>262.3333333333333</ele><time>2026-04-18T09:33:47.768Z</time></trkpt><trkpt lat="42.87393" lon="11.3732783"><ele>264.0</ele><time>2026-04-18T09:33:48.767Z</time></trkpt><trkpt lat="42.873715" lon="11.37325"><ele>264.0</ele><time>2026-04-18T09:33:49.766Z</time></trkpt><trkpt lat="42.873505" lon="11.3732217"><ele>264.0</ele><time>2026-04-18T09:33:50.765Z</time></trkpt><trkpt lat="42.8733083" lon="11.3731983"><ele>264.0</ele><time>2026-04-18T09:33:51.77Z</time></trkpt><trkpt lat="42.8731233" lon="11.373195"><ele>264.3333333333333</ele><time>2026-04-18T09:33:52.765Z</time></trkpt><trkpt lat="42.87295" lon="11.3732283"><ele>264.66666666666663</ele><time>2026-04-18T09:33:53.764Z</time></trkpt><trkpt lat="42.872775" lon="11.373295"><ele>265.0</ele><time>2026-04-18T09:33:54.772Z</time></trkpt><trkpt lat="42.8726" lon="11.3733383"><ele>264.0</ele><time>2026-04-18T09:33:55.766Z</time></trkpt><trkpt lat="42.8724167" lon="11.3733083"><ele>263.0</ele><time>2026-04-18T09:33:56.769Z</time></trkpt><trkpt lat="42.8722433" lon="11.373205"><ele>262.0</ele><time>2026-04-18T09:33:57.764Z</time></trkpt><trkpt lat="42.8720633" lon="11.37312"><ele>262.0</ele><time>2026-04-18T09:33:58.771Z</time></trkpt><trkpt lat="42.8718933" lon="11.3730417"><ele>262.0</ele><time>2026-04-18T09:33:59.77Z</time></trkpt><trkpt lat="42.8717333" lon="11.3729233"><ele>262.0</ele><time>2026-04-18T09:34:00.764Z</time></trkpt><trkpt lat="42.871595" lon="11.37274"><ele>263.3333333333333</ele><time>2026-04-18T09:34:01.768Z</time></trkpt><trkpt lat="42.8715033" lon="11.3724967"><ele>264.6666666666667</ele><time>2026-04-18T09:34:02.764Z</time></trkpt><trkpt lat="42.8714283" lon="11.3722533"><ele>266.0</ele><time>2026-04-18T09:34:03.77Z</time></trkpt><trkpt lat="42.871365" lon="11.37202"><ele>266.0</ele><time>2026-04-18T09:34:04.771Z</time></trkpt><trkpt lat="42.87128" lon="11.37181"><ele>266.0</ele><time>2026-04-18T09:34:05.764Z</time></trkpt><trkpt lat="42.8711567" lon="11.3716567"><ele>266.0</ele><time>2026-04-18T09:34:06.766Z</time></trkpt><trkpt lat="42.8709967" lon="11.37157"><ele>269.0</ele><time>2026-04-18T09:34:07.771Z</time></trkpt><trkpt lat="42.8708167" lon="11.3715633"><ele>272.0</ele><time>2026-04-18T09:34:08.764Z</time></trkpt><trkpt lat="42.8706133" lon="11.3716117"><ele>275.0</ele><time>2026-04-18T09:34:09.767Z</time></trkpt><trkpt lat="42.8704033" lon="11.3716617"><ele>275.0</ele><time>2026-04-18T09:34:10.767Z</time></trkpt><trkpt lat="42.8701883" lon="11.371695"><ele>275.0</ele><time>2026-04-18T09:34:11.764Z</time></trkpt><trkpt lat="42.8699733" lon="11.37171"><ele>275.0</ele><time>2026-04-18T09:34:12.771Z</time></trkpt><trkpt lat="42.86976" lon="11.3717217"><ele>274.6666666666667</ele><time>2026-04-18T09:34:13.768Z</time></trkpt><trkpt lat="42.8695467" lon="11.3717217"><ele>274.3333333333333</ele><time>2026-04-18T09:34:14.764Z</time></trkpt><trkpt lat="42.8693367" lon="11.371715"><ele>274.0</ele><time>2026-04-18T09:34:15.769Z</time></trkpt><trkpt lat="42.8691283" lon="11.371705"><ele>274.0</ele><time>2026-04-18T09:34:16.764Z</time></trkpt><trkpt lat="42.8689267" lon="11.3717017"><ele>274.0</ele><time>2026-04-18T09:34:17.769Z</time></trkpt><trkpt lat="42.86873" lon="11.3716967"><ele>274.0</ele><time>2026-04-18T09:34:18.769Z</time></trkpt><trkpt lat="42.8685433" lon="11.3716933"><ele>274.0</ele><time>2026-04-18T09:34:19.767Z</time></trkpt><trkpt lat="42.8683667" lon="11.3716917"><ele>274.0</ele><time>2026-04-18T09:34:20.764Z</time></trkpt><trkpt lat="42.8681967" lon="11.3716883"><ele>274.0</ele><time>2026-04-18T09:34:21.767Z</time></trkpt><trkpt lat="42.8680467" lon="11.371655"><ele>274.0</ele><time>2026-04-18T09:34:22.767Z</time></trkpt><trkpt lat="42.8679017" lon="11.3715733"><ele>274.0</ele><time>2026-04-18T09:34:23.768Z</time></trkpt><trkpt lat="42.86777" lon="11.3714433"><ele>274.0</ele><time>2026-04-18T09:34:24.772Z</time></trkpt><trkpt lat="42.867635" lon="11.3712867"><ele>277.66666666666663</ele><time>2026-04-18T09:34:25.771Z</time></trkpt><trkpt lat="42.8675017" lon="11.37111"><ele>281.3333333333333</ele><time>2026-04-18T09:34:26.77Z</time></trkpt><trkpt lat="42.86736" lon="11.3709267"><ele>285.0</ele><time>2026-04-18T09:34:27.765Z</time></trkpt><trkpt lat="42.8672067" lon="11.3707367"><ele>285.0</ele><time>2026-04-18T09:34:28.77Z</time></trkpt><trkpt lat="42.8670483" lon="11.3705583"><ele>285.0</ele><time>2026-04-18T09:34:29.766Z</time></trkpt><trkpt lat="42.8669017" lon="11.370395"><ele>285.0</ele><time>2026-04-18T09:34:30.766Z</time></trkpt><trkpt lat="42.8667683" lon="11.37024"><ele>285.0</ele><time>2026-04-18T09:34:31.766Z</time></trkpt><trkpt lat="42.86668" lon="11.3700683"><ele>285.0</ele><time>2026-04-18T09:34:32.763Z</time></trkpt><trkpt lat="42.8666333" lon="11.3698817"><ele>285.0</ele><time>2026-04-18T09:34:33.768Z</time></trkpt><trkpt lat="42.8666217" lon="11.3696767"><ele>285.0</ele><time>2026-04-18T09:34:34.768Z</time></trkpt><trkpt lat="42.8666417" lon="11.3694583"><ele>285.0</ele><time>2026-04-18T09:34:35.769Z</time></trkpt><trkpt lat="42.8666783" lon="11.3692317"><ele>285.0</ele><time>2026-04-18T09:34:36.77Z</time></trkpt><trkpt lat="42.8666867" lon="11.3690033"><ele>285.0</ele><time>2026-04-18T09:34:37.764Z</time></trkpt><trkpt lat="42.8666567" lon="11.368765"><ele>283.6666666666667</ele><time>2026-04-18T09:34:38.763Z</time></trkpt><trkpt lat="42.86659" lon="11.3685183"><ele>282.33333333333337</ele><time>2026-04-18T09:34:39.767Z</time></trkpt><trkpt lat="42.8665033" lon="11.3682733"><ele>281.0</ele><time>2026-04-18T09:34:40.764Z</time></trkpt><trkpt lat="42.8664117" lon="11.3680333"><ele>278.33333333333337</ele><time>2026-04-18T09:34:41.763Z</time></trkpt><trkpt lat="42.8663283" lon="11.367795"><ele>275.6666666666667</ele><time>2026-04-18T09:34:42.77Z</time></trkpt><trkpt lat="42.866275" lon="11.3675367"><ele>273.0</ele><time>2026-04-18T09:34:43.769Z</time></trkpt><trkpt lat="42.8662433" lon="11.3672533"><ele>271.0</ele><time>2026-04-18T09:34:44.766Z</time></trkpt><trkpt lat="42.8662383" lon="11.3669583"><ele>269.0</ele><time>2026-04-18T09:34:45.765Z</time></trkpt><trkpt lat="42.86623" lon="11.36668"><ele>267.0</ele><time>2026-04-18T09:34:46.764Z</time></trkpt><trkpt lat="42.8662083" lon="11.3664317"><ele>264.0</ele><time>2026-04-18T09:34:47.765Z</time></trkpt><trkpt lat="42.8661617" lon="11.3662083"><ele>261.0</ele><time>2026-04-18T09:34:48.77Z</time></trkpt><trkpt lat="42.8660733" lon="11.3660167"><ele>258.0</ele><time>2026-04-18T09:34:49.77Z</time></trkpt><trkpt lat="42.865955" lon="11.3658767"><ele>258.6666666666667</ele><time>2026-04-18T09:34:50.767Z</time></trkpt><trkpt lat="42.8658183" lon="11.3657867"><ele>259.33333333333337</ele><time>2026-04-18T09:34:51.768Z</time></trkpt><trkpt lat="42.8656617" lon="11.3657883"><ele>260.0</ele><time>2026-04-18T09:34:52.77Z</time></trkpt><trkpt lat="42.8655" lon="11.36588"><ele>260.0</ele><time>2026-04-18T09:34:53.77Z</time></trkpt><trkpt lat="42.8653367" lon="11.3660517"><ele>260.0</ele><time>2026-04-18T09:34:54.772Z</time></trkpt><trkpt lat="42.8652017" lon="11.366285"><ele>260.0</ele><time>2026-04-18T09:34:55.764Z</time></trkpt><trkpt lat="42.865075" lon="11.3664867"><ele>261.6666666666667</ele><time>2026-04-18T09:34:56.764Z</time></trkpt><trkpt lat="42.8649433" lon="11.3666483"><ele>263.3333333333333</ele><time>2026-04-18T09:34:57.767Z</time></trkpt><trkpt lat="42.8648167" lon="11.3667567"><ele>265.0</ele><time>2026-04-18T09:34:58.766Z</time></trkpt><trkpt lat="42.86467" lon="11.366815"><ele>265.0</ele><time>2026-04-18T09:34:59.768Z</time></trkpt><trkpt lat="42.86453" lon="11.366825"><ele>265.0</ele><time>2026-04-18T09:35:00.771Z</time></trkpt><trkpt lat="42.86438" lon="11.3668067"><ele>265.0</ele><time>2026-04-18T09:35:01.765Z</time></trkpt><trkpt lat="42.8642217" lon="11.3667133"><ele>263.3333333333333</ele><time>2026-04-18T09:35:02.764Z</time></trkpt><trkpt lat="42.8640833" lon="11.3665767"><ele>261.6666666666667</ele><time>2026-04-18T09:35:03.759Z</time></trkpt><trkpt lat="42.86394" lon="11.3663867"><ele>260.0</ele><time>2026-04-18T09:35:04.769Z</time></trkpt><trkpt lat="42.8637667" lon="11.3661833"><ele>260.0</ele><time>2026-04-18T09:35:05.765Z</time></trkpt><trkpt lat="42.86356" lon="11.36594"><ele>260.0</ele><time>2026-04-18T09:35:06.772Z</time></trkpt><trkpt lat="42.86329" lon="11.3657367"><ele>253.5</ele><time>2026-04-18T09:35:07.768Z</time></trkpt><trkpt lat="42.8629933" lon="11.3655"><ele>247.0</ele><time>2026-04-18T09:35:08.767Z</time></trkpt><trkpt lat="42.8627117" lon="11.3652717"><ele>253.5</ele><time>2026-04-18T09:35:09.767Z</time></trkpt><trkpt lat="42.8624633" lon="11.36507"><ele>260.0</ele><time>2026-04-18T09:35:10.768Z</time></trkpt><trkpt lat="42.8622817" lon="11.3648083"><ele>255.66666666666669</ele><time>2026-04-18T09:35:11.77Z</time></trkpt><trkpt lat="42.862155" lon="11.36463"><ele>251.33333333333331</ele><time>2026-04-18T09:35:12.768Z</time></trkpt><trkpt lat="42.8620483" lon="11.3645"><ele>247.0</ele><time>2026-04-18T09:35:13.768Z</time></trkpt><trkpt lat="42.86196" lon="11.3643317"><ele>247.0</ele><time>2026-04-18T09:35:14.758Z</time></trkpt><trkpt lat="42.861905" lon="11.3641133"><ele>247.0</ele><time>2026-04-18T09:35:15.757Z</time></trkpt><trkpt lat="42.8618833" lon="11.3638583"><ele>247.0</ele><time>2026-04-18T09:35:16.764Z</time></trkpt><trkpt lat="42.8618783" lon="11.36356"><ele>241.0</ele><time>2026-04-18T09:35:17.768Z</time></trkpt><trkpt lat="42.8618683" lon="11.36324"><ele>235.0</ele><time>2026-04-18T09:35:18.771Z</time></trkpt><trkpt lat="42.86186" lon="11.3628933"><ele>231.5</ele><time>2026-04-18T09:35:19.767Z</time></trkpt><trkpt lat="42.861865" lon="11.3625433"><ele>228.0</ele><time>2026-04-18T09:35:20.77Z</time></trkpt><trkpt lat="42.861855" lon="11.3622217"><ele>225.33333333333331</ele><time>2026-04-18T09:35:21.768Z</time></trkpt><trkpt lat="42.8618433" lon="11.361925"><ele>222.66666666666666</ele><time>2026-04-18T09:35:22.767Z</time></trkpt><trkpt lat="42.8618467" lon="11.3616517"><ele>220.0</ele><time>2026-04-18T09:35:23.77Z</time></trkpt><trkpt lat="42.8618667" lon="11.3614033"><ele>219.66666666666666</ele><time>2026-04-18T09:35:24.766Z</time></trkpt><trkpt lat="42.8619083" lon="11.36117"><ele>219.33333333333331</ele><time>2026-04-18T09:35:25.767Z</time></trkpt><trkpt lat="42.8619483" lon="11.360945"><ele>219.0</ele><time>2026-04-18T09:35:26.767Z</time></trkpt><trkpt lat="42.8619383" lon="11.3607433"><ele>219.0</ele><time>2026-04-18T09:35:27.768Z</time></trkpt><trkpt lat="42.8618817" lon="11.3605717"><ele>219.0</ele><time>2026-04-18T09:35:28.767Z</time></trkpt><trkpt lat="42.8617683" lon="11.3604717"><ele>219.0</ele><time>2026-04-18T09:35:29.771Z</time></trkpt><trkpt lat="42.8616533" lon="11.360415"><ele>219.0</ele><time>2026-04-18T09:35:30.767Z</time></trkpt><trkpt lat="42.8615033" lon="11.3604667"><ele>230.5</ele><time>2026-04-18T09:35:31.768Z</time></trkpt><trkpt lat="42.8613417" lon="11.3606367"><ele>242.0</ele><time>2026-04-18T09:35:32.764Z</time></trkpt><trkpt lat="42.861155" lon="11.360875"><ele>242.0</ele><time>2026-04-18T09:35:33.768Z</time></trkpt><trkpt lat="42.861" lon="11.3610567"><ele>242.0</ele><time>2026-04-18T09:35:34.768Z</time></trkpt><trkpt lat="42.8608583" lon="11.361235"><ele>242.0</ele><time>2026-04-18T09:35:35.764Z</time></trkpt><trkpt lat="42.8607583" lon="11.3614117"><ele>241.33333333333334</ele><time>2026-04-18T09:35:36.767Z</time></trkpt><trkpt lat="42.86071" lon="11.361615"><ele>240.66666666666669</ele><time>2026-04-18T09:35:37.77Z</time></trkpt><trkpt lat="42.8607183" lon="11.36185"><ele>240.0</ele><time>2026-04-18T09:35:38.768Z</time></trkpt><trkpt lat="42.8607417" lon="11.362045"><ele>241.5</ele><time>2026-04-18T09:35:39.765Z</time></trkpt><trkpt lat="42.8607483" lon="11.36222"><ele>243.0</ele><time>2026-04-18T09:35:40.764Z</time></trkpt><trkpt lat="42.8607067" lon="11.3623783"><ele>244.5</ele><time>2026-04-18T09:35:41.764Z</time></trkpt><trkpt lat="42.8606133" lon="11.3625083"><ele>246.0</ele><time>2026-04-18T09:35:42.771Z</time></trkpt><trkpt lat="42.8604717" lon="11.3625883"><ele>246.0</ele><time>2026-04-18T09:35:43.771Z</time></trkpt><trkpt lat="42.860285" lon="11.3625533"><ele>246.0</ele><time>2026-04-18T09:35:44.766Z</time></trkpt><trkpt lat="42.86009" lon="11.3624783"><ele>246.0</ele><time>2026-04-18T09:35:45.769Z</time></trkpt><trkpt lat="42.85985" lon="11.3623383"><ele>235.5</ele><time>2026-04-18T09:35:46.764Z</time></trkpt><trkpt lat="42.8595833" lon="11.3621717"><ele>225.0</ele><time>2026-04-18T09:35:47.767Z</time></trkpt><trkpt lat="42.8593283" lon="11.3620367"><ele>225.5</ele><time>2026-04-18T09:35:48.768Z</time></trkpt><trkpt lat="42.8591067" lon="11.3619133"><ele>226.0</ele><time>2026-04-18T09:35:49.768Z</time></trkpt><trkpt lat="42.8589083" lon="11.3617617"><ele>226.0</ele><time>2026-04-18T09:35:50.764Z</time></trkpt><trkpt lat="42.85873" lon="11.36156"><ele>226.0</ele><time>2026-04-18T09:35:51.766Z</time></trkpt><trkpt lat="42.8585567" lon="11.3613317"><ele>222.5</ele><time>2026-04-18T09:35:52.769Z</time></trkpt><trkpt lat="42.8583833" lon="11.3611117"><ele>219.0</ele><time>2026-04-18T09:35:53.768Z</time></trkpt><trkpt lat="42.85822" lon="11.3609133"><ele>219.0</ele><time>2026-04-18T09:35:54.769Z</time></trkpt><trkpt lat="42.85807" lon="11.36073"><ele>219.0</ele><time>2026-04-18T09:35:55.765Z</time></trkpt><trkpt lat="42.8579283" lon="11.3605517"><ele>219.0</ele><time>2026-04-18T09:35:56.767Z</time></trkpt><trkpt lat="42.8577933" lon="11.3603867"><ele>217.0</ele><time>2026-04-18T09:35:57.764Z</time></trkpt><trkpt lat="42.8576867" lon="11.360205"><ele>215.0</ele><time>2026-04-18T09:35:58.768Z</time></trkpt><trkpt lat="42.8576233" lon="11.3599883"><ele>213.0</ele><time>2026-04-18T09:35:59.766Z</time></trkpt><trkpt lat="42.8576217" lon="11.3597333"><ele>210.66666666666669</ele><time>2026-04-18T09:36:00.772Z</time></trkpt><trkpt lat="42.8576533" lon="11.3594467"><ele>208.33333333333334</ele><time>2026-04-18T09:36:01.767Z</time></trkpt><trkpt lat="42.857695" lon="11.3591367"><ele>206.0</ele><time>2026-04-18T09:36:02.764Z</time></trkpt><trkpt lat="42.857745" lon="11.3588117"><ele>206.0</ele><time>2026-04-18T09:36:03.765Z</time></trkpt><trkpt lat="42.8577867" lon="11.3584783"><ele>206.0</ele><time>2026-04-18T09:36:04.769Z</time></trkpt><trkpt lat="42.85783" lon="11.3581383"><ele>207.5</ele><time>2026-04-18T09:36:05.767Z</time></trkpt><trkpt lat="42.85787" lon="11.35779"><ele>209.0</ele><time>2026-04-18T09:36:06.77Z</time></trkpt><trkpt lat="42.85791" lon="11.3574433"><ele>211.5</ele><time>2026-04-18T09:36:07.767Z</time></trkpt><trkpt lat="42.8579417" lon="11.3571"><ele>214.0</ele><time>2026-04-18T09:36:08.765Z</time></trkpt><trkpt lat="42.8579817" lon="11.3567583"><ele>214.0</ele><time>2026-04-18T09:36:09.765Z</time></trkpt><trkpt lat="42.8580233" lon="11.356415"><ele>214.0</ele><time>2026-04-18T09:36:10.765Z</time></trkpt><trkpt lat="42.8580617" lon="11.3560817"><ele>214.5</ele><time>2026-04-18T09:36:11.767Z</time></trkpt><trkpt lat="42.8580967" lon="11.3557667"><ele>215.0</ele><time>2026-04-18T09:36:12.768Z</time></trkpt><trkpt lat="42.8581233" lon="11.3554667"><ele>214.33333333333334</ele><time>2026-04-18T09:36:13.769Z</time></trkpt><trkpt lat="42.8581267" lon="11.355165"><ele>213.66666666666669</ele><time>2026-04-18T09:36:14.765Z</time></trkpt><trkpt lat="42.8581117" lon="11.3548617"><ele>213.0</ele><time>2026-04-18T09:36:15.769Z</time></trkpt><trkpt lat="42.8580767" lon="11.354555"><ele>211.0</ele><time>2026-04-18T09:36:16.764Z</time></trkpt><trkpt lat="42.85803" lon="11.35425"><ele>209.0</ele><time>2026-04-18T09:36:17.768Z</time></trkpt><trkpt lat="42.8579833" lon="11.3539733"><ele>207.0</ele><time>2026-04-18T09:36:18.768Z</time></trkpt><trkpt lat="42.85792" lon="11.3537367"><ele>205.33333333333331</ele><time>2026-04-18T09:36:19.769Z</time></trkpt><trkpt lat="42.857855" lon="11.3535317"><ele>203.66666666666666</ele><time>2026-04-18T09:36:20.764Z</time></trkpt><trkpt lat="42.85777" lon="11.353345"><ele>202.0</ele><time>2026-04-18T09:36:21.766Z</time></trkpt><trkpt lat="42.857655" lon="11.35319"><ele>205.33333333333331</ele><time>2026-04-18T09:36:22.767Z</time></trkpt><trkpt lat="42.8575033" lon="11.3530933"><ele>208.66666666666669</ele><time>2026-04-18T09:36:23.764Z</time></trkpt><trkpt lat="42.85733" lon="11.35305"><ele>212.0</ele><time>2026-04-18T09:36:24.766Z</time></trkpt><trkpt lat="42.8571633" lon="11.3530617"><ele>212.0</ele><time>2026-04-18T09:36:25.766Z</time></trkpt><trkpt lat="42.8570017" lon="11.3531517"><ele>212.0</ele><time>2026-04-18T09:36:26.764Z</time></trkpt><trkpt lat="42.856855" lon="11.35332"><ele>212.0</ele><time>2026-04-18T09:36:27.766Z</time></trkpt><trkpt lat="42.8567133" lon="11.3535433"><ele>210.0</ele><time>2026-04-18T09:36:28.765Z</time></trkpt><trkpt lat="42.8565583" lon="11.35377"><ele>208.0</ele><time>2026-04-18T09:36:29.767Z</time></trkpt><trkpt lat="42.8563983" lon="11.354"><ele>212.5</ele><time>2026-04-18T09:36:30.766Z</time></trkpt><trkpt lat="42.856235" lon="11.3542333"><ele>217.0</ele><time>2026-04-18T09:36:31.768Z</time></trkpt><trkpt lat="42.856065" lon="11.35447"><ele>214.5</ele><time>2026-04-18T09:36:32.762Z</time></trkpt><trkpt lat="42.8558883" lon="11.3547067"><ele>212.0</ele><time>2026-04-18T09:36:33.763Z</time></trkpt><trkpt lat="42.8557133" lon="11.3549467"><ele>212.0</ele><time>2026-04-18T09:36:34.765Z</time></trkpt><trkpt lat="42.8555383" lon="11.3551867"><ele>212.0</ele><time>2026-04-18T09:36:35.766Z</time></trkpt><trkpt lat="42.8553567" lon="11.3554383"><ele>209.5</ele><time>2026-04-18T09:36:36.766Z</time></trkpt><trkpt lat="42.8551767" lon="11.3556733"><ele>207.0</ele><time>2026-04-18T09:36:37.765Z</time></trkpt><trkpt lat="42.8550133" lon="11.3559067"><ele>207.0</ele><time>2026-04-18T09:36:38.767Z</time></trkpt><trkpt lat="42.85486" lon="11.356125"><ele>207.0</ele><time>2026-04-18T09:36:39.765Z</time></trkpt><trkpt lat="42.8547217" lon="11.3563267"><ele>207.0</ele><time>2026-04-18T09:36:40.767Z</time></trkpt><trkpt lat="42.8545933" lon="11.35651"><ele>208.66666666666669</ele><time>2026-04-18T09:36:41.768Z</time></trkpt><trkpt lat="42.8544633" lon="11.3566733"><ele>210.33333333333334</ele><time>2026-04-18T09:36:42.768Z</time></trkpt><trkpt lat="42.8543317" lon="11.3567917"><ele>212.0</ele><time>2026-04-18T09:36:43.765Z</time></trkpt><trkpt lat="42.85419" lon="11.3568733"><ele>212.0</ele><time>2026-04-18T09:36:44.768Z</time></trkpt><trkpt lat="42.854055" lon="11.3568867"><ele>212.0</ele><time>2026-04-18T09:36:45.77Z</time></trkpt><trkpt lat="42.8539083" lon="11.3569067"><ele>212.0</ele><time>2026-04-18T09:36:46.759Z</time></trkpt><trkpt lat="42.8537467" lon="11.35682"><ele>212.0</ele><time>2026-04-18T09:36:47.769Z</time></trkpt><trkpt lat="42.8536317" lon="11.35658"><ele>212.0</ele><time>2026-04-18T09:36:48.768Z</time></trkpt><trkpt lat="42.8534267" lon="11.35627"><ele>210.0</ele><time>2026-04-18T09:36:49.768Z</time></trkpt><trkpt lat="42.853245" lon="11.355975"><ele>208.0</ele><time>2026-04-18T09:36:50.768Z</time></trkpt><trkpt lat="42.85308" lon="11.3557017"><ele>202.5</ele><time>2026-04-18T09:36:51.768Z</time></trkpt><trkpt lat="42.8529" lon="11.35546"><ele>197.0</ele><time>2026-04-18T09:36:52.769Z</time></trkpt><trkpt lat="42.85271" lon="11.3552267"><ele>204.0</ele><time>2026-04-18T09:36:53.77Z</time></trkpt><trkpt lat="42.85253" lon="11.3550117"><ele>211.0</ele><time>2026-04-18T09:36:54.768Z</time></trkpt><trkpt lat="42.8523617" lon="11.354785"><ele>208.0</ele><time>2026-04-18T09:36:55.768Z</time></trkpt><trkpt lat="42.8522067" lon="11.3545783"><ele>205.0</ele><time>2026-04-18T09:36:56.767Z</time></trkpt><trkpt lat="42.8520683" lon="11.35438"><ele>202.0</ele><time>2026-04-18T09:36:57.768Z</time></trkpt><trkpt lat="42.8519583" lon="11.3541767"><ele>202.0</ele><time>2026-04-18T09:36:58.766Z</time></trkpt><trkpt lat="42.8518767" lon="11.353955"><ele>202.0</ele><time>2026-04-18T09:36:59.767Z</time></trkpt><trkpt lat="42.8518283" lon="11.353705"><ele>202.0</ele><time>2026-04-18T09:37:00.77Z</time></trkpt><trkpt lat="42.8518217" lon="11.3534183"><ele>198.5</ele><time>2026-04-18T09:37:01.767Z</time></trkpt><trkpt lat="42.8518483" lon="11.3531117"><ele>195.0</ele><time>2026-04-18T09:37:02.767Z</time></trkpt><trkpt lat="42.851905" lon="11.3528033"><ele>192.0</ele><time>2026-04-18T09:37:03.767Z</time></trkpt><trkpt lat="42.851975" lon="11.35249"><ele>189.0</ele><time>2026-04-18T09:37:04.768Z</time></trkpt><trkpt lat="42.8520267" lon="11.3521833"><ele>188.66666666666666</ele><time>2026-04-18T09:37:05.768Z</time></trkpt><trkpt lat="42.85204" lon="11.3519083"><ele>188.33333333333331</ele><time>2026-04-18T09:37:06.77Z</time></trkpt><trkpt lat="42.8520133" lon="11.3516733"><ele>188.0</ele><time>2026-04-18T09:37:07.766Z</time></trkpt><trkpt lat="42.8519433" lon="11.3514867"><ele>189.33333333333331</ele><time>2026-04-18T09:37:08.765Z</time></trkpt><trkpt lat="42.8518417" lon="11.3513433"><ele>190.66666666666666</ele><time>2026-04-18T09:37:09.766Z</time></trkpt><trkpt lat="42.8516967" lon="11.3512817"><ele>192.0</ele><time>2026-04-18T09:37:10.767Z</time></trkpt><trkpt lat="42.8515383" lon="11.3512983"><ele>195.0</ele><time>2026-04-18T09:37:11.77Z</time></trkpt><trkpt lat="42.851365" lon="11.3514017"><ele>198.0</ele><time>2026-04-18T09:37:12.762Z</time></trkpt><trkpt lat="42.8511967" lon="11.35156"><ele>201.0</ele><time>2026-04-18T09:37:13.768Z</time></trkpt><trkpt lat="42.85101" lon="11.3516917"><ele>199.33333333333331</ele><time>2026-04-18T09:37:14.768Z</time></trkpt><trkpt lat="42.8508" lon="11.35179"><ele>197.66666666666666</ele><time>2026-04-18T09:37:15.77Z</time></trkpt><trkpt lat="42.8505917" lon="11.3518783"><ele>196.0</ele><time>2026-04-18T09:37:16.765Z</time></trkpt><trkpt lat="42.8503967" lon="11.3519667"><ele>196.0</ele><time>2026-04-18T09:37:17.767Z</time></trkpt><trkpt lat="42.8502133" lon="11.3520617"><ele>196.0</ele><time>2026-04-18T09:37:18.768Z</time></trkpt><trkpt lat="42.8500533" lon="11.3521917"><ele>196.0</ele><time>2026-04-18T09:37:19.766Z</time></trkpt><trkpt lat="42.8499167" lon="11.3523767"><ele>198.66666666666666</ele><time>2026-04-18T09:37:20.762Z</time></trkpt><trkpt lat="42.849785" lon="11.3525767"><ele>201.33333333333331</ele><time>2026-04-18T09:37:21.769Z</time></trkpt><trkpt lat="42.8496383" lon="11.3527717"><ele>204.0</ele><time>2026-04-18T09:37:22.766Z</time></trkpt><trkpt lat="42.8494883" lon="11.35296"><ele>204.33333333333331</ele><time>2026-04-18T09:37:23.767Z</time></trkpt><trkpt lat="42.84932" lon="11.35312"><ele>204.66666666666666</ele><time>2026-04-18T09:37:24.768Z</time></trkpt><trkpt lat="42.8491383" lon="11.3532583"><ele>205.0</ele><time>2026-04-18T09:37:25.767Z</time></trkpt><trkpt lat="42.84896" lon="11.3533567"><ele>205.0</ele><time>2026-04-18T09:37:26.767Z</time></trkpt><trkpt lat="42.84879" lon="11.3534333"><ele>205.0</ele><time>2026-04-18T09:37:27.771Z</time></trkpt><trkpt lat="42.8486333" lon="11.35349"><ele>205.0</ele><time>2026-04-18T09:37:28.765Z</time></trkpt><trkpt lat="42.8484967" lon="11.3535317"><ele>203.0</ele><time>2026-04-18T09:37:29.767Z</time></trkpt><trkpt lat="42.848375" lon="11.353545"><ele>201.0</ele><time>2026-04-18T09:37:30.768Z</time></trkpt><trkpt lat="42.8482533" lon="11.3535167"><ele>199.0</ele><time>2026-04-18T09:37:31.772Z</time></trkpt><trkpt lat="42.8481317" lon="11.3534233"><ele>197.0</ele><time>2026-04-18T09:37:32.77Z</time></trkpt><trkpt lat="42.8480367" lon="11.35329"><ele>197.0</ele><time>2026-04-18T09:37:33.769Z</time></trkpt><trkpt lat="42.848" lon="11.3530517"><ele>197.0</ele><time>2026-04-18T09:37:34.769Z</time></trkpt><trkpt lat="42.848005" lon="11.3527567"><ele>197.0</ele><time>2026-04-18T09:37:35.771Z</time></trkpt><trkpt lat="42.848005" lon="11.3524783"><ele>196.33333333333334</ele><time>2026-04-18T09:37:36.772Z</time></trkpt><trkpt lat="42.848005" lon="11.352195"><ele>195.66666666666669</ele><time>2026-04-18T09:37:37.761Z</time></trkpt><trkpt lat="42.8479933" lon="11.3519333"><ele>195.0</ele><time>2026-04-18T09:37:38.76Z</time></trkpt><trkpt lat="42.8479767" lon="11.3516867"><ele>195.0</ele><time>2026-04-18T09:37:39.766Z</time></trkpt><trkpt lat="42.8479767" lon="11.3514683"><ele>195.0</ele><time>2026-04-18T09:37:40.77Z</time></trkpt><trkpt lat="42.8480167" lon="11.3512617"><ele>195.0</ele><time>2026-04-18T09:37:41.77Z</time></trkpt><trkpt lat="42.8480983" lon="11.35106"><ele>197.66666666666669</ele><time>2026-04-18T09:37:42.771Z</time></trkpt><trkpt lat="42.8482133" lon="11.3508717"><ele>200.33333333333334</ele><time>2026-04-18T09:37:43.769Z</time></trkpt><trkpt lat="42.8483367" lon="11.3506883"><ele>203.0</ele><time>2026-04-18T09:37:44.768Z</time></trkpt><trkpt lat="42.8484517" lon="11.350495"><ele>200.0</ele><time>2026-04-18T09:37:45.77Z</time></trkpt><trkpt lat="42.8485433" lon="11.35027"><ele>197.0</ele><time>2026-04-18T09:37:46.769Z</time></trkpt><trkpt lat="42.8486133" lon="11.3500233"><ele>194.0</ele><time>2026-04-18T09:37:47.769Z</time></trkpt><trkpt lat="42.8486767" lon="11.3497817"><ele>194.33333333333334</ele><time>2026-04-18T09:37:48.769Z</time></trkpt><trkpt lat="42.8487317" lon="11.3495567"><ele>194.66666666666669</ele><time>2026-04-18T09:37:49.767Z</time></trkpt><trkpt lat="42.8487717" lon="11.34934"><ele>195.0</ele><time>2026-04-18T09:37:50.765Z</time></trkpt><trkpt lat="42.84879" lon="11.3491167"><ele>195.0</ele><time>2026-04-18T09:37:51.769Z</time></trkpt><trkpt lat="42.8487633" lon="11.3489017"><ele>195.0</ele><time>2026-04-18T09:37:52.77Z</time></trkpt><trkpt lat="42.8487017" lon="11.3486917"><ele>195.0</ele><time>2026-04-18T09:37:53.768Z</time></trkpt><trkpt lat="42.8485917" lon="11.348505"><ele>198.0</ele><time>2026-04-18T09:37:54.771Z</time></trkpt><trkpt lat="42.848445" lon="11.348345"><ele>201.0</ele><time>2026-04-18T09:37:55.769Z</time></trkpt><trkpt lat="42.848275" lon="11.34821"><ele>204.0</ele><time>2026-04-18T09:37:56.768Z</time></trkpt><trkpt lat="42.848095" lon="11.348085"><ele>203.33333333333331</ele><time>2026-04-18T09:37:57.766Z</time></trkpt><trkpt lat="42.8479067" lon="11.3479667"><ele>202.66666666666666</ele><time>2026-04-18T09:37:58.765Z</time></trkpt><trkpt lat="42.8477167" lon="11.3478517"><ele>202.0</ele><time>2026-04-18T09:37:59.77Z</time></trkpt><trkpt lat="42.847525" lon="11.347745"><ele>202.0</ele><time>2026-04-18T09:38:00.765Z</time></trkpt><trkpt lat="42.84733" lon="11.347665"><ele>202.0</ele><time>2026-04-18T09:38:01.764Z</time></trkpt><trkpt lat="42.8471417" lon="11.3475933"><ele>202.0</ele><time>2026-04-18T09:38:02.769Z</time></trkpt><trkpt lat="42.8469733" lon="11.3475267"><ele>202.0</ele><time>2026-04-18T09:38:03.769Z</time></trkpt><trkpt lat="42.8468317" lon="11.3474583"><ele>202.0</ele><time>2026-04-18T09:38:04.765Z</time></trkpt><trkpt lat="42.8467183" lon="11.3473633"><ele>202.0</ele><time>2026-04-18T09:38:05.769Z</time></trkpt><trkpt lat="42.8466283" lon="11.3472467"><ele>202.0</ele><time>2026-04-18T09:38:06.764Z</time></trkpt><trkpt lat="42.8465633" lon="11.3471117"><ele>200.33333333333331</ele><time>2026-04-18T09:38:07.765Z</time></trkpt><trkpt lat="42.8465383" lon="11.3469417"><ele>198.66666666666669</ele><time>2026-04-18T09:38:08.765Z</time></trkpt><trkpt lat="42.8465567" lon="11.346745"><ele>197.0</ele><time>2026-04-18T09:38:09.765Z</time></trkpt><trkpt lat="42.84663" lon="11.3465083"><ele>193.33333333333334</ele><time>2026-04-18T09:38:10.771Z</time></trkpt><trkpt lat="42.8466933" lon="11.3462767"><ele>189.66666666666669</ele><time>2026-04-18T09:38:11.764Z</time></trkpt><trkpt lat="42.846755" lon="11.3460433"><ele>186.0</ele><time>2026-04-18T09:38:12.769Z</time></trkpt><trkpt lat="42.8468183" lon="11.34581"><ele>194.66666666666669</ele><time>2026-04-18T09:38:13.767Z</time></trkpt><trkpt lat="42.8468733" lon="11.345585"><ele>203.33333333333334</ele><time>2026-04-18T09:38:14.765Z</time></trkpt><trkpt lat="42.8469167" lon="11.3453683"><ele>212.0</ele><time>2026-04-18T09:38:15.767Z</time></trkpt><trkpt lat="42.84694" lon="11.345145"><ele>212.0</ele><time>2026-04-18T09:38:16.764Z</time></trkpt><trkpt lat="42.8469483" lon="11.3449033"><ele>212.0</ele><time>2026-04-18T09:38:17.768Z</time></trkpt><trkpt lat="42.846945" lon="11.3446483"><ele>212.0</ele><time>2026-04-18T09:38:18.772Z</time></trkpt><trkpt lat="42.84694" lon="11.3443883"><ele>209.0</ele><time>2026-04-18T09:38:19.766Z</time></trkpt><trkpt lat="42.8469367" lon="11.34414"><ele>206.0</ele><time>2026-04-18T09:38:20.766Z</time></trkpt><trkpt lat="42.8469333" lon="11.3439067"><ele>203.0</ele><time>2026-04-18T09:38:21.772Z</time></trkpt><trkpt lat="42.8469317" lon="11.34369"><ele>201.0</ele><time>2026-04-18T09:38:22.768Z</time></trkpt><trkpt lat="42.8469217" lon="11.3434917"><ele>199.0</ele><time>2026-04-18T09:38:23.769Z</time></trkpt><trkpt lat="42.84687" lon="11.34332"><ele>197.0</ele><time>2026-04-18T09:38:24.771Z</time></trkpt><trkpt lat="42.84678" lon="11.3431667"><ele>195.0</ele><time>2026-04-18T09:38:25.771Z</time></trkpt><trkpt lat="42.8466717" lon="11.343025"><ele>189.66666666666666</ele><time>2026-04-18T09:38:26.765Z</time></trkpt><trkpt lat="42.8465583" lon="11.3428783"><ele>184.33333333333331</ele><time>2026-04-18T09:38:27.769Z</time></trkpt><trkpt lat="42.8464617" lon="11.342725"><ele>179.0</ele><time>2026-04-18T09:38:28.765Z</time></trkpt><trkpt lat="42.8463733" lon="11.3425617"><ele>179.0</ele><time>2026-04-18T09:38:29.769Z</time></trkpt><trkpt lat="42.846295" lon="11.3423883"><ele>179.0</ele><time>2026-04-18T09:38:30.765Z</time></trkpt><trkpt lat="42.8462183" lon="11.3422017"><ele>179.0</ele><time>2026-04-18T09:38:31.768Z</time></trkpt><trkpt lat="42.8461467" lon="11.342"><ele>180.0</ele><time>2026-04-18T09:38:32.77Z</time></trkpt><trkpt lat="42.846075" lon="11.3418"><ele>181.0</ele><time>2026-04-18T09:38:33.767Z</time></trkpt><trkpt lat="42.8459967" lon="11.34159"><ele>182.0</ele><time>2026-04-18T09:38:34.769Z</time></trkpt><trkpt lat="42.84591" lon="11.3413883"><ele>180.0</ele><time>2026-04-18T09:38:35.768Z</time></trkpt><trkpt lat="42.845805" lon="11.3411967"><ele>178.0</ele><time>2026-04-18T09:38:36.772Z</time></trkpt><trkpt lat="42.8456583" lon="11.3410567"><ele>176.0</ele><time>2026-04-18T09:38:37.766Z</time></trkpt><trkpt lat="42.8454733" lon="11.3409717"><ele>176.0</ele><time>2026-04-18T09:38:38.77Z</time></trkpt><trkpt lat="42.845285" lon="11.3409333"><ele>176.0</ele><time>2026-04-18T09:38:39.77Z</time></trkpt><trkpt lat="42.845095" lon="11.3408967"><ele>176.0</ele><time>2026-04-18T09:38:40.771Z</time></trkpt><trkpt lat="42.8449017" lon="11.3408483"><ele>175.33333333333331</ele><time>2026-04-18T09:38:41.765Z</time></trkpt><trkpt lat="42.8447217" lon="11.340775"><ele>174.66666666666666</ele><time>2026-04-18T09:38:42.769Z</time></trkpt><trkpt lat="42.844545" lon="11.3407067"><ele>174.0</ele><time>2026-04-18T09:38:43.768Z</time></trkpt><trkpt lat="42.8443617" lon="11.3406667"><ele>173.0</ele><time>2026-04-18T09:38:44.765Z</time></trkpt><trkpt lat="42.84417" lon="11.3406617"><ele>172.0</ele><time>2026-04-18T09:38:45.767Z</time></trkpt><trkpt lat="42.84397" lon="11.3406767"><ele>171.0</ele><time>2026-04-18T09:38:46.765Z</time></trkpt><trkpt lat="42.84377" lon="11.3406817"><ele>171.0</ele><time>2026-04-18T09:38:47.77Z</time></trkpt><trkpt lat="42.84357" lon="11.3406783"><ele>171.0</ele><time>2026-04-18T09:38:48.771Z</time></trkpt><trkpt lat="42.8433733" lon="11.340665"><ele>171.0</ele><time>2026-04-18T09:38:49.771Z</time></trkpt><trkpt lat="42.843175" lon="11.3406533"><ele>171.33333333333334</ele><time>2026-04-18T09:38:50.766Z</time></trkpt><trkpt lat="42.84298" lon="11.340655"><ele>171.66666666666669</ele><time>2026-04-18T09:38:51.765Z</time></trkpt><trkpt lat="42.842785" lon="11.3406733"><ele>172.0</ele><time>2026-04-18T09:38:52.768Z</time></trkpt><trkpt lat="42.842595" lon="11.34072"><ele>170.33333333333334</ele><time>2026-04-18T09:38:53.768Z</time></trkpt><trkpt lat="42.8424117" lon="11.3407817"><ele>168.66666666666666</ele><time>2026-04-18T09:38:54.77Z</time></trkpt><trkpt lat="42.842235" lon="11.3408433"><ele>167.0</ele><time>2026-04-18T09:38:55.77Z</time></trkpt><trkpt lat="42.84206" lon="11.3409033"><ele>167.0</ele><time>2026-04-18T09:38:56.768Z</time></trkpt><trkpt lat="42.8418867" lon="11.3409783"><ele>167.0</ele><time>2026-04-18T09:38:57.765Z</time></trkpt><trkpt lat="42.84172" lon="11.34109"><ele>167.0</ele><time>2026-04-18T09:38:58.768Z</time></trkpt><trkpt lat="42.8415583" lon="11.341255"><ele>166.0</ele><time>2026-04-18T09:38:59.769Z</time></trkpt><trkpt lat="42.841395" lon="11.3414617"><ele>165.0</ele><time>2026-04-18T09:39:00.766Z</time></trkpt><trkpt lat="42.84124" lon="11.3416783"><ele>164.0</ele><time>2026-04-18T09:39:01.769Z</time></trkpt><trkpt lat="42.8411083" lon="11.341875"><ele>164.0</ele><time>2026-04-18T09:39:02.768Z</time></trkpt><trkpt lat="42.8410033" lon="11.342035"><ele>164.0</ele><time>2026-04-18T09:39:03.765Z</time></trkpt><trkpt lat="42.8408983" lon="11.3421533"><ele>164.0</ele><time>2026-04-18T09:39:04.764Z</time></trkpt><trkpt lat="42.8407917" lon="11.34222"><ele>164.0</ele><time>2026-04-18T09:39:05.765Z</time></trkpt><trkpt lat="42.8406717" lon="11.34223"><ele>160.5</ele><time>2026-04-18T09:39:06.771Z</time></trkpt><trkpt lat="42.84056" lon="11.3422083"><ele>157.0</ele><time>2026-04-18T09:39:07.769Z</time></trkpt><trkpt lat="42.84048" lon="11.3421333"><ele>153.5</ele><time>2026-04-18T09:39:08.769Z</time></trkpt><trkpt lat="42.8404683" lon="11.3419567"><ele>150.0</ele><time>2026-04-18T09:39:09.769Z</time></trkpt><trkpt lat="42.8405133" lon="11.3417467"><ele>150.0</ele><time>2026-04-18T09:39:10.767Z</time></trkpt><trkpt lat="42.8406517" lon="11.341555"><ele>150.0</ele><time>2026-04-18T09:39:11.767Z</time></trkpt><trkpt lat="42.8407983" lon="11.3413617"><ele>150.0</ele><time>2026-04-18T09:39:12.771Z</time></trkpt><trkpt lat="42.8408833" lon="11.34116"><ele>148.33333333333334</ele><time>2026-04-18T09:39:13.768Z</time></trkpt><trkpt lat="42.840955" lon="11.3409183"><ele>146.66666666666669</ele><time>2026-04-18T09:39:14.768Z</time></trkpt><trkpt lat="42.8409567" lon="11.340665"><ele>145.0</ele><time>2026-04-18T09:39:15.759Z</time></trkpt><trkpt lat="42.8408933" lon="11.3403933"><ele>144.5</ele><time>2026-04-18T09:39:16.765Z</time></trkpt><trkpt lat="42.8407583" lon="11.3401"><ele>144.0</ele><time>2026-04-18T09:39:17.767Z</time></trkpt><trkpt lat="42.84063" lon="11.3398017"><ele>142.0</ele><time>2026-04-18T09:39:18.77Z</time></trkpt><trkpt lat="42.8405067" lon="11.33951"><ele>140.0</ele><time>2026-04-18T09:39:19.769Z</time></trkpt><trkpt lat="42.8404133" lon="11.3392183"><ele>140.0</ele><time>2026-04-18T09:39:20.765Z</time></trkpt><trkpt lat="42.8403467" lon="11.3389133"><ele>140.0</ele><time>2026-04-18T09:39:21.767Z</time></trkpt><trkpt lat="42.840305" lon="11.3385833"><ele>139.0</ele><time>2026-04-18T09:39:22.765Z</time></trkpt><trkpt lat="42.840275" lon="11.3382417"><ele>138.0</ele><time>2026-04-18T09:39:23.768Z</time></trkpt><trkpt lat="42.8402467" lon="11.3379033"><ele>136.66666666666666</ele><time>2026-04-18T09:39:24.77Z</time></trkpt><trkpt lat="42.8402167" lon="11.3375883"><ele>135.33333333333331</ele><time>2026-04-18T09:39:25.766Z</time></trkpt><trkpt lat="42.840185" lon="11.3372983"><ele>134.0</ele><time>2026-04-18T09:39:26.765Z</time></trkpt><trkpt lat="42.84014" lon="11.3370217"><ele>134.33333333333331</ele><time>2026-04-18T09:39:27.767Z</time></trkpt><trkpt lat="42.8400733" lon="11.3367483"><ele>134.66666666666666</ele><time>2026-04-18T09:39:28.765Z</time></trkpt><trkpt lat="42.839995" lon="11.336485"><ele>135.0</ele><time>2026-04-18T09:39:29.77Z</time></trkpt><trkpt lat="42.8399" lon="11.336255"><ele>135.0</ele><time>2026-04-18T09:39:30.769Z</time></trkpt><trkpt lat="42.8397817" lon="11.33605"><ele>135.0</ele><time>2026-04-18T09:39:31.766Z</time></trkpt><trkpt lat="42.8396383" lon="11.335885"><ele>135.0</ele><time>2026-04-18T09:39:32.765Z</time></trkpt><trkpt lat="42.8394717" lon="11.3357817"><ele>135.66666666666666</ele><time>2026-04-18T09:39:33.768Z</time></trkpt><trkpt lat="42.83929" lon="11.33573"><ele>136.33333333333331</ele><time>2026-04-18T09:39:34.77Z</time></trkpt><trkpt lat="42.8391" lon="11.33573"><ele>137.0</ele><time>2026-04-18T09:39:35.77Z</time></trkpt><trkpt lat="42.838905" lon="11.33579"><ele>137.0</ele><time>2026-04-18T09:39:36.763Z</time></trkpt><trkpt lat="42.8387067" lon="11.335925"><ele>137.0</ele><time>2026-04-18T09:39:37.767Z</time></trkpt><trkpt lat="42.8385233" lon="11.3361117"><ele>138.33333333333331</ele><time>2026-04-18T09:39:38.769Z</time></trkpt><trkpt lat="42.8383667" lon="11.3363317"><ele>139.66666666666666</ele><time>2026-04-18T09:39:39.768Z</time></trkpt><trkpt lat="42.8382167" lon="11.3365317"><ele>141.0</ele><time>2026-04-18T09:39:40.763Z</time></trkpt><trkpt lat="42.8380517" lon="11.3366967"><ele>138.0</ele><time>2026-04-18T09:39:41.765Z</time></trkpt><trkpt lat="42.8378683" lon="11.3368233"><ele>135.0</ele><time>2026-04-18T09:39:42.77Z</time></trkpt><trkpt lat="42.83766" lon="11.336905"><ele>132.0</ele><time>2026-04-18T09:39:43.766Z</time></trkpt><trkpt lat="42.8374333" lon="11.336975"><ele>132.0</ele><time>2026-04-18T09:39:44.764Z</time></trkpt><trkpt lat="42.8372017" lon="11.3370467"><ele>132.0</ele><time>2026-04-18T09:39:45.769Z</time></trkpt><trkpt lat="42.8369633" lon="11.3371217"><ele>133.5</ele><time>2026-04-18T09:39:46.764Z</time></trkpt><trkpt lat="42.8367267" lon="11.337195"><ele>135.0</ele><time>2026-04-18T09:39:47.767Z</time></trkpt><trkpt lat="42.8364917" lon="11.3372633"><ele>130.33333333333334</ele><time>2026-04-18T09:39:48.768Z</time></trkpt><trkpt lat="42.83627" lon="11.3373267"><ele>125.66666666666667</ele><time>2026-04-18T09:39:49.77Z</time></trkpt><trkpt lat="42.8360633" lon="11.33739"><ele>121.0</ele><time>2026-04-18T09:39:50.765Z</time></trkpt><trkpt lat="42.8358733" lon="11.3374467"><ele>121.0</ele><time>2026-04-18T09:39:51.767Z</time></trkpt><trkpt lat="42.8356933" lon="11.3374983"><ele>121.0</ele><time>2026-04-18T09:39:52.766Z</time></trkpt><trkpt lat="42.8355233" lon="11.33754"><ele>121.0</ele><time>2026-04-18T09:39:53.766Z</time></trkpt><trkpt lat="42.8353633" lon="11.3375883"><ele>121.0</ele><time>2026-04-18T09:39:54.77Z</time></trkpt><trkpt lat="42.8352133" lon="11.3376617"><ele>121.0</ele><time>2026-04-18T09:39:55.767Z</time></trkpt><trkpt lat="42.835075" lon="11.33778"><ele>121.0</ele><time>2026-04-18T09:39:56.763Z</time></trkpt><trkpt lat="42.8349567" lon="11.337945"><ele>118.0</ele><time>2026-04-18T09:39:57.767Z</time></trkpt><trkpt lat="42.8348417" lon="11.3381233"><ele>115.0</ele><time>2026-04-18T09:39:58.766Z</time></trkpt><trkpt lat="42.83471" lon="11.3382967"><ele>112.0</ele><time>2026-04-18T09:39:59.766Z</time></trkpt><trkpt lat="42.83457" lon="11.3384533"><ele>112.0</ele><time>2026-04-18T09:40:00.771Z</time></trkpt><trkpt lat="42.83443" lon="11.3385783"><ele>112.0</ele><time>2026-04-18T09:40:01.766Z</time></trkpt><trkpt lat="42.8342733" lon="11.3386467"><ele>112.0</ele><time>2026-04-18T09:40:02.765Z</time></trkpt><trkpt lat="42.8341167" lon="11.3386633"><ele>111.66666666666667</ele><time>2026-04-18T09:40:03.764Z</time></trkpt><trkpt lat="42.83396" lon="11.3386283"><ele>111.33333333333334</ele><time>2026-04-18T09:40:04.768Z</time></trkpt><trkpt lat="42.833825" lon="11.33853"><ele>111.0</ele><time>2026-04-18T09:40:05.765Z</time></trkpt><trkpt lat="42.8337117" lon="11.3384117"><ele>111.0</ele><time>2026-04-18T09:40:06.77Z</time></trkpt><trkpt lat="42.83362" lon="11.338255"><ele>111.0</ele><time>2026-04-18T09:40:07.768Z</time></trkpt><trkpt lat="42.8335433" lon="11.3380533"><ele>111.0</ele><time>2026-04-18T09:40:08.766Z</time></trkpt><trkpt lat="42.8334867" lon="11.337805"><ele>108.33333333333334</ele><time>2026-04-18T09:40:09.766Z</time></trkpt><trkpt lat="42.8334317" lon="11.3375467"><ele>105.66666666666667</ele><time>2026-04-18T09:40:10.766Z</time></trkpt><trkpt lat="42.8333767" lon="11.3372817"><ele>103.0</ele><time>2026-04-18T09:40:11.765Z</time></trkpt><trkpt lat="42.8333233" lon="11.3370083"><ele>103.0</ele><time>2026-04-18T09:40:12.768Z</time></trkpt><trkpt lat="42.83327" lon="11.336725"><ele>103.0</ele><time>2026-04-18T09:40:13.766Z</time></trkpt><trkpt lat="42.83321" lon="11.336455"><ele>103.0</ele><time>2026-04-18T09:40:14.768Z</time></trkpt><trkpt lat="42.8331517" lon="11.3361933"><ele>104.66666666666667</ele><time>2026-04-18T09:40:15.769Z</time></trkpt><trkpt lat="42.8330967" lon="11.3359433"><ele>106.33333333333334</ele><time>2026-04-18T09:40:16.767Z</time></trkpt><trkpt lat="42.83305" lon="11.3357067"><ele>108.0</ele><time>2026-04-18T09:40:17.766Z</time></trkpt><trkpt lat="42.8330233" lon="11.3354717"><ele>108.0</ele><time>2026-04-18T09:40:18.771Z</time></trkpt><trkpt lat="42.8330217" lon="11.3352433"><ele>108.0</ele><time>2026-04-18T09:40:19.77Z</time></trkpt><trkpt lat="42.833025" lon="11.3350233"><ele>108.0</ele><time>2026-04-18T09:40:20.767Z</time></trkpt><trkpt lat="42.8330383" lon="11.3348117"><ele>107.60000000000001</ele><time>2026-04-18T09:40:21.767Z</time></trkpt><trkpt lat="42.8330583" lon="11.33462"><ele>107.20000000000002</ele><time>2026-04-18T09:40:22.764Z</time></trkpt><trkpt lat="42.8330617" lon="11.3344633"><ele>106.8</ele><time>2026-04-18T09:40:23.768Z</time></trkpt><trkpt lat="42.8330417" lon="11.334335"><ele>106.4</ele><time>2026-04-18T09:40:24.77Z</time></trkpt><trkpt lat="42.833005" lon="11.33423"><ele>106.0</ele><time>2026-04-18T09:40:25.768Z</time></trkpt><trkpt lat="42.832945" lon="11.3341583"><ele>106.0</ele><time>2026-04-18T09:40:26.768Z</time></trkpt><trkpt lat="42.832865" lon="11.33412"><ele>106.0</ele><time>2026-04-18T09:40:27.766Z</time></trkpt><trkpt lat="42.8327683" lon="11.3341017"><ele>106.0</ele><time>2026-04-18T09:40:28.765Z</time></trkpt><trkpt lat="42.8326733" lon="11.334095"><ele>106.0</ele><time>2026-04-18T09:40:29.771Z</time></trkpt><trkpt lat="42.8325717" lon="11.33409"><ele>106.0</ele><time>2026-04-18T09:40:30.765Z</time></trkpt><trkpt lat="42.83249" lon="11.3340717"><ele>101.83333333333334</ele><time>2026-04-18T09:40:31.77Z</time></trkpt><trkpt lat="42.8324067" lon="11.33405"><ele>97.66666666666667</ele><time>2026-04-18T09:40:32.765Z</time></trkpt><trkpt lat="42.8323183" lon="11.3340267"><ele>93.5</ele><time>2026-04-18T09:40:33.77Z</time></trkpt><trkpt lat="42.8322333" lon="11.333995"><ele>89.33333333333334</ele><time>2026-04-18T09:40:34.763Z</time></trkpt><trkpt lat="42.8321433" lon="11.3339517"><ele>85.16666666666667</ele><time>2026-04-18T09:40:35.769Z</time></trkpt><trkpt lat="42.8320733" lon="11.33389"><ele>81.0</ele><time>2026-04-18T09:40:36.772Z</time></trkpt><trkpt lat="42.8320067" lon="11.3337983"><ele>80.0</ele><time>2026-04-18T09:40:37.768Z</time></trkpt><trkpt lat="42.83195" lon="11.333675"><ele>79.0</ele><time>2026-04-18T09:40:38.766Z</time></trkpt><trkpt lat="42.8319083" lon="11.3335117"><ele>78.0</ele><time>2026-04-18T09:40:39.768Z</time></trkpt><trkpt lat="42.8318533" lon="11.33335"><ele>77.0</ele><time>2026-04-18T09:40:40.769Z</time></trkpt><trkpt lat="42.8318033" lon="11.3331767"><ele>80.0</ele><time>2026-04-18T09:40:41.763Z</time></trkpt><trkpt lat="42.83175" lon="11.3330067"><ele>83.0</ele><time>2026-04-18T09:40:42.768Z</time></trkpt><trkpt lat="42.831695" lon="11.332835"><ele>86.0</ele><time>2026-04-18T09:40:43.768Z</time></trkpt><trkpt lat="42.8316233" lon="11.332665"><ele>89.0</ele><time>2026-04-18T09:40:44.765Z</time></trkpt><trkpt lat="42.83153" lon="11.3325033"><ele>89.0</ele><time>2026-04-18T09:40:45.766Z</time></trkpt><trkpt lat="42.8314183" lon="11.3323617"><ele>89.0</ele><time>2026-04-18T09:40:46.769Z</time></trkpt><trkpt lat="42.83129" lon="11.3322383"><ele>89.0</ele><time>2026-04-18T09:40:47.766Z</time></trkpt><trkpt lat="42.8311433" lon="11.332145"><ele>86.66666666666667</ele><time>2026-04-18T09:40:48.769Z</time></trkpt><trkpt lat="42.8309817" lon="11.3320767"><ele>84.33333333333333</ele><time>2026-04-18T09:40:49.77Z</time></trkpt><trkpt lat="42.8308117" lon="11.33203"><ele>82.0</ele><time>2026-04-18T09:40:50.767Z</time></trkpt><trkpt lat="42.830635" lon="11.3319883"><ele>82.0</ele><time>2026-04-18T09:40:51.769Z</time></trkpt><trkpt lat="42.83045" lon="11.331945"><ele>82.0</ele><time>2026-04-18T09:40:52.768Z</time></trkpt><trkpt lat="42.83026" lon="11.3318983"><ele>82.0</ele><time>2026-04-18T09:40:53.766Z</time></trkpt><trkpt lat="42.8300667" lon="11.3318533"><ele>86.33333333333333</ele><time>2026-04-18T09:40:54.772Z</time></trkpt><trkpt lat="42.8298733" lon="11.331805"><ele>90.66666666666667</ele><time>2026-04-18T09:40:55.77Z</time></trkpt><trkpt lat="42.8296817" lon="11.3317433"><ele>95.0</ele><time>2026-04-18T09:40:56.764Z</time></trkpt><trkpt lat="42.8294983" lon="11.3316867"><ele>95.0</ele><time>2026-04-18T09:40:57.768Z</time></trkpt><trkpt lat="42.8293233" lon="11.331635"><ele>95.0</ele><time>2026-04-18T09:40:58.765Z</time></trkpt><trkpt lat="42.82915" lon="11.3315783"><ele>95.0</ele><time>2026-04-18T09:40:59.77Z</time></trkpt><trkpt lat="42.82899" lon="11.3315167"><ele>94.25</ele><time>2026-04-18T09:41:00.769Z</time></trkpt><trkpt lat="42.8288383" lon="11.33145"><ele>93.5</ele><time>2026-04-18T09:41:01.77Z</time></trkpt><trkpt lat="42.8287017" lon="11.3313833"><ele>92.75</ele><time>2026-04-18T09:41:02.77Z</time></trkpt><trkpt lat="42.828575" lon="11.33132"><ele>92.0</ele><time>2026-04-18T09:41:03.769Z</time></trkpt><trkpt lat="42.8284667" lon="11.33127"><ele>92.85714285714286</ele><time>2026-04-18T09:41:04.767Z</time></trkpt><trkpt lat="42.8283867" lon="11.3312367"><ele>93.71428571428571</ele><time>2026-04-18T09:41:05.768Z</time></trkpt><trkpt lat="42.8282967" lon="11.3311983"><ele>94.57142857142857</ele><time>2026-04-18T09:41:07.766Z</time></trkpt><trkpt lat="42.8282367" lon="11.3312267"><ele>95.42857142857143</ele><time>2026-04-18T09:41:10.771Z</time></trkpt><trkpt lat="42.8282133" lon="11.3313117"><ele>96.28571428571428</ele><time>2026-04-18T09:41:13.769Z</time></trkpt><trkpt lat="42.8282533" lon="11.331385"><ele>97.14285714285714</ele><time>2026-04-18T09:41:17.768Z</time></trkpt><trkpt lat="42.8283067" lon="11.33132"><ele>98.0</ele><time>2026-04-18T09:41:20.768Z</time></trkpt><trkpt lat="42.82824" lon="11.3312667"><ele>98.0</ele><time>2026-04-18T09:41:27.768Z</time></trkpt><trkpt lat="42.8281967" lon="11.33139"><ele>98.0</ele><time>2026-04-18T09:41:29.766Z</time></trkpt><trkpt lat="42.8281467" lon="11.3314783"><ele>98.0</ele><time>2026-04-18T09:41:30.769Z</time></trkpt><trkpt lat="42.8280783" lon="11.3315883"><ele>98.0</ele><time>2026-04-18T09:41:31.767Z</time></trkpt><trkpt lat="42.8279967" lon="11.3317283"><ele>98.0</ele><time>2026-04-18T09:41:32.764Z</time></trkpt><trkpt lat="42.8279117" lon="11.3318683"><ele>99.5</ele><time>2026-04-18T09:41:33.769Z</time></trkpt><trkpt lat="42.8278383" lon="11.3320033"><ele>101.0</ele><time>2026-04-18T09:41:34.765Z</time></trkpt><trkpt lat="42.827775" lon="11.3321417"><ele>102.5</ele><time>2026-04-18T09:41:35.771Z</time></trkpt><trkpt lat="42.8277333" lon="11.3322933"><ele>104.0</ele><time>2026-04-18T09:41:36.769Z</time></trkpt><trkpt lat="42.8277183" lon="11.3324483"><ele>105.6</ele><time>2026-04-18T09:41:37.77Z</time></trkpt><trkpt lat="42.8277417" lon="11.33259"><ele>107.2</ele><time>2026-04-18T09:41:38.765Z</time></trkpt><trkpt lat="42.8278067" lon="11.3327033"><ele>108.79999999999998</ele><time>2026-04-18T09:41:39.766Z</time></trkpt><trkpt lat="42.8278983" lon="11.3327817"><ele>110.39999999999999</ele><time>2026-04-18T09:41:40.765Z</time></trkpt><trkpt lat="42.8279933" lon="11.332815"><ele>112.0</ele><time>2026-04-18T09:41:41.77Z</time></trkpt><trkpt lat="42.8280783" lon="11.3328483"><ele>112.0</ele><time>2026-04-18T09:41:42.765Z</time></trkpt><trkpt lat="42.8281833" lon="11.3328217"><ele>112.0</ele><time>2026-04-18T09:41:43.77Z</time></trkpt><trkpt lat="42.8282967" lon="11.3326683"><ele>112.0</ele><time>2026-04-18T09:41:44.765Z</time></trkpt><trkpt lat="42.828395" lon="11.332555"><ele>112.0</ele><time>2026-04-18T09:41:45.768Z</time></trkpt><trkpt lat="42.828495" lon="11.332505"><ele>113.16666666666667</ele><time>2026-04-18T09:41:46.764Z</time></trkpt><trkpt lat="42.828595" lon="11.3324917"><ele>114.33333333333334</ele><time>2026-04-18T09:41:47.768Z</time></trkpt><trkpt lat="42.8286917" lon="11.3325217"><ele>115.5</ele><time>2026-04-18T09:41:48.771Z</time></trkpt><trkpt lat="42.8287617" lon="11.3325983"><ele>116.66666666666666</ele><time>2026-04-18T09:41:49.768Z</time></trkpt><trkpt lat="42.82882" lon="11.332675"><ele>117.83333333333333</ele><time>2026-04-18T09:41:50.766Z</time></trkpt><trkpt lat="42.82885" lon="11.3327617"><ele>119.0</ele><time>2026-04-18T09:41:51.769Z</time></trkpt><trkpt lat="42.8287833" lon="11.3329233"><ele>119.66666666666666</ele><time>2026-04-18T09:41:52.768Z</time></trkpt><trkpt lat="42.8286833" lon="11.3331433"><ele>120.33333333333334</ele><time>2026-04-18T09:41:53.768Z</time></trkpt><trkpt lat="42.8285567" lon="11.33342"><ele>121.0</ele><time>2026-04-18T09:41:54.77Z</time></trkpt><trkpt lat="42.8284517" lon="11.333685"><ele>125.5</ele><time>2026-04-18T09:41:55.768Z</time></trkpt><trkpt lat="42.8283583" lon="11.33397"><ele>130.0</ele><time>2026-04-18T09:41:56.767Z</time></trkpt><trkpt lat="42.828255" lon="11.3343083"><ele>130.0</ele><time>2026-04-18T09:41:57.77Z</time></trkpt><trkpt lat="42.8281317" lon="11.3346667"><ele>130.0</ele><time>2026-04-18T09:41:58.765Z</time></trkpt><trkpt lat="42.82802" lon="11.3350133"><ele>132.5</ele><time>2026-04-18T09:41:59.772Z</time></trkpt><trkpt lat="42.8279267" lon="11.3353167"><ele>135.0</ele><time>2026-04-18T09:42:00.765Z</time></trkpt><trkpt lat="42.8278233" lon="11.3356133"><ele>139.5</ele><time>2026-04-18T09:42:01.771Z</time></trkpt><trkpt lat="42.8277133" lon="11.3359133"><ele>144.0</ele><time>2026-04-18T09:42:02.767Z</time></trkpt><trkpt lat="42.8276067" lon="11.3362067"><ele>139.5</ele><time>2026-04-18T09:42:03.763Z</time></trkpt><trkpt lat="42.8274967" lon="11.336495"><ele>135.0</ele><time>2026-04-18T09:42:04.772Z</time></trkpt><trkpt lat="42.8273967" lon="11.336765"><ele>135.0</ele><time>2026-04-18T09:42:05.765Z</time></trkpt><trkpt lat="42.827305" lon="11.33701"><ele>135.0</ele><time>2026-04-18T09:42:06.769Z</time></trkpt><trkpt lat="42.827225" lon="11.3372333"><ele>135.0</ele><time>2026-04-18T09:42:07.769Z</time></trkpt><trkpt lat="42.8271533" lon="11.337435"><ele>139.0</ele><time>2026-04-18T09:42:08.765Z</time></trkpt><trkpt lat="42.8270883" lon="11.3376367"><ele>143.0</ele><time>2026-04-18T09:42:09.764Z</time></trkpt><trkpt lat="42.8270417" lon="11.3378533"><ele>147.0</ele><time>2026-04-18T09:42:10.766Z</time></trkpt><trkpt lat="42.82701" lon="11.3380867"><ele>150.0</ele><time>2026-04-18T09:42:11.771Z</time></trkpt><trkpt lat="42.8269967" lon="11.3383317"><ele>153.0</ele><time>2026-04-18T09:42:12.763Z</time></trkpt><trkpt lat="42.827" lon="11.3385667"><ele>156.0</ele><time>2026-04-18T09:42:13.765Z</time></trkpt><trkpt lat="42.827025" lon="11.3387917"><ele>156.0</ele><time>2026-04-18T09:42:14.765Z</time></trkpt><trkpt lat="42.8270817" lon="11.339005"><ele>156.0</ele><time>2026-04-18T09:42:15.766Z</time></trkpt><trkpt lat="42.8271683" lon="11.3392133"><ele>156.0</ele><time>2026-04-18T09:42:16.765Z</time></trkpt><trkpt lat="42.8272767" lon="11.3394167"><ele>156.0</ele><time>2026-04-18T09:42:17.764Z</time></trkpt><trkpt lat="42.8273983" lon="11.3396217"><ele>156.0</ele><time>2026-04-18T09:42:18.768Z</time></trkpt><trkpt lat="42.8275167" lon="11.3398217"><ele>156.0</ele><time>2026-04-18T09:42:19.766Z</time></trkpt><trkpt lat="42.8276183" lon="11.34001"><ele>157.0</ele><time>2026-04-18T09:42:20.766Z</time></trkpt><trkpt lat="42.8277017" lon="11.34018"><ele>158.0</ele><time>2026-04-18T09:42:21.766Z</time></trkpt><trkpt lat="42.827755" lon="11.3403333"><ele>159.0</ele><time>2026-04-18T09:42:22.767Z</time></trkpt><trkpt lat="42.8277633" lon="11.3404717"><ele>160.0</ele><time>2026-04-18T09:42:23.767Z</time></trkpt><trkpt lat="42.82771" lon="11.34061"><ele>160.0</ele><time>2026-04-18T09:42:24.769Z</time></trkpt><trkpt lat="42.827615" lon="11.3407367"><ele>160.0</ele><time>2026-04-18T09:42:25.768Z</time></trkpt><trkpt lat="42.8274983" lon="11.3408567"><ele>160.0</ele><time>2026-04-18T09:42:26.765Z</time></trkpt><trkpt lat="42.8273717" lon="11.3409817"><ele>160.0</ele><time>2026-04-18T09:42:27.77Z</time></trkpt><trkpt lat="42.827245" lon="11.3411183"><ele>160.0</ele><time>2026-04-18T09:42:28.77Z</time></trkpt><trkpt lat="42.8271233" lon="11.3412683"><ele>160.0</ele><time>2026-04-18T09:42:29.766Z</time></trkpt><trkpt lat="42.8270267" lon="11.3414383"><ele>160.0</ele><time>2026-04-18T09:42:30.769Z</time></trkpt><trkpt lat="42.8269533" lon="11.3416317"><ele>164.66666666666669</ele><time>2026-04-18T09:42:31.765Z</time></trkpt><trkpt lat="42.826905" lon="11.3418667"><ele>169.33333333333334</ele><time>2026-04-18T09:42:32.769Z</time></trkpt><trkpt lat="42.8268767" lon="11.3421267"><ele>174.0</ele><time>2026-04-18T09:42:33.765Z</time></trkpt><trkpt lat="42.8268433" lon="11.3423867"><ele>176.33333333333334</ele><time>2026-04-18T09:42:34.77Z</time></trkpt><trkpt lat="42.8268183" lon="11.3426333"><ele>178.66666666666669</ele><time>2026-04-18T09:42:35.766Z</time></trkpt><trkpt lat="42.826825" lon="11.3428667"><ele>181.0</ele><time>2026-04-18T09:42:36.764Z</time></trkpt><trkpt lat="42.826845" lon="11.3431"><ele>182.0</ele><time>2026-04-18T09:42:37.769Z</time></trkpt><trkpt lat="42.8268683" lon="11.3433167"><ele>183.0</ele><time>2026-04-18T09:42:38.771Z</time></trkpt><trkpt lat="42.8268567" lon="11.3435283"><ele>184.0</ele><time>2026-04-18T09:42:39.766Z</time></trkpt><trkpt lat="42.8268083" lon="11.3437433"><ele>180.33333333333334</ele><time>2026-04-18T09:42:40.756Z</time></trkpt><trkpt lat="42.8267417" lon="11.34395"><ele>176.66666666666666</ele><time>2026-04-18T09:42:41.761Z</time></trkpt><trkpt lat="42.8266467" lon="11.3441383"><ele>173.0</ele><time>2026-04-18T09:42:42.765Z</time></trkpt><trkpt lat="42.82656" lon="11.3443183"><ele>173.0</ele><time>2026-04-18T09:42:43.769Z</time></trkpt><trkpt lat="42.8264883" lon="11.344505"><ele>173.0</ele><time>2026-04-18T09:42:44.769Z</time></trkpt><trkpt lat="42.8264333" lon="11.3447083"><ele>173.0</ele><time>2026-04-18T09:42:45.766Z</time></trkpt><trkpt lat="42.8263983" lon="11.34492"><ele>174.66666666666666</ele><time>2026-04-18T09:42:46.765Z</time></trkpt><trkpt lat="42.8263667" lon="11.3451417"><ele>176.33333333333334</ele><time>2026-04-18T09:42:47.769Z</time></trkpt><trkpt lat="42.826325" lon="11.3453583"><ele>178.0</ele><time>2026-04-18T09:42:48.772Z</time></trkpt><trkpt lat="42.826265" lon="11.345565"><ele>180.66666666666669</ele><time>2026-04-18T09:42:49.766Z</time></trkpt><trkpt lat="42.8261833" lon="11.345755"><ele>183.33333333333334</ele><time>2026-04-18T09:42:50.765Z</time></trkpt><trkpt lat="42.82609" lon="11.3459417"><ele>186.0</ele><time>2026-04-18T09:42:51.765Z</time></trkpt><trkpt lat="42.8260033" lon="11.3461283"><ele>183.0</ele><time>2026-04-18T09:42:52.767Z</time></trkpt><trkpt lat="42.8259067" lon="11.346315"><ele>180.0</ele><time>2026-04-18T09:42:53.766Z</time></trkpt><trkpt lat="42.82581" lon="11.346505"><ele>177.0</ele><time>2026-04-18T09:42:54.771Z</time></trkpt><trkpt lat="42.8257083" lon="11.3466933"><ele>177.0</ele><time>2026-04-18T09:42:55.765Z</time></trkpt><trkpt lat="42.8256033" lon="11.3468833"><ele>177.0</ele><time>2026-04-18T09:42:56.771Z</time></trkpt><trkpt lat="42.8255017" lon="11.34707"><ele>177.0</ele><time>2026-04-18T09:42:57.77Z</time></trkpt><trkpt lat="42.8254033" lon="11.3472517"><ele>178.33333333333334</ele><time>2026-04-18T09:42:58.765Z</time></trkpt><trkpt lat="42.8253033" lon="11.347425"><ele>179.66666666666669</ele><time>2026-04-18T09:42:59.771Z</time></trkpt><trkpt lat="42.8252067" lon="11.34759"><ele>181.0</ele><time>2026-04-18T09:43:00.771Z</time></trkpt><trkpt lat="42.8251167" lon="11.34775"><ele>179.0</ele><time>2026-04-18T09:43:01.766Z</time></trkpt><trkpt lat="42.82502" lon="11.347895"><ele>177.0</ele><time>2026-04-18T09:43:02.77Z</time></trkpt><trkpt lat="42.8249117" lon="11.3480183"><ele>175.0</ele><time>2026-04-18T09:43:03.77Z</time></trkpt><trkpt lat="42.8247983" lon="11.3481117"><ele>173.0</ele><time>2026-04-18T09:43:04.763Z</time></trkpt><trkpt lat="42.824675" lon="11.34818"><ele>173.0</ele><time>2026-04-18T09:43:05.77Z</time></trkpt><trkpt lat="42.8245433" lon="11.348225"><ele>173.0</ele><time>2026-04-18T09:43:06.766Z</time></trkpt><trkpt lat="42.8244067" lon="11.3482567"><ele>173.0</ele><time>2026-04-18T09:43:07.769Z</time></trkpt><trkpt lat="42.8242717" lon="11.3483033"><ele>173.0</ele><time>2026-04-18T09:43:08.769Z</time></trkpt><trkpt lat="42.8241517" lon="11.3483667"><ele>172.5</ele><time>2026-04-18T09:43:09.77Z</time></trkpt><trkpt lat="42.8240483" lon="11.348465"><ele>172.0</ele><time>2026-04-18T09:43:10.769Z</time></trkpt><trkpt lat="42.823965" lon="11.3485933"><ele>171.5</ele><time>2026-04-18T09:43:11.765Z</time></trkpt><trkpt lat="42.8239" lon="11.3487467"><ele>171.0</ele><time>2026-04-18T09:43:12.765Z</time></trkpt><trkpt lat="42.8238517" lon="11.34893"><ele>171.0</ele><time>2026-04-18T09:43:13.766Z</time></trkpt><trkpt lat="42.8238267" lon="11.349135"><ele>171.0</ele><time>2026-04-18T09:43:14.768Z</time></trkpt><trkpt lat="42.823815" lon="11.349345"><ele>171.0</ele><time>2026-04-18T09:43:15.768Z</time></trkpt><trkpt lat="42.82381" lon="11.3495467"><ele>170.0</ele><time>2026-04-18T09:43:16.769Z</time></trkpt><trkpt lat="42.823795" lon="11.3497433"><ele>169.0</ele><time>2026-04-18T09:43:17.765Z</time></trkpt><trkpt lat="42.8237733" lon="11.3499267"><ele>168.0</ele><time>2026-04-18T09:43:18.771Z</time></trkpt><trkpt lat="42.8237417" lon="11.3500933"><ele>167.0</ele><time>2026-04-18T09:43:19.771Z</time></trkpt><trkpt lat="42.823705" lon="11.350245"><ele>167.0</ele><time>2026-04-18T09:43:20.768Z</time></trkpt><trkpt lat="42.823665" lon="11.3503817"><ele>167.0</ele><time>2026-04-18T09:43:21.768Z</time></trkpt><trkpt lat="42.82363" lon="11.3505"><ele>167.0</ele><time>2026-04-18T09:43:22.771Z</time></trkpt><trkpt lat="42.8236033" lon="11.3506033"><ele>167.0</ele><time>2026-04-18T09:43:23.769Z</time></trkpt><trkpt lat="42.8235667" lon="11.3507233"><ele>167.0</ele><time>2026-04-18T09:43:25.771Z</time></trkpt><trkpt lat="42.8235417" lon="11.3508333"><ele>166.5</ele><time>2026-04-18T09:43:41.768Z</time></trkpt><trkpt lat="42.8234867" lon="11.3509533"><ele>166.0</ele><time>2026-04-18T09:43:43.769Z</time></trkpt><trkpt lat="42.82345" lon="11.3510317"><ele>165.5</ele><time>2026-04-18T09:43:44.768Z</time></trkpt><trkpt lat="42.823405" lon="11.351125"><ele>165.0</ele><time>2026-04-18T09:43:45.767Z</time></trkpt><trkpt lat="42.823345" lon="11.3512183"><ele>164.5</ele><time>2026-04-18T09:43:46.764Z</time></trkpt><trkpt lat="42.823265" lon="11.3512967"><ele>164.0</ele><time>2026-04-18T09:43:47.772Z</time></trkpt><trkpt lat="42.8231767" lon="11.351345"><ele>164.79999999999998</ele><time>2026-04-18T09:43:48.77Z</time></trkpt><trkpt lat="42.823075" lon="11.3513633"><ele>165.6</ele><time>2026-04-18T09:43:49.765Z</time></trkpt><trkpt lat="42.82297" lon="11.3513633"><ele>166.4</ele><time>2026-04-18T09:43:50.764Z</time></trkpt><trkpt lat="42.8228583" lon="11.3513433"><ele>167.2</ele><time>2026-04-18T09:43:51.769Z</time></trkpt><trkpt lat="42.822745" lon="11.3513133"><ele>168.0</ele><time>2026-04-18T09:43:52.766Z</time></trkpt><trkpt lat="42.82262" lon="11.3512817"><ele>168.0</ele><time>2026-04-18T09:43:53.769Z</time></trkpt><trkpt lat="42.8225" lon="11.351245"><ele>168.0</ele><time>2026-04-18T09:43:54.768Z</time></trkpt><trkpt lat="42.8223867" lon="11.35121"><ele>168.0</ele><time>2026-04-18T09:43:55.769Z</time></trkpt><trkpt lat="42.82228" lon="11.35118"><ele>168.0</ele><time>2026-04-18T09:43:56.766Z</time></trkpt><trkpt lat="42.8221717" lon="11.3511533"><ele>168.0</ele><time>2026-04-18T09:43:57.771Z</time></trkpt><trkpt lat="42.82206" lon="11.3511217"><ele>168.0</ele><time>2026-04-18T09:43:58.764Z</time></trkpt><trkpt lat="42.8219433" lon="11.35109"><ele>168.0</ele><time>2026-04-18T09:43:59.77Z</time></trkpt><trkpt lat="42.8218217" lon="11.351065"><ele>168.0</ele><time>2026-04-18T09:44:00.771Z</time></trkpt><trkpt lat="42.821695" lon="11.3510533"><ele>166.0</ele><time>2026-04-18T09:44:01.769Z</time></trkpt><trkpt lat="42.821575" lon="11.3510567"><ele>164.0</ele><time>2026-04-18T09:44:02.766Z</time></trkpt><trkpt lat="42.8214517" lon="11.3510667"><ele>162.0</ele><time>2026-04-18T09:44:03.765Z</time></trkpt><trkpt lat="42.82133" lon="11.3510817"><ele>160.0</ele><time>2026-04-18T09:44:04.765Z</time></trkpt><trkpt lat="42.821205" lon="11.3510983"><ele>160.0</ele><time>2026-04-18T09:44:05.769Z</time></trkpt><trkpt lat="42.82109" lon="11.3511367"><ele>160.0</ele><time>2026-04-18T09:44:06.766Z</time></trkpt><trkpt lat="42.8209783" lon="11.3511717"><ele>160.0</ele><time>2026-04-18T09:44:07.765Z</time></trkpt><trkpt lat="42.82087" lon="11.3511917"><ele>160.0</ele><time>2026-04-18T09:44:08.765Z</time></trkpt><trkpt lat="42.82077" lon="11.3511867"><ele>160.0</ele><time>2026-04-18T09:44:09.769Z</time></trkpt><trkpt lat="42.8206667" lon="11.3511533"><ele>160.25</ele><time>2026-04-18T09:44:10.769Z</time></trkpt><trkpt lat="42.8205733" lon="11.3510733"><ele>160.5</ele><time>2026-04-18T09:44:11.766Z</time></trkpt><trkpt lat="42.8204917" lon="11.3509567"><ele>160.75</ele><time>2026-04-18T09:44:12.772Z</time></trkpt><trkpt lat="42.8204067" lon="11.350845"><ele>161.0</ele><time>2026-04-18T09:44:13.769Z</time></trkpt><trkpt lat="42.8203217" lon="11.3507267"><ele>161.0</ele><time>2026-04-18T09:44:14.765Z</time></trkpt><trkpt lat="42.8202317" lon="11.3505917"><ele>161.0</ele><time>2026-04-18T09:44:15.769Z</time></trkpt><trkpt lat="42.820145" lon="11.3504467"><ele>161.0</ele><time>2026-04-18T09:44:16.765Z</time></trkpt><trkpt lat="42.82005" lon="11.35031"><ele>161.0</ele><time>2026-04-18T09:44:17.768Z</time></trkpt><trkpt lat="42.8199383" lon="11.3502"><ele>160.5</ele><time>2026-04-18T09:44:18.77Z</time></trkpt><trkpt lat="42.819815" lon="11.3501167"><ele>160.0</ele><time>2026-04-18T09:44:19.768Z</time></trkpt><trkpt lat="42.8196867" lon="11.350065"><ele>159.5</ele><time>2026-04-18T09:44:20.766Z</time></trkpt><trkpt lat="42.8195617" lon="11.3500367"><ele>159.0</ele><time>2026-04-18T09:44:21.769Z</time></trkpt><trkpt lat="42.8194517" lon="11.3500417"><ele>159.0</ele><time>2026-04-18T09:44:22.77Z</time></trkpt><trkpt lat="42.8193417" lon="11.350095"><ele>159.0</ele><time>2026-04-18T09:44:23.772Z</time></trkpt><trkpt lat="42.8192317" lon="11.3501833"><ele>159.0</ele><time>2026-04-18T09:44:24.769Z</time></trkpt><trkpt lat="42.8191117" lon="11.3502783"><ele>159.0</ele><time>2026-04-18T09:44:25.766Z</time></trkpt><trkpt lat="42.8189867" lon="11.35038"><ele>157.66666666666666</ele><time>2026-04-18T09:44:26.771Z</time></trkpt><trkpt lat="42.8188567" lon="11.3504767"><ele>156.33333333333331</ele><time>2026-04-18T09:44:27.769Z</time></trkpt><trkpt lat="42.8187183" lon="11.3505733"><ele>155.0</ele><time>2026-04-18T09:44:28.765Z</time></trkpt><trkpt lat="42.8185867" lon="11.3506733"><ele>155.66666666666666</ele><time>2026-04-18T09:44:29.765Z</time></trkpt><trkpt lat="42.81845" lon="11.350775"><ele>156.33333333333334</ele><time>2026-04-18T09:44:30.772Z</time></trkpt><trkpt lat="42.8183117" lon="11.35088"><ele>157.0</ele><time>2026-04-18T09:44:31.766Z</time></trkpt><trkpt lat="42.8181783" lon="11.35098"><ele>157.0</ele><time>2026-04-18T09:44:32.765Z</time></trkpt><trkpt lat="42.8180483" lon="11.35107"><ele>157.0</ele><time>2026-04-18T09:44:33.766Z</time></trkpt><trkpt lat="42.8179283" lon="11.3511567"><ele>157.0</ele><time>2026-04-18T09:44:34.765Z</time></trkpt><trkpt lat="42.8178067" lon="11.3512233"><ele>157.0</ele><time>2026-04-18T09:44:35.765Z</time></trkpt><trkpt lat="42.8176867" lon="11.3512667"><ele>154.75</ele><time>2026-04-18T09:44:36.768Z</time></trkpt><trkpt lat="42.8175617" lon="11.35127"><ele>152.5</ele><time>2026-04-18T09:44:37.765Z</time></trkpt><trkpt lat="42.81744" lon="11.3512367"><ele>150.25</ele><time>2026-04-18T09:44:38.765Z</time></trkpt><trkpt lat="42.8173133" lon="11.3511683"><ele>148.0</ele><time>2026-04-18T09:44:39.764Z</time></trkpt><trkpt lat="42.81719" lon="11.3510733"><ele>148.0</ele><time>2026-04-18T09:44:40.766Z</time></trkpt><trkpt lat="42.8170667" lon="11.3509817"><ele>148.0</ele><time>2026-04-18T09:44:41.768Z</time></trkpt><trkpt lat="42.8169467" lon="11.35092"><ele>148.0</ele><time>2026-04-18T09:44:42.771Z</time></trkpt><trkpt lat="42.8168317" lon="11.3509"><ele>148.0</ele><time>2026-04-18T09:44:43.766Z</time></trkpt><trkpt lat="42.8167233" lon="11.3509417"><ele>147.5</ele><time>2026-04-18T09:44:44.765Z</time></trkpt><trkpt lat="42.816625" lon="11.351035"><ele>147.0</ele><time>2026-04-18T09:44:45.77Z</time></trkpt><trkpt lat="42.81655" lon="11.3511833"><ele>146.5</ele><time>2026-04-18T09:44:46.766Z</time></trkpt><trkpt lat="42.8164833" lon="11.351345"><ele>146.0</ele><time>2026-04-18T09:44:47.771Z</time></trkpt><trkpt lat="42.8164117" lon="11.3515017"><ele>146.0</ele><time>2026-04-18T09:44:48.766Z</time></trkpt><trkpt lat="42.816315" lon="11.3516433"><ele>146.0</ele><time>2026-04-18T09:44:49.766Z</time></trkpt><trkpt lat="42.8162033" lon="11.3517683"><ele>146.0</ele><time>2026-04-18T09:44:50.769Z</time></trkpt><trkpt lat="42.8160883" lon="11.3518617"><ele>146.0</ele><time>2026-04-18T09:44:51.769Z</time></trkpt><trkpt lat="42.815975" lon="11.35192"><ele>144.2</ele><time>2026-04-18T09:44:52.77Z</time></trkpt><trkpt lat="42.81586" lon="11.3519217"><ele>142.39999999999998</ele><time>2026-04-18T09:44:53.767Z</time></trkpt><trkpt lat="42.8157533" lon="11.3518833"><ele>140.6</ele><time>2026-04-18T09:44:54.77Z</time></trkpt><trkpt lat="42.8156467" lon="11.3518367"><ele>138.79999999999998</ele><time>2026-04-18T09:44:55.765Z</time></trkpt><trkpt lat="42.8155433" lon="11.35178"><ele>137.0</ele><time>2026-04-18T09:44:56.768Z</time></trkpt><trkpt lat="42.815425" lon="11.351755"><ele>137.0</ele><time>2026-04-18T09:44:57.77Z</time></trkpt><trkpt lat="42.815305" lon="11.351765"><ele>137.0</ele><time>2026-04-18T09:44:58.765Z</time></trkpt><trkpt lat="42.8151817" lon="11.351815"><ele>137.0</ele><time>2026-04-18T09:44:59.771Z</time></trkpt><trkpt lat="42.8150633" lon="11.351905"><ele>137.0</ele><time>2026-04-18T09:45:00.772Z</time></trkpt><trkpt lat="42.81498" lon="11.352045"><ele>137.75</ele><time>2026-04-18T09:45:01.772Z</time></trkpt><trkpt lat="42.81492" lon="11.3522283"><ele>138.5</ele><time>2026-04-18T09:45:02.764Z</time></trkpt><trkpt lat="42.8148583" lon="11.3524183"><ele>139.25</ele><time>2026-04-18T09:45:03.768Z</time></trkpt><trkpt lat="42.8147967" lon="11.3526"><ele>140.0</ele><time>2026-04-18T09:45:04.765Z</time></trkpt><trkpt lat="42.8147367" lon="11.352785"><ele>140.0</ele><time>2026-04-18T09:45:05.769Z</time></trkpt><trkpt lat="42.8146833" lon="11.3529483"><ele>140.0</ele><time>2026-04-18T09:45:06.772Z</time></trkpt><trkpt lat="42.81463" lon="11.3530883"><ele>140.0</ele><time>2026-04-18T09:45:07.765Z</time></trkpt><trkpt lat="42.8145667" lon="11.3531983"><ele>140.0</ele><time>2026-04-18T09:45:08.771Z</time></trkpt><trkpt lat="42.8144883" lon="11.3532683"><ele>140.0</ele><time>2026-04-18T09:45:09.767Z</time></trkpt><trkpt lat="42.8143967" lon="11.3533233"><ele>142.25</ele><time>2026-04-18T09:45:10.766Z</time></trkpt><trkpt lat="42.814285" lon="11.3533533"><ele>144.5</ele><time>2026-04-18T09:45:11.769Z</time></trkpt><trkpt lat="42.8141667" lon="11.3533667"><ele>146.75</ele><time>2026-04-18T09:45:12.769Z</time></trkpt><trkpt lat="42.81405" lon="11.35339"><ele>149.0</ele><time>2026-04-18T09:45:13.77Z</time></trkpt><trkpt lat="42.8139183" lon="11.3534383"><ele>149.0</ele><time>2026-04-18T09:45:14.77Z</time></trkpt><trkpt lat="42.8138" lon="11.3535217"><ele>149.0</ele><time>2026-04-18T09:45:15.77Z</time></trkpt><trkpt lat="42.813705" lon="11.3536333"><ele>149.0</ele><time>2026-04-18T09:45:16.771Z</time></trkpt><trkpt lat="42.81362" lon="11.3537667"><ele>149.0</ele><time>2026-04-18T09:45:17.769Z</time></trkpt><trkpt lat="42.8135367" lon="11.3538883"><ele>151.0</ele><time>2026-04-18T09:45:18.772Z</time></trkpt><trkpt lat="42.8134383" lon="11.35397"><ele>153.0</ele><time>2026-04-18T09:45:19.766Z</time></trkpt><trkpt lat="42.813325" lon="11.3540167"><ele>155.0</ele><time>2026-04-18T09:45:20.769Z</time></trkpt><trkpt lat="42.8131983" lon="11.3540267"><ele>157.0</ele><time>2026-04-18T09:45:21.765Z</time></trkpt><trkpt lat="42.813055" lon="11.354005"><ele>157.0</ele><time>2026-04-18T09:45:22.769Z</time></trkpt><trkpt lat="42.8129117" lon="11.353965"><ele>157.0</ele><time>2026-04-18T09:45:23.769Z</time></trkpt><trkpt lat="42.812755" lon="11.3539117"><ele>157.0</ele><time>2026-04-18T09:45:24.767Z</time></trkpt><trkpt lat="42.8125983" lon="11.3538583"><ele>156.33333333333334</ele><time>2026-04-18T09:45:25.766Z</time></trkpt><trkpt lat="42.81245" lon="11.3538167"><ele>155.66666666666666</ele><time>2026-04-18T09:45:26.767Z</time></trkpt><trkpt lat="42.8123017" lon="11.35377"><ele>155.0</ele><time>2026-04-18T09:45:27.767Z</time></trkpt><trkpt lat="42.8121583" lon="11.3537183"><ele>155.0</ele><time>2026-04-18T09:45:28.77Z</time></trkpt><trkpt lat="42.8120233" lon="11.3536767"><ele>155.0</ele><time>2026-04-18T09:45:29.765Z</time></trkpt><trkpt lat="42.8119067" lon="11.3536367"><ele>155.0</ele><time>2026-04-18T09:45:30.771Z</time></trkpt><trkpt lat="42.81181" lon="11.35357"><ele>155.0</ele><time>2026-04-18T09:45:31.77Z</time></trkpt><trkpt lat="42.811735" lon="11.3534867"><ele>155.8</ele><time>2026-04-18T09:45:32.765Z</time></trkpt><trkpt lat="42.8116733" lon="11.35338"><ele>156.6</ele><time>2026-04-18T09:45:33.768Z</time></trkpt><trkpt lat="42.811635" lon="11.353245"><ele>157.4</ele><time>2026-04-18T09:45:34.766Z</time></trkpt><trkpt lat="42.81161" lon="11.3531067"><ele>158.2</ele><time>2026-04-18T09:45:35.768Z</time></trkpt><trkpt lat="42.8115933" lon="11.352955"><ele>159.0</ele><time>2026-04-18T09:45:36.771Z</time></trkpt><trkpt lat="42.81158" lon="11.3527933"><ele>159.0</ele><time>2026-04-18T09:45:37.765Z</time></trkpt><trkpt lat="42.8115567" lon="11.3526333"><ele>159.0</ele><time>2026-04-18T09:45:38.765Z</time></trkpt><trkpt lat="42.8115083" lon="11.3525017"><ele>159.0</ele><time>2026-04-18T09:45:39.771Z</time></trkpt><trkpt lat="42.8114467" lon="11.3523767"><ele>159.0</ele><time>2026-04-18T09:45:40.764Z</time></trkpt><trkpt lat="42.8113617" lon="11.352295"><ele>159.0</ele><time>2026-04-18T09:45:41.766Z</time></trkpt><trkpt lat="42.8112567" lon="11.35225"><ele>159.0</ele><time>2026-04-18T09:45:42.765Z</time></trkpt><trkpt lat="42.8111583" lon="11.3522233"><ele>159.0</ele><time>2026-04-18T09:45:43.766Z</time></trkpt><trkpt lat="42.8110333" lon="11.35226"><ele>159.0</ele><time>2026-04-18T09:45:44.765Z</time></trkpt><trkpt lat="42.810915" lon="11.3523233"><ele>159.0</ele><time>2026-04-18T09:45:45.766Z</time></trkpt><trkpt lat="42.8107717" lon="11.352425"><ele>161.33333333333334</ele><time>2026-04-18T09:45:46.765Z</time></trkpt><trkpt lat="42.8105933" lon="11.3525467"><ele>163.66666666666669</ele><time>2026-04-18T09:45:47.767Z</time></trkpt><trkpt lat="42.810415" lon="11.35265"><ele>166.0</ele><time>2026-04-18T09:45:48.767Z</time></trkpt><trkpt lat="42.8102533" lon="11.3527383"><ele>164.0</ele><time>2026-04-18T09:45:49.766Z</time></trkpt><trkpt lat="42.8100817" lon="11.3528167"><ele>162.0</ele><time>2026-04-18T09:45:50.763Z</time></trkpt><trkpt lat="42.8099067" lon="11.3528867"><ele>160.0</ele><time>2026-04-18T09:45:51.767Z</time></trkpt><trkpt lat="42.8097333" lon="11.3529467"><ele>160.0</ele><time>2026-04-18T09:45:52.764Z</time></trkpt><trkpt lat="42.809555" lon="11.3529983"><ele>160.0</ele><time>2026-04-18T09:45:53.769Z</time></trkpt><trkpt lat="42.8093767" lon="11.35304"><ele>160.0</ele><time>2026-04-18T09:45:54.773Z</time></trkpt><trkpt lat="42.8091983" lon="11.3530817"><ele>162.33333333333334</ele><time>2026-04-18T09:45:55.767Z</time></trkpt><trkpt lat="42.8090167" lon="11.3531267"><ele>164.66666666666666</ele><time>2026-04-18T09:45:56.765Z</time></trkpt><trkpt lat="42.8088467" lon="11.3531667"><ele>167.0</ele><time>2026-04-18T09:45:57.766Z</time></trkpt><trkpt lat="42.8086817" lon="11.35319"><ele>167.0</ele><time>2026-04-18T09:45:58.77Z</time></trkpt><trkpt lat="42.8085333" lon="11.3531917"><ele>167.0</ele><time>2026-04-18T09:45:59.766Z</time></trkpt><trkpt lat="42.808415" lon="11.3531817"><ele>167.0</ele><time>2026-04-18T09:46:00.771Z</time></trkpt><trkpt lat="42.8082933" lon="11.353135"><ele>167.0</ele><time>2026-04-18T09:46:01.769Z</time></trkpt><trkpt lat="42.8081683" lon="11.3530717"><ele>167.0</ele><time>2026-04-18T09:46:02.764Z</time></trkpt><trkpt lat="42.8080383" lon="11.3529783"><ele>167.0</ele><time>2026-04-18T09:46:03.771Z</time></trkpt><trkpt lat="42.80791" lon="11.3528767"><ele>167.0</ele><time>2026-04-18T09:46:04.764Z</time></trkpt><trkpt lat="42.8077833" lon="11.3527883"><ele>167.0</ele><time>2026-04-18T09:46:05.765Z</time></trkpt><trkpt lat="42.8076633" lon="11.3526867"><ele>168.0</ele><time>2026-04-18T09:46:06.772Z</time></trkpt><trkpt lat="42.80755" lon="11.3525733"><ele>169.0</ele><time>2026-04-18T09:46:07.769Z</time></trkpt><trkpt lat="42.8074367" lon="11.3524683"><ele>170.0</ele><time>2026-04-18T09:46:08.77Z</time></trkpt><trkpt lat="42.8073217" lon="11.3523367"><ele>171.0</ele><time>2026-04-18T09:46:09.77Z</time></trkpt><trkpt lat="42.8072183" lon="11.3521733"><ele>173.0</ele><time>2026-04-18T09:46:10.771Z</time></trkpt><trkpt lat="42.807125" lon="11.3519917"><ele>175.0</ele><time>2026-04-18T09:46:11.767Z</time></trkpt><trkpt lat="42.8070283" lon="11.3518067"><ele>177.0</ele><time>2026-04-18T09:46:12.765Z</time></trkpt><trkpt lat="42.8069317" lon="11.3516267"><ele>176.66666666666666</ele><time>2026-04-18T09:46:13.765Z</time></trkpt><trkpt lat="42.8068267" lon="11.351455"><ele>176.33333333333331</ele><time>2026-04-18T09:46:14.764Z</time></trkpt><trkpt lat="42.8067183" lon="11.3512883"><ele>176.0</ele><time>2026-04-18T09:46:15.764Z</time></trkpt><trkpt lat="42.80661" lon="11.3511233"><ele>176.0</ele><time>2026-04-18T09:46:16.765Z</time></trkpt><trkpt lat="42.806505" lon="11.3509517"><ele>176.0</ele><time>2026-04-18T09:46:17.765Z</time></trkpt><trkpt lat="42.8064017" lon="11.3507733"><ele>176.0</ele><time>2026-04-18T09:46:18.766Z</time></trkpt><trkpt lat="42.8062967" lon="11.35059"><ele>175.33333333333331</ele><time>2026-04-18T09:46:19.768Z</time></trkpt><trkpt lat="42.8061883" lon="11.350415"><ele>174.66666666666666</ele><time>2026-04-18T09:46:20.769Z</time></trkpt><trkpt lat="42.8060783" lon="11.3502367"><ele>174.0</ele><time>2026-04-18T09:46:21.765Z</time></trkpt><trkpt lat="42.8059733" lon="11.350065"><ele>174.0</ele><time>2026-04-18T09:46:22.764Z</time></trkpt><trkpt lat="42.805875" lon="11.3499083"><ele>174.0</ele><time>2026-04-18T09:46:23.769Z</time></trkpt><trkpt lat="42.8057733" lon="11.3497417"><ele>174.0</ele><time>2026-04-18T09:46:24.769Z</time></trkpt><trkpt lat="42.8056733" lon="11.349575"><ele>175.5</ele><time>2026-04-18T09:46:25.766Z</time></trkpt><trkpt lat="42.8055733" lon="11.349425"><ele>177.0</ele><time>2026-04-18T09:46:26.765Z</time></trkpt><trkpt lat="42.80548" lon="11.3492683"><ele>178.5</ele><time>2026-04-18T09:46:27.763Z</time></trkpt><trkpt lat="42.8053883" lon="11.3491083"><ele>180.0</ele><time>2026-04-18T09:46:28.768Z</time></trkpt><trkpt lat="42.8052967" lon="11.3489517"><ele>182.0</ele><time>2026-04-18T09:46:29.765Z</time></trkpt><trkpt lat="42.8052167" lon="11.3487833"><ele>184.0</ele><time>2026-04-18T09:46:30.77Z</time></trkpt><trkpt lat="42.805145" lon="11.3485967"><ele>186.0</ele><time>2026-04-18T09:46:31.769Z</time></trkpt><trkpt lat="42.805085" lon="11.3483983"><ele>182.66666666666666</ele><time>2026-04-18T09:46:32.764Z</time></trkpt><trkpt lat="42.8050283" lon="11.348185"><ele>179.33333333333331</ele><time>2026-04-18T09:46:33.77Z</time></trkpt><trkpt lat="42.8049717" lon="11.3479583"><ele>176.0</ele><time>2026-04-18T09:46:34.768Z</time></trkpt><trkpt lat="42.8049217" lon="11.3477167"><ele>176.0</ele><time>2026-04-18T09:46:35.768Z</time></trkpt><trkpt lat="42.80486" lon="11.3474867"><ele>176.0</ele><time>2026-04-18T09:46:36.769Z</time></trkpt><trkpt lat="42.8047967" lon="11.34726"><ele>176.0</ele><time>2026-04-18T09:46:37.768Z</time></trkpt><trkpt lat="42.8047283" lon="11.3470417"><ele>176.0</ele><time>2026-04-18T09:46:38.767Z</time></trkpt><trkpt lat="42.8046683" lon="11.34682"><ele>176.0</ele><time>2026-04-18T09:46:39.769Z</time></trkpt><trkpt lat="42.8046133" lon="11.3465967"><ele>176.0</ele><time>2026-04-18T09:46:40.764Z</time></trkpt><trkpt lat="42.8045433" lon="11.34638"><ele>174.66666666666666</ele><time>2026-04-18T09:46:41.769Z</time></trkpt><trkpt lat="42.80447" lon="11.3461583"><ele>173.33333333333334</ele><time>2026-04-18T09:46:42.769Z</time></trkpt><trkpt lat="42.804395" lon="11.3459333"><ele>172.0</ele><time>2026-04-18T09:46:43.769Z</time></trkpt><trkpt lat="42.8043183" lon="11.3457067"><ele>168.0</ele><time>2026-04-18T09:46:44.764Z</time></trkpt><trkpt lat="42.80424" lon="11.3454917"><ele>164.0</ele><time>2026-04-18T09:46:45.763Z</time></trkpt><trkpt lat="42.8041667" lon="11.3452767"><ele>160.0</ele><time>2026-04-18T09:46:46.763Z</time></trkpt><trkpt lat="42.8041083" lon="11.3450717"><ele>160.0</ele><time>2026-04-18T09:46:47.764Z</time></trkpt><trkpt lat="42.80405" lon="11.3448933"><ele>160.0</ele><time>2026-04-18T09:46:48.768Z</time></trkpt><trkpt lat="42.8040017" lon="11.34475"><ele>160.0</ele><time>2026-04-18T09:46:49.765Z</time></trkpt><trkpt lat="42.8039683" lon="11.344635"><ele>160.0</ele><time>2026-04-18T09:46:50.763Z</time></trkpt><trkpt lat="42.8039433" lon="11.3445517"><ele>160.0</ele><time>2026-04-18T09:46:51.765Z</time></trkpt><trkpt lat="42.8039283" lon="11.3444633"><ele>160.0</ele><time>2026-04-18T09:46:53.764Z</time></trkpt><trkpt lat="42.8040183" lon="11.344405"><ele>160.0</ele><time>2026-04-18T09:47:00.77Z</time></trkpt><trkpt lat="42.80412" lon="11.3443683"><ele>160.0</ele><time>2026-04-18T09:47:02.767Z</time></trkpt><trkpt lat="42.8041933" lon="11.34438"><ele>160.0</ele><time>2026-04-18T09:47:28.77Z</time></trkpt><trkpt lat="42.8041183" lon="11.3444"><ele>160.0</ele><time>2026-04-18T09:47:39.767Z</time></trkpt><trkpt lat="42.80405" lon="11.3444183"><ele>160.0</ele><time>2026-04-18T09:47:41.768Z</time></trkpt><trkpt lat="42.80396" lon="11.3443883"><ele>160.0</ele><time>2026-04-18T09:47:43.758Z</time></trkpt><trkpt lat="42.8039033" lon="11.34435"><ele>160.0</ele><time>2026-04-18T09:47:44.756Z</time></trkpt><trkpt lat="42.80385" lon="11.3442817"><ele>160.0</ele><time>2026-04-18T09:47:45.766Z</time></trkpt><trkpt lat="42.8038033" lon="11.3441833"><ele>160.0</ele><time>2026-04-18T09:47:46.764Z</time></trkpt><trkpt lat="42.803755" lon="11.3440717"><ele>160.0</ele><time>2026-04-18T09:47:47.767Z</time></trkpt><trkpt lat="42.8037183" lon="11.343925"><ele>160.0</ele><time>2026-04-18T09:47:48.769Z</time></trkpt><trkpt lat="42.8036733" lon="11.3437867"><ele>158.5</ele><time>2026-04-18T09:47:49.767Z</time></trkpt><trkpt lat="42.8036267" lon="11.34362"><ele>157.0</ele><time>2026-04-18T09:47:50.766Z</time></trkpt><trkpt lat="42.8035783" lon="11.3434583"><ele>155.5</ele><time>2026-04-18T09:47:51.766Z</time></trkpt><trkpt lat="42.8035283" lon="11.34329"><ele>154.0</ele><time>2026-04-18T09:47:52.767Z</time></trkpt><trkpt lat="42.803465" lon="11.343125"><ele>155.25</ele><time>2026-04-18T09:47:53.768Z</time></trkpt><trkpt lat="42.8033967" lon="11.3429567"><ele>156.5</ele><time>2026-04-18T09:47:54.769Z</time></trkpt><trkpt lat="42.8033083" lon="11.342805"><ele>157.75</ele><time>2026-04-18T09:47:55.768Z</time></trkpt><trkpt lat="42.803205" lon="11.342665"><ele>159.0</ele><time>2026-04-18T09:47:56.768Z</time></trkpt><trkpt lat="42.8031033" lon="11.3425217"><ele>159.0</ele><time>2026-04-18T09:47:57.766Z</time></trkpt><trkpt lat="42.8030033" lon="11.3423733"><ele>159.0</ele><time>2026-04-18T09:47:58.764Z</time></trkpt><trkpt lat="42.8029117" lon="11.3422083"><ele>159.0</ele><time>2026-04-18T09:47:59.766Z</time></trkpt><trkpt lat="42.8028267" lon="11.342035"><ele>159.66666666666666</ele><time>2026-04-18T09:48:00.771Z</time></trkpt><trkpt lat="42.802745" lon="11.3418483"><ele>160.33333333333331</ele><time>2026-04-18T09:48:01.769Z</time></trkpt><trkpt lat="42.8026667" lon="11.3416533"><ele>161.0</ele><time>2026-04-18T09:48:02.767Z</time></trkpt><trkpt lat="42.8025867" lon="11.34146"><ele>157.66666666666666</ele><time>2026-04-18T09:48:03.766Z</time></trkpt><trkpt lat="42.8025" lon="11.3412533"><ele>154.33333333333334</ele><time>2026-04-18T09:48:04.765Z</time></trkpt><trkpt lat="42.80241" lon="11.3410367"><ele>151.0</ele><time>2026-04-18T09:48:05.768Z</time></trkpt><trkpt lat="42.80232" lon="11.3408317"><ele>151.0</ele><time>2026-04-18T09:48:06.772Z</time></trkpt><trkpt lat="42.8022317" lon="11.34062"><ele>151.0</ele><time>2026-04-18T09:48:07.767Z</time></trkpt><trkpt lat="42.80215" lon="11.34041"><ele>151.0</ele><time>2026-04-18T09:48:08.767Z</time></trkpt><trkpt lat="42.8020633" lon="11.3402067"><ele>150.66666666666669</ele><time>2026-04-18T09:48:09.766Z</time></trkpt><trkpt lat="42.8019817" lon="11.3400083"><ele>150.33333333333334</ele><time>2026-04-18T09:48:10.764Z</time></trkpt><trkpt lat="42.8018983" lon="11.3398133"><ele>150.0</ele><time>2026-04-18T09:48:11.769Z</time></trkpt><trkpt lat="42.8018083" lon="11.3396183"><ele>150.0</ele><time>2026-04-18T09:48:12.76Z</time></trkpt><trkpt lat="42.8017217" lon="11.3394217"><ele>150.0</ele><time>2026-04-18T09:48:13.764Z</time></trkpt><trkpt lat="42.8016433" lon="11.339215"><ele>150.0</ele><time>2026-04-18T09:48:14.763Z</time></trkpt><trkpt lat="42.8015817" lon="11.3389967"><ele>151.33333333333334</ele><time>2026-04-18T09:48:15.766Z</time></trkpt><trkpt lat="42.80154" lon="11.3387667"><ele>152.66666666666669</ele><time>2026-04-18T09:48:16.765Z</time></trkpt><trkpt lat="42.8015167" lon="11.3385333"><ele>154.0</ele><time>2026-04-18T09:48:17.764Z</time></trkpt><trkpt lat="42.8015017" lon="11.3382933"><ele>155.33333333333334</ele><time>2026-04-18T09:48:18.767Z</time></trkpt><trkpt lat="42.8014917" lon="11.33805"><ele>156.66666666666666</ele><time>2026-04-18T09:48:19.767Z</time></trkpt><trkpt lat="42.801465" lon="11.3378133"><ele>158.0</ele><time>2026-04-18T09:48:20.764Z</time></trkpt><trkpt lat="42.80143" lon="11.3375817"><ele>158.0</ele><time>2026-04-18T09:48:21.764Z</time></trkpt><trkpt lat="42.80138" lon="11.3373517"><ele>158.0</ele><time>2026-04-18T09:48:22.765Z</time></trkpt><trkpt lat="42.801325" lon="11.3371183"><ele>158.0</ele><time>2026-04-18T09:48:23.767Z</time></trkpt><trkpt lat="42.8012683" lon="11.3368883"><ele>157.33333333333331</ele><time>2026-04-18T09:48:24.769Z</time></trkpt><trkpt lat="42.8012183" lon="11.3366533"><ele>156.66666666666666</ele><time>2026-04-18T09:48:25.769Z</time></trkpt><trkpt lat="42.8011767" lon="11.3364167"><ele>156.0</ele><time>2026-04-18T09:48:26.769Z</time></trkpt><trkpt lat="42.8011367" lon="11.3361767"><ele>153.0</ele><time>2026-04-18T09:48:27.765Z</time></trkpt><trkpt lat="42.8010967" lon="11.3359383"><ele>150.0</ele><time>2026-04-18T09:48:28.763Z</time></trkpt><trkpt lat="42.8010583" lon="11.335705"><ele>147.0</ele><time>2026-04-18T09:48:29.764Z</time></trkpt><trkpt lat="42.8010133" lon="11.3354883"><ele>144.33333333333334</ele><time>2026-04-18T09:48:30.771Z</time></trkpt><trkpt lat="42.8009617" lon="11.3352783"><ele>141.66666666666669</ele><time>2026-04-18T09:48:31.764Z</time></trkpt><trkpt lat="42.8009133" lon="11.335075"><ele>139.0</ele><time>2026-04-18T09:48:32.767Z</time></trkpt><trkpt lat="42.80086" lon="11.3348767"><ele>138.33333333333334</ele><time>2026-04-18T09:48:33.77Z</time></trkpt><trkpt lat="42.80081" lon="11.3346817"><ele>137.66666666666666</ele><time>2026-04-18T09:48:34.764Z</time></trkpt><trkpt lat="42.8007583" lon="11.3344883"><ele>137.0</ele><time>2026-04-18T09:48:35.764Z</time></trkpt><trkpt lat="42.80071" lon="11.3342933"><ele>137.0</ele><time>2026-04-18T09:48:36.766Z</time></trkpt><trkpt lat="42.8006633" lon="11.334105"><ele>137.0</ele><time>2026-04-18T09:48:37.767Z</time></trkpt><trkpt lat="42.8006133" lon="11.3339217"><ele>137.0</ele><time>2026-04-18T09:48:38.764Z</time></trkpt><trkpt lat="42.80055" lon="11.3337467"><ele>137.0</ele><time>2026-04-18T09:48:39.764Z</time></trkpt><trkpt lat="42.8004683" lon="11.3335867"><ele>138.5</ele><time>2026-04-18T09:48:40.771Z</time></trkpt><trkpt lat="42.8003683" lon="11.3334517"><ele>140.0</ele><time>2026-04-18T09:48:41.765Z</time></trkpt><trkpt lat="42.8002467" lon="11.3333433"><ele>141.5</ele><time>2026-04-18T09:48:42.764Z</time></trkpt><trkpt lat="42.800115" lon="11.3332517"><ele>143.0</ele><time>2026-04-18T09:48:43.769Z</time></trkpt><trkpt lat="42.79997" lon="11.3331767"><ele>143.66666666666666</ele><time>2026-04-18T09:48:44.763Z</time></trkpt><trkpt lat="42.7998183" lon="11.3331083"><ele>144.33333333333334</ele><time>2026-04-18T09:48:45.768Z</time></trkpt><trkpt lat="42.7996633" lon="11.33304"><ele>145.0</ele><time>2026-04-18T09:48:46.765Z</time></trkpt><trkpt lat="42.7995067" lon="11.3329667"><ele>146.0</ele><time>2026-04-18T09:48:47.768Z</time></trkpt><trkpt lat="42.7993483" lon="11.332895"><ele>147.0</ele><time>2026-04-18T09:48:48.77Z</time></trkpt><trkpt lat="42.7991967" lon="11.33281"><ele>148.0</ele><time>2026-04-18T09:48:49.769Z</time></trkpt><trkpt lat="42.799045" lon="11.3327117"><ele>148.0</ele><time>2026-04-18T09:48:50.769Z</time></trkpt><trkpt lat="42.7988933" lon="11.3326083"><ele>148.0</ele><time>2026-04-18T09:48:51.766Z</time></trkpt><trkpt lat="42.798745" lon="11.332495"><ele>148.0</ele><time>2026-04-18T09:48:52.767Z</time></trkpt><trkpt lat="42.7985983" lon="11.33238"><ele>146.33333333333334</ele><time>2026-04-18T09:48:53.769Z</time></trkpt><trkpt lat="42.7984533" lon="11.332265"><ele>144.66666666666666</ele><time>2026-04-18T09:48:54.77Z</time></trkpt><trkpt lat="42.79831" lon="11.3321567"><ele>143.0</ele><time>2026-04-18T09:48:55.769Z</time></trkpt><trkpt lat="42.7981733" lon="11.3320533"><ele>143.0</ele><time>2026-04-18T09:48:56.764Z</time></trkpt><trkpt lat="42.7980383" lon="11.331945"><ele>143.0</ele><time>2026-04-18T09:48:57.765Z</time></trkpt><trkpt lat="42.7979083" lon="11.3318317"><ele>143.0</ele><time>2026-04-18T09:48:58.767Z</time></trkpt><trkpt lat="42.79778" lon="11.331705"><ele>142.0</ele><time>2026-04-18T09:48:59.761Z</time></trkpt><trkpt lat="42.7976617" lon="11.3315633"><ele>141.0</ele><time>2026-04-18T09:49:00.762Z</time></trkpt><trkpt lat="42.797545" lon="11.3314183"><ele>140.0</ele><time>2026-04-18T09:49:01.767Z</time></trkpt><trkpt lat="42.7974283" lon="11.33127"><ele>140.0</ele><time>2026-04-18T09:49:02.768Z</time></trkpt><trkpt lat="42.7973083" lon="11.3311217"><ele>140.0</ele><time>2026-04-18T09:49:03.765Z</time></trkpt><trkpt lat="42.7971867" lon="11.33098"><ele>140.0</ele><time>2026-04-18T09:49:04.765Z</time></trkpt><trkpt lat="42.7970683" lon="11.3308317"><ele>140.0</ele><time>2026-04-18T09:49:05.768Z</time></trkpt><trkpt lat="42.79695" lon="11.3306817"><ele>140.0</ele><time>2026-04-18T09:49:06.773Z</time></trkpt><trkpt lat="42.7968433" lon="11.330535"><ele>140.0</ele><time>2026-04-18T09:49:07.768Z</time></trkpt><trkpt lat="42.7967367" lon="11.330385"><ele>136.0</ele><time>2026-04-18T09:49:08.768Z</time></trkpt><trkpt lat="42.796635" lon="11.33023"><ele>132.0</ele><time>2026-04-18T09:49:09.767Z</time></trkpt><trkpt lat="42.7965333" lon="11.3300717"><ele>128.0</ele><time>2026-04-18T09:49:10.765Z</time></trkpt><trkpt lat="42.7964367" lon="11.3299067"><ele>128.0</ele><time>2026-04-18T09:49:11.771Z</time></trkpt><trkpt lat="42.79634" lon="11.329745"><ele>128.0</ele><time>2026-04-18T09:49:12.764Z</time></trkpt><trkpt lat="42.796245" lon="11.3295883"><ele>128.0</ele><time>2026-04-18T09:49:13.77Z</time></trkpt><trkpt lat="42.796145" lon="11.3294267"><ele>127.0</ele><time>2026-04-18T09:49:14.764Z</time></trkpt><trkpt lat="42.796045" lon="11.329265"><ele>126.0</ele><time>2026-04-18T09:49:15.755Z</time></trkpt><trkpt lat="42.7959417" lon="11.3291083"><ele>125.0</ele><time>2026-04-18T09:49:16.768Z</time></trkpt><trkpt lat="42.7958383" lon="11.3289517"><ele>126.66666666666666</ele><time>2026-04-18T09:49:17.766Z</time></trkpt><trkpt lat="42.79574" lon="11.32879"><ele>128.33333333333334</ele><time>2026-04-18T09:49:18.771Z</time></trkpt><trkpt lat="42.7956383" lon="11.3286167"><ele>130.0</ele><time>2026-04-18T09:49:19.767Z</time></trkpt><trkpt lat="42.79553" lon="11.3284433"><ele>130.0</ele><time>2026-04-18T09:49:20.767Z</time></trkpt><trkpt lat="42.7954267" lon="11.3282667"><ele>130.0</ele><time>2026-04-18T09:49:21.767Z</time></trkpt><trkpt lat="42.7953183" lon="11.3280883"><ele>130.0</ele><time>2026-04-18T09:49:22.768Z</time></trkpt><trkpt lat="42.7952183" lon="11.3279117"><ele>128.0</ele><time>2026-04-18T09:49:23.772Z</time></trkpt><trkpt lat="42.7951233" lon="11.3277367"><ele>126.0</ele><time>2026-04-18T09:49:24.772Z</time></trkpt><trkpt lat="42.7950317" lon="11.327575"><ele>124.0</ele><time>2026-04-18T09:49:25.765Z</time></trkpt><trkpt lat="42.7949417" lon="11.3274233"><ele>124.0</ele><time>2026-04-18T09:49:26.764Z</time></trkpt><trkpt lat="42.7948583" lon="11.3272783"><ele>124.0</ele><time>2026-04-18T09:49:27.769Z</time></trkpt><trkpt lat="42.7947817" lon="11.32714"><ele>124.0</ele><time>2026-04-18T09:49:28.769Z</time></trkpt><trkpt lat="42.79471" lon="11.32701"><ele>124.0</ele><time>2026-04-18T09:49:29.77Z</time></trkpt><trkpt lat="42.7946433" lon="11.32688"><ele>123.4</ele><time>2026-04-18T09:49:30.765Z</time></trkpt><trkpt lat="42.794575" lon="11.3267583"><ele>122.80000000000001</ele><time>2026-04-18T09:49:31.77Z</time></trkpt><trkpt lat="42.7945133" lon="11.3266467"><ele>122.19999999999999</ele><time>2026-04-18T09:49:32.765Z</time></trkpt><trkpt lat="42.7944517" lon="11.3265433"><ele>121.6</ele><time>2026-04-18T09:49:33.769Z</time></trkpt><trkpt lat="42.7943867" lon="11.326455"><ele>121.0</ele><time>2026-04-18T09:49:34.768Z</time></trkpt><trkpt lat="42.7943233" lon="11.3263767"><ele>121.0</ele><time>2026-04-18T09:49:35.769Z</time></trkpt><trkpt lat="42.7942233" lon="11.326325"><ele>121.0</ele><time>2026-04-18T09:49:37.764Z</time></trkpt><trkpt lat="42.794155" lon="11.326315"><ele>121.0</ele><time>2026-04-18T09:49:39.769Z</time></trkpt><trkpt lat="42.794085" lon="11.3263783"><ele>121.0</ele><time>2026-04-18T09:49:51.769Z</time></trkpt><trkpt lat="42.7940667" lon="11.3265717"><ele>121.0</ele><time>2026-04-18T09:49:53.764Z</time></trkpt><trkpt lat="42.79406" lon="11.3266917"><ele>121.0</ele><time>2026-04-18T09:49:54.769Z</time></trkpt><trkpt lat="42.7940467" lon="11.32682"><ele>121.0</ele><time>2026-04-18T09:49:55.768Z</time></trkpt><trkpt lat="42.794025" lon="11.3269517"><ele>121.0</ele><time>2026-04-18T09:49:56.765Z</time></trkpt><trkpt lat="42.7939933" lon="11.3270917"><ele>121.0</ele><time>2026-04-18T09:49:57.767Z</time></trkpt><trkpt lat="42.7939533" lon="11.3272383"><ele>121.0</ele><time>2026-04-18T09:49:58.768Z</time></trkpt><trkpt lat="42.7939017" lon="11.327395"><ele>121.5</ele><time>2026-04-18T09:49:59.77Z</time></trkpt><trkpt lat="42.7938417" lon="11.3275583"><ele>122.0</ele><time>2026-04-18T09:50:00.769Z</time></trkpt><trkpt lat="42.7937717" lon="11.3277317"><ele>122.5</ele><time>2026-04-18T09:50:01.765Z</time></trkpt><trkpt lat="42.793695" lon="11.32791"><ele>123.0</ele><time>2026-04-18T09:50:02.769Z</time></trkpt><trkpt lat="42.7936183" lon="11.3280867"><ele>123.0</ele><time>2026-04-18T09:50:03.767Z</time></trkpt><trkpt lat="42.7935417" lon="11.3282633"><ele>123.0</ele><time>2026-04-18T09:50:04.765Z</time></trkpt><trkpt lat="42.7934667" lon="11.3284517"><ele>123.0</ele><time>2026-04-18T09:50:05.769Z</time></trkpt><trkpt lat="42.7933833" lon="11.3286433"><ele>123.33333333333334</ele><time>2026-04-18T09:50:06.768Z</time></trkpt><trkpt lat="42.7933" lon="11.3288367"><ele>123.66666666666667</ele><time>2026-04-18T09:50:07.765Z</time></trkpt><trkpt lat="42.7932133" lon="11.329035"><ele>124.0</ele><time>2026-04-18T09:50:08.765Z</time></trkpt><trkpt lat="42.7931317" lon="11.329235"><ele>124.0</ele><time>2026-04-18T09:50:09.764Z</time></trkpt><trkpt lat="42.7930467" lon="11.3294383"><ele>124.0</ele><time>2026-04-18T09:50:10.771Z</time></trkpt><trkpt lat="42.7929667" lon="11.32964"><ele>124.0</ele><time>2026-04-18T09:50:11.771Z</time></trkpt><trkpt lat="42.7928867" lon="11.3298367"><ele>125.0</ele><time>2026-04-18T09:50:12.764Z</time></trkpt><trkpt lat="42.7928017" lon="11.33004"><ele>126.0</ele><time>2026-04-18T09:50:13.764Z</time></trkpt><trkpt lat="42.7927183" lon="11.330245"><ele>127.0</ele><time>2026-04-18T09:50:14.764Z</time></trkpt><trkpt lat="42.792635" lon="11.33045"><ele>127.66666666666667</ele><time>2026-04-18T09:50:15.768Z</time></trkpt><trkpt lat="42.7925483" lon="11.3306533"><ele>128.33333333333334</ele><time>2026-04-18T09:50:16.764Z</time></trkpt><trkpt lat="42.7924617" lon="11.33086"><ele>129.0</ele><time>2026-04-18T09:50:17.767Z</time></trkpt><trkpt lat="42.7923767" lon="11.33107"><ele>129.0</ele><time>2026-04-18T09:50:18.771Z</time></trkpt><trkpt lat="42.7922917" lon="11.33128"><ele>129.0</ele><time>2026-04-18T09:50:19.764Z</time></trkpt><trkpt lat="42.7922067" lon="11.3314867"><ele>129.0</ele><time>2026-04-18T09:50:20.765Z</time></trkpt><trkpt lat="42.7921183" lon="11.3316983"><ele>130.0</ele><time>2026-04-18T09:50:21.764Z</time></trkpt><trkpt lat="42.792025" lon="11.3319133"><ele>131.0</ele><time>2026-04-18T09:50:22.763Z</time></trkpt><trkpt lat="42.79193" lon="11.332135"><ele>132.0</ele><time>2026-04-18T09:50:23.769Z</time></trkpt><trkpt lat="42.7918367" lon="11.3323583"><ele>132.66666666666666</ele><time>2026-04-18T09:50:24.768Z</time></trkpt><trkpt lat="42.791745" lon="11.332585"><ele>133.33333333333331</ele><time>2026-04-18T09:50:25.769Z</time></trkpt><trkpt lat="42.7916533" lon="11.3328083"><ele>134.0</ele><time>2026-04-18T09:50:26.765Z</time></trkpt><trkpt lat="42.79156" lon="11.3330233"><ele>135.0</ele><time>2026-04-18T09:50:27.764Z</time></trkpt><trkpt lat="42.7914717" lon="11.3332317"><ele>136.0</ele><time>2026-04-18T09:50:28.765Z</time></trkpt><trkpt lat="42.7913817" lon="11.3334367"><ele>137.0</ele><time>2026-04-18T09:50:29.764Z</time></trkpt><trkpt lat="42.7912967" lon="11.3336417"><ele>137.0</ele><time>2026-04-18T09:50:30.773Z</time></trkpt><trkpt lat="42.7912117" lon="11.3338367"><ele>137.0</ele><time>2026-04-18T09:50:31.768Z</time></trkpt><trkpt lat="42.7911267" lon="11.3340317"><ele>137.0</ele><time>2026-04-18T09:50:32.77Z</time></trkpt><trkpt lat="42.79105" lon="11.3342217"><ele>135.66666666666666</ele><time>2026-04-18T09:50:33.769Z</time></trkpt><trkpt lat="42.790975" lon="11.33441"><ele>134.33333333333334</ele><time>2026-04-18T09:50:34.765Z</time></trkpt><trkpt lat="42.7908967" lon="11.33461"><ele>133.0</ele><time>2026-04-18T09:50:35.766Z</time></trkpt><trkpt lat="42.7908183" lon="11.3348233"><ele>133.0</ele><time>2026-04-18T09:50:36.77Z</time></trkpt><trkpt lat="42.7907367" lon="11.3350367"><ele>133.0</ele><time>2026-04-18T09:50:37.764Z</time></trkpt><trkpt lat="42.7906517" lon="11.3352533"><ele>133.0</ele><time>2026-04-18T09:50:38.767Z</time></trkpt><trkpt lat="42.7905667" lon="11.33547"><ele>134.66666666666669</ele><time>2026-04-18T09:50:39.763Z</time></trkpt><trkpt lat="42.7904783" lon="11.33569"><ele>136.33333333333334</ele><time>2026-04-18T09:50:40.768Z</time></trkpt><trkpt lat="42.79039" lon="11.3359083"><ele>138.0</ele><time>2026-04-18T09:50:41.765Z</time></trkpt><trkpt lat="42.7902983" lon="11.3361217"><ele>138.0</ele><time>2026-04-18T09:50:42.767Z</time></trkpt><trkpt lat="42.7902067" lon="11.33633"><ele>138.0</ele><time>2026-04-18T09:50:43.764Z</time></trkpt><trkpt lat="42.79011" lon="11.3365333"><ele>138.0</ele><time>2026-04-18T09:50:44.764Z</time></trkpt><trkpt lat="42.790005" lon="11.3367317"><ele>135.33333333333334</ele><time>2026-04-18T09:50:45.77Z</time></trkpt><trkpt lat="42.7899" lon="11.3369183"><ele>132.66666666666669</ele><time>2026-04-18T09:50:46.769Z</time></trkpt><trkpt lat="42.7897933" lon="11.3371067"><ele>130.0</ele><time>2026-04-18T09:50:47.764Z</time></trkpt><trkpt lat="42.78969" lon="11.3372917"><ele>130.0</ele><time>2026-04-18T09:50:48.769Z</time></trkpt><trkpt lat="42.7895833" lon="11.337465"><ele>130.0</ele><time>2026-04-18T09:50:49.763Z</time></trkpt><trkpt lat="42.7894717" lon="11.337615"><ele>130.0</ele><time>2026-04-18T09:50:50.768Z</time></trkpt><trkpt lat="42.7893433" lon="11.3377317"><ele>127.66666666666667</ele><time>2026-04-18T09:50:51.768Z</time></trkpt><trkpt lat="42.789205" lon="11.3378183"><ele>125.33333333333334</ele><time>2026-04-18T09:50:52.764Z</time></trkpt><trkpt lat="42.7890483" lon="11.3378617"><ele>123.0</ele><time>2026-04-18T09:50:53.767Z</time></trkpt><trkpt lat="42.7888833" lon="11.3379033"><ele>123.0</ele><time>2026-04-18T09:50:54.77Z</time></trkpt><trkpt lat="42.7887183" lon="11.3379583"><ele>123.0</ele><time>2026-04-18T09:50:55.767Z</time></trkpt><trkpt lat="42.7885533" lon="11.3380417"><ele>123.0</ele><time>2026-04-18T09:50:56.764Z</time></trkpt><trkpt lat="42.788395" lon="11.33815"><ele>123.66666666666666</ele><time>2026-04-18T09:50:57.768Z</time></trkpt><trkpt lat="42.7882467" lon="11.3382833"><ele>124.33333333333333</ele><time>2026-04-18T09:50:58.767Z</time></trkpt><trkpt lat="42.7880917" lon="11.33843"><ele>125.0</ele><time>2026-04-18T09:50:59.763Z</time></trkpt><trkpt lat="42.7879433" lon="11.3385933"><ele>125.0</ele><time>2026-04-18T09:51:00.771Z</time></trkpt><trkpt lat="42.7877883" lon="11.33875"><ele>125.0</ele><time>2026-04-18T09:51:01.77Z</time></trkpt><trkpt lat="42.787635" lon="11.3389083"><ele>125.0</ele><time>2026-04-18T09:51:02.77Z</time></trkpt><trkpt lat="42.7874833" lon="11.3390633"><ele>124.33333333333333</ele><time>2026-04-18T09:51:03.768Z</time></trkpt><trkpt lat="42.7873333" lon="11.33921"><ele>123.66666666666666</ele><time>2026-04-18T09:51:04.763Z</time></trkpt><trkpt lat="42.7871767" lon="11.33935"><ele>123.0</ele><time>2026-04-18T09:51:05.77Z</time></trkpt><trkpt lat="42.7870233" lon="11.3394817"><ele>123.0</ele><time>2026-04-18T09:51:06.764Z</time></trkpt><trkpt lat="42.7868733" lon="11.339615"><ele>123.0</ele><time>2026-04-18T09:51:07.765Z</time></trkpt><trkpt lat="42.7867383" lon="11.3397517"><ele>123.0</ele><time>2026-04-18T09:51:08.764Z</time></trkpt><trkpt lat="42.7866233" lon="11.339915"><ele>123.66666666666666</ele><time>2026-04-18T09:51:09.764Z</time></trkpt><trkpt lat="42.7865317" lon="11.3401"><ele>124.33333333333333</ele><time>2026-04-18T09:51:10.765Z</time></trkpt><trkpt lat="42.78647" lon="11.340325"><ele>125.0</ele><time>2026-04-18T09:51:11.77Z</time></trkpt><trkpt lat="42.786435" lon="11.34059"><ele>126.33333333333333</ele><time>2026-04-18T09:51:12.765Z</time></trkpt><trkpt lat="42.7864033" lon="11.34086"><ele>127.66666666666666</ele><time>2026-04-18T09:51:13.767Z</time></trkpt><trkpt lat="42.7863683" lon="11.34114"><ele>129.0</ele><time>2026-04-18T09:51:14.764Z</time></trkpt><trkpt lat="42.7863267" lon="11.341415"><ele>130.33333333333334</ele><time>2026-04-18T09:51:15.768Z</time></trkpt><trkpt lat="42.7862817" lon="11.3416967"><ele>131.66666666666669</ele><time>2026-04-18T09:51:16.769Z</time></trkpt><trkpt lat="42.7862317" lon="11.3419833"><ele>133.0</ele><time>2026-04-18T09:51:17.768Z</time></trkpt><trkpt lat="42.7861917" lon="11.3422667"><ele>133.0</ele><time>2026-04-18T09:51:18.767Z</time></trkpt><trkpt lat="42.7861517" lon="11.3425483"><ele>133.0</ele><time>2026-04-18T09:51:19.767Z</time></trkpt><trkpt lat="42.7861133" lon="11.3428333"><ele>133.0</ele><time>2026-04-18T09:51:20.765Z</time></trkpt><trkpt lat="42.7860783" lon="11.3431233"><ele>132.66666666666669</ele><time>2026-04-18T09:51:21.768Z</time></trkpt><trkpt lat="42.7860383" lon="11.3434183"><ele>132.33333333333334</ele><time>2026-04-18T09:51:22.767Z</time></trkpt><trkpt lat="42.786" lon="11.3437117"><ele>132.0</ele><time>2026-04-18T09:51:23.765Z</time></trkpt><trkpt lat="42.785955" lon="11.3440017"><ele>130.33333333333334</ele><time>2026-04-18T09:51:24.771Z</time></trkpt><trkpt lat="42.78591" lon="11.3442917"><ele>128.66666666666669</ele><time>2026-04-18T09:51:25.765Z</time></trkpt><trkpt lat="42.7858633" lon="11.3445833"><ele>127.0</ele><time>2026-04-18T09:51:26.768Z</time></trkpt><trkpt lat="42.7858167" lon="11.344875"><ele>127.0</ele><time>2026-04-18T09:51:27.769Z</time></trkpt><trkpt lat="42.7857717" lon="11.3451683"><ele>127.0</ele><time>2026-04-18T09:51:28.765Z</time></trkpt><trkpt lat="42.7857267" lon="11.3454617"><ele>127.0</ele><time>2026-04-18T09:51:29.769Z</time></trkpt><trkpt lat="42.7856783" lon="11.34575"><ele>127.0</ele><time>2026-04-18T09:51:30.769Z</time></trkpt><trkpt lat="42.7856317" lon="11.3460367"><ele>127.0</ele><time>2026-04-18T09:51:31.768Z</time></trkpt><trkpt lat="42.78559" lon="11.346325"><ele>127.0</ele><time>2026-04-18T09:51:32.771Z</time></trkpt><trkpt lat="42.7855467" lon="11.34661"><ele>127.0</ele><time>2026-04-18T09:51:33.767Z</time></trkpt><trkpt lat="42.7854983" lon="11.3468967"><ele>127.0</ele><time>2026-04-18T09:51:34.771Z</time></trkpt><trkpt lat="42.7854517" lon="11.3471817"><ele>127.0</ele><time>2026-04-18T09:51:35.769Z</time></trkpt><trkpt lat="42.7854183" lon="11.3474633"><ele>127.66666666666667</ele><time>2026-04-18T09:51:36.773Z</time></trkpt><trkpt lat="42.785395" lon="11.3477483"><ele>128.33333333333334</ele><time>2026-04-18T09:51:37.77Z</time></trkpt><trkpt lat="42.785385" lon="11.348035"><ele>129.0</ele><time>2026-04-18T09:51:38.769Z</time></trkpt><trkpt lat="42.785375" lon="11.3483283"><ele>131.0</ele><time>2026-04-18T09:51:39.77Z</time></trkpt><trkpt lat="42.7853633" lon="11.3486317"><ele>133.0</ele><time>2026-04-18T09:51:40.764Z</time></trkpt><trkpt lat="42.7853517" lon="11.3489367"><ele>135.0</ele><time>2026-04-18T09:51:41.767Z</time></trkpt><trkpt lat="42.7853483" lon="11.3492317"><ele>139.66666666666666</ele><time>2026-04-18T09:51:42.769Z</time></trkpt><trkpt lat="42.7853383" lon="11.3495183"><ele>144.33333333333331</ele><time>2026-04-18T09:51:43.768Z</time></trkpt><trkpt lat="42.7853217" lon="11.3497917"><ele>149.0</ele><time>2026-04-18T09:51:44.767Z</time></trkpt><trkpt lat="42.785315" lon="11.3500467"><ele>148.0</ele><time>2026-04-18T09:51:45.767Z</time></trkpt><trkpt lat="42.7853233" lon="11.3502983"><ele>147.0</ele><time>2026-04-18T09:51:46.763Z</time></trkpt><trkpt lat="42.7853683" lon="11.3505483"><ele>146.0</ele><time>2026-04-18T09:51:47.768Z</time></trkpt><trkpt lat="42.7854433" lon="11.3507917"><ele>146.0</ele><time>2026-04-18T09:51:48.771Z</time></trkpt><trkpt lat="42.7855333" lon="11.3510333"><ele>146.0</ele><time>2026-04-18T09:51:49.769Z</time></trkpt><trkpt lat="42.78563" lon="11.35128"><ele>146.0</ele><time>2026-04-18T09:51:50.762Z</time></trkpt><trkpt lat="42.7857217" lon="11.35153"><ele>142.66666666666666</ele><time>2026-04-18T09:51:51.766Z</time></trkpt><trkpt lat="42.7858117" lon="11.3517833"><ele>139.33333333333334</ele><time>2026-04-18T09:51:52.764Z</time></trkpt><trkpt lat="42.7858967" lon="11.3520383"><ele>136.0</ele><time>2026-04-18T09:51:53.767Z</time></trkpt><trkpt lat="42.78597" lon="11.3522967"><ele>141.0</ele><time>2026-04-18T09:51:54.766Z</time></trkpt><trkpt lat="42.786025" lon="11.35256"><ele>146.0</ele><time>2026-04-18T09:51:55.767Z</time></trkpt><trkpt lat="42.786055" lon="11.3528333"><ele>151.0</ele><time>2026-04-18T09:51:56.767Z</time></trkpt><trkpt lat="42.7860617" lon="11.3531183"><ele>151.0</ele><time>2026-04-18T09:51:57.767Z</time></trkpt><trkpt lat="42.7860633" lon="11.353395"><ele>151.0</ele><time>2026-04-18T09:51:58.765Z</time></trkpt><trkpt lat="42.7860617" lon="11.353655"><ele>151.0</ele><time>2026-04-18T09:51:59.767Z</time></trkpt><trkpt lat="42.7860617" lon="11.3539117"><ele>152.0</ele><time>2026-04-18T09:52:00.765Z</time></trkpt><trkpt lat="42.7860867" lon="11.354165"><ele>153.0</ele><time>2026-04-18T09:52:01.767Z</time></trkpt><trkpt lat="42.7861433" lon="11.3544133"><ele>154.0</ele><time>2026-04-18T09:52:02.767Z</time></trkpt><trkpt lat="42.7862267" lon="11.3546633"><ele>154.0</ele><time>2026-04-18T09:52:03.767Z</time></trkpt><trkpt lat="42.786325" lon="11.3549083"><ele>154.0</ele><time>2026-04-18T09:52:04.764Z</time></trkpt><trkpt lat="42.786435" lon="11.3551517"><ele>154.0</ele><time>2026-04-18T09:52:05.765Z</time></trkpt><trkpt lat="42.78654" lon="11.355395"><ele>151.0</ele><time>2026-04-18T09:52:06.767Z</time></trkpt><trkpt lat="42.7866383" lon="11.3556317"><ele>148.0</ele><time>2026-04-18T09:52:07.764Z</time></trkpt><trkpt lat="42.786725" lon="11.3558683"><ele>145.0</ele><time>2026-04-18T09:52:08.769Z</time></trkpt><trkpt lat="42.78682" lon="11.3561133"><ele>146.66666666666669</ele><time>2026-04-18T09:52:09.769Z</time></trkpt><trkpt lat="42.7869167" lon="11.356355"><ele>148.33333333333334</ele><time>2026-04-18T09:52:10.765Z</time></trkpt><trkpt lat="42.7870183" lon="11.3565917"><ele>150.0</ele><time>2026-04-18T09:52:11.77Z</time></trkpt><trkpt lat="42.78712" lon="11.3568317"><ele>150.0</ele><time>2026-04-18T09:52:12.764Z</time></trkpt><trkpt lat="42.7872167" lon="11.357075"><ele>150.0</ele><time>2026-04-18T09:52:13.767Z</time></trkpt><trkpt lat="42.7873083" lon="11.3573233"><ele>150.0</ele><time>2026-04-18T09:52:14.766Z</time></trkpt><trkpt lat="42.7873983" lon="11.3575783"><ele>149.0</ele><time>2026-04-18T09:52:15.763Z</time></trkpt><trkpt lat="42.78749" lon="11.357835"><ele>148.0</ele><time>2026-04-18T09:52:16.765Z</time></trkpt><trkpt lat="42.78758" lon="11.3580917"><ele>147.0</ele><time>2026-04-18T09:52:17.764Z</time></trkpt><trkpt lat="42.78767" lon="11.3583467"><ele>150.33333333333334</ele><time>2026-04-18T09:52:18.755Z</time></trkpt><trkpt lat="42.7877617" lon="11.3585983"><ele>153.66666666666669</ele><time>2026-04-18T09:52:19.767Z</time></trkpt><trkpt lat="42.78785" lon="11.3588433"><ele>157.0</ele><time>2026-04-18T09:52:20.768Z</time></trkpt><trkpt lat="42.787935" lon="11.3590867"><ele>157.0</ele><time>2026-04-18T09:52:21.767Z</time></trkpt><trkpt lat="42.7880167" lon="11.35933"><ele>157.0</ele><time>2026-04-18T09:52:22.763Z</time></trkpt><trkpt lat="42.788105" lon="11.359565"><ele>157.0</ele><time>2026-04-18T09:52:23.767Z</time></trkpt><trkpt lat="42.78819" lon="11.3597867"><ele>155.0</ele><time>2026-04-18T09:52:24.766Z</time></trkpt><trkpt lat="42.7882767" lon="11.35999"><ele>153.0</ele><time>2026-04-18T09:52:25.767Z</time></trkpt><trkpt lat="42.7883517" lon="11.3601917"><ele>151.0</ele><time>2026-04-18T09:52:26.764Z</time></trkpt><trkpt lat="42.78842" lon="11.360385"><ele>149.66666666666669</ele><time>2026-04-18T09:52:27.767Z</time></trkpt><trkpt lat="42.7884983" lon="11.360565"><ele>148.33333333333334</ele><time>2026-04-18T09:52:28.764Z</time></trkpt><trkpt lat="42.788595" lon="11.3607283"><ele>147.0</ele><time>2026-04-18T09:52:29.769Z</time></trkpt><trkpt lat="42.788705" lon="11.3608717"><ele>150.5</ele><time>2026-04-18T09:52:30.765Z</time></trkpt><trkpt lat="42.7888217" lon="11.3609967"><ele>154.0</ele><time>2026-04-18T09:52:31.77Z</time></trkpt><trkpt lat="42.7889417" lon="11.3610967"><ele>157.5</ele><time>2026-04-18T09:52:32.77Z</time></trkpt><trkpt lat="42.78906" lon="11.3611917"><ele>161.0</ele><time>2026-04-18T09:52:33.769Z</time></trkpt><trkpt lat="42.7891817" lon="11.3612817"><ele>161.0</ele><time>2026-04-18T09:52:34.762Z</time></trkpt><trkpt lat="42.7893083" lon="11.3613783"><ele>161.0</ele><time>2026-04-18T09:52:35.765Z</time></trkpt><trkpt lat="42.7894367" lon="11.3614733"><ele>161.0</ele><time>2026-04-18T09:52:36.77Z</time></trkpt><trkpt lat="42.7895667" lon="11.3615783"><ele>161.0</ele><time>2026-04-18T09:52:37.768Z</time></trkpt><trkpt lat="42.7896967" lon="11.3616933"><ele>161.0</ele><time>2026-04-18T09:52:38.764Z</time></trkpt><trkpt lat="42.7898283" lon="11.3618167"><ele>161.0</ele><time>2026-04-18T09:52:39.765Z</time></trkpt><trkpt lat="42.7899567" lon="11.361945"><ele>161.0</ele><time>2026-04-18T09:52:40.767Z</time></trkpt><trkpt lat="42.79009" lon="11.36207"><ele>162.33333333333331</ele><time>2026-04-18T09:52:41.766Z</time></trkpt><trkpt lat="42.7902233" lon="11.3621833"><ele>163.66666666666666</ele><time>2026-04-18T09:52:42.763Z</time></trkpt><trkpt lat="42.790355" lon="11.3622933"><ele>165.0</ele><time>2026-04-18T09:52:43.767Z</time></trkpt><trkpt lat="42.7904833" lon="11.3623967"><ele>162.5</ele><time>2026-04-18T09:52:44.765Z</time></trkpt><trkpt lat="42.7906" lon="11.3625067"><ele>160.0</ele><time>2026-04-18T09:52:45.765Z</time></trkpt><trkpt lat="42.7906967" lon="11.3626283"><ele>157.5</ele><time>2026-04-18T09:52:46.765Z</time></trkpt><trkpt lat="42.7907667" lon="11.3627767"><ele>155.0</ele><time>2026-04-18T09:52:47.758Z</time></trkpt><trkpt lat="42.79081" lon="11.3629383"><ele>154.75</ele><time>2026-04-18T09:52:48.76Z</time></trkpt><trkpt lat="42.7908233" lon="11.36312"><ele>154.5</ele><time>2026-04-18T09:52:49.761Z</time></trkpt><trkpt lat="42.7908283" lon="11.3633133"><ele>154.25</ele><time>2026-04-18T09:52:50.769Z</time></trkpt><trkpt lat="42.790845" lon="11.3635133"><ele>154.0</ele><time>2026-04-18T09:52:51.768Z</time></trkpt><trkpt lat="42.7908683" lon="11.36374"><ele>154.33333333333334</ele><time>2026-04-18T09:52:52.767Z</time></trkpt><trkpt lat="42.7908917" lon="11.3639833"><ele>154.66666666666666</ele><time>2026-04-18T09:52:53.767Z</time></trkpt><trkpt lat="42.790915" lon="11.364245"><ele>155.0</ele><time>2026-04-18T09:52:54.769Z</time></trkpt><trkpt lat="42.7909367" lon="11.3645183"><ele>156.0</ele><time>2026-04-18T09:52:55.769Z</time></trkpt><trkpt lat="42.79096" lon="11.3647933"><ele>157.0</ele><time>2026-04-18T09:52:56.768Z</time></trkpt><trkpt lat="42.7909883" lon="11.3650667"><ele>158.0</ele><time>2026-04-18T09:52:57.767Z</time></trkpt><trkpt lat="42.7910133" lon="11.36534"><ele>161.0</ele><time>2026-04-18T09:52:58.764Z</time></trkpt><trkpt lat="42.7910383" lon="11.3656167"><ele>164.0</ele><time>2026-04-18T09:52:59.769Z</time></trkpt><trkpt lat="42.7910667" lon="11.3658917"><ele>167.0</ele><time>2026-04-18T09:53:00.764Z</time></trkpt><trkpt lat="42.7910933" lon="11.366165"><ele>166.0</ele><time>2026-04-18T09:53:01.771Z</time></trkpt><trkpt lat="42.791105" lon="11.36642"><ele>165.0</ele><time>2026-04-18T09:53:02.769Z</time></trkpt><trkpt lat="42.7910917" lon="11.3666433"><ele>164.0</ele><time>2026-04-18T09:53:03.765Z</time></trkpt><trkpt lat="42.791045" lon="11.36685"><ele>162.0</ele><time>2026-04-18T09:53:04.765Z</time></trkpt><trkpt lat="42.7909583" lon="11.3670517"><ele>160.0</ele><time>2026-04-18T09:53:05.769Z</time></trkpt><trkpt lat="42.7908283" lon="11.3672183"><ele>158.0</ele><time>2026-04-18T09:53:06.769Z</time></trkpt><trkpt lat="42.7906567" lon="11.3673617"><ele>158.0</ele><time>2026-04-18T09:53:07.769Z</time></trkpt><trkpt lat="42.7904767" lon="11.367485"><ele>158.0</ele><time>2026-04-18T09:53:08.77Z</time></trkpt><trkpt lat="42.7902883" lon="11.3676117"><ele>158.0</ele><time>2026-04-18T09:53:09.765Z</time></trkpt><trkpt lat="42.7901033" lon="11.36774"><ele>157.66666666666666</ele><time>2026-04-18T09:53:10.765Z</time></trkpt><trkpt lat="42.7899233" lon="11.3678667"><ele>157.33333333333334</ele><time>2026-04-18T09:53:11.77Z</time></trkpt><trkpt lat="42.7897583" lon="11.3679833"><ele>157.0</ele><time>2026-04-18T09:53:12.764Z</time></trkpt><trkpt lat="42.7896067" lon="11.3681"><ele>157.0</ele><time>2026-04-18T09:53:13.765Z</time></trkpt><trkpt lat="42.78948" lon="11.368235"><ele>157.0</ele><time>2026-04-18T09:53:14.765Z</time></trkpt><trkpt lat="42.7893967" lon="11.3684117"><ele>157.0</ele><time>2026-04-18T09:53:15.766Z</time></trkpt><trkpt lat="42.7893633" lon="11.3686433"><ele>159.0</ele><time>2026-04-18T09:53:16.767Z</time></trkpt><trkpt lat="42.789365" lon="11.36887"><ele>161.0</ele><time>2026-04-18T09:53:17.768Z</time></trkpt><trkpt lat="42.789435" lon="11.36911"><ele>163.0</ele><time>2026-04-18T09:53:18.77Z</time></trkpt><trkpt lat="42.7895233" lon="11.36938"><ele>163.0</ele><time>2026-04-18T09:53:19.769Z</time></trkpt><trkpt lat="42.7896133" lon="11.3696367"><ele>163.0</ele><time>2026-04-18T09:53:20.766Z</time></trkpt><trkpt lat="42.7896867" lon="11.3699083"><ele>163.0</ele><time>2026-04-18T09:53:21.764Z</time></trkpt><trkpt lat="42.7897717" lon="11.3701883"><ele>164.33333333333334</ele><time>2026-04-18T09:53:22.764Z</time></trkpt><trkpt lat="42.789825" lon="11.3704767"><ele>165.66666666666666</ele><time>2026-04-18T09:53:23.767Z</time></trkpt><trkpt lat="42.789855" lon="11.37077"><ele>167.0</ele><time>2026-04-18T09:53:24.767Z</time></trkpt><trkpt lat="42.7898833" lon="11.3710733"><ele>171.0</ele><time>2026-04-18T09:53:25.765Z</time></trkpt><trkpt lat="42.78991" lon="11.371365"><ele>175.0</ele><time>2026-04-18T09:53:26.764Z</time></trkpt><trkpt lat="42.7899433" lon="11.3716417"><ele>179.0</ele><time>2026-04-18T09:53:27.768Z</time></trkpt><trkpt lat="42.78996" lon="11.3718983"><ele>179.0</ele><time>2026-04-18T09:53:28.765Z</time></trkpt><trkpt lat="42.790005" lon="11.3721183"><ele>179.0</ele><time>2026-04-18T09:53:29.764Z</time></trkpt><trkpt lat="42.79007" lon="11.3723233"><ele>179.0</ele><time>2026-04-18T09:53:30.767Z</time></trkpt><trkpt lat="42.7901617" lon="11.3725133"><ele>176.66666666666666</ele><time>2026-04-18T09:53:31.767Z</time></trkpt><trkpt lat="42.7903283" lon="11.3726417"><ele>174.33333333333334</ele><time>2026-04-18T09:53:32.767Z</time></trkpt><trkpt lat="42.7905083" lon="11.372745"><ele>172.0</ele><time>2026-04-18T09:53:33.768Z</time></trkpt><trkpt lat="42.7906817" lon="11.3728467"><ele>172.0</ele><time>2026-04-18T09:53:34.763Z</time></trkpt><trkpt lat="42.7908633" lon="11.3729467"><ele>172.0</ele><time>2026-04-18T09:53:35.767Z</time></trkpt><trkpt lat="42.791025" lon="11.373045"><ele>172.0</ele><time>2026-04-18T09:53:36.77Z</time></trkpt><trkpt lat="42.7911667" lon="11.3731383"><ele>171.25</ele><time>2026-04-18T09:53:37.767Z</time></trkpt><trkpt lat="42.791245" lon="11.373265"><ele>170.5</ele><time>2026-04-18T09:53:38.764Z</time></trkpt><trkpt lat="42.791285" lon="11.3733983"><ele>169.75</ele><time>2026-04-18T09:53:39.769Z</time></trkpt><trkpt lat="42.7912983" lon="11.373555"><ele>169.0</ele><time>2026-04-18T09:53:40.769Z</time></trkpt><trkpt lat="42.7912983" lon="11.37374"><ele>171.33333333333334</ele><time>2026-04-18T09:53:41.766Z</time></trkpt><trkpt lat="42.7913217" lon="11.3739417"><ele>173.66666666666666</ele><time>2026-04-18T09:53:42.769Z</time></trkpt><trkpt lat="42.7913567" lon="11.374145"><ele>176.0</ele><time>2026-04-18T09:53:43.767Z</time></trkpt><trkpt lat="42.791385" lon="11.37437"><ele>176.0</ele><time>2026-04-18T09:53:44.769Z</time></trkpt><trkpt lat="42.79141" lon="11.3745967"><ele>176.0</ele><time>2026-04-18T09:53:45.768Z</time></trkpt><trkpt lat="42.7914017" lon="11.37484"><ele>176.0</ele><time>2026-04-18T09:53:46.765Z</time></trkpt><trkpt lat="42.7913933" lon="11.37506"><ele>178.0</ele><time>2026-04-18T09:53:47.77Z</time></trkpt><trkpt lat="42.79141" lon="11.375275"><ele>180.0</ele><time>2026-04-18T09:53:48.768Z</time></trkpt><trkpt lat="42.79144" lon="11.37549"><ele>182.0</ele><time>2026-04-18T09:53:49.764Z</time></trkpt><trkpt lat="42.7915133" lon="11.3757217"><ele>185.0</ele><time>2026-04-18T09:53:50.769Z</time></trkpt><trkpt lat="42.7915933" lon="11.375955"><ele>188.0</ele><time>2026-04-18T09:53:51.769Z</time></trkpt><trkpt lat="42.7916983" lon="11.376175"><ele>191.0</ele><time>2026-04-18T09:53:52.757Z</time></trkpt><trkpt lat="42.7917717" lon="11.3763933"><ele>193.75</ele><time>2026-04-18T09:53:53.767Z</time></trkpt><trkpt lat="42.7918217" lon="11.37659"><ele>196.5</ele><time>2026-04-18T09:53:54.771Z</time></trkpt><trkpt lat="42.7918333" lon="11.37679"><ele>199.25</ele><time>2026-04-18T09:53:55.768Z</time></trkpt><trkpt lat="42.79182" lon="11.3769783"><ele>202.0</ele><time>2026-04-18T09:53:56.767Z</time></trkpt><trkpt lat="42.7917517" lon="11.3771483"><ele>203.66666666666666</ele><time>2026-04-18T09:53:57.771Z</time></trkpt><trkpt lat="42.791645" lon="11.377315"><ele>205.33333333333331</ele><time>2026-04-18T09:53:58.764Z</time></trkpt><trkpt lat="42.79153" lon="11.377465"><ele>207.0</ele><time>2026-04-18T09:53:59.769Z</time></trkpt><trkpt lat="42.7914367" lon="11.3776467"><ele>207.0</ele><time>2026-04-18T09:54:00.77Z</time></trkpt><trkpt lat="42.7913717" lon="11.3778583"><ele>207.0</ele><time>2026-04-18T09:54:01.768Z</time></trkpt><trkpt lat="42.7913217" lon="11.3780833"><ele>207.0</ele><time>2026-04-18T09:54:02.767Z</time></trkpt><trkpt lat="42.791295" lon="11.3782917"><ele>207.75</ele><time>2026-04-18T09:54:03.77Z</time></trkpt><trkpt lat="42.791285" lon="11.378495"><ele>208.5</ele><time>2026-04-18T09:54:04.765Z</time></trkpt><trkpt lat="42.7913183" lon="11.3786883"><ele>209.25</ele><time>2026-04-18T09:54:05.769Z</time></trkpt><trkpt lat="42.7914117" lon="11.37885"><ele>210.0</ele><time>2026-04-18T09:54:06.769Z</time></trkpt><trkpt lat="42.791475" lon="11.3790167"><ele>211.5</ele><time>2026-04-18T09:54:07.764Z</time></trkpt><trkpt lat="42.7915217" lon="11.379185"><ele>213.0</ele><time>2026-04-18T09:54:08.763Z</time></trkpt><trkpt lat="42.7915533" lon="11.3793517"><ele>214.5</ele><time>2026-04-18T09:54:09.767Z</time></trkpt><trkpt lat="42.79154" lon="11.3795417"><ele>216.0</ele><time>2026-04-18T09:54:10.769Z</time></trkpt><trkpt lat="42.7914983" lon="11.37975"><ele>216.66666666666669</ele><time>2026-04-18T09:54:11.771Z</time></trkpt><trkpt lat="42.791455" lon="11.3799633"><ele>217.33333333333334</ele><time>2026-04-18T09:54:12.77Z</time></trkpt><trkpt lat="42.79141" lon="11.3801867"><ele>218.0</ele><time>2026-04-18T09:54:13.768Z</time></trkpt><trkpt lat="42.791385" lon="11.3804033"><ele>218.66666666666669</ele><time>2026-04-18T09:54:14.769Z</time></trkpt><trkpt lat="42.7913933" lon="11.3806183"><ele>219.33333333333331</ele><time>2026-04-18T09:54:15.769Z</time></trkpt><trkpt lat="42.791425" lon="11.3808367"><ele>220.0</ele><time>2026-04-18T09:54:16.768Z</time></trkpt><trkpt lat="42.7914883" lon="11.3810567"><ele>220.0</ele><time>2026-04-18T09:54:17.768Z</time></trkpt><trkpt lat="42.7915817" lon="11.3812683"><ele>220.0</ele><time>2026-04-18T09:54:18.767Z</time></trkpt><trkpt lat="42.7917083" lon="11.3814567"><ele>220.0</ele><time>2026-04-18T09:54:19.764Z</time></trkpt><trkpt lat="42.7918483" lon="11.3816267"><ele>220.66666666666666</ele><time>2026-04-18T09:54:20.767Z</time></trkpt><trkpt lat="42.79198" lon="11.38179"><ele>221.33333333333331</ele><time>2026-04-18T09:54:21.768Z</time></trkpt><trkpt lat="42.7921117" lon="11.3819283"><ele>222.0</ele><time>2026-04-18T09:54:22.765Z</time></trkpt><trkpt lat="42.7922467" lon="11.38205"><ele>222.0</ele><time>2026-04-18T09:54:23.769Z</time></trkpt><trkpt lat="42.7924017" lon="11.38214"><ele>222.0</ele><time>2026-04-18T09:54:24.767Z</time></trkpt><trkpt lat="42.7925617" lon="11.3822067"><ele>222.0</ele><time>2026-04-18T09:54:25.768Z</time></trkpt><trkpt lat="42.792735" lon="11.3822667"><ele>228.33333333333331</ele><time>2026-04-18T09:54:26.763Z</time></trkpt><trkpt lat="42.7928967" lon="11.3823433"><ele>234.66666666666666</ele><time>2026-04-18T09:54:27.769Z</time></trkpt><trkpt lat="42.79303" lon="11.3824433"><ele>241.0</ele><time>2026-04-18T09:54:28.765Z</time></trkpt><trkpt lat="42.7931633" lon="11.3825267"><ele>241.0</ele><time>2026-04-18T09:54:29.765Z</time></trkpt><trkpt lat="42.79332" lon="11.3825617"><ele>241.0</ele><time>2026-04-18T09:54:30.77Z</time></trkpt><trkpt lat="42.79347" lon="11.3825317"><ele>241.0</ele><time>2026-04-18T09:54:31.77Z</time></trkpt><trkpt lat="42.7936267" lon="11.382465"><ele>240.75</ele><time>2026-04-18T09:54:32.77Z</time></trkpt><trkpt lat="42.7937683" lon="11.3824"><ele>240.5</ele><time>2026-04-18T09:54:33.767Z</time></trkpt><trkpt lat="42.7939117" lon="11.3823583"><ele>240.25</ele><time>2026-04-18T09:54:34.764Z</time></trkpt><trkpt lat="42.794045" lon="11.3823767"><ele>240.0</ele><time>2026-04-18T09:54:35.769Z</time></trkpt><trkpt lat="42.7941883" lon="11.382465"><ele>240.0</ele><time>2026-04-18T09:54:36.768Z</time></trkpt><trkpt lat="42.7943317" lon="11.38261"><ele>240.0</ele><time>2026-04-18T09:54:37.77Z</time></trkpt><trkpt lat="42.7944483" lon="11.38281"><ele>240.0</ele><time>2026-04-18T09:54:38.769Z</time></trkpt><trkpt lat="42.79456" lon="11.3830283"><ele>240.0</ele><time>2026-04-18T09:54:39.769Z</time></trkpt><trkpt lat="42.7946667" lon="11.383225"><ele>240.0</ele><time>2026-04-18T09:54:40.766Z</time></trkpt><trkpt lat="42.794765" lon="11.3834033"><ele>240.0</ele><time>2026-04-18T09:54:41.77Z</time></trkpt><trkpt lat="42.7948867" lon="11.3835417"><ele>240.0</ele><time>2026-04-18T09:54:42.764Z</time></trkpt><trkpt lat="42.79502" lon="11.3836467"><ele>240.0</ele><time>2026-04-18T09:54:43.765Z</time></trkpt><trkpt lat="42.795175" lon="11.3837067"><ele>240.0</ele><time>2026-04-18T09:54:44.769Z</time></trkpt><trkpt lat="42.7953333" lon="11.3837317"><ele>239.0</ele><time>2026-04-18T09:54:45.769Z</time></trkpt><trkpt lat="42.7954933" lon="11.3837467"><ele>238.0</ele><time>2026-04-18T09:54:46.763Z</time></trkpt><trkpt lat="42.7956483" lon="11.3837867"><ele>237.0</ele><time>2026-04-18T09:54:47.768Z</time></trkpt><trkpt lat="42.795805" lon="11.383855"><ele>239.66666666666669</ele><time>2026-04-18T09:54:48.77Z</time></trkpt><trkpt lat="42.7959467" lon="11.3839717"><ele>242.33333333333334</ele><time>2026-04-18T09:54:49.764Z</time></trkpt><trkpt lat="42.7960733" lon="11.384135"><ele>245.0</ele><time>2026-04-18T09:54:50.764Z</time></trkpt><trkpt lat="42.7961917" lon="11.384305"><ele>245.0</ele><time>2026-04-18T09:54:51.769Z</time></trkpt><trkpt lat="42.7963017" lon="11.38449"><ele>245.0</ele><time>2026-04-18T09:54:52.764Z</time></trkpt><trkpt lat="42.7964133" lon="11.384645"><ele>245.0</ele><time>2026-04-18T09:54:53.769Z</time></trkpt><trkpt lat="42.7964883" lon="11.3848"><ele>247.25</ele><time>2026-04-18T09:54:54.768Z</time></trkpt><trkpt lat="42.7965483" lon="11.38495"><ele>249.5</ele><time>2026-04-18T09:54:55.771Z</time></trkpt><trkpt lat="42.7965383" lon="11.3851133"><ele>251.75</ele><time>2026-04-18T09:54:56.765Z</time></trkpt><trkpt lat="42.7965233" lon="11.3852883"><ele>254.0</ele><time>2026-04-18T09:54:57.767Z</time></trkpt><trkpt lat="42.79655" lon="11.3854483"><ele>255.0</ele><time>2026-04-18T09:54:58.765Z</time></trkpt><trkpt lat="42.7965967" lon="11.3856067"><ele>256.0</ele><time>2026-04-18T09:54:59.765Z</time></trkpt><trkpt lat="42.7966867" lon="11.38575"><ele>257.0</ele><time>2026-04-18T09:55:00.768Z</time></trkpt><trkpt lat="42.7968633" lon="11.385805"><ele>258.0</ele><time>2026-04-18T09:55:01.763Z</time></trkpt><trkpt lat="42.7969983" lon="11.3859167"><ele>258.0</ele><time>2026-04-18T09:55:02.763Z</time></trkpt><trkpt lat="42.79714" lon="11.386"><ele>258.0</ele><time>2026-04-18T09:55:03.771Z</time></trkpt><trkpt lat="42.7973083" lon="11.386055"><ele>258.0</ele><time>2026-04-18T09:55:04.768Z</time></trkpt><trkpt lat="42.79746" lon="11.3861517"><ele>258.0</ele><time>2026-04-18T09:55:05.77Z</time></trkpt><trkpt lat="42.7976233" lon="11.3862383"><ele>258.0</ele><time>2026-04-18T09:55:06.769Z</time></trkpt><trkpt lat="42.7977667" lon="11.386355"><ele>258.0</ele><time>2026-04-18T09:55:07.766Z</time></trkpt><trkpt lat="42.7978767" lon="11.3864867"><ele>258.75</ele><time>2026-04-18T09:55:08.769Z</time></trkpt><trkpt lat="42.7979433" lon="11.3866617"><ele>259.5</ele><time>2026-04-18T09:55:09.764Z</time></trkpt><trkpt lat="42.7979817" lon="11.38683"><ele>260.25</ele><time>2026-04-18T09:55:10.767Z</time></trkpt><trkpt lat="42.7979633" lon="11.3870383"><ele>261.0</ele><time>2026-04-18T09:55:11.768Z</time></trkpt><trkpt lat="42.79791" lon="11.3872417"><ele>262.3333333333333</ele><time>2026-04-18T09:55:12.764Z</time></trkpt><trkpt lat="42.7978233" lon="11.3874533"><ele>263.66666666666663</ele><time>2026-04-18T09:55:13.771Z</time></trkpt><trkpt lat="42.79771" lon="11.3876567"><ele>265.0</ele><time>2026-04-18T09:55:14.764Z</time></trkpt><trkpt lat="42.7976033" lon="11.3879067"><ele>269.3333333333333</ele><time>2026-04-18T09:55:15.766Z</time></trkpt><trkpt lat="42.7974933" lon="11.3881583"><ele>273.6666666666667</ele><time>2026-04-18T09:55:16.769Z</time></trkpt><trkpt lat="42.7973983" lon="11.3883967"><ele>278.0</ele><time>2026-04-18T09:55:17.767Z</time></trkpt><trkpt lat="42.7973" lon="11.3886283"><ele>279.33333333333337</ele><time>2026-04-18T09:55:18.767Z</time></trkpt><trkpt lat="42.7972033" lon="11.388845"><ele>280.6666666666667</ele><time>2026-04-18T09:55:19.767Z</time></trkpt><trkpt lat="42.7971183" lon="11.3890517"><ele>282.0</ele><time>2026-04-18T09:55:20.768Z</time></trkpt><trkpt lat="42.7970633" lon="11.3892317"><ele>282.0</ele><time>2026-04-18T09:55:21.769Z</time></trkpt><trkpt lat="42.7970583" lon="11.3893883"><ele>282.0</ele><time>2026-04-18T09:55:22.764Z</time></trkpt><trkpt lat="42.797085" lon="11.38954"><ele>282.0</ele><time>2026-04-18T09:55:23.768Z</time></trkpt><trkpt lat="42.797155" lon="11.389675"><ele>282.0</ele><time>2026-04-18T09:55:24.77Z</time></trkpt><trkpt lat="42.79726" lon="11.3897533"><ele>280.0</ele><time>2026-04-18T09:55:25.771Z</time></trkpt><trkpt lat="42.7973933" lon="11.3897667"><ele>278.0</ele><time>2026-04-18T09:55:26.766Z</time></trkpt><trkpt lat="42.7975317" lon="11.3897933"><ele>276.0</ele><time>2026-04-18T09:55:27.769Z</time></trkpt><trkpt lat="42.7976683" lon="11.3898483"><ele>274.0</ele><time>2026-04-18T09:55:28.765Z</time></trkpt><trkpt lat="42.797785" lon="11.3899433"><ele>274.0</ele><time>2026-04-18T09:55:29.765Z</time></trkpt><trkpt lat="42.79785" lon="11.3901133"><ele>274.0</ele><time>2026-04-18T09:55:30.771Z</time></trkpt><trkpt lat="42.7978833" lon="11.3903267"><ele>274.0</ele><time>2026-04-18T09:55:31.771Z</time></trkpt><trkpt lat="42.7978867" lon="11.3905783"><ele>276.66666666666663</ele><time>2026-04-18T09:55:32.764Z</time></trkpt><trkpt lat="42.7979" lon="11.3908483"><ele>279.3333333333333</ele><time>2026-04-18T09:55:33.768Z</time></trkpt><trkpt lat="42.7979317" lon="11.3911017"><ele>282.0</ele><time>2026-04-18T09:55:34.768Z</time></trkpt><trkpt lat="42.7979783" lon="11.3913417"><ele>284.0</ele><time>2026-04-18T09:55:35.77Z</time></trkpt><trkpt lat="42.798" lon="11.3915983"><ele>286.0</ele><time>2026-04-18T09:55:36.772Z</time></trkpt><trkpt lat="42.7979967" lon="11.3918717"><ele>288.0</ele><time>2026-04-18T09:55:37.767Z</time></trkpt><trkpt lat="42.797985" lon="11.3921333"><ele>290.3333333333333</ele><time>2026-04-18T09:55:38.764Z</time></trkpt><trkpt lat="42.7979933" lon="11.39237"><ele>292.66666666666663</ele><time>2026-04-18T09:55:39.763Z</time></trkpt><trkpt lat="42.7980267" lon="11.3925833"><ele>295.0</ele><time>2026-04-18T09:55:40.769Z</time></trkpt><trkpt lat="42.7981" lon="11.3927767"><ele>295.0</ele><time>2026-04-18T09:55:41.767Z</time></trkpt><trkpt lat="42.7982133" lon="11.392965"><ele>295.0</ele><time>2026-04-18T09:55:42.768Z</time></trkpt><trkpt lat="42.7983467" lon="11.39316"><ele>295.0</ele><time>2026-04-18T09:55:43.765Z</time></trkpt><trkpt lat="42.7984917" lon="11.3933617"><ele>293.3333333333333</ele><time>2026-04-18T09:55:44.764Z</time></trkpt><trkpt lat="42.798645" lon="11.3935733"><ele>291.6666666666667</ele><time>2026-04-18T09:55:45.766Z</time></trkpt><trkpt lat="42.7988017" lon="11.3937867"><ele>290.0</ele><time>2026-04-18T09:55:46.765Z</time></trkpt><trkpt lat="42.7989417" lon="11.3940233"><ele>294.6666666666667</ele><time>2026-04-18T09:55:47.769Z</time></trkpt><trkpt lat="42.7990667" lon="11.3942467"><ele>299.3333333333333</ele><time>2026-04-18T09:55:48.77Z</time></trkpt><trkpt lat="42.7991883" lon="11.39443"><ele>304.0</ele><time>2026-04-18T09:55:49.767Z</time></trkpt><trkpt lat="42.7992933" lon="11.3946"><ele>299.25</ele><time>2026-04-18T09:55:50.765Z</time></trkpt><trkpt lat="42.79937" lon="11.394775"><ele>294.5</ele><time>2026-04-18T09:55:51.769Z</time></trkpt><trkpt lat="42.7994217" lon="11.3949583"><ele>289.75</ele><time>2026-04-18T09:55:52.756Z</time></trkpt><trkpt lat="42.7994383" lon="11.3951467"><ele>285.0</ele><time>2026-04-18T09:55:53.767Z</time></trkpt><trkpt lat="42.79938" lon="11.395335"><ele>292.3333333333333</ele><time>2026-04-18T09:55:54.772Z</time></trkpt><trkpt lat="42.7993117" lon="11.3955233"><ele>299.66666666666663</ele><time>2026-04-18T09:55:55.77Z</time></trkpt><trkpt lat="42.799205" lon="11.395725"><ele>307.0</ele><time>2026-04-18T09:55:56.768Z</time></trkpt><trkpt lat="42.7990283" lon="11.3959467"><ele>307.0</ele><time>2026-04-18T09:55:57.767Z</time></trkpt><trkpt lat="42.79886" lon="11.3961817"><ele>307.0</ele><time>2026-04-18T09:55:58.763Z</time></trkpt><trkpt lat="42.7986883" lon="11.39643"><ele>306.0</ele><time>2026-04-18T09:55:59.769Z</time></trkpt><trkpt lat="42.7985517" lon="11.3966717"><ele>305.0</ele><time>2026-04-18T09:56:00.768Z</time></trkpt><trkpt lat="42.79843" lon="11.3968983"><ele>304.0</ele><time>2026-04-18T09:56:01.771Z</time></trkpt><trkpt lat="42.7983217" lon="11.397105"><ele>308.0</ele><time>2026-04-18T09:56:02.765Z</time></trkpt><trkpt lat="42.7982233" lon="11.3972933"><ele>312.0</ele><time>2026-04-18T09:56:03.771Z</time></trkpt><trkpt lat="42.7981133" lon="11.3974533"><ele>316.0</ele><time>2026-04-18T09:56:04.769Z</time></trkpt><trkpt lat="42.7979883" lon="11.3975817"><ele>316.0</ele><time>2026-04-18T09:56:05.771Z</time></trkpt><trkpt lat="42.7978583" lon="11.3976983"><ele>316.0</ele><time>2026-04-18T09:56:06.77Z</time></trkpt><trkpt lat="42.79769" lon="11.3977933"><ele>316.0</ele><time>2026-04-18T09:56:07.77Z</time></trkpt><trkpt lat="42.7975117" lon="11.3978683"><ele>316.3333333333333</ele><time>2026-04-18T09:56:08.765Z</time></trkpt><trkpt lat="42.7973267" lon="11.39794"><ele>316.6666666666667</ele><time>2026-04-18T09:56:09.768Z</time></trkpt><trkpt lat="42.7971383" lon="11.3979683"><ele>317.0</ele><time>2026-04-18T09:56:10.765Z</time></trkpt><trkpt lat="42.7969367" lon="11.398005"><ele>321.6666666666667</ele><time>2026-04-18T09:56:11.765Z</time></trkpt><trkpt lat="42.796745" lon="11.3980367"><ele>326.3333333333333</ele><time>2026-04-18T09:56:12.77Z</time></trkpt><trkpt lat="42.7965633" lon="11.3980917"><ele>331.0</ele><time>2026-04-18T09:56:13.77Z</time></trkpt><trkpt lat="42.7963883" lon="11.398175"><ele>331.0</ele><time>2026-04-18T09:56:14.767Z</time></trkpt><trkpt lat="42.7962233" lon="11.3982933"><ele>331.0</ele><time>2026-04-18T09:56:15.769Z</time></trkpt><trkpt lat="42.796075" lon="11.3984283"><ele>331.0</ele><time>2026-04-18T09:56:16.767Z</time></trkpt><trkpt lat="42.7959267" lon="11.39858"><ele>337.0</ele><time>2026-04-18T09:56:17.771Z</time></trkpt><trkpt lat="42.7958383" lon="11.39891"><ele>343.0</ele><time>2026-04-18T09:56:18.773Z</time></trkpt><trkpt lat="42.795755" lon="11.3992183"><ele>343.0</ele><time>2026-04-18T09:56:19.766Z</time></trkpt><trkpt lat="42.7956667" lon="11.3994633"><ele>343.0</ele><time>2026-04-18T09:56:20.769Z</time></trkpt><trkpt lat="42.795585" lon="11.3996883"><ele>343.0</ele><time>2026-04-18T09:56:21.771Z</time></trkpt><trkpt lat="42.795515" lon="11.3999067"><ele>342.3333333333333</ele><time>2026-04-18T09:56:22.765Z</time></trkpt><trkpt lat="42.79547" lon="11.4001383"><ele>341.6666666666667</ele><time>2026-04-18T09:56:23.768Z</time></trkpt><trkpt lat="42.7954683" lon="11.4003733"><ele>341.0</ele><time>2026-04-18T09:56:24.765Z</time></trkpt><trkpt lat="42.7954867" lon="11.4006167"><ele>342.6666666666667</ele><time>2026-04-18T09:56:25.768Z</time></trkpt><trkpt lat="42.7955" lon="11.4008617"><ele>344.3333333333333</ele><time>2026-04-18T09:56:26.769Z</time></trkpt><trkpt lat="42.7955133" lon="11.4011033"><ele>346.0</ele><time>2026-04-18T09:56:27.764Z</time></trkpt><trkpt lat="42.79551" lon="11.4013433"><ele>346.3333333333333</ele><time>2026-04-18T09:56:28.768Z</time></trkpt><trkpt lat="42.79548" lon="11.4015683"><ele>346.6666666666667</ele><time>2026-04-18T09:56:29.767Z</time></trkpt><trkpt lat="42.7954117" lon="11.401805"><ele>347.0</ele><time>2026-04-18T09:56:30.769Z</time></trkpt><trkpt lat="42.795335" lon="11.40203"><ele>346.6666666666667</ele><time>2026-04-18T09:56:31.768Z</time></trkpt><trkpt lat="42.7952533" lon="11.40225"><ele>346.3333333333333</ele><time>2026-04-18T09:56:32.764Z</time></trkpt><trkpt lat="42.7951717" lon="11.4024617"><ele>346.0</ele><time>2026-04-18T09:56:33.77Z</time></trkpt><trkpt lat="42.7951117" lon="11.4026667"><ele>352.0</ele><time>2026-04-18T09:56:34.768Z</time></trkpt><trkpt lat="42.79509" lon="11.4028967"><ele>358.0</ele><time>2026-04-18T09:56:35.766Z</time></trkpt><trkpt lat="42.7950867" lon="11.40314"><ele>364.0</ele><time>2026-04-18T09:56:36.769Z</time></trkpt><trkpt lat="42.795105" lon="11.4033867"><ele>364.0</ele><time>2026-04-18T09:56:37.771Z</time></trkpt><trkpt lat="42.7951033" lon="11.4036517"><ele>364.0</ele><time>2026-04-18T09:56:38.767Z</time></trkpt><trkpt lat="42.7951033" lon="11.4039433"><ele>364.0</ele><time>2026-04-18T09:56:39.771Z</time></trkpt><trkpt lat="42.7951017" lon="11.4042333"><ele>364.0</ele><time>2026-04-18T09:56:40.771Z</time></trkpt><trkpt lat="42.7950983" lon="11.4044983"><ele>364.0</ele><time>2026-04-18T09:56:41.768Z</time></trkpt><trkpt lat="42.7950967" lon="11.4047517"><ele>364.0</ele><time>2026-04-18T09:56:42.77Z</time></trkpt><trkpt lat="42.7951233" lon="11.4049817"><ele>361.3333333333333</ele><time>2026-04-18T09:56:43.77Z</time></trkpt><trkpt lat="42.7951917" lon="11.405175"><ele>358.6666666666667</ele><time>2026-04-18T09:56:44.77Z</time></trkpt><trkpt lat="42.79529" lon="11.4053383"><ele>356.0</ele><time>2026-04-18T09:56:45.77Z</time></trkpt><trkpt lat="42.7954267" lon="11.40547"><ele>359.0</ele><time>2026-04-18T09:56:46.768Z</time></trkpt><trkpt lat="42.795585" lon="11.4055717"><ele>362.0</ele><time>2026-04-18T09:56:47.769Z</time></trkpt><trkpt lat="42.7957467" lon="11.40567"><ele>365.0</ele><time>2026-04-18T09:56:48.769Z</time></trkpt><trkpt lat="42.7959133" lon="11.40577"><ele>364.33333333333337</ele><time>2026-04-18T09:56:49.771Z</time></trkpt><trkpt lat="42.7960817" lon="11.4058717"><ele>363.6666666666667</ele><time>2026-04-18T09:56:50.769Z</time></trkpt><trkpt lat="42.7962517" lon="11.4059767"><ele>363.0</ele><time>2026-04-18T09:56:51.769Z</time></trkpt><trkpt lat="42.796415" lon="11.4060817"><ele>363.0</ele><time>2026-04-18T09:56:52.771Z</time></trkpt><trkpt lat="42.79657" lon="11.406195"><ele>363.0</ele><time>2026-04-18T09:56:53.769Z</time></trkpt><trkpt lat="42.7967167" lon="11.4063083"><ele>363.0</ele><time>2026-04-18T09:56:54.768Z</time></trkpt><trkpt lat="42.7968533" lon="11.4064117"><ele>364.25</ele><time>2026-04-18T09:56:55.772Z</time></trkpt><trkpt lat="42.7969833" lon="11.40651"><ele>365.5</ele><time>2026-04-18T09:56:56.768Z</time></trkpt><trkpt lat="42.7971" lon="11.4066033"><ele>366.75</ele><time>2026-04-18T09:56:57.771Z</time></trkpt><trkpt lat="42.7971983" lon="11.406705"><ele>368.0</ele><time>2026-04-18T09:56:58.765Z</time></trkpt><trkpt lat="42.7972733" lon="11.40684"><ele>368.0</ele><time>2026-04-18T09:56:59.764Z</time></trkpt><trkpt lat="42.7973117" lon="11.40699"><ele>368.0</ele><time>2026-04-18T09:57:00.765Z</time></trkpt><trkpt lat="42.7973133" lon="11.4071567"><ele>368.0</ele><time>2026-04-18T09:57:01.766Z</time></trkpt><trkpt lat="42.7972733" lon="11.4073283"><ele>368.0</ele><time>2026-04-18T09:57:02.769Z</time></trkpt><trkpt lat="42.79721" lon="11.4075067"><ele>369.33333333333337</ele><time>2026-04-18T09:57:03.764Z</time></trkpt><trkpt lat="42.797135" lon="11.4076917"><ele>370.6666666666667</ele><time>2026-04-18T09:57:04.764Z</time></trkpt><trkpt lat="42.7970567" lon="11.4078833"><ele>372.0</ele><time>2026-04-18T09:57:05.768Z</time></trkpt><trkpt lat="42.7969783" lon="11.408085"><ele>372.6666666666667</ele><time>2026-04-18T09:57:06.769Z</time></trkpt><trkpt lat="42.7968983" lon="11.40829"><ele>373.33333333333337</ele><time>2026-04-18T09:57:07.769Z</time></trkpt><trkpt lat="42.7968133" lon="11.4085033"><ele>374.0</ele><time>2026-04-18T09:57:08.767Z</time></trkpt><trkpt lat="42.7967183" lon="11.4087017"><ele>377.0</ele><time>2026-04-18T09:57:09.77Z</time></trkpt><trkpt lat="42.79661" lon="11.40891"><ele>380.0</ele><time>2026-04-18T09:57:10.764Z</time></trkpt><trkpt lat="42.7964867" lon="11.4091233"><ele>383.0</ele><time>2026-04-18T09:57:11.766Z</time></trkpt><trkpt lat="42.796375" lon="11.4093167"><ele>383.0</ele><time>2026-04-18T09:57:12.77Z</time></trkpt><trkpt lat="42.796275" lon="11.4095167"><ele>383.0</ele><time>2026-04-18T09:57:13.77Z</time></trkpt><trkpt lat="42.7961817" lon="11.4097217"><ele>383.0</ele><time>2026-04-18T09:57:14.765Z</time></trkpt><trkpt lat="42.7960983" lon="11.409945"><ele>382.33333333333337</ele><time>2026-04-18T09:57:15.769Z</time></trkpt><trkpt lat="42.7960217" lon="11.410185"><ele>381.6666666666667</ele><time>2026-04-18T09:57:16.766Z</time></trkpt><trkpt lat="42.7959517" lon="11.4104183"><ele>381.0</ele><time>2026-04-18T09:57:17.769Z</time></trkpt><trkpt lat="42.79588" lon="11.4106517"><ele>385.33333333333337</ele><time>2026-04-18T09:57:18.77Z</time></trkpt><trkpt lat="42.7958133" lon="11.4108783"><ele>389.6666666666667</ele><time>2026-04-18T09:57:19.767Z</time></trkpt><trkpt lat="42.7957467" lon="11.41109"><ele>394.0</ele><time>2026-04-18T09:57:20.764Z</time></trkpt><trkpt lat="42.7956667" lon="11.4112883"><ele>394.6666666666667</ele><time>2026-04-18T09:57:21.768Z</time></trkpt><trkpt lat="42.7955717" lon="11.4114733"><ele>395.33333333333337</ele><time>2026-04-18T09:57:22.769Z</time></trkpt><trkpt lat="42.7954533" lon="11.411625"><ele>396.0</ele><time>2026-04-18T09:57:23.765Z</time></trkpt><trkpt lat="42.795325" lon="11.4117583"><ele>396.0</ele><time>2026-04-18T09:57:24.771Z</time></trkpt><trkpt lat="42.795195" lon="11.4118983"><ele>396.0</ele><time>2026-04-18T09:57:25.768Z</time></trkpt><trkpt lat="42.7950833" lon="11.4120583"><ele>396.0</ele><time>2026-04-18T09:57:26.769Z</time></trkpt><trkpt lat="42.7949983" lon="11.4122367"><ele>401.33333333333337</ele><time>2026-04-18T09:57:27.768Z</time></trkpt><trkpt lat="42.794945" lon="11.412435"><ele>406.6666666666667</ele><time>2026-04-18T09:57:28.764Z</time></trkpt><trkpt lat="42.7949117" lon="11.4126483"><ele>412.0</ele><time>2026-04-18T09:57:29.772Z</time></trkpt><trkpt lat="42.79497" lon="11.4128517"><ele>413.33333333333337</ele><time>2026-04-18T09:57:30.77Z</time></trkpt><trkpt lat="42.7950717" lon="11.4130433"><ele>414.66666666666663</ele><time>2026-04-18T09:57:31.768Z</time></trkpt><trkpt lat="42.79516" lon="11.4132383"><ele>416.0</ele><time>2026-04-18T09:57:32.767Z</time></trkpt><trkpt lat="42.7952167" lon="11.41343"><ele>417.25</ele><time>2026-04-18T09:57:33.765Z</time></trkpt><trkpt lat="42.7952567" lon="11.4136183"><ele>418.5</ele><time>2026-04-18T09:57:34.765Z</time></trkpt><trkpt lat="42.7952583" lon="11.4138017"><ele>419.75</ele><time>2026-04-18T09:57:35.766Z</time></trkpt><trkpt lat="42.7952067" lon="11.4139883"><ele>421.0</ele><time>2026-04-18T09:57:36.772Z</time></trkpt><trkpt lat="42.7951133" lon="11.4141867"><ele>421.0</ele><time>2026-04-18T09:57:37.765Z</time></trkpt><trkpt lat="42.795015" lon="11.4144"><ele>421.0</ele><time>2026-04-18T09:57:38.769Z</time></trkpt><trkpt lat="42.794915" lon="11.41463"><ele>421.0</ele><time>2026-04-18T09:57:39.766Z</time></trkpt><trkpt lat="42.7948233" lon="11.4148567"><ele>421.0</ele><time>2026-04-18T09:57:40.765Z</time></trkpt><trkpt lat="42.79472" lon="11.4150867"><ele>421.0</ele><time>2026-04-18T09:57:41.765Z</time></trkpt><trkpt lat="42.7946133" lon="11.415305"><ele>421.0</ele><time>2026-04-18T09:57:42.77Z</time></trkpt><trkpt lat="42.79451" lon="11.4155267"><ele>420.0</ele><time>2026-04-18T09:57:43.765Z</time></trkpt><trkpt lat="42.79441" lon="11.4157617"><ele>419.0</ele><time>2026-04-18T09:57:44.764Z</time></trkpt><trkpt lat="42.7943133" lon="11.4159883"><ele>418.0</ele><time>2026-04-18T09:57:45.763Z</time></trkpt><trkpt lat="42.7942133" lon="11.4162"><ele>421.33333333333337</ele><time>2026-04-18T09:57:46.765Z</time></trkpt><trkpt lat="42.79411" lon="11.416395"><ele>424.66666666666663</ele><time>2026-04-18T09:57:47.769Z</time></trkpt><trkpt lat="42.7939967" lon="11.4165617"><ele>428.0</ele><time>2026-04-18T09:57:48.77Z</time></trkpt><trkpt lat="42.7938717" lon="11.4167017"><ele>428.0</ele><time>2026-04-18T09:57:49.77Z</time></trkpt><trkpt lat="42.7937333" lon="11.4167883"><ele>428.0</ele><time>2026-04-18T09:57:50.766Z</time></trkpt><trkpt lat="42.793575" lon="11.4168333"><ele>428.0</ele><time>2026-04-18T09:57:51.758Z</time></trkpt><trkpt lat="42.79341" lon="11.4167917"><ele>432.3333333333333</ele><time>2026-04-18T09:57:52.758Z</time></trkpt><trkpt lat="42.79325" lon="11.4166867"><ele>436.66666666666663</ele><time>2026-04-18T09:57:53.764Z</time></trkpt><trkpt lat="42.7931017" lon="11.4165417"><ele>441.0</ele><time>2026-04-18T09:57:54.772Z</time></trkpt><trkpt lat="42.7929683" lon="11.4163783"><ele>443.0</ele><time>2026-04-18T09:57:55.765Z</time></trkpt><trkpt lat="42.79284" lon="11.416215"><ele>445.0</ele><time>2026-04-18T09:57:56.765Z</time></trkpt><trkpt lat="42.7926983" lon="11.41612"><ele>447.0</ele><time>2026-04-18T09:57:57.763Z</time></trkpt><trkpt lat="42.7925433" lon="11.4160717"><ele>447.66666666666663</ele><time>2026-04-18T09:57:58.765Z</time></trkpt><trkpt lat="42.7923817" lon="11.41609"><ele>448.3333333333333</ele><time>2026-04-18T09:57:59.769Z</time></trkpt><trkpt lat="42.7922067" lon="11.41614"><ele>449.0</ele><time>2026-04-18T09:58:00.771Z</time></trkpt><trkpt lat="42.7920283" lon="11.41619"><ele>449.0</ele><time>2026-04-18T09:58:01.77Z</time></trkpt><trkpt lat="42.7918433" lon="11.4162333"><ele>449.0</ele><time>2026-04-18T09:58:02.764Z</time></trkpt><trkpt lat="42.7916533" lon="11.41628"><ele>449.0</ele><time>2026-04-18T09:58:03.769Z</time></trkpt><trkpt lat="42.79147" lon="11.4163467"><ele>448.66666666666663</ele><time>2026-04-18T09:58:04.764Z</time></trkpt><trkpt lat="42.7912867" lon="11.41646"><ele>448.33333333333337</ele><time>2026-04-18T09:58:05.766Z</time></trkpt><trkpt lat="42.7911183" lon="11.416605"><ele>448.0</ele><time>2026-04-18T09:58:06.766Z</time></trkpt><trkpt lat="42.7909667" lon="11.4167583"><ele>451.6666666666667</ele><time>2026-04-18T09:58:07.765Z</time></trkpt><trkpt lat="42.7908233" lon="11.4169117"><ele>455.33333333333337</ele><time>2026-04-18T09:58:08.764Z</time></trkpt><trkpt lat="42.790705" lon="11.4170533"><ele>459.0</ele><time>2026-04-18T09:58:09.768Z</time></trkpt><trkpt lat="42.7906133" lon="11.4171833"><ele>459.0</ele><time>2026-04-18T09:58:10.766Z</time></trkpt><trkpt lat="42.7905683" lon="11.4173217"><ele>459.0</ele><time>2026-04-18T09:58:11.764Z</time></trkpt><trkpt lat="42.790575" lon="11.4174733"><ele>459.0</ele><time>2026-04-18T09:58:12.77Z</time></trkpt><trkpt lat="42.7906183" lon="11.4176417"><ele>459.0</ele><time>2026-04-18T09:58:13.77Z</time></trkpt><trkpt lat="42.7906467" lon="11.417825"><ele>458.5</ele><time>2026-04-18T09:58:14.766Z</time></trkpt><trkpt lat="42.79065" lon="11.4180117"><ele>458.0</ele><time>2026-04-18T09:58:15.768Z</time></trkpt><trkpt lat="42.7906167" lon="11.41821"><ele>457.5</ele><time>2026-04-18T09:58:16.765Z</time></trkpt><trkpt lat="42.790545" lon="11.41835"><ele>457.0</ele><time>2026-04-18T09:58:17.766Z</time></trkpt><trkpt lat="42.7904533" lon="11.41849"><ele>457.0</ele><time>2026-04-18T09:58:18.768Z</time></trkpt><trkpt lat="42.7903167" lon="11.4185883"><ele>457.0</ele><time>2026-04-18T09:58:19.766Z</time></trkpt><trkpt lat="42.7901533" lon="11.4186833"><ele>457.0</ele><time>2026-04-18T09:58:20.765Z</time></trkpt><trkpt lat="42.7899883" lon="11.41879"><ele>457.6666666666667</ele><time>2026-04-18T09:58:21.768Z</time></trkpt><trkpt lat="42.7898167" lon="11.4188767"><ele>458.33333333333337</ele><time>2026-04-18T09:58:22.769Z</time></trkpt><trkpt lat="42.7896317" lon="11.4189267"><ele>459.0</ele><time>2026-04-18T09:58:23.765Z</time></trkpt><trkpt lat="42.7894317" lon="11.41894"><ele>460.33333333333337</ele><time>2026-04-18T09:58:24.773Z</time></trkpt><trkpt lat="42.7892283" lon="11.4189433"><ele>461.6666666666667</ele><time>2026-04-18T09:58:25.765Z</time></trkpt><trkpt lat="42.789015" lon="11.4189417"><ele>463.0</ele><time>2026-04-18T09:58:26.766Z</time></trkpt><trkpt lat="42.788805" lon="11.4189567"><ele>463.0</ele><time>2026-04-18T09:58:27.77Z</time></trkpt><trkpt lat="42.788595" lon="11.419005"><ele>463.0</ele><time>2026-04-18T09:58:28.766Z</time></trkpt><trkpt lat="42.7883917" lon="11.4190833"><ele>463.0</ele><time>2026-04-18T09:58:29.769Z</time></trkpt><trkpt lat="42.788195" lon="11.4191783"><ele>464.6666666666667</ele><time>2026-04-18T09:58:30.771Z</time></trkpt><trkpt lat="42.7879983" lon="11.4192633"><ele>466.33333333333337</ele><time>2026-04-18T09:58:31.769Z</time></trkpt><trkpt lat="42.7878017" lon="11.41933"><ele>468.0</ele><time>2026-04-18T09:58:32.768Z</time></trkpt><trkpt lat="42.7876233" lon="11.419355"><ele>469.33333333333337</ele><time>2026-04-18T09:58:33.768Z</time></trkpt><trkpt lat="42.78745" lon="11.4193383"><ele>470.6666666666667</ele><time>2026-04-18T09:58:34.766Z</time></trkpt><trkpt lat="42.7872867" lon="11.4192833"><ele>472.0</ele><time>2026-04-18T09:58:35.769Z</time></trkpt><trkpt lat="42.7871117" lon="11.4191917"><ele>472.0</ele><time>2026-04-18T09:58:36.774Z</time></trkpt><trkpt lat="42.78694" lon="11.4190933"><ele>472.0</ele><time>2026-04-18T09:58:37.769Z</time></trkpt><trkpt lat="42.7867733" lon="11.419"><ele>472.0</ele><time>2026-04-18T09:58:38.765Z</time></trkpt><trkpt lat="42.78661" lon="11.4189217"><ele>471.33333333333337</ele><time>2026-04-18T09:58:39.768Z</time></trkpt><trkpt lat="42.78644" lon="11.4188917"><ele>470.66666666666663</ele><time>2026-04-18T09:58:40.771Z</time></trkpt><trkpt lat="42.7862683" lon="11.4189017"><ele>470.0</ele><time>2026-04-18T09:58:41.771Z</time></trkpt><trkpt lat="42.7861133" lon="11.41893"><ele>471.75</ele><time>2026-04-18T09:58:42.765Z</time></trkpt><trkpt lat="42.78596" lon="11.41897"><ele>473.5</ele><time>2026-04-18T09:58:43.765Z</time></trkpt><trkpt lat="42.785835" lon="11.4190617"><ele>475.25</ele><time>2026-04-18T09:58:44.765Z</time></trkpt><trkpt lat="42.78574" lon="11.4192033"><ele>477.0</ele><time>2026-04-18T09:58:45.767Z</time></trkpt><trkpt lat="42.7856733" lon="11.4193517"><ele>477.0</ele><time>2026-04-18T09:58:46.769Z</time></trkpt><trkpt lat="42.7855833" lon="11.4195167"><ele>477.0</ele><time>2026-04-18T09:58:47.769Z</time></trkpt><trkpt lat="42.7854883" lon="11.419675"><ele>477.0</ele><time>2026-04-18T09:58:48.772Z</time></trkpt><trkpt lat="42.7853733" lon="11.4198433"><ele>475.33333333333337</ele><time>2026-04-18T09:58:49.771Z</time></trkpt><trkpt lat="42.7852267" lon="11.4199867"><ele>473.6666666666667</ele><time>2026-04-18T09:58:50.768Z</time></trkpt><trkpt lat="42.7850567" lon="11.420115"><ele>472.0</ele><time>2026-04-18T09:58:51.767Z</time></trkpt><trkpt lat="42.7849067" lon="11.4202233"><ele>472.0</ele><time>2026-04-18T09:58:52.765Z</time></trkpt><trkpt lat="42.7847683" lon="11.4203483"><ele>472.0</ele><time>2026-04-18T09:58:53.765Z</time></trkpt><trkpt lat="42.784645" lon="11.4205017"><ele>472.0</ele><time>2026-04-18T09:58:54.77Z</time></trkpt><trkpt lat="42.784545" lon="11.420685"><ele>468.6666666666667</ele><time>2026-04-18T09:58:55.769Z</time></trkpt><trkpt lat="42.78449" lon="11.420905"><ele>465.33333333333337</ele><time>2026-04-18T09:58:56.769Z</time></trkpt><trkpt lat="42.784465" lon="11.4211517"><ele>462.0</ele><time>2026-04-18T09:58:57.771Z</time></trkpt><trkpt lat="42.78445" lon="11.4213817"><ele>462.0</ele><time>2026-04-18T09:58:58.768Z</time></trkpt><trkpt lat="42.7844417" lon="11.4216333"><ele>462.0</ele><time>2026-04-18T09:58:59.77Z</time></trkpt><trkpt lat="42.7844633" lon="11.42189"><ele>462.0</ele><time>2026-04-18T09:59:00.768Z</time></trkpt><trkpt lat="42.7845083" lon="11.42214"><ele>463.66666666666663</ele><time>2026-04-18T09:59:01.769Z</time></trkpt><trkpt lat="42.784575" lon="11.42239"><ele>465.3333333333333</ele><time>2026-04-18T09:59:02.77Z</time></trkpt><trkpt lat="42.784655" lon="11.4226467"><ele>467.0</ele><time>2026-04-18T09:59:03.769Z</time></trkpt><trkpt lat="42.7847417" lon="11.4228967"><ele>467.3333333333333</ele><time>2026-04-18T09:59:04.771Z</time></trkpt><trkpt lat="42.7848217" lon="11.4231567"><ele>467.66666666666663</ele><time>2026-04-18T09:59:05.771Z</time></trkpt><trkpt lat="42.7848883" lon="11.4234283"><ele>468.0</ele><time>2026-04-18T09:59:06.769Z</time></trkpt><trkpt lat="42.7849517" lon="11.4236967"><ele>467.33333333333337</ele><time>2026-04-18T09:59:07.769Z</time></trkpt><trkpt lat="42.78501" lon="11.423965"><ele>466.6666666666667</ele><time>2026-04-18T09:59:08.771Z</time></trkpt><trkpt lat="42.7850733" lon="11.4242283"><ele>466.0</ele><time>2026-04-18T09:59:09.771Z</time></trkpt><trkpt lat="42.7851417" lon="11.42448"><ele>465.0</ele><time>2026-04-18T09:59:10.772Z</time></trkpt><trkpt lat="42.785215" lon="11.4247167"><ele>464.0</ele><time>2026-04-18T09:59:11.769Z</time></trkpt><trkpt lat="42.785285" lon="11.4249433"><ele>463.0</ele><time>2026-04-18T09:59:12.771Z</time></trkpt><trkpt lat="42.7853417" lon="11.4251767"><ele>463.0</ele><time>2026-04-18T09:59:13.765Z</time></trkpt><trkpt lat="42.78538" lon="11.4254183"><ele>463.0</ele><time>2026-04-18T09:59:14.765Z</time></trkpt><trkpt lat="42.7854083" lon="11.4256683"><ele>463.0</ele><time>2026-04-18T09:59:15.768Z</time></trkpt><trkpt lat="42.7854483" lon="11.42591"><ele>464.6666666666667</ele><time>2026-04-18T09:59:16.765Z</time></trkpt><trkpt lat="42.7855167" lon="11.4261383"><ele>466.33333333333337</ele><time>2026-04-18T09:59:17.769Z</time></trkpt><trkpt lat="42.7856117" lon="11.426335"><ele>468.0</ele><time>2026-04-18T09:59:18.772Z</time></trkpt><trkpt lat="42.7857367" lon="11.4265083"><ele>468.0</ele><time>2026-04-18T09:59:19.771Z</time></trkpt><trkpt lat="42.7858833" lon="11.4266567"><ele>468.0</ele><time>2026-04-18T09:59:20.765Z</time></trkpt><trkpt lat="42.7860567" lon="11.4267867"><ele>468.0</ele><time>2026-04-18T09:59:21.766Z</time></trkpt><trkpt lat="42.7862367" lon="11.4269067"><ele>470.0</ele><time>2026-04-18T09:59:22.771Z</time></trkpt><trkpt lat="42.7864267" lon="11.42701"><ele>472.0</ele><time>2026-04-18T09:59:23.77Z</time></trkpt><trkpt lat="42.78661" lon="11.4271233"><ele>474.0</ele><time>2026-04-18T09:59:24.768Z</time></trkpt><trkpt lat="42.7867733" lon="11.4272633"><ele>470.33333333333337</ele><time>2026-04-18T09:59:25.77Z</time></trkpt><trkpt lat="42.78692" lon="11.4274317"><ele>466.6666666666667</ele><time>2026-04-18T09:59:26.767Z</time></trkpt><trkpt lat="42.7870633" lon="11.42761"><ele>463.0</ele><time>2026-04-18T09:59:27.765Z</time></trkpt><trkpt lat="42.7872083" lon="11.4277967"><ele>467.33333333333337</ele><time>2026-04-18T09:59:28.765Z</time></trkpt><trkpt lat="42.7873467" lon="11.4279767"><ele>471.66666666666663</ele><time>2026-04-18T09:59:29.767Z</time></trkpt><trkpt lat="42.7874933" lon="11.4281567"><ele>476.0</ele><time>2026-04-18T09:59:30.765Z</time></trkpt><trkpt lat="42.787645" lon="11.4283167"><ele>474.3333333333333</ele><time>2026-04-18T09:59:31.769Z</time></trkpt><trkpt lat="42.7878" lon="11.4284467"><ele>472.66666666666663</ele><time>2026-04-18T09:59:32.769Z</time></trkpt><trkpt lat="42.78795" lon="11.42855"><ele>471.0</ele><time>2026-04-18T09:59:33.764Z</time></trkpt><trkpt lat="42.7881183" lon="11.4286067"><ele>471.0</ele><time>2026-04-18T09:59:34.764Z</time></trkpt><trkpt lat="42.7882933" lon="11.4285933"><ele>471.0</ele><time>2026-04-18T09:59:35.769Z</time></trkpt><trkpt lat="42.788465" lon="11.4285133"><ele>471.0</ele><time>2026-04-18T09:59:36.772Z</time></trkpt><trkpt lat="42.7886283" lon="11.4284583"><ele>473.33333333333337</ele><time>2026-04-18T09:59:37.765Z</time></trkpt><trkpt lat="42.7888" lon="11.42844"><ele>475.6666666666667</ele><time>2026-04-18T09:59:38.766Z</time></trkpt><trkpt lat="42.78898" lon="11.428465"><ele>478.0</ele><time>2026-04-18T09:59:39.764Z</time></trkpt><trkpt lat="42.78914" lon="11.42854"><ele>478.0</ele><time>2026-04-18T09:59:40.767Z</time></trkpt><trkpt lat="42.7892917" lon="11.4286133"><ele>478.0</ele><time>2026-04-18T09:59:41.766Z</time></trkpt><trkpt lat="42.78944" lon="11.4286617"><ele>478.0</ele><time>2026-04-18T09:59:42.765Z</time></trkpt><trkpt lat="42.789595" lon="11.4286783"><ele>482.6666666666667</ele><time>2026-04-18T09:59:43.765Z</time></trkpt><trkpt lat="42.7897567" lon="11.4286317"><ele>487.33333333333337</ele><time>2026-04-18T09:59:44.763Z</time></trkpt><trkpt lat="42.789915" lon="11.4285867"><ele>492.0</ele><time>2026-04-18T09:59:45.765Z</time></trkpt><trkpt lat="42.7900633" lon="11.4285633"><ele>498.25</ele><time>2026-04-18T09:59:46.764Z</time></trkpt><trkpt lat="42.7902083" lon="11.42859"><ele>504.5</ele><time>2026-04-18T09:59:47.765Z</time></trkpt><trkpt lat="42.7903183" lon="11.4286883"><ele>510.75</ele><time>2026-04-18T09:59:48.77Z</time></trkpt><trkpt lat="42.7904033" lon="11.428855"><ele>517.0</ele><time>2026-04-18T09:59:49.764Z</time></trkpt><trkpt lat="42.7904583" lon="11.4290917"><ele>517.0</ele><time>2026-04-18T09:59:50.764Z</time></trkpt><trkpt lat="42.7905283" lon="11.4293183"><ele>517.0</ele><time>2026-04-18T09:59:51.766Z</time></trkpt><trkpt lat="42.7906" lon="11.4295617"><ele>517.0</ele><time>2026-04-18T09:59:52.772Z</time></trkpt><trkpt lat="42.790685" lon="11.429795"><ele>519.6666666666667</ele><time>2026-04-18T09:59:53.767Z</time></trkpt><trkpt lat="42.79079" lon="11.430015"><ele>522.3333333333334</ele><time>2026-04-18T09:59:54.769Z</time></trkpt><trkpt lat="42.7909217" lon="11.4301917"><ele>525.0</ele><time>2026-04-18T09:59:55.771Z</time></trkpt><trkpt lat="42.7910633" lon="11.4303467"><ele>525.0</ele><time>2026-04-18T09:59:56.769Z</time></trkpt><trkpt lat="42.7912367" lon="11.43044"><ele>525.0</ele><time>2026-04-18T09:59:57.768Z</time></trkpt><trkpt lat="42.7914117" lon="11.4305183"><ele>525.0</ele><time>2026-04-18T09:59:58.765Z</time></trkpt><trkpt lat="42.791575" lon="11.4305883"><ele>528.3333333333334</ele><time>2026-04-18T09:59:59.77Z</time></trkpt><trkpt lat="42.7917217" lon="11.430695"><ele>531.6666666666667</ele><time>2026-04-18T10:00:00.768Z</time></trkpt><trkpt lat="42.7918333" lon="11.430845"><ele>535.0</ele><time>2026-04-18T10:00:01.765Z</time></trkpt><trkpt lat="42.79189" lon="11.4310333"><ele>535.0</ele><time>2026-04-18T10:00:02.763Z</time></trkpt><trkpt lat="42.7919133" lon="11.43125"><ele>535.0</ele><time>2026-04-18T10:00:03.767Z</time></trkpt><trkpt lat="42.791925" lon="11.43147"><ele>535.0</ele><time>2026-04-18T10:00:04.765Z</time></trkpt><trkpt lat="42.791945" lon="11.43168"><ele>531.0</ele><time>2026-04-18T10:00:05.767Z</time></trkpt><trkpt lat="42.7920117" lon="11.43187"><ele>527.0</ele><time>2026-04-18T10:00:06.767Z</time></trkpt><trkpt lat="42.79214" lon="11.4320083"><ele>523.0</ele><time>2026-04-18T10:00:07.765Z</time></trkpt><trkpt lat="42.79228" lon="11.43217"><ele>519.6666666666667</ele><time>2026-04-18T10:00:08.765Z</time></trkpt><trkpt lat="42.79241" lon="11.4323667"><ele>516.3333333333334</ele><time>2026-04-18T10:00:09.765Z</time></trkpt><trkpt lat="42.792525" lon="11.4325983"><ele>513.0</ele><time>2026-04-18T10:00:10.768Z</time></trkpt><trkpt lat="42.7926367" lon="11.432845"><ele>517.6666666666666</ele><time>2026-04-18T10:00:11.767Z</time></trkpt><trkpt lat="42.7927467" lon="11.4330983"><ele>522.3333333333333</ele><time>2026-04-18T10:00:12.769Z</time></trkpt><trkpt lat="42.792855" lon="11.43335"><ele>527.0</ele><time>2026-04-18T10:00:13.769Z</time></trkpt><trkpt lat="42.79295" lon="11.433605"><ele>523.3333333333333</ele><time>2026-04-18T10:00:14.766Z</time></trkpt><trkpt lat="42.7930383" lon="11.4338467"><ele>519.6666666666666</ele><time>2026-04-18T10:00:15.765Z</time></trkpt><trkpt lat="42.7931183" lon="11.434065"><ele>516.0</ele><time>2026-04-18T10:00:16.765Z</time></trkpt><trkpt lat="42.7932067" lon="11.4342433"><ele>516.0</ele><time>2026-04-18T10:00:17.77Z</time></trkpt><trkpt lat="42.7933033" lon="11.43438"><ele>516.0</ele><time>2026-04-18T10:00:18.771Z</time></trkpt><trkpt lat="42.7934233" lon="11.4344767"><ele>516.0</ele><time>2026-04-18T10:00:19.767Z</time></trkpt><trkpt lat="42.793565" lon="11.4345183"><ele>516.0</ele><time>2026-04-18T10:00:20.765Z</time></trkpt><trkpt lat="42.7937117" lon="11.43453"><ele>517.0</ele><time>2026-04-18T10:00:21.766Z</time></trkpt><trkpt lat="42.793895" lon="11.4344467"><ele>518.0</ele><time>2026-04-18T10:00:22.765Z</time></trkpt><trkpt lat="42.7940833" lon="11.4343567"><ele>519.0</ele><time>2026-04-18T10:00:23.77Z</time></trkpt><trkpt lat="42.7942717" lon="11.4342617"><ele>518.6666666666666</ele><time>2026-04-18T10:00:24.771Z</time></trkpt><trkpt lat="42.79445" lon="11.43418"><ele>518.3333333333333</ele><time>2026-04-18T10:00:25.769Z</time></trkpt><trkpt lat="42.79462" lon="11.4340967"><ele>518.0</ele><time>2026-04-18T10:00:26.768Z</time></trkpt><trkpt lat="42.794775" lon="11.43402"><ele>518.0</ele><time>2026-04-18T10:00:27.767Z</time></trkpt><trkpt lat="42.7949133" lon="11.4339483"><ele>518.0</ele><time>2026-04-18T10:00:28.765Z</time></trkpt><trkpt lat="42.7950417" lon="11.43389"><ele>518.0</ele><time>2026-04-18T10:00:29.761Z</time></trkpt><trkpt lat="42.79516" lon="11.4338483"><ele>518.0</ele><time>2026-04-18T10:00:30.77Z</time></trkpt><trkpt lat="42.7952683" lon="11.43381"><ele>518.6666666666666</ele><time>2026-04-18T10:00:31.77Z</time></trkpt><trkpt lat="42.795365" lon="11.4337883"><ele>519.3333333333333</ele><time>2026-04-18T10:00:32.764Z</time></trkpt><trkpt lat="42.7954483" lon="11.4337867"><ele>520.0</ele><time>2026-04-18T10:00:33.769Z</time></trkpt><trkpt lat="42.7955183" lon="11.433805"><ele>520.6666666666666</ele><time>2026-04-18T10:00:34.768Z</time></trkpt><trkpt lat="42.7956033" lon="11.43385"><ele>521.3333333333334</ele><time>2026-04-18T10:00:36.77Z</time></trkpt><trkpt lat="42.7956667" lon="11.433875"><ele>522.0</ele><time>2026-04-18T10:00:38.765Z</time></trkpt><trkpt lat="42.7957383" lon="11.4339067"><ele>522.0</ele><time>2026-04-18T10:00:40.766Z</time></trkpt><trkpt lat="42.7958333" lon="11.4339617"><ele>522.0</ele><time>2026-04-18T10:00:42.765Z</time></trkpt><trkpt lat="42.7958933" lon="11.4339933"><ele>522.0</ele><time>2026-04-18T10:00:43.767Z</time></trkpt><trkpt lat="42.7959567" lon="11.4340267"><ele>522.0</ele><time>2026-04-18T10:00:44.763Z</time></trkpt><trkpt lat="42.796025" lon="11.4340617"><ele>522.0</ele><time>2026-04-18T10:00:45.765Z</time></trkpt><trkpt lat="42.7961" lon="11.4340983"><ele>522.0</ele><time>2026-04-18T10:00:46.765Z</time></trkpt><trkpt lat="42.7961817" lon="11.434145"><ele>523.8000000000001</ele><time>2026-04-18T10:00:47.766Z</time></trkpt><trkpt lat="42.7962717" lon="11.434195"><ele>525.6</ele><time>2026-04-18T10:00:48.771Z</time></trkpt><trkpt lat="42.7963683" lon="11.4342517"><ele>527.4000000000001</ele><time>2026-04-18T10:00:49.77Z</time></trkpt><trkpt lat="42.796475" lon="11.4343133"><ele>529.2</ele><time>2026-04-18T10:00:50.766Z</time></trkpt><trkpt lat="42.7965917" lon="11.43438"><ele>531.0</ele><time>2026-04-18T10:00:51.765Z</time></trkpt><trkpt lat="42.7967133" lon="11.43445"><ele>530.5</ele><time>2026-04-18T10:00:52.765Z</time></trkpt><trkpt lat="42.796845" lon="11.4345233"><ele>530.0</ele><time>2026-04-18T10:00:53.765Z</time></trkpt><trkpt lat="42.79698" lon="11.4345983"><ele>529.5</ele><time>2026-04-18T10:00:54.767Z</time></trkpt><trkpt lat="42.7971217" lon="11.434675"><ele>529.0</ele><time>2026-04-18T10:00:55.765Z</time></trkpt><trkpt lat="42.797265" lon="11.4347517"><ele>528.0</ele><time>2026-04-18T10:00:56.765Z</time></trkpt><trkpt lat="42.7974117" lon="11.4348317"><ele>527.0</ele><time>2026-04-18T10:00:57.765Z</time></trkpt><trkpt lat="42.7975583" lon="11.4349083"><ele>526.0</ele><time>2026-04-18T10:00:58.764Z</time></trkpt><trkpt lat="42.7977033" lon="11.4349883"><ele>526.0</ele><time>2026-04-18T10:00:59.767Z</time></trkpt><trkpt lat="42.7978467" lon="11.4350683"><ele>526.0</ele><time>2026-04-18T10:01:00.77Z</time></trkpt><trkpt lat="42.7979883" lon="11.4351467"><ele>526.0</ele><time>2026-04-18T10:01:01.765Z</time></trkpt><trkpt lat="42.79813" lon="11.4352267"><ele>526.0</ele><time>2026-04-18T10:01:02.764Z</time></trkpt><trkpt lat="42.7982667" lon="11.4353133"><ele>526.0</ele><time>2026-04-18T10:01:03.765Z</time></trkpt><trkpt lat="42.7983883" lon="11.4354067"><ele>526.0</ele><time>2026-04-18T10:01:04.766Z</time></trkpt><trkpt lat="42.7984833" lon="11.4355367"><ele>526.0</ele><time>2026-04-18T10:01:05.766Z</time></trkpt><trkpt lat="42.7985583" lon="11.4356917"><ele>527.0</ele><time>2026-04-18T10:01:06.767Z</time></trkpt><trkpt lat="42.7986067" lon="11.43587"><ele>528.0</ele><time>2026-04-18T10:01:07.764Z</time></trkpt><trkpt lat="42.79862" lon="11.4360633"><ele>529.0</ele><time>2026-04-18T10:01:08.765Z</time></trkpt><trkpt lat="42.798605" lon="11.436265"><ele>530.0</ele><time>2026-04-18T10:01:09.769Z</time></trkpt><trkpt lat="42.798565" lon="11.4364583"><ele>530.6666666666666</ele><time>2026-04-18T10:01:10.764Z</time></trkpt><trkpt lat="42.79848" lon="11.436635"><ele>531.3333333333334</ele><time>2026-04-18T10:01:11.766Z</time></trkpt><trkpt lat="42.79836" lon="11.4367967"><ele>532.0</ele><time>2026-04-18T10:01:12.763Z</time></trkpt><trkpt lat="42.7982117" lon="11.4369417"><ele>532.0</ele><time>2026-04-18T10:01:13.764Z</time></trkpt><trkpt lat="42.7980417" lon="11.4370833"><ele>532.0</ele><time>2026-04-18T10:01:14.764Z</time></trkpt><trkpt lat="42.7978633" lon="11.43722"><ele>532.0</ele><time>2026-04-18T10:01:15.765Z</time></trkpt><trkpt lat="42.7976817" lon="11.4373533"><ele>535.3333333333334</ele><time>2026-04-18T10:01:16.763Z</time></trkpt><trkpt lat="42.7974867" lon="11.4374867"><ele>538.6666666666666</ele><time>2026-04-18T10:01:17.766Z</time></trkpt><trkpt lat="42.797285" lon="11.437625"><ele>542.0</ele><time>2026-04-18T10:01:18.77Z</time></trkpt><trkpt lat="42.7970967" lon="11.437785"><ele>542.0</ele><time>2026-04-18T10:01:19.764Z</time></trkpt><trkpt lat="42.796915" lon="11.4379667"><ele>542.0</ele><time>2026-04-18T10:01:20.761Z</time></trkpt><trkpt lat="42.796745" lon="11.4381833"><ele>545.5</ele><time>2026-04-18T10:01:21.765Z</time></trkpt><trkpt lat="42.7965817" lon="11.4384167"><ele>549.0</ele><time>2026-04-18T10:01:22.765Z</time></trkpt><trkpt lat="42.7964233" lon="11.43865"><ele>551.3333333333334</ele><time>2026-04-18T10:01:23.768Z</time></trkpt><trkpt lat="42.7962733" lon="11.4388667"><ele>553.6666666666667</ele><time>2026-04-18T10:01:24.766Z</time></trkpt><trkpt lat="42.7961367" lon="11.4390683"><ele>556.0</ele><time>2026-04-18T10:01:25.765Z</time></trkpt><trkpt lat="42.7960217" lon="11.4392583"><ele>556.0</ele><time>2026-04-18T10:01:26.767Z</time></trkpt><trkpt lat="42.7959317" lon="11.439485"><ele>556.0</ele><time>2026-04-18T10:01:27.77Z</time></trkpt><trkpt lat="42.7959033" lon="11.4397217"><ele>556.0</ele><time>2026-04-18T10:01:28.763Z</time></trkpt><trkpt lat="42.7959317" lon="11.4399683"><ele>556.0</ele><time>2026-04-18T10:01:29.767Z</time></trkpt><trkpt lat="42.796" lon="11.4402117"><ele>556.0</ele><time>2026-04-18T10:01:30.767Z</time></trkpt><trkpt lat="42.7960983" lon="11.4404617"><ele>556.0</ele><time>2026-04-18T10:01:31.766Z</time></trkpt><trkpt lat="42.7962" lon="11.4407233"><ele>560.6666666666667</ele><time>2026-04-18T10:01:32.763Z</time></trkpt><trkpt lat="42.7963017" lon="11.4409867"><ele>565.3333333333334</ele><time>2026-04-18T10:01:33.768Z</time></trkpt><trkpt lat="42.7963917" lon="11.4412517"><ele>570.0</ele><time>2026-04-18T10:01:34.763Z</time></trkpt><trkpt lat="42.7964483" lon="11.4415133"><ele>570.0</ele><time>2026-04-18T10:01:35.765Z</time></trkpt><trkpt lat="42.7964767" lon="11.44178"><ele>570.0</ele><time>2026-04-18T10:01:36.768Z</time></trkpt><trkpt lat="42.7964417" lon="11.4420483"><ele>570.0</ele><time>2026-04-18T10:01:37.768Z</time></trkpt><trkpt lat="42.7963583" lon="11.4423017"><ele>569.0</ele><time>2026-04-18T10:01:38.765Z</time></trkpt><trkpt lat="42.7962283" lon="11.4425283"><ele>568.0</ele><time>2026-04-18T10:01:39.769Z</time></trkpt><trkpt lat="42.7960683" lon="11.442725"><ele>567.0</ele><time>2026-04-18T10:01:40.765Z</time></trkpt><trkpt lat="42.79588" lon="11.4429067"><ele>571.5</ele><time>2026-04-18T10:01:41.763Z</time></trkpt><trkpt lat="42.795695" lon="11.44309"><ele>576.0</ele><time>2026-04-18T10:01:42.766Z</time></trkpt><trkpt lat="42.795515" lon="11.4432783"><ele>576.0</ele><time>2026-04-18T10:01:43.763Z</time></trkpt><trkpt lat="42.7953333" lon="11.4434733"><ele>576.0</ele><time>2026-04-18T10:01:44.762Z</time></trkpt><trkpt lat="42.79515" lon="11.4436633"><ele>578.0</ele><time>2026-04-18T10:01:45.766Z</time></trkpt><trkpt lat="42.7949667" lon="11.4438633"><ele>580.0</ele><time>2026-04-18T10:01:46.762Z</time></trkpt><trkpt lat="42.7947867" lon="11.4440617"><ele>580.0</ele><time>2026-04-18T10:01:47.767Z</time></trkpt><trkpt lat="42.79461" lon="11.444255"><ele>580.0</ele><time>2026-04-18T10:01:48.765Z</time></trkpt><trkpt lat="42.794435" lon="11.4444517"><ele>580.5</ele><time>2026-04-18T10:01:49.764Z</time></trkpt><trkpt lat="42.7942617" lon="11.44465"><ele>581.0</ele><time>2026-04-18T10:01:50.763Z</time></trkpt><trkpt lat="42.7940833" lon="11.44485"><ele>581.0</ele><time>2026-04-18T10:01:51.765Z</time></trkpt><trkpt lat="42.7938983" lon="11.4450517"><ele>581.0</ele><time>2026-04-18T10:01:52.763Z</time></trkpt><trkpt lat="42.793705" lon="11.4452517"><ele>581.5</ele><time>2026-04-18T10:01:53.765Z</time></trkpt><trkpt lat="42.7935033" lon="11.4454417"><ele>582.0</ele><time>2026-04-18T10:01:54.766Z</time></trkpt><trkpt lat="42.7933" lon="11.44563"><ele>582.0</ele><time>2026-04-18T10:01:55.764Z</time></trkpt><trkpt lat="42.79309" lon="11.4458117"><ele>582.0</ele><time>2026-04-18T10:01:56.763Z</time></trkpt><trkpt lat="42.7928917" lon="11.4459967"><ele>582.0</ele><time>2026-04-18T10:01:57.765Z</time></trkpt><trkpt lat="42.7927017" lon="11.4461717"><ele>582.0</ele><time>2026-04-18T10:01:58.764Z</time></trkpt><trkpt lat="42.792525" lon="11.4463383"><ele>582.0</ele><time>2026-04-18T10:01:59.765Z</time></trkpt><trkpt lat="42.79236" lon="11.4464883"><ele>583.3333333333334</ele><time>2026-04-18T10:02:00.77Z</time></trkpt><trkpt lat="42.7922167" lon="11.446635"><ele>584.6666666666667</ele><time>2026-04-18T10:02:01.764Z</time></trkpt><trkpt lat="42.7920933" lon="11.4467967"><ele>586.0</ele><time>2026-04-18T10:02:02.764Z</time></trkpt><trkpt lat="42.7920217" lon="11.4469917"><ele>588.0</ele><time>2026-04-18T10:02:03.766Z</time></trkpt><trkpt lat="42.7920033" lon="11.44721"><ele>590.0</ele><time>2026-04-18T10:02:04.764Z</time></trkpt><trkpt lat="42.792025" lon="11.44744"><ele>592.0</ele><time>2026-04-18T10:02:05.764Z</time></trkpt><trkpt lat="42.7921417" lon="11.4477083"><ele>591.0</ele><time>2026-04-18T10:02:06.77Z</time></trkpt><trkpt lat="42.7922367" lon="11.4479617"><ele>590.0</ele><time>2026-04-18T10:02:07.762Z</time></trkpt><trkpt lat="42.7923217" lon="11.448215"><ele>589.0</ele><time>2026-04-18T10:02:08.761Z</time></trkpt><trkpt lat="42.7924117" lon="11.4484517"><ele>589.0</ele><time>2026-04-18T10:02:09.764Z</time></trkpt><trkpt lat="42.7925267" lon="11.4486717"><ele>589.0</ele><time>2026-04-18T10:02:10.764Z</time></trkpt><trkpt lat="42.79267" lon="11.4488633"><ele>589.0</ele><time>2026-04-18T10:02:11.769Z</time></trkpt><trkpt lat="42.7928167" lon="11.4490317"><ele>589.0</ele><time>2026-04-18T10:02:12.765Z</time></trkpt><trkpt lat="42.7929617" lon="11.4491817"><ele>589.0</ele><time>2026-04-18T10:02:13.765Z</time></trkpt><trkpt lat="42.793085" lon="11.4493267"><ele>589.0</ele><time>2026-04-18T10:02:14.763Z</time></trkpt><trkpt lat="42.793185" lon="11.4494883"><ele>587.0</ele><time>2026-04-18T10:02:15.767Z</time></trkpt><trkpt lat="42.7932367" lon="11.4496933"><ele>585.0</ele><time>2026-04-18T10:02:16.764Z</time></trkpt><trkpt lat="42.79325" lon="11.44992"><ele>583.0</ele><time>2026-04-18T10:02:17.768Z</time></trkpt><trkpt lat="42.7932067" lon="11.4501567"><ele>583.0</ele><time>2026-04-18T10:02:18.766Z</time></trkpt><trkpt lat="42.7931433" lon="11.450395"><ele>583.0</ele><time>2026-04-18T10:02:19.769Z</time></trkpt><trkpt lat="42.79309" lon="11.45062"><ele>583.0</ele><time>2026-04-18T10:02:20.762Z</time></trkpt><trkpt lat="42.7930433" lon="11.4508483"><ele>583.3333333333334</ele><time>2026-04-18T10:02:21.764Z</time></trkpt><trkpt lat="42.79302" lon="11.451085"><ele>583.6666666666666</ele><time>2026-04-18T10:02:22.766Z</time></trkpt><trkpt lat="42.7930483" lon="11.451315"><ele>584.0</ele><time>2026-04-18T10:02:23.765Z</time></trkpt><trkpt lat="42.7931117" lon="11.4515483"><ele>581.0</ele><time>2026-04-18T10:02:24.764Z</time></trkpt><trkpt lat="42.793225" lon="11.4517533"><ele>578.0</ele><time>2026-04-18T10:02:25.766Z</time></trkpt><trkpt lat="42.7933783" lon="11.4518833"><ele>575.0</ele><time>2026-04-18T10:02:26.76Z</time></trkpt><trkpt lat="42.793555" lon="11.4519383"><ele>571.6666666666666</ele><time>2026-04-18T10:02:27.764Z</time></trkpt><trkpt lat="42.79376" lon="11.4519183"><ele>568.3333333333334</ele><time>2026-04-18T10:02:28.764Z</time></trkpt><trkpt lat="42.7939867" lon="11.4518133"><ele>565.0</ele><time>2026-04-18T10:02:29.765Z</time></trkpt><trkpt lat="42.7941917" lon="11.4517267"><ele>561.0</ele><time>2026-04-18T10:02:30.768Z</time></trkpt><trkpt lat="42.7943933" lon="11.4516833"><ele>557.0</ele><time>2026-04-18T10:02:31.768Z</time></trkpt><trkpt lat="42.7945933" lon="11.4516983"><ele>553.0</ele><time>2026-04-18T10:02:32.763Z</time></trkpt><trkpt lat="42.7947917" lon="11.4517717"><ele>553.0</ele><time>2026-04-18T10:02:33.766Z</time></trkpt><trkpt lat="42.7949683" lon="11.451925"><ele>553.0</ele><time>2026-04-18T10:02:34.765Z</time></trkpt><trkpt lat="42.7951333" lon="11.45214"><ele>553.0</ele><time>2026-04-18T10:02:35.767Z</time></trkpt><trkpt lat="42.79529" lon="11.45238"><ele>552.5</ele><time>2026-04-18T10:02:36.77Z</time></trkpt><trkpt lat="42.7954617" lon="11.4526083"><ele>552.0</ele><time>2026-04-18T10:02:37.768Z</time></trkpt><trkpt lat="42.7956467" lon="11.4528317"><ele>553.5</ele><time>2026-04-18T10:02:38.764Z</time></trkpt><trkpt lat="42.7958517" lon="11.4530267"><ele>555.0</ele><time>2026-04-18T10:02:39.766Z</time></trkpt><trkpt lat="42.7960683" lon="11.453205"><ele>556.0</ele><time>2026-04-18T10:02:40.766Z</time></trkpt><trkpt lat="42.79629" lon="11.453375"><ele>557.0</ele><time>2026-04-18T10:02:41.762Z</time></trkpt><trkpt lat="42.79651" lon="11.4535367"><ele>557.0</ele><time>2026-04-18T10:02:42.768Z</time></trkpt><trkpt lat="42.7967267" lon="11.4537017"><ele>557.0</ele><time>2026-04-18T10:02:43.762Z</time></trkpt><trkpt lat="42.7969233" lon="11.4538867"><ele>559.0</ele><time>2026-04-18T10:02:44.764Z</time></trkpt><trkpt lat="42.7970967" lon="11.4540883"><ele>561.0</ele><time>2026-04-18T10:02:45.765Z</time></trkpt><trkpt lat="42.79725" lon="11.45431"><ele>561.0</ele><time>2026-04-18T10:02:46.764Z</time></trkpt><trkpt lat="42.797395" lon="11.4545367"><ele>561.0</ele><time>2026-04-18T10:02:47.768Z</time></trkpt><trkpt lat="42.7975317" lon="11.4547867"><ele>561.0</ele><time>2026-04-18T10:02:48.767Z</time></trkpt><trkpt lat="42.7976633" lon="11.4550367"><ele>562.0</ele><time>2026-04-18T10:02:49.762Z</time></trkpt><trkpt lat="42.7977967" lon="11.4552833"><ele>563.0</ele><time>2026-04-18T10:02:50.761Z</time></trkpt><trkpt lat="42.7979267" lon="11.4555367"><ele>567.3333333333333</ele><time>2026-04-18T10:02:51.764Z</time></trkpt><trkpt lat="42.798055" lon="11.4557783"><ele>571.6666666666666</ele><time>2026-04-18T10:02:52.764Z</time></trkpt><trkpt lat="42.7981867" lon="11.4560033"><ele>576.0</ele><time>2026-04-18T10:02:53.767Z</time></trkpt><trkpt lat="42.79834" lon="11.4562"><ele>577.3333333333334</ele><time>2026-04-18T10:02:54.768Z</time></trkpt><trkpt lat="42.798515" lon="11.4563717"><ele>578.6666666666667</ele><time>2026-04-18T10:02:55.757Z</time></trkpt><trkpt lat="42.7987083" lon="11.45653"><ele>580.0</ele><time>2026-04-18T10:02:56.764Z</time></trkpt><trkpt lat="42.7989117" lon="11.4566783"><ele>580.0</ele><time>2026-04-18T10:02:57.767Z</time></trkpt><trkpt lat="42.79911" lon="11.4568383"><ele>580.0</ele><time>2026-04-18T10:02:58.768Z</time></trkpt><trkpt lat="42.7993117" lon="11.457"><ele>580.5</ele><time>2026-04-18T10:02:59.766Z</time></trkpt><trkpt lat="42.799515" lon="11.4571533"><ele>581.0</ele><time>2026-04-18T10:03:00.768Z</time></trkpt><trkpt lat="42.799715" lon="11.4573117"><ele>581.0</ele><time>2026-04-18T10:03:01.768Z</time></trkpt><trkpt lat="42.7999167" lon="11.4574717"><ele>581.0</ele><time>2026-04-18T10:03:02.764Z</time></trkpt><trkpt lat="42.8001167" lon="11.4576283"><ele>580.3333333333333</ele><time>2026-04-18T10:03:03.769Z</time></trkpt><trkpt lat="42.8003067" lon="11.4577817"><ele>579.6666666666666</ele><time>2026-04-18T10:03:04.768Z</time></trkpt><trkpt lat="42.8004933" lon="11.4579233"><ele>579.0</ele><time>2026-04-18T10:03:05.767Z</time></trkpt><trkpt lat="42.800675" lon="11.458045"><ele>579.0</ele><time>2026-04-18T10:03:06.772Z</time></trkpt><trkpt lat="42.8008533" lon="11.45815"><ele>579.0</ele><time>2026-04-18T10:03:07.768Z</time></trkpt><trkpt lat="42.8010267" lon="11.458235"><ele>579.0</ele><time>2026-04-18T10:03:08.768Z</time></trkpt><trkpt lat="42.8011883" lon="11.458335"><ele>577.3333333333334</ele><time>2026-04-18T10:03:09.764Z</time></trkpt><trkpt lat="42.801335" lon="11.4584267"><ele>575.6666666666667</ele><time>2026-04-18T10:03:10.768Z</time></trkpt><trkpt lat="42.801475" lon="11.458525"><ele>574.0</ele><time>2026-04-18T10:03:11.766Z</time></trkpt><trkpt lat="42.8016133" lon="11.45862"><ele>574.0</ele><time>2026-04-18T10:03:12.764Z</time></trkpt><trkpt lat="42.80175" lon="11.4587083"><ele>574.0</ele><time>2026-04-18T10:03:13.767Z</time></trkpt><trkpt lat="42.8018767" lon="11.4588067"><ele>574.0</ele><time>2026-04-18T10:03:14.762Z</time></trkpt><trkpt lat="42.8019833" lon="11.4589183"><ele>574.0</ele><time>2026-04-18T10:03:15.767Z</time></trkpt><trkpt lat="42.80207" lon="11.4590367"><ele>575.25</ele><time>2026-04-18T10:03:16.767Z</time></trkpt><trkpt lat="42.8021283" lon="11.459165"><ele>576.5</ele><time>2026-04-18T10:03:17.766Z</time></trkpt><trkpt lat="42.802165" lon="11.4593117"><ele>577.75</ele><time>2026-04-18T10:03:18.767Z</time></trkpt><trkpt lat="42.8021867" lon="11.4594933"><ele>579.0</ele><time>2026-04-18T10:03:19.767Z</time></trkpt><trkpt lat="42.8021983" lon="11.45969"><ele>581.0</ele><time>2026-04-18T10:03:20.763Z</time></trkpt><trkpt lat="42.8022167" lon="11.4599083"><ele>583.0</ele><time>2026-04-18T10:03:21.764Z</time></trkpt><trkpt lat="42.8022383" lon="11.4601433"><ele>585.0</ele><time>2026-04-18T10:03:22.765Z</time></trkpt><trkpt lat="42.80226" lon="11.4603917"><ele>583.3333333333334</ele><time>2026-04-18T10:03:23.767Z</time></trkpt><trkpt lat="42.802285" lon="11.4606583"><ele>581.6666666666667</ele><time>2026-04-18T10:03:24.769Z</time></trkpt><trkpt lat="42.8023117" lon="11.460925"><ele>580.0</ele><time>2026-04-18T10:03:25.768Z</time></trkpt><trkpt lat="42.8023283" lon="11.4611767"><ele>577.0</ele><time>2026-04-18T10:03:26.765Z</time></trkpt><trkpt lat="42.8023467" lon="11.4614083"><ele>574.0</ele><time>2026-04-18T10:03:27.767Z</time></trkpt><trkpt lat="42.8023767" lon="11.4616217"><ele>571.0</ele><time>2026-04-18T10:03:28.764Z</time></trkpt><trkpt lat="42.8024517" lon="11.4618067"><ele>571.0</ele><time>2026-04-18T10:03:29.768Z</time></trkpt><trkpt lat="42.8025667" lon="11.461975"><ele>571.0</ele><time>2026-04-18T10:03:30.764Z</time></trkpt><trkpt lat="42.8027067" lon="11.4621383"><ele>571.0</ele><time>2026-04-18T10:03:31.764Z</time></trkpt><trkpt lat="42.8028683" lon="11.4622933"><ele>569.6666666666667</ele><time>2026-04-18T10:03:32.763Z</time></trkpt><trkpt lat="42.8030467" lon="11.4624433"><ele>568.3333333333334</ele><time>2026-04-18T10:03:33.764Z</time></trkpt><trkpt lat="42.8032367" lon="11.4625883"><ele>567.0</ele><time>2026-04-18T10:03:34.764Z</time></trkpt><trkpt lat="42.8034317" lon="11.46273"><ele>571.0</ele><time>2026-04-18T10:03:35.769Z</time></trkpt><trkpt lat="42.8036367" lon="11.4628617"><ele>575.0</ele><time>2026-04-18T10:03:36.768Z</time></trkpt><trkpt lat="42.8038467" lon="11.462985"><ele>567.0</ele><time>2026-04-18T10:03:37.769Z</time></trkpt><trkpt lat="42.804055" lon="11.4631067"><ele>559.0</ele><time>2026-04-18T10:03:38.764Z</time></trkpt><trkpt lat="42.8042683" lon="11.4632267"><ele>562.3333333333334</ele><time>2026-04-18T10:03:39.765Z</time></trkpt><trkpt lat="42.8044783" lon="11.4633283"><ele>565.6666666666666</ele><time>2026-04-18T10:03:40.764Z</time></trkpt><trkpt lat="42.8046817" lon="11.46342"><ele>569.0</ele><time>2026-04-18T10:03:41.765Z</time></trkpt><trkpt lat="42.80486" lon="11.4635167"><ele>569.0</ele><time>2026-04-18T10:03:42.766Z</time></trkpt><trkpt lat="42.8050233" lon="11.463625"><ele>569.0</ele><time>2026-04-18T10:03:43.764Z</time></trkpt><trkpt lat="42.80518" lon="11.4637533"><ele>569.0</ele><time>2026-04-18T10:03:44.764Z</time></trkpt><trkpt lat="42.80532" lon="11.4639117"><ele>572.0</ele><time>2026-04-18T10:03:45.765Z</time></trkpt><trkpt lat="42.80545" lon="11.4640967"><ele>575.0</ele><time>2026-04-18T10:03:46.765Z</time></trkpt><trkpt lat="42.805555" lon="11.4642767"><ele>578.0</ele><time>2026-04-18T10:03:47.765Z</time></trkpt><trkpt lat="42.8056367" lon="11.464465"><ele>574.0</ele><time>2026-04-18T10:03:48.77Z</time></trkpt><trkpt lat="42.8056917" lon="11.4646583"><ele>570.0</ele><time>2026-04-18T10:03:49.765Z</time></trkpt><trkpt lat="42.805695" lon="11.4648733"><ele>566.0</ele><time>2026-04-18T10:03:50.764Z</time></trkpt><trkpt lat="42.8056717" lon="11.4650917"><ele>566.0</ele><time>2026-04-18T10:03:51.765Z</time></trkpt><trkpt lat="42.8056033" lon="11.46532"><ele>566.0</ele><time>2026-04-18T10:03:52.766Z</time></trkpt><trkpt lat="42.805515" lon="11.465545"><ele>566.0</ele><time>2026-04-18T10:03:53.764Z</time></trkpt><trkpt lat="42.8054033" lon="11.465745"><ele>567.3333333333333</ele><time>2026-04-18T10:03:54.766Z</time></trkpt><trkpt lat="42.8052733" lon="11.4659167"><ele>568.6666666666666</ele><time>2026-04-18T10:03:55.767Z</time></trkpt><trkpt lat="42.8051133" lon="11.4660317"><ele>570.0</ele><time>2026-04-18T10:03:56.769Z</time></trkpt><trkpt lat="42.8049383" lon="11.4660917"><ele>570.0</ele><time>2026-04-18T10:03:57.767Z</time></trkpt><trkpt lat="42.8047883" lon="11.4661867"><ele>570.0</ele><time>2026-04-18T10:03:58.768Z</time></trkpt><trkpt lat="42.8046617" lon="11.4663283"><ele>570.0</ele><time>2026-04-18T10:03:59.764Z</time></trkpt><trkpt lat="42.804565" lon="11.4665283"><ele>574.0</ele><time>2026-04-18T10:04:00.769Z</time></trkpt><trkpt lat="42.8044817" lon="11.46676"><ele>578.0</ele><time>2026-04-18T10:04:01.768Z</time></trkpt><trkpt lat="42.804375" lon="11.4669933"><ele>582.0</ele><time>2026-04-18T10:04:02.767Z</time></trkpt><trkpt lat="42.8042333" lon="11.4671583"><ele>583.0</ele><time>2026-04-18T10:04:03.768Z</time></trkpt><trkpt lat="42.8040683" lon="11.4672883"><ele>584.0</ele><time>2026-04-18T10:04:04.757Z</time></trkpt><trkpt lat="42.8038567" lon="11.46738"><ele>585.0</ele><time>2026-04-18T10:04:05.765Z</time></trkpt><trkpt lat="42.80365" lon="11.4674667"><ele>585.0</ele><time>2026-04-18T10:04:06.769Z</time></trkpt><trkpt lat="42.8034517" lon="11.4675833"><ele>585.0</ele><time>2026-04-18T10:04:07.767Z</time></trkpt><trkpt lat="42.8032633" lon="11.4677483"><ele>585.0</ele><time>2026-04-18T10:04:08.765Z</time></trkpt><trkpt lat="42.8030817" lon="11.4679533"><ele>593.5</ele><time>2026-04-18T10:04:09.766Z</time></trkpt><trkpt lat="42.802885" lon="11.4681667"><ele>602.0</ele><time>2026-04-18T10:04:10.767Z</time></trkpt><trkpt lat="42.8026767" lon="11.4683933"><ele>598.5</ele><time>2026-04-18T10:04:11.768Z</time></trkpt><trkpt lat="42.8024583" lon="11.4686267"><ele>595.0</ele><time>2026-04-18T10:04:12.763Z</time></trkpt><trkpt lat="42.802235" lon="11.4688617"><ele>595.0</ele><time>2026-04-18T10:04:13.764Z</time></trkpt><trkpt lat="42.8020233" lon="11.4690983"><ele>595.0</ele><time>2026-04-18T10:04:14.763Z</time></trkpt><trkpt lat="42.8018067" lon="11.469335"><ele>592.5</ele><time>2026-04-18T10:04:15.769Z</time></trkpt><trkpt lat="42.8015983" lon="11.46956"><ele>590.0</ele><time>2026-04-18T10:04:16.767Z</time></trkpt><trkpt lat="42.80141" lon="11.469765"><ele>590.6666666666666</ele><time>2026-04-18T10:04:17.768Z</time></trkpt><trkpt lat="42.80125" lon="11.4699617"><ele>591.3333333333334</ele><time>2026-04-18T10:04:18.766Z</time></trkpt><trkpt lat="42.8011033" lon="11.4701633"><ele>592.0</ele><time>2026-04-18T10:04:19.769Z</time></trkpt><trkpt lat="42.8009633" lon="11.47037"><ele>595.3333333333334</ele><time>2026-04-18T10:04:20.766Z</time></trkpt><trkpt lat="42.80083" lon="11.470595"><ele>598.6666666666666</ele><time>2026-04-18T10:04:21.769Z</time></trkpt><trkpt lat="42.8006933" lon="11.4708467"><ele>602.0</ele><time>2026-04-18T10:04:22.765Z</time></trkpt><trkpt lat="42.8005667" lon="11.4711033"><ele>599.6666666666666</ele><time>2026-04-18T10:04:23.768Z</time></trkpt><trkpt lat="42.80044" lon="11.471345"><ele>597.3333333333334</ele><time>2026-04-18T10:04:24.768Z</time></trkpt><trkpt lat="42.8003083" lon="11.47154"><ele>595.0</ele><time>2026-04-18T10:04:25.767Z</time></trkpt><trkpt lat="42.8001533" lon="11.4716833"><ele>595.0</ele><time>2026-04-18T10:04:26.767Z</time></trkpt><trkpt lat="42.7999733" lon="11.47177"><ele>595.0</ele><time>2026-04-18T10:04:27.765Z</time></trkpt><trkpt lat="42.7997767" lon="11.471815"><ele>595.0</ele><time>2026-04-18T10:04:28.764Z</time></trkpt><trkpt lat="42.799575" lon="11.4718367"><ele>595.0</ele><time>2026-04-18T10:04:29.767Z</time></trkpt><trkpt lat="42.7993817" lon="11.471865"><ele>595.0</ele><time>2026-04-18T10:04:30.772Z</time></trkpt><trkpt lat="42.79921" lon="11.4719483"><ele>595.0</ele><time>2026-04-18T10:04:31.769Z</time></trkpt><trkpt lat="42.79904" lon="11.47207"><ele>597.6666666666667</ele><time>2026-04-18T10:04:32.767Z</time></trkpt><trkpt lat="42.7988767" lon="11.4722333"><ele>600.3333333333334</ele><time>2026-04-18T10:04:33.766Z</time></trkpt><trkpt lat="42.7987267" lon="11.4724283"><ele>603.0</ele><time>2026-04-18T10:04:34.769Z</time></trkpt><trkpt lat="42.7985917" lon="11.4726283"><ele>601.3333333333334</ele><time>2026-04-18T10:04:35.765Z</time></trkpt><trkpt lat="42.7984517" lon="11.4728133"><ele>599.6666666666667</ele><time>2026-04-18T10:04:36.765Z</time></trkpt><trkpt lat="42.7983033" lon="11.4729783"><ele>598.0</ele><time>2026-04-18T10:04:37.765Z</time></trkpt><trkpt lat="42.798145" lon="11.4730967"><ele>598.0</ele><time>2026-04-18T10:04:38.767Z</time></trkpt><trkpt lat="42.79797" lon="11.473175"><ele>598.0</ele><time>2026-04-18T10:04:39.769Z</time></trkpt><trkpt lat="42.7977867" lon="11.47321"><ele>598.0</ele><time>2026-04-18T10:04:40.769Z</time></trkpt><trkpt lat="42.797605" lon="11.4732283"><ele>597.6666666666667</ele><time>2026-04-18T10:04:41.764Z</time></trkpt><trkpt lat="42.797435" lon="11.4732417"><ele>597.3333333333334</ele><time>2026-04-18T10:04:42.769Z</time></trkpt><trkpt lat="42.79728" lon="11.47325"><ele>597.0</ele><time>2026-04-18T10:04:43.763Z</time></trkpt><trkpt lat="42.7971483" lon="11.473245"><ele>597.0</ele><time>2026-04-18T10:04:44.768Z</time></trkpt><trkpt lat="42.79703" lon="11.4732117"><ele>597.0</ele><time>2026-04-18T10:04:45.767Z</time></trkpt><trkpt lat="42.796915" lon="11.473145"><ele>597.0</ele><time>2026-04-18T10:04:46.764Z</time></trkpt><trkpt lat="42.7968017" lon="11.4730483"><ele>597.0</ele><time>2026-04-18T10:04:47.769Z</time></trkpt><trkpt lat="42.7966883" lon="11.4729117"><ele>593.3333333333334</ele><time>2026-04-18T10:04:48.768Z</time></trkpt><trkpt lat="42.79657" lon="11.4727433"><ele>589.6666666666667</ele><time>2026-04-18T10:04:49.768Z</time></trkpt><trkpt lat="42.7964517" lon="11.4725633"><ele>586.0</ele><time>2026-04-18T10:04:50.766Z</time></trkpt><trkpt lat="42.7963317" lon="11.4723733"><ele>586.0</ele><time>2026-04-18T10:04:51.768Z</time></trkpt><trkpt lat="42.7962083" lon="11.4721783"><ele>586.0</ele><time>2026-04-18T10:04:52.764Z</time></trkpt><trkpt lat="42.7960833" lon="11.471985"><ele>586.0</ele><time>2026-04-18T10:04:53.766Z</time></trkpt><trkpt lat="42.7959567" lon="11.471795"><ele>583.6666666666667</ele><time>2026-04-18T10:04:54.768Z</time></trkpt><trkpt lat="42.7958333" lon="11.4716133"><ele>581.3333333333334</ele><time>2026-04-18T10:04:55.767Z</time></trkpt><trkpt lat="42.7957083" lon="11.4714317"><ele>579.0</ele><time>2026-04-18T10:04:56.764Z</time></trkpt><trkpt lat="42.7955867" lon="11.4712583"><ele>575.0</ele><time>2026-04-18T10:04:57.766Z</time></trkpt><trkpt lat="42.795465" lon="11.4710833"><ele>571.0</ele><time>2026-04-18T10:04:58.765Z</time></trkpt><trkpt lat="42.7953433" lon="11.4709083"><ele>567.0</ele><time>2026-04-18T10:04:59.767Z</time></trkpt><trkpt lat="42.7952267" lon="11.47073"><ele>566.3333333333334</ele><time>2026-04-18T10:05:00.764Z</time></trkpt><trkpt lat="42.7951083" lon="11.470555"><ele>565.6666666666667</ele><time>2026-04-18T10:05:01.764Z</time></trkpt><trkpt lat="42.7949933" lon="11.4703817"><ele>565.0</ele><time>2026-04-18T10:05:02.77Z</time></trkpt><trkpt lat="42.794885" lon="11.4702133"><ele>565.0</ele><time>2026-04-18T10:05:03.763Z</time></trkpt><trkpt lat="42.7947767" lon="11.470065"><ele>565.0</ele><time>2026-04-18T10:05:04.764Z</time></trkpt><trkpt lat="42.7946683" lon="11.469935"><ele>565.0</ele><time>2026-04-18T10:05:05.766Z</time></trkpt><trkpt lat="42.7945567" lon="11.4698417"><ele>565.0</ele><time>2026-04-18T10:05:06.771Z</time></trkpt><trkpt lat="42.7944317" lon="11.4697833"><ele>567.25</ele><time>2026-04-18T10:05:07.768Z</time></trkpt><trkpt lat="42.7943" lon="11.4697617"><ele>569.5</ele><time>2026-04-18T10:05:08.77Z</time></trkpt><trkpt lat="42.79418" lon="11.4697667"><ele>571.75</ele><time>2026-04-18T10:05:09.77Z</time></trkpt><trkpt lat="42.7940683" lon="11.46977"><ele>574.0</ele><time>2026-04-18T10:05:10.763Z</time></trkpt><trkpt lat="42.7939633" lon="11.4697483"><ele>574.0</ele><time>2026-04-18T10:05:11.77Z</time></trkpt><trkpt lat="42.7938633" lon="11.4697067"><ele>574.0</ele><time>2026-04-18T10:05:12.764Z</time></trkpt><trkpt lat="42.793765" lon="11.4696567"><ele>574.0</ele><time>2026-04-18T10:05:13.765Z</time></trkpt><trkpt lat="42.793675" lon="11.46958"><ele>574.0</ele><time>2026-04-18T10:05:14.764Z</time></trkpt><trkpt lat="42.793585" lon="11.4694833"><ele>574.0</ele><time>2026-04-18T10:05:15.765Z</time></trkpt><trkpt lat="42.793505" lon="11.4693717"><ele>572.0</ele><time>2026-04-18T10:05:16.764Z</time></trkpt><trkpt lat="42.7934267" lon="11.469275"><ele>570.0</ele><time>2026-04-18T10:05:17.765Z</time></trkpt><trkpt lat="42.7933533" lon="11.4691867"><ele>568.0</ele><time>2026-04-18T10:05:18.771Z</time></trkpt><trkpt lat="42.793275" lon="11.4691267"><ele>566.0</ele><time>2026-04-18T10:05:19.764Z</time></trkpt><trkpt lat="42.7931983" lon="11.469115"><ele>564.0</ele><time>2026-04-18T10:05:20.764Z</time></trkpt><trkpt lat="42.7931233" lon="11.4691367"><ele>562.0</ele><time>2026-04-18T10:05:21.764Z</time></trkpt><trkpt lat="42.7930517" lon="11.4691983"><ele>562.0</ele><time>2026-04-18T10:05:22.765Z</time></trkpt><trkpt lat="42.7929717" lon="11.4692567"><ele>562.0</ele><time>2026-04-18T10:05:23.765Z</time></trkpt><trkpt lat="42.7928933" lon="11.4693067"><ele>562.0</ele><time>2026-04-18T10:05:24.769Z</time></trkpt><trkpt lat="42.79282" lon="11.469355"><ele>562.0</ele><time>2026-04-18T10:05:25.764Z</time></trkpt><trkpt lat="42.7927483" lon="11.4694033"><ele>562.0</ele><time>2026-04-18T10:05:26.763Z</time></trkpt><trkpt lat="42.7926567" lon="11.4694133"><ele>562.0</ele><time>2026-04-18T10:05:27.767Z</time></trkpt><trkpt lat="42.79257" lon="11.4694083"><ele>563.4</ele><time>2026-04-18T10:05:28.763Z</time></trkpt><trkpt lat="42.7925017" lon="11.4694117"><ele>564.8000000000001</ele><time>2026-04-18T10:05:29.765Z</time></trkpt><trkpt lat="42.79242" lon="11.4695033"><ele>566.2</ele><time>2026-04-18T10:05:31.764Z</time></trkpt><trkpt lat="42.7923383" lon="11.4695717"><ele>567.6</ele><time>2026-04-18T10:05:33.767Z</time></trkpt><trkpt lat="42.7922517" lon="11.4696417"><ele>569.0</ele><time>2026-04-18T10:05:35.764Z</time></trkpt><trkpt lat="42.7921867" lon="11.4697083"><ele>569.8333333333333</ele><time>2026-04-18T10:05:37.768Z</time></trkpt><trkpt lat="42.7921667" lon="11.469795"><ele>570.6666666666666</ele><time>2026-04-18T10:05:39.77Z</time></trkpt><trkpt lat="42.7921883" lon="11.4698817"><ele>571.5</ele><time>2026-04-18T10:05:41.764Z</time></trkpt><trkpt lat="42.7922233" lon="11.4699817"><ele>572.3333333333334</ele><time>2026-04-18T10:05:43.765Z</time></trkpt><trkpt lat="42.7922617" lon="11.4701183"><ele>573.1666666666667</ele><time>2026-04-18T10:05:45.768Z</time></trkpt><trkpt lat="42.7923133" lon="11.470265"><ele>574.0</ele><time>2026-04-18T10:05:47.766Z</time></trkpt><trkpt lat="42.7923567" lon="11.4704183"><ele>572.8333333333334</ele><time>2026-04-18T10:05:49.768Z</time></trkpt><trkpt lat="42.7923867" lon="11.4705117"><ele>571.6666666666667</ele><time>2026-04-18T10:05:50.764Z</time></trkpt><trkpt lat="42.7924267" lon="11.4706083"><ele>570.5</ele><time>2026-04-18T10:05:51.768Z</time></trkpt><trkpt lat="42.7924683" lon="11.4707"><ele>569.3333333333334</ele><time>2026-04-18T10:05:52.77Z</time></trkpt><trkpt lat="42.7925133" lon="11.470795"><ele>568.1666666666666</ele><time>2026-04-18T10:05:53.764Z</time></trkpt><trkpt lat="42.7925667" lon="11.47089"><ele>567.0</ele><time>2026-04-18T10:05:54.765Z</time></trkpt><trkpt lat="42.7926167" lon="11.4709867"><ele>570.3333333333334</ele><time>2026-04-18T10:05:55.77Z</time></trkpt><trkpt lat="42.7926733" lon="11.4710817"><ele>573.6666666666666</ele><time>2026-04-18T10:05:56.766Z</time></trkpt><trkpt lat="42.7927283" lon="11.4711783"><ele>577.0</ele><time>2026-04-18T10:05:57.769Z</time></trkpt><trkpt lat="42.7927833" lon="11.47127"><ele>580.3333333333333</ele><time>2026-04-18T10:05:58.769Z</time></trkpt><trkpt lat="42.7928417" lon="11.47136"><ele>583.6666666666666</ele><time>2026-04-18T10:05:59.765Z</time></trkpt><trkpt lat="42.792895" lon="11.4714483"><ele>587.0</ele><time>2026-04-18T10:06:00.769Z</time></trkpt><trkpt lat="42.7929417" lon="11.4715417"><ele>587.0</ele><time>2026-04-18T10:06:01.767Z</time></trkpt><trkpt lat="42.7929833" lon="11.4716317"><ele>587.0</ele><time>2026-04-18T10:06:02.764Z</time></trkpt><trkpt lat="42.793005" lon="11.4717267"><ele>587.0</ele><time>2026-04-18T10:06:03.767Z</time></trkpt><trkpt lat="42.7930117" lon="11.4718283"><ele>587.0</ele><time>2026-04-18T10:06:04.764Z</time></trkpt><trkpt lat="42.7930083" lon="11.471935"><ele>587.0</ele><time>2026-04-18T10:06:05.77Z</time></trkpt><trkpt lat="42.7930067" lon="11.4720467"><ele>587.0</ele><time>2026-04-18T10:06:06.77Z</time></trkpt><trkpt lat="42.793" lon="11.472155"><ele>587.1666666666666</ele><time>2026-04-18T10:06:07.765Z</time></trkpt><trkpt lat="42.7929933" lon="11.4722667"><ele>587.3333333333333</ele><time>2026-04-18T10:06:08.768Z</time></trkpt><trkpt lat="42.792985" lon="11.472375"><ele>587.5</ele><time>2026-04-18T10:06:09.769Z</time></trkpt><trkpt lat="42.7929767" lon="11.4724817"><ele>587.6666666666666</ele><time>2026-04-18T10:06:10.769Z</time></trkpt><trkpt lat="42.792965" lon="11.4725933"><ele>587.8333333333334</ele><time>2026-04-18T10:06:11.768Z</time></trkpt><trkpt lat="42.7929583" lon="11.4727033"><ele>588.0</ele><time>2026-04-18T10:06:12.766Z</time></trkpt><trkpt lat="42.792955" lon="11.4728133"><ele>588.0</ele><time>2026-04-18T10:06:13.768Z</time></trkpt><trkpt lat="42.7929633" lon="11.4729283"><ele>588.0</ele><time>2026-04-18T10:06:14.768Z</time></trkpt><trkpt lat="42.79298" lon="11.47304"><ele>588.0</ele><time>2026-04-18T10:06:15.764Z</time></trkpt><trkpt lat="42.793" lon="11.4731483"><ele>588.0</ele><time>2026-04-18T10:06:16.768Z</time></trkpt><trkpt lat="42.79303" lon="11.4732533"><ele>588.0</ele><time>2026-04-18T10:06:17.765Z</time></trkpt><trkpt lat="42.7930583" lon="11.4733583"><ele>588.0</ele><time>2026-04-18T10:06:18.772Z</time></trkpt><trkpt lat="42.793085" lon="11.4734717"><ele>588.0</ele><time>2026-04-18T10:06:19.768Z</time></trkpt><trkpt lat="42.7931067" lon="11.4735933"><ele>588.0</ele><time>2026-04-18T10:06:20.762Z</time></trkpt><trkpt lat="42.793125" lon="11.4737183"><ele>588.0</ele><time>2026-04-18T10:06:21.765Z</time></trkpt><trkpt lat="42.7931333" lon="11.4738517"><ele>588.0</ele><time>2026-04-18T10:06:22.767Z</time></trkpt><trkpt lat="42.793125" lon="11.4739883"><ele>588.0</ele><time>2026-04-18T10:06:23.767Z</time></trkpt><trkpt lat="42.7931017" lon="11.4741217"><ele>588.4</ele><time>2026-04-18T10:06:24.768Z</time></trkpt><trkpt lat="42.7930733" lon="11.474255"><ele>588.8</ele><time>2026-04-18T10:06:25.77Z</time></trkpt><trkpt lat="42.7930417" lon="11.4743783"><ele>589.2</ele><time>2026-04-18T10:06:26.764Z</time></trkpt><trkpt lat="42.79301" lon="11.4745033"><ele>589.6</ele><time>2026-04-18T10:06:27.768Z</time></trkpt><trkpt lat="42.7929717" lon="11.4746183"><ele>590.0</ele><time>2026-04-18T10:06:28.764Z</time></trkpt><trkpt lat="42.7929233" lon="11.4747183"><ele>591.0</ele><time>2026-04-18T10:06:29.767Z</time></trkpt><trkpt lat="42.79287" lon="11.474805"><ele>592.0</ele><time>2026-04-18T10:06:30.77Z</time></trkpt><trkpt lat="42.7928233" lon="11.47488"><ele>593.0</ele><time>2026-04-18T10:06:31.768Z</time></trkpt><trkpt lat="42.792785" lon="11.47496"><ele>594.0</ele><time>2026-04-18T10:06:32.766Z</time></trkpt><trkpt lat="42.792755" lon="11.4750517"><ele>595.0</ele><time>2026-04-18T10:06:33.765Z</time></trkpt><trkpt lat="42.7927533" lon="11.4751533"><ele>596.0</ele><time>2026-04-18T10:06:34.764Z</time></trkpt><trkpt lat="42.79277" lon="11.4752667"><ele>596.0</ele><time>2026-04-18T10:06:35.768Z</time></trkpt><trkpt lat="42.7927967" lon="11.4753817"><ele>596.0</ele><time>2026-04-18T10:06:36.765Z</time></trkpt><trkpt lat="42.79283" lon="11.4754933"><ele>596.0</ele><time>2026-04-18T10:06:37.766Z</time></trkpt><trkpt lat="42.7928617" lon="11.4756117"><ele>596.0</ele><time>2026-04-18T10:06:38.771Z</time></trkpt><trkpt lat="42.7928917" lon="11.4757367"><ele>596.0</ele><time>2026-04-18T10:06:39.77Z</time></trkpt><trkpt lat="42.79292" lon="11.4758633"><ele>595.8</ele><time>2026-04-18T10:06:40.77Z</time></trkpt><trkpt lat="42.792945" lon="11.4759883"><ele>595.6</ele><time>2026-04-18T10:06:41.762Z</time></trkpt><trkpt lat="42.792965" lon="11.4761133"><ele>595.4</ele><time>2026-04-18T10:06:42.765Z</time></trkpt><trkpt lat="42.7929867" lon="11.4762367"><ele>595.2</ele><time>2026-04-18T10:06:43.764Z</time></trkpt><trkpt lat="42.7930133" lon="11.47636"><ele>595.0</ele><time>2026-04-18T10:06:44.764Z</time></trkpt><trkpt lat="42.7930467" lon="11.4764783"><ele>594.8</ele><time>2026-04-18T10:06:45.769Z</time></trkpt><trkpt lat="42.79309" lon="11.4766017"><ele>594.6</ele><time>2026-04-18T10:06:46.764Z</time></trkpt><trkpt lat="42.7931367" lon="11.4767333"><ele>594.4</ele><time>2026-04-18T10:06:47.769Z</time></trkpt><trkpt lat="42.7931867" lon="11.4768633"><ele>594.2</ele><time>2026-04-18T10:06:48.771Z</time></trkpt><trkpt lat="42.7932433" lon="11.4769883"><ele>594.0</ele><time>2026-04-18T10:06:49.769Z</time></trkpt><trkpt lat="42.793295" lon="11.477115"><ele>593.8</ele><time>2026-04-18T10:06:50.76Z</time></trkpt><trkpt lat="42.79334" lon="11.4772417"><ele>593.5999999999999</ele><time>2026-04-18T10:06:51.771Z</time></trkpt><trkpt lat="42.7933833" lon="11.4773767"><ele>593.4</ele><time>2026-04-18T10:06:52.771Z</time></trkpt><trkpt lat="42.7934267" lon="11.47751"><ele>593.1999999999999</ele><time>2026-04-18T10:06:53.764Z</time></trkpt><trkpt lat="42.7934517" lon="11.47764"><ele>593.0</ele><time>2026-04-18T10:06:54.77Z</time></trkpt><trkpt lat="42.7934533" lon="11.4777733"><ele>593.0</ele><time>2026-04-18T10:06:55.768Z</time></trkpt><trkpt lat="42.7934417" lon="11.477905"><ele>593.0</ele><time>2026-04-18T10:06:56.768Z</time></trkpt><trkpt lat="42.7934217" lon="11.4780383"><ele>593.0</ele><time>2026-04-18T10:06:57.769Z</time></trkpt><trkpt lat="42.7934" lon="11.47817"><ele>593.0</ele><time>2026-04-18T10:06:58.77Z</time></trkpt><trkpt lat="42.7933767" lon="11.4783033"><ele>593.0</ele><time>2026-04-18T10:06:59.771Z</time></trkpt><trkpt lat="42.7933767" lon="11.4784417"><ele>593.6</ele><time>2026-04-18T10:07:00.771Z</time></trkpt><trkpt lat="42.793395" lon="11.4785783"><ele>594.1999999999999</ele><time>2026-04-18T10:07:01.768Z</time></trkpt><trkpt lat="42.7934133" lon="11.4787267"><ele>594.8</ele><time>2026-04-18T10:07:02.767Z</time></trkpt><trkpt lat="42.79342" lon="11.478875"><ele>595.4</ele><time>2026-04-18T10:07:03.77Z</time></trkpt><trkpt lat="42.79342" lon="11.4790183"><ele>596.0</ele><time>2026-04-18T10:07:04.77Z</time></trkpt><trkpt lat="42.79343" lon="11.4791483"><ele>597.2</ele><time>2026-04-18T10:07:05.768Z</time></trkpt><trkpt lat="42.7934517" lon="11.4792767"><ele>598.4000000000001</ele><time>2026-04-18T10:07:06.767Z</time></trkpt><trkpt lat="42.7934933" lon="11.4794017"><ele>599.6</ele><time>2026-04-18T10:07:07.771Z</time></trkpt><trkpt lat="42.793555" lon="11.479505"><ele>600.8000000000001</ele><time>2026-04-18T10:07:08.768Z</time></trkpt><trkpt lat="42.79362" lon="11.47959"><ele>602.0</ele><time>2026-04-18T10:07:09.771Z</time></trkpt><trkpt lat="42.793675" lon="11.47966"><ele>604.5</ele><time>2026-04-18T10:07:10.767Z</time></trkpt><trkpt lat="42.7937217" lon="11.479725"><ele>607.0</ele><time>2026-04-18T10:07:11.772Z</time></trkpt><trkpt lat="42.793755" lon="11.4797983"><ele>609.5</ele><time>2026-04-18T10:07:12.771Z</time></trkpt><trkpt lat="42.793765" lon="11.47989"><ele>612.0</ele><time>2026-04-18T10:07:13.77Z</time></trkpt><trkpt lat="42.79376" lon="11.4799983"><ele>614.5</ele><time>2026-04-18T10:07:14.768Z</time></trkpt><trkpt lat="42.7937417" lon="11.480125"><ele>617.0</ele><time>2026-04-18T10:07:15.772Z</time></trkpt><trkpt lat="42.7937117" lon="11.4802783"><ele>618.75</ele><time>2026-04-18T10:07:16.769Z</time></trkpt><trkpt lat="42.79368" lon="11.4804417"><ele>620.5</ele><time>2026-04-18T10:07:17.769Z</time></trkpt><trkpt lat="42.7936483" lon="11.4806083"><ele>622.25</ele><time>2026-04-18T10:07:18.773Z</time></trkpt><trkpt lat="42.7936133" lon="11.480775"><ele>624.0</ele><time>2026-04-18T10:07:19.77Z</time></trkpt><trkpt lat="42.7935733" lon="11.4809483"><ele>624.0</ele><time>2026-04-18T10:07:20.765Z</time></trkpt><trkpt lat="42.7935367" lon="11.4811233"><ele>624.0</ele><time>2026-04-18T10:07:21.772Z</time></trkpt><trkpt lat="42.7934983" lon="11.4813"><ele>624.0</ele><time>2026-04-18T10:07:22.77Z</time></trkpt><trkpt lat="42.7934633" lon="11.4814783"><ele>624.0</ele><time>2026-04-18T10:07:23.77Z</time></trkpt><trkpt lat="42.7934267" lon="11.48166"><ele>624.5</ele><time>2026-04-18T10:07:24.77Z</time></trkpt><trkpt lat="42.7933867" lon="11.4818417"><ele>625.0</ele><time>2026-04-18T10:07:25.77Z</time></trkpt><trkpt lat="42.79335" lon="11.4820233"><ele>625.5</ele><time>2026-04-18T10:07:26.767Z</time></trkpt><trkpt lat="42.7933183" lon="11.4822133"><ele>626.0</ele><time>2026-04-18T10:07:27.769Z</time></trkpt><trkpt lat="42.793285" lon="11.4824033"><ele>627.0</ele><time>2026-04-18T10:07:28.77Z</time></trkpt><trkpt lat="42.7932517" lon="11.4825967"><ele>628.0</ele><time>2026-04-18T10:07:29.77Z</time></trkpt><trkpt lat="42.7932167" lon="11.482785"><ele>629.0</ele><time>2026-04-18T10:07:30.77Z</time></trkpt><trkpt lat="42.7931867" lon="11.4829783"><ele>630.0</ele><time>2026-04-18T10:07:31.77Z</time></trkpt><trkpt lat="42.7931533" lon="11.4831767"><ele>631.5</ele><time>2026-04-18T10:07:32.771Z</time></trkpt><trkpt lat="42.7931167" lon="11.4833717"><ele>633.0</ele><time>2026-04-18T10:07:33.77Z</time></trkpt><trkpt lat="42.7930783" lon="11.4835667"><ele>634.5</ele><time>2026-04-18T10:07:34.772Z</time></trkpt><trkpt lat="42.7930383" lon="11.4837633"><ele>636.0</ele><time>2026-04-18T10:07:35.768Z</time></trkpt><trkpt lat="42.792995" lon="11.4839617"><ele>639.0</ele><time>2026-04-18T10:07:36.764Z</time></trkpt><trkpt lat="42.7929467" lon="11.4841583"><ele>642.0</ele><time>2026-04-18T10:07:37.765Z</time></trkpt><trkpt lat="42.7928867" lon="11.4843483"><ele>645.0</ele><time>2026-04-18T10:07:38.764Z</time></trkpt><trkpt lat="42.7928067" lon="11.484525"><ele>643.6666666666666</ele><time>2026-04-18T10:07:39.768Z</time></trkpt><trkpt lat="42.792715" lon="11.484685"><ele>642.3333333333333</ele><time>2026-04-18T10:07:40.77Z</time></trkpt><trkpt lat="42.792615" lon="11.4848417"><ele>641.0</ele><time>2026-04-18T10:07:41.77Z</time></trkpt><trkpt lat="42.7925017" lon="11.4849933"><ele>641.0</ele><time>2026-04-18T10:07:42.77Z</time></trkpt><trkpt lat="42.79239" lon="11.4851517"><ele>641.0</ele><time>2026-04-18T10:07:43.77Z</time></trkpt><trkpt lat="42.7922783" lon="11.48531"><ele>641.0</ele><time>2026-04-18T10:07:44.77Z</time></trkpt><trkpt lat="42.7921583" lon="11.485485"><ele>642.3333333333333</ele><time>2026-04-18T10:07:45.771Z</time></trkpt><trkpt lat="42.792035" lon="11.485665"><ele>643.6666666666666</ele><time>2026-04-18T10:07:46.77Z</time></trkpt><trkpt lat="42.791915" lon="11.4858517"><ele>645.0</ele><time>2026-04-18T10:07:47.77Z</time></trkpt><trkpt lat="42.791785" lon="11.48604"><ele>645.0</ele><time>2026-04-18T10:07:48.769Z</time></trkpt><trkpt lat="42.7916517" lon="11.4862317"><ele>645.0</ele><time>2026-04-18T10:07:49.77Z</time></trkpt><trkpt lat="42.7915167" lon="11.4864283"><ele>645.0</ele><time>2026-04-18T10:07:50.77Z</time></trkpt><trkpt lat="42.7913817" lon="11.486625"><ele>648.3333333333334</ele><time>2026-04-18T10:07:51.77Z</time></trkpt><trkpt lat="42.7912517" lon="11.4868133"><ele>651.6666666666667</ele><time>2026-04-18T10:07:52.771Z</time></trkpt><trkpt lat="42.791125" lon="11.4869933"><ele>655.0</ele><time>2026-04-18T10:07:53.77Z</time></trkpt><trkpt lat="42.7909983" lon="11.487155"><ele>656.0</ele><time>2026-04-18T10:07:54.768Z</time></trkpt><trkpt lat="42.7908717" lon="11.487295"><ele>657.0</ele><time>2026-04-18T10:07:55.77Z</time></trkpt><trkpt lat="42.7907317" lon="11.4874067"><ele>658.0</ele><time>2026-04-18T10:07:56.77Z</time></trkpt><trkpt lat="42.7905817" lon="11.48749"><ele>658.0</ele><time>2026-04-18T10:07:57.768Z</time></trkpt><trkpt lat="42.79043" lon="11.487535"><ele>658.0</ele><time>2026-04-18T10:07:58.77Z</time></trkpt><trkpt lat="42.7902667" lon="11.487545"><ele>658.0</ele><time>2026-04-18T10:07:59.762Z</time></trkpt><trkpt lat="42.7901017" lon="11.4875133"><ele>658.0</ele><time>2026-04-18T10:08:00.758Z</time></trkpt><trkpt lat="42.7899383" lon="11.4874417"><ele>658.0</ele><time>2026-04-18T10:08:01.766Z</time></trkpt><trkpt lat="42.789775" lon="11.4873317"><ele>658.0</ele><time>2026-04-18T10:08:02.767Z</time></trkpt><trkpt lat="42.7896217" lon="11.4871967"><ele>655.6666666666667</ele><time>2026-04-18T10:08:03.764Z</time></trkpt><trkpt lat="42.789485" lon="11.4870367"><ele>653.3333333333334</ele><time>2026-04-18T10:08:04.764Z</time></trkpt><trkpt lat="42.7893667" lon="11.4868417"><ele>651.0</ele><time>2026-04-18T10:08:05.766Z</time></trkpt><trkpt lat="42.7892583" lon="11.4866467"><ele>656.0</ele><time>2026-04-18T10:08:06.771Z</time></trkpt><trkpt lat="42.789135" lon="11.486475"><ele>661.0</ele><time>2026-04-18T10:08:07.765Z</time></trkpt><trkpt lat="42.7889917" lon="11.4863333"><ele>666.0</ele><time>2026-04-18T10:08:08.764Z</time></trkpt><trkpt lat="42.7888217" lon="11.4862667"><ele>662.6666666666666</ele><time>2026-04-18T10:08:09.769Z</time></trkpt><trkpt lat="42.7886333" lon="11.4862317"><ele>659.3333333333333</ele><time>2026-04-18T10:08:10.764Z</time></trkpt><trkpt lat="42.7884383" lon="11.486205"><ele>656.0</ele><time>2026-04-18T10:08:11.767Z</time></trkpt><trkpt lat="42.7882517" lon="11.48618"><ele>656.0</ele><time>2026-04-18T10:08:12.769Z</time></trkpt><trkpt lat="42.7880683" lon="11.4861433"><ele>656.0</ele><time>2026-04-18T10:08:13.767Z</time></trkpt><trkpt lat="42.7879" lon="11.4860983"><ele>656.0</ele><time>2026-04-18T10:08:14.765Z</time></trkpt><trkpt lat="42.78774" lon="11.4860333"><ele>658.0</ele><time>2026-04-18T10:08:15.768Z</time></trkpt><trkpt lat="42.7876033" lon="11.485955"><ele>660.0</ele><time>2026-04-18T10:08:16.764Z</time></trkpt><trkpt lat="42.7874683" lon="11.4858833"><ele>662.0</ele><time>2026-04-18T10:08:17.766Z</time></trkpt><trkpt lat="42.787335" lon="11.4858367"><ele>664.0</ele><time>2026-04-18T10:08:18.769Z</time></trkpt><trkpt lat="42.7872017" lon="11.4858283"><ele>664.0</ele><time>2026-04-18T10:08:19.764Z</time></trkpt><trkpt lat="42.7870783" lon="11.4858633"><ele>664.0</ele><time>2026-04-18T10:08:20.765Z</time></trkpt><trkpt lat="42.78696" lon="11.4859567"><ele>664.0</ele><time>2026-04-18T10:08:21.765Z</time></trkpt><trkpt lat="42.786855" lon="11.4861017"><ele>664.0</ele><time>2026-04-18T10:08:22.772Z</time></trkpt><trkpt lat="42.786765" lon="11.48627"><ele>667.0</ele><time>2026-04-18T10:08:23.769Z</time></trkpt><trkpt lat="42.786675" lon="11.486425"><ele>670.0</ele><time>2026-04-18T10:08:24.764Z</time></trkpt><trkpt lat="42.7865767" lon="11.4865517"><ele>673.0</ele><time>2026-04-18T10:08:25.767Z</time></trkpt><trkpt lat="42.7864617" lon="11.4866433"><ele>676.0</ele><time>2026-04-18T10:08:26.764Z</time></trkpt><trkpt lat="42.786345" lon="11.486705"><ele>676.0</ele><time>2026-04-18T10:08:27.771Z</time></trkpt><trkpt lat="42.7862183" lon="11.4867467"><ele>676.0</ele><time>2026-04-18T10:08:28.767Z</time></trkpt><trkpt lat="42.7860933" lon="11.48675"><ele>676.0</ele><time>2026-04-18T10:08:29.769Z</time></trkpt><trkpt lat="42.7859833" lon="11.4866267"><ele>676.0</ele><time>2026-04-18T10:08:30.773Z</time></trkpt><trkpt lat="42.7858833" lon="11.48642"><ele>675.0</ele><time>2026-04-18T10:08:31.771Z</time></trkpt><trkpt lat="42.7857567" lon="11.4862083"><ele>674.0</ele><time>2026-04-18T10:08:32.768Z</time></trkpt><trkpt lat="42.78565" lon="11.4860283"><ele>673.0</ele><time>2026-04-18T10:08:33.77Z</time></trkpt><trkpt lat="42.7855517" lon="11.48583"><ele>673.0</ele><time>2026-04-18T10:08:34.764Z</time></trkpt><trkpt lat="42.78546" lon="11.4856517"><ele>673.0</ele><time>2026-04-18T10:08:35.77Z</time></trkpt><trkpt lat="42.7854183" lon="11.48527"><ele>673.0</ele><time>2026-04-18T10:08:36.77Z</time></trkpt><trkpt lat="42.7853933" lon="11.4850133"><ele>669.3333333333334</ele><time>2026-04-18T10:08:37.768Z</time></trkpt><trkpt lat="42.7853733" lon="11.4847767"><ele>665.6666666666666</ele><time>2026-04-18T10:08:38.764Z</time></trkpt><trkpt lat="42.7853317" lon="11.4845833"><ele>662.0</ele><time>2026-04-18T10:08:39.771Z</time></trkpt><trkpt lat="42.785255" lon="11.4844167"><ele>664.25</ele><time>2026-04-18T10:08:40.768Z</time></trkpt><trkpt lat="42.7851367" lon="11.4843233"><ele>666.5</ele><time>2026-04-18T10:08:41.769Z</time></trkpt><trkpt lat="42.7849983" lon="11.4842817"><ele>668.75</ele><time>2026-04-18T10:08:42.768Z</time></trkpt><trkpt lat="42.7848733" lon="11.4842433"><ele>671.0</ele><time>2026-04-18T10:08:43.769Z</time></trkpt><trkpt lat="42.784765" lon="11.4842083"><ele>671.0</ele><time>2026-04-18T10:08:44.77Z</time></trkpt><trkpt lat="42.7846733" lon="11.48418"><ele>671.0</ele><time>2026-04-18T10:08:45.769Z</time></trkpt><trkpt lat="42.78459" lon="11.4841667"><ele>671.0</ele><time>2026-04-18T10:08:46.766Z</time></trkpt><trkpt lat="42.78452" lon="11.4841433"><ele>671.0</ele><time>2026-04-18T10:08:47.766Z</time></trkpt><trkpt lat="42.7844233" lon="11.4841017"><ele>671.0</ele><time>2026-04-18T10:08:49.77Z</time></trkpt><trkpt lat="42.7843683" lon="11.4840533"><ele>671.0</ele><time>2026-04-18T10:08:51.772Z</time></trkpt><trkpt lat="42.7843183" lon="11.4839883"><ele>671.0</ele><time>2026-04-18T10:08:53.769Z</time></trkpt><trkpt lat="42.784295" lon="11.4839033"><ele>671.0</ele><time>2026-04-18T10:08:56.765Z</time></trkpt><trkpt lat="42.7842567" lon="11.4838267"><ele>671.0</ele><time>2026-04-18T10:09:00.767Z</time></trkpt><trkpt lat="42.7843083" lon="11.483885"><ele>671.0</ele><time>2026-04-18T10:10:50.768Z</time></trkpt><trkpt lat="42.7844067" lon="11.4839717"><ele>671.0</ele><time>2026-04-18T10:11:06.759Z</time></trkpt><trkpt lat="42.7842998" lon="11.4838826"><ele>671.0</ele><time>2026-04-18T10:11:09.863Z</time></trkpt><trkpt lat="42.7843723" lon="11.4839046"><ele>671.0</ele><time>2026-04-18T10:11:22.804Z</time></trkpt><trkpt lat="42.7843541" lon="11.4838021"><ele>671.0</ele><time>2026-04-18T10:11:33.816Z</time></trkpt><trkpt lat="42.7843194" lon="11.4837239"><ele>670.0</ele><time>2026-04-18T10:11:41.77Z</time></trkpt></trkseg><trkseg><trkpt lat="42.7840816" lon="11.4837704"><ele>672.4</ele><time>2026-04-18T10:49:44.771Z</time></trkpt><trkpt lat="42.7840108" lon="11.4837381"><ele>671.8</ele><time>2026-04-18T10:49:45.768Z</time></trkpt><trkpt lat="42.7839166" lon="11.483717"><ele>671.2</ele><time>2026-04-18T10:49:46.766Z</time></trkpt><trkpt lat="42.7838176" lon="11.4837027"><ele>670.6</ele><time>2026-04-18T10:49:47.766Z</time></trkpt><trkpt lat="42.7837219" lon="11.483693"><ele>670.0</ele><time>2026-04-18T10:49:48.76Z</time></trkpt><trkpt lat="42.783629" lon="11.4836872"><ele>670.0</ele><time>2026-04-18T10:49:49.759Z</time></trkpt><trkpt lat="42.7835359" lon="11.4836815"><ele>670.0</ele><time>2026-04-18T10:49:50.773Z</time></trkpt><trkpt lat="42.7834489" lon="11.4836771"><ele>670.0</ele><time>2026-04-18T10:49:51.77Z</time></trkpt><trkpt lat="42.7833515" lon="11.4836581"><ele>670.0</ele><time>2026-04-18T10:49:52.77Z</time></trkpt><trkpt lat="42.7832442" lon="11.4836258"><ele>670.0</ele><time>2026-04-18T10:49:53.771Z</time></trkpt><trkpt lat="42.7831308" lon="11.4835772"><ele>671.0</ele><time>2026-04-18T10:49:54.771Z</time></trkpt><trkpt lat="42.7830136" lon="11.4835169"><ele>672.0</ele><time>2026-04-18T10:49:55.771Z</time></trkpt><trkpt lat="42.7828983" lon="11.4834518"><ele>673.0</ele><time>2026-04-18T10:49:56.772Z</time></trkpt><trkpt lat="42.7827843" lon="11.4833853"><ele>674.0</ele><time>2026-04-18T10:49:57.77Z</time></trkpt><trkpt lat="42.7826709" lon="11.48332"><ele>674.0</ele><time>2026-04-18T10:49:58.772Z</time></trkpt><trkpt lat="42.7825579" lon="11.4832544"><ele>674.0</ele><time>2026-04-18T10:49:59.769Z</time></trkpt><trkpt lat="42.782446" lon="11.4831905"><ele>674.0</ele><time>2026-04-18T10:50:00.771Z</time></trkpt><trkpt lat="42.7823428" lon="11.483132"><ele>674.0</ele><time>2026-04-18T10:50:01.772Z</time></trkpt><trkpt lat="42.7822419" lon="11.4830741"><ele>674.0</ele><time>2026-04-18T10:50:02.773Z</time></trkpt><trkpt lat="42.7821365" lon="11.4830165"><ele>674.0</ele><time>2026-04-18T10:50:03.772Z</time></trkpt><trkpt lat="42.7820239" lon="11.4829515"><ele>674.0</ele><time>2026-04-18T10:50:04.772Z</time></trkpt><trkpt lat="42.7819085" lon="11.4828842"><ele>674.0</ele><time>2026-04-18T10:50:05.769Z</time></trkpt><trkpt lat="42.7817931" lon="11.4828198"><ele>673.75</ele><time>2026-04-18T10:50:06.771Z</time></trkpt><trkpt lat="42.7816768" lon="11.4827666"><ele>673.5</ele><time>2026-04-18T10:50:07.767Z</time></trkpt><trkpt lat="42.7815594" lon="11.4827316"><ele>673.25</ele><time>2026-04-18T10:50:08.773Z</time></trkpt><trkpt lat="42.7814345" lon="11.482713"><ele>673.0</ele><time>2026-04-18T10:50:09.77Z</time></trkpt><trkpt lat="42.7813031" lon="11.4827027"><ele>673.0</ele><time>2026-04-18T10:50:10.771Z</time></trkpt><trkpt lat="42.7811691" lon="11.4826935"><ele>673.0</ele><time>2026-04-18T10:50:11.771Z</time></trkpt><trkpt lat="42.7810308" lon="11.4826735"><ele>673.0</ele><time>2026-04-18T10:50:12.767Z</time></trkpt><trkpt lat="42.78089" lon="11.4826335"><ele>673.0</ele><time>2026-04-18T10:50:13.771Z</time></trkpt><trkpt lat="42.7807471" lon="11.4825764"><ele>673.3333333333334</ele><time>2026-04-18T10:50:14.769Z</time></trkpt><trkpt lat="42.7806045" lon="11.482505"><ele>673.6666666666666</ele><time>2026-04-18T10:50:15.77Z</time></trkpt><trkpt lat="42.7804636" lon="11.4824301"><ele>674.0</ele><time>2026-04-18T10:50:16.768Z</time></trkpt><trkpt lat="42.7803232" lon="11.4823538"><ele>672.0</ele><time>2026-04-18T10:50:17.772Z</time></trkpt><trkpt lat="42.7801817" lon="11.48228"><ele>670.0</ele><time>2026-04-18T10:50:18.774Z</time></trkpt><trkpt lat="42.7800415" lon="11.4822058"><ele>668.0</ele><time>2026-04-18T10:50:19.768Z</time></trkpt><trkpt lat="42.779903" lon="11.4821262"><ele>666.6666666666666</ele><time>2026-04-18T10:50:20.773Z</time></trkpt><trkpt lat="42.779765" lon="11.4820383"><ele>665.3333333333334</ele><time>2026-04-18T10:50:21.768Z</time></trkpt><trkpt lat="42.7796313" lon="11.481935"><ele>664.0</ele><time>2026-04-18T10:50:22.769Z</time></trkpt><trkpt lat="42.7795013" lon="11.481826"><ele>664.0</ele><time>2026-04-18T10:50:23.771Z</time></trkpt><trkpt lat="42.7793718" lon="11.4817137"><ele>664.0</ele><time>2026-04-18T10:50:24.771Z</time></trkpt><trkpt lat="42.7792402" lon="11.4816025"><ele>664.0</ele><time>2026-04-18T10:50:25.771Z</time></trkpt><trkpt lat="42.7791115" lon="11.4814931"><ele>663.25</ele><time>2026-04-18T10:50:26.77Z</time></trkpt><trkpt lat="42.7789875" lon="11.4813812"><ele>662.5</ele><time>2026-04-18T10:50:27.773Z</time></trkpt><trkpt lat="42.7788725" lon="11.4812597"><ele>661.75</ele><time>2026-04-18T10:50:28.771Z</time></trkpt><trkpt lat="42.7787703" lon="11.4811222"><ele>661.0</ele><time>2026-04-18T10:50:29.766Z</time></trkpt><trkpt lat="42.7786904" lon="11.4809696"><ele>661.0</ele><time>2026-04-18T10:50:30.772Z</time></trkpt><trkpt lat="42.7786382" lon="11.4807975"><ele>661.0</ele><time>2026-04-18T10:50:31.771Z</time></trkpt><trkpt lat="42.7786101" lon="11.4806082"><ele>661.0</ele><time>2026-04-18T10:50:32.772Z</time></trkpt><trkpt lat="42.7785992" lon="11.4804157"><ele>661.0</ele><time>2026-04-18T10:50:33.768Z</time></trkpt><trkpt lat="42.7785969" lon="11.4802202"><ele>659.75</ele><time>2026-04-18T10:50:34.77Z</time></trkpt><trkpt lat="42.7785973" lon="11.4800315"><ele>658.5</ele><time>2026-04-18T10:50:35.772Z</time></trkpt><trkpt lat="42.7785897" lon="11.4798473"><ele>657.25</ele><time>2026-04-18T10:50:36.771Z</time></trkpt><trkpt lat="42.7785627" lon="11.4796616"><ele>656.0</ele><time>2026-04-18T10:50:37.771Z</time></trkpt><trkpt lat="42.778508" lon="11.4794783"><ele>660.0</ele><time>2026-04-18T10:50:38.775Z</time></trkpt><trkpt lat="42.7784215" lon="11.4793016"><ele>664.0</ele><time>2026-04-18T10:50:39.771Z</time></trkpt><trkpt lat="42.7783068" lon="11.4791355"><ele>668.0</ele><time>2026-04-18T10:50:40.77Z</time></trkpt><trkpt lat="42.7781769" lon="11.4789802"><ele>668.0</ele><time>2026-04-18T10:50:41.771Z</time></trkpt><trkpt lat="42.7780426" lon="11.4788182"><ele>668.0</ele><time>2026-04-18T10:50:42.765Z</time></trkpt><trkpt lat="42.7779078" lon="11.4786485"><ele>668.0</ele><time>2026-04-18T10:50:43.769Z</time></trkpt><trkpt lat="42.7777706" lon="11.4784718"><ele>668.3333333333333</ele><time>2026-04-18T10:50:44.767Z</time></trkpt><trkpt lat="42.7776329" lon="11.4782921"><ele>668.6666666666666</ele><time>2026-04-18T10:50:45.77Z</time></trkpt><trkpt lat="42.7775009" lon="11.4781161"><ele>669.0</ele><time>2026-04-18T10:50:46.766Z</time></trkpt><trkpt lat="42.7773757" lon="11.4779491"><ele>665.6666666666666</ele><time>2026-04-18T10:50:47.771Z</time></trkpt><trkpt lat="42.7772603" lon="11.477796"><ele>662.3333333333333</ele><time>2026-04-18T10:50:48.771Z</time></trkpt><trkpt lat="42.7771495" lon="11.477651"><ele>659.0</ele><time>2026-04-18T10:50:49.766Z</time></trkpt><trkpt lat="42.77704" lon="11.4775055"><ele>659.0</ele><time>2026-04-18T10:50:50.766Z</time></trkpt><trkpt lat="42.7769369" lon="11.4773486"><ele>659.0</ele><time>2026-04-18T10:50:51.77Z</time></trkpt><trkpt lat="42.7768402" lon="11.4771722"><ele>659.0</ele><time>2026-04-18T10:50:52.766Z</time></trkpt><trkpt lat="42.776751" lon="11.4769805"><ele>659.6666666666666</ele><time>2026-04-18T10:50:53.766Z</time></trkpt><trkpt lat="42.7766715" lon="11.4767754"><ele>660.3333333333334</ele><time>2026-04-18T10:50:54.768Z</time></trkpt><trkpt lat="42.7765946" lon="11.4765683"><ele>661.0</ele><time>2026-04-18T10:50:55.766Z</time></trkpt><trkpt lat="42.7765196" lon="11.476357"><ele>658.6666666666667</ele><time>2026-04-18T10:50:56.772Z</time></trkpt><trkpt lat="42.776447" lon="11.476138"><ele>656.3333333333334</ele><time>2026-04-18T10:50:57.769Z</time></trkpt><trkpt lat="42.7763828" lon="11.4759109"><ele>654.0</ele><time>2026-04-18T10:50:58.772Z</time></trkpt><trkpt lat="42.7763247" lon="11.4756788"><ele>654.0</ele><time>2026-04-18T10:50:59.771Z</time></trkpt><trkpt lat="42.7762674" lon="11.4754377"><ele>654.0</ele><time>2026-04-18T10:51:00.765Z</time></trkpt><trkpt lat="42.776215" lon="11.4751858"><ele>654.0</ele><time>2026-04-18T10:51:01.771Z</time></trkpt><trkpt lat="42.776161" lon="11.4749307"><ele>652.6666666666666</ele><time>2026-04-18T10:51:02.766Z</time></trkpt><trkpt lat="42.7761029" lon="11.4746828"><ele>651.3333333333333</ele><time>2026-04-18T10:51:03.771Z</time></trkpt><trkpt lat="42.7760445" lon="11.4744416"><ele>650.0</ele><time>2026-04-18T10:51:04.771Z</time></trkpt><trkpt lat="42.7759942" lon="11.4741975"><ele>650.0</ele><time>2026-04-18T10:51:05.77Z</time></trkpt><trkpt lat="42.7759534" lon="11.4739485"><ele>650.0</ele><time>2026-04-18T10:51:06.771Z</time></trkpt><trkpt lat="42.7759089" lon="11.4737012"><ele>650.0</ele><time>2026-04-18T10:51:07.771Z</time></trkpt><trkpt lat="42.7758597" lon="11.473452"><ele>648.0</ele><time>2026-04-18T10:51:08.773Z</time></trkpt><trkpt lat="42.7758084" lon="11.473208"><ele>646.0</ele><time>2026-04-18T10:51:09.77Z</time></trkpt><trkpt lat="42.7757568" lon="11.4729688"><ele>644.0</ele><time>2026-04-18T10:51:10.771Z</time></trkpt><trkpt lat="42.7756995" lon="11.4727365"><ele>644.6666666666666</ele><time>2026-04-18T10:51:11.771Z</time></trkpt><trkpt lat="42.7756296" lon="11.4725129"><ele>645.3333333333334</ele><time>2026-04-18T10:51:12.768Z</time></trkpt><trkpt lat="42.7755411" lon="11.472301"><ele>646.0</ele><time>2026-04-18T10:51:13.771Z</time></trkpt><trkpt lat="42.7754387" lon="11.4720916"><ele>646.0</ele><time>2026-04-18T10:51:14.771Z</time></trkpt><trkpt lat="42.7753287" lon="11.4718873"><ele>646.0</ele><time>2026-04-18T10:51:15.771Z</time></trkpt><trkpt lat="42.7752153" lon="11.4716878"><ele>646.0</ele><time>2026-04-18T10:51:16.771Z</time></trkpt><trkpt lat="42.7751013" lon="11.4714916"><ele>647.0</ele><time>2026-04-18T10:51:17.771Z</time></trkpt><trkpt lat="42.7749901" lon="11.4712999"><ele>648.0</ele><time>2026-04-18T10:51:18.77Z</time></trkpt><trkpt lat="42.7748818" lon="11.4711124"><ele>649.0</ele><time>2026-04-18T10:51:19.768Z</time></trkpt><trkpt lat="42.7747806" lon="11.4709314"><ele>651.0</ele><time>2026-04-18T10:51:20.769Z</time></trkpt><trkpt lat="42.7746978" lon="11.4707552"><ele>653.0</ele><time>2026-04-18T10:51:21.768Z</time></trkpt><trkpt lat="42.7746417" lon="11.4705774"><ele>655.0</ele><time>2026-04-18T10:51:22.769Z</time></trkpt><trkpt lat="42.7746238" lon="11.470385"><ele>657.0</ele><time>2026-04-18T10:51:23.768Z</time></trkpt><trkpt lat="42.7746434" lon="11.4701798"><ele>657.3333333333334</ele><time>2026-04-18T10:51:24.767Z</time></trkpt><trkpt lat="42.7747017" lon="11.4699762"><ele>657.6666666666667</ele><time>2026-04-18T10:51:25.769Z</time></trkpt><trkpt lat="42.7747828" lon="11.4697731"><ele>658.0</ele><time>2026-04-18T10:51:26.769Z</time></trkpt><trkpt lat="42.7748675" lon="11.4695714"><ele>658.0</ele><time>2026-04-18T10:51:27.766Z</time></trkpt><trkpt lat="42.7749565" lon="11.4693601"><ele>658.0</ele><time>2026-04-18T10:51:28.765Z</time></trkpt><trkpt lat="42.7750468" lon="11.4691481"><ele>658.0</ele><time>2026-04-18T10:51:29.768Z</time></trkpt><trkpt lat="42.7751319" lon="11.4689446"><ele>662.5</ele><time>2026-04-18T10:51:30.769Z</time></trkpt><trkpt lat="42.7752073" lon="11.4687608"><ele>667.0</ele><time>2026-04-18T10:51:31.768Z</time></trkpt><trkpt lat="42.7752658" lon="11.4685929"><ele>671.5</ele><time>2026-04-18T10:51:32.769Z</time></trkpt><trkpt lat="42.7752917" lon="11.4684337"><ele>676.0</ele><time>2026-04-18T10:51:33.768Z</time></trkpt><trkpt lat="42.7752771" lon="11.4682684"><ele>676.0</ele><time>2026-04-18T10:51:34.768Z</time></trkpt><trkpt lat="42.7752188" lon="11.4681144"><ele>676.0</ele><time>2026-04-18T10:51:35.769Z</time></trkpt><trkpt lat="42.7751061" lon="11.467991"><ele>676.0</ele><time>2026-04-18T10:51:36.772Z</time></trkpt><trkpt lat="42.7749648" lon="11.4678847"><ele>676.0</ele><time>2026-04-18T10:51:37.771Z</time></trkpt><trkpt lat="42.7748128" lon="11.4677832"><ele>675.6666666666667</ele><time>2026-04-18T10:51:38.769Z</time></trkpt><trkpt lat="42.7746631" lon="11.4676756"><ele>675.3333333333334</ele><time>2026-04-18T10:51:39.769Z</time></trkpt><trkpt lat="42.7745151" lon="11.4675661"><ele>675.0</ele><time>2026-04-18T10:51:40.768Z</time></trkpt><trkpt lat="42.774368" lon="11.4674563"><ele>675.0</ele><time>2026-04-18T10:51:41.769Z</time></trkpt><trkpt lat="42.7742367" lon="11.4673404"><ele>675.0</ele><time>2026-04-18T10:51:42.772Z</time></trkpt><trkpt lat="42.7741214" lon="11.4672096"><ele>675.0</ele><time>2026-04-18T10:51:43.769Z</time></trkpt><trkpt lat="42.7740097" lon="11.4670632"><ele>675.0</ele><time>2026-04-18T10:51:44.77Z</time></trkpt><trkpt lat="42.7739023" lon="11.466898"><ele>675.0</ele><time>2026-04-18T10:51:45.769Z</time></trkpt><trkpt lat="42.7738045" lon="11.4667183"><ele>675.0</ele><time>2026-04-18T10:51:46.765Z</time></trkpt><trkpt lat="42.7737196" lon="11.4665278"><ele>675.0</ele><time>2026-04-18T10:51:47.771Z</time></trkpt><trkpt lat="42.7736442" lon="11.4663431"><ele>675.0</ele><time>2026-04-18T10:51:48.771Z</time></trkpt><trkpt lat="42.7735703" lon="11.4661698"><ele>675.0</ele><time>2026-04-18T10:51:49.771Z</time></trkpt><trkpt lat="42.7734919" lon="11.4660116"><ele>675.0</ele><time>2026-04-18T10:51:50.76Z</time></trkpt><trkpt lat="42.7733997" lon="11.4658677"><ele>676.0</ele><time>2026-04-18T10:51:51.759Z</time></trkpt><trkpt lat="42.7732889" lon="11.4657418"><ele>677.0</ele><time>2026-04-18T10:51:52.768Z</time></trkpt><trkpt lat="42.7731618" lon="11.4656303"><ele>678.0</ele><time>2026-04-18T10:51:53.773Z</time></trkpt><trkpt lat="42.7730215" lon="11.4655369"><ele>681.3333333333334</ele><time>2026-04-18T10:51:54.771Z</time></trkpt><trkpt lat="42.7728777" lon="11.4654444"><ele>684.6666666666667</ele><time>2026-04-18T10:51:55.771Z</time></trkpt><trkpt lat="42.7727291" lon="11.4653512"><ele>688.0</ele><time>2026-04-18T10:51:56.774Z</time></trkpt><trkpt lat="42.7725789" lon="11.4652621"><ele>688.0</ele><time>2026-04-18T10:51:57.771Z</time></trkpt><trkpt lat="42.7724283" lon="11.4651727"><ele>688.0</ele><time>2026-04-18T10:51:58.771Z</time></trkpt><trkpt lat="42.77228" lon="11.4650869"><ele>688.0</ele><time>2026-04-18T10:51:59.771Z</time></trkpt><trkpt lat="42.7721367" lon="11.4650042"><ele>688.0</ele><time>2026-04-18T10:52:00.769Z</time></trkpt><trkpt lat="42.7719939" lon="11.4649225"><ele>688.0</ele><time>2026-04-18T10:52:01.771Z</time></trkpt><trkpt lat="42.771859" lon="11.4648347"><ele>688.0</ele><time>2026-04-18T10:52:02.774Z</time></trkpt><trkpt lat="42.7717429" lon="11.4647162"><ele>688.0</ele><time>2026-04-18T10:52:03.769Z</time></trkpt><trkpt lat="42.7716414" lon="11.4645722"><ele>690.0</ele><time>2026-04-18T10:52:04.77Z</time></trkpt><trkpt lat="42.7715562" lon="11.4644073"><ele>692.0</ele><time>2026-04-18T10:52:05.772Z</time></trkpt><trkpt lat="42.7714751" lon="11.4642297"><ele>694.0</ele><time>2026-04-18T10:52:06.771Z</time></trkpt><trkpt lat="42.7713949" lon="11.4640491"><ele>694.0</ele><time>2026-04-18T10:52:07.77Z</time></trkpt><trkpt lat="42.7713153" lon="11.4638718"><ele>694.0</ele><time>2026-04-18T10:52:08.772Z</time></trkpt><trkpt lat="42.7712307" lon="11.4637124"><ele>694.0</ele><time>2026-04-18T10:52:09.77Z</time></trkpt><trkpt lat="42.7711361" lon="11.4635757"><ele>694.0</ele><time>2026-04-18T10:52:10.769Z</time></trkpt><trkpt lat="42.771027" lon="11.4634601"><ele>694.0</ele><time>2026-04-18T10:52:11.769Z</time></trkpt><trkpt lat="42.7708967" lon="11.4633785"><ele>694.0</ele><time>2026-04-18T10:52:12.769Z</time></trkpt><trkpt lat="42.770749" lon="11.4633259"><ele>694.0</ele><time>2026-04-18T10:52:13.772Z</time></trkpt><trkpt lat="42.7706013" lon="11.4632845"><ele>694.0</ele><time>2026-04-18T10:52:14.771Z</time></trkpt><trkpt lat="42.7704597" lon="11.4632349"><ele>694.0</ele><time>2026-04-18T10:52:15.77Z</time></trkpt><trkpt lat="42.770326" lon="11.463174"><ele>694.0</ele><time>2026-04-18T10:52:16.769Z</time></trkpt><trkpt lat="42.7701999" lon="11.4630895"><ele>694.0</ele><time>2026-04-18T10:52:17.77Z</time></trkpt><trkpt lat="42.7700816" lon="11.4629762"><ele>694.0</ele><time>2026-04-18T10:52:18.769Z</time></trkpt><trkpt lat="42.7699928" lon="11.4628319"><ele>695.0</ele><time>2026-04-18T10:52:19.771Z</time></trkpt><trkpt lat="42.7699453" lon="11.4626366"><ele>696.0</ele><time>2026-04-18T10:52:20.773Z</time></trkpt><trkpt lat="42.7699098" lon="11.4624133"><ele>697.0</ele><time>2026-04-18T10:52:21.771Z</time></trkpt><trkpt lat="42.7698721" lon="11.4621723"><ele>698.0</ele><time>2026-04-18T10:52:22.77Z</time></trkpt><trkpt lat="42.7698275" lon="11.4619249"><ele>699.0</ele><time>2026-04-18T10:52:23.771Z</time></trkpt><trkpt lat="42.7697803" lon="11.4616784"><ele>700.0</ele><time>2026-04-18T10:52:24.771Z</time></trkpt><trkpt lat="42.7697359" lon="11.4614337"><ele>698.3333333333334</ele><time>2026-04-18T10:52:25.77Z</time></trkpt><trkpt lat="42.7696909" lon="11.4611908"><ele>696.6666666666666</ele><time>2026-04-18T10:52:26.771Z</time></trkpt><trkpt lat="42.7696459" lon="11.4609543"><ele>695.0</ele><time>2026-04-18T10:52:27.77Z</time></trkpt><trkpt lat="42.7696054" lon="11.4607239"><ele>695.0</ele><time>2026-04-18T10:52:28.767Z</time></trkpt><trkpt lat="42.7695661" lon="11.460503"><ele>695.0</ele><time>2026-04-18T10:52:29.773Z</time></trkpt><trkpt lat="42.7695183" lon="11.4602975"><ele>695.0</ele><time>2026-04-18T10:52:30.771Z</time></trkpt><trkpt lat="42.7694489" lon="11.4601065"><ele>697.0</ele><time>2026-04-18T10:52:31.77Z</time></trkpt><trkpt lat="42.7693509" lon="11.4599371"><ele>699.0</ele><time>2026-04-18T10:52:32.774Z</time></trkpt><trkpt lat="42.7692229" lon="11.4598024"><ele>701.0</ele><time>2026-04-18T10:52:33.77Z</time></trkpt><trkpt lat="42.7690792" lon="11.4596907"><ele>704.6666666666666</ele><time>2026-04-18T10:52:34.772Z</time></trkpt><trkpt lat="42.7689313" lon="11.4595817"><ele>708.3333333333334</ele><time>2026-04-18T10:52:35.771Z</time></trkpt><trkpt lat="42.7687811" lon="11.4594735"><ele>712.0</ele><time>2026-04-18T10:52:36.77Z</time></trkpt><trkpt lat="42.7686316" lon="11.4593565"><ele>709.0</ele><time>2026-04-18T10:52:37.769Z</time></trkpt><trkpt lat="42.7684975" lon="11.4592127"><ele>706.0</ele><time>2026-04-18T10:52:38.772Z</time></trkpt><trkpt lat="42.7683761" lon="11.4590449"><ele>703.0</ele><time>2026-04-18T10:52:39.771Z</time></trkpt><trkpt lat="42.7682636" lon="11.4588622"><ele>707.0</ele><time>2026-04-18T10:52:40.77Z</time></trkpt><trkpt lat="42.7681554" lon="11.458678"><ele>711.0</ele><time>2026-04-18T10:52:41.767Z</time></trkpt><trkpt lat="42.7680589" lon="11.4584985"><ele>715.0</ele><time>2026-04-18T10:52:42.773Z</time></trkpt><trkpt lat="42.7679645" lon="11.4583336"><ele>715.0</ele><time>2026-04-18T10:52:43.769Z</time></trkpt><trkpt lat="42.7678727" lon="11.4581852"><ele>715.0</ele><time>2026-04-18T10:52:44.768Z</time></trkpt><trkpt lat="42.7677705" lon="11.45806"><ele>715.0</ele><time>2026-04-18T10:52:45.77Z</time></trkpt><trkpt lat="42.7676543" lon="11.4579756"><ele>715.0</ele><time>2026-04-18T10:52:46.768Z</time></trkpt><trkpt lat="42.7675242" lon="11.4579518"><ele>713.5</ele><time>2026-04-18T10:52:47.77Z</time></trkpt><trkpt lat="42.7673904" lon="11.4579902"><ele>712.0</ele><time>2026-04-18T10:52:48.773Z</time></trkpt><trkpt lat="42.767275" lon="11.4580796"><ele>710.5</ele><time>2026-04-18T10:52:49.771Z</time></trkpt><trkpt lat="42.7671966" lon="11.4582404"><ele>709.0</ele><time>2026-04-18T10:52:50.77Z</time></trkpt><trkpt lat="42.7671515" lon="11.4584391"><ele>709.0</ele><time>2026-04-18T10:52:51.771Z</time></trkpt><trkpt lat="42.7671076" lon="11.4586343"><ele>709.0</ele><time>2026-04-18T10:52:52.77Z</time></trkpt><trkpt lat="42.7670574" lon="11.4588263"><ele>709.0</ele><time>2026-04-18T10:52:53.772Z</time></trkpt><trkpt lat="42.7669793" lon="11.4589968"><ele>709.0</ele><time>2026-04-18T10:52:54.773Z</time></trkpt><trkpt lat="42.7668821" lon="11.4591294"><ele>709.75</ele><time>2026-04-18T10:52:55.772Z</time></trkpt><trkpt lat="42.7667693" lon="11.4592142"><ele>710.5</ele><time>2026-04-18T10:52:56.772Z</time></trkpt><trkpt lat="42.7666506" lon="11.459284"><ele>711.25</ele><time>2026-04-18T10:52:57.771Z</time></trkpt><trkpt lat="42.7665334" lon="11.4593424"><ele>712.0</ele><time>2026-04-18T10:52:58.771Z</time></trkpt><trkpt lat="42.7664194" lon="11.4593955"><ele>712.0</ele><time>2026-04-18T10:52:59.772Z</time></trkpt><trkpt lat="42.7663128" lon="11.4594356"><ele>712.0</ele><time>2026-04-18T10:53:00.772Z</time></trkpt><trkpt lat="42.7662021" lon="11.4594581"><ele>712.0</ele><time>2026-04-18T10:53:01.77Z</time></trkpt><trkpt lat="42.7660889" lon="11.4594422"><ele>712.0</ele><time>2026-04-18T10:53:02.771Z</time></trkpt><trkpt lat="42.765975" lon="11.4593891"><ele>711.25</ele><time>2026-04-18T10:53:03.77Z</time></trkpt><trkpt lat="42.7658498" lon="11.4593114"><ele>710.5</ele><time>2026-04-18T10:53:04.765Z</time></trkpt><trkpt lat="42.7657246" lon="11.459213"><ele>709.75</ele><time>2026-04-18T10:53:05.77Z</time></trkpt><trkpt lat="42.7655981" lon="11.4591"><ele>709.0</ele><time>2026-04-18T10:53:06.772Z</time></trkpt><trkpt lat="42.7654687" lon="11.4589941"><ele>709.0</ele><time>2026-04-18T10:53:07.769Z</time></trkpt><trkpt lat="42.765339" lon="11.4588916"><ele>709.0</ele><time>2026-04-18T10:53:08.77Z</time></trkpt><trkpt lat="42.7652109" lon="11.4587999"><ele>709.0</ele><time>2026-04-18T10:53:09.771Z</time></trkpt><trkpt lat="42.7650855" lon="11.4587112"><ele>709.0</ele><time>2026-04-18T10:53:10.77Z</time></trkpt><trkpt lat="42.7649628" lon="11.4586226"><ele>709.0</ele><time>2026-04-18T10:53:11.77Z</time></trkpt><trkpt lat="42.7648408" lon="11.4585317"><ele>709.0</ele><time>2026-04-18T10:53:12.77Z</time></trkpt><trkpt lat="42.7647175" lon="11.458446"><ele>709.0</ele><time>2026-04-18T10:53:13.77Z</time></trkpt><trkpt lat="42.7645924" lon="11.4583714"><ele>709.0</ele><time>2026-04-18T10:53:14.768Z</time></trkpt><trkpt lat="42.7644655" lon="11.4583171"><ele>708.25</ele><time>2026-04-18T10:53:15.77Z</time></trkpt><trkpt lat="42.7643324" lon="11.4583102"><ele>707.5</ele><time>2026-04-18T10:53:16.769Z</time></trkpt><trkpt lat="42.7642002" lon="11.4583556"><ele>706.75</ele><time>2026-04-18T10:53:17.77Z</time></trkpt><trkpt lat="42.7640693" lon="11.4584386"><ele>706.0</ele><time>2026-04-18T10:53:18.771Z</time></trkpt><trkpt lat="42.7639472" lon="11.4585481"><ele>706.0</ele><time>2026-04-18T10:53:19.768Z</time></trkpt><trkpt lat="42.7638255" lon="11.4586656"><ele>706.0</ele><time>2026-04-18T10:53:20.772Z</time></trkpt><trkpt lat="42.763699" lon="11.4587821"><ele>706.0</ele><time>2026-04-18T10:53:21.77Z</time></trkpt><trkpt lat="42.7635761" lon="11.4589008"><ele>705.3333333333334</ele><time>2026-04-18T10:53:22.769Z</time></trkpt><trkpt lat="42.763443" lon="11.4590118"><ele>704.6666666666666</ele><time>2026-04-18T10:53:23.77Z</time></trkpt><trkpt lat="42.7633014" lon="11.4591088"><ele>704.0</ele><time>2026-04-18T10:53:24.772Z</time></trkpt><trkpt lat="42.763156" lon="11.4591792"><ele>704.0</ele><time>2026-04-18T10:53:25.769Z</time></trkpt><trkpt lat="42.7630068" lon="11.4592204"><ele>704.0</ele><time>2026-04-18T10:53:26.772Z</time></trkpt><trkpt lat="42.7628573" lon="11.4592335"><ele>704.0</ele><time>2026-04-18T10:53:27.769Z</time></trkpt><trkpt lat="42.7627038" lon="11.4592214"><ele>702.3333333333333</ele><time>2026-04-18T10:53:28.768Z</time></trkpt><trkpt lat="42.7625492" lon="11.4592072"><ele>700.6666666666666</ele><time>2026-04-18T10:53:29.769Z</time></trkpt><trkpt lat="42.7623896" lon="11.4591835"><ele>699.0</ele><time>2026-04-18T10:53:30.772Z</time></trkpt><trkpt lat="42.7622266" lon="11.4591569"><ele>699.0</ele><time>2026-04-18T10:53:31.766Z</time></trkpt><trkpt lat="42.7620558" lon="11.4591263"><ele>699.0</ele><time>2026-04-18T10:53:32.768Z</time></trkpt><trkpt lat="42.761881" lon="11.4590951"><ele>699.0</ele><time>2026-04-18T10:53:33.768Z</time></trkpt><trkpt lat="42.7617081" lon="11.4590649"><ele>698.6666666666666</ele><time>2026-04-18T10:53:34.768Z</time></trkpt><trkpt lat="42.7615373" lon="11.4590311"><ele>698.3333333333333</ele><time>2026-04-18T10:53:35.769Z</time></trkpt><trkpt lat="42.7613709" lon="11.4590125"><ele>698.0</ele><time>2026-04-18T10:53:36.773Z</time></trkpt><trkpt lat="42.7612048" lon="11.4590148"><ele>698.0</ele><time>2026-04-18T10:53:37.767Z</time></trkpt><trkpt lat="42.7610354" lon="11.4590495"><ele>698.0</ele><time>2026-04-18T10:53:38.769Z</time></trkpt><trkpt lat="42.7608634" lon="11.459116"><ele>698.0</ele><time>2026-04-18T10:53:39.768Z</time></trkpt><trkpt lat="42.7606943" lon="11.4592076"><ele>697.0</ele><time>2026-04-18T10:53:40.766Z</time></trkpt><trkpt lat="42.7605312" lon="11.4593179"><ele>696.0</ele><time>2026-04-18T10:53:41.771Z</time></trkpt><trkpt lat="42.7603738" lon="11.459441"><ele>695.0</ele><time>2026-04-18T10:53:42.768Z</time></trkpt><trkpt lat="42.7602189" lon="11.4595767"><ele>693.0</ele><time>2026-04-18T10:53:43.77Z</time></trkpt><trkpt lat="42.7600646" lon="11.4597211"><ele>691.0</ele><time>2026-04-18T10:53:44.77Z</time></trkpt><trkpt lat="42.759914" lon="11.4598636"><ele>689.0</ele><time>2026-04-18T10:53:45.77Z</time></trkpt><trkpt lat="42.7597657" lon="11.4600003"><ele>689.0</ele><time>2026-04-18T10:53:46.765Z</time></trkpt><trkpt lat="42.7596223" lon="11.4601304"><ele>689.0</ele><time>2026-04-18T10:53:47.771Z</time></trkpt><trkpt lat="42.7594772" lon="11.4602607"><ele>689.0</ele><time>2026-04-18T10:53:48.772Z</time></trkpt><trkpt lat="42.7593247" lon="11.4603825"><ele>684.3333333333333</ele><time>2026-04-18T10:53:49.77Z</time></trkpt><trkpt lat="42.7591704" lon="11.4604847"><ele>679.6666666666666</ele><time>2026-04-18T10:53:50.771Z</time></trkpt><trkpt lat="42.7590061" lon="11.4605796"><ele>675.0</ele><time>2026-04-18T10:53:51.77Z</time></trkpt><trkpt lat="42.7588319" lon="11.4606591"><ele>675.0</ele><time>2026-04-18T10:53:52.77Z</time></trkpt><trkpt lat="42.7586497" lon="11.4607303"><ele>675.0</ele><time>2026-04-18T10:53:53.771Z</time></trkpt><trkpt lat="42.7584642" lon="11.4608004"><ele>675.0</ele><time>2026-04-18T10:53:54.772Z</time></trkpt><trkpt lat="42.7582849" lon="11.460865"><ele>675.0</ele><time>2026-04-18T10:53:55.768Z</time></trkpt><trkpt lat="42.7581083" lon="11.4609279"><ele>675.0</ele><time>2026-04-18T10:53:56.773Z</time></trkpt><trkpt lat="42.7579295" lon="11.4609679"><ele>675.0</ele><time>2026-04-18T10:53:57.77Z</time></trkpt><trkpt lat="42.7577513" lon="11.4609734"><ele>672.6666666666666</ele><time>2026-04-18T10:53:58.766Z</time></trkpt><trkpt lat="42.7575818" lon="11.4609257"><ele>670.3333333333333</ele><time>2026-04-18T10:53:59.771Z</time></trkpt><trkpt lat="42.7574182" lon="11.4608288"><ele>668.0</ele><time>2026-04-18T10:54:00.773Z</time></trkpt><trkpt lat="42.7572616" lon="11.4606943"><ele>668.0</ele><time>2026-04-18T10:54:01.771Z</time></trkpt><trkpt lat="42.7571108" lon="11.4605361"><ele>668.0</ele><time>2026-04-18T10:54:02.772Z</time></trkpt><trkpt lat="42.7569656" lon="11.4603656"><ele>668.0</ele><time>2026-04-18T10:54:03.765Z</time></trkpt><trkpt lat="42.7568195" lon="11.4601931"><ele>666.6666666666666</ele><time>2026-04-18T10:54:04.769Z</time></trkpt><trkpt lat="42.7566759" lon="11.4600234"><ele>665.3333333333334</ele><time>2026-04-18T10:54:05.77Z</time></trkpt><trkpt lat="42.756532" lon="11.4598568"><ele>664.0</ele><time>2026-04-18T10:54:06.767Z</time></trkpt><trkpt lat="42.7563924" lon="11.4596924"><ele>661.6666666666667</ele><time>2026-04-18T10:54:07.77Z</time></trkpt><trkpt lat="42.756247" lon="11.4595563"><ele>659.3333333333334</ele><time>2026-04-18T10:54:08.772Z</time></trkpt><trkpt lat="42.7560895" lon="11.4594689"><ele>657.0</ele><time>2026-04-18T10:54:09.767Z</time></trkpt><trkpt lat="42.7559158" lon="11.4594364"><ele>656.3333333333334</ele><time>2026-04-18T10:54:10.772Z</time></trkpt><trkpt lat="42.7557412" lon="11.4594625"><ele>655.6666666666667</ele><time>2026-04-18T10:54:11.771Z</time></trkpt><trkpt lat="42.7555652" lon="11.4595428"><ele>655.0</ele><time>2026-04-18T10:54:12.77Z</time></trkpt><trkpt lat="42.7553881" lon="11.4596438"><ele>654.0</ele><time>2026-04-18T10:54:13.769Z</time></trkpt><trkpt lat="42.7552115" lon="11.4597489"><ele>653.0</ele><time>2026-04-18T10:54:14.771Z</time></trkpt><trkpt lat="42.7550294" lon="11.4598538"><ele>652.0</ele><time>2026-04-18T10:54:15.771Z</time></trkpt><trkpt lat="42.7548489" lon="11.4599599"><ele>652.0</ele><time>2026-04-18T10:54:16.767Z</time></trkpt><trkpt lat="42.7546715" lon="11.4600553"><ele>652.0</ele><time>2026-04-18T10:54:17.77Z</time></trkpt><trkpt lat="42.7545006" lon="11.4601238"><ele>652.0</ele><time>2026-04-18T10:54:18.764Z</time></trkpt><trkpt lat="42.754334" lon="11.460163"><ele>649.6666666666667</ele><time>2026-04-18T10:54:19.77Z</time></trkpt><trkpt lat="42.7541759" lon="11.4601593"><ele>647.3333333333334</ele><time>2026-04-18T10:54:20.77Z</time></trkpt><trkpt lat="42.7540235" lon="11.4601059"><ele>645.0</ele><time>2026-04-18T10:54:21.769Z</time></trkpt><trkpt lat="42.75389" lon="11.4599943"><ele>645.0</ele><time>2026-04-18T10:54:22.77Z</time></trkpt><trkpt lat="42.7537887" lon="11.4598172"><ele>645.0</ele><time>2026-04-18T10:54:23.769Z</time></trkpt><trkpt lat="42.7537127" lon="11.4595998"><ele>645.0</ele><time>2026-04-18T10:54:24.77Z</time></trkpt><trkpt lat="42.7536523" lon="11.45936"><ele>646.0</ele><time>2026-04-18T10:54:25.768Z</time></trkpt><trkpt lat="42.7535888" lon="11.4591282"><ele>647.0</ele><time>2026-04-18T10:54:26.771Z</time></trkpt><trkpt lat="42.7535205" lon="11.4589123"><ele>648.0</ele><time>2026-04-18T10:54:27.768Z</time></trkpt><trkpt lat="42.753439" lon="11.4587138"><ele>644.0</ele><time>2026-04-18T10:54:28.766Z</time></trkpt><trkpt lat="42.7533365" lon="11.4585367"><ele>640.0</ele><time>2026-04-18T10:54:29.771Z</time></trkpt><trkpt lat="42.753213" lon="11.4583797"><ele>636.0</ele><time>2026-04-18T10:54:30.77Z</time></trkpt><trkpt lat="42.7530598" lon="11.4582634"><ele>636.0</ele><time>2026-04-18T10:54:31.769Z</time></trkpt><trkpt lat="42.7528895" lon="11.4581857"><ele>636.0</ele><time>2026-04-18T10:54:32.771Z</time></trkpt><trkpt lat="42.7527167" lon="11.4581433"><ele>636.0</ele><time>2026-04-18T10:54:33.768Z</time></trkpt><trkpt lat="42.7525395" lon="11.4581034"><ele>637.3333333333334</ele><time>2026-04-18T10:54:34.77Z</time></trkpt><trkpt lat="42.7523628" lon="11.458068"><ele>638.6666666666667</ele><time>2026-04-18T10:54:35.768Z</time></trkpt><trkpt lat="42.7521875" lon="11.4580305"><ele>640.0</ele><time>2026-04-18T10:54:36.77Z</time></trkpt><trkpt lat="42.7520179" lon="11.4579948"><ele>639.6666666666667</ele><time>2026-04-18T10:54:37.77Z</time></trkpt><trkpt lat="42.7518589" lon="11.4579576"><ele>639.3333333333334</ele><time>2026-04-18T10:54:38.773Z</time></trkpt><trkpt lat="42.7517092" lon="11.4579293"><ele>639.0</ele><time>2026-04-18T10:54:39.767Z</time></trkpt><trkpt lat="42.7515623" lon="11.4579248"><ele>639.0</ele><time>2026-04-18T10:54:40.768Z</time></trkpt><trkpt lat="42.7514154" lon="11.4579514"><ele>639.0</ele><time>2026-04-18T10:54:41.77Z</time></trkpt><trkpt lat="42.7512713" lon="11.4579991"><ele>639.0</ele><time>2026-04-18T10:54:42.768Z</time></trkpt><trkpt lat="42.7511396" lon="11.4580542"><ele>639.0</ele><time>2026-04-18T10:54:43.77Z</time></trkpt><trkpt lat="42.7510239" lon="11.4581161"><ele>637.6666666666666</ele><time>2026-04-18T10:54:44.769Z</time></trkpt><trkpt lat="42.7509267" lon="11.4581731"><ele>636.3333333333334</ele><time>2026-04-18T10:54:45.771Z</time></trkpt><trkpt lat="42.7508499" lon="11.4582234"><ele>635.0</ele><time>2026-04-18T10:54:46.768Z</time></trkpt><trkpt lat="42.7507992" lon="11.4582821"><ele>633.6666666666667</ele><time>2026-04-18T10:54:47.77Z</time></trkpt><trkpt lat="42.7507572" lon="11.458421"><ele>632.3333333333334</ele><time>2026-04-18T10:54:49.77Z</time></trkpt><trkpt lat="42.7507749" lon="11.4585288"><ele>631.0</ele><time>2026-04-18T10:54:50.771Z</time></trkpt><trkpt lat="42.7508156" lon="11.4586664"><ele>630.75</ele><time>2026-04-18T10:54:51.77Z</time></trkpt><trkpt lat="42.7508553" lon="11.4588229"><ele>630.5</ele><time>2026-04-18T10:54:52.771Z</time></trkpt><trkpt lat="42.7508616" lon="11.4589918"><ele>630.25</ele><time>2026-04-18T10:54:53.769Z</time></trkpt><trkpt lat="42.7508599" lon="11.4591648"><ele>630.0</ele><time>2026-04-18T10:54:54.773Z</time></trkpt><trkpt lat="42.7508584" lon="11.4593347"><ele>630.0</ele><time>2026-04-18T10:54:55.77Z</time></trkpt><trkpt lat="42.7508733" lon="11.4594892"><ele>630.0</ele><time>2026-04-18T10:54:56.77Z</time></trkpt><trkpt lat="42.75091" lon="11.4596468"><ele>630.0</ele><time>2026-04-18T10:54:57.769Z</time></trkpt><trkpt lat="42.7509615" lon="11.4598049"><ele>630.0</ele><time>2026-04-18T10:54:58.766Z</time></trkpt><trkpt lat="42.7510166" lon="11.4599627"><ele>631.25</ele><time>2026-04-18T10:54:59.769Z</time></trkpt><trkpt lat="42.7510642" lon="11.4601309"><ele>632.5</ele><time>2026-04-18T10:55:00.77Z</time></trkpt><trkpt lat="42.7510967" lon="11.4603082"><ele>633.75</ele><time>2026-04-18T10:55:01.77Z</time></trkpt><trkpt lat="42.7511278" lon="11.4604796"><ele>635.0</ele><time>2026-04-18T10:55:02.771Z</time></trkpt><trkpt lat="42.7511676" lon="11.4606468"><ele>635.0</ele><time>2026-04-18T10:55:03.77Z</time></trkpt><trkpt lat="42.7512106" lon="11.4608113"><ele>635.0</ele><time>2026-04-18T10:55:04.769Z</time></trkpt><trkpt lat="42.751254" lon="11.4609608"><ele>635.0</ele><time>2026-04-18T10:55:05.769Z</time></trkpt><trkpt lat="42.7512859" lon="11.4611059"><ele>635.0</ele><time>2026-04-18T10:55:06.769Z</time></trkpt><trkpt lat="42.7512908" lon="11.4612485"><ele>634.75</ele><time>2026-04-18T10:55:07.771Z</time></trkpt><trkpt lat="42.7512559" lon="11.4613911"><ele>634.5</ele><time>2026-04-18T10:55:08.77Z</time></trkpt><trkpt lat="42.7512056" lon="11.4615398"><ele>634.25</ele><time>2026-04-18T10:55:09.768Z</time></trkpt><trkpt lat="42.7511549" lon="11.4617074"><ele>634.0</ele><time>2026-04-18T10:55:10.768Z</time></trkpt><trkpt lat="42.7511207" lon="11.461875"><ele>634.0</ele><time>2026-04-18T10:55:11.771Z</time></trkpt><trkpt lat="42.7510813" lon="11.4620396"><ele>634.0</ele><time>2026-04-18T10:55:12.768Z</time></trkpt><trkpt lat="42.7510249" lon="11.4621972"><ele>634.0</ele><time>2026-04-18T10:55:13.769Z</time></trkpt><trkpt lat="42.7509547" lon="11.4623384"><ele>634.0</ele><time>2026-04-18T10:55:14.77Z</time></trkpt><trkpt lat="42.7508836" lon="11.4624585"><ele>630.0</ele><time>2026-04-18T10:55:15.767Z</time></trkpt><trkpt lat="42.7507854" lon="11.4625665"><ele>626.0</ele><time>2026-04-18T10:55:16.765Z</time></trkpt><trkpt lat="42.7506885" lon="11.4626778"><ele>622.0</ele><time>2026-04-18T10:55:17.77Z</time></trkpt><trkpt lat="42.7505763" lon="11.4627931"><ele>618.0</ele><time>2026-04-18T10:55:18.772Z</time></trkpt><trkpt lat="42.7504686" lon="11.4629122"><ele>620.0</ele><time>2026-04-18T10:55:19.77Z</time></trkpt><trkpt lat="42.7503743" lon="11.4630347"><ele>622.0</ele><time>2026-04-18T10:55:20.77Z</time></trkpt><trkpt lat="42.7502995" lon="11.463165"><ele>624.0</ele><time>2026-04-18T10:55:21.769Z</time></trkpt><trkpt lat="42.7502356" lon="11.4633"><ele>626.0</ele><time>2026-04-18T10:55:22.767Z</time></trkpt><trkpt lat="42.750165" lon="11.4634321"><ele>622.0</ele><time>2026-04-18T10:55:23.77Z</time></trkpt><trkpt lat="42.7500807" lon="11.4635551"><ele>618.0</ele><time>2026-04-18T10:55:24.771Z</time></trkpt><trkpt lat="42.749991" lon="11.4636795"><ele>614.0</ele><time>2026-04-18T10:55:25.772Z</time></trkpt><trkpt lat="42.74992" lon="11.4638261"><ele>610.0</ele><time>2026-04-18T10:55:26.771Z</time></trkpt><trkpt lat="42.7498673" lon="11.4639904"><ele>610.0</ele><time>2026-04-18T10:55:27.769Z</time></trkpt><trkpt lat="42.7498332" lon="11.4641614"><ele>610.0</ele><time>2026-04-18T10:55:28.766Z</time></trkpt><trkpt lat="42.7498063" lon="11.4643162"><ele>610.0</ele><time>2026-04-18T10:55:29.769Z</time></trkpt><trkpt lat="42.7497995" lon="11.4644537"><ele>610.0</ele><time>2026-04-18T10:55:30.77Z</time></trkpt><trkpt lat="42.7498145" lon="11.4645929"><ele>610.2</ele><time>2026-04-18T10:55:31.767Z</time></trkpt><trkpt lat="42.7498409" lon="11.4647368"><ele>610.4</ele><time>2026-04-18T10:55:32.771Z</time></trkpt><trkpt lat="42.7498685" lon="11.4648723"><ele>610.6</ele><time>2026-04-18T10:55:33.769Z</time></trkpt><trkpt lat="42.7498843" lon="11.465003"><ele>610.8</ele><time>2026-04-18T10:55:34.765Z</time></trkpt><trkpt lat="42.7498809" lon="11.4651253"><ele>611.0</ele><time>2026-04-18T10:55:35.765Z</time></trkpt><trkpt lat="42.749855" lon="11.4652516"><ele>611.0</ele><time>2026-04-18T10:55:36.773Z</time></trkpt><trkpt lat="42.749803" lon="11.4653737"><ele>611.0</ele><time>2026-04-18T10:55:37.768Z</time></trkpt><trkpt lat="42.7497132" lon="11.465507"><ele>611.0</ele><time>2026-04-18T10:55:38.77Z</time></trkpt><trkpt lat="42.749585" lon="11.4656051"><ele>611.0</ele><time>2026-04-18T10:55:39.769Z</time></trkpt><trkpt lat="42.7494674" lon="11.4656956"><ele>608.0</ele><time>2026-04-18T10:55:40.769Z</time></trkpt><trkpt lat="42.7493707" lon="11.4657907"><ele>605.0</ele><time>2026-04-18T10:55:41.773Z</time></trkpt><trkpt lat="42.7492942" lon="11.4659077"><ele>602.0</ele><time>2026-04-18T10:55:42.764Z</time></trkpt><trkpt lat="42.7492278" lon="11.4660574"><ele>599.0</ele><time>2026-04-18T10:55:43.768Z</time></trkpt><trkpt lat="42.7491653" lon="11.4662193"><ele>600.0</ele><time>2026-04-18T10:55:44.769Z</time></trkpt><trkpt lat="42.7491037" lon="11.466385"><ele>601.0</ele><time>2026-04-18T10:55:45.77Z</time></trkpt><trkpt lat="42.7490408" lon="11.4665422"><ele>602.0</ele><time>2026-04-18T10:55:46.77Z</time></trkpt><trkpt lat="42.748981" lon="11.4666949"><ele>603.0</ele><time>2026-04-18T10:55:47.77Z</time></trkpt><trkpt lat="42.7489191" lon="11.4668326"><ele>603.0</ele><time>2026-04-18T10:55:48.773Z</time></trkpt><trkpt lat="42.7488471" lon="11.4669555"><ele>603.0</ele><time>2026-04-18T10:55:49.77Z</time></trkpt><trkpt lat="42.748774" lon="11.4670688"><ele>603.0</ele><time>2026-04-18T10:55:50.77Z</time></trkpt><trkpt lat="42.7487058" lon="11.4671782"><ele>603.0</ele><time>2026-04-18T10:55:51.772Z</time></trkpt><trkpt lat="42.7486429" lon="11.467295"><ele>603.0</ele><time>2026-04-18T10:55:52.761Z</time></trkpt><trkpt lat="42.7485873" lon="11.4674187"><ele>601.4</ele><time>2026-04-18T10:55:53.762Z</time></trkpt><trkpt lat="42.7485398" lon="11.4675521"><ele>599.8</ele><time>2026-04-18T10:55:54.775Z</time></trkpt><trkpt lat="42.74852" lon="11.4676917"><ele>598.2</ele><time>2026-04-18T10:55:55.77Z</time></trkpt><trkpt lat="42.748495" lon="11.46782"><ele>596.6</ele><time>2026-04-18T10:55:56.768Z</time></trkpt><trkpt lat="42.7484567" lon="11.46794"><ele>595.0</ele><time>2026-04-18T10:55:57.771Z</time></trkpt><trkpt lat="42.74839" lon="11.468035"><ele>595.0</ele><time>2026-04-18T10:55:58.768Z</time></trkpt><trkpt lat="42.748295" lon="11.4681167"><ele>595.0</ele><time>2026-04-18T10:55:59.771Z</time></trkpt><trkpt lat="42.7481767" lon="11.468185"><ele>595.0</ele><time>2026-04-18T10:56:00.773Z</time></trkpt><trkpt lat="42.748045" lon="11.4682333"><ele>595.0</ele><time>2026-04-18T10:56:01.77Z</time></trkpt><trkpt lat="42.747905" lon="11.4682567"><ele>595.0</ele><time>2026-04-18T10:56:02.77Z</time></trkpt><trkpt lat="42.7477633" lon="11.468275"><ele>595.0</ele><time>2026-04-18T10:56:03.765Z</time></trkpt><trkpt lat="42.7476267" lon="11.468305"><ele>595.0</ele><time>2026-04-18T10:56:04.76Z</time></trkpt><trkpt lat="42.7474917" lon="11.4683367"><ele>595.0</ele><time>2026-04-18T10:56:05.769Z</time></trkpt><trkpt lat="42.7473717" lon="11.46836"><ele>593.4</ele><time>2026-04-18T10:56:06.769Z</time></trkpt><trkpt lat="42.7472583" lon="11.4683517"><ele>591.8</ele><time>2026-04-18T10:56:07.768Z</time></trkpt><trkpt lat="42.7471617" lon="11.4683117"><ele>590.2</ele><time>2026-04-18T10:56:08.771Z</time></trkpt><trkpt lat="42.7470683" lon="11.46827"><ele>588.6</ele><time>2026-04-18T10:56:09.772Z</time></trkpt><trkpt lat="42.7469783" lon="11.4682667"><ele>587.0</ele><time>2026-04-18T10:56:10.768Z</time></trkpt><trkpt lat="42.7468883" lon="11.4682917"><ele>586.2</ele><time>2026-04-18T10:56:11.769Z</time></trkpt><trkpt lat="42.746815" lon="11.4683733"><ele>585.4000000000001</ele><time>2026-04-18T10:56:12.763Z</time></trkpt><trkpt lat="42.7467667" lon="11.4685033"><ele>584.5999999999999</ele><time>2026-04-18T10:56:13.768Z</time></trkpt><trkpt lat="42.7467183" lon="11.4686417"><ele>583.8</ele><time>2026-04-18T10:56:14.769Z</time></trkpt><trkpt lat="42.746685" lon="11.4688083"><ele>583.0</ele><time>2026-04-18T10:56:15.77Z</time></trkpt><trkpt lat="42.7466817" lon="11.4689817"><ele>583.0</ele><time>2026-04-18T10:56:16.771Z</time></trkpt><trkpt lat="42.7466833" lon="11.469135"><ele>583.0</ele><time>2026-04-18T10:56:17.769Z</time></trkpt><trkpt lat="42.7466833" lon="11.46929"><ele>583.0</ele><time>2026-04-18T10:56:18.769Z</time></trkpt><trkpt lat="42.7466683" lon="11.469425"><ele>583.0</ele><time>2026-04-18T10:56:19.772Z</time></trkpt><trkpt lat="42.746645" lon="11.46955"><ele>583.0</ele><time>2026-04-18T10:56:20.768Z</time></trkpt><trkpt lat="42.7466017" lon="11.469645"><ele>585.25</ele><time>2026-04-18T10:56:21.769Z</time></trkpt><trkpt lat="42.7465" lon="11.469695"><ele>587.5</ele><time>2026-04-18T10:56:22.766Z</time></trkpt><trkpt lat="42.7463767" lon="11.4697117"><ele>589.75</ele><time>2026-04-18T10:56:23.772Z</time></trkpt><trkpt lat="42.7462517" lon="11.4696983"><ele>592.0</ele><time>2026-04-18T10:56:24.773Z</time></trkpt><trkpt lat="42.746145" lon="11.469715"><ele>592.0</ele><time>2026-04-18T10:56:25.771Z</time></trkpt><trkpt lat="42.7460567" lon="11.4697867"><ele>592.0</ele><time>2026-04-18T10:56:26.771Z</time></trkpt><trkpt lat="42.7459933" lon="11.4698867"><ele>592.0</ele><time>2026-04-18T10:56:27.766Z</time></trkpt><trkpt lat="42.74596" lon="11.4700067"><ele>592.0</ele><time>2026-04-18T10:56:28.765Z</time></trkpt><trkpt lat="42.745945" lon="11.4701483"><ele>592.0</ele><time>2026-04-18T10:56:29.768Z</time></trkpt><trkpt lat="42.7459467" lon="11.4703233"><ele>587.5</ele><time>2026-04-18T10:56:30.772Z</time></trkpt><trkpt lat="42.7459467" lon="11.47051"><ele>583.0</ele><time>2026-04-18T10:56:31.771Z</time></trkpt><trkpt lat="42.7459483" lon="11.4706983"><ele>578.5</ele><time>2026-04-18T10:56:32.77Z</time></trkpt><trkpt lat="42.7459533" lon="11.4708917"><ele>574.0</ele><time>2026-04-18T10:56:33.772Z</time></trkpt><trkpt lat="42.74596" lon="11.47108"><ele>574.0</ele><time>2026-04-18T10:56:34.77Z</time></trkpt><trkpt lat="42.74596" lon="11.4712633"><ele>574.0</ele><time>2026-04-18T10:56:35.768Z</time></trkpt><trkpt lat="42.7459583" lon="11.4714533"><ele>574.0</ele><time>2026-04-18T10:56:36.77Z</time></trkpt><trkpt lat="42.7459517" lon="11.4716383"><ele>574.0</ele><time>2026-04-18T10:56:37.771Z</time></trkpt><trkpt lat="42.7459417" lon="11.471815"><ele>574.2</ele><time>2026-04-18T10:56:38.773Z</time></trkpt><trkpt lat="42.745935" lon="11.4719717"><ele>574.4</ele><time>2026-04-18T10:56:39.771Z</time></trkpt><trkpt lat="42.7459333" lon="11.4721217"><ele>574.6</ele><time>2026-04-18T10:56:40.771Z</time></trkpt><trkpt lat="42.7459367" lon="11.472245"><ele>574.8</ele><time>2026-04-18T10:56:41.772Z</time></trkpt><trkpt lat="42.74593" lon="11.472355"><ele>575.0</ele><time>2026-04-18T10:56:42.77Z</time></trkpt><trkpt lat="42.7459117" lon="11.4724617"><ele>575.0</ele><time>2026-04-18T10:56:43.77Z</time></trkpt><trkpt lat="42.74586" lon="11.47254"><ele>575.0</ele><time>2026-04-18T10:56:44.769Z</time></trkpt><trkpt lat="42.745785" lon="11.4725983"><ele>575.0</ele><time>2026-04-18T10:56:45.77Z</time></trkpt><trkpt lat="42.7456633" lon="11.4726267"><ele>575.0</ele><time>2026-04-18T10:56:46.769Z</time></trkpt><trkpt lat="42.74551" lon="11.4726283"><ele>575.0</ele><time>2026-04-18T10:56:47.771Z</time></trkpt><trkpt lat="42.74535" lon="11.472625"><ele>571.75</ele><time>2026-04-18T10:56:48.769Z</time></trkpt><trkpt lat="42.745195" lon="11.4726283"><ele>568.5</ele><time>2026-04-18T10:56:49.769Z</time></trkpt><trkpt lat="42.74505" lon="11.4726267"><ele>565.25</ele><time>2026-04-18T10:56:50.771Z</time></trkpt><trkpt lat="42.7449367" lon="11.4726333"><ele>562.0</ele><time>2026-04-18T10:56:51.77Z</time></trkpt><trkpt lat="42.7448517" lon="11.4726533"><ele>562.0</ele><time>2026-04-18T10:56:52.772Z</time></trkpt><trkpt lat="42.744785" lon="11.4726883"><ele>562.0</ele><time>2026-04-18T10:56:53.771Z</time></trkpt><trkpt lat="42.7447383" lon="11.47275"><ele>562.0</ele><time>2026-04-18T10:56:54.772Z</time></trkpt><trkpt lat="42.7447117" lon="11.472835"><ele>562.0</ele><time>2026-04-18T10:56:55.771Z</time></trkpt><trkpt lat="42.7447117" lon="11.4729483"><ele>562.0</ele><time>2026-04-18T10:56:56.772Z</time></trkpt><trkpt lat="42.7447267" lon="11.47309"><ele>562.0</ele><time>2026-04-18T10:56:57.77Z</time></trkpt><trkpt lat="42.7447533" lon="11.4732517"><ele>562.6</ele><time>2026-04-18T10:56:58.77Z</time></trkpt><trkpt lat="42.7447533" lon="11.473405"><ele>563.2</ele><time>2026-04-18T10:56:59.772Z</time></trkpt><trkpt lat="42.744735" lon="11.4735417"><ele>563.8</ele><time>2026-04-18T10:57:00.769Z</time></trkpt><trkpt lat="42.7446967" lon="11.4736717"><ele>564.4</ele><time>2026-04-18T10:57:01.77Z</time></trkpt><trkpt lat="42.7446383" lon="11.4737733"><ele>565.0</ele><time>2026-04-18T10:57:02.768Z</time></trkpt><trkpt lat="42.7445733" lon="11.4738433"><ele>564.4</ele><time>2026-04-18T10:57:03.768Z</time></trkpt><trkpt lat="42.7445" lon="11.4738883"><ele>563.8</ele><time>2026-04-18T10:57:04.771Z</time></trkpt><trkpt lat="42.7444283" lon="11.473905"><ele>563.2</ele><time>2026-04-18T10:57:05.768Z</time></trkpt><trkpt lat="42.7443283" lon="11.473895"><ele>562.6</ele><time>2026-04-18T10:57:06.77Z</time></trkpt><trkpt lat="42.7442433" lon="11.4738217"><ele>562.0</ele><time>2026-04-18T10:57:07.77Z</time></trkpt><trkpt lat="42.7441617" lon="11.4736917"><ele>562.0</ele><time>2026-04-18T10:57:08.772Z</time></trkpt><trkpt lat="42.7440633" lon="11.47363"><ele>562.0</ele><time>2026-04-18T10:57:09.772Z</time></trkpt><trkpt lat="42.7439633" lon="11.473615"><ele>562.0</ele><time>2026-04-18T10:57:10.766Z</time></trkpt><trkpt lat="42.7438683" lon="11.4736233"><ele>562.0</ele><time>2026-04-18T10:57:11.772Z</time></trkpt><trkpt lat="42.743765" lon="11.4736567"><ele>562.0</ele><time>2026-04-18T10:57:12.766Z</time></trkpt><trkpt lat="42.74367" lon="11.4737733"><ele>562.0</ele><time>2026-04-18T10:57:13.772Z</time></trkpt><trkpt lat="42.743585" lon="11.47389"><ele>562.0</ele><time>2026-04-18T10:57:14.775Z</time></trkpt><trkpt lat="42.743545" lon="11.47403"><ele>562.0</ele><time>2026-04-18T10:57:15.769Z</time></trkpt><trkpt lat="42.7434967" lon="11.4741283"><ele>562.0</ele><time>2026-04-18T10:57:16.757Z</time></trkpt><trkpt lat="42.7434667" lon="11.474225"><ele>562.0</ele><time>2026-04-18T10:57:17.77Z</time></trkpt><trkpt lat="42.7434333" lon="11.4743067"><ele>560.3333333333334</ele><time>2026-04-18T10:57:18.772Z</time></trkpt><trkpt lat="42.7433917" lon="11.4743733"><ele>558.6666666666667</ele><time>2026-04-18T10:57:19.771Z</time></trkpt><trkpt lat="42.74333" lon="11.4744083"><ele>557.0</ele><time>2026-04-18T10:57:20.772Z</time></trkpt><trkpt lat="42.743245" lon="11.47441"><ele>555.3333333333334</ele><time>2026-04-18T10:57:21.77Z</time></trkpt><trkpt lat="42.7431467" lon="11.474395"><ele>553.6666666666666</ele><time>2026-04-18T10:57:22.772Z</time></trkpt><trkpt lat="42.7430483" lon="11.474325"><ele>552.0</ele><time>2026-04-18T10:57:23.771Z</time></trkpt><trkpt lat="42.7429767" lon="11.4741833"><ele>552.0</ele><time>2026-04-18T10:57:24.77Z</time></trkpt><trkpt lat="42.742905" lon="11.4740083"><ele>552.0</ele><time>2026-04-18T10:57:25.772Z</time></trkpt><trkpt lat="42.7428467" lon="11.4737933"><ele>552.0</ele><time>2026-04-18T10:57:26.772Z</time></trkpt><trkpt lat="42.7428" lon="11.4736283"><ele>552.0</ele><time>2026-04-18T10:57:27.77Z</time></trkpt><trkpt lat="42.7427467" lon="11.4734717"><ele>550.4</ele><time>2026-04-18T10:57:28.767Z</time></trkpt><trkpt lat="42.742685" lon="11.473365"><ele>548.8000000000001</ele><time>2026-04-18T10:57:29.77Z</time></trkpt><trkpt lat="42.7426167" lon="11.4732917"><ele>547.2</ele><time>2026-04-18T10:57:30.77Z</time></trkpt><trkpt lat="42.7425417" lon="11.4732267"><ele>545.6</ele><time>2026-04-18T10:57:31.769Z</time></trkpt><trkpt lat="42.74246" lon="11.4731817"><ele>544.0</ele><time>2026-04-18T10:57:32.77Z</time></trkpt><trkpt lat="42.742365" lon="11.47319"><ele>544.0</ele><time>2026-04-18T10:57:33.772Z</time></trkpt><trkpt lat="42.7422667" lon="11.4732117"><ele>544.0</ele><time>2026-04-18T10:57:34.769Z</time></trkpt><trkpt lat="42.7421583" lon="11.4732667"><ele>544.0</ele><time>2026-04-18T10:57:35.771Z</time></trkpt><trkpt lat="42.742055" lon="11.47328"><ele>544.0</ele><time>2026-04-18T10:57:36.772Z</time></trkpt><trkpt lat="42.741955" lon="11.4733267"><ele>544.0</ele><time>2026-04-18T10:57:37.769Z</time></trkpt><trkpt lat="42.7418683" lon="11.4732867"><ele>543.75</ele><time>2026-04-18T10:57:38.775Z</time></trkpt><trkpt lat="42.7417817" lon="11.4732"><ele>543.5</ele><time>2026-04-18T10:57:39.77Z</time></trkpt><trkpt lat="42.7416883" lon="11.4730533"><ele>543.25</ele><time>2026-04-18T10:57:40.766Z</time></trkpt><trkpt lat="42.7415867" lon="11.472895"><ele>543.0</ele><time>2026-04-18T10:57:41.77Z</time></trkpt><trkpt lat="42.7414867" lon="11.4727433"><ele>541.0</ele><time>2026-04-18T10:57:42.771Z</time></trkpt><trkpt lat="42.74138" lon="11.4725967"><ele>539.0</ele><time>2026-04-18T10:57:43.771Z</time></trkpt><trkpt lat="42.7412667" lon="11.47247"><ele>537.0</ele><time>2026-04-18T10:57:44.77Z</time></trkpt><trkpt lat="42.7411533" lon="11.4723617"><ele>535.0</ele><time>2026-04-18T10:57:45.771Z</time></trkpt><trkpt lat="42.74104" lon="11.472265"><ele>535.0</ele><time>2026-04-18T10:57:46.772Z</time></trkpt><trkpt lat="42.7409283" lon="11.472195"><ele>535.0</ele><time>2026-04-18T10:57:47.769Z</time></trkpt><trkpt lat="42.740815" lon="11.4721417"><ele>535.0</ele><time>2026-04-18T10:57:48.772Z</time></trkpt><trkpt lat="42.7407" lon="11.4721217"><ele>535.0</ele><time>2026-04-18T10:57:49.769Z</time></trkpt><trkpt lat="42.740575" lon="11.4721333"><ele>535.0</ele><time>2026-04-18T10:57:50.772Z</time></trkpt><trkpt lat="42.7404367" lon="11.47215"><ele>535.0</ele><time>2026-04-18T10:57:51.77Z</time></trkpt><trkpt lat="42.74029" lon="11.4721467"><ele>535.0</ele><time>2026-04-18T10:57:52.77Z</time></trkpt><trkpt lat="42.740145" lon="11.472135"><ele>535.0</ele><time>2026-04-18T10:57:53.771Z</time></trkpt><trkpt lat="42.74001" lon="11.4721317"><ele>534.0</ele><time>2026-04-18T10:57:54.773Z</time></trkpt><trkpt lat="42.7398817" lon="11.472125"><ele>533.0</ele><time>2026-04-18T10:57:55.773Z</time></trkpt><trkpt lat="42.7397633" lon="11.4721183"><ele>532.0</ele><time>2026-04-18T10:57:56.772Z</time></trkpt><trkpt lat="42.7396567" lon="11.4721283"><ele>531.0</ele><time>2026-04-18T10:57:57.769Z</time></trkpt><trkpt lat="42.7395483" lon="11.472165"><ele>531.0</ele><time>2026-04-18T10:57:58.771Z</time></trkpt><trkpt lat="42.739435" lon="11.4722183"><ele>531.0</ele><time>2026-04-18T10:57:59.772Z</time></trkpt><trkpt lat="42.739315" lon="11.472275"><ele>531.0</ele><time>2026-04-18T10:58:00.77Z</time></trkpt><trkpt lat="42.7392033" lon="11.4723283"><ele>531.0</ele><time>2026-04-18T10:58:01.771Z</time></trkpt><trkpt lat="42.739105" lon="11.4724033"><ele>530.3333333333334</ele><time>2026-04-18T10:58:02.774Z</time></trkpt><trkpt lat="42.739025" lon="11.47249"><ele>529.6666666666666</ele><time>2026-04-18T10:58:03.77Z</time></trkpt><trkpt lat="42.7389533" lon="11.47256"><ele>529.0</ele><time>2026-04-18T10:58:04.771Z</time></trkpt><trkpt lat="42.7388917" lon="11.4726133"><ele>528.3333333333333</ele><time>2026-04-18T10:58:05.772Z</time></trkpt><trkpt lat="42.7388283" lon="11.4726383"><ele>527.6666666666666</ele><time>2026-04-18T10:58:06.772Z</time></trkpt><trkpt lat="42.7387383" lon="11.4725717"><ele>527.0</ele><time>2026-04-18T10:58:08.771Z</time></trkpt><trkpt lat="42.73871" lon="11.472445"><ele>527.0</ele><time>2026-04-18T10:58:09.77Z</time></trkpt><trkpt lat="42.7387083" lon="11.4722633"><ele>527.0</ele><time>2026-04-18T10:58:10.771Z</time></trkpt><trkpt lat="42.73871" lon="11.4720617"><ele>527.0</ele><time>2026-04-18T10:58:11.769Z</time></trkpt><trkpt lat="42.7387383" lon="11.4718817"><ele>527.0</ele><time>2026-04-18T10:58:12.774Z</time></trkpt><trkpt lat="42.7387733" lon="11.4717333"><ele>525.0</ele><time>2026-04-18T10:58:13.771Z</time></trkpt><trkpt lat="42.7388" lon="11.471585"><ele>523.0</ele><time>2026-04-18T10:58:14.771Z</time></trkpt><trkpt lat="42.7387983" lon="11.4714417"><ele>521.0</ele><time>2026-04-18T10:58:15.773Z</time></trkpt><trkpt lat="42.73875" lon="11.4712817"><ele>519.0</ele><time>2026-04-18T10:58:16.769Z</time></trkpt><trkpt lat="42.7387033" lon="11.471105"><ele>517.0</ele><time>2026-04-18T10:58:17.772Z</time></trkpt><trkpt lat="42.7386583" lon="11.4709267"><ele>515.0</ele><time>2026-04-18T10:58:18.774Z</time></trkpt><trkpt lat="42.7386267" lon="11.4707433"><ele>513.0</ele><time>2026-04-18T10:58:19.77Z</time></trkpt><trkpt lat="42.73859" lon="11.47057"><ele>511.0</ele><time>2026-04-18T10:58:20.772Z</time></trkpt><trkpt lat="42.7385317" lon="11.470415"><ele>510.20000000000005</ele><time>2026-04-18T10:58:21.771Z</time></trkpt><trkpt lat="42.738465" lon="11.470285"><ele>509.40000000000003</ele><time>2026-04-18T10:58:22.769Z</time></trkpt><trkpt lat="42.738385" lon="11.47019"><ele>508.6</ele><time>2026-04-18T10:58:23.771Z</time></trkpt><trkpt lat="42.7383" lon="11.47013"><ele>507.8</ele><time>2026-04-18T10:58:24.77Z</time></trkpt><trkpt lat="42.73822" lon="11.4700883"><ele>507.0</ele><time>2026-04-18T10:58:25.77Z</time></trkpt><trkpt lat="42.7381367" lon="11.4700583"><ele>507.0</ele><time>2026-04-18T10:58:26.772Z</time></trkpt><trkpt lat="42.7380533" lon="11.47004"><ele>507.0</ele><time>2026-04-18T10:58:27.772Z</time></trkpt><trkpt lat="42.7379667" lon="11.4700267"><ele>507.0</ele><time>2026-04-18T10:58:28.772Z</time></trkpt><trkpt lat="42.7378867" lon="11.4700217"><ele>507.0</ele><time>2026-04-18T10:58:29.772Z</time></trkpt><trkpt lat="42.737815" lon="11.4701"><ele>507.0</ele><time>2026-04-18T10:58:30.773Z</time></trkpt><trkpt lat="42.7377433" lon="11.4701917"><ele>507.0</ele><time>2026-04-18T10:58:31.77Z</time></trkpt><trkpt lat="42.73768" lon="11.4702983"><ele>506.3333333333333</ele><time>2026-04-18T10:58:32.771Z</time></trkpt><trkpt lat="42.7376183" lon="11.4703617"><ele>505.66666666666663</ele><time>2026-04-18T10:58:33.774Z</time></trkpt><trkpt lat="42.7375517" lon="11.470435"><ele>505.0</ele><time>2026-04-18T10:58:34.764Z</time></trkpt><trkpt lat="42.737465" lon="11.4704667"><ele>504.3333333333333</ele><time>2026-04-18T10:58:35.772Z</time></trkpt><trkpt lat="42.7373783" lon="11.4704867"><ele>503.66666666666663</ele><time>2026-04-18T10:58:36.771Z</time></trkpt><trkpt lat="42.7372917" lon="11.47049"><ele>503.0</ele><time>2026-04-18T10:58:37.765Z</time></trkpt><trkpt lat="42.7372083" lon="11.4704983"><ele>503.0</ele><time>2026-04-18T10:58:38.772Z</time></trkpt><trkpt lat="42.737135" lon="11.4704317"><ele>503.0</ele><time>2026-04-18T10:58:39.77Z</time></trkpt><trkpt lat="42.7370817" lon="11.4703117"><ele>503.0</ele><time>2026-04-18T10:58:40.77Z</time></trkpt><trkpt lat="42.7370467" lon="11.47013"><ele>503.0</ele><time>2026-04-18T10:58:41.772Z</time></trkpt><trkpt lat="42.7370433" lon="11.4699367"><ele>503.0</ele><time>2026-04-18T10:58:42.771Z</time></trkpt><trkpt lat="42.7370883" lon="11.46975"><ele>503.0</ele><time>2026-04-18T10:58:43.769Z</time></trkpt><trkpt lat="42.7371233" lon="11.4695933"><ele>503.0</ele><time>2026-04-18T10:58:44.772Z</time></trkpt><trkpt lat="42.7371383" lon="11.46946"><ele>503.0</ele><time>2026-04-18T10:58:45.771Z</time></trkpt><trkpt lat="42.7371367" lon="11.4693383"><ele>501.0</ele><time>2026-04-18T10:58:46.768Z</time></trkpt><trkpt lat="42.7371033" lon="11.4692367"><ele>498.99999999999994</ele><time>2026-04-18T10:58:47.77Z</time></trkpt><trkpt lat="42.7370417" lon="11.4691717"><ele>496.99999999999994</ele><time>2026-04-18T10:58:48.772Z</time></trkpt><trkpt lat="42.7369667" lon="11.4691383"><ele>495.0</ele><time>2026-04-18T10:58:49.768Z</time></trkpt><trkpt lat="42.7368567" lon="11.4691483"><ele>493.0</ele><time>2026-04-18T10:58:50.77Z</time></trkpt><trkpt lat="42.7366933" lon="11.4692183"><ele>492.6666666666667</ele><time>2026-04-18T10:58:51.771Z</time></trkpt><trkpt lat="42.7365233" lon="11.4693"><ele>492.33333333333337</ele><time>2026-04-18T10:58:52.77Z</time></trkpt><trkpt lat="42.736375" lon="11.4693517"><ele>492.0</ele><time>2026-04-18T10:58:53.772Z</time></trkpt><trkpt lat="42.736245" lon="11.469395"><ele>492.0</ele><time>2026-04-18T10:58:54.772Z</time></trkpt><trkpt lat="42.7361083" lon="11.4694467"><ele>492.0</ele><time>2026-04-18T10:58:55.772Z</time></trkpt><trkpt lat="42.73598" lon="11.4694883"><ele>492.0</ele><time>2026-04-18T10:58:56.773Z</time></trkpt><trkpt lat="42.7358683" lon="11.4695433"><ele>492.0</ele><time>2026-04-18T10:58:57.77Z</time></trkpt><trkpt lat="42.735775" lon="11.46961"><ele>492.6666666666667</ele><time>2026-04-18T10:58:58.768Z</time></trkpt><trkpt lat="42.7357067" lon="11.4696483"><ele>493.33333333333337</ele><time>2026-04-18T10:58:59.773Z</time></trkpt><trkpt lat="42.7356417" lon="11.4696833"><ele>494.0</ele><time>2026-04-18T10:59:00.775Z</time></trkpt><trkpt lat="42.7355333" lon="11.4696683"><ele>494.6666666666667</ele><time>2026-04-18T10:59:02.771Z</time></trkpt><trkpt lat="42.73553" lon="11.4695617"><ele>495.33333333333337</ele><time>2026-04-18T10:59:03.771Z</time></trkpt><trkpt lat="42.735545" lon="11.4694583"><ele>496.0</ele><time>2026-04-18T10:59:04.771Z</time></trkpt><trkpt lat="42.7355833" lon="11.4693333"><ele>494.33333333333337</ele><time>2026-04-18T10:59:05.77Z</time></trkpt><trkpt lat="42.7356117" lon="11.4692117"><ele>492.6666666666667</ele><time>2026-04-18T10:59:06.765Z</time></trkpt><trkpt lat="42.7356283" lon="11.469085"><ele>491.0</ele><time>2026-04-18T10:59:07.771Z</time></trkpt><trkpt lat="42.73561" lon="11.4689767"><ele>489.33333333333337</ele><time>2026-04-18T10:59:08.774Z</time></trkpt><trkpt lat="42.7355667" lon="11.46888"><ele>487.6666666666667</ele><time>2026-04-18T10:59:09.77Z</time></trkpt><trkpt lat="42.7355" lon="11.4687967"><ele>486.0</ele><time>2026-04-18T10:59:10.772Z</time></trkpt><trkpt lat="42.7354067" lon="11.4687433"><ele>484.25</ele><time>2026-04-18T10:59:11.765Z</time></trkpt><trkpt lat="42.7352817" lon="11.4686967"><ele>482.5</ele><time>2026-04-18T10:59:12.767Z</time></trkpt><trkpt lat="42.73514" lon="11.4686617"><ele>480.75</ele><time>2026-04-18T10:59:13.771Z</time></trkpt><trkpt lat="42.7350083" lon="11.4686283"><ele>479.0</ele><time>2026-04-18T10:59:14.773Z</time></trkpt><trkpt lat="42.7348883" lon="11.46859"><ele>477.5</ele><time>2026-04-18T10:59:15.771Z</time></trkpt><trkpt lat="42.7347733" lon="11.46855"><ele>476.0</ele><time>2026-04-18T10:59:16.769Z</time></trkpt><trkpt lat="42.7346683" lon="11.4684883"><ele>474.5</ele><time>2026-04-18T10:59:17.768Z</time></trkpt><trkpt lat="42.7345717" lon="11.4684133"><ele>473.0</ele><time>2026-04-18T10:59:18.773Z</time></trkpt><trkpt lat="42.7344833" lon="11.468335"><ele>473.0</ele><time>2026-04-18T10:59:19.77Z</time></trkpt><trkpt lat="42.7343933" lon="11.4682717"><ele>473.0</ele><time>2026-04-18T10:59:20.771Z</time></trkpt><trkpt lat="42.734295" lon="11.4682183"><ele>473.0</ele><time>2026-04-18T10:59:21.769Z</time></trkpt><trkpt lat="42.7341733" lon="11.4681867"><ele>473.0</ele><time>2026-04-18T10:59:22.771Z</time></trkpt><trkpt lat="42.7340367" lon="11.4681733"><ele>473.0</ele><time>2026-04-18T10:59:23.77Z</time></trkpt><trkpt lat="42.7338917" lon="11.468165"><ele>473.0</ele><time>2026-04-18T10:59:24.774Z</time></trkpt><trkpt lat="42.7337467" lon="11.468165"><ele>473.0</ele><time>2026-04-18T10:59:25.769Z</time></trkpt><trkpt lat="42.7336117" lon="11.4681717"><ele>473.0</ele><time>2026-04-18T10:59:26.772Z</time></trkpt><trkpt lat="42.7334817" lon="11.4681933"><ele>471.25</ele><time>2026-04-18T10:59:27.771Z</time></trkpt><trkpt lat="42.7333567" lon="11.46822"><ele>469.5</ele><time>2026-04-18T10:59:28.766Z</time></trkpt><trkpt lat="42.7332367" lon="11.4682383"><ele>467.75</ele><time>2026-04-18T10:59:29.769Z</time></trkpt><trkpt lat="42.7331183" lon="11.46824"><ele>466.0</ele><time>2026-04-18T10:59:30.771Z</time></trkpt><trkpt lat="42.7330083" lon="11.4682383"><ele>466.0</ele><time>2026-04-18T10:59:31.77Z</time></trkpt><trkpt lat="42.7329017" lon="11.4682533"><ele>466.0</ele><time>2026-04-18T10:59:32.771Z</time></trkpt><trkpt lat="42.7328033" lon="11.468305"><ele>466.0</ele><time>2026-04-18T10:59:33.768Z</time></trkpt><trkpt lat="42.73271" lon="11.4684017"><ele>466.0</ele><time>2026-04-18T10:59:34.768Z</time></trkpt><trkpt lat="42.7326367" lon="11.4685383"><ele>465.8</ele><time>2026-04-18T10:59:35.77Z</time></trkpt><trkpt lat="42.7325883" lon="11.4686883"><ele>465.6</ele><time>2026-04-18T10:59:36.772Z</time></trkpt><trkpt lat="42.7325433" lon="11.468835"><ele>465.4</ele><time>2026-04-18T10:59:37.77Z</time></trkpt><trkpt lat="42.732495" lon="11.4689667"><ele>465.2</ele><time>2026-04-18T10:59:38.77Z</time></trkpt><trkpt lat="42.732445" lon="11.4690517"><ele>465.0</ele><time>2026-04-18T10:59:39.767Z</time></trkpt><trkpt lat="42.7323817" lon="11.4691067"><ele>465.0</ele><time>2026-04-18T10:59:40.769Z</time></trkpt><trkpt lat="42.7322767" lon="11.4689783"><ele>465.0</ele><time>2026-04-18T10:59:42.772Z</time></trkpt><trkpt lat="42.7322283" lon="11.4688633"><ele>465.0</ele><time>2026-04-18T10:59:43.772Z</time></trkpt><trkpt lat="42.7322067" lon="11.4686317"><ele>465.0</ele><time>2026-04-18T10:59:44.773Z</time></trkpt><trkpt lat="42.7322067" lon="11.4684033"><ele>464.0</ele><time>2026-04-18T10:59:45.769Z</time></trkpt><trkpt lat="42.73222" lon="11.4681867"><ele>463.0</ele><time>2026-04-18T10:59:46.77Z</time></trkpt><trkpt lat="42.73225" lon="11.467995"><ele>462.0</ele><time>2026-04-18T10:59:47.771Z</time></trkpt><trkpt lat="42.732265" lon="11.4678467"><ele>461.0</ele><time>2026-04-18T10:59:48.773Z</time></trkpt><trkpt lat="42.7322483" lon="11.467715"><ele>459.20000000000005</ele><time>2026-04-18T10:59:49.77Z</time></trkpt><trkpt lat="42.7322383" lon="11.4675817"><ele>457.40000000000003</ele><time>2026-04-18T10:59:50.771Z</time></trkpt><trkpt lat="42.7322083" lon="11.46747"><ele>455.6</ele><time>2026-04-18T10:59:51.772Z</time></trkpt><trkpt lat="42.7321533" lon="11.467385"><ele>453.8</ele><time>2026-04-18T10:59:52.773Z</time></trkpt><trkpt lat="42.73208" lon="11.46734"><ele>452.0</ele><time>2026-04-18T10:59:53.766Z</time></trkpt><trkpt lat="42.73196" lon="11.467355"><ele>451.3333333333333</ele><time>2026-04-18T10:59:54.774Z</time></trkpt><trkpt lat="42.7317833" lon="11.4674567"><ele>450.66666666666663</ele><time>2026-04-18T10:59:55.766Z</time></trkpt><trkpt lat="42.7316267" lon="11.4675583"><ele>450.0</ele><time>2026-04-18T10:59:56.768Z</time></trkpt><trkpt lat="42.7314783" lon="11.4676417"><ele>450.0</ele><time>2026-04-18T10:59:57.769Z</time></trkpt><trkpt lat="42.731345" lon="11.4676983"><ele>450.0</ele><time>2026-04-18T10:59:58.772Z</time></trkpt><trkpt lat="42.73121" lon="11.4677383"><ele>450.0</ele><time>2026-04-18T10:59:59.77Z</time></trkpt><trkpt lat="42.7310867" lon="11.4677817"><ele>450.0</ele><time>2026-04-18T11:00:00.77Z</time></trkpt><trkpt lat="42.730965" lon="11.4677883"><ele>448.75</ele><time>2026-04-18T11:00:01.765Z</time></trkpt><trkpt lat="42.730845" lon="11.4677667"><ele>447.5</ele><time>2026-04-18T11:00:02.767Z</time></trkpt><trkpt lat="42.730725" lon="11.4676983"><ele>446.25</ele><time>2026-04-18T11:00:03.766Z</time></trkpt><trkpt lat="42.7306083" lon="11.4676117"><ele>445.0</ele><time>2026-04-18T11:00:04.767Z</time></trkpt><trkpt lat="42.730485" lon="11.46751"><ele>445.0</ele><time>2026-04-18T11:00:05.761Z</time></trkpt><trkpt lat="42.7303667" lon="11.4674267"><ele>445.0</ele><time>2026-04-18T11:00:06.769Z</time></trkpt><trkpt lat="42.7302433" lon="11.4673767"><ele>445.0</ele><time>2026-04-18T11:00:07.768Z</time></trkpt><trkpt lat="42.7301133" lon="11.4673633"><ele>445.0</ele><time>2026-04-18T11:00:08.769Z</time></trkpt><trkpt lat="42.7299717" lon="11.4673667"><ele>444.25</ele><time>2026-04-18T11:00:09.77Z</time></trkpt><trkpt lat="42.7298317" lon="11.46738"><ele>443.5</ele><time>2026-04-18T11:00:10.766Z</time></trkpt><trkpt lat="42.729695" lon="11.4673967"><ele>442.75</ele><time>2026-04-18T11:00:11.772Z</time></trkpt><trkpt lat="42.7295667" lon="11.4674217"><ele>442.0</ele><time>2026-04-18T11:00:12.77Z</time></trkpt><trkpt lat="42.7294417" lon="11.46747"><ele>441.25</ele><time>2026-04-18T11:00:13.769Z</time></trkpt><trkpt lat="42.7293133" lon="11.46752"><ele>440.5</ele><time>2026-04-18T11:00:14.77Z</time></trkpt><trkpt lat="42.729195" lon="11.46758"><ele>439.75</ele><time>2026-04-18T11:00:15.77Z</time></trkpt><trkpt lat="42.72908" lon="11.4676433"><ele>439.0</ele><time>2026-04-18T11:00:16.771Z</time></trkpt><trkpt lat="42.72897" lon="11.46772"><ele>439.0</ele><time>2026-04-18T11:00:17.769Z</time></trkpt><trkpt lat="42.7288783" lon="11.4678217"><ele>439.0</ele><time>2026-04-18T11:00:18.77Z</time></trkpt><trkpt lat="42.7288017" lon="11.4679517"><ele>439.0</ele><time>2026-04-18T11:00:19.771Z</time></trkpt><trkpt lat="42.7287467" lon="11.4680833"><ele>439.0</ele><time>2026-04-18T11:00:20.776Z</time></trkpt><trkpt lat="42.7286833" lon="11.4682"><ele>438.79999999999995</ele><time>2026-04-18T11:00:21.769Z</time></trkpt><trkpt lat="42.7286067" lon="11.4682817"><ele>438.59999999999997</ele><time>2026-04-18T11:00:22.771Z</time></trkpt><trkpt lat="42.7285117" lon="11.4683267"><ele>438.4</ele><time>2026-04-18T11:00:23.77Z</time></trkpt><trkpt lat="42.728395" lon="11.4683533"><ele>438.2</ele><time>2026-04-18T11:00:24.769Z</time></trkpt><trkpt lat="42.7282817" lon="11.4683867"><ele>438.0</ele><time>2026-04-18T11:00:25.773Z</time></trkpt><trkpt lat="42.72818" lon="11.4684467"><ele>438.0</ele><time>2026-04-18T11:00:26.771Z</time></trkpt><trkpt lat="42.728075" lon="11.4685183"><ele>438.0</ele><time>2026-04-18T11:00:27.769Z</time></trkpt><trkpt lat="42.7279683" lon="11.468595"><ele>438.0</ele><time>2026-04-18T11:00:28.77Z</time></trkpt><trkpt lat="42.7278617" lon="11.4686583"><ele>438.0</ele><time>2026-04-18T11:00:29.771Z</time></trkpt><trkpt lat="42.7277483" lon="11.4686883"><ele>435.75</ele><time>2026-04-18T11:00:30.773Z</time></trkpt><trkpt lat="42.727645" lon="11.468685"><ele>433.5</ele><time>2026-04-18T11:00:31.769Z</time></trkpt><trkpt lat="42.727545" lon="11.4686467"><ele>431.25</ele><time>2026-04-18T11:00:32.771Z</time></trkpt><trkpt lat="42.7274367" lon="11.4685483"><ele>429.0</ele><time>2026-04-18T11:00:33.77Z</time></trkpt><trkpt lat="42.727355" lon="11.4683967"><ele>429.0</ele><time>2026-04-18T11:00:34.772Z</time></trkpt><trkpt lat="42.7272833" lon="11.4682433"><ele>429.0</ele><time>2026-04-18T11:00:35.771Z</time></trkpt><trkpt lat="42.7272" lon="11.4680933"><ele>429.0</ele><time>2026-04-18T11:00:36.768Z</time></trkpt><trkpt lat="42.7270967" lon="11.4679667"><ele>429.0</ele><time>2026-04-18T11:00:37.772Z</time></trkpt><trkpt lat="42.7269733" lon="11.46786"><ele>425.25</ele><time>2026-04-18T11:00:38.772Z</time></trkpt><trkpt lat="42.7268533" lon="11.4677583"><ele>421.5</ele><time>2026-04-18T11:00:39.771Z</time></trkpt><trkpt lat="42.72675" lon="11.467665"><ele>417.75</ele><time>2026-04-18T11:00:40.773Z</time></trkpt><trkpt lat="42.7266467" lon="11.4676083"><ele>414.0</ele><time>2026-04-18T11:00:41.771Z</time></trkpt><trkpt lat="42.7265467" lon="11.4676067"><ele>414.0</ele><time>2026-04-18T11:00:42.772Z</time></trkpt><trkpt lat="42.7264533" lon="11.467645"><ele>414.0</ele><time>2026-04-18T11:00:43.77Z</time></trkpt><trkpt lat="42.7263583" lon="11.4677167"><ele>414.0</ele><time>2026-04-18T11:00:44.773Z</time></trkpt><trkpt lat="42.7262567" lon="11.4678067"><ele>414.0</ele><time>2026-04-18T11:00:45.77Z</time></trkpt><trkpt lat="42.7261417" lon="11.4678783"><ele>412.0</ele><time>2026-04-18T11:00:46.766Z</time></trkpt><trkpt lat="42.726015" lon="11.4679217"><ele>410.0</ele><time>2026-04-18T11:00:47.77Z</time></trkpt><trkpt lat="42.7258683" lon="11.467955"><ele>408.0</ele><time>2026-04-18T11:00:48.771Z</time></trkpt><trkpt lat="42.72572" lon="11.4679933"><ele>406.0</ele><time>2026-04-18T11:00:49.77Z</time></trkpt><trkpt lat="42.72558" lon="11.4680383"><ele>409.5</ele><time>2026-04-18T11:00:50.774Z</time></trkpt><trkpt lat="42.7254533" lon="11.4680783"><ele>413.0</ele><time>2026-04-18T11:00:51.769Z</time></trkpt><trkpt lat="42.725335" lon="11.4680983"><ele>416.5</ele><time>2026-04-18T11:00:52.768Z</time></trkpt><trkpt lat="42.7252267" lon="11.4681033"><ele>420.0</ele><time>2026-04-18T11:00:53.77Z</time></trkpt><trkpt lat="42.725125" lon="11.4680767"><ele>420.0</ele><time>2026-04-18T11:00:54.765Z</time></trkpt><trkpt lat="42.7250267" lon="11.4680033"><ele>420.0</ele><time>2026-04-18T11:00:55.773Z</time></trkpt><trkpt lat="42.7249433" lon="11.4679017"><ele>420.0</ele><time>2026-04-18T11:00:56.772Z</time></trkpt><trkpt lat="42.724875" lon="11.467785"><ele>420.0</ele><time>2026-04-18T11:00:57.759Z</time></trkpt><trkpt lat="42.7248417" lon="11.46766"><ele>420.0</ele><time>2026-04-18T11:00:58.768Z</time></trkpt><trkpt lat="42.7248383" lon="11.467505"><ele>417.0</ele><time>2026-04-18T11:00:59.773Z</time></trkpt><trkpt lat="42.7248467" lon="11.467345"><ele>414.0</ele><time>2026-04-18T11:01:00.773Z</time></trkpt><trkpt lat="42.7248533" lon="11.4671867"><ele>411.0</ele><time>2026-04-18T11:01:01.768Z</time></trkpt><trkpt lat="42.7248717" lon="11.46702"><ele>408.0</ele><time>2026-04-18T11:01:02.772Z</time></trkpt><trkpt lat="42.724875" lon="11.4668517"><ele>407.4</ele><time>2026-04-18T11:01:03.772Z</time></trkpt><trkpt lat="42.724875" lon="11.4667067"><ele>406.79999999999995</ele><time>2026-04-18T11:01:04.773Z</time></trkpt><trkpt lat="42.7248833" lon="11.4665717"><ele>406.2</ele><time>2026-04-18T11:01:05.769Z</time></trkpt><trkpt lat="42.724895" lon="11.466445"><ele>405.6</ele><time>2026-04-18T11:01:06.773Z</time></trkpt><trkpt lat="42.724905" lon="11.466325"><ele>405.0</ele><time>2026-04-18T11:01:07.771Z</time></trkpt><trkpt lat="42.72492" lon="11.466195"><ele>404.6</ele><time>2026-04-18T11:01:08.773Z</time></trkpt><trkpt lat="42.7249483" lon="11.4660667"><ele>404.2</ele><time>2026-04-18T11:01:09.771Z</time></trkpt><trkpt lat="42.724975" lon="11.4659417"><ele>403.79999999999995</ele><time>2026-04-18T11:01:10.769Z</time></trkpt><trkpt lat="42.7250117" lon="11.4658117"><ele>403.4</ele><time>2026-04-18T11:01:11.77Z</time></trkpt><trkpt lat="42.72505" lon="11.4656817"><ele>403.0</ele><time>2026-04-18T11:01:12.771Z</time></trkpt><trkpt lat="42.725075" lon="11.46555"><ele>401.79999999999995</ele><time>2026-04-18T11:01:13.771Z</time></trkpt><trkpt lat="42.725105" lon="11.4654083"><ele>400.6</ele><time>2026-04-18T11:01:14.772Z</time></trkpt><trkpt lat="42.725125" lon="11.4652833"><ele>399.4</ele><time>2026-04-18T11:01:15.77Z</time></trkpt><trkpt lat="42.72514" lon="11.4651583"><ele>398.20000000000005</ele><time>2026-04-18T11:01:16.77Z</time></trkpt><trkpt lat="42.72515" lon="11.4650317"><ele>397.0</ele><time>2026-04-18T11:01:17.771Z</time></trkpt><trkpt lat="42.72515" lon="11.4649183"><ele>397.00000000000006</ele><time>2026-04-18T11:01:18.77Z</time></trkpt><trkpt lat="42.7251333" lon="11.464815"><ele>397.0</ele><time>2026-04-18T11:01:19.768Z</time></trkpt><trkpt lat="42.725095" lon="11.4647167"><ele>397.0</ele><time>2026-04-18T11:01:20.773Z</time></trkpt><trkpt lat="42.7250383" lon="11.46464"><ele>397.0</ele><time>2026-04-18T11:01:21.771Z</time></trkpt><trkpt lat="42.7249683" lon="11.4645767"><ele>397.00000000000006</ele><time>2026-04-18T11:01:22.768Z</time></trkpt><trkpt lat="42.724875" lon="11.4645283"><ele>397.0</ele><time>2026-04-18T11:01:23.771Z</time></trkpt><trkpt lat="42.7247633" lon="11.4644717"><ele>397.0</ele><time>2026-04-18T11:01:24.773Z</time></trkpt><trkpt lat="42.72466" lon="11.464385"><ele>397.0</ele><time>2026-04-18T11:01:25.77Z</time></trkpt><trkpt lat="42.724545" lon="11.4642933"><ele>397.0</ele><time>2026-04-18T11:01:26.772Z</time></trkpt><trkpt lat="42.7244183" lon="11.4642033"><ele>397.0</ele><time>2026-04-18T11:01:27.772Z</time></trkpt><trkpt lat="42.7242933" lon="11.464115"><ele>397.0</ele><time>2026-04-18T11:01:28.77Z</time></trkpt><trkpt lat="42.7241667" lon="11.4640317"><ele>397.0</ele><time>2026-04-18T11:01:29.768Z</time></trkpt><trkpt lat="42.724035" lon="11.46395"><ele>397.0</ele><time>2026-04-18T11:01:30.769Z</time></trkpt><trkpt lat="42.723905" lon="11.4638717"><ele>397.0</ele><time>2026-04-18T11:01:31.772Z</time></trkpt><trkpt lat="42.723785" lon="11.4638083"><ele>395.8</ele><time>2026-04-18T11:01:32.775Z</time></trkpt><trkpt lat="42.72368" lon="11.463755"><ele>394.6</ele><time>2026-04-18T11:01:33.771Z</time></trkpt><trkpt lat="42.723585" lon="11.4637033"><ele>393.40000000000003</ele><time>2026-04-18T11:01:34.772Z</time></trkpt><trkpt lat="42.723495" lon="11.4636717"><ele>392.20000000000005</ele><time>2026-04-18T11:01:35.771Z</time></trkpt><trkpt lat="42.7234033" lon="11.4636517"><ele>391.0</ele><time>2026-04-18T11:01:36.772Z</time></trkpt><trkpt lat="42.7232983" lon="11.4636567"><ele>391.0</ele><time>2026-04-18T11:01:37.771Z</time></trkpt><trkpt lat="42.7231917" lon="11.4636833"><ele>391.0</ele><time>2026-04-18T11:01:38.771Z</time></trkpt><trkpt lat="42.723085" lon="11.4637383"><ele>391.0</ele><time>2026-04-18T11:01:39.773Z</time></trkpt><trkpt lat="42.7229833" lon="11.4638233"><ele>391.0</ele><time>2026-04-18T11:01:40.773Z</time></trkpt><trkpt lat="42.7228883" lon="11.463925"><ele>390.5</ele><time>2026-04-18T11:01:41.769Z</time></trkpt><trkpt lat="42.7227983" lon="11.4640383"><ele>390.0</ele><time>2026-04-18T11:01:42.771Z</time></trkpt><trkpt lat="42.7227067" lon="11.4641517"><ele>389.5</ele><time>2026-04-18T11:01:43.772Z</time></trkpt><trkpt lat="42.7226183" lon="11.4642683"><ele>389.0</ele><time>2026-04-18T11:01:44.773Z</time></trkpt><trkpt lat="42.7225283" lon="11.4643817"><ele>389.0</ele><time>2026-04-18T11:01:45.773Z</time></trkpt><trkpt lat="42.7224467" lon="11.4645"><ele>389.0</ele><time>2026-04-18T11:01:46.772Z</time></trkpt><trkpt lat="42.7223667" lon="11.4646117"><ele>389.0</ele><time>2026-04-18T11:01:47.773Z</time></trkpt><trkpt lat="42.7222917" lon="11.4647217"><ele>389.0</ele><time>2026-04-18T11:01:48.772Z</time></trkpt><trkpt lat="42.7222233" lon="11.4648467"><ele>390.0</ele><time>2026-04-18T11:01:49.771Z</time></trkpt><trkpt lat="42.7221633" lon="11.4649817"><ele>391.0</ele><time>2026-04-18T11:01:50.775Z</time></trkpt><trkpt lat="42.7221067" lon="11.4651283"><ele>392.0</ele><time>2026-04-18T11:01:51.773Z</time></trkpt><trkpt lat="42.72205" lon="11.46528"><ele>393.0</ele><time>2026-04-18T11:01:52.773Z</time></trkpt><trkpt lat="42.7219967" lon="11.4654383"><ele>392.75</ele><time>2026-04-18T11:01:53.773Z</time></trkpt><trkpt lat="42.7219383" lon="11.4656"><ele>392.5</ele><time>2026-04-18T11:01:54.771Z</time></trkpt><trkpt lat="42.7218867" lon="11.465765"><ele>392.25</ele><time>2026-04-18T11:01:55.771Z</time></trkpt><trkpt lat="42.721835" lon="11.4659317"><ele>392.0</ele><time>2026-04-18T11:01:56.774Z</time></trkpt><trkpt lat="42.7217783" lon="11.4660967"><ele>388.25</ele><time>2026-04-18T11:01:57.772Z</time></trkpt><trkpt lat="42.7217133" lon="11.4662583"><ele>384.5</ele><time>2026-04-18T11:01:58.773Z</time></trkpt><trkpt lat="42.721645" lon="11.4664217"><ele>380.75</ele><time>2026-04-18T11:01:59.772Z</time></trkpt><trkpt lat="42.7215717" lon="11.466585"><ele>377.0</ele><time>2026-04-18T11:02:00.771Z</time></trkpt><trkpt lat="42.721495" lon="11.4667417"><ele>377.0</ele><time>2026-04-18T11:02:01.768Z</time></trkpt><trkpt lat="42.7214183" lon="11.4668883"><ele>377.0</ele><time>2026-04-18T11:02:02.772Z</time></trkpt><trkpt lat="42.7213433" lon="11.4670283"><ele>377.0</ele><time>2026-04-18T11:02:03.769Z</time></trkpt><trkpt lat="42.72127" lon="11.46717"><ele>377.0</ele><time>2026-04-18T11:02:04.773Z</time></trkpt><trkpt lat="42.7212017" lon="11.4673117"><ele>377.25</ele><time>2026-04-18T11:02:05.77Z</time></trkpt><trkpt lat="42.7211417" lon="11.4674533"><ele>377.5</ele><time>2026-04-18T11:02:06.772Z</time></trkpt><trkpt lat="42.7210917" lon="11.4675983"><ele>377.75</ele><time>2026-04-18T11:02:07.771Z</time></trkpt><trkpt lat="42.72105" lon="11.467745"><ele>378.0</ele><time>2026-04-18T11:02:08.773Z</time></trkpt><trkpt lat="42.7210233" lon="11.4678933"><ele>377.2</ele><time>2026-04-18T11:02:09.77Z</time></trkpt><trkpt lat="42.7210233" lon="11.4680467"><ele>376.4</ele><time>2026-04-18T11:02:10.771Z</time></trkpt><trkpt lat="42.7210467" lon="11.4681933"><ele>375.59999999999997</ele><time>2026-04-18T11:02:11.772Z</time></trkpt><trkpt lat="42.7210867" lon="11.468325"><ele>374.79999999999995</ele><time>2026-04-18T11:02:12.771Z</time></trkpt><trkpt lat="42.7211333" lon="11.4684467"><ele>374.0</ele><time>2026-04-18T11:02:13.771Z</time></trkpt><trkpt lat="42.7211817" lon="11.4685517"><ele>374.0</ele><time>2026-04-18T11:02:14.774Z</time></trkpt><trkpt lat="42.721225" lon="11.4686517"><ele>374.0</ele><time>2026-04-18T11:02:15.77Z</time></trkpt><trkpt lat="42.7212683" lon="11.4687467"><ele>374.0</ele><time>2026-04-18T11:02:16.771Z</time></trkpt><trkpt lat="42.7213133" lon="11.4688333"><ele>374.0</ele><time>2026-04-18T11:02:17.771Z</time></trkpt><trkpt lat="42.7213467" lon="11.4689167"><ele>374.0</ele><time>2026-04-18T11:02:18.773Z</time></trkpt><trkpt lat="42.721375" lon="11.4690383"><ele>374.0</ele><time>2026-04-18T11:02:20.774Z</time></trkpt><trkpt lat="42.721305" lon="11.4691517"><ele>373.6</ele><time>2026-04-18T11:02:22.77Z</time></trkpt><trkpt lat="42.7212167" lon="11.4692067"><ele>373.2</ele><time>2026-04-18T11:02:23.773Z</time></trkpt><trkpt lat="42.7211067" lon="11.4692417"><ele>372.8</ele><time>2026-04-18T11:02:24.775Z</time></trkpt><trkpt lat="42.72103" lon="11.4692967"><ele>372.40000000000003</ele><time>2026-04-18T11:02:25.771Z</time></trkpt><trkpt lat="42.7209467" lon="11.469365"><ele>372.0</ele><time>2026-04-18T11:02:26.772Z</time></trkpt><trkpt lat="42.7208567" lon="11.4694467"><ele>371.0</ele><time>2026-04-18T11:02:27.771Z</time></trkpt><trkpt lat="42.7207817" lon="11.4695383"><ele>370.0</ele><time>2026-04-18T11:02:28.772Z</time></trkpt><trkpt lat="42.7207017" lon="11.469635"><ele>369.0</ele><time>2026-04-18T11:02:29.767Z</time></trkpt><trkpt lat="42.7206283" lon="11.469745"><ele>368.0</ele><time>2026-04-18T11:02:30.773Z</time></trkpt><trkpt lat="42.7205567" lon="11.4698633"><ele>367.0</ele><time>2026-04-18T11:02:31.772Z</time></trkpt><trkpt lat="42.720485" lon="11.4699867"><ele>367.0</ele><time>2026-04-18T11:02:32.772Z</time></trkpt><trkpt lat="42.72041" lon="11.4700883"><ele>367.0</ele><time>2026-04-18T11:02:33.771Z</time></trkpt><trkpt lat="42.7203367" lon="11.4701783"><ele>367.0</ele><time>2026-04-18T11:02:34.772Z</time></trkpt><trkpt lat="42.720285" lon="11.4702667"><ele>367.0</ele><time>2026-04-18T11:02:35.773Z</time></trkpt><trkpt lat="42.7202533" lon="11.4703633"><ele>367.0</ele><time>2026-04-18T11:02:36.772Z</time></trkpt><trkpt lat="42.7202317" lon="11.470475"><ele>367.16666666666663</ele><time>2026-04-18T11:02:37.769Z</time></trkpt><trkpt lat="42.72024" lon="11.470585"><ele>367.3333333333333</ele><time>2026-04-18T11:02:38.775Z</time></trkpt><trkpt lat="42.7202317" lon="11.4706817"><ele>367.5</ele><time>2026-04-18T11:02:39.773Z</time></trkpt><trkpt lat="42.72021" lon="11.4707867"><ele>367.6666666666667</ele><time>2026-04-18T11:02:40.768Z</time></trkpt><trkpt lat="42.7201617" lon="11.4708983"><ele>367.83333333333337</ele><time>2026-04-18T11:02:41.772Z</time></trkpt><trkpt lat="42.7200983" lon="11.471025"><ele>368.0</ele><time>2026-04-18T11:02:42.769Z</time></trkpt><trkpt lat="42.7200367" lon="11.4711567"><ele>366.2</ele><time>2026-04-18T11:02:43.771Z</time></trkpt><trkpt lat="42.7199683" lon="11.4712833"><ele>364.4</ele><time>2026-04-18T11:02:44.771Z</time></trkpt><trkpt lat="42.7198833" lon="11.4713883"><ele>362.59999999999997</ele><time>2026-04-18T11:02:45.77Z</time></trkpt><trkpt lat="42.71981" lon="11.4714917"><ele>360.79999999999995</ele><time>2026-04-18T11:02:46.771Z</time></trkpt><trkpt lat="42.71975" lon="11.4715883"><ele>359.0</ele><time>2026-04-18T11:02:47.774Z</time></trkpt><trkpt lat="42.7196917" lon="11.4716733"><ele>359.0</ele><time>2026-04-18T11:02:48.774Z</time></trkpt><trkpt lat="42.7196233" lon="11.4717467"><ele>359.0</ele><time>2026-04-18T11:02:49.771Z</time></trkpt><trkpt lat="42.7195467" lon="11.4718233"><ele>359.0</ele><time>2026-04-18T11:02:50.773Z</time></trkpt><trkpt lat="42.71944" lon="11.4718667"><ele>359.0</ele><time>2026-04-18T11:02:51.773Z</time></trkpt><trkpt lat="42.719325" lon="11.4719333"><ele>359.0</ele><time>2026-04-18T11:02:52.77Z</time></trkpt><trkpt lat="42.719205" lon="11.4720067"><ele>359.0</ele><time>2026-04-18T11:02:53.77Z</time></trkpt><trkpt lat="42.7190733" lon="11.4720783"><ele>359.0</ele><time>2026-04-18T11:02:54.774Z</time></trkpt><trkpt lat="42.7189233" lon="11.47212"><ele>359.0</ele><time>2026-04-18T11:02:55.773Z</time></trkpt><trkpt lat="42.7187767" lon="11.4721567"><ele>359.0</ele><time>2026-04-18T11:02:56.775Z</time></trkpt><trkpt lat="42.71864" lon="11.47219"><ele>357.25</ele><time>2026-04-18T11:02:57.771Z</time></trkpt><trkpt lat="42.7185217" lon="11.4722417"><ele>355.5</ele><time>2026-04-18T11:02:58.772Z</time></trkpt><trkpt lat="42.71842" lon="11.4723183"><ele>353.75</ele><time>2026-04-18T11:02:59.773Z</time></trkpt><trkpt lat="42.718315" lon="11.4724133"><ele>352.0</ele><time>2026-04-18T11:03:00.771Z</time></trkpt><trkpt lat="42.7182083" lon="11.4725133"><ele>352.0</ele><time>2026-04-18T11:03:01.77Z</time></trkpt><trkpt lat="42.7180967" lon="11.4726"><ele>352.0</ele><time>2026-04-18T11:03:02.773Z</time></trkpt><trkpt lat="42.7179883" lon="11.4726767"><ele>352.0</ele><time>2026-04-18T11:03:03.771Z</time></trkpt><trkpt lat="42.7178883" lon="11.47275"><ele>352.0</ele><time>2026-04-18T11:03:04.77Z</time></trkpt><trkpt lat="42.7177983" lon="11.4728383"><ele>351.0</ele><time>2026-04-18T11:03:05.771Z</time></trkpt><trkpt lat="42.7177183" lon="11.4729483"><ele>350.0</ele><time>2026-04-18T11:03:06.771Z</time></trkpt><trkpt lat="42.7176367" lon="11.4730667"><ele>349.0</ele><time>2026-04-18T11:03:07.771Z</time></trkpt><trkpt lat="42.7175483" lon="11.4731783"><ele>348.0</ele><time>2026-04-18T11:03:08.775Z</time></trkpt><trkpt lat="42.7174617" lon="11.473285"><ele>348.0</ele><time>2026-04-18T11:03:09.772Z</time></trkpt><trkpt lat="42.7173883" lon="11.4733817"><ele>348.0</ele><time>2026-04-18T11:03:10.771Z</time></trkpt><trkpt lat="42.7173367" lon="11.4734867"><ele>348.0</ele><time>2026-04-18T11:03:11.773Z</time></trkpt><trkpt lat="42.7173033" lon="11.4736"><ele>348.0</ele><time>2026-04-18T11:03:12.772Z</time></trkpt><trkpt lat="42.7172933" lon="11.4737283"><ele>348.0</ele><time>2026-04-18T11:03:13.771Z</time></trkpt><trkpt lat="42.7173083" lon="11.4738533"><ele>349.0</ele><time>2026-04-18T11:03:14.773Z</time></trkpt><trkpt lat="42.71732" lon="11.4739683"><ele>350.0</ele><time>2026-04-18T11:03:15.773Z</time></trkpt><trkpt lat="42.7173217" lon="11.4740767"><ele>351.0</ele><time>2026-04-18T11:03:16.765Z</time></trkpt><trkpt lat="42.7173167" lon="11.47418"><ele>352.0</ele><time>2026-04-18T11:03:17.771Z</time></trkpt><trkpt lat="42.7172883" lon="11.4742633"><ele>353.0</ele><time>2026-04-18T11:03:18.773Z</time></trkpt><trkpt lat="42.7172033" lon="11.4743783"><ele>354.0</ele><time>2026-04-18T11:03:20.773Z</time></trkpt><trkpt lat="42.7171167" lon="11.4744067"><ele>354.0</ele><time>2026-04-18T11:03:21.771Z</time></trkpt><trkpt lat="42.7170217" lon="11.4744383"><ele>354.0</ele><time>2026-04-18T11:03:22.771Z</time></trkpt><trkpt lat="42.7169217" lon="11.4744917"><ele>354.0</ele><time>2026-04-18T11:03:23.773Z</time></trkpt><trkpt lat="42.7168383" lon="11.4745917"><ele>354.0</ele><time>2026-04-18T11:03:24.775Z</time></trkpt><trkpt lat="42.7167533" lon="11.4747067"><ele>354.0</ele><time>2026-04-18T11:03:25.768Z</time></trkpt><trkpt lat="42.7166767" lon="11.4748167"><ele>352.5</ele><time>2026-04-18T11:03:26.773Z</time></trkpt><trkpt lat="42.716595" lon="11.4749283"><ele>351.0</ele><time>2026-04-18T11:03:27.774Z</time></trkpt><trkpt lat="42.7165033" lon="11.4750317"><ele>349.5</ele><time>2026-04-18T11:03:28.77Z</time></trkpt><trkpt lat="42.716415" lon="11.47512"><ele>348.0</ele><time>2026-04-18T11:03:29.771Z</time></trkpt><trkpt lat="42.7163167" lon="11.4751967"><ele>348.0</ele><time>2026-04-18T11:03:30.765Z</time></trkpt><trkpt lat="42.7162217" lon="11.4752783"><ele>348.0</ele><time>2026-04-18T11:03:31.773Z</time></trkpt><trkpt lat="42.716115" lon="11.4753583"><ele>348.0</ele><time>2026-04-18T11:03:32.774Z</time></trkpt><trkpt lat="42.716015" lon="11.475435"><ele>348.0</ele><time>2026-04-18T11:03:33.771Z</time></trkpt><trkpt lat="42.7159217" lon="11.47551"><ele>347.59999999999997</ele><time>2026-04-18T11:03:34.772Z</time></trkpt><trkpt lat="42.715825" lon="11.4755817"><ele>347.2</ele><time>2026-04-18T11:03:35.77Z</time></trkpt><trkpt lat="42.715735" lon="11.47565"><ele>346.8</ele><time>2026-04-18T11:03:36.776Z</time></trkpt><trkpt lat="42.7156483" lon="11.47572"><ele>346.4</ele><time>2026-04-18T11:03:37.771Z</time></trkpt><trkpt lat="42.7155617" lon="11.4757933"><ele>346.0</ele><time>2026-04-18T11:03:38.773Z</time></trkpt><trkpt lat="42.715475" lon="11.475865"><ele>346.0</ele><time>2026-04-18T11:03:39.77Z</time></trkpt><trkpt lat="42.7153983" lon="11.47594"><ele>346.0</ele><time>2026-04-18T11:03:40.766Z</time></trkpt><trkpt lat="42.71532" lon="11.4760117"><ele>346.0</ele><time>2026-04-18T11:03:41.772Z</time></trkpt><trkpt lat="42.715245" lon="11.4760817"><ele>346.0</ele><time>2026-04-18T11:03:42.766Z</time></trkpt><trkpt lat="42.7151633" lon="11.4761567"><ele>346.0</ele><time>2026-04-18T11:03:43.771Z</time></trkpt><trkpt lat="42.7150733" lon="11.4762333"><ele>345.20000000000005</ele><time>2026-04-18T11:03:44.773Z</time></trkpt><trkpt lat="42.71498" lon="11.4763067"><ele>344.40000000000003</ele><time>2026-04-18T11:03:45.772Z</time></trkpt><trkpt lat="42.7148867" lon="11.476375"><ele>343.6</ele><time>2026-04-18T11:03:46.771Z</time></trkpt><trkpt lat="42.7148033" lon="11.4764467"><ele>342.8</ele><time>2026-04-18T11:03:47.771Z</time></trkpt><trkpt lat="42.7147283" lon="11.4765417"><ele>342.0</ele><time>2026-04-18T11:03:48.773Z</time></trkpt><trkpt lat="42.7146533" lon="11.476655"><ele>342.0</ele><time>2026-04-18T11:03:49.772Z</time></trkpt><trkpt lat="42.714575" lon="11.47677"><ele>342.0</ele><time>2026-04-18T11:03:50.773Z</time></trkpt><trkpt lat="42.7144867" lon="11.4768833"><ele>342.0</ele><time>2026-04-18T11:03:51.773Z</time></trkpt><trkpt lat="42.7143967" lon="11.4769917"><ele>342.0</ele><time>2026-04-18T11:03:52.771Z</time></trkpt><trkpt lat="42.7143133" lon="11.4771083"><ele>340.75</ele><time>2026-04-18T11:03:53.773Z</time></trkpt><trkpt lat="42.7142417" lon="11.4772367"><ele>339.5</ele><time>2026-04-18T11:03:54.773Z</time></trkpt><trkpt lat="42.714175" lon="11.4773683"><ele>338.25</ele><time>2026-04-18T11:03:55.771Z</time></trkpt><trkpt lat="42.7141133" lon="11.477505"><ele>337.0</ele><time>2026-04-18T11:03:56.773Z</time></trkpt><trkpt lat="42.7140583" lon="11.4776417"><ele>337.0</ele><time>2026-04-18T11:03:57.771Z</time></trkpt><trkpt lat="42.7140017" lon="11.4777883"><ele>337.0</ele><time>2026-04-18T11:03:58.77Z</time></trkpt><trkpt lat="42.7139517" lon="11.4779483"><ele>337.0</ele><time>2026-04-18T11:03:59.771Z</time></trkpt><trkpt lat="42.7139133" lon="11.4781017"><ele>337.0</ele><time>2026-04-18T11:04:00.775Z</time></trkpt><trkpt lat="42.713885" lon="11.4782483"><ele>338.40000000000003</ele><time>2026-04-18T11:04:01.771Z</time></trkpt><trkpt lat="42.7138667" lon="11.4784"><ele>339.8</ele><time>2026-04-18T11:04:02.774Z</time></trkpt><trkpt lat="42.7138467" lon="11.47855"><ele>341.2</ele><time>2026-04-18T11:04:03.77Z</time></trkpt><trkpt lat="42.7138117" lon="11.478685"><ele>342.6</ele><time>2026-04-18T11:04:04.768Z</time></trkpt><trkpt lat="42.7137583" lon="11.47881"><ele>344.0</ele><time>2026-04-18T11:04:05.767Z</time></trkpt><trkpt lat="42.7136983" lon="11.4789267"><ele>344.83333333333337</ele><time>2026-04-18T11:04:06.772Z</time></trkpt><trkpt lat="42.7136617" lon="11.47902"><ele>345.6666666666667</ele><time>2026-04-18T11:04:07.773Z</time></trkpt><trkpt lat="42.713625" lon="11.47911"><ele>346.5</ele><time>2026-04-18T11:04:08.774Z</time></trkpt><trkpt lat="42.7135967" lon="11.4792167"><ele>347.3333333333333</ele><time>2026-04-18T11:04:09.771Z</time></trkpt><trkpt lat="42.7135717" lon="11.4793317"><ele>348.16666666666663</ele><time>2026-04-18T11:04:10.771Z</time></trkpt><trkpt lat="42.71355" lon="11.47946"><ele>349.0</ele><time>2026-04-18T11:04:11.771Z</time></trkpt><trkpt lat="42.7135267" lon="11.4795933"><ele>346.2</ele><time>2026-04-18T11:04:12.765Z</time></trkpt><trkpt lat="42.7134983" lon="11.4797267"><ele>343.4</ele><time>2026-04-18T11:04:13.77Z</time></trkpt><trkpt lat="42.7134633" lon="11.47985"><ele>340.6</ele><time>2026-04-18T11:04:14.773Z</time></trkpt><trkpt lat="42.7134317" lon="11.4799683"><ele>337.8</ele><time>2026-04-18T11:04:15.772Z</time></trkpt><trkpt lat="42.7133983" lon="11.4800717"><ele>335.0</ele><time>2026-04-18T11:04:16.772Z</time></trkpt><trkpt lat="42.7133583" lon="11.480165"><ele>335.0</ele><time>2026-04-18T11:04:17.771Z</time></trkpt><trkpt lat="42.7133217" lon="11.4802583"><ele>335.0</ele><time>2026-04-18T11:04:18.772Z</time></trkpt><trkpt lat="42.71329" lon="11.4803583"><ele>335.0</ele><time>2026-04-18T11:04:19.77Z</time></trkpt><trkpt lat="42.7132667" lon="11.48046"><ele>335.0</ele><time>2026-04-18T11:04:20.774Z</time></trkpt><trkpt lat="42.7132517" lon="11.48057"><ele>335.0</ele><time>2026-04-18T11:04:21.771Z</time></trkpt><trkpt lat="42.7132367" lon="11.480685"><ele>335.0</ele><time>2026-04-18T11:04:22.771Z</time></trkpt><trkpt lat="42.7132183" lon="11.4807967"><ele>335.0</ele><time>2026-04-18T11:04:23.773Z</time></trkpt><trkpt lat="42.713195" lon="11.4809"><ele>335.0</ele><time>2026-04-18T11:04:24.774Z</time></trkpt><trkpt lat="42.7131633" lon="11.4809967"><ele>335.0</ele><time>2026-04-18T11:04:25.772Z</time></trkpt><trkpt lat="42.7131117" lon="11.48107"><ele>335.0</ele><time>2026-04-18T11:04:26.774Z</time></trkpt><trkpt lat="42.7130417" lon="11.4811333"><ele>335.0</ele><time>2026-04-18T11:04:27.771Z</time></trkpt><trkpt lat="42.7129567" lon="11.48119"><ele>335.0</ele><time>2026-04-18T11:04:28.769Z</time></trkpt><trkpt lat="42.71287" lon="11.4812483"><ele>333.4</ele><time>2026-04-18T11:04:29.771Z</time></trkpt><trkpt lat="42.7127833" lon="11.4812983"><ele>331.8</ele><time>2026-04-18T11:04:30.772Z</time></trkpt><trkpt lat="42.7126933" lon="11.48134"><ele>330.20000000000005</ele><time>2026-04-18T11:04:31.772Z</time></trkpt><trkpt lat="42.7125967" lon="11.481375"><ele>328.6</ele><time>2026-04-18T11:04:32.772Z</time></trkpt><trkpt lat="42.7125" lon="11.4813783"><ele>327.0</ele><time>2026-04-18T11:04:33.77Z</time></trkpt><trkpt lat="42.7124" lon="11.4813567"><ele>327.20000000000005</ele><time>2026-04-18T11:04:34.774Z</time></trkpt><trkpt lat="42.7123017" lon="11.4813083"><ele>327.4</ele><time>2026-04-18T11:04:35.771Z</time></trkpt><trkpt lat="42.7121983" lon="11.4812467"><ele>327.6</ele><time>2026-04-18T11:04:36.774Z</time></trkpt><trkpt lat="42.7120933" lon="11.4811833"><ele>327.79999999999995</ele><time>2026-04-18T11:04:37.774Z</time></trkpt><trkpt lat="42.71199" lon="11.4811283"><ele>328.0</ele><time>2026-04-18T11:04:38.775Z</time></trkpt><trkpt lat="42.7118933" lon="11.4810817"><ele>325.0</ele><time>2026-04-18T11:04:39.772Z</time></trkpt><trkpt lat="42.7117983" lon="11.48104"><ele>322.0</ele><time>2026-04-18T11:04:40.773Z</time></trkpt><trkpt lat="42.71171" lon="11.4809933"><ele>319.0</ele><time>2026-04-18T11:04:41.771Z</time></trkpt><trkpt lat="42.71163" lon="11.4809383"><ele>316.0</ele><time>2026-04-18T11:04:42.768Z</time></trkpt><trkpt lat="42.7115567" lon="11.4808783"><ele>313.0</ele><time>2026-04-18T11:04:43.771Z</time></trkpt><trkpt lat="42.7114933" lon="11.4808033"><ele>313.0</ele><time>2026-04-18T11:04:44.772Z</time></trkpt><trkpt lat="42.7114433" lon="11.4807117"><ele>313.0</ele><time>2026-04-18T11:04:45.771Z</time></trkpt><trkpt lat="42.711405" lon="11.4805867"><ele>313.0</ele><time>2026-04-18T11:04:46.77Z</time></trkpt><trkpt lat="42.7113683" lon="11.4804317"><ele>313.0</ele><time>2026-04-18T11:04:47.772Z</time></trkpt><trkpt lat="42.7113367" lon="11.4802617"><ele>313.0</ele><time>2026-04-18T11:04:48.771Z</time></trkpt><trkpt lat="42.71131" lon="11.4800917"><ele>312.6</ele><time>2026-04-18T11:04:49.772Z</time></trkpt><trkpt lat="42.7112867" lon="11.4799383"><ele>312.20000000000005</ele><time>2026-04-18T11:04:50.774Z</time></trkpt><trkpt lat="42.711265" lon="11.4797967"><ele>311.8</ele><time>2026-04-18T11:04:51.772Z</time></trkpt><trkpt lat="42.7112367" lon="11.4796667"><ele>311.40000000000003</ele><time>2026-04-18T11:04:52.768Z</time></trkpt><trkpt lat="42.7112" lon="11.47954"><ele>311.0</ele><time>2026-04-18T11:04:53.769Z</time></trkpt><trkpt lat="42.7111517" lon="11.4794183"><ele>310.0</ele><time>2026-04-18T11:04:54.774Z</time></trkpt><trkpt lat="42.711095" lon="11.4793033"><ele>309.0</ele><time>2026-04-18T11:04:55.773Z</time></trkpt><trkpt lat="42.7110333" lon="11.479195"><ele>308.0</ele><time>2026-04-18T11:04:56.771Z</time></trkpt><trkpt lat="42.71097" lon="11.4790917"><ele>307.0</ele><time>2026-04-18T11:04:57.773Z</time></trkpt><trkpt lat="42.7108983" lon="11.4790083"><ele>306.0</ele><time>2026-04-18T11:04:58.765Z</time></trkpt><trkpt lat="42.710825" lon="11.478945"><ele>306.0</ele><time>2026-04-18T11:04:59.771Z</time></trkpt><trkpt lat="42.7107467" lon="11.4789017"><ele>306.0</ele><time>2026-04-18T11:05:00.772Z</time></trkpt><trkpt lat="42.7106617" lon="11.4788733"><ele>306.0</ele><time>2026-04-18T11:05:01.771Z</time></trkpt><trkpt lat="42.7105667" lon="11.4788583"><ele>306.0</ele><time>2026-04-18T11:05:02.776Z</time></trkpt><trkpt lat="42.7104617" lon="11.4788633"><ele>306.0</ele><time>2026-04-18T11:05:03.773Z</time></trkpt><trkpt lat="42.71035" lon="11.4788933"><ele>303.75</ele><time>2026-04-18T11:05:04.773Z</time></trkpt><trkpt lat="42.710225" lon="11.4789483"><ele>301.5</ele><time>2026-04-18T11:05:05.771Z</time></trkpt><trkpt lat="42.7101" lon="11.4790083"><ele>299.25</ele><time>2026-04-18T11:05:06.773Z</time></trkpt><trkpt lat="42.7099833" lon="11.479065"><ele>297.0</ele><time>2026-04-18T11:05:07.774Z</time></trkpt><trkpt lat="42.709875" lon="11.4791233"><ele>297.0</ele><time>2026-04-18T11:05:08.776Z</time></trkpt><trkpt lat="42.7097683" lon="11.4791817"><ele>297.0</ele><time>2026-04-18T11:05:09.772Z</time></trkpt><trkpt lat="42.709665" lon="11.4792383"><ele>297.0</ele><time>2026-04-18T11:05:10.773Z</time></trkpt><trkpt lat="42.7095633" lon="11.4792917"><ele>297.0</ele><time>2026-04-18T11:05:11.773Z</time></trkpt><trkpt lat="42.709465" lon="11.4793417"><ele>297.0</ele><time>2026-04-18T11:05:12.77Z</time></trkpt><trkpt lat="42.7093783" lon="11.4794"><ele>295.6</ele><time>2026-04-18T11:05:13.77Z</time></trkpt><trkpt lat="42.7093067" lon="11.4794683"><ele>294.2</ele><time>2026-04-18T11:05:14.774Z</time></trkpt><trkpt lat="42.7092533" lon="11.4795567"><ele>292.8</ele><time>2026-04-18T11:05:15.772Z</time></trkpt><trkpt lat="42.70921" lon="11.479655"><ele>291.4</ele><time>2026-04-18T11:05:16.771Z</time></trkpt><trkpt lat="42.709175" lon="11.4797733"><ele>290.0</ele><time>2026-04-18T11:05:17.771Z</time></trkpt><trkpt lat="42.709165" lon="11.4799317"><ele>290.0</ele><time>2026-04-18T11:05:18.774Z</time></trkpt><trkpt lat="42.7091583" lon="11.4800933"><ele>290.0</ele><time>2026-04-18T11:05:19.771Z</time></trkpt><trkpt lat="42.709155" lon="11.4802583"><ele>290.0</ele><time>2026-04-18T11:05:20.774Z</time></trkpt><trkpt lat="42.7091433" lon="11.4804067"><ele>290.0</ele><time>2026-04-18T11:05:21.773Z</time></trkpt><trkpt lat="42.70911" lon="11.480555"><ele>289.4</ele><time>2026-04-18T11:05:22.773Z</time></trkpt><trkpt lat="42.7090633" lon="11.480695"><ele>288.8</ele><time>2026-04-18T11:05:23.77Z</time></trkpt><trkpt lat="42.7090033" lon="11.4808133"><ele>288.2</ele><time>2026-04-18T11:05:24.775Z</time></trkpt><trkpt lat="42.70892" lon="11.480905"><ele>287.6</ele><time>2026-04-18T11:05:25.771Z</time></trkpt><trkpt lat="42.7088183" lon="11.48097"><ele>287.0</ele><time>2026-04-18T11:05:26.776Z</time></trkpt><trkpt lat="42.7086867" lon="11.4809933"><ele>283.75</ele><time>2026-04-18T11:05:27.772Z</time></trkpt><trkpt lat="42.7085683" lon="11.4809883"><ele>280.5</ele><time>2026-04-18T11:05:28.772Z</time></trkpt><trkpt lat="42.7084583" lon="11.480965"><ele>277.25</ele><time>2026-04-18T11:05:29.769Z</time></trkpt><trkpt lat="42.7083433" lon="11.48091"><ele>274.0</ele><time>2026-04-18T11:05:30.774Z</time></trkpt><trkpt lat="42.7082367" lon="11.4808267"><ele>274.0</ele><time>2026-04-18T11:05:31.771Z</time></trkpt><trkpt lat="42.7081367" lon="11.4806867"><ele>274.0</ele><time>2026-04-18T11:05:32.77Z</time></trkpt><trkpt lat="42.70803" lon="11.4805433"><ele>274.0</ele><time>2026-04-18T11:05:33.772Z</time></trkpt><trkpt lat="42.7079217" lon="11.4804133"><ele>274.0</ele><time>2026-04-18T11:05:34.772Z</time></trkpt><trkpt lat="42.7078183" lon="11.4802817"><ele>271.75</ele><time>2026-04-18T11:05:35.77Z</time></trkpt><trkpt lat="42.7077217" lon="11.4801517"><ele>269.5</ele><time>2026-04-18T11:05:36.775Z</time></trkpt><trkpt lat="42.707625" lon="11.4800233"><ele>267.25</ele><time>2026-04-18T11:05:37.772Z</time></trkpt><trkpt lat="42.7075267" lon="11.4798983"><ele>265.0</ele><time>2026-04-18T11:05:38.773Z</time></trkpt><trkpt lat="42.7074367" lon="11.4797767"><ele>265.0</ele><time>2026-04-18T11:05:39.772Z</time></trkpt><trkpt lat="42.7073417" lon="11.4796517"><ele>265.0</ele><time>2026-04-18T11:05:40.773Z</time></trkpt><trkpt lat="42.7072383" lon="11.47953"><ele>265.0</ele><time>2026-04-18T11:05:41.771Z</time></trkpt><trkpt lat="42.7071367" lon="11.4794117"><ele>265.0</ele><time>2026-04-18T11:05:42.766Z</time></trkpt><trkpt lat="42.70704" lon="11.4793"><ele>264.0</ele><time>2026-04-18T11:05:43.77Z</time></trkpt><trkpt lat="42.7069433" lon="11.4791933"><ele>263.0</ele><time>2026-04-18T11:05:44.77Z</time></trkpt><trkpt lat="42.7068383" lon="11.4790983"><ele>262.0</ele><time>2026-04-18T11:05:45.771Z</time></trkpt><trkpt lat="42.70672" lon="11.47902"><ele>261.0</ele><time>2026-04-18T11:05:46.769Z</time></trkpt><trkpt lat="42.7065867" lon="11.47896"><ele>259.75</ele><time>2026-04-18T11:05:47.774Z</time></trkpt><trkpt lat="42.7064483" lon="11.4789133"><ele>258.5</ele><time>2026-04-18T11:05:48.772Z</time></trkpt><trkpt lat="42.706305" lon="11.4788733"><ele>257.25</ele><time>2026-04-18T11:05:49.773Z</time></trkpt><trkpt lat="42.7061633" lon="11.47884"><ele>256.0</ele><time>2026-04-18T11:05:50.774Z</time></trkpt><trkpt lat="42.7060183" lon="11.478805"><ele>253.0</ele><time>2026-04-18T11:05:51.772Z</time></trkpt><trkpt lat="42.7058717" lon="11.4787667"><ele>250.0</ele><time>2026-04-18T11:05:52.77Z</time></trkpt><trkpt lat="42.705725" lon="11.47873"><ele>247.0</ele><time>2026-04-18T11:05:53.772Z</time></trkpt><trkpt lat="42.7055783" lon="11.4787"><ele>244.0</ele><time>2026-04-18T11:05:54.772Z</time></trkpt><trkpt lat="42.705435" lon="11.47867"><ele>244.0</ele><time>2026-04-18T11:05:55.772Z</time></trkpt><trkpt lat="42.7053" lon="11.4786383"><ele>244.0</ele><time>2026-04-18T11:05:56.774Z</time></trkpt><trkpt lat="42.7051717" lon="11.4786067"><ele>244.0</ele><time>2026-04-18T11:05:57.774Z</time></trkpt><trkpt lat="42.70505" lon="11.4785767"><ele>244.0</ele><time>2026-04-18T11:05:58.77Z</time></trkpt><trkpt lat="42.7049367" lon="11.478545"><ele>243.5</ele><time>2026-04-18T11:05:59.772Z</time></trkpt><trkpt lat="42.7048233" lon="11.4785133"><ele>243.0</ele><time>2026-04-18T11:06:00.763Z</time></trkpt><trkpt lat="42.704705" lon="11.478485"><ele>242.5</ele><time>2026-04-18T11:06:01.762Z</time></trkpt><trkpt lat="42.7045833" lon="11.47846"><ele>242.0</ele><time>2026-04-18T11:06:02.775Z</time></trkpt><trkpt lat="42.7044583" lon="11.478435"><ele>241.25</ele><time>2026-04-18T11:06:03.772Z</time></trkpt><trkpt lat="42.7043333" lon="11.478405"><ele>240.5</ele><time>2026-04-18T11:06:04.773Z</time></trkpt><trkpt lat="42.7042083" lon="11.4783717"><ele>239.75</ele><time>2026-04-18T11:06:05.772Z</time></trkpt><trkpt lat="42.7040783" lon="11.4783333"><ele>239.0</ele><time>2026-04-18T11:06:06.771Z</time></trkpt><trkpt lat="42.703945" lon="11.4782983"><ele>239.0</ele><time>2026-04-18T11:06:07.772Z</time></trkpt><trkpt lat="42.7038083" lon="11.4782617"><ele>239.0</ele><time>2026-04-18T11:06:08.776Z</time></trkpt><trkpt lat="42.7036683" lon="11.4782267"><ele>239.0</ele><time>2026-04-18T11:06:09.771Z</time></trkpt><trkpt lat="42.70353" lon="11.478195"><ele>239.0</ele><time>2026-04-18T11:06:10.771Z</time></trkpt><trkpt lat="42.70339" lon="11.4781617"><ele>237.66666666666669</ele><time>2026-04-18T11:06:11.772Z</time></trkpt><trkpt lat="42.7032467" lon="11.47813"><ele>236.33333333333331</ele><time>2026-04-18T11:06:12.773Z</time></trkpt><trkpt lat="42.7030983" lon="11.4781"><ele>235.0</ele><time>2026-04-18T11:06:13.772Z</time></trkpt><trkpt lat="42.7029383" lon="11.4780633"><ele>235.0</ele><time>2026-04-18T11:06:14.774Z</time></trkpt><trkpt lat="42.7027817" lon="11.47803"><ele>235.0</ele><time>2026-04-18T11:06:15.771Z</time></trkpt><trkpt lat="42.7026267" lon="11.4779917"><ele>235.0</ele><time>2026-04-18T11:06:16.772Z</time></trkpt><trkpt lat="42.702455" lon="11.4779483"><ele>235.66666666666666</ele><time>2026-04-18T11:06:17.771Z</time></trkpt><trkpt lat="42.7022817" lon="11.47791"><ele>236.33333333333331</ele><time>2026-04-18T11:06:18.769Z</time></trkpt><trkpt lat="42.7021133" lon="11.4778733"><ele>237.0</ele><time>2026-04-18T11:06:19.77Z</time></trkpt><trkpt lat="42.7019483" lon="11.47784"><ele>238.0</ele><time>2026-04-18T11:06:20.771Z</time></trkpt><trkpt lat="42.701785" lon="11.4777983"><ele>239.0</ele><time>2026-04-18T11:06:21.77Z</time></trkpt><trkpt lat="42.7016217" lon="11.4777567"><ele>240.0</ele><time>2026-04-18T11:06:22.767Z</time></trkpt><trkpt lat="42.7014633" lon="11.47772"><ele>240.0</ele><time>2026-04-18T11:06:23.775Z</time></trkpt><trkpt lat="42.701325" lon="11.4777"><ele>240.0</ele><time>2026-04-18T11:06:24.774Z</time></trkpt><trkpt lat="42.7011783" lon="11.4776617"><ele>240.0</ele><time>2026-04-18T11:06:25.773Z</time></trkpt><trkpt lat="42.7010283" lon="11.4776233"><ele>240.0</ele><time>2026-04-18T11:06:26.774Z</time></trkpt><trkpt lat="42.700875" lon="11.477595"><ele>238.66666666666669</ele><time>2026-04-18T11:06:27.778Z</time></trkpt><trkpt lat="42.700575" lon="11.477595"><ele>237.33333333333334</ele><time>2026-04-18T11:06:29.77Z</time></trkpt><trkpt lat="42.7004417" lon="11.4776017"><ele>236.0</ele><time>2026-04-18T11:06:30.778Z</time></trkpt><trkpt lat="42.7003233" lon="11.4775967"><ele>234.8</ele><time>2026-04-18T11:06:31.769Z</time></trkpt><trkpt lat="42.700215" lon="11.4775683"><ele>233.60000000000002</ele><time>2026-04-18T11:06:32.772Z</time></trkpt><trkpt lat="42.7001283" lon="11.4775183"><ele>232.4</ele><time>2026-04-18T11:06:33.77Z</time></trkpt><trkpt lat="42.70006" lon="11.4774433"><ele>231.2</ele><time>2026-04-18T11:06:34.767Z</time></trkpt><trkpt lat="42.700005" lon="11.4773567"><ele>230.0</ele><time>2026-04-18T11:06:35.771Z</time></trkpt><trkpt lat="42.6999717" lon="11.4772483"><ele>230.0</ele><time>2026-04-18T11:06:36.77Z</time></trkpt><trkpt lat="42.699965" lon="11.477135"><ele>230.0</ele><time>2026-04-18T11:06:37.769Z</time></trkpt><trkpt lat="42.6999633" lon="11.4770083"><ele>230.0</ele><time>2026-04-18T11:06:38.772Z</time></trkpt><trkpt lat="42.699955" lon="11.4768867"><ele>230.0</ele><time>2026-04-18T11:06:39.769Z</time></trkpt><trkpt lat="42.69993" lon="11.47676"><ele>230.0</ele><time>2026-04-18T11:06:40.77Z</time></trkpt><trkpt lat="42.6998933" lon="11.476625"><ele>231.5</ele><time>2026-04-18T11:06:41.769Z</time></trkpt><trkpt lat="42.6998517" lon="11.4764867"><ele>233.0</ele><time>2026-04-18T11:06:42.769Z</time></trkpt><trkpt lat="42.6998083" lon="11.4763417"><ele>234.5</ele><time>2026-04-18T11:06:43.77Z</time></trkpt><trkpt lat="42.6997617" lon="11.476185"><ele>236.0</ele><time>2026-04-18T11:06:44.77Z</time></trkpt><trkpt lat="42.6997133" lon="11.4760167"><ele>237.25</ele><time>2026-04-18T11:06:45.771Z</time></trkpt><trkpt lat="42.6996617" lon="11.4758517"><ele>238.5</ele><time>2026-04-18T11:06:46.773Z</time></trkpt><trkpt lat="42.6996133" lon="11.4756933"><ele>239.75</ele><time>2026-04-18T11:06:47.773Z</time></trkpt><trkpt lat="42.6995633" lon="11.4755317"><ele>241.0</ele><time>2026-04-18T11:06:48.772Z</time></trkpt><trkpt lat="42.6995133" lon="11.4753733"><ele>241.25</ele><time>2026-04-18T11:06:49.773Z</time></trkpt><trkpt lat="42.6994633" lon="11.4752083"><ele>241.5</ele><time>2026-04-18T11:06:50.77Z</time></trkpt><trkpt lat="42.6994083" lon="11.4750517"><ele>241.75</ele><time>2026-04-18T11:06:51.772Z</time></trkpt><trkpt lat="42.6993367" lon="11.4749117"><ele>242.0</ele><time>2026-04-18T11:06:52.774Z</time></trkpt><trkpt lat="42.699245" lon="11.474785"><ele>241.5</ele><time>2026-04-18T11:06:53.771Z</time></trkpt><trkpt lat="42.6991383" lon="11.474675"><ele>241.0</ele><time>2026-04-18T11:06:54.772Z</time></trkpt><trkpt lat="42.6990217" lon="11.47458"><ele>240.5</ele><time>2026-04-18T11:06:55.773Z</time></trkpt><trkpt lat="42.6989017" lon="11.4744917"><ele>240.0</ele><time>2026-04-18T11:06:56.774Z</time></trkpt><trkpt lat="42.69878" lon="11.4744083"><ele>240.0</ele><time>2026-04-18T11:06:57.772Z</time></trkpt><trkpt lat="42.6986567" lon="11.4743283"><ele>240.0</ele><time>2026-04-18T11:06:58.772Z</time></trkpt><trkpt lat="42.6985317" lon="11.4742533"><ele>240.0</ele><time>2026-04-18T11:06:59.773Z</time></trkpt><trkpt lat="42.6984083" lon="11.474175"><ele>240.0</ele><time>2026-04-18T11:07:00.771Z</time></trkpt><trkpt lat="42.6982967" lon="11.4740933"><ele>240.0</ele><time>2026-04-18T11:07:01.772Z</time></trkpt><trkpt lat="42.69819" lon="11.4740133"><ele>240.0</ele><time>2026-04-18T11:07:02.771Z</time></trkpt><trkpt lat="42.6980933" lon="11.4739367"><ele>240.0</ele><time>2026-04-18T11:07:03.771Z</time></trkpt><trkpt lat="42.698" lon="11.4738683"><ele>240.0</ele><time>2026-04-18T11:07:04.772Z</time></trkpt><trkpt lat="42.6979133" lon="11.4738083"><ele>240.0</ele><time>2026-04-18T11:07:05.77Z</time></trkpt><trkpt lat="42.6978333" lon="11.4737617"><ele>240.0</ele><time>2026-04-18T11:07:06.773Z</time></trkpt><trkpt lat="42.6977617" lon="11.4737183"><ele>240.0</ele><time>2026-04-18T11:07:07.77Z</time></trkpt><trkpt lat="42.69769" lon="11.4736783"><ele>240.0</ele><time>2026-04-18T11:07:08.775Z</time></trkpt><trkpt lat="42.6976233" lon="11.4736383"><ele>240.0</ele><time>2026-04-18T11:07:09.771Z</time></trkpt><trkpt lat="42.6975583" lon="11.4736017"><ele>240.0</ele><time>2026-04-18T11:07:10.77Z</time></trkpt><trkpt lat="42.697445" lon="11.4735517"><ele>240.0</ele><time>2026-04-18T11:07:12.771Z</time></trkpt><trkpt lat="42.6973383" lon="11.4735367"><ele>240.0</ele><time>2026-04-18T11:07:14.771Z</time></trkpt><trkpt lat="42.6972467" lon="11.4735317"><ele>240.0</ele><time>2026-04-18T11:07:16.771Z</time></trkpt><trkpt lat="42.6971733" lon="11.4735317"><ele>240.0</ele><time>2026-04-18T11:07:18.77Z</time></trkpt><trkpt lat="42.6970883" lon="11.4735383"><ele>240.0</ele><time>2026-04-18T11:07:20.77Z</time></trkpt><trkpt lat="42.6969783" lon="11.4735517"><ele>240.0</ele><time>2026-04-18T11:07:22.772Z</time></trkpt><trkpt lat="42.6969067" lon="11.47356"><ele>240.0</ele><time>2026-04-18T11:07:23.772Z</time></trkpt><trkpt lat="42.6968317" lon="11.473565"><ele>240.0</ele><time>2026-04-18T11:07:24.771Z</time></trkpt><trkpt lat="42.6967517" lon="11.4735733"><ele>240.0</ele><time>2026-04-18T11:07:25.772Z</time></trkpt><trkpt lat="42.6966667" lon="11.473585"><ele>240.0</ele><time>2026-04-18T11:07:26.775Z</time></trkpt><trkpt lat="42.6965717" lon="11.4736"><ele>240.0</ele><time>2026-04-18T11:07:27.772Z</time></trkpt><trkpt lat="42.6964717" lon="11.4736083"><ele>240.0</ele><time>2026-04-18T11:07:28.771Z</time></trkpt><trkpt lat="42.6963717" lon="11.4736217"><ele>240.0</ele><time>2026-04-18T11:07:29.77Z</time></trkpt><trkpt lat="42.6962683" lon="11.4736433"><ele>240.0</ele><time>2026-04-18T11:07:30.765Z</time></trkpt><trkpt lat="42.69616" lon="11.4736583"><ele>240.0</ele><time>2026-04-18T11:07:31.774Z</time></trkpt><trkpt lat="42.6960467" lon="11.4736567"><ele>240.0</ele><time>2026-04-18T11:07:32.775Z</time></trkpt><trkpt lat="42.6959333" lon="11.47365"><ele>240.0</ele><time>2026-04-18T11:07:33.772Z</time></trkpt><trkpt lat="42.6958233" lon="11.473645"><ele>240.0</ele><time>2026-04-18T11:07:34.771Z</time></trkpt><trkpt lat="42.695725" lon="11.4736433"><ele>240.0</ele><time>2026-04-18T11:07:35.772Z</time></trkpt><trkpt lat="42.6956367" lon="11.47364"><ele>240.0</ele><time>2026-04-18T11:07:36.77Z</time></trkpt><trkpt lat="42.6955517" lon="11.4736417"><ele>240.0</ele><time>2026-04-18T11:07:37.771Z</time></trkpt><trkpt lat="42.6954783" lon="11.4736683"><ele>240.0</ele><time>2026-04-18T11:07:38.775Z</time></trkpt><trkpt lat="42.6954067" lon="11.47371"><ele>240.0</ele><time>2026-04-18T11:07:39.773Z</time></trkpt><trkpt lat="42.6953417" lon="11.47377"><ele>240.8</ele><time>2026-04-18T11:07:40.771Z</time></trkpt><trkpt lat="42.6952817" lon="11.4738533"><ele>241.6</ele><time>2026-04-18T11:07:41.77Z</time></trkpt><trkpt lat="42.695225" lon="11.47395"><ele>242.39999999999998</ele><time>2026-04-18T11:07:42.77Z</time></trkpt><trkpt lat="42.695165" lon="11.4740583"><ele>243.2</ele><time>2026-04-18T11:07:43.773Z</time></trkpt><trkpt lat="42.695095" lon="11.4741867"><ele>244.0</ele><time>2026-04-18T11:07:44.774Z</time></trkpt><trkpt lat="42.69502" lon="11.4743117"><ele>244.0</ele><time>2026-04-18T11:07:45.773Z</time></trkpt><trkpt lat="42.694945" lon="11.4744317"><ele>243.99999999999997</ele><time>2026-04-18T11:07:46.771Z</time></trkpt><trkpt lat="42.694875" lon="11.47454"><ele>243.99999999999997</ele><time>2026-04-18T11:07:47.772Z</time></trkpt><trkpt lat="42.6948117" lon="11.4746517"><ele>244.0</ele><time>2026-04-18T11:07:48.77Z</time></trkpt><trkpt lat="42.6947517" lon="11.47477"><ele>244.0</ele><time>2026-04-18T11:07:49.77Z</time></trkpt><trkpt lat="42.6946933" lon="11.474885"><ele>244.39999999999998</ele><time>2026-04-18T11:07:50.773Z</time></trkpt><trkpt lat="42.6946283" lon="11.4750083"><ele>244.79999999999998</ele><time>2026-04-18T11:07:51.773Z</time></trkpt><trkpt lat="42.694565" lon="11.475125"><ele>245.20000000000002</ele><time>2026-04-18T11:07:52.773Z</time></trkpt><trkpt lat="42.6944983" lon="11.475235"><ele>245.60000000000002</ele><time>2026-04-18T11:07:53.77Z</time></trkpt><trkpt lat="42.694425" lon="11.4753433"><ele>246.0</ele><time>2026-04-18T11:07:54.775Z</time></trkpt><trkpt lat="42.6943433" lon="11.475435"><ele>244.60000000000002</ele><time>2026-04-18T11:07:55.768Z</time></trkpt><trkpt lat="42.6942517" lon="11.4754983"><ele>243.20000000000002</ele><time>2026-04-18T11:07:56.775Z</time></trkpt><trkpt lat="42.6941517" lon="11.47554"><ele>241.79999999999998</ele><time>2026-04-18T11:07:57.769Z</time></trkpt><trkpt lat="42.6940433" lon="11.4755717"><ele>240.39999999999998</ele><time>2026-04-18T11:07:58.773Z</time></trkpt><trkpt lat="42.693925" lon="11.4755933"><ele>239.0</ele><time>2026-04-18T11:07:59.772Z</time></trkpt><trkpt lat="42.6938117" lon="11.4756133"><ele>239.0</ele><time>2026-04-18T11:08:00.766Z</time></trkpt><trkpt lat="42.69369" lon="11.4756383"><ele>239.0</ele><time>2026-04-18T11:08:01.772Z</time></trkpt><trkpt lat="42.6935683" lon="11.4756633"><ele>239.0</ele><time>2026-04-18T11:08:02.772Z</time></trkpt><trkpt lat="42.693435" lon="11.4756933"><ele>239.0</ele><time>2026-04-18T11:08:03.77Z</time></trkpt><trkpt lat="42.6932967" lon="11.4757183"><ele>239.75</ele><time>2026-04-18T11:08:04.767Z</time></trkpt><trkpt lat="42.6931617" lon="11.4757483"><ele>240.5</ele><time>2026-04-18T11:08:05.772Z</time></trkpt><trkpt lat="42.6930317" lon="11.4757867"><ele>241.25</ele><time>2026-04-18T11:08:06.772Z</time></trkpt><trkpt lat="42.692905" lon="11.4758233"><ele>242.0</ele><time>2026-04-18T11:08:07.77Z</time></trkpt><trkpt lat="42.6927867" lon="11.4758517"><ele>243.0</ele><time>2026-04-18T11:08:08.773Z</time></trkpt><trkpt lat="42.6926733" lon="11.4758733"><ele>244.0</ele><time>2026-04-18T11:08:09.771Z</time></trkpt><trkpt lat="42.69257" lon="11.4758683"><ele>245.0</ele><time>2026-04-18T11:08:10.773Z</time></trkpt><trkpt lat="42.6924733" lon="11.4758267"><ele>246.0</ele><time>2026-04-18T11:08:11.769Z</time></trkpt><trkpt lat="42.692395" lon="11.4757633"><ele>247.0</ele><time>2026-04-18T11:08:12.773Z</time></trkpt><trkpt lat="42.6923267" lon="11.4756883"><ele>246.99999999999997</ele><time>2026-04-18T11:08:13.766Z</time></trkpt><trkpt lat="42.6922867" lon="11.4756067"><ele>247.0</ele><time>2026-04-18T11:08:14.771Z</time></trkpt><trkpt lat="42.69226" lon="11.4755233"><ele>247.0</ele><time>2026-04-18T11:08:15.771Z</time></trkpt><trkpt lat="42.6922933" lon="11.475425"><ele>247.0</ele><time>2026-04-18T11:08:16.77Z</time></trkpt><trkpt lat="42.6923633" lon="11.4753133"><ele>246.99999999999997</ele><time>2026-04-18T11:08:17.77Z</time></trkpt><trkpt lat="42.6924467" lon="11.4751917"><ele>247.0</ele><time>2026-04-18T11:08:18.767Z</time></trkpt><trkpt lat="42.6925317" lon="11.4750817"><ele>247.83333333333331</ele><time>2026-04-18T11:08:19.77Z</time></trkpt><trkpt lat="42.692605" lon="11.4749817"><ele>248.66666666666666</ele><time>2026-04-18T11:08:20.773Z</time></trkpt><trkpt lat="42.6926517" lon="11.4748833"><ele>249.5</ele><time>2026-04-18T11:08:21.769Z</time></trkpt><trkpt lat="42.6926733" lon="11.474775"><ele>250.33333333333331</ele><time>2026-04-18T11:08:22.77Z</time></trkpt><trkpt lat="42.6926683" lon="11.4746617"><ele>251.16666666666666</ele><time>2026-04-18T11:08:23.772Z</time></trkpt><trkpt lat="42.6926383" lon="11.4745517"><ele>252.0</ele><time>2026-04-18T11:08:24.772Z</time></trkpt><trkpt lat="42.6925767" lon="11.4744683"><ele>252.25</ele><time>2026-04-18T11:08:25.771Z</time></trkpt><trkpt lat="42.6924767" lon="11.4744167"><ele>252.5</ele><time>2026-04-18T11:08:26.772Z</time></trkpt><trkpt lat="42.6923567" lon="11.474395"><ele>252.75</ele><time>2026-04-18T11:08:27.771Z</time></trkpt><trkpt lat="42.6921983" lon="11.474415"><ele>253.0</ele><time>2026-04-18T11:08:28.773Z</time></trkpt><trkpt lat="42.692035" lon="11.4744383"><ele>254.25</ele><time>2026-04-18T11:08:29.77Z</time></trkpt><trkpt lat="42.6918967" lon="11.474435"><ele>255.5</ele><time>2026-04-18T11:08:30.769Z</time></trkpt><trkpt lat="42.6917733" lon="11.4744183"><ele>256.75</ele><time>2026-04-18T11:08:31.771Z</time></trkpt><trkpt lat="42.691665" lon="11.4743883"><ele>258.0</ele><time>2026-04-18T11:08:32.771Z</time></trkpt><trkpt lat="42.6915617" lon="11.4743533"><ele>258.0</ele><time>2026-04-18T11:08:33.772Z</time></trkpt><trkpt lat="42.69146" lon="11.4743183"><ele>258.0</ele><time>2026-04-18T11:08:34.77Z</time></trkpt><trkpt lat="42.6913583" lon="11.4742783"><ele>258.0</ele><time>2026-04-18T11:08:35.773Z</time></trkpt><trkpt lat="42.6912583" lon="11.474235"><ele>258.0</ele><time>2026-04-18T11:08:36.771Z</time></trkpt><trkpt lat="42.6911567" lon="11.4741883"><ele>258.0</ele><time>2026-04-18T11:08:37.772Z</time></trkpt><trkpt lat="42.6910567" lon="11.4741433"><ele>258.0</ele><time>2026-04-18T11:08:38.774Z</time></trkpt><trkpt lat="42.6909567" lon="11.474095"><ele>258.0</ele><time>2026-04-18T11:08:39.772Z</time></trkpt><trkpt lat="42.6908617" lon="11.4740483"><ele>258.0</ele><time>2026-04-18T11:08:40.77Z</time></trkpt><trkpt lat="42.6907617" lon="11.474005"><ele>258.0</ele><time>2026-04-18T11:08:41.772Z</time></trkpt><trkpt lat="42.690665" lon="11.4739683"><ele>258.0</ele><time>2026-04-18T11:08:42.77Z</time></trkpt><trkpt lat="42.6905617" lon="11.4739383"><ele>258.0</ele><time>2026-04-18T11:08:43.772Z</time></trkpt><trkpt lat="42.6904533" lon="11.473915"><ele>258.0</ele><time>2026-04-18T11:08:44.774Z</time></trkpt><trkpt lat="42.6903467" lon="11.4739017"><ele>258.0</ele><time>2026-04-18T11:08:45.77Z</time></trkpt><trkpt lat="42.690235" lon="11.4738917"><ele>258.0</ele><time>2026-04-18T11:08:46.757Z</time></trkpt><trkpt lat="42.6901217" lon="11.4738883"><ele>258.0</ele><time>2026-04-18T11:08:47.772Z</time></trkpt><trkpt lat="42.6900133" lon="11.473885"><ele>257.6</ele><time>2026-04-18T11:08:48.769Z</time></trkpt><trkpt lat="42.68991" lon="11.4738867"><ele>257.20000000000005</ele><time>2026-04-18T11:08:49.772Z</time></trkpt><trkpt lat="42.6897967" lon="11.473885"><ele>256.8</ele><time>2026-04-18T11:08:50.773Z</time></trkpt><trkpt lat="42.689685" lon="11.4738867"><ele>256.40000000000003</ele><time>2026-04-18T11:08:51.772Z</time></trkpt><trkpt lat="42.6895683" lon="11.4738867"><ele>256.0</ele><time>2026-04-18T11:08:52.769Z</time></trkpt><trkpt lat="42.6894483" lon="11.4738783"><ele>255.0</ele><time>2026-04-18T11:08:53.77Z</time></trkpt><trkpt lat="42.6893217" lon="11.473875"><ele>254.0</ele><time>2026-04-18T11:08:54.773Z</time></trkpt><trkpt lat="42.6891967" lon="11.4738717"><ele>253.0</ele><time>2026-04-18T11:08:55.773Z</time></trkpt><trkpt lat="42.68907" lon="11.473865"><ele>252.0</ele><time>2026-04-18T11:08:56.774Z</time></trkpt><trkpt lat="42.6889417" lon="11.4738533"><ele>252.0</ele><time>2026-04-18T11:08:57.77Z</time></trkpt><trkpt lat="42.68881" lon="11.4738467"><ele>252.0</ele><time>2026-04-18T11:08:58.772Z</time></trkpt><trkpt lat="42.6886783" lon="11.4738417"><ele>252.0</ele><time>2026-04-18T11:08:59.773Z</time></trkpt><trkpt lat="42.6885467" lon="11.47384"><ele>252.0</ele><time>2026-04-18T11:09:00.773Z</time></trkpt><trkpt lat="42.6884117" lon="11.473835"><ele>250.5</ele><time>2026-04-18T11:09:01.771Z</time></trkpt><trkpt lat="42.6882867" lon="11.4738383"><ele>249.0</ele><time>2026-04-18T11:09:02.771Z</time></trkpt><trkpt lat="42.6881633" lon="11.4738267"><ele>247.5</ele><time>2026-04-18T11:09:03.769Z</time></trkpt><trkpt lat="42.688045" lon="11.47382"><ele>246.0</ele><time>2026-04-18T11:09:04.772Z</time></trkpt><trkpt lat="42.6879317" lon="11.47382"><ele>246.0</ele><time>2026-04-18T11:09:05.771Z</time></trkpt><trkpt lat="42.687825" lon="11.4738167"><ele>246.00000000000003</ele><time>2026-04-18T11:09:06.769Z</time></trkpt><trkpt lat="42.68772" lon="11.4738117"><ele>246.00000000000003</ele><time>2026-04-18T11:09:07.772Z</time></trkpt><trkpt lat="42.6876183" lon="11.4738017"><ele>246.0</ele><time>2026-04-18T11:09:08.775Z</time></trkpt><trkpt lat="42.6875167" lon="11.4737933"><ele>246.0</ele><time>2026-04-18T11:09:09.771Z</time></trkpt><trkpt lat="42.6874017" lon="11.47379"><ele>244.25</ele><time>2026-04-18T11:09:10.771Z</time></trkpt><trkpt lat="42.6872783" lon="11.4737833"><ele>242.5</ele><time>2026-04-18T11:09:11.77Z</time></trkpt><trkpt lat="42.6871483" lon="11.47378"><ele>240.75</ele><time>2026-04-18T11:09:12.77Z</time></trkpt><trkpt lat="42.6870183" lon="11.473775"><ele>239.0</ele><time>2026-04-18T11:09:13.769Z</time></trkpt><trkpt lat="42.6868933" lon="11.4737633"><ele>238.2</ele><time>2026-04-18T11:09:14.772Z</time></trkpt><trkpt lat="42.6867783" lon="11.4737333"><ele>237.39999999999998</ele><time>2026-04-18T11:09:15.77Z</time></trkpt><trkpt lat="42.6866883" lon="11.473685"><ele>236.6</ele><time>2026-04-18T11:09:16.772Z</time></trkpt><trkpt lat="42.686615" lon="11.473625"><ele>235.8</ele><time>2026-04-18T11:09:17.77Z</time></trkpt><trkpt lat="42.686555" lon="11.473555"><ele>235.0</ele><time>2026-04-18T11:09:18.77Z</time></trkpt><trkpt lat="42.6865217" lon="11.4734633"><ele>234.99999999999997</ele><time>2026-04-18T11:09:19.772Z</time></trkpt><trkpt lat="42.68652" lon="11.4733517"><ele>235.0</ele><time>2026-04-18T11:09:20.774Z</time></trkpt><trkpt lat="42.68657" lon="11.473235"><ele>235.0</ele><time>2026-04-18T11:09:21.769Z</time></trkpt><trkpt lat="42.6866067" lon="11.4731233"><ele>235.0</ele><time>2026-04-18T11:09:22.771Z</time></trkpt><trkpt lat="42.6866267" lon="11.47302"><ele>234.99999999999997</ele><time>2026-04-18T11:09:23.77Z</time></trkpt><trkpt lat="42.686615" lon="11.4729333"><ele>235.0</ele><time>2026-04-18T11:09:24.771Z</time></trkpt><trkpt lat="42.68651" lon="11.472845"><ele>235.0</ele><time>2026-04-18T11:09:26.774Z</time></trkpt><trkpt lat="42.6864183" lon="11.4728633"><ele>235.0</ele><time>2026-04-18T11:09:27.771Z</time></trkpt><trkpt lat="42.6863333" lon="11.47288"><ele>235.0</ele><time>2026-04-18T11:09:28.77Z</time></trkpt><trkpt lat="42.68624" lon="11.4729383"><ele>235.0</ele><time>2026-04-18T11:09:29.771Z</time></trkpt><trkpt lat="42.6861517" lon="11.4730167"><ele>235.0</ele><time>2026-04-18T11:09:30.77Z</time></trkpt><trkpt lat="42.6860517" lon="11.4731517"><ele>233.0</ele><time>2026-04-18T11:09:31.772Z</time></trkpt><trkpt lat="42.685965" lon="11.473305"><ele>231.0</ele><time>2026-04-18T11:09:32.77Z</time></trkpt><trkpt lat="42.685885" lon="11.4734683"><ele>229.0</ele><time>2026-04-18T11:09:33.772Z</time></trkpt><trkpt lat="42.6858183" lon="11.4736367"><ele>227.0</ele><time>2026-04-18T11:09:34.768Z</time></trkpt><trkpt lat="42.6857667" lon="11.4738083"><ele>226.0</ele><time>2026-04-18T11:09:35.77Z</time></trkpt><trkpt lat="42.68574" lon="11.4739933"><ele>225.0</ele><time>2026-04-18T11:09:36.773Z</time></trkpt><trkpt lat="42.6857383" lon="11.4741833"><ele>224.0</ele><time>2026-04-18T11:09:37.77Z</time></trkpt><trkpt lat="42.6857417" lon="11.474375"><ele>223.0</ele><time>2026-04-18T11:09:38.775Z</time></trkpt><trkpt lat="42.6857483" lon="11.4745633"><ele>220.75</ele><time>2026-04-18T11:09:39.772Z</time></trkpt><trkpt lat="42.68576" lon="11.4747483"><ele>218.5</ele><time>2026-04-18T11:09:40.772Z</time></trkpt><trkpt lat="42.68577" lon="11.474925"><ele>216.25</ele><time>2026-04-18T11:09:41.768Z</time></trkpt><trkpt lat="42.6857817" lon="11.4751"><ele>214.0</ele><time>2026-04-18T11:09:42.768Z</time></trkpt><trkpt lat="42.68579" lon="11.4752733"><ele>211.5</ele><time>2026-04-18T11:09:43.77Z</time></trkpt><trkpt lat="42.6857967" lon="11.47545"><ele>209.0</ele><time>2026-04-18T11:09:44.774Z</time></trkpt><trkpt lat="42.6858017" lon="11.4756267"><ele>206.5</ele><time>2026-04-18T11:09:45.77Z</time></trkpt><trkpt lat="42.685795" lon="11.47581"><ele>204.0</ele><time>2026-04-18T11:09:46.768Z</time></trkpt><trkpt lat="42.685765" lon="11.4759933"><ele>204.0</ele><time>2026-04-18T11:09:47.772Z</time></trkpt><trkpt lat="42.68572" lon="11.4761733"><ele>204.0</ele><time>2026-04-18T11:09:48.773Z</time></trkpt><trkpt lat="42.6856617" lon="11.4763567"><ele>204.0</ele><time>2026-04-18T11:09:49.77Z</time></trkpt><trkpt lat="42.6855933" lon="11.476545"><ele>204.0</ele><time>2026-04-18T11:09:50.771Z</time></trkpt><trkpt lat="42.6855217" lon="11.4767383"><ele>202.33333333333331</ele><time>2026-04-18T11:09:51.77Z</time></trkpt><trkpt lat="42.6854483" lon="11.4769333"><ele>200.66666666666666</ele><time>2026-04-18T11:09:52.77Z</time></trkpt><trkpt lat="42.685375" lon="11.47713"><ele>199.0</ele><time>2026-04-18T11:09:53.771Z</time></trkpt><trkpt lat="42.68531" lon="11.4773183"><ele>198.5</ele><time>2026-04-18T11:09:54.771Z</time></trkpt><trkpt lat="42.685245" lon="11.47749"><ele>198.0</ele><time>2026-04-18T11:09:55.771Z</time></trkpt><trkpt lat="42.685185" lon="11.4776517"><ele>197.5</ele><time>2026-04-18T11:09:56.774Z</time></trkpt><trkpt lat="42.685125" lon="11.477805"><ele>197.0</ele><time>2026-04-18T11:09:57.772Z</time></trkpt><trkpt lat="42.6850783" lon="11.4779567"><ele>197.0</ele><time>2026-04-18T11:09:58.771Z</time></trkpt><trkpt lat="42.685045" lon="11.4781117"><ele>197.0</ele><time>2026-04-18T11:09:59.772Z</time></trkpt><trkpt lat="42.6850233" lon="11.4782767"><ele>197.0</ele><time>2026-04-18T11:10:00.769Z</time></trkpt><trkpt lat="42.685015" lon="11.4784367"><ele>197.0</ele><time>2026-04-18T11:10:01.772Z</time></trkpt><trkpt lat="42.68501" lon="11.4785933"><ele>197.0</ele><time>2026-04-18T11:10:02.771Z</time></trkpt><trkpt lat="42.68501" lon="11.47874"><ele>197.0</ele><time>2026-04-18T11:10:03.772Z</time></trkpt><trkpt lat="42.6850117" lon="11.478885"><ele>197.0</ele><time>2026-04-18T11:10:04.771Z</time></trkpt><trkpt lat="42.6850133" lon="11.4790233"><ele>197.0</ele><time>2026-04-18T11:10:05.77Z</time></trkpt><trkpt lat="42.6850217" lon="11.47917"><ele>197.0</ele><time>2026-04-18T11:10:06.772Z</time></trkpt><trkpt lat="42.68503" lon="11.479325"><ele>196.75</ele><time>2026-04-18T11:10:07.769Z</time></trkpt><trkpt lat="42.6850383" lon="11.4794867"><ele>196.5</ele><time>2026-04-18T11:10:08.77Z</time></trkpt><trkpt lat="42.6850483" lon="11.4796583"><ele>196.25</ele><time>2026-04-18T11:10:09.771Z</time></trkpt><trkpt lat="42.685055" lon="11.479835"><ele>196.0</ele><time>2026-04-18T11:10:10.764Z</time></trkpt><trkpt lat="42.6850583" lon="11.480015"><ele>195.5</ele><time>2026-04-18T11:10:11.772Z</time></trkpt><trkpt lat="42.68506" lon="11.4801933"><ele>195.0</ele><time>2026-04-18T11:10:12.77Z</time></trkpt><trkpt lat="42.68506" lon="11.480365"><ele>194.5</ele><time>2026-04-18T11:10:13.77Z</time></trkpt><trkpt lat="42.6850617" lon="11.4805333"><ele>194.0</ele><time>2026-04-18T11:10:14.773Z</time></trkpt><trkpt lat="42.68506" lon="11.4807067"><ele>193.0</ele><time>2026-04-18T11:10:15.769Z</time></trkpt><trkpt lat="42.6850567" lon="11.4808867"><ele>192.0</ele><time>2026-04-18T11:10:16.772Z</time></trkpt><trkpt lat="42.6850533" lon="11.48107"><ele>191.0</ele><time>2026-04-18T11:10:17.769Z</time></trkpt><trkpt lat="42.6850517" lon="11.4812517"><ele>190.0</ele><time>2026-04-18T11:10:18.773Z</time></trkpt><trkpt lat="42.68505" lon="11.4814283"><ele>188.75</ele><time>2026-04-18T11:10:19.771Z</time></trkpt><trkpt lat="42.6850533" lon="11.4816017"><ele>187.5</ele><time>2026-04-18T11:10:20.774Z</time></trkpt><trkpt lat="42.6850517" lon="11.4817733"><ele>186.25</ele><time>2026-04-18T11:10:21.77Z</time></trkpt><trkpt lat="42.6850483" lon="11.48194"><ele>185.0</ele><time>2026-04-18T11:10:22.769Z</time></trkpt><trkpt lat="42.6850417" lon="11.4820983"><ele>183.25</ele><time>2026-04-18T11:10:23.773Z</time></trkpt><trkpt lat="42.6850283" lon="11.482255"><ele>181.5</ele><time>2026-04-18T11:10:24.771Z</time></trkpt><trkpt lat="42.6849933" lon="11.482405"><ele>179.75</ele><time>2026-04-18T11:10:25.771Z</time></trkpt><trkpt lat="42.6849283" lon="11.482545"><ele>178.0</ele><time>2026-04-18T11:10:26.771Z</time></trkpt><trkpt lat="42.684835" lon="11.482665"><ele>178.0</ele><time>2026-04-18T11:10:27.772Z</time></trkpt><trkpt lat="42.6847283" lon="11.4827517"><ele>178.0</ele><time>2026-04-18T11:10:28.772Z</time></trkpt><trkpt lat="42.684595" lon="11.4828183"><ele>178.0</ele><time>2026-04-18T11:10:29.772Z</time></trkpt><trkpt lat="42.6844517" lon="11.482855"><ele>178.0</ele><time>2026-04-18T11:10:30.769Z</time></trkpt><trkpt lat="42.6843033" lon="11.4828817"><ele>178.75</ele><time>2026-04-18T11:10:31.772Z</time></trkpt><trkpt lat="42.6841617" lon="11.4829067"><ele>179.5</ele><time>2026-04-18T11:10:32.774Z</time></trkpt><trkpt lat="42.6840217" lon="11.4829333"><ele>180.25</ele><time>2026-04-18T11:10:33.771Z</time></trkpt><trkpt lat="42.6838867" lon="11.48296"><ele>181.0</ele><time>2026-04-18T11:10:34.772Z</time></trkpt><trkpt lat="42.6837567" lon="11.48299"><ele>178.25</ele><time>2026-04-18T11:10:35.772Z</time></trkpt><trkpt lat="42.6836317" lon="11.4830367"><ele>175.5</ele><time>2026-04-18T11:10:36.769Z</time></trkpt><trkpt lat="42.6835083" lon="11.4831083"><ele>172.75</ele><time>2026-04-18T11:10:37.77Z</time></trkpt><trkpt lat="42.6833917" lon="11.48321"><ele>170.0</ele><time>2026-04-18T11:10:38.775Z</time></trkpt><trkpt lat="42.683285" lon="11.4833367"><ele>168.66666666666666</ele><time>2026-04-18T11:10:39.772Z</time></trkpt><trkpt lat="42.6831833" lon="11.4834883"><ele>167.33333333333334</ele><time>2026-04-18T11:10:40.771Z</time></trkpt><trkpt lat="42.6830867" lon="11.4836583"><ele>166.0</ele><time>2026-04-18T11:10:41.77Z</time></trkpt><trkpt lat="42.6830017" lon="11.4838467"><ele>165.33333333333334</ele><time>2026-04-18T11:10:42.771Z</time></trkpt><trkpt lat="42.6829233" lon="11.4840483"><ele>164.66666666666666</ele><time>2026-04-18T11:10:43.77Z</time></trkpt><trkpt lat="42.68285" lon="11.484255"><ele>164.0</ele><time>2026-04-18T11:10:44.771Z</time></trkpt><trkpt lat="42.6827817" lon="11.4844583"><ele>164.33333333333331</ele><time>2026-04-18T11:10:45.77Z</time></trkpt><trkpt lat="42.682715" lon="11.4846517"><ele>164.66666666666666</ele><time>2026-04-18T11:10:46.77Z</time></trkpt><trkpt lat="42.682645" lon="11.4848317"><ele>165.0</ele><time>2026-04-18T11:10:47.77Z</time></trkpt><trkpt lat="42.68258" lon="11.48501"><ele>165.0</ele><time>2026-04-18T11:10:48.773Z</time></trkpt><trkpt lat="42.6825183" lon="11.485185"><ele>165.0</ele><time>2026-04-18T11:10:49.769Z</time></trkpt><trkpt lat="42.6824567" lon="11.4853567"><ele>165.0</ele><time>2026-04-18T11:10:50.771Z</time></trkpt><trkpt lat="42.6824" lon="11.4855283"><ele>165.0</ele><time>2026-04-18T11:10:51.769Z</time></trkpt><trkpt lat="42.682365" lon="11.4857017"><ele>166.5</ele><time>2026-04-18T11:10:52.769Z</time></trkpt><trkpt lat="42.6823617" lon="11.4858817"><ele>168.0</ele><time>2026-04-18T11:10:53.772Z</time></trkpt><trkpt lat="42.6823917" lon="11.4860567"><ele>169.5</ele><time>2026-04-18T11:10:54.77Z</time></trkpt><trkpt lat="42.682445" lon="11.486235"><ele>171.0</ele><time>2026-04-18T11:10:55.771Z</time></trkpt><trkpt lat="42.6825283" lon="11.4863917"><ele>172.33333333333334</ele><time>2026-04-18T11:10:56.77Z</time></trkpt><trkpt lat="42.6826383" lon="11.4865267"><ele>173.66666666666669</ele><time>2026-04-18T11:10:57.77Z</time></trkpt><trkpt lat="42.6827733" lon="11.4866383"><ele>175.0</ele><time>2026-04-18T11:10:58.772Z</time></trkpt><trkpt lat="42.6829267" lon="11.4867383"><ele>176.33333333333334</ele><time>2026-04-18T11:10:59.772Z</time></trkpt><trkpt lat="42.6830833" lon="11.4868417"><ele>177.66666666666666</ele><time>2026-04-18T11:11:00.766Z</time></trkpt><trkpt lat="42.6832417" lon="11.4869483"><ele>179.0</ele><time>2026-04-18T11:11:01.77Z</time></trkpt><trkpt lat="42.6834033" lon="11.4870517"><ele>180.33333333333331</ele><time>2026-04-18T11:11:02.773Z</time></trkpt><trkpt lat="42.68357" lon="11.4871567"><ele>181.66666666666666</ele><time>2026-04-18T11:11:03.759Z</time></trkpt><trkpt lat="42.683745" lon="11.487255"><ele>183.0</ele><time>2026-04-18T11:11:04.759Z</time></trkpt><trkpt lat="42.6839233" lon="11.4873467"><ele>183.33333333333334</ele><time>2026-04-18T11:11:05.771Z</time></trkpt><trkpt lat="42.6840967" lon="11.4874367"><ele>183.66666666666669</ele><time>2026-04-18T11:11:06.767Z</time></trkpt><trkpt lat="42.68427" lon="11.4875367"><ele>184.0</ele><time>2026-04-18T11:11:07.772Z</time></trkpt><trkpt lat="42.6844417" lon="11.4876533"><ele>184.0</ele><time>2026-04-18T11:11:08.775Z</time></trkpt><trkpt lat="42.6846067" lon="11.4877633"><ele>184.0</ele><time>2026-04-18T11:11:09.77Z</time></trkpt><trkpt lat="42.684765" lon="11.487865"><ele>184.0</ele><time>2026-04-18T11:11:10.771Z</time></trkpt><trkpt lat="42.684915" lon="11.487955"><ele>185.75</ele><time>2026-04-18T11:11:11.772Z</time></trkpt><trkpt lat="42.6850517" lon="11.4880383"><ele>187.5</ele><time>2026-04-18T11:11:12.772Z</time></trkpt><trkpt lat="42.6851833" lon="11.4881267"><ele>189.25</ele><time>2026-04-18T11:11:13.77Z</time></trkpt><trkpt lat="42.6853133" lon="11.4882067"><ele>191.0</ele><time>2026-04-18T11:11:14.775Z</time></trkpt><trkpt lat="42.68543" lon="11.4882883"><ele>191.5</ele><time>2026-04-18T11:11:15.771Z</time></trkpt><trkpt lat="42.68555" lon="11.4883817"><ele>192.0</ele><time>2026-04-18T11:11:16.772Z</time></trkpt><trkpt lat="42.68566" lon="11.4885"><ele>192.5</ele><time>2026-04-18T11:11:17.771Z</time></trkpt><trkpt lat="42.6857533" lon="11.488645"><ele>193.0</ele><time>2026-04-18T11:11:18.768Z</time></trkpt><trkpt lat="42.685825" lon="11.4888117"><ele>195.33333333333331</ele><time>2026-04-18T11:11:19.767Z</time></trkpt><trkpt lat="42.6858767" lon="11.4890017"><ele>197.66666666666669</ele><time>2026-04-18T11:11:20.772Z</time></trkpt><trkpt lat="42.6859083" lon="11.4892033"><ele>200.0</ele><time>2026-04-18T11:11:21.766Z</time></trkpt><trkpt lat="42.6859217" lon="11.489425"><ele>202.0</ele><time>2026-04-18T11:11:22.769Z</time></trkpt><trkpt lat="42.6859317" lon="11.4896583"><ele>204.0</ele><time>2026-04-18T11:11:23.768Z</time></trkpt><trkpt lat="42.685935" lon="11.4899033"><ele>206.0</ele><time>2026-04-18T11:11:24.772Z</time></trkpt><trkpt lat="42.6859333" lon="11.4901567"><ele>206.0</ele><time>2026-04-18T11:11:25.771Z</time></trkpt><trkpt lat="42.6859267" lon="11.4904167"><ele>206.0</ele><time>2026-04-18T11:11:26.771Z</time></trkpt><trkpt lat="42.6859217" lon="11.4906767"><ele>206.0</ele><time>2026-04-18T11:11:27.766Z</time></trkpt><trkpt lat="42.68592" lon="11.4909417"><ele>206.33333333333334</ele><time>2026-04-18T11:11:28.771Z</time></trkpt><trkpt lat="42.6859217" lon="11.49122"><ele>206.66666666666669</ele><time>2026-04-18T11:11:29.77Z</time></trkpt><trkpt lat="42.68592" lon="11.491505"><ele>207.0</ele><time>2026-04-18T11:11:30.775Z</time></trkpt><trkpt lat="42.6859183" lon="11.49179"><ele>208.33333333333331</ele><time>2026-04-18T11:11:31.769Z</time></trkpt><trkpt lat="42.6859167" lon="11.49207"><ele>209.66666666666666</ele><time>2026-04-18T11:11:32.771Z</time></trkpt><trkpt lat="42.685915" lon="11.4923533"><ele>211.0</ele><time>2026-04-18T11:11:33.765Z</time></trkpt><trkpt lat="42.685915" lon="11.4926383"><ele>213.66666666666666</ele><time>2026-04-18T11:11:34.772Z</time></trkpt><trkpt lat="42.6859117" lon="11.4929233"><ele>216.33333333333331</ele><time>2026-04-18T11:11:35.771Z</time></trkpt><trkpt lat="42.685915" lon="11.4932067"><ele>219.0</ele><time>2026-04-18T11:11:36.771Z</time></trkpt><trkpt lat="42.685915" lon="11.4934833"><ele>219.66666666666669</ele><time>2026-04-18T11:11:37.77Z</time></trkpt><trkpt lat="42.685915" lon="11.4937567"><ele>220.33333333333334</ele><time>2026-04-18T11:11:38.775Z</time></trkpt><trkpt lat="42.6859167" lon="11.4940267"><ele>221.0</ele><time>2026-04-18T11:11:39.771Z</time></trkpt><trkpt lat="42.68592" lon="11.4942933"><ele>221.0</ele><time>2026-04-18T11:11:40.77Z</time></trkpt><trkpt lat="42.68592" lon="11.4945617"><ele>221.0</ele><time>2026-04-18T11:11:41.772Z</time></trkpt><trkpt lat="42.6859217" lon="11.49483"><ele>221.0</ele><time>2026-04-18T11:11:42.772Z</time></trkpt><trkpt lat="42.68592" lon="11.495095"><ele>221.33333333333334</ele><time>2026-04-18T11:11:43.771Z</time></trkpt><trkpt lat="42.68592" lon="11.49536"><ele>221.66666666666669</ele><time>2026-04-18T11:11:44.775Z</time></trkpt><trkpt lat="42.68592" lon="11.4956217"><ele>222.0</ele><time>2026-04-18T11:11:45.769Z</time></trkpt><trkpt lat="42.68592" lon="11.4958833"><ele>222.66666666666669</ele><time>2026-04-18T11:11:46.771Z</time></trkpt><trkpt lat="42.68592" lon="11.4961367"><ele>223.33333333333334</ele><time>2026-04-18T11:11:47.772Z</time></trkpt><trkpt lat="42.6859217" lon="11.496395"><ele>224.0</ele><time>2026-04-18T11:11:48.772Z</time></trkpt><trkpt lat="42.6859217" lon="11.4966517"><ele>225.0</ele><time>2026-04-18T11:11:49.772Z</time></trkpt><trkpt lat="42.68592" lon="11.49691"><ele>226.0</ele><time>2026-04-18T11:11:50.772Z</time></trkpt><trkpt lat="42.6859217" lon="11.497165"><ele>227.0</ele><time>2026-04-18T11:11:51.771Z</time></trkpt><trkpt lat="42.6859217" lon="11.4974217"><ele>227.66666666666669</ele><time>2026-04-18T11:11:52.77Z</time></trkpt><trkpt lat="42.6859233" lon="11.497685"><ele>228.33333333333331</ele><time>2026-04-18T11:11:53.771Z</time></trkpt><trkpt lat="42.6859233" lon="11.497955"><ele>229.0</ele><time>2026-04-18T11:11:54.769Z</time></trkpt><trkpt lat="42.6859267" lon="11.4982233"><ele>229.66666666666666</ele><time>2026-04-18T11:11:55.773Z</time></trkpt><trkpt lat="42.6859283" lon="11.4984833"><ele>230.33333333333331</ele><time>2026-04-18T11:11:56.773Z</time></trkpt><trkpt lat="42.6859267" lon="11.4987333"><ele>231.0</ele><time>2026-04-18T11:11:57.771Z</time></trkpt><trkpt lat="42.6859283" lon="11.49899"><ele>231.66666666666669</ele><time>2026-04-18T11:11:58.769Z</time></trkpt><trkpt lat="42.685935" lon="11.499245"><ele>232.33333333333334</ele><time>2026-04-18T11:11:59.771Z</time></trkpt><trkpt lat="42.6859417" lon="11.4994967"><ele>233.0</ele><time>2026-04-18T11:12:00.771Z</time></trkpt><trkpt lat="42.68594" lon="11.4997583"><ele>233.0</ele><time>2026-04-18T11:12:01.774Z</time></trkpt><trkpt lat="42.6859383" lon="11.500025"><ele>233.0</ele><time>2026-04-18T11:12:02.772Z</time></trkpt><trkpt lat="42.6859383" lon="11.500295"><ele>233.0</ele><time>2026-04-18T11:12:03.772Z</time></trkpt><trkpt lat="42.6859383" lon="11.5005667"><ele>233.0</ele><time>2026-04-18T11:12:04.772Z</time></trkpt><trkpt lat="42.68594" lon="11.5008333"><ele>233.0</ele><time>2026-04-18T11:12:05.77Z</time></trkpt><trkpt lat="42.68594" lon="11.5010983"><ele>233.0</ele><time>2026-04-18T11:12:06.772Z</time></trkpt><trkpt lat="42.6859383" lon="11.5013567"><ele>233.0</ele><time>2026-04-18T11:12:07.771Z</time></trkpt><trkpt lat="42.685935" lon="11.5016117"><ele>233.0</ele><time>2026-04-18T11:12:08.773Z</time></trkpt><trkpt lat="42.6859317" lon="11.5018717"><ele>233.0</ele><time>2026-04-18T11:12:09.771Z</time></trkpt><trkpt lat="42.68593" lon="11.5021317"><ele>234.0</ele><time>2026-04-18T11:12:10.771Z</time></trkpt><trkpt lat="42.68593" lon="11.50239"><ele>235.0</ele><time>2026-04-18T11:12:11.771Z</time></trkpt><trkpt lat="42.6859333" lon="11.5026517"><ele>236.0</ele><time>2026-04-18T11:12:12.773Z</time></trkpt><trkpt lat="42.6859383" lon="11.5029167"><ele>236.0</ele><time>2026-04-18T11:12:13.772Z</time></trkpt><trkpt lat="42.685945" lon="11.5031817"><ele>236.0</ele><time>2026-04-18T11:12:14.774Z</time></trkpt><trkpt lat="42.6859517" lon="11.5034483"><ele>236.0</ele><time>2026-04-18T11:12:15.773Z</time></trkpt><trkpt lat="42.685955" lon="11.50371"><ele>235.66666666666669</ele><time>2026-04-18T11:12:16.771Z</time></trkpt><trkpt lat="42.6859517" lon="11.50398"><ele>235.33333333333331</ele><time>2026-04-18T11:12:17.773Z</time></trkpt><trkpt lat="42.6859467" lon="11.5042483"><ele>235.0</ele><time>2026-04-18T11:12:18.77Z</time></trkpt><trkpt lat="42.6859417" lon="11.5045167"><ele>234.33333333333331</ele><time>2026-04-18T11:12:19.771Z</time></trkpt><trkpt lat="42.6859383" lon="11.5047917"><ele>233.66666666666669</ele><time>2026-04-18T11:12:20.774Z</time></trkpt><trkpt lat="42.68594" lon="11.505065"><ele>233.0</ele><time>2026-04-18T11:12:21.769Z</time></trkpt><trkpt lat="42.68594" lon="11.5053417"><ele>233.0</ele><time>2026-04-18T11:12:22.769Z</time></trkpt><trkpt lat="42.6859417" lon="11.5056133"><ele>233.0</ele><time>2026-04-18T11:12:23.766Z</time></trkpt><trkpt lat="42.685945" lon="11.505885"><ele>233.0</ele><time>2026-04-18T11:12:24.776Z</time></trkpt><trkpt lat="42.685945" lon="11.5061583"><ele>232.66666666666669</ele><time>2026-04-18T11:12:25.771Z</time></trkpt><trkpt lat="42.685945" lon="11.506425"><ele>232.33333333333331</ele><time>2026-04-18T11:12:26.772Z</time></trkpt><trkpt lat="42.685945" lon="11.50668"><ele>232.0</ele><time>2026-04-18T11:12:27.77Z</time></trkpt><trkpt lat="42.6859367" lon="11.5069217"><ele>232.0</ele><time>2026-04-18T11:12:28.77Z</time></trkpt><trkpt lat="42.6859117" lon="11.507135"><ele>232.0</ele><time>2026-04-18T11:12:29.771Z</time></trkpt><trkpt lat="42.6858633" lon="11.5073383"><ele>232.0</ele><time>2026-04-18T11:12:30.771Z</time></trkpt><trkpt lat="42.6857883" lon="11.50753"><ele>232.0</ele><time>2026-04-18T11:12:31.77Z</time></trkpt><trkpt lat="42.68569" lon="11.5077167"><ele>232.0</ele><time>2026-04-18T11:12:32.773Z</time></trkpt><trkpt lat="42.6855767" lon="11.5079"><ele>232.0</ele><time>2026-04-18T11:12:33.768Z</time></trkpt><trkpt lat="42.6854567" lon="11.508085"><ele>232.33333333333331</ele><time>2026-04-18T11:12:34.77Z</time></trkpt><trkpt lat="42.685335" lon="11.5082833"><ele>232.66666666666669</ele><time>2026-04-18T11:12:35.771Z</time></trkpt><trkpt lat="42.685215" lon="11.5084867"><ele>233.0</ele><time>2026-04-18T11:12:36.769Z</time></trkpt><trkpt lat="42.685085" lon="11.508695"><ele>232.0</ele><time>2026-04-18T11:12:37.772Z</time></trkpt><trkpt lat="42.6849517" lon="11.5089033"><ele>231.0</ele><time>2026-04-18T11:12:38.771Z</time></trkpt><trkpt lat="42.6848133" lon="11.5091133"><ele>230.0</ele><time>2026-04-18T11:12:39.771Z</time></trkpt><trkpt lat="42.6846783" lon="11.50932"><ele>230.0</ele><time>2026-04-18T11:12:40.77Z</time></trkpt><trkpt lat="42.6845433" lon="11.5095317"><ele>230.0</ele><time>2026-04-18T11:12:41.769Z</time></trkpt><trkpt lat="42.6844083" lon="11.509745"><ele>230.0</ele><time>2026-04-18T11:12:42.765Z</time></trkpt><trkpt lat="42.6842717" lon="11.50996"><ele>229.33333333333334</ele><time>2026-04-18T11:12:43.772Z</time></trkpt><trkpt lat="42.6841367" lon="11.5101783"><ele>228.66666666666669</ele><time>2026-04-18T11:12:44.772Z</time></trkpt><trkpt lat="42.6840033" lon="11.510395"><ele>228.0</ele><time>2026-04-18T11:12:45.77Z</time></trkpt><trkpt lat="42.68387" lon="11.5106133"><ele>227.33333333333331</ele><time>2026-04-18T11:12:46.771Z</time></trkpt><trkpt lat="42.6837383" lon="11.5108317"><ele>226.66666666666666</ele><time>2026-04-18T11:12:47.769Z</time></trkpt><trkpt lat="42.683605" lon="11.5110483"><ele>226.0</ele><time>2026-04-18T11:12:48.767Z</time></trkpt><trkpt lat="42.68347" lon="11.51126"><ele>224.0</ele><time>2026-04-18T11:12:49.769Z</time></trkpt><trkpt lat="42.6833417" lon="11.5114683"><ele>222.0</ele><time>2026-04-18T11:12:50.772Z</time></trkpt><trkpt lat="42.68321" lon="11.51167"><ele>220.0</ele><time>2026-04-18T11:12:51.773Z</time></trkpt><trkpt lat="42.683085" lon="11.5118633"><ele>220.0</ele><time>2026-04-18T11:12:52.77Z</time></trkpt><trkpt lat="42.68296" lon="11.5120517"><ele>220.0</ele><time>2026-04-18T11:12:53.77Z</time></trkpt><trkpt lat="42.6828383" lon="11.51224"><ele>220.0</ele><time>2026-04-18T11:12:54.768Z</time></trkpt><trkpt lat="42.6827117" lon="11.5124133"><ele>216.0</ele><time>2026-04-18T11:12:55.77Z</time></trkpt><trkpt lat="42.68258" lon="11.51256"><ele>212.0</ele><time>2026-04-18T11:12:56.774Z</time></trkpt><trkpt lat="42.682435" lon="11.5126767"><ele>208.0</ele><time>2026-04-18T11:12:57.77Z</time></trkpt><trkpt lat="42.6822783" lon="11.5127517"><ele>208.0</ele><time>2026-04-18T11:12:58.769Z</time></trkpt><trkpt lat="42.6821183" lon="11.5128017"><ele>208.0</ele><time>2026-04-18T11:12:59.771Z</time></trkpt><trkpt lat="42.681945" lon="11.5128067"><ele>208.0</ele><time>2026-04-18T11:13:00.772Z</time></trkpt><trkpt lat="42.68176" lon="11.5127683"><ele>206.33333333333331</ele><time>2026-04-18T11:13:01.771Z</time></trkpt><trkpt lat="42.6815683" lon="11.5127167"><ele>204.66666666666669</ele><time>2026-04-18T11:13:02.773Z</time></trkpt><trkpt lat="42.6813783" lon="11.5126617"><ele>203.0</ele><time>2026-04-18T11:13:03.771Z</time></trkpt><trkpt lat="42.681185" lon="11.5126083"><ele>201.0</ele><time>2026-04-18T11:13:04.769Z</time></trkpt><trkpt lat="42.6809917" lon="11.5125633"><ele>199.0</ele><time>2026-04-18T11:13:05.771Z</time></trkpt><trkpt lat="42.6807883" lon="11.5125183"><ele>197.0</ele><time>2026-04-18T11:13:06.77Z</time></trkpt><trkpt lat="42.680585" lon="11.5124767"><ele>197.0</ele><time>2026-04-18T11:13:07.77Z</time></trkpt><trkpt lat="42.68038" lon="11.5124267"><ele>197.0</ele><time>2026-04-18T11:13:08.772Z</time></trkpt><trkpt lat="42.6801733" lon="11.5123767"><ele>197.0</ele><time>2026-04-18T11:13:09.77Z</time></trkpt><trkpt lat="42.6799633" lon="11.5123217"><ele>194.33333333333334</ele><time>2026-04-18T11:13:10.771Z</time></trkpt><trkpt lat="42.6797533" lon="11.51227"><ele>191.66666666666669</ele><time>2026-04-18T11:13:11.771Z</time></trkpt><trkpt lat="42.679545" lon="11.5122233"><ele>189.0</ele><time>2026-04-18T11:13:12.773Z</time></trkpt><trkpt lat="42.6793367" lon="11.5121867"><ele>188.33333333333334</ele><time>2026-04-18T11:13:13.771Z</time></trkpt><trkpt lat="42.6791283" lon="11.5121567"><ele>187.66666666666669</ele><time>2026-04-18T11:13:14.772Z</time></trkpt><trkpt lat="42.6789233" lon="11.512135"><ele>187.0</ele><time>2026-04-18T11:13:15.77Z</time></trkpt><trkpt lat="42.67872" lon="11.5121067"><ele>186.0</ele><time>2026-04-18T11:13:16.771Z</time></trkpt><trkpt lat="42.67852" lon="11.512075"><ele>185.0</ele><time>2026-04-18T11:13:17.771Z</time></trkpt><trkpt lat="42.6783283" lon="11.5120517"><ele>184.0</ele><time>2026-04-18T11:13:18.77Z</time></trkpt><trkpt lat="42.6781383" lon="11.5120367"><ele>187.0</ele><time>2026-04-18T11:13:19.77Z</time></trkpt><trkpt lat="42.677955" lon="11.5120167"><ele>190.0</ele><time>2026-04-18T11:13:20.773Z</time></trkpt><trkpt lat="42.677785" lon="11.511985"><ele>193.0</ele><time>2026-04-18T11:13:21.772Z</time></trkpt><trkpt lat="42.67761" lon="11.511955"><ele>193.0</ele><time>2026-04-18T11:13:22.771Z</time></trkpt><trkpt lat="42.6774333" lon="11.5119217"><ele>193.0</ele><time>2026-04-18T11:13:23.771Z</time></trkpt><trkpt lat="42.6772617" lon="11.51189"><ele>193.0</ele><time>2026-04-18T11:13:24.771Z</time></trkpt><trkpt lat="42.6770933" lon="11.5118533"><ele>190.66666666666666</ele><time>2026-04-18T11:13:25.77Z</time></trkpt><trkpt lat="42.6769283" lon="11.5117983"><ele>188.33333333333331</ele><time>2026-04-18T11:13:26.77Z</time></trkpt><trkpt lat="42.676765" lon="11.5117117"><ele>186.0</ele><time>2026-04-18T11:13:27.771Z</time></trkpt><trkpt lat="42.676605" lon="11.5116183"><ele>186.0</ele><time>2026-04-18T11:13:28.77Z</time></trkpt><trkpt lat="42.6764533" lon="11.5115183"><ele>186.0</ele><time>2026-04-18T11:13:29.771Z</time></trkpt><trkpt lat="42.6763067" lon="11.5114367"><ele>186.0</ele><time>2026-04-18T11:13:30.771Z</time></trkpt><trkpt lat="42.676155" lon="11.5113883"><ele>184.25</ele><time>2026-04-18T11:13:31.77Z</time></trkpt><trkpt lat="42.6760067" lon="11.5113783"><ele>182.5</ele><time>2026-04-18T11:13:32.774Z</time></trkpt><trkpt lat="42.6758717" lon="11.5114017"><ele>180.75</ele><time>2026-04-18T11:13:33.77Z</time></trkpt><trkpt lat="42.67575" lon="11.5114533"><ele>179.0</ele><time>2026-04-18T11:13:34.768Z</time></trkpt><trkpt lat="42.675635" lon="11.5115133"><ele>179.0</ele><time>2026-04-18T11:13:35.768Z</time></trkpt><trkpt lat="42.675525" lon="11.51158"><ele>179.0</ele><time>2026-04-18T11:13:36.769Z</time></trkpt><trkpt lat="42.6754167" lon="11.51165"><ele>179.0</ele><time>2026-04-18T11:13:37.77Z</time></trkpt><trkpt lat="42.6753183" lon="11.5117083"><ele>179.0</ele><time>2026-04-18T11:13:38.772Z</time></trkpt><trkpt lat="42.67524" lon="11.5117883"><ele>179.0</ele><time>2026-04-18T11:13:39.771Z</time></trkpt><trkpt lat="42.675175" lon="11.5118767"><ele>181.2</ele><time>2026-04-18T11:13:40.764Z</time></trkpt><trkpt lat="42.67512" lon="11.5119683"><ele>183.39999999999998</ele><time>2026-04-18T11:13:41.766Z</time></trkpt><trkpt lat="42.675085" lon="11.5120817"><ele>185.6</ele><time>2026-04-18T11:13:42.764Z</time></trkpt><trkpt lat="42.6750833" lon="11.5122317"><ele>187.8</ele><time>2026-04-18T11:13:43.771Z</time></trkpt><trkpt lat="42.6751" lon="11.5123983"><ele>190.0</ele><time>2026-04-18T11:13:44.772Z</time></trkpt><trkpt lat="42.6751267" lon="11.5125717"><ele>190.0</ele><time>2026-04-18T11:13:45.77Z</time></trkpt><trkpt lat="42.6751467" lon="11.51275"><ele>190.0</ele><time>2026-04-18T11:13:46.766Z</time></trkpt><trkpt lat="42.6751817" lon="11.5129417"><ele>190.0</ele><time>2026-04-18T11:13:47.772Z</time></trkpt><trkpt lat="42.675195" lon="11.513135"><ele>190.0</ele><time>2026-04-18T11:13:48.77Z</time></trkpt><trkpt lat="42.6752017" lon="11.5133267"><ele>189.0</ele><time>2026-04-18T11:13:49.771Z</time></trkpt><trkpt lat="42.6752067" lon="11.5135167"><ele>188.0</ele><time>2026-04-18T11:13:50.772Z</time></trkpt><trkpt lat="42.6752317" lon="11.5137083"><ele>187.0</ele><time>2026-04-18T11:13:51.77Z</time></trkpt><trkpt lat="42.6752683" lon="11.5139"><ele>186.0</ele><time>2026-04-18T11:13:52.77Z</time></trkpt><trkpt lat="42.6753333" lon="11.51409"><ele>183.66666666666666</ele><time>2026-04-18T11:13:53.766Z</time></trkpt><trkpt lat="42.675425" lon="11.5142683"><ele>181.33333333333331</ele><time>2026-04-18T11:13:54.775Z</time></trkpt><trkpt lat="42.6755367" lon="11.5144433"><ele>179.0</ele><time>2026-04-18T11:13:55.771Z</time></trkpt><trkpt lat="42.675655" lon="11.514625"><ele>179.0</ele><time>2026-04-18T11:13:56.772Z</time></trkpt><trkpt lat="42.6757683" lon="11.5148033"><ele>179.0</ele><time>2026-04-18T11:13:57.771Z</time></trkpt><trkpt lat="42.675875" lon="11.5149833"><ele>179.0</ele><time>2026-04-18T11:13:58.77Z</time></trkpt><trkpt lat="42.6759883" lon="11.5151617"><ele>179.0</ele><time>2026-04-18T11:13:59.77Z</time></trkpt><trkpt lat="42.6761017" lon="11.5153383"><ele>179.0</ele><time>2026-04-18T11:14:00.765Z</time></trkpt><trkpt lat="42.6762217" lon="11.515515"><ele>179.0</ele><time>2026-04-18T11:14:01.762Z</time></trkpt><trkpt lat="42.6763367" lon="11.5156917"><ele>179.0</ele><time>2026-04-18T11:14:02.773Z</time></trkpt><trkpt lat="42.6764467" lon="11.5158717"><ele>179.0</ele><time>2026-04-18T11:14:03.77Z</time></trkpt><trkpt lat="42.6765483" lon="11.516045"><ele>179.0</ele><time>2026-04-18T11:14:04.771Z</time></trkpt><trkpt lat="42.6766317" lon="11.5162117"><ele>179.75</ele><time>2026-04-18T11:14:05.769Z</time></trkpt><trkpt lat="42.6766783" lon="11.51638"><ele>180.5</ele><time>2026-04-18T11:14:06.77Z</time></trkpt><trkpt lat="42.6766883" lon="11.5165467"><ele>181.25</ele><time>2026-04-18T11:14:07.771Z</time></trkpt><trkpt lat="42.6766667" lon="11.5167183"><ele>182.0</ele><time>2026-04-18T11:14:08.773Z</time></trkpt><trkpt lat="42.6766083" lon="11.5168783"><ele>182.0</ele><time>2026-04-18T11:14:09.771Z</time></trkpt><trkpt lat="42.676515" lon="11.5170133"><ele>182.0</ele><time>2026-04-18T11:14:10.771Z</time></trkpt><trkpt lat="42.6763983" lon="11.51714"><ele>182.0</ele><time>2026-04-18T11:14:11.772Z</time></trkpt><trkpt lat="42.6762617" lon="11.5172667"><ele>182.0</ele><time>2026-04-18T11:14:12.772Z</time></trkpt><trkpt lat="42.6761133" lon="11.5173867"><ele>182.0</ele><time>2026-04-18T11:14:13.772Z</time></trkpt><trkpt lat="42.67596" lon="11.5175167"><ele>182.0</ele><time>2026-04-18T11:14:14.773Z</time></trkpt><trkpt lat="42.6758017" lon="11.5176467"><ele>183.0</ele><time>2026-04-18T11:14:15.77Z</time></trkpt><trkpt lat="42.6756383" lon="11.5177767"><ele>184.0</ele><time>2026-04-18T11:14:16.769Z</time></trkpt><trkpt lat="42.67548" lon="11.5179133"><ele>185.0</ele><time>2026-04-18T11:14:17.77Z</time></trkpt><trkpt lat="42.6753217" lon="11.5180583"><ele>187.66666666666666</ele><time>2026-04-18T11:14:18.776Z</time></trkpt><trkpt lat="42.6751617" lon="11.5182017"><ele>190.33333333333331</ele><time>2026-04-18T11:14:19.768Z</time></trkpt><trkpt lat="42.6750033" lon="11.5183417"><ele>193.0</ele><time>2026-04-18T11:14:20.771Z</time></trkpt><trkpt lat="42.6748467" lon="11.5184733"><ele>193.0</ele><time>2026-04-18T11:14:21.768Z</time></trkpt><trkpt lat="42.6746967" lon="11.5186067"><ele>193.0</ele><time>2026-04-18T11:14:22.771Z</time></trkpt><trkpt lat="42.67454" lon="11.5187333"><ele>193.0</ele><time>2026-04-18T11:14:23.77Z</time></trkpt><trkpt lat="42.6743917" lon="11.518865"><ele>194.66666666666666</ele><time>2026-04-18T11:14:24.772Z</time></trkpt><trkpt lat="42.67425" lon="11.519005"><ele>196.33333333333331</ele><time>2026-04-18T11:14:25.771Z</time></trkpt><trkpt lat="42.6741217" lon="11.5191683"><ele>198.0</ele><time>2026-04-18T11:14:26.774Z</time></trkpt><trkpt lat="42.674015" lon="11.5193633"><ele>197.33333333333331</ele><time>2026-04-18T11:14:27.771Z</time></trkpt><trkpt lat="42.6739183" lon="11.5195867"><ele>196.66666666666666</ele><time>2026-04-18T11:14:28.768Z</time></trkpt><trkpt lat="42.6738317" lon="11.519825"><ele>196.0</ele><time>2026-04-18T11:14:29.77Z</time></trkpt><trkpt lat="42.6737417" lon="11.5200717"><ele>196.0</ele><time>2026-04-18T11:14:30.771Z</time></trkpt><trkpt lat="42.6736517" lon="11.5203233"><ele>196.0</ele><time>2026-04-18T11:14:31.769Z</time></trkpt><trkpt lat="42.67356" lon="11.520575"><ele>196.0</ele><time>2026-04-18T11:14:32.771Z</time></trkpt><trkpt lat="42.6734667" lon="11.5208233"><ele>197.0</ele><time>2026-04-18T11:14:33.769Z</time></trkpt><trkpt lat="42.67337" lon="11.5210667"><ele>198.0</ele><time>2026-04-18T11:14:34.771Z</time></trkpt><trkpt lat="42.6732733" lon="11.5213033"><ele>199.0</ele><time>2026-04-18T11:14:35.768Z</time></trkpt><trkpt lat="42.673185" lon="11.521535"><ele>199.0</ele><time>2026-04-18T11:14:36.771Z</time></trkpt><trkpt lat="42.6730983" lon="11.5217567"><ele>199.0</ele><time>2026-04-18T11:14:37.769Z</time></trkpt><trkpt lat="42.6730117" lon="11.52197"><ele>199.0</ele><time>2026-04-18T11:14:38.776Z</time></trkpt><trkpt lat="42.6729333" lon="11.5221683"><ele>199.0</ele><time>2026-04-18T11:14:39.766Z</time></trkpt><trkpt lat="42.672855" lon="11.5223683"><ele>199.0</ele><time>2026-04-18T11:14:40.772Z</time></trkpt><trkpt lat="42.6727717" lon="11.522575"><ele>199.0</ele><time>2026-04-18T11:14:41.77Z</time></trkpt><trkpt lat="42.6726883" lon="11.5227883"><ele>199.33333333333331</ele><time>2026-04-18T11:14:42.766Z</time></trkpt><trkpt lat="42.6726067" lon="11.5229967"><ele>199.66666666666669</ele><time>2026-04-18T11:14:43.77Z</time></trkpt><trkpt lat="42.6725267" lon="11.523195"><ele>200.0</ele><time>2026-04-18T11:14:44.772Z</time></trkpt><trkpt lat="42.6724533" lon="11.523385"><ele>200.0</ele><time>2026-04-18T11:14:45.771Z</time></trkpt><trkpt lat="42.6723833" lon="11.5235617"><ele>200.0</ele><time>2026-04-18T11:14:46.769Z</time></trkpt><trkpt lat="42.67232" lon="11.52372"><ele>200.0</ele><time>2026-04-18T11:14:47.771Z</time></trkpt><trkpt lat="42.6722633" lon="11.5238617"><ele>200.0</ele><time>2026-04-18T11:14:48.774Z</time></trkpt><trkpt lat="42.6722133" lon="11.5239817"><ele>200.16666666666669</ele><time>2026-04-18T11:14:49.77Z</time></trkpt><trkpt lat="42.67217" lon="11.5240833"><ele>200.33333333333334</ele><time>2026-04-18T11:14:50.773Z</time></trkpt><trkpt lat="42.67213" lon="11.524165"><ele>200.5</ele><time>2026-04-18T11:14:51.773Z</time></trkpt><trkpt lat="42.6720833" lon="11.5242433"><ele>200.66666666666669</ele><time>2026-04-18T11:14:53.771Z</time></trkpt><trkpt lat="42.6720183" lon="11.5242867"><ele>200.83333333333334</ele><time>2026-04-18T11:14:56.771Z</time></trkpt><trkpt lat="42.6719267" lon="11.5243133"><ele>201.0</ele><time>2026-04-18T11:14:58.77Z</time></trkpt><trkpt lat="42.6718533" lon="11.5243133"><ele>201.0</ele><time>2026-04-18T11:14:59.772Z</time></trkpt><trkpt lat="42.6717667" lon="11.5243033"><ele>201.0</ele><time>2026-04-18T11:15:00.771Z</time></trkpt><trkpt lat="42.6716683" lon="11.524285"><ele>201.0</ele><time>2026-04-18T11:15:01.772Z</time></trkpt><trkpt lat="42.6715567" lon="11.524265"><ele>201.0</ele><time>2026-04-18T11:15:02.773Z</time></trkpt><trkpt lat="42.6714267" lon="11.524245"><ele>201.0</ele><time>2026-04-18T11:15:03.773Z</time></trkpt><trkpt lat="42.6712917" lon="11.524225"><ele>201.0</ele><time>2026-04-18T11:15:04.771Z</time></trkpt><trkpt lat="42.6711583" lon="11.5242033"><ele>201.0</ele><time>2026-04-18T11:15:05.77Z</time></trkpt><trkpt lat="42.6710233" lon="11.5241717"><ele>201.0</ele><time>2026-04-18T11:15:06.771Z</time></trkpt><trkpt lat="42.6708867" lon="11.5241317"><ele>201.0</ele><time>2026-04-18T11:15:07.772Z</time></trkpt><trkpt lat="42.6707483" lon="11.5240817"><ele>201.5</ele><time>2026-04-18T11:15:08.775Z</time></trkpt><trkpt lat="42.6706067" lon="11.5240217"><ele>202.0</ele><time>2026-04-18T11:15:09.771Z</time></trkpt><trkpt lat="42.670465" lon="11.5239583"><ele>202.5</ele><time>2026-04-18T11:15:10.77Z</time></trkpt><trkpt lat="42.6703233" lon="11.5239"><ele>203.0</ele><time>2026-04-18T11:15:11.77Z</time></trkpt><trkpt lat="42.6701817" lon="11.5238383"><ele>204.5</ele><time>2026-04-18T11:15:12.768Z</time></trkpt><trkpt lat="42.6700367" lon="11.523785"><ele>206.0</ele><time>2026-04-18T11:15:13.771Z</time></trkpt><trkpt lat="42.6698933" lon="11.523755"><ele>207.5</ele><time>2026-04-18T11:15:14.77Z</time></trkpt><trkpt lat="42.66975" lon="11.52377"><ele>209.0</ele><time>2026-04-18T11:15:15.771Z</time></trkpt><trkpt lat="42.6696117" lon="11.5238267"><ele>209.0</ele><time>2026-04-18T11:15:16.772Z</time></trkpt><trkpt lat="42.6694767" lon="11.5238967"><ele>209.0</ele><time>2026-04-18T11:15:17.769Z</time></trkpt><trkpt lat="42.6693517" lon="11.5239567"><ele>209.0</ele><time>2026-04-18T11:15:18.772Z</time></trkpt><trkpt lat="42.6692483" lon="11.5239933"><ele>209.0</ele><time>2026-04-18T11:15:19.77Z</time></trkpt><trkpt lat="42.6691483" lon="11.5239983"><ele>211.0</ele><time>2026-04-18T11:15:20.773Z</time></trkpt><trkpt lat="42.6690367" lon="11.5239467"><ele>213.0</ele><time>2026-04-18T11:15:21.771Z</time></trkpt><trkpt lat="42.66896" lon="11.52382"><ele>215.0</ele><time>2026-04-18T11:15:22.771Z</time></trkpt><trkpt lat="42.6689033" lon="11.5236217"><ele>217.0</ele><time>2026-04-18T11:15:23.768Z</time></trkpt><trkpt lat="42.6688867" lon="11.523395"><ele>217.66666666666666</ele><time>2026-04-18T11:15:24.771Z</time></trkpt><trkpt lat="42.668895" lon="11.523195"><ele>218.33333333333331</ele><time>2026-04-18T11:15:25.764Z</time></trkpt><trkpt lat="42.6689383" lon="11.5229967"><ele>219.0</ele><time>2026-04-18T11:15:26.772Z</time></trkpt><trkpt lat="42.6690017" lon="11.5228033"><ele>220.0</ele><time>2026-04-18T11:15:27.769Z</time></trkpt><trkpt lat="42.66907" lon="11.5225967"><ele>221.0</ele><time>2026-04-18T11:15:28.767Z</time></trkpt><trkpt lat="42.6691433" lon="11.5224"><ele>222.0</ele><time>2026-04-18T11:15:29.769Z</time></trkpt><trkpt lat="42.66922" lon="11.522205"><ele>223.33333333333331</ele><time>2026-04-18T11:15:30.772Z</time></trkpt><trkpt lat="42.669295" lon="11.5220017"><ele>224.66666666666666</ele><time>2026-04-18T11:15:31.771Z</time></trkpt><trkpt lat="42.6693633" lon="11.5217967"><ele>226.0</ele><time>2026-04-18T11:15:32.773Z</time></trkpt><trkpt lat="42.6694367" lon="11.5215817"><ele>225.33333333333331</ele><time>2026-04-18T11:15:33.77Z</time></trkpt><trkpt lat="42.6694983" lon="11.5213633"><ele>224.66666666666669</ele><time>2026-04-18T11:15:34.771Z</time></trkpt><trkpt lat="42.66953" lon="11.5211383"><ele>224.0</ele><time>2026-04-18T11:15:35.77Z</time></trkpt><trkpt lat="42.6695317" lon="11.5209033"><ele>224.0</ele><time>2026-04-18T11:15:36.771Z</time></trkpt><trkpt lat="42.6694967" lon="11.520665"><ele>224.0</ele><time>2026-04-18T11:15:37.77Z</time></trkpt><trkpt lat="42.66944" lon="11.5204317"><ele>224.0</ele><time>2026-04-18T11:15:38.767Z</time></trkpt><trkpt lat="42.669375" lon="11.52019"><ele>226.33333333333334</ele><time>2026-04-18T11:15:39.772Z</time></trkpt><trkpt lat="42.6693067" lon="11.5199517"><ele>228.66666666666669</ele><time>2026-04-18T11:15:40.771Z</time></trkpt><trkpt lat="42.6692483" lon="11.519715"><ele>231.0</ele><time>2026-04-18T11:15:41.77Z</time></trkpt><trkpt lat="42.66921" lon="11.5194683"><ele>232.0</ele><time>2026-04-18T11:15:42.772Z</time></trkpt><trkpt lat="42.6691933" lon="11.5192133"><ele>233.0</ele><time>2026-04-18T11:15:43.768Z</time></trkpt><trkpt lat="42.669185" lon="11.5189533"><ele>234.0</ele><time>2026-04-18T11:15:44.773Z</time></trkpt><trkpt lat="42.6691717" lon="11.518685"><ele>235.66666666666669</ele><time>2026-04-18T11:15:45.771Z</time></trkpt><trkpt lat="42.669155" lon="11.5184117"><ele>237.33333333333334</ele><time>2026-04-18T11:15:46.771Z</time></trkpt><trkpt lat="42.6691367" lon="11.5181467"><ele>239.0</ele><time>2026-04-18T11:15:47.772Z</time></trkpt><trkpt lat="42.6691183" lon="11.5178817"><ele>239.66666666666669</ele><time>2026-04-18T11:15:48.767Z</time></trkpt><trkpt lat="42.6691" lon="11.517615"><ele>240.33333333333331</ele><time>2026-04-18T11:15:49.771Z</time></trkpt><trkpt lat="42.6690833" lon="11.5173567"><ele>241.0</ele><time>2026-04-18T11:15:50.771Z</time></trkpt><trkpt lat="42.6690683" lon="11.5171133"><ele>241.0</ele><time>2026-04-18T11:15:51.767Z</time></trkpt><trkpt lat="42.6690567" lon="11.5168783"><ele>241.0</ele><time>2026-04-18T11:15:52.77Z</time></trkpt><trkpt lat="42.6690417" lon="11.5166583"><ele>241.0</ele><time>2026-04-18T11:15:53.769Z</time></trkpt><trkpt lat="42.66903" lon="11.51644"><ele>241.0</ele><time>2026-04-18T11:15:54.773Z</time></trkpt><trkpt lat="42.669015" lon="11.5162383"><ele>241.0</ele><time>2026-04-18T11:15:55.77Z</time></trkpt><trkpt lat="42.6689967" lon="11.5160467"><ele>241.0</ele><time>2026-04-18T11:15:56.773Z</time></trkpt><trkpt lat="42.6689767" lon="11.5158633"><ele>241.0</ele><time>2026-04-18T11:15:57.77Z</time></trkpt><trkpt lat="42.66896" lon="11.515675"><ele>241.25</ele><time>2026-04-18T11:15:58.77Z</time></trkpt><trkpt lat="42.6689367" lon="11.5154917"><ele>241.5</ele><time>2026-04-18T11:15:59.771Z</time></trkpt><trkpt lat="42.6689167" lon="11.51531"><ele>241.75</ele><time>2026-04-18T11:16:00.772Z</time></trkpt><trkpt lat="42.6689017" lon="11.5151267"><ele>242.0</ele><time>2026-04-18T11:16:01.771Z</time></trkpt><trkpt lat="42.6688917" lon="11.5149367"><ele>242.25</ele><time>2026-04-18T11:16:02.771Z</time></trkpt><trkpt lat="42.6688833" lon="11.51474"><ele>242.5</ele><time>2026-04-18T11:16:03.77Z</time></trkpt><trkpt lat="42.668875" lon="11.5145383"><ele>242.75</ele><time>2026-04-18T11:16:04.77Z</time></trkpt><trkpt lat="42.66888" lon="11.5143317"><ele>243.0</ele><time>2026-04-18T11:16:05.769Z</time></trkpt><trkpt lat="42.6688767" lon="11.51413"><ele>243.5</ele><time>2026-04-18T11:16:06.76Z</time></trkpt><trkpt lat="42.6688733" lon="11.51393"><ele>244.0</ele><time>2026-04-18T11:16:07.76Z</time></trkpt><trkpt lat="42.6688733" lon="11.5137333"><ele>244.5</ele><time>2026-04-18T11:16:08.77Z</time></trkpt><trkpt lat="42.6688733" lon="11.513535"><ele>245.0</ele><time>2026-04-18T11:16:09.771Z</time></trkpt><trkpt lat="42.6688717" lon="11.513335"><ele>245.5</ele><time>2026-04-18T11:16:10.77Z</time></trkpt><trkpt lat="42.66887" lon="11.5131333"><ele>246.0</ele><time>2026-04-18T11:16:11.769Z</time></trkpt><trkpt lat="42.6688667" lon="11.51293"><ele>246.5</ele><time>2026-04-18T11:16:12.766Z</time></trkpt><trkpt lat="42.6688583" lon="11.5127283"><ele>247.0</ele><time>2026-04-18T11:16:13.767Z</time></trkpt><trkpt lat="42.6688467" lon="11.51253"><ele>247.5</ele><time>2026-04-18T11:16:14.772Z</time></trkpt><trkpt lat="42.6688283" lon="11.51234"><ele>248.0</ele><time>2026-04-18T11:16:15.771Z</time></trkpt><trkpt lat="42.6688067" lon="11.5121583"><ele>248.5</ele><time>2026-04-18T11:16:16.767Z</time></trkpt><trkpt lat="42.668785" lon="11.5119867"><ele>249.0</ele><time>2026-04-18T11:16:17.768Z</time></trkpt><trkpt lat="42.6687667" lon="11.5118383"><ele>249.2</ele><time>2026-04-18T11:16:18.769Z</time></trkpt><trkpt lat="42.66874" lon="11.5117083"><ele>249.39999999999998</ele><time>2026-04-18T11:16:19.769Z</time></trkpt><trkpt lat="42.6687033" lon="11.511595"><ele>249.6</ele><time>2026-04-18T11:16:20.772Z</time></trkpt><trkpt lat="42.66865" lon="11.511495"><ele>249.8</ele><time>2026-04-18T11:16:21.771Z</time></trkpt><trkpt lat="42.6685783" lon="11.5114117"><ele>250.0</ele><time>2026-04-18T11:16:22.765Z</time></trkpt><trkpt lat="42.6684933" lon="11.5113433"><ele>248.75</ele><time>2026-04-18T11:16:23.771Z</time></trkpt><trkpt lat="42.6683967" lon="11.5112883"><ele>247.5</ele><time>2026-04-18T11:16:24.769Z</time></trkpt><trkpt lat="42.6682833" lon="11.5112417"><ele>246.25</ele><time>2026-04-18T11:16:25.767Z</time></trkpt><trkpt lat="42.66816" lon="11.5112083"><ele>245.0</ele><time>2026-04-18T11:16:26.77Z</time></trkpt><trkpt lat="42.6680217" lon="11.5111933"><ele>245.0</ele><time>2026-04-18T11:16:27.767Z</time></trkpt><trkpt lat="42.6678767" lon="11.51119"><ele>245.0</ele><time>2026-04-18T11:16:28.769Z</time></trkpt><trkpt lat="42.6677267" lon="11.511195"><ele>245.0</ele><time>2026-04-18T11:16:29.771Z</time></trkpt><trkpt lat="42.6675767" lon="11.51121"><ele>245.0</ele><time>2026-04-18T11:16:30.766Z</time></trkpt><trkpt lat="42.6674233" lon="11.5112283"><ele>240.66666666666669</ele><time>2026-04-18T11:16:31.772Z</time></trkpt><trkpt lat="42.6672633" lon="11.5112467"><ele>236.33333333333331</ele><time>2026-04-18T11:16:32.773Z</time></trkpt><trkpt lat="42.6671" lon="11.5112633"><ele>232.0</ele><time>2026-04-18T11:16:33.77Z</time></trkpt><trkpt lat="42.666935" lon="11.51128"><ele>231.33333333333331</ele><time>2026-04-18T11:16:34.765Z</time></trkpt><trkpt lat="42.6667717" lon="11.5113033"><ele>230.66666666666669</ele><time>2026-04-18T11:16:35.766Z</time></trkpt><trkpt lat="42.6666083" lon="11.511325"><ele>230.0</ele><time>2026-04-18T11:16:36.772Z</time></trkpt><trkpt lat="42.6664467" lon="11.511345"><ele>230.0</ele><time>2026-04-18T11:16:37.77Z</time></trkpt><trkpt lat="42.6662817" lon="11.51136"><ele>230.0</ele><time>2026-04-18T11:16:38.771Z</time></trkpt><trkpt lat="42.6661183" lon="11.5113783"><ele>230.0</ele><time>2026-04-18T11:16:39.765Z</time></trkpt><trkpt lat="42.665955" lon="11.5113967"><ele>229.66666666666669</ele><time>2026-04-18T11:16:40.771Z</time></trkpt><trkpt lat="42.6657917" lon="11.5114183"><ele>229.33333333333331</ele><time>2026-04-18T11:16:41.769Z</time></trkpt><trkpt lat="42.665625" lon="11.5114383"><ele>229.0</ele><time>2026-04-18T11:16:42.773Z</time></trkpt><trkpt lat="42.665455" lon="11.511455"><ele>229.0</ele><time>2026-04-18T11:16:43.771Z</time></trkpt><trkpt lat="42.6652833" lon="11.5114733"><ele>229.0</ele><time>2026-04-18T11:16:44.772Z</time></trkpt><trkpt lat="42.6651083" lon="11.511485"><ele>229.0</ele><time>2026-04-18T11:16:45.769Z</time></trkpt><trkpt lat="42.6649317" lon="11.5114833"><ele>227.33333333333331</ele><time>2026-04-18T11:16:46.771Z</time></trkpt><trkpt lat="42.6647583" lon="11.5114667"><ele>225.66666666666669</ele><time>2026-04-18T11:16:47.771Z</time></trkpt><trkpt lat="42.664585" lon="11.511435"><ele>224.0</ele><time>2026-04-18T11:16:48.772Z</time></trkpt><trkpt lat="42.664415" lon="11.511385"><ele>223.0</ele><time>2026-04-18T11:16:49.77Z</time></trkpt><trkpt lat="42.66425" lon="11.511315"><ele>222.0</ele><time>2026-04-18T11:16:50.771Z</time></trkpt><trkpt lat="42.6640867" lon="11.51121"><ele>221.0</ele><time>2026-04-18T11:16:51.768Z</time></trkpt><trkpt lat="42.6639317" lon="11.5110783"><ele>221.0</ele><time>2026-04-18T11:16:52.77Z</time></trkpt><trkpt lat="42.663785" lon="11.5109333"><ele>221.0</ele><time>2026-04-18T11:16:53.771Z</time></trkpt><trkpt lat="42.66364" lon="11.5107867"><ele>221.0</ele><time>2026-04-18T11:16:54.77Z</time></trkpt><trkpt lat="42.6635" lon="11.5106417"><ele>219.33333333333334</ele><time>2026-04-18T11:16:55.771Z</time></trkpt><trkpt lat="42.6633633" lon="11.5105017"><ele>217.66666666666669</ele><time>2026-04-18T11:16:56.771Z</time></trkpt><trkpt lat="42.663225" lon="11.5103683"><ele>216.0</ele><time>2026-04-18T11:16:57.771Z</time></trkpt><trkpt lat="42.6630883" lon="11.51024"><ele>216.0</ele><time>2026-04-18T11:16:58.766Z</time></trkpt><trkpt lat="42.6629483" lon="11.5101267"><ele>216.0</ele><time>2026-04-18T11:16:59.77Z</time></trkpt><trkpt lat="42.6628067" lon="11.5100283"><ele>216.0</ele><time>2026-04-18T11:17:00.773Z</time></trkpt><trkpt lat="42.6626567" lon="11.5099533"><ele>212.33333333333331</ele><time>2026-04-18T11:17:01.77Z</time></trkpt><trkpt lat="42.662495" lon="11.50992"><ele>208.66666666666666</ele><time>2026-04-18T11:17:02.772Z</time></trkpt><trkpt lat="42.66233" lon="11.5099233"><ele>205.0</ele><time>2026-04-18T11:17:03.77Z</time></trkpt><trkpt lat="42.6621633" lon="11.5099667"><ele>205.0</ele><time>2026-04-18T11:17:04.77Z</time></trkpt><trkpt lat="42.662" lon="11.5100317"><ele>205.0</ele><time>2026-04-18T11:17:05.77Z</time></trkpt><trkpt lat="42.6618367" lon="11.5101117"><ele>205.0</ele><time>2026-04-18T11:17:06.771Z</time></trkpt><trkpt lat="42.6616717" lon="11.5102"><ele>204.33333333333331</ele><time>2026-04-18T11:17:07.771Z</time></trkpt><trkpt lat="42.6615067" lon="11.5102933"><ele>203.66666666666669</ele><time>2026-04-18T11:17:08.771Z</time></trkpt><trkpt lat="42.6613433" lon="11.5103867"><ele>203.0</ele><time>2026-04-18T11:17:09.771Z</time></trkpt><trkpt lat="42.6611767" lon="11.5104767"><ele>198.66666666666669</ele><time>2026-04-18T11:17:10.772Z</time></trkpt><trkpt lat="42.6610117" lon="11.5105617"><ele>194.33333333333334</ele><time>2026-04-18T11:17:11.772Z</time></trkpt><trkpt lat="42.66085" lon="11.5106417"><ele>190.0</ele><time>2026-04-18T11:17:12.769Z</time></trkpt><trkpt lat="42.6606867" lon="11.510715"><ele>190.0</ele><time>2026-04-18T11:17:13.769Z</time></trkpt><trkpt lat="42.66053" lon="11.5107783"><ele>190.0</ele><time>2026-04-18T11:17:14.773Z</time></trkpt><trkpt lat="42.6603783" lon="11.5108317"><ele>190.0</ele><time>2026-04-18T11:17:15.77Z</time></trkpt><trkpt lat="42.6602367" lon="11.510865"><ele>189.5</ele><time>2026-04-18T11:17:16.77Z</time></trkpt><trkpt lat="42.6600983" lon="11.51088"><ele>189.0</ele><time>2026-04-18T11:17:17.77Z</time></trkpt><trkpt lat="42.6599567" lon="11.51087"><ele>188.5</ele><time>2026-04-18T11:17:18.773Z</time></trkpt><trkpt lat="42.6598133" lon="11.51084"><ele>188.0</ele><time>2026-04-18T11:17:19.77Z</time></trkpt><trkpt lat="42.65967" lon="11.5107917"><ele>188.0</ele><time>2026-04-18T11:17:20.77Z</time></trkpt><trkpt lat="42.6595283" lon="11.5107117"><ele>188.0</ele><time>2026-04-18T11:17:21.77Z</time></trkpt><trkpt lat="42.6593933" lon="11.51061"><ele>188.0</ele><time>2026-04-18T11:17:22.769Z</time></trkpt><trkpt lat="42.6592617" lon="11.5105067"><ele>187.33333333333331</ele><time>2026-04-18T11:17:23.773Z</time></trkpt><trkpt lat="42.6591283" lon="11.510405"><ele>186.66666666666666</ele><time>2026-04-18T11:17:24.773Z</time></trkpt><trkpt lat="42.6589933" lon="11.5103067"><ele>186.0</ele><time>2026-04-18T11:17:25.767Z</time></trkpt><trkpt lat="42.658855" lon="11.5102033"><ele>186.0</ele><time>2026-04-18T11:17:26.775Z</time></trkpt><trkpt lat="42.6587117" lon="11.5101033"><ele>186.0</ele><time>2026-04-18T11:17:27.77Z</time></trkpt><trkpt lat="42.6585683" lon="11.51"><ele>186.0</ele><time>2026-04-18T11:17:28.773Z</time></trkpt><trkpt lat="42.6584317" lon="11.5099033"><ele>183.75</ele><time>2026-04-18T11:17:29.768Z</time></trkpt><trkpt lat="42.6583067" lon="11.5098117"><ele>181.5</ele><time>2026-04-18T11:17:30.768Z</time></trkpt><trkpt lat="42.6581967" lon="11.5097333"><ele>179.25</ele><time>2026-04-18T11:17:31.772Z</time></trkpt><trkpt lat="42.6580867" lon="11.5096783"><ele>177.0</ele><time>2026-04-18T11:17:32.772Z</time></trkpt><trkpt lat="42.6579717" lon="11.5096733"><ele>177.0</ele><time>2026-04-18T11:17:33.769Z</time></trkpt><trkpt lat="42.6578633" lon="11.5097217"><ele>177.0</ele><time>2026-04-18T11:17:34.766Z</time></trkpt><trkpt lat="42.6577717" lon="11.5098167"><ele>177.0</ele><time>2026-04-18T11:17:35.772Z</time></trkpt><trkpt lat="42.6576967" lon="11.5099517"><ele>177.0</ele><time>2026-04-18T11:17:36.769Z</time></trkpt><trkpt lat="42.6576367" lon="11.51011"><ele>174.5</ele><time>2026-04-18T11:17:37.769Z</time></trkpt><trkpt lat="42.657575" lon="11.510285"><ele>172.0</ele><time>2026-04-18T11:17:38.773Z</time></trkpt><trkpt lat="42.6575117" lon="11.5104617"><ele>169.5</ele><time>2026-04-18T11:17:39.771Z</time></trkpt><trkpt lat="42.6574433" lon="11.51063"><ele>167.0</ele><time>2026-04-18T11:17:40.767Z</time></trkpt><trkpt lat="42.6573667" lon="11.51078"><ele>166.25</ele><time>2026-04-18T11:17:41.77Z</time></trkpt><trkpt lat="42.6572767" lon="11.5109167"><ele>165.5</ele><time>2026-04-18T11:17:42.771Z</time></trkpt><trkpt lat="42.6571667" lon="11.511025"><ele>164.75</ele><time>2026-04-18T11:17:43.77Z</time></trkpt><trkpt lat="42.657035" lon="11.51111"><ele>164.0</ele><time>2026-04-18T11:17:44.774Z</time></trkpt><trkpt lat="42.656895" lon="11.5111717"><ele>162.5</ele><time>2026-04-18T11:17:45.771Z</time></trkpt><trkpt lat="42.6567533" lon="11.511225"><ele>161.0</ele><time>2026-04-18T11:17:46.77Z</time></trkpt><trkpt lat="42.6566117" lon="11.5112617"><ele>159.5</ele><time>2026-04-18T11:17:47.766Z</time></trkpt><trkpt lat="42.6564667" lon="11.5113"><ele>158.0</ele><time>2026-04-18T11:17:48.773Z</time></trkpt><trkpt lat="42.6563267" lon="11.511325"><ele>158.0</ele><time>2026-04-18T11:17:49.77Z</time></trkpt><trkpt lat="42.6561967" lon="11.511345"><ele>158.0</ele><time>2026-04-18T11:17:50.771Z</time></trkpt><trkpt lat="42.6560683" lon="11.5113633"><ele>158.0</ele><time>2026-04-18T11:17:51.771Z</time></trkpt><trkpt lat="42.6559467" lon="11.5113817"><ele>158.0</ele><time>2026-04-18T11:17:52.77Z</time></trkpt><trkpt lat="42.655835" lon="11.5113933"><ele>156.6</ele><time>2026-04-18T11:17:53.77Z</time></trkpt><trkpt lat="42.655735" lon="11.5114033"><ele>155.20000000000002</ele><time>2026-04-18T11:17:54.772Z</time></trkpt><trkpt lat="42.6556517" lon="11.5114133"><ele>153.8</ele><time>2026-04-18T11:17:55.773Z</time></trkpt><trkpt lat="42.6555783" lon="11.5114167"><ele>152.4</ele><time>2026-04-18T11:17:56.773Z</time></trkpt><trkpt lat="42.6554717" lon="11.5114233"><ele>151.0</ele><time>2026-04-18T11:17:58.771Z</time></trkpt><trkpt lat="42.6553833" lon="11.5114267"><ele>151.0</ele><time>2026-04-18T11:18:00.772Z</time></trkpt><trkpt lat="42.6552983" lon="11.5114233"><ele>151.0</ele><time>2026-04-18T11:18:02.772Z</time></trkpt><trkpt lat="42.65521" lon="11.5114217"><ele>151.0</ele><time>2026-04-18T11:18:04.769Z</time></trkpt><trkpt lat="42.6551" lon="11.5114283"><ele>151.0</ele><time>2026-04-18T11:18:06.77Z</time></trkpt><trkpt lat="42.6550267" lon="11.5114333"><ele>151.0</ele><time>2026-04-18T11:18:07.773Z</time></trkpt><trkpt lat="42.6549417" lon="11.51144"><ele>151.0</ele><time>2026-04-18T11:18:08.774Z</time></trkpt><trkpt lat="42.6548567" lon="11.511445"><ele>150.66666666666669</ele><time>2026-04-18T11:18:09.769Z</time></trkpt><trkpt lat="42.6547683" lon="11.5114533"><ele>150.33333333333334</ele><time>2026-04-18T11:18:10.77Z</time></trkpt><trkpt lat="42.65468" lon="11.511465"><ele>150.0</ele><time>2026-04-18T11:18:11.771Z</time></trkpt><trkpt lat="42.6545917" lon="11.5114767"><ele>149.66666666666666</ele><time>2026-04-18T11:18:12.768Z</time></trkpt><trkpt lat="42.6545017" lon="11.5114833"><ele>149.33333333333331</ele><time>2026-04-18T11:18:13.767Z</time></trkpt><trkpt lat="42.6544117" lon="11.51149"><ele>149.0</ele><time>2026-04-18T11:18:14.773Z</time></trkpt><trkpt lat="42.65432" lon="11.511495"><ele>149.0</ele><time>2026-04-18T11:18:15.768Z</time></trkpt><trkpt lat="42.6542267" lon="11.5114983"><ele>149.0</ele><time>2026-04-18T11:18:16.771Z</time></trkpt><trkpt lat="42.6541283" lon="11.511505"><ele>149.0</ele><time>2026-04-18T11:18:17.766Z</time></trkpt><trkpt lat="42.6540267" lon="11.5115117"><ele>149.0</ele><time>2026-04-18T11:18:18.773Z</time></trkpt><trkpt lat="42.653915" lon="11.5115183"><ele>149.0</ele><time>2026-04-18T11:18:19.772Z</time></trkpt><trkpt lat="42.6537967" lon="11.5115233"><ele>149.0</ele><time>2026-04-18T11:18:20.774Z</time></trkpt><trkpt lat="42.653675" lon="11.51153"><ele>149.0</ele><time>2026-04-18T11:18:21.771Z</time></trkpt><trkpt lat="42.6535583" lon="11.5115367"><ele>149.0</ele><time>2026-04-18T11:18:22.772Z</time></trkpt><trkpt lat="42.653445" lon="11.5115483"><ele>149.0</ele><time>2026-04-18T11:18:23.771Z</time></trkpt><trkpt lat="42.6533383" lon="11.5115667"><ele>148.5</ele><time>2026-04-18T11:18:24.77Z</time></trkpt><trkpt lat="42.6532267" lon="11.5115833"><ele>148.0</ele><time>2026-04-18T11:18:25.77Z</time></trkpt><trkpt lat="42.6530983" lon="11.51159"><ele>147.5</ele><time>2026-04-18T11:18:26.775Z</time></trkpt><trkpt lat="42.6529567" lon="11.511595"><ele>147.0</ele><time>2026-04-18T11:18:27.771Z</time></trkpt><trkpt lat="42.6528167" lon="11.5115967"><ele>147.0</ele><time>2026-04-18T11:18:28.771Z</time></trkpt><trkpt lat="42.65268" lon="11.5115967"><ele>147.0</ele><time>2026-04-18T11:18:29.77Z</time></trkpt><trkpt lat="42.6525433" lon="11.5116017"><ele>147.0</ele><time>2026-04-18T11:18:30.772Z</time></trkpt><trkpt lat="42.65241" lon="11.5116067"><ele>147.0</ele><time>2026-04-18T11:18:31.771Z</time></trkpt><trkpt lat="42.6522767" lon="11.5116133"><ele>147.0</ele><time>2026-04-18T11:18:32.774Z</time></trkpt><trkpt lat="42.6521467" lon="11.51162"><ele>147.0</ele><time>2026-04-18T11:18:33.77Z</time></trkpt><trkpt lat="42.6520183" lon="11.5116283"><ele>147.0</ele><time>2026-04-18T11:18:34.773Z</time></trkpt><trkpt lat="42.65189" lon="11.5116367"><ele>147.0</ele><time>2026-04-18T11:18:35.772Z</time></trkpt><trkpt lat="42.6517617" lon="11.5116433"><ele>147.25</ele><time>2026-04-18T11:18:36.771Z</time></trkpt><trkpt lat="42.6516317" lon="11.5116483"><ele>147.5</ele><time>2026-04-18T11:18:37.77Z</time></trkpt><trkpt lat="42.6515" lon="11.5116533"><ele>147.75</ele><time>2026-04-18T11:18:38.774Z</time></trkpt><trkpt lat="42.6513717" lon="11.5116617"><ele>148.0</ele><time>2026-04-18T11:18:39.77Z</time></trkpt><trkpt lat="42.6512417" lon="11.5116683"><ele>147.75</ele><time>2026-04-18T11:18:40.773Z</time></trkpt><trkpt lat="42.651115" lon="11.5116717"><ele>147.5</ele><time>2026-04-18T11:18:41.771Z</time></trkpt><trkpt lat="42.6509933" lon="11.5116767"><ele>147.25</ele><time>2026-04-18T11:18:42.771Z</time></trkpt><trkpt lat="42.6508767" lon="11.5116833"><ele>147.0</ele><time>2026-04-18T11:18:43.766Z</time></trkpt><trkpt lat="42.650765" lon="11.51169"><ele>147.0</ele><time>2026-04-18T11:18:44.775Z</time></trkpt><trkpt lat="42.6506533" lon="11.5116967"><ele>147.0</ele><time>2026-04-18T11:18:45.771Z</time></trkpt><trkpt lat="42.6505433" lon="11.511705"><ele>147.0</ele><time>2026-04-18T11:18:46.771Z</time></trkpt><trkpt lat="42.6504333" lon="11.5117117"><ele>147.0</ele><time>2026-04-18T11:18:47.771Z</time></trkpt><trkpt lat="42.650325" lon="11.5117183"><ele>147.0</ele><time>2026-04-18T11:18:48.771Z</time></trkpt><trkpt lat="42.650215" lon="11.5117233"><ele>147.0</ele><time>2026-04-18T11:18:49.77Z</time></trkpt><trkpt lat="42.6501083" lon="11.5117283"><ele>147.0</ele><time>2026-04-18T11:18:50.774Z</time></trkpt><trkpt lat="42.6500033" lon="11.511735"><ele>147.0</ele><time>2026-04-18T11:18:51.772Z</time></trkpt><trkpt lat="42.6499017" lon="11.5117417"><ele>147.0</ele><time>2026-04-18T11:18:52.77Z</time></trkpt><trkpt lat="42.6498067" lon="11.5117467"><ele>147.0</ele><time>2026-04-18T11:18:53.771Z</time></trkpt><trkpt lat="42.64972" lon="11.51175"><ele>147.0</ele><time>2026-04-18T11:18:54.772Z</time></trkpt><trkpt lat="42.649645" lon="11.5117567"><ele>147.0</ele><time>2026-04-18T11:18:55.772Z</time></trkpt><trkpt lat="42.64958" lon="11.5117633"><ele>147.0</ele><time>2026-04-18T11:18:56.773Z</time></trkpt><trkpt lat="42.6494717" lon="11.511815"><ele>147.0</ele><time>2026-04-18T11:18:58.772Z</time></trkpt><trkpt lat="42.6493583" lon="11.5119"><ele>147.0</ele><time>2026-04-18T11:19:00.772Z</time></trkpt><trkpt lat="42.6493133" lon="11.5119617"><ele>147.0</ele><time>2026-04-18T11:19:01.772Z</time></trkpt><trkpt lat="42.649275" lon="11.5120433"><ele>146.4</ele><time>2026-04-18T11:19:02.772Z</time></trkpt><trkpt lat="42.6492367" lon="11.5121467"><ele>145.79999999999998</ele><time>2026-04-18T11:19:03.772Z</time></trkpt><trkpt lat="42.64919" lon="11.5122617"><ele>145.2</ele><time>2026-04-18T11:19:04.769Z</time></trkpt><trkpt lat="42.6491433" lon="11.5123833"><ele>144.6</ele><time>2026-04-18T11:19:05.771Z</time></trkpt><trkpt lat="42.6490967" lon="11.512515"><ele>144.0</ele><time>2026-04-18T11:19:06.774Z</time></trkpt><trkpt lat="42.6490433" lon="11.51266"><ele>144.0</ele><time>2026-04-18T11:19:07.772Z</time></trkpt><trkpt lat="42.6489883" lon="11.51281"><ele>144.0</ele><time>2026-04-18T11:19:08.772Z</time></trkpt><trkpt lat="42.6489333" lon="11.512955"><ele>144.0</ele><time>2026-04-18T11:19:09.771Z</time></trkpt><trkpt lat="42.64888" lon="11.5131"><ele>144.0</ele><time>2026-04-18T11:19:10.769Z</time></trkpt><trkpt lat="42.6488283" lon="11.5132417"><ele>143.5</ele><time>2026-04-18T11:19:11.771Z</time></trkpt><trkpt lat="42.6487783" lon="11.51339"><ele>143.0</ele><time>2026-04-18T11:19:12.769Z</time></trkpt><trkpt lat="42.648725" lon="11.5135417"><ele>142.5</ele><time>2026-04-18T11:19:13.771Z</time></trkpt><trkpt lat="42.6486683" lon="11.513695"><ele>142.0</ele><time>2026-04-18T11:19:14.771Z</time></trkpt><trkpt lat="42.64861" lon="11.51385"><ele>141.25</ele><time>2026-04-18T11:19:15.772Z</time></trkpt><trkpt lat="42.6485517" lon="11.5140083"><ele>140.5</ele><time>2026-04-18T11:19:16.771Z</time></trkpt><trkpt lat="42.648495" lon="11.5141667"><ele>139.75</ele><time>2026-04-18T11:19:17.771Z</time></trkpt><trkpt lat="42.64844" lon="11.5143283"><ele>139.0</ele><time>2026-04-18T11:19:18.772Z</time></trkpt><trkpt lat="42.6483867" lon="11.5144883"><ele>139.0</ele><time>2026-04-18T11:19:19.771Z</time></trkpt><trkpt lat="42.6483317" lon="11.5146517"><ele>139.0</ele><time>2026-04-18T11:19:20.772Z</time></trkpt><trkpt lat="42.6482767" lon="11.514815"><ele>139.0</ele><time>2026-04-18T11:19:21.77Z</time></trkpt><trkpt lat="42.64822" lon="11.5149833"><ele>139.0</ele><time>2026-04-18T11:19:22.772Z</time></trkpt><trkpt lat="42.6481633" lon="11.515155"><ele>139.0</ele><time>2026-04-18T11:19:23.771Z</time></trkpt><trkpt lat="42.6481067" lon="11.5153283"><ele>139.0</ele><time>2026-04-18T11:19:24.77Z</time></trkpt><trkpt lat="42.6480483" lon="11.515495"><ele>139.0</ele><time>2026-04-18T11:19:25.771Z</time></trkpt><trkpt lat="42.647995" lon="11.515665"><ele>139.0</ele><time>2026-04-18T11:19:26.773Z</time></trkpt><trkpt lat="42.6479417" lon="11.515835"><ele>139.0</ele><time>2026-04-18T11:19:27.77Z</time></trkpt><trkpt lat="42.6478867" lon="11.516005"><ele>139.0</ele><time>2026-04-18T11:19:28.766Z</time></trkpt><trkpt lat="42.6478317" lon="11.5161717"><ele>139.0</ele><time>2026-04-18T11:19:29.771Z</time></trkpt><trkpt lat="42.64778" lon="11.5163367"><ele>139.0</ele><time>2026-04-18T11:19:30.774Z</time></trkpt><trkpt lat="42.6477267" lon="11.516505"><ele>139.0</ele><time>2026-04-18T11:19:31.772Z</time></trkpt><trkpt lat="42.6476733" lon="11.51667"><ele>139.0</ele><time>2026-04-18T11:19:32.769Z</time></trkpt><trkpt lat="42.64762" lon="11.516835"><ele>139.0</ele><time>2026-04-18T11:19:33.767Z</time></trkpt><trkpt lat="42.647565" lon="11.5170083"><ele>139.0</ele><time>2026-04-18T11:19:34.77Z</time></trkpt><trkpt lat="42.6475133" lon="11.5171817"><ele>139.5</ele><time>2026-04-18T11:19:35.771Z</time></trkpt><trkpt lat="42.6474583" lon="11.5173483"><ele>140.0</ele><time>2026-04-18T11:19:36.771Z</time></trkpt><trkpt lat="42.647395" lon="11.5175133"><ele>140.5</ele><time>2026-04-18T11:19:37.77Z</time></trkpt><trkpt lat="42.6473217" lon="11.5176683"><ele>141.0</ele><time>2026-04-18T11:19:38.774Z</time></trkpt><trkpt lat="42.6472317" lon="11.5178067"><ele>141.25</ele><time>2026-04-18T11:19:39.771Z</time></trkpt><trkpt lat="42.6471183" lon="11.5179183"><ele>141.5</ele><time>2026-04-18T11:19:40.772Z</time></trkpt><trkpt lat="42.6469983" lon="11.5179867"><ele>141.75</ele><time>2026-04-18T11:19:41.77Z</time></trkpt><trkpt lat="42.6468617" lon="11.5180083"><ele>142.0</ele><time>2026-04-18T11:19:42.77Z</time></trkpt><trkpt lat="42.6467233" lon="11.5179817"><ele>142.25</ele><time>2026-04-18T11:19:43.772Z</time></trkpt><trkpt lat="42.6466033" lon="11.517885"><ele>142.5</ele><time>2026-04-18T11:19:44.772Z</time></trkpt><trkpt lat="42.6464883" lon="11.517765"><ele>142.75</ele><time>2026-04-18T11:19:45.77Z</time></trkpt><trkpt lat="42.646375" lon="11.5176317"><ele>143.0</ele><time>2026-04-18T11:19:46.773Z</time></trkpt><trkpt lat="42.6462633" lon="11.5175033"><ele>143.0</ele><time>2026-04-18T11:19:47.772Z</time></trkpt><trkpt lat="42.646145" lon="11.5173817"><ele>143.0</ele><time>2026-04-18T11:19:48.771Z</time></trkpt><trkpt lat="42.6460233" lon="11.5172583"><ele>143.0</ele><time>2026-04-18T11:19:49.77Z</time></trkpt><trkpt lat="42.64591" lon="11.5171367"><ele>143.0</ele><time>2026-04-18T11:19:50.773Z</time></trkpt><trkpt lat="42.6458" lon="11.51701"><ele>143.5</ele><time>2026-04-18T11:19:51.772Z</time></trkpt><trkpt lat="42.645695" lon="11.5168783"><ele>144.0</ele><time>2026-04-18T11:19:52.769Z</time></trkpt><trkpt lat="42.645615" lon="11.5167267"><ele>144.5</ele><time>2026-04-18T11:19:53.771Z</time></trkpt><trkpt lat="42.6455617" lon="11.516545"><ele>145.0</ele><time>2026-04-18T11:19:54.77Z</time></trkpt><trkpt lat="42.645525" lon="11.5163483"><ele>144.5</ele><time>2026-04-18T11:19:55.766Z</time></trkpt><trkpt lat="42.64548" lon="11.5161617"><ele>144.0</ele><time>2026-04-18T11:19:56.774Z</time></trkpt><trkpt lat="42.64542" lon="11.51599"><ele>143.5</ele><time>2026-04-18T11:19:57.769Z</time></trkpt><trkpt lat="42.645335" lon="11.5158417"><ele>143.0</ele><time>2026-04-18T11:19:58.772Z</time></trkpt><trkpt lat="42.6452217" lon="11.5157317"><ele>144.75</ele><time>2026-04-18T11:19:59.77Z</time></trkpt><trkpt lat="42.6450883" lon="11.515675"><ele>146.5</ele><time>2026-04-18T11:20:00.775Z</time></trkpt><trkpt lat="42.64495" lon="11.5156383"><ele>148.25</ele><time>2026-04-18T11:20:01.772Z</time></trkpt><trkpt lat="42.6448217" lon="11.5155883"><ele>150.0</ele><time>2026-04-18T11:20:02.775Z</time></trkpt><trkpt lat="42.6447167" lon="11.515515"><ele>150.0</ele><time>2026-04-18T11:20:03.771Z</time></trkpt><trkpt lat="42.6446417" lon="11.5154083"><ele>150.0</ele><time>2026-04-18T11:20:04.772Z</time></trkpt><trkpt lat="42.6445967" lon="11.5153083"><ele>150.0</ele><time>2026-04-18T11:20:05.77Z</time></trkpt><trkpt lat="42.6445833" lon="11.51521"><ele>150.0</ele><time>2026-04-18T11:20:06.773Z</time></trkpt><trkpt lat="42.6446233" lon="11.5151067"><ele>150.0</ele><time>2026-04-18T11:20:07.771Z</time></trkpt><trkpt lat="42.6447383" lon="11.5150117"><ele>151.25</ele><time>2026-04-18T11:20:08.772Z</time></trkpt><trkpt lat="42.644865" lon="11.5148917"><ele>152.5</ele><time>2026-04-18T11:20:09.77Z</time></trkpt><trkpt lat="42.64496" lon="11.514745"><ele>153.75</ele><time>2026-04-18T11:20:10.772Z</time></trkpt><trkpt lat="42.6450067" lon="11.514565"><ele>155.0</ele><time>2026-04-18T11:20:11.771Z</time></trkpt><trkpt lat="42.6450467" lon="11.5143683"><ele>157.5</ele><time>2026-04-18T11:20:12.771Z</time></trkpt><trkpt lat="42.645075" lon="11.514165"><ele>160.0</ele><time>2026-04-18T11:20:13.771Z</time></trkpt><trkpt lat="42.6451" lon="11.5139633"><ele>162.5</ele><time>2026-04-18T11:20:14.771Z</time></trkpt><trkpt lat="42.6451283" lon="11.51377"><ele>165.0</ele><time>2026-04-18T11:20:15.771Z</time></trkpt><trkpt lat="42.6451833" lon="11.5135767"><ele>167.75</ele><time>2026-04-18T11:20:16.771Z</time></trkpt><trkpt lat="42.6452417" lon="11.513415"><ele>170.5</ele><time>2026-04-18T11:20:17.77Z</time></trkpt><trkpt lat="42.6453417" lon="11.513305"><ele>173.25</ele><time>2026-04-18T11:20:18.773Z</time></trkpt><trkpt lat="42.6454133" lon="11.5132067"><ele>176.0</ele><time>2026-04-18T11:20:19.771Z</time></trkpt><trkpt lat="42.645475" lon="11.5131167"><ele>172.8</ele><time>2026-04-18T11:20:20.773Z</time></trkpt><trkpt lat="42.64552" lon="11.5130317"><ele>169.60000000000002</ele><time>2026-04-18T11:20:21.77Z</time></trkpt><trkpt lat="42.6455917" lon="11.512925"><ele>166.4</ele><time>2026-04-18T11:20:23.771Z</time></trkpt><trkpt lat="42.6456467" lon="11.512865"><ele>163.2</ele><time>2026-04-18T11:20:26.773Z</time></trkpt><trkpt lat="42.6456953" lon="11.5127145"><ele>160.0</ele><time>2026-04-18T11:21:08.842Z</time></trkpt><trkpt lat="42.6457208" lon="11.5126119"><ele>160.0</ele><time>2026-04-18T11:21:13.834Z</time></trkpt><trkpt lat="42.6457161" lon="11.5125236"><ele>160.0</ele><time>2026-04-18T11:21:19.849Z</time></trkpt><trkpt lat="42.6455689" lon="11.5129383"><ele>160.0</ele><time>2026-04-18T11:30:36.758Z</time></trkpt><trkpt lat="42.6455295" lon="11.5130681"><ele>157.33333333333334</ele><time>2026-04-18T11:30:37.769Z</time></trkpt><trkpt lat="42.6453839" lon="11.5132672"><ele>154.66666666666666</ele><time>2026-04-18T11:30:38.767Z</time></trkpt><trkpt lat="42.6452822" lon="11.5134447"><ele>152.0</ele><time>2026-04-18T11:30:39.765Z</time></trkpt><trkpt lat="42.645214" lon="11.5136199"><ele>155.25</ele><time>2026-04-18T11:30:40.764Z</time></trkpt><trkpt lat="42.6451699" lon="11.5138205"><ele>158.5</ele><time>2026-04-18T11:30:41.771Z</time></trkpt><trkpt lat="42.6451457" lon="11.51401"><ele>161.75</ele><time>2026-04-18T11:30:42.769Z</time></trkpt><trkpt lat="42.6451346" lon="11.5141924"><ele>165.0</ele><time>2026-04-18T11:30:43.764Z</time></trkpt><trkpt lat="42.645125" lon="11.51438"><ele>165.0</ele><time>2026-04-18T11:30:44.769Z</time></trkpt><trkpt lat="42.6451133" lon="11.51454"><ele>165.0</ele><time>2026-04-18T11:30:45.768Z</time></trkpt><trkpt lat="42.6450867" lon="11.51469"><ele>165.0</ele><time>2026-04-18T11:30:46.766Z</time></trkpt><trkpt lat="42.6450317" lon="11.5148367"><ele>165.0</ele><time>2026-04-18T11:30:47.771Z</time></trkpt><trkpt lat="42.64496" lon="11.514965"><ele>162.5</ele><time>2026-04-18T11:30:48.765Z</time></trkpt><trkpt lat="42.6448667" lon="11.51507"><ele>160.0</ele><time>2026-04-18T11:30:49.768Z</time></trkpt><trkpt lat="42.644755" lon="11.515145"><ele>157.5</ele><time>2026-04-18T11:30:50.768Z</time></trkpt><trkpt lat="42.6446633" lon="11.51522"><ele>155.0</ele><time>2026-04-18T11:30:51.768Z</time></trkpt><trkpt lat="42.644605" lon="11.5153283"><ele>154.0</ele><time>2026-04-18T11:30:52.767Z</time></trkpt><trkpt lat="42.644585" lon="11.5154633"><ele>153.0</ele><time>2026-04-18T11:30:53.768Z</time></trkpt><trkpt lat="42.6445883" lon="11.5155983"><ele>152.0</ele><time>2026-04-18T11:30:54.767Z</time></trkpt><trkpt lat="42.6446333" lon="11.51572"><ele>151.0</ele><time>2026-04-18T11:30:55.767Z</time></trkpt><trkpt lat="42.6447583" lon="11.5158117"><ele>150.0</ele><time>2026-04-18T11:30:56.768Z</time></trkpt><trkpt lat="42.644975" lon="11.5158667"><ele>150.0</ele><time>2026-04-18T11:30:57.768Z</time></trkpt><trkpt lat="42.6451733" lon="11.515945"><ele>150.0</ele><time>2026-04-18T11:30:58.764Z</time></trkpt><trkpt lat="42.64532" lon="11.5160517"><ele>150.0</ele><time>2026-04-18T11:30:59.765Z</time></trkpt><trkpt lat="42.64544" lon="11.5162233"><ele>148.75</ele><time>2026-04-18T11:31:00.767Z</time></trkpt><trkpt lat="42.64553" lon="11.5164"><ele>147.5</ele><time>2026-04-18T11:31:01.768Z</time></trkpt><trkpt lat="42.6455917" lon="11.5165833"><ele>146.25</ele><time>2026-04-18T11:31:02.764Z</time></trkpt><trkpt lat="42.645635" lon="11.51676"><ele>145.0</ele><time>2026-04-18T11:31:03.767Z</time></trkpt><trkpt lat="42.645705" lon="11.5169183"><ele>145.0</ele><time>2026-04-18T11:31:04.763Z</time></trkpt><trkpt lat="42.6458" lon="11.517055"><ele>145.0</ele><time>2026-04-18T11:31:05.771Z</time></trkpt><trkpt lat="42.645905" lon="11.51718"><ele>145.0</ele><time>2026-04-18T11:31:06.767Z</time></trkpt><trkpt lat="42.64601" lon="11.517295"><ele>145.0</ele><time>2026-04-18T11:31:07.768Z</time></trkpt><trkpt lat="42.64611" lon="11.5173983"><ele>144.6</ele><time>2026-04-18T11:31:08.758Z</time></trkpt><trkpt lat="42.6462033" lon="11.5174967"><ele>144.2</ele><time>2026-04-18T11:31:09.758Z</time></trkpt><trkpt lat="42.6462867" lon="11.51759"><ele>143.8</ele><time>2026-04-18T11:31:10.764Z</time></trkpt><trkpt lat="42.64637" lon="11.5176817"><ele>143.4</ele><time>2026-04-18T11:31:11.768Z</time></trkpt><trkpt lat="42.6464567" lon="11.5177783"><ele>143.0</ele><time>2026-04-18T11:31:12.764Z</time></trkpt><trkpt lat="42.6465483" lon="11.5178717"><ele>142.75</ele><time>2026-04-18T11:31:13.766Z</time></trkpt><trkpt lat="42.6466433" lon="11.51795"><ele>142.5</ele><time>2026-04-18T11:31:14.768Z</time></trkpt><trkpt lat="42.64675" lon="11.5180067"><ele>142.25</ele><time>2026-04-18T11:31:15.767Z</time></trkpt><trkpt lat="42.646865" lon="11.5180317"><ele>142.0</ele><time>2026-04-18T11:31:16.765Z</time></trkpt><trkpt lat="42.64698" lon="11.5180233"><ele>141.75</ele><time>2026-04-18T11:31:17.769Z</time></trkpt><trkpt lat="42.6470883" lon="11.5179833"><ele>141.5</ele><time>2026-04-18T11:31:18.767Z</time></trkpt><trkpt lat="42.6471867" lon="11.5179083"><ele>141.25</ele><time>2026-04-18T11:31:19.766Z</time></trkpt><trkpt lat="42.6472683" lon="11.5177967"><ele>141.0</ele><time>2026-04-18T11:31:20.767Z</time></trkpt><trkpt lat="42.6473467" lon="11.5176717"><ele>141.0</ele><time>2026-04-18T11:31:21.766Z</time></trkpt><trkpt lat="42.6474117" lon="11.5175317"><ele>141.0</ele><time>2026-04-18T11:31:22.766Z</time></trkpt><trkpt lat="42.6474717" lon="11.5173867"><ele>141.0</ele><time>2026-04-18T11:31:23.77Z</time></trkpt><trkpt lat="42.6475217" lon="11.5172383"><ele>141.0</ele><time>2026-04-18T11:31:24.767Z</time></trkpt><trkpt lat="42.6475617" lon="11.5170933"><ele>140.5</ele><time>2026-04-18T11:31:25.772Z</time></trkpt><trkpt lat="42.6475983" lon="11.516955"><ele>140.0</ele><time>2026-04-18T11:31:26.768Z</time></trkpt><trkpt lat="42.6476383" lon="11.5168067"><ele>139.5</ele><time>2026-04-18T11:31:27.769Z</time></trkpt><trkpt lat="42.647685" lon="11.5166417"><ele>139.0</ele><time>2026-04-18T11:31:28.764Z</time></trkpt><trkpt lat="42.64774" lon="11.51647"><ele>138.5</ele><time>2026-04-18T11:31:29.767Z</time></trkpt><trkpt lat="42.6478" lon="11.51629"><ele>138.0</ele><time>2026-04-18T11:31:30.763Z</time></trkpt><trkpt lat="42.6478583" lon="11.516105"><ele>137.5</ele><time>2026-04-18T11:31:31.762Z</time></trkpt><trkpt lat="42.647915" lon="11.5159167"><ele>137.0</ele><time>2026-04-18T11:31:32.767Z</time></trkpt><trkpt lat="42.647975" lon="11.515725"><ele>137.0</ele><time>2026-04-18T11:31:33.766Z</time></trkpt><trkpt lat="42.64804" lon="11.5155383"><ele>137.0</ele><time>2026-04-18T11:31:34.762Z</time></trkpt><trkpt lat="42.6481083" lon="11.51534"><ele>137.0</ele><time>2026-04-18T11:31:35.767Z</time></trkpt><trkpt lat="42.648175" lon="11.5151383"><ele>137.66666666666666</ele><time>2026-04-18T11:31:36.764Z</time></trkpt><trkpt lat="42.6482483" lon="11.5149383"><ele>138.33333333333334</ele><time>2026-04-18T11:31:37.766Z</time></trkpt><trkpt lat="42.6483183" lon="11.5147333"><ele>139.0</ele><time>2026-04-18T11:31:38.766Z</time></trkpt><trkpt lat="42.6483883" lon="11.5145267"><ele>139.0</ele><time>2026-04-18T11:31:39.766Z</time></trkpt><trkpt lat="42.6484583" lon="11.5143183"><ele>139.0</ele><time>2026-04-18T11:31:40.764Z</time></trkpt><trkpt lat="42.6485333" lon="11.51411"><ele>139.0</ele><time>2026-04-18T11:31:41.768Z</time></trkpt><trkpt lat="42.6486117" lon="11.5139017"><ele>140.0</ele><time>2026-04-18T11:31:42.766Z</time></trkpt><trkpt lat="42.64869" lon="11.51369"><ele>141.0</ele><time>2026-04-18T11:31:43.768Z</time></trkpt><trkpt lat="42.6487683" lon="11.5134767"><ele>142.0</ele><time>2026-04-18T11:31:44.771Z</time></trkpt><trkpt lat="42.6488483" lon="11.51327"><ele>142.0</ele><time>2026-04-18T11:31:45.77Z</time></trkpt><trkpt lat="42.6489217" lon="11.513065"><ele>142.0</ele><time>2026-04-18T11:31:46.769Z</time></trkpt><trkpt lat="42.6489933" lon="11.5128633"><ele>142.0</ele><time>2026-04-18T11:31:47.768Z</time></trkpt><trkpt lat="42.6490667" lon="11.5126617"><ele>142.5</ele><time>2026-04-18T11:31:48.769Z</time></trkpt><trkpt lat="42.6491367" lon="11.5124667"><ele>143.0</ele><time>2026-04-18T11:31:49.769Z</time></trkpt><trkpt lat="42.649205" lon="11.512285"><ele>143.5</ele><time>2026-04-18T11:31:50.773Z</time></trkpt><trkpt lat="42.649275" lon="11.5121217"><ele>144.0</ele><time>2026-04-18T11:31:51.771Z</time></trkpt><trkpt lat="42.6493533" lon="11.5119817"><ele>144.4</ele><time>2026-04-18T11:31:52.769Z</time></trkpt><trkpt lat="42.649445" lon="11.5118833"><ele>144.8</ele><time>2026-04-18T11:31:53.766Z</time></trkpt><trkpt lat="42.64954" lon="11.511825"><ele>145.2</ele><time>2026-04-18T11:31:54.769Z</time></trkpt><trkpt lat="42.6496467" lon="11.5118017"><ele>145.6</ele><time>2026-04-18T11:31:55.769Z</time></trkpt><trkpt lat="42.64976" lon="11.5117917"><ele>146.0</ele><time>2026-04-18T11:31:56.77Z</time></trkpt><trkpt lat="42.6498783" lon="11.5117917"><ele>146.25</ele><time>2026-04-18T11:31:57.767Z</time></trkpt><trkpt lat="42.650005" lon="11.5117883"><ele>146.5</ele><time>2026-04-18T11:31:58.766Z</time></trkpt><trkpt lat="42.6501383" lon="11.51178"><ele>146.75</ele><time>2026-04-18T11:31:59.767Z</time></trkpt><trkpt lat="42.6502733" lon="11.51177"><ele>147.0</ele><time>2026-04-18T11:32:00.768Z</time></trkpt><trkpt lat="42.6504117" lon="11.5117617"><ele>147.0</ele><time>2026-04-18T11:32:01.766Z</time></trkpt><trkpt lat="42.6505517" lon="11.5117533"><ele>147.0</ele><time>2026-04-18T11:32:02.767Z</time></trkpt><trkpt lat="42.6506933" lon="11.5117467"><ele>147.0</ele><time>2026-04-18T11:32:03.767Z</time></trkpt><trkpt lat="42.6508383" lon="11.5117417"><ele>147.0</ele><time>2026-04-18T11:32:04.766Z</time></trkpt><trkpt lat="42.650985" lon="11.5117367"><ele>147.33333333333334</ele><time>2026-04-18T11:32:05.764Z</time></trkpt><trkpt lat="42.6511333" lon="11.5117317"><ele>147.66666666666669</ele><time>2026-04-18T11:32:06.769Z</time></trkpt><trkpt lat="42.6512833" lon="11.511725"><ele>148.0</ele><time>2026-04-18T11:32:07.768Z</time></trkpt><trkpt lat="42.651435" lon="11.5117183"><ele>148.0</ele><time>2026-04-18T11:32:08.767Z</time></trkpt><trkpt lat="42.651585" lon="11.51171"><ele>148.0</ele><time>2026-04-18T11:32:09.768Z</time></trkpt><trkpt lat="42.6517333" lon="11.5117033"><ele>148.0</ele><time>2026-04-18T11:32:10.763Z</time></trkpt><trkpt lat="42.6518817" lon="11.5116967"><ele>148.0</ele><time>2026-04-18T11:32:11.761Z</time></trkpt><trkpt lat="42.6520267" lon="11.5116867"><ele>147.75</ele><time>2026-04-18T11:32:12.759Z</time></trkpt><trkpt lat="42.6521717" lon="11.5116783"><ele>147.5</ele><time>2026-04-18T11:32:13.768Z</time></trkpt><trkpt lat="42.6523167" lon="11.5116717"><ele>147.25</ele><time>2026-04-18T11:32:14.766Z</time></trkpt><trkpt lat="42.6524583" lon="11.5116683"><ele>147.0</ele><time>2026-04-18T11:32:15.766Z</time></trkpt><trkpt lat="42.6526" lon="11.5116633"><ele>147.0</ele><time>2026-04-18T11:32:16.765Z</time></trkpt><trkpt lat="42.6527417" lon="11.5116567"><ele>147.0</ele><time>2026-04-18T11:32:17.765Z</time></trkpt><trkpt lat="42.6528833" lon="11.51165"><ele>147.0</ele><time>2026-04-18T11:32:18.769Z</time></trkpt><trkpt lat="42.6530267" lon="11.511645"><ele>147.0</ele><time>2026-04-18T11:32:19.765Z</time></trkpt><trkpt lat="42.6531667" lon="11.5116383"><ele>147.0</ele><time>2026-04-18T11:32:20.77Z</time></trkpt><trkpt lat="42.6533083" lon="11.5116333"><ele>147.0</ele><time>2026-04-18T11:32:21.765Z</time></trkpt><trkpt lat="42.65345" lon="11.5116267"><ele>147.0</ele><time>2026-04-18T11:32:22.77Z</time></trkpt><trkpt lat="42.6535917" lon="11.51162"><ele>147.0</ele><time>2026-04-18T11:32:23.766Z</time></trkpt><trkpt lat="42.653735" lon="11.51161"><ele>147.5</ele><time>2026-04-18T11:32:24.77Z</time></trkpt><trkpt lat="42.6538783" lon="11.5116"><ele>148.0</ele><time>2026-04-18T11:32:25.768Z</time></trkpt><trkpt lat="42.6540233" lon="11.5115917"><ele>148.5</ele><time>2026-04-18T11:32:26.772Z</time></trkpt><trkpt lat="42.6541717" lon="11.5115867"><ele>149.0</ele><time>2026-04-18T11:32:27.767Z</time></trkpt><trkpt lat="42.6543217" lon="11.511575"><ele>149.0</ele><time>2026-04-18T11:32:28.767Z</time></trkpt><trkpt lat="42.654475" lon="11.511565"><ele>149.0</ele><time>2026-04-18T11:32:29.764Z</time></trkpt><trkpt lat="42.6546317" lon="11.511555"><ele>149.0</ele><time>2026-04-18T11:32:30.767Z</time></trkpt><trkpt lat="42.65479" lon="11.5115483"><ele>149.0</ele><time>2026-04-18T11:32:31.766Z</time></trkpt><trkpt lat="42.65495" lon="11.5115417"><ele>149.0</ele><time>2026-04-18T11:32:32.77Z</time></trkpt><trkpt lat="42.65511" lon="11.5115333"><ele>149.0</ele><time>2026-04-18T11:32:33.768Z</time></trkpt><trkpt lat="42.6552683" lon="11.5115233"><ele>149.66666666666666</ele><time>2026-04-18T11:32:34.766Z</time></trkpt><trkpt lat="42.6554267" lon="11.5115117"><ele>150.33333333333334</ele><time>2026-04-18T11:32:35.767Z</time></trkpt><trkpt lat="42.6555867" lon="11.5115"><ele>151.0</ele><time>2026-04-18T11:32:36.768Z</time></trkpt><trkpt lat="42.6557467" lon="11.51149"><ele>151.0</ele><time>2026-04-18T11:32:37.767Z</time></trkpt><trkpt lat="42.6559067" lon="11.5114783"><ele>151.0</ele><time>2026-04-18T11:32:38.772Z</time></trkpt><trkpt lat="42.6560683" lon="11.5114633"><ele>151.0</ele><time>2026-04-18T11:32:39.767Z</time></trkpt><trkpt lat="42.656235" lon="11.5114383"><ele>153.33333333333334</ele><time>2026-04-18T11:32:40.764Z</time></trkpt><trkpt lat="42.6563983" lon="11.5114017"><ele>155.66666666666666</ele><time>2026-04-18T11:32:41.767Z</time></trkpt><trkpt lat="42.656565" lon="11.5113617"><ele>158.0</ele><time>2026-04-18T11:32:42.769Z</time></trkpt><trkpt lat="42.656735" lon="11.5113117"><ele>158.0</ele><time>2026-04-18T11:32:43.765Z</time></trkpt><trkpt lat="42.6569" lon="11.5112533"><ele>158.0</ele><time>2026-04-18T11:32:44.772Z</time></trkpt><trkpt lat="42.6570667" lon="11.51118"><ele>158.0</ele><time>2026-04-18T11:32:45.765Z</time></trkpt><trkpt lat="42.6572217" lon="11.5110767"><ele>160.0</ele><time>2026-04-18T11:32:46.768Z</time></trkpt><trkpt lat="42.65736" lon="11.510935"><ele>162.0</ele><time>2026-04-18T11:32:47.769Z</time></trkpt><trkpt lat="42.657475" lon="11.51076"><ele>164.0</ele><time>2026-04-18T11:32:48.765Z</time></trkpt><trkpt lat="42.6575683" lon="11.51056"><ele>165.0</ele><time>2026-04-18T11:32:49.769Z</time></trkpt><trkpt lat="42.657635" lon="11.5103483"><ele>166.0</ele><time>2026-04-18T11:32:50.771Z</time></trkpt><trkpt lat="42.657695" lon="11.5101517"><ele>167.0</ele><time>2026-04-18T11:32:51.768Z</time></trkpt><trkpt lat="42.6577633" lon="11.509985"><ele>169.5</ele><time>2026-04-18T11:32:52.772Z</time></trkpt><trkpt lat="42.6578433" lon="11.5098517"><ele>172.0</ele><time>2026-04-18T11:32:53.767Z</time></trkpt><trkpt lat="42.6579467" lon="11.5097583"><ele>174.5</ele><time>2026-04-18T11:32:54.771Z</time></trkpt><trkpt lat="42.6580683" lon="11.50972"><ele>177.0</ele><time>2026-04-18T11:32:55.769Z</time></trkpt><trkpt lat="42.6581967" lon="11.5097233"><ele>177.0</ele><time>2026-04-18T11:32:56.772Z</time></trkpt><trkpt lat="42.6583267" lon="11.50978"><ele>177.0</ele><time>2026-04-18T11:32:57.77Z</time></trkpt><trkpt lat="42.658465" lon="11.50988"><ele>177.0</ele><time>2026-04-18T11:32:58.766Z</time></trkpt><trkpt lat="42.6586117" lon="11.5099933"><ele>180.0</ele><time>2026-04-18T11:32:59.769Z</time></trkpt><trkpt lat="42.6587583" lon="11.51011"><ele>183.0</ele><time>2026-04-18T11:33:00.769Z</time></trkpt><trkpt lat="42.6589117" lon="11.5102283"><ele>186.0</ele><time>2026-04-18T11:33:01.765Z</time></trkpt><trkpt lat="42.6590683" lon="11.5103467"><ele>186.66666666666666</ele><time>2026-04-18T11:33:02.768Z</time></trkpt><trkpt lat="42.659225" lon="11.510465"><ele>187.33333333333331</ele><time>2026-04-18T11:33:03.769Z</time></trkpt><trkpt lat="42.6593783" lon="11.51058"><ele>188.0</ele><time>2026-04-18T11:33:04.768Z</time></trkpt><trkpt lat="42.6595317" lon="11.51069"><ele>188.0</ele><time>2026-04-18T11:33:05.77Z</time></trkpt><trkpt lat="42.6596867" lon="11.5107867"><ele>188.0</ele><time>2026-04-18T11:33:06.77Z</time></trkpt><trkpt lat="42.6598433" lon="11.5108583"><ele>188.0</ele><time>2026-04-18T11:33:07.766Z</time></trkpt><trkpt lat="42.6600067" lon="11.5109017"><ele>188.0</ele><time>2026-04-18T11:33:08.77Z</time></trkpt><trkpt lat="42.6601767" lon="11.5109133"><ele>188.0</ele><time>2026-04-18T11:33:09.765Z</time></trkpt><trkpt lat="42.6603517" lon="11.5108917"><ele>188.0</ele><time>2026-04-18T11:33:10.766Z</time></trkpt><trkpt lat="42.66053" lon="11.5108433"><ele>188.66666666666666</ele><time>2026-04-18T11:33:11.769Z</time></trkpt><trkpt lat="42.66071" lon="11.5107867"><ele>189.33333333333334</ele><time>2026-04-18T11:33:12.768Z</time></trkpt><trkpt lat="42.6608883" lon="11.5107083"><ele>190.0</ele><time>2026-04-18T11:33:13.769Z</time></trkpt><trkpt lat="42.6610733" lon="11.5106133"><ele>191.33333333333334</ele><time>2026-04-18T11:33:14.773Z</time></trkpt><trkpt lat="42.6612583" lon="11.5105117"><ele>192.66666666666669</ele><time>2026-04-18T11:33:15.768Z</time></trkpt><trkpt lat="42.6614383" lon="11.510405"><ele>194.0</ele><time>2026-04-18T11:33:16.77Z</time></trkpt><trkpt lat="42.6616233" lon="11.5103017"><ele>197.0</ele><time>2026-04-18T11:33:17.77Z</time></trkpt><trkpt lat="42.6618033" lon="11.5102"><ele>200.0</ele><time>2026-04-18T11:33:18.77Z</time></trkpt><trkpt lat="42.6619883" lon="11.510105"><ele>203.0</ele><time>2026-04-18T11:33:19.769Z</time></trkpt><trkpt lat="42.6621817" lon="11.5100267"><ele>203.66666666666669</ele><time>2026-04-18T11:33:20.773Z</time></trkpt><trkpt lat="42.662375" lon="11.509985"><ele>204.33333333333331</ele><time>2026-04-18T11:33:21.758Z</time></trkpt><trkpt lat="42.662565" lon="11.50998"><ele>205.0</ele><time>2026-04-18T11:33:22.767Z</time></trkpt><trkpt lat="42.6627467" lon="11.51003"><ele>206.33333333333331</ele><time>2026-04-18T11:33:23.77Z</time></trkpt><trkpt lat="42.66292" lon="11.5101317"><ele>207.66666666666669</ele><time>2026-04-18T11:33:24.766Z</time></trkpt><trkpt lat="42.66308" lon="11.5102683"><ele>209.0</ele><time>2026-04-18T11:33:25.767Z</time></trkpt><trkpt lat="42.663235" lon="11.5104133"><ele>209.0</ele><time>2026-04-18T11:33:26.772Z</time></trkpt><trkpt lat="42.6633867" lon="11.5105633"><ele>209.0</ele><time>2026-04-18T11:33:27.766Z</time></trkpt><trkpt lat="42.6635367" lon="11.5107133"><ele>209.0</ele><time>2026-04-18T11:33:28.766Z</time></trkpt><trkpt lat="42.66368" lon="11.51086"><ele>211.33333333333334</ele><time>2026-04-18T11:33:29.767Z</time></trkpt><trkpt lat="42.6638217" lon="11.5110083"><ele>213.66666666666669</ele><time>2026-04-18T11:33:30.77Z</time></trkpt><trkpt lat="42.6639633" lon="11.51115"><ele>216.0</ele><time>2026-04-18T11:33:31.764Z</time></trkpt><trkpt lat="42.66411" lon="11.5112733"><ele>216.0</ele><time>2026-04-18T11:33:32.768Z</time></trkpt><trkpt lat="42.664265" lon="11.511375"><ele>216.0</ele><time>2026-04-18T11:33:33.77Z</time></trkpt><trkpt lat="42.6644283" lon="11.5114517"><ele>216.0</ele><time>2026-04-18T11:33:34.768Z</time></trkpt><trkpt lat="42.6645917" lon="11.511505"><ele>218.66666666666669</ele><time>2026-04-18T11:33:35.765Z</time></trkpt><trkpt lat="42.6647633" lon="11.5115383"><ele>221.33333333333334</ele><time>2026-04-18T11:33:36.772Z</time></trkpt><trkpt lat="42.6649383" lon="11.511545"><ele>224.0</ele><time>2026-04-18T11:33:37.769Z</time></trkpt><trkpt lat="42.6651117" lon="11.5115433"><ele>225.66666666666669</ele><time>2026-04-18T11:33:38.765Z</time></trkpt><trkpt lat="42.6652833" lon="11.511535"><ele>227.33333333333331</ele><time>2026-04-18T11:33:39.762Z</time></trkpt><trkpt lat="42.6654567" lon="11.51152"><ele>229.0</ele><time>2026-04-18T11:33:40.767Z</time></trkpt><trkpt lat="42.6656267" lon="11.5115033"><ele>229.0</ele><time>2026-04-18T11:33:41.769Z</time></trkpt><trkpt lat="42.6658017" lon="11.5114867"><ele>229.0</ele><time>2026-04-18T11:33:42.767Z</time></trkpt><trkpt lat="42.66598" lon="11.5114633"><ele>229.0</ele><time>2026-04-18T11:33:43.77Z</time></trkpt><trkpt lat="42.6661567" lon="11.5114367"><ele>229.33333333333331</ele><time>2026-04-18T11:33:44.771Z</time></trkpt><trkpt lat="42.6663367" lon="11.5114133"><ele>229.66666666666669</ele><time>2026-04-18T11:33:45.77Z</time></trkpt><trkpt lat="42.6665167" lon="11.51139"><ele>230.0</ele><time>2026-04-18T11:33:46.769Z</time></trkpt><trkpt lat="42.6666967" lon="11.5113683"><ele>230.0</ele><time>2026-04-18T11:33:47.766Z</time></trkpt><trkpt lat="42.6668767" lon="11.51135"><ele>230.0</ele><time>2026-04-18T11:33:48.769Z</time></trkpt><trkpt lat="42.6670583" lon="11.5113333"><ele>230.0</ele><time>2026-04-18T11:33:49.765Z</time></trkpt><trkpt lat="42.66724" lon="11.5113133"><ele>230.66666666666669</ele><time>2026-04-18T11:33:50.768Z</time></trkpt><trkpt lat="42.6674167" lon="11.51129"><ele>231.33333333333331</ele><time>2026-04-18T11:33:51.769Z</time></trkpt><trkpt lat="42.6675883" lon="11.5112667"><ele>232.0</ele><time>2026-04-18T11:33:52.765Z</time></trkpt><trkpt lat="42.6677567" lon="11.5112417"><ele>234.33333333333331</ele><time>2026-04-18T11:33:53.768Z</time></trkpt><trkpt lat="42.6679183" lon="11.5112233"><ele>236.66666666666669</ele><time>2026-04-18T11:33:54.771Z</time></trkpt><trkpt lat="42.6680733" lon="11.5112167"><ele>239.0</ele><time>2026-04-18T11:33:55.769Z</time></trkpt><trkpt lat="42.668225" lon="11.5112467"><ele>239.0</ele><time>2026-04-18T11:33:56.769Z</time></trkpt><trkpt lat="42.66837" lon="11.51132"><ele>239.0</ele><time>2026-04-18T11:33:57.769Z</time></trkpt><trkpt lat="42.6685033" lon="11.5114183"><ele>239.0</ele><time>2026-04-18T11:33:58.764Z</time></trkpt><trkpt lat="42.6686217" lon="11.511535"><ele>242.33333333333334</ele><time>2026-04-18T11:33:59.767Z</time></trkpt><trkpt lat="42.668715" lon="11.5116867"><ele>245.66666666666669</ele><time>2026-04-18T11:34:00.766Z</time></trkpt><trkpt lat="42.6687783" lon="11.5118717"><ele>249.0</ele><time>2026-04-18T11:34:01.769Z</time></trkpt><trkpt lat="42.668815" lon="11.5120817"><ele>249.0</ele><time>2026-04-18T11:34:02.765Z</time></trkpt><trkpt lat="42.6688383" lon="11.5123033"><ele>249.0</ele><time>2026-04-18T11:34:03.766Z</time></trkpt><trkpt lat="42.6688533" lon="11.5125233"><ele>249.0</ele><time>2026-04-18T11:34:04.764Z</time></trkpt><trkpt lat="42.6688633" lon="11.5127333"><ele>248.5</ele><time>2026-04-18T11:34:05.765Z</time></trkpt><trkpt lat="42.6688667" lon="11.5129367"><ele>248.0</ele><time>2026-04-18T11:34:06.77Z</time></trkpt><trkpt lat="42.6688683" lon="11.5131367"><ele>247.5</ele><time>2026-04-18T11:34:07.766Z</time></trkpt><trkpt lat="42.6688683" lon="11.513335"><ele>247.0</ele><time>2026-04-18T11:34:08.772Z</time></trkpt><trkpt lat="42.66887" lon="11.513535"><ele>247.0</ele><time>2026-04-18T11:34:09.767Z</time></trkpt><trkpt lat="42.6688683" lon="11.5137317"><ele>247.0</ele><time>2026-04-18T11:34:10.764Z</time></trkpt><trkpt lat="42.6688667" lon="11.5139283"><ele>247.0</ele><time>2026-04-18T11:34:11.77Z</time></trkpt><trkpt lat="42.6688683" lon="11.514125"><ele>247.0</ele><time>2026-04-18T11:34:12.769Z</time></trkpt><trkpt lat="42.6688717" lon="11.5143233"><ele>246.5</ele><time>2026-04-18T11:34:13.762Z</time></trkpt><trkpt lat="42.668875" lon="11.5145233"><ele>246.0</ele><time>2026-04-18T11:34:14.761Z</time></trkpt><trkpt lat="42.6688783" lon="11.5147233"><ele>245.5</ele><time>2026-04-18T11:34:15.77Z</time></trkpt><trkpt lat="42.6688883" lon="11.5149233"><ele>245.0</ele><time>2026-04-18T11:34:16.77Z</time></trkpt><trkpt lat="42.6689" lon="11.5151233"><ele>244.33333333333334</ele><time>2026-04-18T11:34:17.766Z</time></trkpt><trkpt lat="42.668915" lon="11.5153267"><ele>243.66666666666669</ele><time>2026-04-18T11:34:18.769Z</time></trkpt><trkpt lat="42.6689267" lon="11.5155333"><ele>243.0</ele><time>2026-04-18T11:34:19.765Z</time></trkpt><trkpt lat="42.6689433" lon="11.5157433"><ele>242.66666666666669</ele><time>2026-04-18T11:34:20.772Z</time></trkpt><trkpt lat="42.6689633" lon="11.5159633"><ele>242.33333333333334</ele><time>2026-04-18T11:34:21.77Z</time></trkpt><trkpt lat="42.66898" lon="11.5161867"><ele>242.0</ele><time>2026-04-18T11:34:22.763Z</time></trkpt><trkpt lat="42.6689967" lon="11.51641"><ele>241.66666666666669</ele><time>2026-04-18T11:34:23.771Z</time></trkpt><trkpt lat="42.6690117" lon="11.5166367"><ele>241.33333333333331</ele><time>2026-04-18T11:34:24.769Z</time></trkpt><trkpt lat="42.6690267" lon="11.5168683"><ele>241.0</ele><time>2026-04-18T11:34:25.769Z</time></trkpt><trkpt lat="42.6690417" lon="11.5170983"><ele>241.0</ele><time>2026-04-18T11:34:26.77Z</time></trkpt><trkpt lat="42.66906" lon="11.5173217"><ele>241.0</ele><time>2026-04-18T11:34:27.771Z</time></trkpt><trkpt lat="42.6690783" lon="11.5175433"><ele>241.0</ele><time>2026-04-18T11:34:28.765Z</time></trkpt><trkpt lat="42.6690967" lon="11.5177617"><ele>240.33333333333331</ele><time>2026-04-18T11:34:29.768Z</time></trkpt><trkpt lat="42.6691183" lon="11.5179767"><ele>239.66666666666669</ele><time>2026-04-18T11:34:30.765Z</time></trkpt><trkpt lat="42.6691333" lon="11.5182033"><ele>239.0</ele><time>2026-04-18T11:34:31.767Z</time></trkpt><trkpt lat="42.6691483" lon="11.518425"><ele>239.0</ele><time>2026-04-18T11:34:32.772Z</time></trkpt><trkpt lat="42.66916" lon="11.518645"><ele>239.0</ele><time>2026-04-18T11:34:33.769Z</time></trkpt><trkpt lat="42.6691667" lon="11.5188633"><ele>239.0</ele><time>2026-04-18T11:34:34.769Z</time></trkpt><trkpt lat="42.669175" lon="11.5190917"><ele>237.33333333333334</ele><time>2026-04-18T11:34:35.767Z</time></trkpt><trkpt lat="42.6691883" lon="11.519325"><ele>235.66666666666669</ele><time>2026-04-18T11:34:36.773Z</time></trkpt><trkpt lat="42.6692183" lon="11.5195617"><ele>234.0</ele><time>2026-04-18T11:34:37.767Z</time></trkpt><trkpt lat="42.66926" lon="11.519795"><ele>233.0</ele><time>2026-04-18T11:34:38.771Z</time></trkpt><trkpt lat="42.6693183" lon="11.520025"><ele>232.0</ele><time>2026-04-18T11:34:39.77Z</time></trkpt><trkpt lat="42.6693783" lon="11.5202533"><ele>231.0</ele><time>2026-04-18T11:34:40.769Z</time></trkpt><trkpt lat="42.6694333" lon="11.5204767"><ele>228.66666666666669</ele><time>2026-04-18T11:34:41.768Z</time></trkpt><trkpt lat="42.66948" lon="11.5206967"><ele>226.33333333333334</ele><time>2026-04-18T11:34:42.77Z</time></trkpt><trkpt lat="42.6695033" lon="11.5209117"><ele>224.0</ele><time>2026-04-18T11:34:43.77Z</time></trkpt><trkpt lat="42.669505" lon="11.5211217"><ele>224.66666666666669</ele><time>2026-04-18T11:34:44.77Z</time></trkpt><trkpt lat="42.6694767" lon="11.5213333"><ele>225.33333333333331</ele><time>2026-04-18T11:34:45.769Z</time></trkpt><trkpt lat="42.669425" lon="11.5215483"><ele>226.0</ele><time>2026-04-18T11:34:46.766Z</time></trkpt><trkpt lat="42.66936" lon="11.521765"><ele>226.0</ele><time>2026-04-18T11:34:47.77Z</time></trkpt><trkpt lat="42.6692883" lon="11.5219817"><ele>226.0</ele><time>2026-04-18T11:34:48.763Z</time></trkpt><trkpt lat="42.6692167" lon="11.522195"><ele>226.0</ele><time>2026-04-18T11:34:49.77Z</time></trkpt><trkpt lat="42.6691467" lon="11.5224017"><ele>224.66666666666666</ele><time>2026-04-18T11:34:50.77Z</time></trkpt><trkpt lat="42.6690717" lon="11.5226"><ele>223.33333333333331</ele><time>2026-04-18T11:34:51.771Z</time></trkpt><trkpt lat="42.6690033" lon="11.5227933"><ele>222.0</ele><time>2026-04-18T11:34:52.769Z</time></trkpt><trkpt lat="42.6689467" lon="11.5229883"><ele>221.0</ele><time>2026-04-18T11:34:53.764Z</time></trkpt><trkpt lat="42.6689183" lon="11.5232"><ele>220.0</ele><time>2026-04-18T11:34:54.77Z</time></trkpt><trkpt lat="42.6689183" lon="11.523415"><ele>219.0</ele><time>2026-04-18T11:34:55.767Z</time></trkpt><trkpt lat="42.66894" lon="11.52362"><ele>218.5</ele><time>2026-04-18T11:34:56.772Z</time></trkpt><trkpt lat="42.66899" lon="11.5237983"><ele>218.0</ele><time>2026-04-18T11:34:57.769Z</time></trkpt><trkpt lat="42.6690517" lon="11.523945"><ele>217.5</ele><time>2026-04-18T11:34:58.768Z</time></trkpt><trkpt lat="42.6691367" lon="11.524045"><ele>217.0</ele><time>2026-04-18T11:34:59.769Z</time></trkpt><trkpt lat="42.6692317" lon="11.5241"><ele>217.0</ele><time>2026-04-18T11:35:00.769Z</time></trkpt><trkpt lat="42.6693417" lon="11.524075"><ele>217.0</ele><time>2026-04-18T11:35:01.768Z</time></trkpt><trkpt lat="42.6694683" lon="11.524"><ele>217.0</ele><time>2026-04-18T11:35:02.772Z</time></trkpt><trkpt lat="42.6696117" lon="11.5238983"><ele>217.0</ele><time>2026-04-18T11:35:03.766Z</time></trkpt><trkpt lat="42.6697583" lon="11.523835"><ele>214.33333333333331</ele><time>2026-04-18T11:35:04.769Z</time></trkpt><trkpt lat="42.6699183" lon="11.5238217"><ele>211.66666666666669</ele><time>2026-04-18T11:35:05.769Z</time></trkpt><trkpt lat="42.67007" lon="11.5238533"><ele>209.0</ele><time>2026-04-18T11:35:06.771Z</time></trkpt><trkpt lat="42.6702217" lon="11.5239083"><ele>207.0</ele><time>2026-04-18T11:35:07.769Z</time></trkpt><trkpt lat="42.67037" lon="11.5239667"><ele>205.0</ele><time>2026-04-18T11:35:08.768Z</time></trkpt><trkpt lat="42.6705167" lon="11.5240317"><ele>203.0</ele><time>2026-04-18T11:35:09.769Z</time></trkpt><trkpt lat="42.6706633" lon="11.5241017"><ele>203.0</ele><time>2026-04-18T11:35:10.769Z</time></trkpt><trkpt lat="42.6708167" lon="11.5241633"><ele>203.0</ele><time>2026-04-18T11:35:11.77Z</time></trkpt><trkpt lat="42.6709717" lon="11.524215"><ele>203.0</ele><time>2026-04-18T11:35:12.769Z</time></trkpt><trkpt lat="42.67113" lon="11.52425"><ele>202.5</ele><time>2026-04-18T11:35:13.769Z</time></trkpt><trkpt lat="42.6712883" lon="11.5242717"><ele>202.0</ele><time>2026-04-18T11:35:14.773Z</time></trkpt><trkpt lat="42.6714317" lon="11.52429"><ele>201.5</ele><time>2026-04-18T11:35:15.769Z</time></trkpt><trkpt lat="42.6715583" lon="11.524305"><ele>201.0</ele><time>2026-04-18T11:35:16.769Z</time></trkpt><trkpt lat="42.6716733" lon="11.52432"><ele>201.0</ele><time>2026-04-18T11:35:17.765Z</time></trkpt><trkpt lat="42.67178" lon="11.524335"><ele>201.0</ele><time>2026-04-18T11:35:18.769Z</time></trkpt><trkpt lat="42.6718867" lon="11.524345"><ele>201.0</ele><time>2026-04-18T11:35:19.769Z</time></trkpt><trkpt lat="42.6719917" lon="11.5243533"><ele>201.0</ele><time>2026-04-18T11:35:20.771Z</time></trkpt><trkpt lat="42.6721017" lon="11.5243667"><ele>201.0</ele><time>2026-04-18T11:35:21.766Z</time></trkpt><trkpt lat="42.67222" lon="11.5243783"><ele>201.25</ele><time>2026-04-18T11:35:22.766Z</time></trkpt><trkpt lat="42.6723417" lon="11.5243933"><ele>201.5</ele><time>2026-04-18T11:35:23.77Z</time></trkpt><trkpt lat="42.6724717" lon="11.5244117"><ele>201.75</ele><time>2026-04-18T11:35:24.77Z</time></trkpt><trkpt lat="42.6726083" lon="11.5244333"><ele>202.0</ele><time>2026-04-18T11:35:25.769Z</time></trkpt><trkpt lat="42.6727467" lon="11.5244583"><ele>202.25</ele><time>2026-04-18T11:35:26.768Z</time></trkpt><trkpt lat="42.6728883" lon="11.52448"><ele>202.5</ele><time>2026-04-18T11:35:27.766Z</time></trkpt><trkpt lat="42.6730267" lon="11.5245"><ele>202.75</ele><time>2026-04-18T11:35:28.764Z</time></trkpt><trkpt lat="42.6731583" lon="11.5245183"><ele>203.0</ele><time>2026-04-18T11:35:29.765Z</time></trkpt><trkpt lat="42.67328" lon="11.5245433"><ele>203.50000000000003</ele><time>2026-04-18T11:35:30.773Z</time></trkpt><trkpt lat="42.6733883" lon="11.5245733"><ele>204.0</ele><time>2026-04-18T11:35:31.77Z</time></trkpt><trkpt lat="42.6734833" lon="11.5246067"><ele>204.5</ele><time>2026-04-18T11:35:32.772Z</time></trkpt><trkpt lat="42.6735633" lon="11.5246383"><ele>205.0</ele><time>2026-04-18T11:35:33.769Z</time></trkpt><trkpt lat="42.67364" lon="11.5246667"><ele>205.50000000000003</ele><time>2026-04-18T11:35:34.77Z</time></trkpt><trkpt lat="42.6737083" lon="11.5246933"><ele>206.0</ele><time>2026-04-18T11:35:35.77Z</time></trkpt><trkpt lat="42.6738033" lon="11.5247317"><ele>206.50000000000003</ele><time>2026-04-18T11:35:37.77Z</time></trkpt><trkpt lat="42.6738817" lon="11.5247633"><ele>207.0</ele><time>2026-04-18T11:35:40.765Z</time></trkpt><trkpt lat="42.6739417" lon="11.52479"><ele>207.5</ele><time>2026-04-18T11:35:44.769Z</time></trkpt><trkpt lat="42.6740183" lon="11.5248283"><ele>208.0</ele><time>2026-04-18T11:35:46.769Z</time></trkpt><trkpt lat="42.6740833" lon="11.5248567"><ele>208.50000000000003</ele><time>2026-04-18T11:35:47.77Z</time></trkpt><trkpt lat="42.6741617" lon="11.5248867"><ele>209.0</ele><time>2026-04-18T11:35:48.769Z</time></trkpt><trkpt lat="42.6742483" lon="11.5249217"><ele>209.0</ele><time>2026-04-18T11:35:49.769Z</time></trkpt><trkpt lat="42.67435" lon="11.52496"><ele>209.0</ele><time>2026-04-18T11:35:50.772Z</time></trkpt><trkpt lat="42.67446" lon="11.5249983"><ele>209.0</ele><time>2026-04-18T11:35:51.769Z</time></trkpt><trkpt lat="42.6745783" lon="11.5250417"><ele>209.0</ele><time>2026-04-18T11:35:52.769Z</time></trkpt><trkpt lat="42.6746983" lon="11.5250917"><ele>209.75</ele><time>2026-04-18T11:35:53.77Z</time></trkpt><trkpt lat="42.67482" lon="11.52514"><ele>210.5</ele><time>2026-04-18T11:35:54.767Z</time></trkpt><trkpt lat="42.6749333" lon="11.52519"><ele>211.25</ele><time>2026-04-18T11:35:55.768Z</time></trkpt><trkpt lat="42.67504" lon="11.52524"><ele>212.0</ele><time>2026-04-18T11:35:56.772Z</time></trkpt><trkpt lat="42.6751417" lon="11.5253"><ele>212.0</ele><time>2026-04-18T11:35:57.769Z</time></trkpt><trkpt lat="42.6752417" lon="11.5253783"><ele>212.0</ele><time>2026-04-18T11:35:58.764Z</time></trkpt><trkpt lat="42.6753417" lon="11.5254767"><ele>212.0</ele><time>2026-04-18T11:35:59.767Z</time></trkpt><trkpt lat="42.6754417" lon="11.5255767"><ele>212.0</ele><time>2026-04-18T11:36:00.772Z</time></trkpt><trkpt lat="42.6755483" lon="11.5256583"><ele>215.0</ele><time>2026-04-18T11:36:01.77Z</time></trkpt><trkpt lat="42.6756683" lon="11.5256933"><ele>218.0</ele><time>2026-04-18T11:36:02.77Z</time></trkpt><trkpt lat="42.6758" lon="11.5256567"><ele>221.0</ele><time>2026-04-18T11:36:03.77Z</time></trkpt><trkpt lat="42.675945" lon="11.5255867"><ele>224.0</ele><time>2026-04-18T11:36:04.766Z</time></trkpt><trkpt lat="42.6761033" lon="11.5255317"><ele>225.0</ele><time>2026-04-18T11:36:05.768Z</time></trkpt><trkpt lat="42.67627" lon="11.5255167"><ele>226.0</ele><time>2026-04-18T11:36:06.77Z</time></trkpt><trkpt lat="42.6764317" lon="11.5255633"><ele>227.0</ele><time>2026-04-18T11:36:07.766Z</time></trkpt><trkpt lat="42.67658" lon="11.52566"><ele>227.0</ele><time>2026-04-18T11:36:08.77Z</time></trkpt><trkpt lat="42.6767117" lon="11.5258017"><ele>227.0</ele><time>2026-04-18T11:36:09.769Z</time></trkpt><trkpt lat="42.6768233" lon="11.5259617"><ele>227.0</ele><time>2026-04-18T11:36:10.764Z</time></trkpt><trkpt lat="42.6769233" lon="11.5260983"><ele>227.25</ele><time>2026-04-18T11:36:11.77Z</time></trkpt><trkpt lat="42.6770317" lon="11.5261867"><ele>227.5</ele><time>2026-04-18T11:36:12.766Z</time></trkpt><trkpt lat="42.6771567" lon="11.5262"><ele>227.75</ele><time>2026-04-18T11:36:13.771Z</time></trkpt><trkpt lat="42.6773067" lon="11.5261533"><ele>228.0</ele><time>2026-04-18T11:36:14.771Z</time></trkpt><trkpt lat="42.6774517" lon="11.52609"><ele>228.0</ele><time>2026-04-18T11:36:15.768Z</time></trkpt><trkpt lat="42.67759" lon="11.5260633"><ele>228.0</ele><time>2026-04-18T11:36:16.769Z</time></trkpt><trkpt lat="42.6777267" lon="11.5260783"><ele>228.0</ele><time>2026-04-18T11:36:17.769Z</time></trkpt><trkpt lat="42.6778533" lon="11.52616"><ele>228.0</ele><time>2026-04-18T11:36:18.767Z</time></trkpt><trkpt lat="42.6779683" lon="11.5262917"><ele>230.66666666666669</ele><time>2026-04-18T11:36:19.768Z</time></trkpt><trkpt lat="42.678035" lon="11.5264817"><ele>233.33333333333334</ele><time>2026-04-18T11:36:20.77Z</time></trkpt><trkpt lat="42.6780733" lon="11.5267033"><ele>236.0</ele><time>2026-04-18T11:36:21.767Z</time></trkpt><trkpt lat="42.6780883" lon="11.5269417"><ele>237.66666666666669</ele><time>2026-04-18T11:36:22.766Z</time></trkpt><trkpt lat="42.6781067" lon="11.5271883"><ele>239.33333333333331</ele><time>2026-04-18T11:36:23.765Z</time></trkpt><trkpt lat="42.67813" lon="11.527435"><ele>241.0</ele><time>2026-04-18T11:36:24.767Z</time></trkpt><trkpt lat="42.6781517" lon="11.52769"><ele>242.33333333333331</ele><time>2026-04-18T11:36:25.767Z</time></trkpt><trkpt lat="42.6781667" lon="11.52795"><ele>243.66666666666669</ele><time>2026-04-18T11:36:26.768Z</time></trkpt><trkpt lat="42.6781933" lon="11.5282017"><ele>245.0</ele><time>2026-04-18T11:36:27.768Z</time></trkpt><trkpt lat="42.6782367" lon="11.52844"><ele>245.0</ele><time>2026-04-18T11:36:28.768Z</time></trkpt><trkpt lat="42.6782867" lon="11.5286583"><ele>245.0</ele><time>2026-04-18T11:36:29.768Z</time></trkpt><trkpt lat="42.6783417" lon="11.52884"><ele>245.0</ele><time>2026-04-18T11:36:30.766Z</time></trkpt><trkpt lat="42.6784183" lon="11.528985"><ele>245.0</ele><time>2026-04-18T11:36:31.766Z</time></trkpt><trkpt lat="42.6785133" lon="11.5290967"><ele>247.75</ele><time>2026-04-18T11:36:32.77Z</time></trkpt><trkpt lat="42.6786283" lon="11.5291367"><ele>250.5</ele><time>2026-04-18T11:36:33.763Z</time></trkpt><trkpt lat="42.67875" lon="11.529125"><ele>253.25</ele><time>2026-04-18T11:36:34.765Z</time></trkpt><trkpt lat="42.67888" lon="11.5290017"><ele>256.0</ele><time>2026-04-18T11:36:35.764Z</time></trkpt><trkpt lat="42.6790117" lon="11.5288467"><ele>256.0</ele><time>2026-04-18T11:36:36.769Z</time></trkpt><trkpt lat="42.6791417" lon="11.5287317"><ele>256.0</ele><time>2026-04-18T11:36:37.769Z</time></trkpt><trkpt lat="42.6792783" lon="11.52868"><ele>256.0</ele><time>2026-04-18T11:36:38.769Z</time></trkpt><trkpt lat="42.679425" lon="11.5286917"><ele>256.0</ele><time>2026-04-18T11:36:39.768Z</time></trkpt><trkpt lat="42.6795767" lon="11.5287033"><ele>255.66666666666666</ele><time>2026-04-18T11:36:40.766Z</time></trkpt><trkpt lat="42.6797283" lon="11.528665"><ele>255.33333333333331</ele><time>2026-04-18T11:36:41.769Z</time></trkpt><trkpt lat="42.6798867" lon="11.5285917"><ele>255.0</ele><time>2026-04-18T11:36:42.768Z</time></trkpt><trkpt lat="42.6800383" lon="11.5284967"><ele>255.0</ele><time>2026-04-18T11:36:43.768Z</time></trkpt><trkpt lat="42.680185" lon="11.5283917"><ele>255.0</ele><time>2026-04-18T11:36:44.769Z</time></trkpt><trkpt lat="42.6803267" lon="11.528295"><ele>255.0</ele><time>2026-04-18T11:36:45.769Z</time></trkpt><trkpt lat="42.6804633" lon="11.52821"><ele>256.75</ele><time>2026-04-18T11:36:46.767Z</time></trkpt><trkpt lat="42.680595" lon="11.528145"><ele>258.5</ele><time>2026-04-18T11:36:47.771Z</time></trkpt><trkpt lat="42.68072" lon="11.528115"><ele>260.25</ele><time>2026-04-18T11:36:48.766Z</time></trkpt><trkpt lat="42.6808467" lon="11.5281217"><ele>262.0</ele><time>2026-04-18T11:36:49.768Z</time></trkpt><trkpt lat="42.6809767" lon="11.5281817"><ele>260.3333333333333</ele><time>2026-04-18T11:36:50.772Z</time></trkpt><trkpt lat="42.6811117" lon="11.5282733"><ele>258.6666666666667</ele><time>2026-04-18T11:36:51.769Z</time></trkpt><trkpt lat="42.6812433" lon="11.5283933"><ele>257.0</ele><time>2026-04-18T11:36:52.77Z</time></trkpt><trkpt lat="42.6813767" lon="11.528525"><ele>257.0</ele><time>2026-04-18T11:36:53.769Z</time></trkpt><trkpt lat="42.6815067" lon="11.5286717"><ele>257.0</ele><time>2026-04-18T11:36:54.77Z</time></trkpt><trkpt lat="42.6816317" lon="11.5288333"><ele>257.0</ele><time>2026-04-18T11:36:55.77Z</time></trkpt><trkpt lat="42.681745" lon="11.5289983"><ele>257.75</ele><time>2026-04-18T11:36:56.771Z</time></trkpt><trkpt lat="42.68184" lon="11.5291633"><ele>258.5</ele><time>2026-04-18T11:36:57.766Z</time></trkpt><trkpt lat="42.6819133" lon="11.529335"><ele>259.25</ele><time>2026-04-18T11:36:58.765Z</time></trkpt><trkpt lat="42.6819583" lon="11.5295183"><ele>260.0</ele><time>2026-04-18T11:36:59.768Z</time></trkpt><trkpt lat="42.6819733" lon="11.52972"><ele>261.75</ele><time>2026-04-18T11:37:00.77Z</time></trkpt><trkpt lat="42.6819367" lon="11.5299267"><ele>263.5</ele><time>2026-04-18T11:37:01.77Z</time></trkpt><trkpt lat="42.68188" lon="11.53012"><ele>265.25</ele><time>2026-04-18T11:37:02.766Z</time></trkpt><trkpt lat="42.6818283" lon="11.530295"><ele>267.0</ele><time>2026-04-18T11:37:03.765Z</time></trkpt><trkpt lat="42.6818033" lon="11.5304517"><ele>268.75</ele><time>2026-04-18T11:37:04.765Z</time></trkpt><trkpt lat="42.68183" lon="11.5305817"><ele>270.5</ele><time>2026-04-18T11:37:05.768Z</time></trkpt><trkpt lat="42.6819133" lon="11.530685"><ele>272.25</ele><time>2026-04-18T11:37:06.77Z</time></trkpt><trkpt lat="42.6820267" lon="11.530785"><ele>274.0</ele><time>2026-04-18T11:37:07.765Z</time></trkpt><trkpt lat="42.6821383" lon="11.530905"><ele>274.0</ele><time>2026-04-18T11:37:08.766Z</time></trkpt><trkpt lat="42.6822333" lon="11.531055"><ele>274.0</ele><time>2026-04-18T11:37:09.767Z</time></trkpt><trkpt lat="42.6823033" lon="11.5312333"><ele>274.0</ele><time>2026-04-18T11:37:10.769Z</time></trkpt><trkpt lat="42.682325" lon="11.5314333"><ele>274.0</ele><time>2026-04-18T11:37:11.766Z</time></trkpt><trkpt lat="42.68227" lon="11.53166"><ele>275.0</ele><time>2026-04-18T11:37:12.769Z</time></trkpt><trkpt lat="42.6822017" lon="11.5318733"><ele>276.0</ele><time>2026-04-18T11:37:13.767Z</time></trkpt><trkpt lat="42.682165" lon="11.5320583"><ele>277.0</ele><time>2026-04-18T11:37:14.769Z</time></trkpt><trkpt lat="42.6821517" lon="11.5322183"><ele>278.0</ele><time>2026-04-18T11:37:15.768Z</time></trkpt><trkpt lat="42.6821783" lon="11.53237"><ele>280.5</ele><time>2026-04-18T11:37:16.769Z</time></trkpt><trkpt lat="42.6822683" lon="11.5324833"><ele>283.0</ele><time>2026-04-18T11:37:17.768Z</time></trkpt><trkpt lat="42.6823917" lon="11.5325683"><ele>285.5</ele><time>2026-04-18T11:37:18.767Z</time></trkpt><trkpt lat="42.6825317" lon="11.5326567"><ele>288.0</ele><time>2026-04-18T11:37:19.768Z</time></trkpt><trkpt lat="42.6826467" lon="11.53276"><ele>287.75</ele><time>2026-04-18T11:37:20.765Z</time></trkpt><trkpt lat="42.6827233" lon="11.5328917"><ele>287.5</ele><time>2026-04-18T11:37:21.765Z</time></trkpt><trkpt lat="42.6827683" lon="11.533045"><ele>287.25</ele><time>2026-04-18T11:37:22.766Z</time></trkpt><trkpt lat="42.6827733" lon="11.5332367"><ele>287.0</ele><time>2026-04-18T11:37:23.768Z</time></trkpt><trkpt lat="42.68273" lon="11.533415"><ele>288.8</ele><time>2026-04-18T11:37:24.769Z</time></trkpt><trkpt lat="42.68269" lon="11.5335683"><ele>290.6</ele><time>2026-04-18T11:37:25.768Z</time></trkpt><trkpt lat="42.6826817" lon="11.5337083"><ele>292.40000000000003</ele><time>2026-04-18T11:37:26.774Z</time></trkpt><trkpt lat="42.6827283" lon="11.5338367"><ele>294.2</ele><time>2026-04-18T11:37:27.769Z</time></trkpt><trkpt lat="42.682815" lon="11.5339267"><ele>296.0</ele><time>2026-04-18T11:37:28.765Z</time></trkpt><trkpt lat="42.6829483" lon="11.533995"><ele>296.75</ele><time>2026-04-18T11:37:29.77Z</time></trkpt><trkpt lat="42.6830983" lon="11.5340633"><ele>297.5</ele><time>2026-04-18T11:37:30.764Z</time></trkpt><trkpt lat="42.683235" lon="11.5341517"><ele>298.25</ele><time>2026-04-18T11:37:31.77Z</time></trkpt><trkpt lat="42.6833433" lon="11.53427"><ele>299.0</ele><time>2026-04-18T11:37:32.769Z</time></trkpt><trkpt lat="42.683435" lon="11.5344217"><ele>302.6666666666667</ele><time>2026-04-18T11:37:33.769Z</time></trkpt><trkpt lat="42.683495" lon="11.5346117"><ele>306.3333333333333</ele><time>2026-04-18T11:37:34.769Z</time></trkpt><trkpt lat="42.6835417" lon="11.5348183"><ele>310.0</ele><time>2026-04-18T11:37:35.771Z</time></trkpt><trkpt lat="42.683595" lon="11.5350183"><ele>308.75</ele><time>2026-04-18T11:37:36.77Z</time></trkpt><trkpt lat="42.6836417" lon="11.5352083"><ele>307.5</ele><time>2026-04-18T11:37:37.769Z</time></trkpt><trkpt lat="42.6836717" lon="11.5354"><ele>306.25</ele><time>2026-04-18T11:37:38.766Z</time></trkpt><trkpt lat="42.6836917" lon="11.5355867"><ele>305.0</ele><time>2026-04-18T11:37:39.769Z</time></trkpt><trkpt lat="42.6837033" lon="11.535775"><ele>305.0</ele><time>2026-04-18T11:37:40.764Z</time></trkpt><trkpt lat="42.6837217" lon="11.5359567"><ele>305.0</ele><time>2026-04-18T11:37:41.769Z</time></trkpt><trkpt lat="42.683745" lon="11.53613"><ele>305.0</ele><time>2026-04-18T11:37:42.769Z</time></trkpt><trkpt lat="42.6837533" lon="11.5363"><ele>305.0</ele><time>2026-04-18T11:37:43.766Z</time></trkpt><trkpt lat="42.6837317" lon="11.5364667"><ele>306.25</ele><time>2026-04-18T11:37:44.77Z</time></trkpt><trkpt lat="42.6836933" lon="11.53663"><ele>307.5</ele><time>2026-04-18T11:37:45.771Z</time></trkpt><trkpt lat="42.6836733" lon="11.5367917"><ele>308.75</ele><time>2026-04-18T11:37:46.769Z</time></trkpt><trkpt lat="42.6836783" lon="11.5369583"><ele>310.0</ele><time>2026-04-18T11:37:47.77Z</time></trkpt><trkpt lat="42.683705" lon="11.5371233"><ele>312.0</ele><time>2026-04-18T11:37:48.77Z</time></trkpt><trkpt lat="42.68375" lon="11.537265"><ele>314.0</ele><time>2026-04-18T11:37:49.767Z</time></trkpt><trkpt lat="42.68382" lon="11.5373833"><ele>316.0</ele><time>2026-04-18T11:37:50.77Z</time></trkpt><trkpt lat="42.6839217" lon="11.5374717"><ele>318.0</ele><time>2026-04-18T11:37:51.771Z</time></trkpt><trkpt lat="42.6840383" lon="11.5375033"><ele>318.0</ele><time>2026-04-18T11:37:52.768Z</time></trkpt><trkpt lat="42.684165" lon="11.5374717"><ele>318.0</ele><time>2026-04-18T11:37:53.769Z</time></trkpt><trkpt lat="42.6843017" lon="11.5374083"><ele>318.0</ele><time>2026-04-18T11:37:54.768Z</time></trkpt><trkpt lat="42.6844367" lon="11.5373583"><ele>318.0</ele><time>2026-04-18T11:37:55.769Z</time></trkpt><trkpt lat="42.6845817" lon="11.537325"><ele>319.75</ele><time>2026-04-18T11:37:56.77Z</time></trkpt><trkpt lat="42.6847317" lon="11.5373"><ele>321.5</ele><time>2026-04-18T11:37:57.769Z</time></trkpt><trkpt lat="42.6848767" lon="11.53727"><ele>323.25</ele><time>2026-04-18T11:37:58.765Z</time></trkpt><trkpt lat="42.6850233" lon="11.53724"><ele>325.0</ele><time>2026-04-18T11:37:59.767Z</time></trkpt><trkpt lat="42.6851617" lon="11.537205"><ele>324.75</ele><time>2026-04-18T11:38:00.769Z</time></trkpt><trkpt lat="42.6853" lon="11.5371583"><ele>324.5</ele><time>2026-04-18T11:38:01.77Z</time></trkpt><trkpt lat="42.6854333" lon="11.5370917"><ele>324.25</ele><time>2026-04-18T11:38:02.768Z</time></trkpt><trkpt lat="42.6855567" lon="11.5370083"><ele>324.0</ele><time>2026-04-18T11:38:03.766Z</time></trkpt><trkpt lat="42.685685" lon="11.5369133"><ele>324.0</ele><time>2026-04-18T11:38:04.765Z</time></trkpt><trkpt lat="42.6858133" lon="11.5368283"><ele>324.0</ele><time>2026-04-18T11:38:05.766Z</time></trkpt><trkpt lat="42.6859467" lon="11.5367583"><ele>324.0</ele><time>2026-04-18T11:38:06.77Z</time></trkpt><trkpt lat="42.6860833" lon="11.536695"><ele>324.0</ele><time>2026-04-18T11:38:07.77Z</time></trkpt><trkpt lat="42.6862183" lon="11.5366483"><ele>326.0</ele><time>2026-04-18T11:38:08.77Z</time></trkpt><trkpt lat="42.686355" lon="11.536615"><ele>328.0</ele><time>2026-04-18T11:38:09.769Z</time></trkpt><trkpt lat="42.6864933" lon="11.5366033"><ele>330.0</ele><time>2026-04-18T11:38:10.765Z</time></trkpt><trkpt lat="42.6866417" lon="11.5366233"><ele>332.0</ele><time>2026-04-18T11:38:11.772Z</time></trkpt><trkpt lat="42.6867933" lon="11.5366517"><ele>332.33333333333337</ele><time>2026-04-18T11:38:12.771Z</time></trkpt><trkpt lat="42.6869467" lon="11.5366817"><ele>332.6666666666667</ele><time>2026-04-18T11:38:13.77Z</time></trkpt><trkpt lat="42.6871033" lon="11.5367083"><ele>333.0</ele><time>2026-04-18T11:38:14.773Z</time></trkpt><trkpt lat="42.6872633" lon="11.5367333"><ele>333.0</ele><time>2026-04-18T11:38:15.77Z</time></trkpt><trkpt lat="42.68742" lon="11.5367717"><ele>333.0</ele><time>2026-04-18T11:38:16.771Z</time></trkpt><trkpt lat="42.6875633" lon="11.5368333"><ele>333.0</ele><time>2026-04-18T11:38:17.76Z</time></trkpt><trkpt lat="42.6876967" lon="11.536925"><ele>332.3333333333333</ele><time>2026-04-18T11:38:18.762Z</time></trkpt><trkpt lat="42.6878283" lon="11.5370333"><ele>331.66666666666663</ele><time>2026-04-18T11:38:19.767Z</time></trkpt><trkpt lat="42.6879583" lon="11.5371417"><ele>331.0</ele><time>2026-04-18T11:38:20.773Z</time></trkpt><trkpt lat="42.68809" lon="11.53726"><ele>333.5</ele><time>2026-04-18T11:38:21.768Z</time></trkpt><trkpt lat="42.6882133" lon="11.5373783"><ele>336.0</ele><time>2026-04-18T11:38:22.77Z</time></trkpt><trkpt lat="42.688335" lon="11.5374933"><ele>338.5</ele><time>2026-04-18T11:38:23.77Z</time></trkpt><trkpt lat="42.688455" lon="11.5376"><ele>341.0</ele><time>2026-04-18T11:38:24.77Z</time></trkpt><trkpt lat="42.68855" lon="11.5376967"><ele>340.33333333333337</ele><time>2026-04-18T11:38:25.77Z</time></trkpt><trkpt lat="42.68861" lon="11.5377933"><ele>339.6666666666667</ele><time>2026-04-18T11:38:26.77Z</time></trkpt><trkpt lat="42.6886483" lon="11.5378867"><ele>339.0</ele><time>2026-04-18T11:38:27.77Z</time></trkpt><trkpt lat="42.688665" lon="11.5379767"><ele>338.3333333333333</ele><time>2026-04-18T11:38:28.765Z</time></trkpt><trkpt lat="42.6886533" lon="11.5380633"><ele>337.66666666666663</ele><time>2026-04-18T11:38:29.77Z</time></trkpt><trkpt lat="42.688625" lon="11.5381467"><ele>337.0</ele><time>2026-04-18T11:38:30.768Z</time></trkpt><trkpt lat="42.6884533" lon="11.5380983"><ele>347.5</ele><time>2026-04-18T11:38:31.769Z</time></trkpt><trkpt lat="42.6881767" lon="11.5380167"><ele>358.0</ele><time>2026-04-18T11:38:32.77Z</time></trkpt><trkpt lat="42.6879467" lon="11.5379567"><ele>356.3333333333333</ele><time>2026-04-18T11:38:33.768Z</time></trkpt><trkpt lat="42.687745" lon="11.537945"><ele>354.6666666666667</ele><time>2026-04-18T11:38:34.769Z</time></trkpt><trkpt lat="42.6875817" lon="11.53799"><ele>353.0</ele><time>2026-04-18T11:38:35.77Z</time></trkpt><trkpt lat="42.68743" lon="11.538085"><ele>353.0</ele><time>2026-04-18T11:38:36.772Z</time></trkpt><trkpt lat="42.6873067" lon="11.53822"><ele>353.0</ele><time>2026-04-18T11:38:37.767Z</time></trkpt><trkpt lat="42.687215" lon="11.5383833"><ele>353.0</ele><time>2026-04-18T11:38:38.768Z</time></trkpt><trkpt lat="42.687145" lon="11.5385617"><ele>352.6666666666667</ele><time>2026-04-18T11:38:39.762Z</time></trkpt><trkpt lat="42.6870783" lon="11.53874"><ele>352.3333333333333</ele><time>2026-04-18T11:38:40.764Z</time></trkpt><trkpt lat="42.687" lon="11.5389133"><ele>352.0</ele><time>2026-04-18T11:38:41.771Z</time></trkpt><trkpt lat="42.686905" lon="11.5390783"><ele>352.0</ele><time>2026-04-18T11:38:42.77Z</time></trkpt><trkpt lat="42.686805" lon="11.53924"><ele>352.0</ele><time>2026-04-18T11:38:43.769Z</time></trkpt><trkpt lat="42.6867017" lon="11.53941"><ele>352.0</ele><time>2026-04-18T11:38:44.77Z</time></trkpt><trkpt lat="42.6865917" lon="11.53959"><ele>357.3333333333333</ele><time>2026-04-18T11:38:45.769Z</time></trkpt><trkpt lat="42.686475" lon="11.5397683"><ele>362.6666666666667</ele><time>2026-04-18T11:38:46.77Z</time></trkpt><trkpt lat="42.68635" lon="11.5399367"><ele>368.0</ele><time>2026-04-18T11:38:47.769Z</time></trkpt><trkpt lat="42.6862183" lon="11.5401"><ele>368.0</ele><time>2026-04-18T11:38:48.769Z</time></trkpt><trkpt lat="42.6860967" lon="11.5402617"><ele>368.0</ele><time>2026-04-18T11:38:49.769Z</time></trkpt><trkpt lat="42.685985" lon="11.540415"><ele>368.0</ele><time>2026-04-18T11:38:50.77Z</time></trkpt><trkpt lat="42.6858683" lon="11.5405533"><ele>368.25</ele><time>2026-04-18T11:38:51.77Z</time></trkpt><trkpt lat="42.685735" lon="11.5406583"><ele>368.5</ele><time>2026-04-18T11:38:52.77Z</time></trkpt><trkpt lat="42.6855917" lon="11.54072"><ele>368.75</ele><time>2026-04-18T11:38:53.769Z</time></trkpt><trkpt lat="42.6854583" lon="11.5407617"><ele>369.0</ele><time>2026-04-18T11:38:54.768Z</time></trkpt><trkpt lat="42.6853433" lon="11.54082"><ele>368.75</ele><time>2026-04-18T11:38:55.769Z</time></trkpt><trkpt lat="42.685255" lon="11.5409233"><ele>368.5</ele><time>2026-04-18T11:38:56.769Z</time></trkpt><trkpt lat="42.68519" lon="11.5410683"><ele>368.25</ele><time>2026-04-18T11:38:57.77Z</time></trkpt><trkpt lat="42.6851433" lon="11.5412367"><ele>368.0</ele><time>2026-04-18T11:38:58.765Z</time></trkpt><trkpt lat="42.68509" lon="11.5414017"><ele>368.0</ele><time>2026-04-18T11:38:59.769Z</time></trkpt><trkpt lat="42.6850167" lon="11.5415533"><ele>368.0</ele><time>2026-04-18T11:39:00.773Z</time></trkpt><trkpt lat="42.684925" lon="11.5416833"><ele>368.0</ele><time>2026-04-18T11:39:01.769Z</time></trkpt><trkpt lat="42.6848333" lon="11.541805"><ele>368.0</ele><time>2026-04-18T11:39:02.773Z</time></trkpt><trkpt lat="42.684735" lon="11.54192"><ele>368.0</ele><time>2026-04-18T11:39:03.766Z</time></trkpt><trkpt lat="42.6846483" lon="11.5420283"><ele>368.0</ele><time>2026-04-18T11:39:04.764Z</time></trkpt><trkpt lat="42.6845633" lon="11.54213"><ele>368.0</ele><time>2026-04-18T11:39:05.765Z</time></trkpt><trkpt lat="42.6844917" lon="11.5422283"><ele>368.0</ele><time>2026-04-18T11:39:06.769Z</time></trkpt><trkpt lat="42.6844233" lon="11.5423317"><ele>368.0</ele><time>2026-04-18T11:39:07.767Z</time></trkpt><trkpt lat="42.6843483" lon="11.5424367"><ele>368.0</ele><time>2026-04-18T11:39:08.767Z</time></trkpt><trkpt lat="42.6842717" lon="11.5425483"><ele>368.0</ele><time>2026-04-18T11:39:09.767Z</time></trkpt><trkpt lat="42.6841933" lon="11.5426583"><ele>368.0</ele><time>2026-04-18T11:39:10.765Z</time></trkpt><trkpt lat="42.6841133" lon="11.5427617"><ele>368.0</ele><time>2026-04-18T11:39:11.77Z</time></trkpt><trkpt lat="42.6840417" lon="11.5428583"><ele>368.0</ele><time>2026-04-18T11:39:12.768Z</time></trkpt><trkpt lat="42.6839783" lon="11.5429517"><ele>368.0</ele><time>2026-04-18T11:39:13.767Z</time></trkpt><trkpt lat="42.683935" lon="11.5430517"><ele>368.0</ele><time>2026-04-18T11:39:14.772Z</time></trkpt><trkpt lat="42.6839133" lon="11.5431667"><ele>368.0</ele><time>2026-04-18T11:39:15.771Z</time></trkpt><trkpt lat="42.6839067" lon="11.543285"><ele>368.0</ele><time>2026-04-18T11:39:16.77Z</time></trkpt><trkpt lat="42.683925" lon="11.5433933"><ele>368.0</ele><time>2026-04-18T11:39:17.766Z</time></trkpt><trkpt lat="42.6839783" lon="11.5434867"><ele>368.0</ele><time>2026-04-18T11:39:18.768Z</time></trkpt><trkpt lat="42.68404" lon="11.54357"><ele>368.0</ele><time>2026-04-18T11:39:19.768Z</time></trkpt><trkpt lat="42.6841133" lon="11.5436533"><ele>368.0</ele><time>2026-04-18T11:39:20.769Z</time></trkpt><trkpt lat="42.684195" lon="11.543725"><ele>368.0</ele><time>2026-04-18T11:39:21.77Z</time></trkpt><trkpt lat="42.6842867" lon="11.5438"><ele>368.0</ele><time>2026-04-18T11:39:22.765Z</time></trkpt><trkpt lat="42.6843767" lon="11.5438783"><ele>368.0</ele><time>2026-04-18T11:39:23.767Z</time></trkpt><trkpt lat="42.6844667" lon="11.543965"><ele>370.79999999999995</ele><time>2026-04-18T11:39:24.77Z</time></trkpt><trkpt lat="42.6845583" lon="11.5440483"><ele>373.6</ele><time>2026-04-18T11:39:25.766Z</time></trkpt><trkpt lat="42.6846333" lon="11.5441483"><ele>376.4</ele><time>2026-04-18T11:39:26.77Z</time></trkpt><trkpt lat="42.68471" lon="11.5442483"><ele>379.20000000000005</ele><time>2026-04-18T11:39:27.765Z</time></trkpt><trkpt lat="42.68477" lon="11.544355"><ele>382.0</ele><time>2026-04-18T11:39:28.767Z</time></trkpt><trkpt lat="42.6848283" lon="11.544465"><ele>381.20000000000005</ele><time>2026-04-18T11:39:29.766Z</time></trkpt><trkpt lat="42.684895" lon="11.5445767"><ele>380.4</ele><time>2026-04-18T11:39:30.768Z</time></trkpt><trkpt lat="42.6849417" lon="11.5446867"><ele>379.6</ele><time>2026-04-18T11:39:31.77Z</time></trkpt><trkpt lat="42.6849783" lon="11.5448083"><ele>378.79999999999995</ele><time>2026-04-18T11:39:32.771Z</time></trkpt><trkpt lat="42.685015" lon="11.5449433"><ele>378.0</ele><time>2026-04-18T11:39:33.766Z</time></trkpt><trkpt lat="42.6850433" lon="11.5451"><ele>378.0</ele><time>2026-04-18T11:39:34.767Z</time></trkpt><trkpt lat="42.6850667" lon="11.5452767"><ele>378.0</ele><time>2026-04-18T11:39:35.768Z</time></trkpt><trkpt lat="42.68508" lon="11.5454667"><ele>378.0</ele><time>2026-04-18T11:39:36.771Z</time></trkpt><trkpt lat="42.68509" lon="11.54566"><ele>378.0</ele><time>2026-04-18T11:39:37.771Z</time></trkpt><trkpt lat="42.685085" lon="11.545855"><ele>378.25</ele><time>2026-04-18T11:39:38.768Z</time></trkpt><trkpt lat="42.6850683" lon="11.546045"><ele>378.5</ele><time>2026-04-18T11:39:39.768Z</time></trkpt><trkpt lat="42.6850183" lon="11.5462267"><ele>378.75</ele><time>2026-04-18T11:39:40.765Z</time></trkpt><trkpt lat="42.6849417" lon="11.5463817"><ele>379.0</ele><time>2026-04-18T11:39:41.769Z</time></trkpt><trkpt lat="42.6848433" lon="11.5465033"><ele>381.75</ele><time>2026-04-18T11:39:42.774Z</time></trkpt><trkpt lat="42.6847517" lon="11.54663"><ele>384.5</ele><time>2026-04-18T11:39:43.767Z</time></trkpt><trkpt lat="42.6846783" lon="11.5467867"><ele>387.25</ele><time>2026-04-18T11:39:44.773Z</time></trkpt><trkpt lat="42.6846367" lon="11.5469767"><ele>390.0</ele><time>2026-04-18T11:39:45.769Z</time></trkpt><trkpt lat="42.684635" lon="11.5471883"><ele>391.33333333333337</ele><time>2026-04-18T11:39:46.77Z</time></trkpt><trkpt lat="42.6846733" lon="11.5473917"><ele>392.6666666666667</ele><time>2026-04-18T11:39:47.77Z</time></trkpt><trkpt lat="42.6847417" lon="11.5475783"><ele>394.0</ele><time>2026-04-18T11:39:48.764Z</time></trkpt><trkpt lat="42.6848383" lon="11.547745"><ele>394.0</ele><time>2026-04-18T11:39:49.77Z</time></trkpt><trkpt lat="42.684955" lon="11.547875"><ele>394.0</ele><time>2026-04-18T11:39:50.77Z</time></trkpt><trkpt lat="42.6850817" lon="11.5479633"><ele>394.0</ele><time>2026-04-18T11:39:51.766Z</time></trkpt><trkpt lat="42.685215" lon="11.5479983"><ele>394.0</ele><time>2026-04-18T11:39:52.764Z</time></trkpt><trkpt lat="42.6853667" lon="11.5479633"><ele>395.6666666666667</ele><time>2026-04-18T11:39:53.766Z</time></trkpt><trkpt lat="42.6855433" lon="11.5478717"><ele>397.33333333333337</ele><time>2026-04-18T11:39:54.771Z</time></trkpt><trkpt lat="42.68574" lon="11.5477467"><ele>399.0</ele><time>2026-04-18T11:39:55.768Z</time></trkpt><trkpt lat="42.685925" lon="11.5476367"><ele>395.0</ele><time>2026-04-18T11:39:56.771Z</time></trkpt><trkpt lat="42.6861017" lon="11.5475317"><ele>391.0</ele><time>2026-04-18T11:39:57.767Z</time></trkpt><trkpt lat="42.68627" lon="11.5474083"><ele>387.0</ele><time>2026-04-18T11:39:58.767Z</time></trkpt><trkpt lat="42.6864217" lon="11.54724"><ele>387.0</ele><time>2026-04-18T11:39:59.769Z</time></trkpt><trkpt lat="42.6865733" lon="11.5470683"><ele>387.0</ele><time>2026-04-18T11:40:00.769Z</time></trkpt><trkpt lat="42.6867383" lon="11.54693"><ele>387.0</ele><time>2026-04-18T11:40:01.766Z</time></trkpt><trkpt lat="42.68692" lon="11.5468083"><ele>392.66666666666663</ele><time>2026-04-18T11:40:02.772Z</time></trkpt><trkpt lat="42.68711" lon="11.5466883"><ele>398.3333333333333</ele><time>2026-04-18T11:40:03.766Z</time></trkpt><trkpt lat="42.6873" lon="11.5465633"><ele>404.0</ele><time>2026-04-18T11:40:04.767Z</time></trkpt><trkpt lat="42.68749" lon="11.5464217"><ele>404.0</ele><time>2026-04-18T11:40:05.766Z</time></trkpt><trkpt lat="42.6876667" lon="11.546275"><ele>404.0</ele><time>2026-04-18T11:40:06.771Z</time></trkpt><trkpt lat="42.6878233" lon="11.54613"><ele>404.0</ele><time>2026-04-18T11:40:07.77Z</time></trkpt><trkpt lat="42.6879717" lon="11.5460083"><ele>407.3333333333333</ele><time>2026-04-18T11:40:08.773Z</time></trkpt><trkpt lat="42.6881233" lon="11.5459267"><ele>410.66666666666663</ele><time>2026-04-18T11:40:09.766Z</time></trkpt><trkpt lat="42.6882933" lon="11.5458883"><ele>414.0</ele><time>2026-04-18T11:40:10.769Z</time></trkpt><trkpt lat="42.68845" lon="11.5458733"><ele>414.0</ele><time>2026-04-18T11:40:11.766Z</time></trkpt><trkpt lat="42.68859" lon="11.5458867"><ele>414.0</ele><time>2026-04-18T11:40:12.77Z</time></trkpt><trkpt lat="42.6887167" lon="11.54593"><ele>414.0</ele><time>2026-04-18T11:40:13.765Z</time></trkpt><trkpt lat="42.6888283" lon="11.5460383"><ele>414.0</ele><time>2026-04-18T11:40:14.771Z</time></trkpt><trkpt lat="42.6889233" lon="11.5462033"><ele>415.0</ele><time>2026-04-18T11:40:15.765Z</time></trkpt><trkpt lat="42.6890267" lon="11.546385"><ele>416.0</ele><time>2026-04-18T11:40:16.765Z</time></trkpt><trkpt lat="42.6891467" lon="11.5465683"><ele>417.0</ele><time>2026-04-18T11:40:17.766Z</time></trkpt><trkpt lat="42.68928" lon="11.5467333"><ele>417.0</ele><time>2026-04-18T11:40:18.771Z</time></trkpt><trkpt lat="42.68941" lon="11.5468867"><ele>417.0</ele><time>2026-04-18T11:40:19.765Z</time></trkpt><trkpt lat="42.6895283" lon="11.5470483"><ele>417.0</ele><time>2026-04-18T11:40:20.77Z</time></trkpt><trkpt lat="42.6896233" lon="11.5472383"><ele>421.0</ele><time>2026-04-18T11:40:21.766Z</time></trkpt><trkpt lat="42.68967" lon="11.5474467"><ele>425.0</ele><time>2026-04-18T11:40:22.765Z</time></trkpt><trkpt lat="42.6897167" lon="11.5476533"><ele>429.0</ele><time>2026-04-18T11:40:23.766Z</time></trkpt><trkpt lat="42.6897717" lon="11.5478567"><ele>427.33333333333337</ele><time>2026-04-18T11:40:24.77Z</time></trkpt><trkpt lat="42.689855" lon="11.548055"><ele>425.6666666666667</ele><time>2026-04-18T11:40:25.768Z</time></trkpt><trkpt lat="42.689965" lon="11.5482467"><ele>424.0</ele><time>2026-04-18T11:40:26.766Z</time></trkpt><trkpt lat="42.690095" lon="11.548425"><ele>424.0</ele><time>2026-04-18T11:40:27.764Z</time></trkpt><trkpt lat="42.690245" lon="11.5485783"><ele>424.0</ele><time>2026-04-18T11:40:28.766Z</time></trkpt><trkpt lat="42.6904017" lon="11.5487083"><ele>424.0</ele><time>2026-04-18T11:40:29.769Z</time></trkpt><trkpt lat="42.6905483" lon="11.5488117"><ele>426.33333333333337</ele><time>2026-04-18T11:40:30.764Z</time></trkpt><trkpt lat="42.690675" lon="11.5489283"><ele>428.66666666666663</ele><time>2026-04-18T11:40:31.769Z</time></trkpt><trkpt lat="42.690785" lon="11.5490717"><ele>431.0</ele><time>2026-04-18T11:40:32.771Z</time></trkpt><trkpt lat="42.69087" lon="11.5492567"><ele>431.0</ele><time>2026-04-18T11:40:33.77Z</time></trkpt><trkpt lat="42.6909583" lon="11.5494633"><ele>431.0</ele><time>2026-04-18T11:40:34.768Z</time></trkpt><trkpt lat="42.6910517" lon="11.549685"><ele>431.0</ele><time>2026-04-18T11:40:35.77Z</time></trkpt><trkpt lat="42.6911583" lon="11.5499133"><ele>431.3333333333333</ele><time>2026-04-18T11:40:36.773Z</time></trkpt><trkpt lat="42.6912717" lon="11.55014"><ele>431.66666666666663</ele><time>2026-04-18T11:40:37.769Z</time></trkpt><trkpt lat="42.6913867" lon="11.5503817"><ele>432.0</ele><time>2026-04-18T11:40:38.766Z</time></trkpt><trkpt lat="42.6914933" lon="11.5506383"><ele>432.0</ele><time>2026-04-18T11:40:39.769Z</time></trkpt><trkpt lat="42.6915933" lon="11.5508883"><ele>432.0</ele><time>2026-04-18T11:40:40.764Z</time></trkpt><trkpt lat="42.691685" lon="11.55112"><ele>432.0</ele><time>2026-04-18T11:40:41.766Z</time></trkpt><trkpt lat="42.691765" lon="11.5513233"><ele>433.25</ele><time>2026-04-18T11:40:42.766Z</time></trkpt><trkpt lat="42.6918233" lon="11.5514983"><ele>434.5</ele><time>2026-04-18T11:40:43.767Z</time></trkpt><trkpt lat="42.6918483" lon="11.5516567"><ele>435.75</ele><time>2026-04-18T11:40:44.772Z</time></trkpt><trkpt lat="42.6918267" lon="11.5518183"><ele>437.0</ele><time>2026-04-18T11:40:45.771Z</time></trkpt><trkpt lat="42.691765" lon="11.551975"><ele>438.66666666666663</ele><time>2026-04-18T11:40:46.771Z</time></trkpt><trkpt lat="42.69167" lon="11.552135"><ele>440.33333333333337</ele><time>2026-04-18T11:40:47.77Z</time></trkpt><trkpt lat="42.6915667" lon="11.5523017"><ele>442.0</ele><time>2026-04-18T11:40:48.772Z</time></trkpt><trkpt lat="42.6914767" lon="11.5524617"><ele>442.0</ele><time>2026-04-18T11:40:49.77Z</time></trkpt><trkpt lat="42.6914117" lon="11.5526367"><ele>442.0</ele><time>2026-04-18T11:40:50.77Z</time></trkpt><trkpt lat="42.6913767" lon="11.55283"><ele>442.0</ele><time>2026-04-18T11:40:51.771Z</time></trkpt><trkpt lat="42.691375" lon="11.5530417"><ele>442.0</ele><time>2026-04-18T11:40:52.765Z</time></trkpt><trkpt lat="42.6914067" lon="11.5532633"><ele>444.0</ele><time>2026-04-18T11:40:53.766Z</time></trkpt><trkpt lat="42.691465" lon="11.5534833"><ele>446.0</ele><time>2026-04-18T11:40:54.769Z</time></trkpt><trkpt lat="42.6915433" lon="11.55371"><ele>448.0</ele><time>2026-04-18T11:40:55.766Z</time></trkpt><trkpt lat="42.6916267" lon="11.553935"><ele>448.33333333333337</ele><time>2026-04-18T11:40:56.769Z</time></trkpt><trkpt lat="42.6917167" lon="11.5541617"><ele>448.66666666666663</ele><time>2026-04-18T11:40:57.765Z</time></trkpt><trkpt lat="42.6918083" lon="11.5543933"><ele>449.0</ele><time>2026-04-18T11:40:58.766Z</time></trkpt><trkpt lat="42.6918967" lon="11.5546217"><ele>452.3333333333333</ele><time>2026-04-18T11:40:59.765Z</time></trkpt><trkpt lat="42.6919917" lon="11.5548417"><ele>455.66666666666663</ele><time>2026-04-18T11:41:00.769Z</time></trkpt><trkpt lat="42.692105" lon="11.555045"><ele>459.0</ele><time>2026-04-18T11:41:01.766Z</time></trkpt><trkpt lat="42.6922383" lon="11.5552183"><ele>457.33333333333337</ele><time>2026-04-18T11:41:02.769Z</time></trkpt><trkpt lat="42.6923833" lon="11.5553767"><ele>455.6666666666667</ele><time>2026-04-18T11:41:03.768Z</time></trkpt><trkpt lat="42.6925267" lon="11.5555283"><ele>454.0</ele><time>2026-04-18T11:41:04.771Z</time></trkpt><trkpt lat="42.6926533" lon="11.5556833"><ele>457.6666666666667</ele><time>2026-04-18T11:41:05.768Z</time></trkpt><trkpt lat="42.6927617" lon="11.555865"><ele>461.33333333333337</ele><time>2026-04-18T11:41:06.767Z</time></trkpt><trkpt lat="42.69285" lon="11.5560733"><ele>465.0</ele><time>2026-04-18T11:41:07.766Z</time></trkpt><trkpt lat="42.6929283" lon="11.5562867"><ele>465.0</ele><time>2026-04-18T11:41:08.77Z</time></trkpt><trkpt lat="42.6929967" lon="11.5564933"><ele>465.0</ele><time>2026-04-18T11:41:09.768Z</time></trkpt><trkpt lat="42.6930783" lon="11.5566833"><ele>465.0</ele><time>2026-04-18T11:41:10.765Z</time></trkpt><trkpt lat="42.6931833" lon="11.55685"><ele>465.0</ele><time>2026-04-18T11:41:11.771Z</time></trkpt><trkpt lat="42.6933183" lon="11.5569817"><ele>465.0</ele><time>2026-04-18T11:41:12.77Z</time></trkpt><trkpt lat="42.6934833" lon="11.5570683"><ele>465.0</ele><time>2026-04-18T11:41:13.769Z</time></trkpt><trkpt lat="42.6936683" lon="11.5571217"><ele>465.0</ele><time>2026-04-18T11:41:14.773Z</time></trkpt><trkpt lat="42.69384" lon="11.5571683"><ele>465.0</ele><time>2026-04-18T11:41:15.77Z</time></trkpt><trkpt lat="42.6939967" lon="11.5571883"><ele>465.0</ele><time>2026-04-18T11:41:16.767Z</time></trkpt><trkpt lat="42.6941533" lon="11.5571483"><ele>465.0</ele><time>2026-04-18T11:41:17.766Z</time></trkpt><trkpt lat="42.6943" lon="11.5570667"><ele>465.0</ele><time>2026-04-18T11:41:18.77Z</time></trkpt><trkpt lat="42.694445" lon="11.556995"><ele>465.0</ele><time>2026-04-18T11:41:19.769Z</time></trkpt><trkpt lat="42.6945917" lon="11.5569667"><ele>466.66666666666663</ele><time>2026-04-18T11:41:20.772Z</time></trkpt><trkpt lat="42.694735" lon="11.5570083"><ele>468.3333333333333</ele><time>2026-04-18T11:41:21.768Z</time></trkpt><trkpt lat="42.6948817" lon="11.5571133"><ele>470.0</ele><time>2026-04-18T11:41:22.769Z</time></trkpt><trkpt lat="42.6950317" lon="11.5572583"><ele>470.3333333333333</ele><time>2026-04-18T11:41:23.769Z</time></trkpt><trkpt lat="42.6951567" lon="11.5574583"><ele>470.66666666666663</ele><time>2026-04-18T11:41:24.769Z</time></trkpt><trkpt lat="42.695275" lon="11.5576933"><ele>471.0</ele><time>2026-04-18T11:41:25.771Z</time></trkpt><trkpt lat="42.6953967" lon="11.5579467"><ele>472.0</ele><time>2026-04-18T11:41:26.772Z</time></trkpt><trkpt lat="42.69552" lon="11.5581983"><ele>473.0</ele><time>2026-04-18T11:41:27.77Z</time></trkpt><trkpt lat="42.6956433" lon="11.5584467"><ele>474.0</ele><time>2026-04-18T11:41:28.769Z</time></trkpt><trkpt lat="42.69576" lon="11.558675"><ele>474.33333333333337</ele><time>2026-04-18T11:41:29.767Z</time></trkpt><trkpt lat="42.69586" lon="11.5588833"><ele>474.6666666666667</ele><time>2026-04-18T11:41:30.771Z</time></trkpt><trkpt lat="42.6959567" lon="11.5590617"><ele>475.0</ele><time>2026-04-18T11:41:31.769Z</time></trkpt><trkpt lat="42.69606" lon="11.55919"><ele>477.33333333333337</ele><time>2026-04-18T11:41:32.768Z</time></trkpt><trkpt lat="42.69618" lon="11.5592633"><ele>479.66666666666663</ele><time>2026-04-18T11:41:33.768Z</time></trkpt><trkpt lat="42.6963317" lon="11.55928"><ele>482.0</ele><time>2026-04-18T11:41:34.77Z</time></trkpt><trkpt lat="42.6965167" lon="11.559265"><ele>482.0</ele><time>2026-04-18T11:41:35.77Z</time></trkpt><trkpt lat="42.6967117" lon="11.559255"><ele>482.0</ele><time>2026-04-18T11:41:36.769Z</time></trkpt><trkpt lat="42.6969083" lon="11.5592433"><ele>482.0</ele><time>2026-04-18T11:41:37.77Z</time></trkpt><trkpt lat="42.6970883" lon="11.5592367"><ele>482.0</ele><time>2026-04-18T11:41:38.768Z</time></trkpt><trkpt lat="42.697255" lon="11.5592483"><ele>482.0</ele><time>2026-04-18T11:41:39.769Z</time></trkpt><trkpt lat="42.6974167" lon="11.5593117"><ele>482.0</ele><time>2026-04-18T11:41:40.77Z</time></trkpt><trkpt lat="42.6975733" lon="11.5594267"><ele>485.3333333333333</ele><time>2026-04-18T11:41:41.771Z</time></trkpt><trkpt lat="42.697735" lon="11.559575"><ele>488.66666666666663</ele><time>2026-04-18T11:41:42.768Z</time></trkpt><trkpt lat="42.6978967" lon="11.55973"><ele>492.0</ele><time>2026-04-18T11:41:43.771Z</time></trkpt><trkpt lat="42.698055" lon="11.559875"><ele>492.0</ele><time>2026-04-18T11:41:44.77Z</time></trkpt><trkpt lat="42.6981917" lon="11.5600083"><ele>492.0</ele><time>2026-04-18T11:41:45.77Z</time></trkpt><trkpt lat="42.698305" lon="11.560155"><ele>492.0</ele><time>2026-04-18T11:41:46.763Z</time></trkpt><trkpt lat="42.6983933" lon="11.5603417"><ele>492.66666666666663</ele><time>2026-04-18T11:41:47.769Z</time></trkpt><trkpt lat="42.6984583" lon="11.5605617"><ele>493.3333333333333</ele><time>2026-04-18T11:41:48.771Z</time></trkpt><trkpt lat="42.6985017" lon="11.560805"><ele>494.0</ele><time>2026-04-18T11:41:49.769Z</time></trkpt><trkpt lat="42.6985333" lon="11.56104"><ele>494.3333333333333</ele><time>2026-04-18T11:41:50.771Z</time></trkpt><trkpt lat="42.6985567" lon="11.56126"><ele>494.66666666666663</ele><time>2026-04-18T11:41:51.767Z</time></trkpt><trkpt lat="42.6985583" lon="11.5614633"><ele>495.0</ele><time>2026-04-18T11:41:52.768Z</time></trkpt><trkpt lat="42.6985283" lon="11.5616567"><ele>495.0</ele><time>2026-04-18T11:41:53.766Z</time></trkpt><trkpt lat="42.6984567" lon="11.56184"><ele>495.0</ele><time>2026-04-18T11:41:54.772Z</time></trkpt><trkpt lat="42.6983733" lon="11.56201"><ele>495.0</ele><time>2026-04-18T11:41:55.769Z</time></trkpt><trkpt lat="42.69829" lon="11.5621517"><ele>495.0</ele><time>2026-04-18T11:41:56.769Z</time></trkpt><trkpt lat="42.6982433" lon="11.56229"><ele>495.0</ele><time>2026-04-18T11:41:57.77Z</time></trkpt><trkpt lat="42.698235" lon="11.5624267"><ele>495.0</ele><time>2026-04-18T11:41:58.765Z</time></trkpt><trkpt lat="42.6982767" lon="11.5625517"><ele>495.0</ele><time>2026-04-18T11:41:59.769Z</time></trkpt><trkpt lat="42.698375" lon="11.5626717"><ele>495.0</ele><time>2026-04-18T11:42:00.769Z</time></trkpt><trkpt lat="42.698485" lon="11.56279"><ele>494.0</ele><time>2026-04-18T11:42:01.77Z</time></trkpt><trkpt lat="42.6985917" lon="11.562915"><ele>493.0</ele><time>2026-04-18T11:42:02.773Z</time></trkpt><trkpt lat="42.6986717" lon="11.5630517"><ele>492.0</ele><time>2026-04-18T11:42:03.765Z</time></trkpt><trkpt lat="42.6987167" lon="11.5632067"><ele>491.0</ele><time>2026-04-18T11:42:04.77Z</time></trkpt><trkpt lat="42.6987383" lon="11.5633517"><ele>491.0</ele><time>2026-04-18T11:42:05.77Z</time></trkpt><trkpt lat="42.6987717" lon="11.563475"><ele>491.0</ele><time>2026-04-18T11:42:06.77Z</time></trkpt><trkpt lat="42.6988317" lon="11.56357"><ele>491.0</ele><time>2026-04-18T11:42:07.77Z</time></trkpt><trkpt lat="42.698925" lon="11.56363"><ele>491.0</ele><time>2026-04-18T11:42:08.771Z</time></trkpt><trkpt lat="42.6990533" lon="11.5636633"><ele>491.0</ele><time>2026-04-18T11:42:09.769Z</time></trkpt><trkpt lat="42.69918" lon="11.5637"><ele>491.5</ele><time>2026-04-18T11:42:10.77Z</time></trkpt><trkpt lat="42.699295" lon="11.5637567"><ele>492.0</ele><time>2026-04-18T11:42:11.769Z</time></trkpt><trkpt lat="42.6993933" lon="11.563845"><ele>492.5</ele><time>2026-04-18T11:42:12.769Z</time></trkpt><trkpt lat="42.6994867" lon="11.56395"><ele>493.0</ele><time>2026-04-18T11:42:13.767Z</time></trkpt><trkpt lat="42.6995733" lon="11.5640733"><ele>492.25</ele><time>2026-04-18T11:42:14.775Z</time></trkpt><trkpt lat="42.699655" lon="11.5642033"><ele>491.5</ele><time>2026-04-18T11:42:15.771Z</time></trkpt><trkpt lat="42.6997383" lon="11.564335"><ele>490.75</ele><time>2026-04-18T11:42:16.769Z</time></trkpt><trkpt lat="42.6998233" lon="11.5644633"><ele>490.0</ele><time>2026-04-18T11:42:17.769Z</time></trkpt><trkpt lat="42.6999083" lon="11.5645867"><ele>490.0</ele><time>2026-04-18T11:42:18.769Z</time></trkpt><trkpt lat="42.6999933" lon="11.5646967"><ele>490.0</ele><time>2026-04-18T11:42:19.77Z</time></trkpt><trkpt lat="42.7000833" lon="11.564785"><ele>490.0</ele><time>2026-04-18T11:42:20.771Z</time></trkpt><trkpt lat="42.7001717" lon="11.564845"><ele>490.0</ele><time>2026-04-18T11:42:21.769Z</time></trkpt><trkpt lat="42.7002617" lon="11.564865"><ele>490.0</ele><time>2026-04-18T11:42:22.772Z</time></trkpt><trkpt lat="42.7003417" lon="11.5648483"><ele>490.33333333333337</ele><time>2026-04-18T11:42:23.769Z</time></trkpt><trkpt lat="42.7004117" lon="11.564815"><ele>490.6666666666667</ele><time>2026-04-18T11:42:24.77Z</time></trkpt><trkpt lat="42.7004733" lon="11.5647817"><ele>491.0</ele><time>2026-04-18T11:42:25.769Z</time></trkpt><trkpt lat="42.7005383" lon="11.5647567"><ele>491.33333333333337</ele><time>2026-04-18T11:42:26.772Z</time></trkpt><trkpt lat="42.7006167" lon="11.5647283"><ele>491.6666666666667</ele><time>2026-04-18T11:42:27.769Z</time></trkpt><trkpt lat="42.7007067" lon="11.5647033"><ele>492.0</ele><time>2026-04-18T11:42:28.769Z</time></trkpt><trkpt lat="42.7008083" lon="11.564685"><ele>492.0</ele><time>2026-04-18T11:42:29.764Z</time></trkpt><trkpt lat="42.700915" lon="11.564665"><ele>492.0</ele><time>2026-04-18T11:42:30.773Z</time></trkpt><trkpt lat="42.70103" lon="11.5646517"><ele>492.0</ele><time>2026-04-18T11:42:31.769Z</time></trkpt><trkpt lat="42.7011567" lon="11.564635"><ele>492.0</ele><time>2026-04-18T11:42:32.772Z</time></trkpt><trkpt lat="42.7012867" lon="11.564605"><ele>492.25</ele><time>2026-04-18T11:42:33.769Z</time></trkpt><trkpt lat="42.7014183" lon="11.56455"><ele>492.5</ele><time>2026-04-18T11:42:34.77Z</time></trkpt><trkpt lat="42.70155" lon="11.5644667"><ele>492.75</ele><time>2026-04-18T11:42:35.77Z</time></trkpt><trkpt lat="42.7016767" lon="11.5643633"><ele>493.0</ele><time>2026-04-18T11:42:36.769Z</time></trkpt><trkpt lat="42.701805" lon="11.5642617"><ele>496.0</ele><time>2026-04-18T11:42:37.768Z</time></trkpt><trkpt lat="42.7019367" lon="11.5641667"><ele>499.0</ele><time>2026-04-18T11:42:38.769Z</time></trkpt><trkpt lat="42.70206" lon="11.5640733"><ele>502.0</ele><time>2026-04-18T11:42:39.765Z</time></trkpt><trkpt lat="42.7021733" lon="11.5639833"><ele>505.0</ele><time>2026-04-18T11:42:40.767Z</time></trkpt><trkpt lat="42.7022667" lon="11.5638833"><ele>505.0</ele><time>2026-04-18T11:42:41.769Z</time></trkpt><trkpt lat="42.7023317" lon="11.5637633"><ele>505.0</ele><time>2026-04-18T11:42:42.762Z</time></trkpt><trkpt lat="42.7023533" lon="11.5636083"><ele>505.0</ele><time>2026-04-18T11:42:43.77Z</time></trkpt><trkpt lat="42.70234" lon="11.563435"><ele>505.0</ele><time>2026-04-18T11:42:44.77Z</time></trkpt><trkpt lat="42.7023233" lon="11.5632667"><ele>504.8</ele><time>2026-04-18T11:42:45.77Z</time></trkpt><trkpt lat="42.7023217" lon="11.5631183"><ele>504.6</ele><time>2026-04-18T11:42:46.771Z</time></trkpt><trkpt lat="42.7023383" lon="11.5629883"><ele>504.4</ele><time>2026-04-18T11:42:47.765Z</time></trkpt><trkpt lat="42.7023883" lon="11.5628767"><ele>504.2</ele><time>2026-04-18T11:42:48.774Z</time></trkpt><trkpt lat="42.7024833" lon="11.562795"><ele>504.0</ele><time>2026-04-18T11:42:49.77Z</time></trkpt><trkpt lat="42.7026183" lon="11.5627567"><ele>505.33333333333337</ele><time>2026-04-18T11:42:50.772Z</time></trkpt><trkpt lat="42.7027617" lon="11.562725"><ele>506.6666666666667</ele><time>2026-04-18T11:42:51.768Z</time></trkpt><trkpt lat="42.702915" lon="11.562705"><ele>508.0</ele><time>2026-04-18T11:42:52.768Z</time></trkpt><trkpt lat="42.7030733" lon="11.56269"><ele>508.0</ele><time>2026-04-18T11:42:53.77Z</time></trkpt><trkpt lat="42.7032267" lon="11.562695"><ele>508.0</ele><time>2026-04-18T11:42:54.771Z</time></trkpt><trkpt lat="42.703385" lon="11.562715"><ele>508.0</ele><time>2026-04-18T11:42:55.769Z</time></trkpt><trkpt lat="42.7035317" lon="11.5627383"><ele>510.75</ele><time>2026-04-18T11:42:56.772Z</time></trkpt><trkpt lat="42.7036617" lon="11.562745"><ele>513.5</ele><time>2026-04-18T11:42:57.766Z</time></trkpt><trkpt lat="42.703785" lon="11.5627117"><ele>516.25</ele><time>2026-04-18T11:42:58.767Z</time></trkpt><trkpt lat="42.703895" lon="11.5626433"><ele>519.0</ele><time>2026-04-18T11:42:59.767Z</time></trkpt><trkpt lat="42.7039917" lon="11.5625333"><ele>519.0</ele><time>2026-04-18T11:43:00.769Z</time></trkpt><trkpt lat="42.7040533" lon="11.5623717"><ele>519.0</ele><time>2026-04-18T11:43:01.766Z</time></trkpt><trkpt lat="42.7040883" lon="11.5621983"><ele>519.0</ele><time>2026-04-18T11:43:02.77Z</time></trkpt><trkpt lat="42.7041317" lon="11.5620383"><ele>519.0</ele><time>2026-04-18T11:43:03.756Z</time></trkpt><trkpt lat="42.70421" lon="11.5618983"><ele>518.0</ele><time>2026-04-18T11:43:04.764Z</time></trkpt><trkpt lat="42.7043083" lon="11.5617567"><ele>517.0</ele><time>2026-04-18T11:43:05.766Z</time></trkpt><trkpt lat="42.7044" lon="11.561595"><ele>516.0</ele><time>2026-04-18T11:43:06.773Z</time></trkpt><trkpt lat="42.7044783" lon="11.5614167"><ele>515.0</ele><time>2026-04-18T11:43:07.765Z</time></trkpt><trkpt lat="42.70455" lon="11.56125"><ele>516.75</ele><time>2026-04-18T11:43:08.772Z</time></trkpt><trkpt lat="42.704635" lon="11.56111"><ele>518.5</ele><time>2026-04-18T11:43:09.769Z</time></trkpt><trkpt lat="42.7047383" lon="11.5609983"><ele>520.25</ele><time>2026-04-18T11:43:10.77Z</time></trkpt><trkpt lat="42.70487" lon="11.5609"><ele>522.0</ele><time>2026-04-18T11:43:11.769Z</time></trkpt><trkpt lat="42.70502" lon="11.5608033"><ele>522.0</ele><time>2026-04-18T11:43:12.769Z</time></trkpt><trkpt lat="42.7051867" lon="11.5607033"><ele>522.0</ele><time>2026-04-18T11:43:13.769Z</time></trkpt><trkpt lat="42.7053517" lon="11.5605967"><ele>522.0</ele><time>2026-04-18T11:43:14.773Z</time></trkpt><trkpt lat="42.7055167" lon="11.5604933"><ele>522.3333333333334</ele><time>2026-04-18T11:43:15.769Z</time></trkpt><trkpt lat="42.705675" lon="11.560385"><ele>522.6666666666667</ele><time>2026-04-18T11:43:16.77Z</time></trkpt><trkpt lat="42.70582" lon="11.560265"><ele>523.0</ele><time>2026-04-18T11:43:17.77Z</time></trkpt><trkpt lat="42.7059483" lon="11.560135"><ele>523.0</ele><time>2026-04-18T11:43:18.77Z</time></trkpt><trkpt lat="42.70606" lon="11.5600083"><ele>523.0</ele><time>2026-04-18T11:43:19.766Z</time></trkpt><trkpt lat="42.70616" lon="11.5599067"><ele>523.0</ele><time>2026-04-18T11:43:20.773Z</time></trkpt><trkpt lat="42.706255" lon="11.5598533"><ele>523.0</ele><time>2026-04-18T11:43:21.759Z</time></trkpt><trkpt lat="42.7063533" lon="11.5598417"><ele>524.6666666666667</ele><time>2026-04-18T11:43:22.77Z</time></trkpt><trkpt lat="42.7064667" lon="11.559875"><ele>526.3333333333334</ele><time>2026-04-18T11:43:23.768Z</time></trkpt><trkpt lat="42.7066083" lon="11.5599633"><ele>528.0</ele><time>2026-04-18T11:43:24.77Z</time></trkpt><trkpt lat="42.7067767" lon="11.5601183"><ele>527.0</ele><time>2026-04-18T11:43:25.77Z</time></trkpt><trkpt lat="42.7069417" lon="11.5602617"><ele>526.0</ele><time>2026-04-18T11:43:26.77Z</time></trkpt><trkpt lat="42.7071117" lon="11.56041"><ele>525.0</ele><time>2026-04-18T11:43:27.769Z</time></trkpt><trkpt lat="42.70728" lon="11.5605417"><ele>528.0</ele><time>2026-04-18T11:43:28.77Z</time></trkpt><trkpt lat="42.707445" lon="11.5606567"><ele>531.0</ele><time>2026-04-18T11:43:29.772Z</time></trkpt><trkpt lat="42.7076" lon="11.5607433"><ele>534.0</ele><time>2026-04-18T11:43:30.765Z</time></trkpt><trkpt lat="42.707765" lon="11.5608117"><ele>534.3333333333334</ele><time>2026-04-18T11:43:31.771Z</time></trkpt><trkpt lat="42.7079417" lon="11.56084"><ele>534.6666666666667</ele><time>2026-04-18T11:43:32.766Z</time></trkpt><trkpt lat="42.7081283" lon="11.5608383"><ele>535.0</ele><time>2026-04-18T11:43:33.771Z</time></trkpt><trkpt lat="42.7083317" lon="11.56082"><ele>535.0</ele><time>2026-04-18T11:43:34.77Z</time></trkpt><trkpt lat="42.7085567" lon="11.560785"><ele>535.0</ele><time>2026-04-18T11:43:35.771Z</time></trkpt><trkpt lat="42.70879" lon="11.5607417"><ele>537.5</ele><time>2026-04-18T11:43:36.772Z</time></trkpt><trkpt lat="42.7090217" lon="11.5607033"><ele>540.0</ele><time>2026-04-18T11:43:37.769Z</time></trkpt><trkpt lat="42.70924" lon="11.560665"><ele>541.0</ele><time>2026-04-18T11:43:38.767Z</time></trkpt><trkpt lat="42.7094433" lon="11.5606267"><ele>542.0</ele><time>2026-04-18T11:43:39.77Z</time></trkpt><trkpt lat="42.709625" lon="11.560595"><ele>543.0</ele><time>2026-04-18T11:43:40.771Z</time></trkpt><trkpt lat="42.7097883" lon="11.5605717"><ele>543.0</ele><time>2026-04-18T11:43:41.77Z</time></trkpt><trkpt lat="42.7099367" lon="11.5605683"><ele>543.0</ele><time>2026-04-18T11:43:42.769Z</time></trkpt><trkpt lat="42.7100667" lon="11.5605967"><ele>543.0</ele><time>2026-04-18T11:43:43.767Z</time></trkpt><trkpt lat="42.7101833" lon="11.5606583"><ele>543.0</ele><time>2026-04-18T11:43:44.767Z</time></trkpt><trkpt lat="42.71029" lon="11.5607417"><ele>542.25</ele><time>2026-04-18T11:43:45.769Z</time></trkpt><trkpt lat="42.7103833" lon="11.5608267"><ele>541.5</ele><time>2026-04-18T11:43:46.771Z</time></trkpt><trkpt lat="42.7104983" lon="11.560875"><ele>540.75</ele><time>2026-04-18T11:43:47.772Z</time></trkpt><trkpt lat="42.7106233" lon="11.5608833"><ele>540.0</ele><time>2026-04-18T11:43:48.769Z</time></trkpt><trkpt lat="42.7107483" lon="11.5608483"><ele>540.0</ele><time>2026-04-18T11:43:49.771Z</time></trkpt><trkpt lat="42.710865" lon="11.5607617"><ele>540.0</ele><time>2026-04-18T11:43:50.77Z</time></trkpt><trkpt lat="42.710965" lon="11.56063"><ele>540.0</ele><time>2026-04-18T11:43:51.77Z</time></trkpt><trkpt lat="42.7110683" lon="11.5604883"><ele>540.0</ele><time>2026-04-18T11:43:52.769Z</time></trkpt><trkpt lat="42.71119" lon="11.5603617"><ele>537.3333333333334</ele><time>2026-04-18T11:43:53.77Z</time></trkpt><trkpt lat="42.7113417" lon="11.5602533"><ele>534.6666666666667</ele><time>2026-04-18T11:43:54.77Z</time></trkpt><trkpt lat="42.711505" lon="11.5601483"><ele>532.0</ele><time>2026-04-18T11:43:55.769Z</time></trkpt><trkpt lat="42.71168" lon="11.56005"><ele>532.0</ele><time>2026-04-18T11:43:56.77Z</time></trkpt><trkpt lat="42.7118583" lon="11.5599433"><ele>532.0</ele><time>2026-04-18T11:43:57.769Z</time></trkpt><trkpt lat="42.7120317" lon="11.55982"><ele>532.0</ele><time>2026-04-18T11:43:58.765Z</time></trkpt><trkpt lat="42.712195" lon="11.5596733"><ele>529.3333333333334</ele><time>2026-04-18T11:43:59.767Z</time></trkpt><trkpt lat="42.7123483" lon="11.5595217"><ele>526.6666666666666</ele><time>2026-04-18T11:44:00.766Z</time></trkpt><trkpt lat="42.7124933" lon="11.5593833"><ele>524.0</ele><time>2026-04-18T11:44:01.769Z</time></trkpt><trkpt lat="42.7126333" lon="11.5592667"><ele>530.0</ele><time>2026-04-18T11:44:02.77Z</time></trkpt><trkpt lat="42.712775" lon="11.55917"><ele>536.0</ele><time>2026-04-18T11:44:03.769Z</time></trkpt><trkpt lat="42.7129017" lon="11.5590417"><ele>542.0</ele><time>2026-04-18T11:44:04.765Z</time></trkpt><trkpt lat="42.7130217" lon="11.5588883"><ele>542.0</ele><time>2026-04-18T11:44:05.765Z</time></trkpt><trkpt lat="42.7131283" lon="11.5587317"><ele>542.0</ele><time>2026-04-18T11:44:06.768Z</time></trkpt><trkpt lat="42.7132267" lon="11.5585883"><ele>542.0</ele><time>2026-04-18T11:44:07.766Z</time></trkpt><trkpt lat="42.713335" lon="11.5584633"><ele>542.0</ele><time>2026-04-18T11:44:08.771Z</time></trkpt><trkpt lat="42.7134467" lon="11.5583433"><ele>539.75</ele><time>2026-04-18T11:44:09.766Z</time></trkpt><trkpt lat="42.7135683" lon="11.55825"><ele>537.5</ele><time>2026-04-18T11:44:10.77Z</time></trkpt><trkpt lat="42.7136983" lon="11.5581483"><ele>535.25</ele><time>2026-04-18T11:44:11.765Z</time></trkpt><trkpt lat="42.71383" lon="11.558055"><ele>533.0</ele><time>2026-04-18T11:44:12.769Z</time></trkpt><trkpt lat="42.7139767" lon="11.5579683"><ele>533.0</ele><time>2026-04-18T11:44:13.769Z</time></trkpt><trkpt lat="42.714125" lon="11.557875"><ele>533.0</ele><time>2026-04-18T11:44:14.766Z</time></trkpt><trkpt lat="42.7142717" lon="11.5577967"><ele>533.0</ele><time>2026-04-18T11:44:15.766Z</time></trkpt><trkpt lat="42.7144117" lon="11.5577383"><ele>529.5</ele><time>2026-04-18T11:44:16.765Z</time></trkpt><trkpt lat="42.7145483" lon="11.5577033"><ele>526.0</ele><time>2026-04-18T11:44:17.768Z</time></trkpt><trkpt lat="42.7146683" lon="11.5576683"><ele>522.5</ele><time>2026-04-18T11:44:18.767Z</time></trkpt><trkpt lat="42.7147683" lon="11.557585"><ele>519.0</ele><time>2026-04-18T11:44:19.769Z</time></trkpt><trkpt lat="42.714845" lon="11.55745"><ele>519.0</ele><time>2026-04-18T11:44:20.77Z</time></trkpt><trkpt lat="42.714905" lon="11.5572867"><ele>519.0</ele><time>2026-04-18T11:44:21.768Z</time></trkpt><trkpt lat="42.714935" lon="11.55709"><ele>519.0</ele><time>2026-04-18T11:44:22.764Z</time></trkpt><trkpt lat="42.7149417" lon="11.5568583"><ele>517.3333333333334</ele><time>2026-04-18T11:44:23.772Z</time></trkpt><trkpt lat="42.7149383" lon="11.556625"><ele>515.6666666666667</ele><time>2026-04-18T11:44:24.769Z</time></trkpt><trkpt lat="42.7149283" lon="11.5563817"><ele>514.0</ele><time>2026-04-18T11:44:25.766Z</time></trkpt><trkpt lat="42.71494" lon="11.556155"><ele>514.0</ele><time>2026-04-18T11:44:26.772Z</time></trkpt><trkpt lat="42.7149733" lon="11.5559517"><ele>514.0</ele><time>2026-04-18T11:44:27.771Z</time></trkpt><trkpt lat="42.7150233" lon="11.5557467"><ele>514.0</ele><time>2026-04-18T11:44:28.765Z</time></trkpt><trkpt lat="42.7150833" lon="11.555535"><ele>513.0</ele><time>2026-04-18T11:44:29.771Z</time></trkpt><trkpt lat="42.7151567" lon="11.5553317"><ele>512.0</ele><time>2026-04-18T11:44:30.769Z</time></trkpt><trkpt lat="42.71525" lon="11.5551367"><ele>511.0</ele><time>2026-04-18T11:44:31.77Z</time></trkpt><trkpt lat="42.7153483" lon="11.554945"><ele>513.75</ele><time>2026-04-18T11:44:32.769Z</time></trkpt><trkpt lat="42.715445" lon="11.5547767"><ele>516.5</ele><time>2026-04-18T11:44:33.771Z</time></trkpt><trkpt lat="42.7155267" lon="11.5546117"><ele>519.25</ele><time>2026-04-18T11:44:34.771Z</time></trkpt><trkpt lat="42.7155933" lon="11.554435"><ele>522.0</ele><time>2026-04-18T11:44:35.769Z</time></trkpt><trkpt lat="42.7156367" lon="11.5542433"><ele>522.0</ele><time>2026-04-18T11:44:36.771Z</time></trkpt><trkpt lat="42.7156783" lon="11.55405"><ele>522.0</ele><time>2026-04-18T11:44:37.771Z</time></trkpt><trkpt lat="42.715735" lon="11.5538717"><ele>522.0</ele><time>2026-04-18T11:44:38.77Z</time></trkpt><trkpt lat="42.7158067" lon="11.5537333"><ele>522.0</ele><time>2026-04-18T11:44:39.77Z</time></trkpt><trkpt lat="42.7158883" lon="11.5536217"><ele>521.8000000000001</ele><time>2026-04-18T11:44:40.768Z</time></trkpt><trkpt lat="42.7159567" lon="11.553505"><ele>521.6</ele><time>2026-04-18T11:44:41.772Z</time></trkpt><trkpt lat="42.7159883" lon="11.553365"><ele>521.4000000000001</ele><time>2026-04-18T11:44:42.772Z</time></trkpt><trkpt lat="42.71595" lon="11.553235"><ele>521.2</ele><time>2026-04-18T11:44:43.771Z</time></trkpt><trkpt lat="42.71587" lon="11.5531333"><ele>521.0</ele><time>2026-04-18T11:44:44.77Z</time></trkpt><trkpt lat="42.71574" lon="11.5530717"><ele>521.0</ele><time>2026-04-18T11:44:45.77Z</time></trkpt><trkpt lat="42.7155817" lon="11.553035"><ele>521.0</ele><time>2026-04-18T11:44:46.768Z</time></trkpt><trkpt lat="42.7154217" lon="11.55301"><ele>521.0</ele><time>2026-04-18T11:44:47.771Z</time></trkpt><trkpt lat="42.7152867" lon="11.5529733"><ele>521.6666666666666</ele><time>2026-04-18T11:44:48.768Z</time></trkpt><trkpt lat="42.7151567" lon="11.552885"><ele>522.3333333333334</ele><time>2026-04-18T11:44:49.77Z</time></trkpt><trkpt lat="42.7150583" lon="11.552745"><ele>523.0</ele><time>2026-04-18T11:44:50.773Z</time></trkpt><trkpt lat="42.7149733" lon="11.552535"><ele>523.0</ele><time>2026-04-18T11:44:51.768Z</time></trkpt><trkpt lat="42.7149" lon="11.552315"><ele>523.0</ele><time>2026-04-18T11:44:52.766Z</time></trkpt><trkpt lat="42.7148083" lon="11.5521033"><ele>523.0</ele><time>2026-04-18T11:44:53.767Z</time></trkpt><trkpt lat="42.7146933" lon="11.55191"><ele>523.6666666666667</ele><time>2026-04-18T11:44:54.77Z</time></trkpt><trkpt lat="42.7145533" lon="11.5517267"><ele>524.3333333333334</ele><time>2026-04-18T11:44:55.769Z</time></trkpt><trkpt lat="42.7143967" lon="11.55155"><ele>525.0</ele><time>2026-04-18T11:44:56.769Z</time></trkpt><trkpt lat="42.714255" lon="11.5513983"><ele>525.0</ele><time>2026-04-18T11:44:57.769Z</time></trkpt><trkpt lat="42.71411" lon="11.5512883"><ele>525.0</ele><time>2026-04-18T11:44:58.769Z</time></trkpt><trkpt lat="42.7139467" lon="11.5512317"><ele>525.0</ele><time>2026-04-18T11:44:59.769Z</time></trkpt><trkpt lat="42.7137783" lon="11.55122"><ele>525.0</ele><time>2026-04-18T11:45:00.77Z</time></trkpt><trkpt lat="42.7136067" lon="11.5512417"><ele>525.0</ele><time>2026-04-18T11:45:01.769Z</time></trkpt><trkpt lat="42.7134467" lon="11.55126"><ele>525.0</ele><time>2026-04-18T11:45:02.77Z</time></trkpt><trkpt lat="42.71331" lon="11.5512783"><ele>525.2</ele><time>2026-04-18T11:45:03.77Z</time></trkpt><trkpt lat="42.7132067" lon="11.5512683"><ele>525.4</ele><time>2026-04-18T11:45:04.77Z</time></trkpt><trkpt lat="42.713145" lon="11.5512133"><ele>525.6</ele><time>2026-04-18T11:45:05.771Z</time></trkpt><trkpt lat="42.713085" lon="11.5511533"><ele>525.8</ele><time>2026-04-18T11:45:06.76Z</time></trkpt><trkpt lat="42.7130417" lon="11.551025"><ele>526.0</ele><time>2026-04-18T11:45:07.771Z</time></trkpt><trkpt lat="42.7130483" lon="11.5508317"><ele>528.3333333333334</ele><time>2026-04-18T11:45:08.769Z</time></trkpt><trkpt lat="42.7130467" lon="11.5505733"><ele>530.6666666666666</ele><time>2026-04-18T11:45:09.765Z</time></trkpt><trkpt lat="42.7130967" lon="11.550265"><ele>533.0</ele><time>2026-04-18T11:45:10.764Z</time></trkpt><trkpt lat="42.71314" lon="11.54987"><ele>535.0</ele><time>2026-04-18T11:45:11.766Z</time></trkpt><trkpt lat="42.7131683" lon="11.54954"><ele>537.0</ele><time>2026-04-18T11:45:12.77Z</time></trkpt><trkpt lat="42.7131783" lon="11.5492733"><ele>539.0</ele><time>2026-04-18T11:45:13.769Z</time></trkpt><trkpt lat="42.7131767" lon="11.5490467"><ele>539.0</ele><time>2026-04-18T11:45:14.773Z</time></trkpt><trkpt lat="42.713155" lon="11.548845"><ele>539.0</ele><time>2026-04-18T11:45:15.767Z</time></trkpt><trkpt lat="42.7131067" lon="11.54866"><ele>539.0</ele><time>2026-04-18T11:45:16.766Z</time></trkpt><trkpt lat="42.7130167" lon="11.548485"><ele>537.0</ele><time>2026-04-18T11:45:17.771Z</time></trkpt><trkpt lat="42.7129067" lon="11.5483367"><ele>535.0</ele><time>2026-04-18T11:45:18.768Z</time></trkpt><trkpt lat="42.7127517" lon="11.548235"><ele>533.0</ele><time>2026-04-18T11:45:19.771Z</time></trkpt><trkpt lat="42.7125933" lon="11.54812"><ele>533.0</ele><time>2026-04-18T11:45:20.772Z</time></trkpt><trkpt lat="42.7124367" lon="11.54799"><ele>533.0</ele><time>2026-04-18T11:45:21.769Z</time></trkpt><trkpt lat="42.71231" lon="11.5478633"><ele>533.0</ele><time>2026-04-18T11:45:22.767Z</time></trkpt><trkpt lat="42.712215" lon="11.5477333"><ele>536.5</ele><time>2026-04-18T11:45:23.767Z</time></trkpt><trkpt lat="42.7121533" lon="11.547595"><ele>540.0</ele><time>2026-04-18T11:45:24.773Z</time></trkpt><trkpt lat="42.7121433" lon="11.54742"><ele>543.5</ele><time>2026-04-18T11:45:25.77Z</time></trkpt><trkpt lat="42.7121683" lon="11.5472217"><ele>547.0</ele><time>2026-04-18T11:45:26.771Z</time></trkpt><trkpt lat="42.7122317" lon="11.547015"><ele>547.0</ele><time>2026-04-18T11:45:27.768Z</time></trkpt><trkpt lat="42.7123117" lon="11.546795"><ele>547.0</ele><time>2026-04-18T11:45:28.768Z</time></trkpt><trkpt lat="42.7123867" lon="11.5465733"><ele>547.0</ele><time>2026-04-18T11:45:29.766Z</time></trkpt><trkpt lat="42.7124733" lon="11.5463633"><ele>543.6666666666667</ele><time>2026-04-18T11:45:30.769Z</time></trkpt><trkpt lat="42.7125733" lon="11.5461717"><ele>540.3333333333334</ele><time>2026-04-18T11:45:31.77Z</time></trkpt><trkpt lat="42.7126833" lon="11.5459983"><ele>537.0</ele><time>2026-04-18T11:45:32.771Z</time></trkpt><trkpt lat="42.71278" lon="11.545825"><ele>543.0</ele><time>2026-04-18T11:45:33.768Z</time></trkpt><trkpt lat="42.7128433" lon="11.5456317"><ele>549.0</ele><time>2026-04-18T11:45:34.766Z</time></trkpt><trkpt lat="42.712875" lon="11.5454"><ele>555.0</ele><time>2026-04-18T11:45:35.77Z</time></trkpt><trkpt lat="42.7128783" lon="11.5451483"><ele>555.0</ele><time>2026-04-18T11:45:36.77Z</time></trkpt><trkpt lat="42.7128767" lon="11.544885"><ele>555.0</ele><time>2026-04-18T11:45:37.772Z</time></trkpt><trkpt lat="42.712875" lon="11.5446333"><ele>555.0</ele><time>2026-04-18T11:45:38.771Z</time></trkpt><trkpt lat="42.71287" lon="11.5444067"><ele>555.25</ele><time>2026-04-18T11:45:39.765Z</time></trkpt><trkpt lat="42.712875" lon="11.544205"><ele>555.5</ele><time>2026-04-18T11:45:40.768Z</time></trkpt><trkpt lat="42.7129" lon="11.54403"><ele>555.75</ele><time>2026-04-18T11:45:41.768Z</time></trkpt><trkpt lat="42.7129633" lon="11.5438833"><ele>556.0</ele><time>2026-04-18T11:45:42.771Z</time></trkpt><trkpt lat="42.7130683" lon="11.5437583"><ele>553.6666666666667</ele><time>2026-04-18T11:45:43.769Z</time></trkpt><trkpt lat="42.7132" lon="11.543645"><ele>551.3333333333334</ele><time>2026-04-18T11:45:44.772Z</time></trkpt><trkpt lat="42.7133333" lon="11.5435183"><ele>549.0</ele><time>2026-04-18T11:45:45.77Z</time></trkpt><trkpt lat="42.713445" lon="11.5433533"><ele>549.0</ele><time>2026-04-18T11:45:46.771Z</time></trkpt><trkpt lat="42.7135367" lon="11.5431567"><ele>549.0</ele><time>2026-04-18T11:45:47.769Z</time></trkpt><trkpt lat="42.7136083" lon="11.542935"><ele>549.0</ele><time>2026-04-18T11:45:48.768Z</time></trkpt><trkpt lat="42.7136533" lon="11.5426967"><ele>549.3333333333334</ele><time>2026-04-18T11:45:49.77Z</time></trkpt><trkpt lat="42.7136683" lon="11.542455"><ele>549.6666666666667</ele><time>2026-04-18T11:45:50.771Z</time></trkpt><trkpt lat="42.7136733" lon="11.54223"><ele>550.0</ele><time>2026-04-18T11:45:51.771Z</time></trkpt><trkpt lat="42.7136817" lon="11.54203"><ele>550.0</ele><time>2026-04-18T11:45:52.769Z</time></trkpt><trkpt lat="42.713705" lon="11.5418733"><ele>550.0</ele><time>2026-04-18T11:45:53.767Z</time></trkpt><trkpt lat="42.7137617" lon="11.5417283"><ele>550.0</ele><time>2026-04-18T11:45:54.771Z</time></trkpt><trkpt lat="42.7138517" lon="11.5415967"><ele>550.0</ele><time>2026-04-18T11:45:55.769Z</time></trkpt><trkpt lat="42.7139617" lon="11.541455"><ele>550.0</ele><time>2026-04-18T11:45:56.772Z</time></trkpt><trkpt lat="42.7140683" lon="11.54129"><ele>550.0</ele><time>2026-04-18T11:45:57.771Z</time></trkpt><trkpt lat="42.7141667" lon="11.5411133"><ele>550.0</ele><time>2026-04-18T11:45:58.767Z</time></trkpt><trkpt lat="42.7142583" lon="11.540935"><ele>548.75</ele><time>2026-04-18T11:45:59.77Z</time></trkpt><trkpt lat="42.714345" lon="11.5407733"><ele>547.5</ele><time>2026-04-18T11:46:00.77Z</time></trkpt><trkpt lat="42.7144317" lon="11.5406517"><ele>546.25</ele><time>2026-04-18T11:46:01.771Z</time></trkpt><trkpt lat="42.7145283" lon="11.5405817"><ele>545.0</ele><time>2026-04-18T11:46:02.772Z</time></trkpt><trkpt lat="42.7146283" lon="11.5405617"><ele>544.75</ele><time>2026-04-18T11:46:03.767Z</time></trkpt><trkpt lat="42.71474" lon="11.5405833"><ele>544.5</ele><time>2026-04-18T11:46:04.769Z</time></trkpt><trkpt lat="42.7148683" lon="11.54066"><ele>544.25</ele><time>2026-04-18T11:46:05.766Z</time></trkpt><trkpt lat="42.7150117" lon="11.54072"><ele>544.0</ele><time>2026-04-18T11:46:06.769Z</time></trkpt><trkpt lat="42.7151533" lon="11.5407233"><ele>546.6666666666667</ele><time>2026-04-18T11:46:07.77Z</time></trkpt><trkpt lat="42.7152983" lon="11.54068"><ele>549.3333333333334</ele><time>2026-04-18T11:46:08.771Z</time></trkpt><trkpt lat="42.715455" lon="11.5406"><ele>552.0</ele><time>2026-04-18T11:46:09.767Z</time></trkpt><trkpt lat="42.7156133" lon="11.540505"><ele>552.0</ele><time>2026-04-18T11:46:10.767Z</time></trkpt><trkpt lat="42.7157667" lon="11.5404217"><ele>552.0</ele><time>2026-04-18T11:46:11.77Z</time></trkpt><trkpt lat="42.7159283" lon="11.540365"><ele>552.0</ele><time>2026-04-18T11:46:12.77Z</time></trkpt><trkpt lat="42.7161033" lon="11.540335"><ele>546.6666666666666</ele><time>2026-04-18T11:46:13.77Z</time></trkpt><trkpt lat="42.7162767" lon="11.5403217"><ele>541.3333333333333</ele><time>2026-04-18T11:46:14.772Z</time></trkpt><trkpt lat="42.7164583" lon="11.5403283"><ele>536.0</ele><time>2026-04-18T11:46:15.769Z</time></trkpt><trkpt lat="42.7166367" lon="11.5403367"><ele>536.0</ele><time>2026-04-18T11:46:16.77Z</time></trkpt><trkpt lat="42.716815" lon="11.5403433"><ele>536.0</ele><time>2026-04-18T11:46:17.767Z</time></trkpt><trkpt lat="42.7169883" lon="11.54036"><ele>536.0</ele><time>2026-04-18T11:46:18.769Z</time></trkpt><trkpt lat="42.7171617" lon="11.540405"><ele>543.0</ele><time>2026-04-18T11:46:19.766Z</time></trkpt><trkpt lat="42.717335" lon="11.540475"><ele>550.0</ele><time>2026-04-18T11:46:20.764Z</time></trkpt><trkpt lat="42.7174983" lon="11.5405367"><ele>557.0</ele><time>2026-04-18T11:46:21.767Z</time></trkpt><trkpt lat="42.7176483" lon="11.5406033"><ele>553.6666666666666</ele><time>2026-04-18T11:46:22.757Z</time></trkpt><trkpt lat="42.717805" lon="11.5406533"><ele>550.3333333333334</ele><time>2026-04-18T11:46:23.767Z</time></trkpt><trkpt lat="42.7179733" lon="11.54068"><ele>547.0</ele><time>2026-04-18T11:46:24.771Z</time></trkpt><trkpt lat="42.7181567" lon="11.5406933"><ele>547.0</ele><time>2026-04-18T11:46:25.767Z</time></trkpt><trkpt lat="42.7183367" lon="11.5407133"><ele>547.0</ele><time>2026-04-18T11:46:26.769Z</time></trkpt><trkpt lat="42.7185267" lon="11.5407333"><ele>547.0</ele><time>2026-04-18T11:46:27.764Z</time></trkpt><trkpt lat="42.7187183" lon="11.54074"><ele>547.0</ele><time>2026-04-18T11:46:28.764Z</time></trkpt><trkpt lat="42.7189083" lon="11.5407333"><ele>547.0</ele><time>2026-04-18T11:46:29.764Z</time></trkpt><trkpt lat="42.7190867" lon="11.5407183"><ele>547.0</ele><time>2026-04-18T11:46:30.764Z</time></trkpt><trkpt lat="42.71927" lon="11.5407033"><ele>548.0</ele><time>2026-04-18T11:46:31.763Z</time></trkpt><trkpt lat="42.7194383" lon="11.540695"><ele>549.0</ele><time>2026-04-18T11:46:32.769Z</time></trkpt><trkpt lat="42.7196" lon="11.5406933"><ele>550.0</ele><time>2026-04-18T11:46:33.764Z</time></trkpt><trkpt lat="42.7197717" lon="11.54071"><ele>550.0</ele><time>2026-04-18T11:46:34.762Z</time></trkpt><trkpt lat="42.719945" lon="11.5407317"><ele>550.0</ele><time>2026-04-18T11:46:35.767Z</time></trkpt><trkpt lat="42.7201217" lon="11.540765"><ele>550.0</ele><time>2026-04-18T11:46:36.767Z</time></trkpt><trkpt lat="42.7203" lon="11.5407933"><ele>551.0</ele><time>2026-04-18T11:46:37.769Z</time></trkpt><trkpt lat="42.7204783" lon="11.5408117"><ele>552.0</ele><time>2026-04-18T11:46:38.764Z</time></trkpt><trkpt lat="42.72065" lon="11.5408117"><ele>553.0</ele><time>2026-04-18T11:46:39.765Z</time></trkpt><trkpt lat="42.7208133" lon="11.540805"><ele>553.0</ele><time>2026-04-18T11:46:40.767Z</time></trkpt><trkpt lat="42.7209667" lon="11.5407917"><ele>553.0</ele><time>2026-04-18T11:46:41.769Z</time></trkpt><trkpt lat="42.7211133" lon="11.5407517"><ele>553.0</ele><time>2026-04-18T11:46:42.764Z</time></trkpt><trkpt lat="42.7212467" lon="11.54065"><ele>551.25</ele><time>2026-04-18T11:46:43.768Z</time></trkpt><trkpt lat="42.7213667" lon="11.54055"><ele>549.5</ele><time>2026-04-18T11:46:44.772Z</time></trkpt><trkpt lat="42.72148" lon="11.5404267"><ele>547.75</ele><time>2026-04-18T11:46:45.769Z</time></trkpt><trkpt lat="42.7216" lon="11.54031"><ele>546.0</ele><time>2026-04-18T11:46:46.768Z</time></trkpt><trkpt lat="42.7217267" lon="11.5402117"><ele>546.0</ele><time>2026-04-18T11:46:47.768Z</time></trkpt><trkpt lat="42.7218567" lon="11.5401483"><ele>546.0</ele><time>2026-04-18T11:46:48.77Z</time></trkpt><trkpt lat="42.7220017" lon="11.5401167"><ele>546.0</ele><time>2026-04-18T11:46:49.768Z</time></trkpt><trkpt lat="42.7221483" lon="11.54011"><ele>546.0</ele><time>2026-04-18T11:46:50.766Z</time></trkpt><trkpt lat="42.7222883" lon="11.540125"><ele>547.0</ele><time>2026-04-18T11:46:51.767Z</time></trkpt><trkpt lat="42.7224217" lon="11.5401633"><ele>548.0</ele><time>2026-04-18T11:46:52.769Z</time></trkpt><trkpt lat="42.722545" lon="11.5402183"><ele>549.0</ele><time>2026-04-18T11:46:53.771Z</time></trkpt><trkpt lat="42.7226633" lon="11.5403"><ele>550.0</ele><time>2026-04-18T11:46:54.772Z</time></trkpt><trkpt lat="42.7227783" lon="11.5403933"><ele>550.75</ele><time>2026-04-18T11:46:55.763Z</time></trkpt><trkpt lat="42.722895" lon="11.5404883"><ele>551.5</ele><time>2026-04-18T11:46:56.773Z</time></trkpt><trkpt lat="42.7230283" lon="11.5405733"><ele>552.25</ele><time>2026-04-18T11:46:57.77Z</time></trkpt><trkpt lat="42.7231833" lon="11.54064"><ele>553.0</ele><time>2026-04-18T11:46:58.769Z</time></trkpt><trkpt lat="42.7233383" lon="11.5407017"><ele>553.0</ele><time>2026-04-18T11:46:59.761Z</time></trkpt><trkpt lat="42.7235017" lon="11.540765"><ele>553.0</ele><time>2026-04-18T11:47:00.772Z</time></trkpt><trkpt lat="42.723665" lon="11.5408267"><ele>553.0</ele><time>2026-04-18T11:47:01.769Z</time></trkpt><trkpt lat="42.7238267" lon="11.5408817"><ele>553.3333333333334</ele><time>2026-04-18T11:47:02.774Z</time></trkpt><trkpt lat="42.7239867" lon="11.54094"><ele>553.6666666666666</ele><time>2026-04-18T11:47:03.769Z</time></trkpt><trkpt lat="42.72414" lon="11.5409967"><ele>554.0</ele><time>2026-04-18T11:47:04.77Z</time></trkpt><trkpt lat="42.7242883" lon="11.5410533"><ele>554.5</ele><time>2026-04-18T11:47:05.767Z</time></trkpt><trkpt lat="42.7244383" lon="11.54111"><ele>555.0</ele><time>2026-04-18T11:47:06.769Z</time></trkpt><trkpt lat="42.7245767" lon="11.5411667"><ele>555.5</ele><time>2026-04-18T11:47:07.77Z</time></trkpt><trkpt lat="42.724705" lon="11.541225"><ele>556.0</ele><time>2026-04-18T11:47:08.772Z</time></trkpt><trkpt lat="42.7248183" lon="11.5412883"><ele>557.5</ele><time>2026-04-18T11:47:09.77Z</time></trkpt><trkpt lat="42.7249233" lon="11.5413733"><ele>559.0</ele><time>2026-04-18T11:47:10.77Z</time></trkpt><trkpt lat="42.7250133" lon="11.54148"><ele>560.5</ele><time>2026-04-18T11:47:11.769Z</time></trkpt><trkpt lat="42.7250867" lon="11.5416133"><ele>562.0</ele><time>2026-04-18T11:47:12.769Z</time></trkpt><trkpt lat="42.7251533" lon="11.54176"><ele>562.0</ele><time>2026-04-18T11:47:13.77Z</time></trkpt><trkpt lat="42.72522" lon="11.54191"><ele>562.0</ele><time>2026-04-18T11:47:14.773Z</time></trkpt><trkpt lat="42.7252967" lon="11.5420383"><ele>562.0</ele><time>2026-04-18T11:47:15.77Z</time></trkpt><trkpt lat="42.7253917" lon="11.5421267"><ele>562.0</ele><time>2026-04-18T11:47:16.769Z</time></trkpt><trkpt lat="42.725495" lon="11.5421883"><ele>564.2</ele><time>2026-04-18T11:47:17.769Z</time></trkpt><trkpt lat="42.7255983" lon="11.5422183"><ele>566.4000000000001</ele><time>2026-04-18T11:47:18.77Z</time></trkpt><trkpt lat="42.725705" lon="11.5422083"><ele>568.5999999999999</ele><time>2026-04-18T11:47:19.77Z</time></trkpt><trkpt lat="42.7258117" lon="11.5421767"><ele>570.8</ele><time>2026-04-18T11:47:20.768Z</time></trkpt><trkpt lat="42.7259117" lon="11.5421233"><ele>573.0</ele><time>2026-04-18T11:47:21.77Z</time></trkpt><trkpt lat="42.72601" lon="11.5420567"><ele>572.75</ele><time>2026-04-18T11:47:22.768Z</time></trkpt><trkpt lat="42.7261133" lon="11.541985"><ele>572.5</ele><time>2026-04-18T11:47:23.771Z</time></trkpt><trkpt lat="42.7262167" lon="11.5419183"><ele>572.25</ele><time>2026-04-18T11:47:24.771Z</time></trkpt><trkpt lat="42.7263183" lon="11.5418533"><ele>572.0</ele><time>2026-04-18T11:47:25.766Z</time></trkpt><trkpt lat="42.7264183" lon="11.5417933"><ele>572.0</ele><time>2026-04-18T11:47:26.771Z</time></trkpt><trkpt lat="42.7265217" lon="11.5417333"><ele>572.0</ele><time>2026-04-18T11:47:27.769Z</time></trkpt><trkpt lat="42.7266233" lon="11.5416767"><ele>572.0</ele><time>2026-04-18T11:47:28.764Z</time></trkpt><trkpt lat="42.7267267" lon="11.5416233"><ele>572.0</ele><time>2026-04-18T11:47:29.771Z</time></trkpt><trkpt lat="42.7268233" lon="11.5415633"><ele>572.0</ele><time>2026-04-18T11:47:30.765Z</time></trkpt><trkpt lat="42.7269167" lon="11.5415017"><ele>573.0</ele><time>2026-04-18T11:47:31.77Z</time></trkpt><trkpt lat="42.7270167" lon="11.5414533"><ele>574.0</ele><time>2026-04-18T11:47:32.771Z</time></trkpt><trkpt lat="42.7271167" lon="11.5414317"><ele>575.0</ele><time>2026-04-18T11:47:33.77Z</time></trkpt><trkpt lat="42.7272233" lon="11.54143"><ele>576.0</ele><time>2026-04-18T11:47:34.769Z</time></trkpt><trkpt lat="42.727335" lon="11.5414483"><ele>577.0</ele><time>2026-04-18T11:47:35.77Z</time></trkpt><trkpt lat="42.7274433" lon="11.5414983"><ele>577.0</ele><time>2026-04-18T11:47:36.77Z</time></trkpt><trkpt lat="42.72754" lon="11.5415683"><ele>577.0</ele><time>2026-04-18T11:47:37.77Z</time></trkpt><trkpt lat="42.7276417" lon="11.541615"><ele>577.0</ele><time>2026-04-18T11:47:38.771Z</time></trkpt><trkpt lat="42.72774" lon="11.541655"><ele>577.0</ele><time>2026-04-18T11:47:39.769Z</time></trkpt><trkpt lat="42.727835" lon="11.5417083"><ele>577.0</ele><time>2026-04-18T11:47:40.764Z</time></trkpt><trkpt lat="42.7279167" lon="11.541755"><ele>577.3333333333334</ele><time>2026-04-18T11:47:41.771Z</time></trkpt><trkpt lat="42.7279983" lon="11.5417933"><ele>577.6666666666667</ele><time>2026-04-18T11:47:42.763Z</time></trkpt><trkpt lat="42.7280683" lon="11.541825"><ele>578.0</ele><time>2026-04-18T11:47:43.768Z</time></trkpt><trkpt lat="42.7281683" lon="11.5418833"><ele>578.3333333333334</ele><time>2026-04-18T11:47:45.763Z</time></trkpt><trkpt lat="42.7282067" lon="11.5419867"><ele>578.6666666666666</ele><time>2026-04-18T11:47:48.768Z</time></trkpt><trkpt lat="42.7282683" lon="11.542015"><ele>579.0</ele><time>2026-04-18T11:47:51.769Z</time></trkpt><trkpt lat="42.72837" lon="11.5419717"><ele>579.0</ele><time>2026-04-18T11:47:53.768Z</time></trkpt><trkpt lat="42.7284367" lon="11.5419333"><ele>579.0</ele><time>2026-04-18T11:47:54.771Z</time></trkpt><trkpt lat="42.7285067" lon="11.5418917"><ele>579.0</ele><time>2026-04-18T11:47:55.769Z</time></trkpt><trkpt lat="42.72858" lon="11.5418567"><ele>579.0</ele><time>2026-04-18T11:47:56.77Z</time></trkpt><trkpt lat="42.728655" lon="11.5418183"><ele>579.0</ele><time>2026-04-18T11:47:57.77Z</time></trkpt><trkpt lat="42.7287317" lon="11.5417767"><ele>579.0</ele><time>2026-04-18T11:47:58.764Z</time></trkpt><trkpt lat="42.7288083" lon="11.5417383"><ele>580.1666666666666</ele><time>2026-04-18T11:47:59.77Z</time></trkpt><trkpt lat="42.7288933" lon="11.5417"><ele>581.3333333333334</ele><time>2026-04-18T11:48:00.771Z</time></trkpt><trkpt lat="42.7289733" lon="11.541655"><ele>582.5</ele><time>2026-04-18T11:48:01.769Z</time></trkpt><trkpt lat="42.7290517" lon="11.5416133"><ele>583.6666666666667</ele><time>2026-04-18T11:48:02.768Z</time></trkpt><trkpt lat="42.7291317" lon="11.5415717"><ele>584.8333333333334</ele><time>2026-04-18T11:48:03.772Z</time></trkpt><trkpt lat="42.7292083" lon="11.5415267"><ele>586.0</ele><time>2026-04-18T11:48:04.768Z</time></trkpt><trkpt lat="42.7292867" lon="11.54148"><ele>586.0</ele><time>2026-04-18T11:48:05.768Z</time></trkpt><trkpt lat="42.7293617" lon="11.54143"><ele>586.0</ele><time>2026-04-18T11:48:06.773Z</time></trkpt><trkpt lat="42.7294333" lon="11.54137"><ele>586.0</ele><time>2026-04-18T11:48:07.769Z</time></trkpt><trkpt lat="42.7295067" lon="11.5413083"><ele>586.0</ele><time>2026-04-18T11:48:08.771Z</time></trkpt><trkpt lat="42.729575" lon="11.5412433"><ele>586.0</ele><time>2026-04-18T11:48:09.77Z</time></trkpt><trkpt lat="42.7296467" lon="11.5411767"><ele>586.0</ele><time>2026-04-18T11:48:10.771Z</time></trkpt><trkpt lat="42.7297133" lon="11.5411017"><ele>586.8333333333334</ele><time>2026-04-18T11:48:11.77Z</time></trkpt><trkpt lat="42.729775" lon="11.5410217"><ele>587.6666666666667</ele><time>2026-04-18T11:48:12.766Z</time></trkpt><trkpt lat="42.72983" lon="11.540935"><ele>588.5</ele><time>2026-04-18T11:48:13.77Z</time></trkpt><trkpt lat="42.729875" lon="11.5408417"><ele>589.3333333333334</ele><time>2026-04-18T11:48:14.772Z</time></trkpt><trkpt lat="42.7299067" lon="11.5407517"><ele>590.1666666666666</ele><time>2026-04-18T11:48:15.769Z</time></trkpt><trkpt lat="42.7299317" lon="11.5406617"><ele>591.0</ele><time>2026-04-18T11:48:16.769Z</time></trkpt><trkpt lat="42.7299767" lon="11.5405183"><ele>591.0</ele><time>2026-04-18T11:48:18.769Z</time></trkpt><trkpt lat="42.7300217" lon="11.5404483"><ele>591.0</ele><time>2026-04-18T11:48:20.767Z</time></trkpt><trkpt lat="42.7300867" lon="11.5405083"><ele>591.0</ele><time>2026-04-18T11:48:23.76Z</time></trkpt><trkpt lat="42.7301117" lon="11.5406333"><ele>591.0</ele><time>2026-04-18T11:48:25.758Z</time></trkpt><trkpt lat="42.7301183" lon="11.5407433"><ele>591.0</ele><time>2026-04-18T11:48:26.769Z</time></trkpt><trkpt lat="42.730095" lon="11.54087"><ele>591.0</ele><time>2026-04-18T11:48:27.767Z</time></trkpt><trkpt lat="42.730085" lon="11.540975"><ele>591.0</ele><time>2026-04-18T11:48:28.769Z</time></trkpt><trkpt lat="42.730085" lon="11.5410867"><ele>591.0</ele><time>2026-04-18T11:48:29.766Z</time></trkpt><trkpt lat="42.730095" lon="11.5411783"><ele>591.0</ele><time>2026-04-18T11:48:30.772Z</time></trkpt><trkpt lat="42.73011" lon="11.5412633"><ele>591.0</ele><time>2026-04-18T11:48:31.765Z</time></trkpt><trkpt lat="42.73013" lon="11.541355"><ele>591.0</ele><time>2026-04-18T11:48:32.772Z</time></trkpt><trkpt lat="42.7301517" lon="11.5414467"><ele>591.0</ele><time>2026-04-18T11:48:33.768Z</time></trkpt><trkpt lat="42.7301733" lon="11.5415433"><ele>591.0</ele><time>2026-04-18T11:48:34.764Z</time></trkpt><trkpt lat="42.730195" lon="11.5416383"><ele>591.1428571428571</ele><time>2026-04-18T11:48:35.768Z</time></trkpt><trkpt lat="42.7302133" lon="11.5417333"><ele>591.2857142857143</ele><time>2026-04-18T11:48:36.77Z</time></trkpt><trkpt lat="42.73023" lon="11.5418267"><ele>591.4285714285714</ele><time>2026-04-18T11:48:37.765Z</time></trkpt><trkpt lat="42.730245" lon="11.54194"><ele>591.5714285714286</ele><time>2026-04-18T11:48:38.771Z</time></trkpt><trkpt lat="42.7302567" lon="11.5420517"><ele>591.7142857142857</ele><time>2026-04-18T11:48:39.77Z</time></trkpt><trkpt lat="42.7302633" lon="11.5421417"><ele>591.8571428571429</ele><time>2026-04-18T11:48:40.77Z</time></trkpt><trkpt lat="42.7302567" lon="11.5422367"><ele>592.0</ele><time>2026-04-18T11:48:41.77Z</time></trkpt><trkpt lat="42.7302417" lon="11.5423317"><ele>592.1428571428571</ele><time>2026-04-18T11:48:42.77Z</time></trkpt><trkpt lat="42.7302317" lon="11.542425"><ele>592.2857142857142</ele><time>2026-04-18T11:48:43.765Z</time></trkpt><trkpt lat="42.73022" lon="11.5425183"><ele>592.4285714285713</ele><time>2026-04-18T11:48:44.772Z</time></trkpt><trkpt lat="42.7302033" lon="11.5426117"><ele>592.5714285714286</ele><time>2026-04-18T11:48:45.77Z</time></trkpt><trkpt lat="42.730175" lon="11.5427"><ele>592.7142857142857</ele><time>2026-04-18T11:48:46.767Z</time></trkpt><trkpt lat="42.7301417" lon="11.5427917"><ele>592.8571428571428</ele><time>2026-04-18T11:48:47.772Z</time></trkpt><trkpt lat="42.7301033" lon="11.542885"><ele>593.0</ele><time>2026-04-18T11:48:48.77Z</time></trkpt><trkpt lat="42.73006" lon="11.5429767"><ele>591.5</ele><time>2026-04-18T11:48:49.771Z</time></trkpt><trkpt lat="42.7300117" lon="11.543055"><ele>590.0</ele><time>2026-04-18T11:48:50.769Z</time></trkpt><trkpt lat="42.729965" lon="11.5431367"><ele>588.5</ele><time>2026-04-18T11:48:51.771Z</time></trkpt><trkpt lat="42.72992" lon="11.5432283"><ele>587.0</ele><time>2026-04-18T11:48:52.769Z</time></trkpt><trkpt lat="42.729875" lon="11.543315"><ele>585.5</ele><time>2026-04-18T11:48:53.77Z</time></trkpt><trkpt lat="42.7298283" lon="11.5434"><ele>584.0</ele><time>2026-04-18T11:48:54.77Z</time></trkpt><trkpt lat="42.7297833" lon="11.5434883"><ele>584.0</ele><time>2026-04-18T11:48:55.765Z</time></trkpt><trkpt lat="42.729735" lon="11.5435767"><ele>584.0</ele><time>2026-04-18T11:48:56.765Z</time></trkpt><trkpt lat="42.7296817" lon="11.54366"><ele>584.0</ele><time>2026-04-18T11:48:57.77Z</time></trkpt><trkpt lat="42.7296283" lon="11.543735"><ele>584.0</ele><time>2026-04-18T11:48:58.762Z</time></trkpt><trkpt lat="42.72957" lon="11.5438033"><ele>584.0</ele><time>2026-04-18T11:48:59.768Z</time></trkpt><trkpt lat="42.7295067" lon="11.543865"><ele>584.0</ele><time>2026-04-18T11:49:00.769Z</time></trkpt><trkpt lat="42.72944" lon="11.5439217"><ele>584.8333333333333</ele><time>2026-04-18T11:49:01.769Z</time></trkpt><trkpt lat="42.729375" lon="11.5439833"><ele>585.6666666666666</ele><time>2026-04-18T11:49:02.77Z</time></trkpt><trkpt lat="42.7293033" lon="11.5440433"><ele>586.5</ele><time>2026-04-18T11:49:03.765Z</time></trkpt><trkpt lat="42.729235" lon="11.5441017"><ele>587.3333333333334</ele><time>2026-04-18T11:49:04.765Z</time></trkpt><trkpt lat="42.7291633" lon="11.544155"><ele>588.1666666666667</ele><time>2026-04-18T11:49:05.769Z</time></trkpt><trkpt lat="42.729095" lon="11.54421"><ele>589.0</ele><time>2026-04-18T11:49:06.768Z</time></trkpt><trkpt lat="42.729025" lon="11.54425"><ele>589.0</ele><time>2026-04-18T11:49:07.768Z</time></trkpt><trkpt lat="42.7289517" lon="11.5442983"><ele>589.0</ele><time>2026-04-18T11:49:08.769Z</time></trkpt><trkpt lat="42.72888" lon="11.5443467"><ele>589.0</ele><time>2026-04-18T11:49:09.764Z</time></trkpt><trkpt lat="42.7288083" lon="11.5444"><ele>589.0</ele><time>2026-04-18T11:49:10.77Z</time></trkpt><trkpt lat="42.7287417" lon="11.5444583"><ele>589.0</ele><time>2026-04-18T11:49:11.77Z</time></trkpt><trkpt lat="42.7286767" lon="11.5445167"><ele>589.0</ele><time>2026-04-18T11:49:12.764Z</time></trkpt><trkpt lat="42.72861" lon="11.5445833"><ele>587.5</ele><time>2026-04-18T11:49:13.771Z</time></trkpt><trkpt lat="42.7285433" lon="11.54464"><ele>586.0</ele><time>2026-04-18T11:49:14.77Z</time></trkpt><trkpt lat="42.7284733" lon="11.544705"><ele>584.5</ele><time>2026-04-18T11:49:15.769Z</time></trkpt><trkpt lat="42.7284017" lon="11.5447783"><ele>583.0</ele><time>2026-04-18T11:49:16.767Z</time></trkpt><trkpt lat="42.7283317" lon="11.544845"><ele>581.5</ele><time>2026-04-18T11:49:17.765Z</time></trkpt><trkpt lat="42.7282683" lon="11.5449117"><ele>580.0</ele><time>2026-04-18T11:49:18.77Z</time></trkpt><trkpt lat="42.7282067" lon="11.5449717"><ele>580.0</ele><time>2026-04-18T11:49:19.767Z</time></trkpt><trkpt lat="42.728145" lon="11.5450217"><ele>580.0</ele><time>2026-04-18T11:49:20.771Z</time></trkpt><trkpt lat="42.7280917" lon="11.5450717"><ele>580.0</ele><time>2026-04-18T11:49:21.769Z</time></trkpt><trkpt lat="42.7279917" lon="11.54517"><ele>580.0</ele><time>2026-04-18T11:49:23.77Z</time></trkpt><trkpt lat="42.72794" lon="11.5452217"><ele>580.0</ele><time>2026-04-18T11:49:24.772Z</time></trkpt><trkpt lat="42.7278417" lon="11.5453033"><ele>580.0</ele><time>2026-04-18T11:49:26.773Z</time></trkpt><trkpt lat="42.72777" lon="11.5453533"><ele>579.3333333333334</ele><time>2026-04-18T11:49:28.768Z</time></trkpt><trkpt lat="42.7277167" lon="11.5454367"><ele>578.6666666666667</ele><time>2026-04-18T11:49:43.769Z</time></trkpt><trkpt lat="42.72768" lon="11.545565"><ele>578.0</ele><time>2026-04-18T11:49:45.769Z</time></trkpt><trkpt lat="42.7276517" lon="11.5456633"><ele>577.3333333333334</ele><time>2026-04-18T11:49:46.77Z</time></trkpt><trkpt lat="42.7276133" lon="11.5457633"><ele>576.6666666666666</ele><time>2026-04-18T11:49:47.77Z</time></trkpt><trkpt lat="42.72757" lon="11.5458733"><ele>576.0</ele><time>2026-04-18T11:49:48.77Z</time></trkpt><trkpt lat="42.72752" lon="11.5459967"><ele>576.0</ele><time>2026-04-18T11:49:49.768Z</time></trkpt><trkpt lat="42.727475" lon="11.5461183"><ele>576.0</ele><time>2026-04-18T11:49:50.768Z</time></trkpt><trkpt lat="42.7274317" lon="11.54625"><ele>576.0</ele><time>2026-04-18T11:49:51.768Z</time></trkpt><trkpt lat="42.72739" lon="11.546395"><ele>576.0</ele><time>2026-04-18T11:49:52.767Z</time></trkpt><trkpt lat="42.7273633" lon="11.546545"><ele>576.0</ele><time>2026-04-18T11:49:53.77Z</time></trkpt><trkpt lat="42.7273533" lon="11.5467067"><ele>575.75</ele><time>2026-04-18T11:49:54.771Z</time></trkpt><trkpt lat="42.72736" lon="11.5468767"><ele>575.5</ele><time>2026-04-18T11:49:55.767Z</time></trkpt><trkpt lat="42.7273817" lon="11.5470533"><ele>575.25</ele><time>2026-04-18T11:49:56.772Z</time></trkpt><trkpt lat="42.7274067" lon="11.5472267"><ele>575.0</ele><time>2026-04-18T11:49:57.769Z</time></trkpt><trkpt lat="42.7274267" lon="11.5474033"><ele>575.0</ele><time>2026-04-18T11:49:58.765Z</time></trkpt><trkpt lat="42.7274333" lon="11.5475767"><ele>575.0</ele><time>2026-04-18T11:49:59.77Z</time></trkpt><trkpt lat="42.7274083" lon="11.5477467"><ele>575.0</ele><time>2026-04-18T11:50:00.767Z</time></trkpt><trkpt lat="42.727355" lon="11.54791"><ele>575.0</ele><time>2026-04-18T11:50:01.769Z</time></trkpt><trkpt lat="42.7272667" lon="11.5480633"><ele>573.25</ele><time>2026-04-18T11:50:02.77Z</time></trkpt><trkpt lat="42.7271617" lon="11.548205"><ele>571.5</ele><time>2026-04-18T11:50:03.77Z</time></trkpt><trkpt lat="42.7270617" lon="11.5483433"><ele>569.75</ele><time>2026-04-18T11:50:04.768Z</time></trkpt><trkpt lat="42.72699" lon="11.5485"><ele>568.0</ele><time>2026-04-18T11:50:05.766Z</time></trkpt><trkpt lat="42.7269567" lon="11.5486817"><ele>566.0</ele><time>2026-04-18T11:50:06.77Z</time></trkpt><trkpt lat="42.7269783" lon="11.54887"><ele>564.0</ele><time>2026-04-18T11:50:07.769Z</time></trkpt><trkpt lat="42.727035" lon="11.5490567"><ele>562.0</ele><time>2026-04-18T11:50:08.772Z</time></trkpt><trkpt lat="42.727085" lon="11.549245"><ele>560.0</ele><time>2026-04-18T11:50:09.77Z</time></trkpt><trkpt lat="42.7271183" lon="11.5494367"><ele>560.5</ele><time>2026-04-18T11:50:10.769Z</time></trkpt><trkpt lat="42.7271033" lon="11.5496267"><ele>561.0</ele><time>2026-04-18T11:50:11.769Z</time></trkpt><trkpt lat="42.7270433" lon="11.5498083"><ele>561.5</ele><time>2026-04-18T11:50:12.773Z</time></trkpt><trkpt lat="42.726955" lon="11.5499883"><ele>562.0</ele><time>2026-04-18T11:50:13.771Z</time></trkpt><trkpt lat="42.7268317" lon="11.5501417"><ele>564.0</ele><time>2026-04-18T11:50:14.768Z</time></trkpt><trkpt lat="42.7267033" lon="11.55028"><ele>566.0</ele><time>2026-04-18T11:50:15.771Z</time></trkpt><trkpt lat="42.7266117" lon="11.550425"><ele>568.0</ele><time>2026-04-18T11:50:16.769Z</time></trkpt><trkpt lat="42.7265683" lon="11.5505717"><ele>570.0</ele><time>2026-04-18T11:50:17.77Z</time></trkpt><trkpt lat="42.7265733" lon="11.5507117"><ele>570.0</ele><time>2026-04-18T11:50:18.771Z</time></trkpt><trkpt lat="42.7266267" lon="11.5508183"><ele>570.0</ele><time>2026-04-18T11:50:19.771Z</time></trkpt><trkpt lat="42.7267267" lon="11.5508783"><ele>570.0</ele><time>2026-04-18T11:50:20.772Z</time></trkpt><trkpt lat="42.7268617" lon="11.5509017"><ele>570.0</ele><time>2026-04-18T11:50:21.771Z</time></trkpt><trkpt lat="42.727005" lon="11.5509"><ele>569.75</ele><time>2026-04-18T11:50:22.77Z</time></trkpt><trkpt lat="42.72714" lon="11.55092"><ele>569.5</ele><time>2026-04-18T11:50:23.769Z</time></trkpt><trkpt lat="42.7272817" lon="11.550965"><ele>569.25</ele><time>2026-04-18T11:50:24.773Z</time></trkpt><trkpt lat="42.7274217" lon="11.5510533"><ele>569.0</ele><time>2026-04-18T11:50:25.769Z</time></trkpt><trkpt lat="42.7275467" lon="11.5511817"><ele>572.0</ele><time>2026-04-18T11:50:26.77Z</time></trkpt><trkpt lat="42.727655" lon="11.551355"><ele>575.0</ele><time>2026-04-18T11:50:27.768Z</time></trkpt><trkpt lat="42.7277583" lon="11.5515633"><ele>578.0</ele><time>2026-04-18T11:50:28.77Z</time></trkpt><trkpt lat="42.7278617" lon="11.551755"><ele>578.0</ele><time>2026-04-18T11:50:29.77Z</time></trkpt><trkpt lat="42.72796" lon="11.551935"><ele>578.0</ele><time>2026-04-18T11:50:30.771Z</time></trkpt><trkpt lat="42.7280633" lon="11.5520967"><ele>578.0</ele><time>2026-04-18T11:50:31.768Z</time></trkpt><trkpt lat="42.7281867" lon="11.552235"><ele>580.3333333333333</ele><time>2026-04-18T11:50:32.772Z</time></trkpt><trkpt lat="42.7283167" lon="11.5523067"><ele>582.6666666666666</ele><time>2026-04-18T11:50:33.77Z</time></trkpt><trkpt lat="42.7284633" lon="11.5522783"><ele>585.0</ele><time>2026-04-18T11:50:34.769Z</time></trkpt><trkpt lat="42.728605" lon="11.5521133"><ele>588.0</ele><time>2026-04-18T11:50:35.767Z</time></trkpt><trkpt lat="42.728705" lon="11.5519317"><ele>591.0</ele><time>2026-04-18T11:50:36.773Z</time></trkpt><trkpt lat="42.72874" lon="11.5517267"><ele>594.0</ele><time>2026-04-18T11:50:37.771Z</time></trkpt><trkpt lat="42.72872" lon="11.5514833"><ele>594.0</ele><time>2026-04-18T11:50:38.77Z</time></trkpt><trkpt lat="42.7287417" lon="11.55126"><ele>594.0</ele><time>2026-04-18T11:50:39.769Z</time></trkpt><trkpt lat="42.7288067" lon="11.5510533"><ele>594.0</ele><time>2026-04-18T11:50:40.77Z</time></trkpt><trkpt lat="42.72894" lon="11.5508933"><ele>595.3333333333334</ele><time>2026-04-18T11:50:41.771Z</time></trkpt><trkpt lat="42.729105" lon="11.5507583"><ele>596.6666666666667</ele><time>2026-04-18T11:50:42.772Z</time></trkpt><trkpt lat="42.7292883" lon="11.5506267"><ele>598.0</ele><time>2026-04-18T11:50:43.77Z</time></trkpt><trkpt lat="42.729485" lon="11.5505"><ele>593.3333333333334</ele><time>2026-04-18T11:50:44.77Z</time></trkpt><trkpt lat="42.7296567" lon="11.5503733"><ele>588.6666666666666</ele><time>2026-04-18T11:50:45.769Z</time></trkpt><trkpt lat="42.7298117" lon="11.550265"><ele>584.0</ele><time>2026-04-18T11:50:46.77Z</time></trkpt><trkpt lat="42.7299767" lon="11.5501983"><ele>584.0</ele><time>2026-04-18T11:50:47.769Z</time></trkpt><trkpt lat="42.730145" lon="11.5501833"><ele>584.0</ele><time>2026-04-18T11:50:48.766Z</time></trkpt><trkpt lat="42.73032" lon="11.5502317"><ele>584.0</ele><time>2026-04-18T11:50:49.766Z</time></trkpt><trkpt lat="42.730495" lon="11.5503217"><ele>588.6666666666666</ele><time>2026-04-18T11:50:50.77Z</time></trkpt><trkpt lat="42.730675" lon="11.550405"><ele>593.3333333333334</ele><time>2026-04-18T11:50:51.77Z</time></trkpt><trkpt lat="42.7308533" lon="11.55046"><ele>598.0</ele><time>2026-04-18T11:50:52.77Z</time></trkpt><trkpt lat="42.73103" lon="11.55051"><ele>596.3333333333334</ele><time>2026-04-18T11:50:53.766Z</time></trkpt><trkpt lat="42.7312017" lon="11.550575"><ele>594.6666666666666</ele><time>2026-04-18T11:50:54.766Z</time></trkpt><trkpt lat="42.731375" lon="11.5506717"><ele>593.0</ele><time>2026-04-18T11:50:55.767Z</time></trkpt><trkpt lat="42.731545" lon="11.5508083"><ele>593.0</ele><time>2026-04-18T11:50:56.771Z</time></trkpt><trkpt lat="42.7317" lon="11.5509733"><ele>593.0</ele><time>2026-04-18T11:50:57.77Z</time></trkpt><trkpt lat="42.7318367" lon="11.5511733"><ele>593.0</ele><time>2026-04-18T11:50:58.765Z</time></trkpt><trkpt lat="42.7319683" lon="11.55137"><ele>592.5</ele><time>2026-04-18T11:50:59.771Z</time></trkpt><trkpt lat="42.7320783" lon="11.5515617"><ele>592.0</ele><time>2026-04-18T11:51:00.77Z</time></trkpt><trkpt lat="42.732165" lon="11.5517267"><ele>591.5</ele><time>2026-04-18T11:51:01.771Z</time></trkpt><trkpt lat="42.732215" lon="11.5518717"><ele>591.0</ele><time>2026-04-18T11:51:02.771Z</time></trkpt><trkpt lat="42.7322217" lon="11.5520167"><ele>591.75</ele><time>2026-04-18T11:51:03.771Z</time></trkpt><trkpt lat="42.73219" lon="11.5521683"><ele>592.5</ele><time>2026-04-18T11:51:04.768Z</time></trkpt><trkpt lat="42.7321" lon="11.552325"><ele>593.25</ele><time>2026-04-18T11:51:05.77Z</time></trkpt><trkpt lat="42.73198" lon="11.5524917"><ele>594.0</ele><time>2026-04-18T11:51:06.771Z</time></trkpt><trkpt lat="42.7318717" lon="11.5526817"><ele>596.3333333333334</ele><time>2026-04-18T11:51:07.769Z</time></trkpt><trkpt lat="42.7318383" lon="11.5529017"><ele>598.6666666666667</ele><time>2026-04-18T11:51:08.771Z</time></trkpt><trkpt lat="42.7318683" lon="11.5531533"><ele>601.0</ele><time>2026-04-18T11:51:09.766Z</time></trkpt><trkpt lat="42.7319283" lon="11.5534233"><ele>601.0</ele><time>2026-04-18T11:51:10.766Z</time></trkpt><trkpt lat="42.7319733" lon="11.5536717"><ele>601.0</ele><time>2026-04-18T11:51:11.77Z</time></trkpt><trkpt lat="42.7320167" lon="11.5538867"><ele>601.0</ele><time>2026-04-18T11:51:12.77Z</time></trkpt><trkpt lat="42.7320833" lon="11.5540667"><ele>604.6666666666667</ele><time>2026-04-18T11:51:13.77Z</time></trkpt><trkpt lat="42.732185" lon="11.5541867"><ele>608.3333333333334</ele><time>2026-04-18T11:51:14.771Z</time></trkpt><trkpt lat="42.7323383" lon="11.5542383"><ele>612.0</ele><time>2026-04-18T11:51:15.769Z</time></trkpt><trkpt lat="42.7325333" lon="11.554235"><ele>611.6666666666666</ele><time>2026-04-18T11:51:16.77Z</time></trkpt><trkpt lat="42.73275" lon="11.5542017"><ele>611.3333333333333</ele><time>2026-04-18T11:51:17.769Z</time></trkpt><trkpt lat="42.7329633" lon="11.5541583"><ele>611.0</ele><time>2026-04-18T11:51:18.764Z</time></trkpt><trkpt lat="42.7331717" lon="11.5540983"><ele>611.0</ele><time>2026-04-18T11:51:19.768Z</time></trkpt><trkpt lat="42.7333617" lon="11.5540467"><ele>611.0</ele><time>2026-04-18T11:51:20.769Z</time></trkpt><trkpt lat="42.7335267" lon="11.5540283"><ele>611.0</ele><time>2026-04-18T11:51:21.768Z</time></trkpt><trkpt lat="42.7336633" lon="11.5540617"><ele>611.5</ele><time>2026-04-18T11:51:22.763Z</time></trkpt><trkpt lat="42.7337667" lon="11.55414"><ele>612.0</ele><time>2026-04-18T11:51:23.767Z</time></trkpt><trkpt lat="42.7338283" lon="11.5542817"><ele>612.5</ele><time>2026-04-18T11:51:24.77Z</time></trkpt><trkpt lat="42.733845" lon="11.5544783"><ele>613.0</ele><time>2026-04-18T11:51:25.768Z</time></trkpt><trkpt lat="42.7338517" lon="11.5546833"><ele>613.0</ele><time>2026-04-18T11:51:26.768Z</time></trkpt><trkpt lat="42.733885" lon="11.5548833"><ele>613.0</ele><time>2026-04-18T11:51:27.765Z</time></trkpt><trkpt lat="42.7339667" lon="11.5550767"><ele>613.0</ele><time>2026-04-18T11:51:28.763Z</time></trkpt><trkpt lat="42.7340833" lon="11.555255"><ele>612.3333333333334</ele><time>2026-04-18T11:51:29.768Z</time></trkpt><trkpt lat="42.7342267" lon="11.5554033"><ele>611.6666666666666</ele><time>2026-04-18T11:51:30.768Z</time></trkpt><trkpt lat="42.7343967" lon="11.555515"><ele>611.0</ele><time>2026-04-18T11:51:31.767Z</time></trkpt><trkpt lat="42.7345683" lon="11.5555833"><ele>611.0</ele><time>2026-04-18T11:51:32.77Z</time></trkpt><trkpt lat="42.7347383" lon="11.5556567"><ele>611.0</ele><time>2026-04-18T11:51:33.77Z</time></trkpt><trkpt lat="42.7349" lon="11.555765"><ele>611.0</ele><time>2026-04-18T11:51:34.767Z</time></trkpt><trkpt lat="42.7350633" lon="11.55591"><ele>611.0</ele><time>2026-04-18T11:51:35.77Z</time></trkpt><trkpt lat="42.7352183" lon="11.5560867"><ele>611.0</ele><time>2026-04-18T11:51:36.77Z</time></trkpt><trkpt lat="42.7353567" lon="11.5562883"><ele>611.0</ele><time>2026-04-18T11:51:37.77Z</time></trkpt><trkpt lat="42.7354817" lon="11.5565033"><ele>610.3333333333333</ele><time>2026-04-18T11:51:38.773Z</time></trkpt><trkpt lat="42.735615" lon="11.5567033"><ele>609.6666666666666</ele><time>2026-04-18T11:51:39.77Z</time></trkpt><trkpt lat="42.73577" lon="11.5568817"><ele>609.0</ele><time>2026-04-18T11:51:40.766Z</time></trkpt><trkpt lat="42.7359367" lon="11.557035"><ele>609.0</ele><time>2026-04-18T11:51:41.772Z</time></trkpt><trkpt lat="42.736115" lon="11.5571733"><ele>609.0</ele><time>2026-04-18T11:51:42.77Z</time></trkpt><trkpt lat="42.7362933" lon="11.557315"><ele>609.0</ele><time>2026-04-18T11:51:43.77Z</time></trkpt><trkpt lat="42.73647" lon="11.557455"><ele>609.0</ele><time>2026-04-18T11:51:44.773Z</time></trkpt><trkpt lat="42.73665" lon="11.557595"><ele>609.0</ele><time>2026-04-18T11:51:45.771Z</time></trkpt><trkpt lat="42.7368317" lon="11.5577367"><ele>609.0</ele><time>2026-04-18T11:51:46.772Z</time></trkpt><trkpt lat="42.7370133" lon="11.557885"><ele>610.0</ele><time>2026-04-18T11:51:47.772Z</time></trkpt><trkpt lat="42.7371983" lon="11.5580333"><ele>611.0</ele><time>2026-04-18T11:51:48.77Z</time></trkpt><trkpt lat="42.737385" lon="11.5581767"><ele>612.0</ele><time>2026-04-18T11:51:49.769Z</time></trkpt><trkpt lat="42.7375717" lon="11.5583217"><ele>612.0</ele><time>2026-04-18T11:51:50.771Z</time></trkpt><trkpt lat="42.73776" lon="11.5584683"><ele>612.0</ele><time>2026-04-18T11:51:51.769Z</time></trkpt><trkpt lat="42.73795" lon="11.5586117"><ele>612.0</ele><time>2026-04-18T11:51:52.769Z</time></trkpt><trkpt lat="42.7381367" lon="11.5587567"><ele>612.0</ele><time>2026-04-18T11:51:53.77Z</time></trkpt><trkpt lat="42.7383217" lon="11.5589067"><ele>612.0</ele><time>2026-04-18T11:51:54.772Z</time></trkpt><trkpt lat="42.7384967" lon="11.5590583"><ele>612.0</ele><time>2026-04-18T11:51:55.769Z</time></trkpt><trkpt lat="42.7386533" lon="11.5592117"><ele>614.6666666666666</ele><time>2026-04-18T11:51:56.771Z</time></trkpt><trkpt lat="42.7387933" lon="11.5593533"><ele>617.3333333333333</ele><time>2026-04-18T11:51:57.77Z</time></trkpt><trkpt lat="42.7389267" lon="11.55946"><ele>620.0</ele><time>2026-04-18T11:51:58.766Z</time></trkpt><trkpt lat="42.7390683" lon="11.5595283"><ele>620.0</ele><time>2026-04-18T11:51:59.771Z</time></trkpt><trkpt lat="42.7392233" lon="11.5595483"><ele>620.0</ele><time>2026-04-18T11:52:00.771Z</time></trkpt><trkpt lat="42.7393817" lon="11.5595233"><ele>620.0</ele><time>2026-04-18T11:52:01.769Z</time></trkpt><trkpt lat="42.7395367" lon="11.559485"><ele>620.25</ele><time>2026-04-18T11:52:02.773Z</time></trkpt><trkpt lat="42.7396833" lon="11.5594833"><ele>620.5</ele><time>2026-04-18T11:52:03.77Z</time></trkpt><trkpt lat="42.73982" lon="11.55953"><ele>620.75</ele><time>2026-04-18T11:52:04.77Z</time></trkpt><trkpt lat="42.7399467" lon="11.5596417"><ele>621.0</ele><time>2026-04-18T11:52:05.767Z</time></trkpt><trkpt lat="42.7400667" lon="11.5597883"><ele>620.3333333333334</ele><time>2026-04-18T11:52:06.772Z</time></trkpt><trkpt lat="42.740185" lon="11.5599633"><ele>619.6666666666667</ele><time>2026-04-18T11:52:07.769Z</time></trkpt><trkpt lat="42.7402883" lon="11.5601483"><ele>619.0</ele><time>2026-04-18T11:52:08.772Z</time></trkpt><trkpt lat="42.74038" lon="11.560325"><ele>618.5</ele><time>2026-04-18T11:52:09.767Z</time></trkpt><trkpt lat="42.7404733" lon="11.5604833"><ele>618.0</ele><time>2026-04-18T11:52:10.769Z</time></trkpt><trkpt lat="42.7405717" lon="11.5606083"><ele>617.5</ele><time>2026-04-18T11:52:11.769Z</time></trkpt><trkpt lat="42.7406833" lon="11.560695"><ele>617.0</ele><time>2026-04-18T11:52:12.769Z</time></trkpt><trkpt lat="42.7408067" lon="11.5607383"><ele>617.0</ele><time>2026-04-18T11:52:13.766Z</time></trkpt><trkpt lat="42.7409367" lon="11.5607367"><ele>617.0</ele><time>2026-04-18T11:52:14.77Z</time></trkpt><trkpt lat="42.7410817" lon="11.5606767"><ele>617.0</ele><time>2026-04-18T11:52:15.769Z</time></trkpt><trkpt lat="42.7412317" lon="11.5605917"><ele>617.0</ele><time>2026-04-18T11:52:16.768Z</time></trkpt><trkpt lat="42.7413917" lon="11.5605"><ele>617.3333333333333</ele><time>2026-04-18T11:52:17.771Z</time></trkpt><trkpt lat="42.7415583" lon="11.560415"><ele>617.6666666666666</ele><time>2026-04-18T11:52:18.771Z</time></trkpt><trkpt lat="42.741735" lon="11.560345"><ele>618.0</ele><time>2026-04-18T11:52:19.771Z</time></trkpt><trkpt lat="42.7419167" lon="11.5602933"><ele>620.6666666666666</ele><time>2026-04-18T11:52:20.772Z</time></trkpt><trkpt lat="42.7420967" lon="11.560255"><ele>623.3333333333333</ele><time>2026-04-18T11:52:21.767Z</time></trkpt><trkpt lat="42.742275" lon="11.56022"><ele>626.0</ele><time>2026-04-18T11:52:22.766Z</time></trkpt><trkpt lat="42.742455" lon="11.560185"><ele>626.0</ele><time>2026-04-18T11:52:23.771Z</time></trkpt><trkpt lat="42.742635" lon="11.560155"><ele>626.0</ele><time>2026-04-18T11:52:24.766Z</time></trkpt><trkpt lat="42.7428117" lon="11.5601267"><ele>626.0</ele><time>2026-04-18T11:52:25.767Z</time></trkpt><trkpt lat="42.7429933" lon="11.5601083"><ele>626.0</ele><time>2026-04-18T11:52:26.769Z</time></trkpt><trkpt lat="42.743175" lon="11.5600933"><ele>626.0</ele><time>2026-04-18T11:52:27.766Z</time></trkpt><trkpt lat="42.7433583" lon="11.56008"><ele>626.0</ele><time>2026-04-18T11:52:28.77Z</time></trkpt><trkpt lat="42.74354" lon="11.5600733"><ele>628.0</ele><time>2026-04-18T11:52:29.772Z</time></trkpt><trkpt lat="42.7437233" lon="11.5600733"><ele>630.0</ele><time>2026-04-18T11:52:30.769Z</time></trkpt><trkpt lat="42.7439117" lon="11.5600817"><ele>632.0</ele><time>2026-04-18T11:52:31.77Z</time></trkpt><trkpt lat="42.7441017" lon="11.5601"><ele>632.0</ele><time>2026-04-18T11:52:32.772Z</time></trkpt><trkpt lat="42.744285" lon="11.560135"><ele>632.0</ele><time>2026-04-18T11:52:33.769Z</time></trkpt><trkpt lat="42.74446" lon="11.5601717"><ele>632.0</ele><time>2026-04-18T11:52:34.769Z</time></trkpt><trkpt lat="42.7446267" lon="11.56022"><ele>632.75</ele><time>2026-04-18T11:52:35.762Z</time></trkpt><trkpt lat="42.7447733" lon="11.5602817"><ele>633.5</ele><time>2026-04-18T11:52:36.771Z</time></trkpt><trkpt lat="42.7449017" lon="11.5603567"><ele>634.25</ele><time>2026-04-18T11:52:37.773Z</time></trkpt><trkpt lat="42.7450167" lon="11.5604483"><ele>635.0</ele><time>2026-04-18T11:52:38.774Z</time></trkpt><trkpt lat="42.7451217" lon="11.560545"><ele>634.25</ele><time>2026-04-18T11:52:39.771Z</time></trkpt><trkpt lat="42.74522" lon="11.5606483"><ele>633.5</ele><time>2026-04-18T11:52:40.768Z</time></trkpt><trkpt lat="42.7453183" lon="11.5607617"><ele>632.75</ele><time>2026-04-18T11:52:41.77Z</time></trkpt><trkpt lat="42.745415" lon="11.5608817"><ele>632.0</ele><time>2026-04-18T11:52:42.77Z</time></trkpt><trkpt lat="42.7455067" lon="11.561015"><ele>632.0</ele><time>2026-04-18T11:52:43.77Z</time></trkpt><trkpt lat="42.745585" lon="11.5611717"><ele>632.0</ele><time>2026-04-18T11:52:44.773Z</time></trkpt><trkpt lat="42.74565" lon="11.56135"><ele>632.0</ele><time>2026-04-18T11:52:45.77Z</time></trkpt><trkpt lat="42.7457083" lon="11.56154"><ele>632.0</ele><time>2026-04-18T11:52:46.771Z</time></trkpt><trkpt lat="42.7457633" lon="11.5617433"><ele>632.0</ele><time>2026-04-18T11:52:47.77Z</time></trkpt><trkpt lat="42.745815" lon="11.5619533"><ele>632.0</ele><time>2026-04-18T11:52:48.769Z</time></trkpt><trkpt lat="42.74586" lon="11.562155"><ele>632.0</ele><time>2026-04-18T11:52:49.766Z</time></trkpt><trkpt lat="42.74591" lon="11.5623333"><ele>632.0</ele><time>2026-04-18T11:52:50.771Z</time></trkpt><trkpt lat="42.7459617" lon="11.5624883"><ele>632.0</ele><time>2026-04-18T11:52:51.767Z</time></trkpt><trkpt lat="42.746015" lon="11.56262"><ele>632.0</ele><time>2026-04-18T11:52:52.77Z</time></trkpt><trkpt lat="42.7460783" lon="11.5627267"><ele>632.0</ele><time>2026-04-18T11:52:53.771Z</time></trkpt><trkpt lat="42.746145" lon="11.5628"><ele>632.0</ele><time>2026-04-18T11:52:54.772Z</time></trkpt><trkpt lat="42.7462117" lon="11.56285"><ele>633.8333333333333</ele><time>2026-04-18T11:52:55.77Z</time></trkpt><trkpt lat="42.746275" lon="11.56288"><ele>635.6666666666666</ele><time>2026-04-18T11:52:56.771Z</time></trkpt><trkpt lat="42.74638" lon="11.5629117"><ele>637.5</ele><time>2026-04-18T11:52:58.766Z</time></trkpt><trkpt lat="42.74648" lon="11.5629"><ele>639.3333333333334</ele><time>2026-04-18T11:53:00.774Z</time></trkpt><trkpt lat="42.746535" lon="11.562855"><ele>641.1666666666667</ele><time>2026-04-18T11:53:01.766Z</time></trkpt><trkpt lat="42.7465883" lon="11.562795"><ele>643.0</ele><time>2026-04-18T11:53:02.773Z</time></trkpt><trkpt lat="42.7466417" lon="11.5626833"><ele>643.0</ele><time>2026-04-18T11:53:03.77Z</time></trkpt><trkpt lat="42.74671" lon="11.5625517"><ele>643.0</ele><time>2026-04-18T11:53:04.769Z</time></trkpt><trkpt lat="42.74679" lon="11.5624317"><ele>643.0</ele><time>2026-04-18T11:53:05.765Z</time></trkpt><trkpt lat="42.7468767" lon="11.5623633"><ele>643.0</ele><time>2026-04-18T11:53:06.771Z</time></trkpt><trkpt lat="42.7469717" lon="11.5623317"><ele>643.0</ele><time>2026-04-18T11:53:07.771Z</time></trkpt><trkpt lat="42.7470517" lon="11.5623617"><ele>647.5</ele><time>2026-04-18T11:53:08.771Z</time></trkpt><trkpt lat="42.747105" lon="11.5624417"><ele>652.0</ele><time>2026-04-18T11:53:09.771Z</time></trkpt><trkpt lat="42.7471017" lon="11.562595"><ele>656.5</ele><time>2026-04-18T11:53:10.769Z</time></trkpt><trkpt lat="42.7470667" lon="11.5627683"><ele>661.0</ele><time>2026-04-18T11:53:11.77Z</time></trkpt><trkpt lat="42.7469867" lon="11.5629583"><ele>661.0</ele><time>2026-04-18T11:53:12.769Z</time></trkpt><trkpt lat="42.74694" lon="11.5631217"><ele>661.0</ele><time>2026-04-18T11:53:13.773Z</time></trkpt><trkpt lat="42.746955" lon="11.5632983"><ele>661.0</ele><time>2026-04-18T11:53:14.773Z</time></trkpt><trkpt lat="42.7470133" lon="11.563475"><ele>661.0</ele><time>2026-04-18T11:53:15.771Z</time></trkpt><trkpt lat="42.7471067" lon="11.56362"><ele>661.0</ele><time>2026-04-18T11:53:16.77Z</time></trkpt><trkpt lat="42.7472" lon="11.5637133"><ele>661.0</ele><time>2026-04-18T11:53:17.765Z</time></trkpt><trkpt lat="42.7472983" lon="11.5637533"><ele>661.0</ele><time>2026-04-18T11:53:18.772Z</time></trkpt><trkpt lat="42.7473933" lon="11.5637333"><ele>661.0</ele><time>2026-04-18T11:53:19.77Z</time></trkpt><trkpt lat="42.7475017" lon="11.563585"><ele>661.0</ele><time>2026-04-18T11:53:20.771Z</time></trkpt><trkpt lat="42.7475883" lon="11.5633717"><ele>661.0</ele><time>2026-04-18T11:53:21.769Z</time></trkpt><trkpt lat="42.74764" lon="11.5631117"><ele>661.0</ele><time>2026-04-18T11:53:22.766Z</time></trkpt><trkpt lat="42.7476933" lon="11.5628167"><ele>666.3333333333334</ele><time>2026-04-18T11:53:23.77Z</time></trkpt><trkpt lat="42.7477483" lon="11.56257"><ele>671.6666666666666</ele><time>2026-04-18T11:53:24.772Z</time></trkpt><trkpt lat="42.7478067" lon="11.5623783"><ele>677.0</ele><time>2026-04-18T11:53:25.769Z</time></trkpt><trkpt lat="42.74788" lon="11.5622267"><ele>677.0</ele><time>2026-04-18T11:53:26.773Z</time></trkpt><trkpt lat="42.7479917" lon="11.5621117"><ele>677.0</ele><time>2026-04-18T11:53:27.77Z</time></trkpt><trkpt lat="42.7481417" lon="11.5620433"><ele>677.0</ele><time>2026-04-18T11:53:28.77Z</time></trkpt><trkpt lat="42.7482983" lon="11.562"><ele>677.75</ele><time>2026-04-18T11:53:29.761Z</time></trkpt><trkpt lat="42.74844" lon="11.5619833"><ele>678.5</ele><time>2026-04-18T11:53:30.771Z</time></trkpt><trkpt lat="42.7485683" lon="11.5620133"><ele>679.25</ele><time>2026-04-18T11:53:31.771Z</time></trkpt><trkpt lat="42.7486833" lon="11.5620983"><ele>680.0</ele><time>2026-04-18T11:53:32.771Z</time></trkpt><trkpt lat="42.74879" lon="11.5622417"><ele>680.0</ele><time>2026-04-18T11:53:33.766Z</time></trkpt><trkpt lat="42.7488867" lon="11.5624267"><ele>680.0</ele><time>2026-04-18T11:53:34.765Z</time></trkpt><trkpt lat="42.7489817" lon="11.562625"><ele>680.0</ele><time>2026-04-18T11:53:35.773Z</time></trkpt><trkpt lat="42.749085" lon="11.562835"><ele>682.6666666666666</ele><time>2026-04-18T11:53:36.769Z</time></trkpt><trkpt lat="42.749185" lon="11.563045"><ele>685.3333333333334</ele><time>2026-04-18T11:53:37.77Z</time></trkpt><trkpt lat="42.7492733" lon="11.5632483"><ele>688.0</ele><time>2026-04-18T11:53:38.772Z</time></trkpt><trkpt lat="42.7493333" lon="11.56344"><ele>689.4</ele><time>2026-04-18T11:53:39.77Z</time></trkpt><trkpt lat="42.74938" lon="11.5636067"><ele>690.8</ele><time>2026-04-18T11:53:40.769Z</time></trkpt><trkpt lat="42.7494383" lon="11.5637333"><ele>692.2</ele><time>2026-04-18T11:53:41.772Z</time></trkpt><trkpt lat="42.749515" lon="11.5638033"><ele>693.6</ele><time>2026-04-18T11:53:42.771Z</time></trkpt><trkpt lat="42.7496" lon="11.56383"><ele>695.0</ele><time>2026-04-18T11:53:43.769Z</time></trkpt><trkpt lat="42.7497233" lon="11.5637683"><ele>695.0</ele><time>2026-04-18T11:53:44.773Z</time></trkpt><trkpt lat="42.7498233" lon="11.5635933"><ele>695.0</ele><time>2026-04-18T11:53:45.772Z</time></trkpt><trkpt lat="42.7498967" lon="11.5634217"><ele>695.0</ele><time>2026-04-18T11:53:46.769Z</time></trkpt><trkpt lat="42.75" lon="11.563215"><ele>695.0</ele><time>2026-04-18T11:53:47.77Z</time></trkpt><trkpt lat="42.75012" lon="11.5630333"><ele>695.0</ele><time>2026-04-18T11:53:48.771Z</time></trkpt><trkpt lat="42.7502517" lon="11.5628783"><ele>695.0</ele><time>2026-04-18T11:53:49.771Z</time></trkpt><trkpt lat="42.7503883" lon="11.5627633"><ele>695.0</ele><time>2026-04-18T11:53:50.771Z</time></trkpt><trkpt lat="42.7505267" lon="11.5626867"><ele>695.0</ele><time>2026-04-18T11:53:51.769Z</time></trkpt><trkpt lat="42.7506583" lon="11.56266"><ele>695.0</ele><time>2026-04-18T11:53:52.769Z</time></trkpt><trkpt lat="42.7507717" lon="11.5627133"><ele>695.0</ele><time>2026-04-18T11:53:53.77Z</time></trkpt><trkpt lat="42.750865" lon="11.5628217"><ele>697.25</ele><time>2026-04-18T11:53:54.768Z</time></trkpt><trkpt lat="42.7509533" lon="11.5629567"><ele>699.5</ele><time>2026-04-18T11:53:55.77Z</time></trkpt><trkpt lat="42.751055" lon="11.5630967"><ele>701.75</ele><time>2026-04-18T11:53:56.773Z</time></trkpt><trkpt lat="42.7511767" lon="11.5632167"><ele>704.0</ele><time>2026-04-18T11:53:57.77Z</time></trkpt><trkpt lat="42.7513" lon="11.5632917"><ele>704.3333333333333</ele><time>2026-04-18T11:53:58.772Z</time></trkpt><trkpt lat="42.7514283" lon="11.5633167"><ele>704.6666666666666</ele><time>2026-04-18T11:53:59.77Z</time></trkpt><trkpt lat="42.75158" lon="11.5632767"><ele>705.0</ele><time>2026-04-18T11:54:00.767Z</time></trkpt><trkpt lat="42.75174" lon="11.5631483"><ele>708.0</ele><time>2026-04-18T11:54:01.769Z</time></trkpt><trkpt lat="42.7519067" lon="11.56302"><ele>711.0</ele><time>2026-04-18T11:54:02.772Z</time></trkpt><trkpt lat="42.7520783" lon="11.5628983"><ele>714.0</ele><time>2026-04-18T11:54:03.769Z</time></trkpt><trkpt lat="42.752245" lon="11.5627967"><ele>714.0</ele><time>2026-04-18T11:54:04.77Z</time></trkpt><trkpt lat="42.752395" lon="11.5627117"><ele>714.0</ele><time>2026-04-18T11:54:05.769Z</time></trkpt><trkpt lat="42.7525317" lon="11.5626267"><ele>714.0</ele><time>2026-04-18T11:54:06.768Z</time></trkpt><trkpt lat="42.7526417" lon="11.5625083"><ele>716.75</ele><time>2026-04-18T11:54:07.77Z</time></trkpt><trkpt lat="42.7527217" lon="11.562335"><ele>719.5</ele><time>2026-04-18T11:54:08.772Z</time></trkpt><trkpt lat="42.75279" lon="11.562145"><ele>722.25</ele><time>2026-04-18T11:54:09.769Z</time></trkpt><trkpt lat="42.752855" lon="11.5619733"><ele>725.0</ele><time>2026-04-18T11:54:10.769Z</time></trkpt><trkpt lat="42.752935" lon="11.5618333"><ele>725.0</ele><time>2026-04-18T11:54:11.772Z</time></trkpt><trkpt lat="42.7530333" lon="11.5617067"><ele>725.0</ele><time>2026-04-18T11:54:12.769Z</time></trkpt><trkpt lat="42.7531317" lon="11.56158"><ele>725.0</ele><time>2026-04-18T11:54:13.769Z</time></trkpt><trkpt lat="42.7532267" lon="11.5614417"><ele>725.0</ele><time>2026-04-18T11:54:14.772Z</time></trkpt><trkpt lat="42.7533133" lon="11.5612883"><ele>724.5</ele><time>2026-04-18T11:54:15.771Z</time></trkpt><trkpt lat="42.75339" lon="11.5611217"><ele>724.0</ele><time>2026-04-18T11:54:16.769Z</time></trkpt><trkpt lat="42.7534433" lon="11.560945"><ele>723.5</ele><time>2026-04-18T11:54:17.771Z</time></trkpt><trkpt lat="42.7534933" lon="11.5607667"><ele>723.0</ele><time>2026-04-18T11:54:18.769Z</time></trkpt><trkpt lat="42.7535517" lon="11.560605"><ele>726.5</ele><time>2026-04-18T11:54:19.767Z</time></trkpt><trkpt lat="42.7536233" lon="11.5604533"><ele>730.0</ele><time>2026-04-18T11:54:20.772Z</time></trkpt><trkpt lat="42.7537" lon="11.56031"><ele>733.5</ele><time>2026-04-18T11:54:21.77Z</time></trkpt><trkpt lat="42.7537717" lon="11.56016"><ele>737.0</ele><time>2026-04-18T11:54:22.766Z</time></trkpt><trkpt lat="42.7538267" lon="11.55999"><ele>737.0</ele><time>2026-04-18T11:54:23.771Z</time></trkpt><trkpt lat="42.7538583" lon="11.5598"><ele>737.0</ele><time>2026-04-18T11:54:24.773Z</time></trkpt><trkpt lat="42.753855" lon="11.559585"><ele>737.0</ele><time>2026-04-18T11:54:25.771Z</time></trkpt><trkpt lat="42.7538217" lon="11.5593567"><ele>738.6666666666666</ele><time>2026-04-18T11:54:26.767Z</time></trkpt><trkpt lat="42.753785" lon="11.559125"><ele>740.3333333333334</ele><time>2026-04-18T11:54:27.77Z</time></trkpt><trkpt lat="42.7537533" lon="11.5589033"><ele>742.0</ele><time>2026-04-18T11:54:28.771Z</time></trkpt><trkpt lat="42.7537433" lon="11.558705"><ele>740.25</ele><time>2026-04-18T11:54:29.77Z</time></trkpt><trkpt lat="42.7537533" lon="11.558525"><ele>738.5</ele><time>2026-04-18T11:54:30.765Z</time></trkpt><trkpt lat="42.75379" lon="11.5583667"><ele>736.75</ele><time>2026-04-18T11:54:31.77Z</time></trkpt><trkpt lat="42.7538767" lon="11.558245"><ele>735.0</ele><time>2026-04-18T11:54:32.771Z</time></trkpt><trkpt lat="42.7539983" lon="11.5581717"><ele>735.0</ele><time>2026-04-18T11:54:33.771Z</time></trkpt><trkpt lat="42.7541483" lon="11.5581383"><ele>735.0</ele><time>2026-04-18T11:54:34.768Z</time></trkpt><trkpt lat="42.7543017" lon="11.5581317"><ele>735.0</ele><time>2026-04-18T11:54:35.771Z</time></trkpt><trkpt lat="42.7544683" lon="11.5581283"><ele>737.5</ele><time>2026-04-18T11:54:36.774Z</time></trkpt><trkpt lat="42.754615" lon="11.55811"><ele>740.0</ele><time>2026-04-18T11:54:37.771Z</time></trkpt><trkpt lat="42.7547517" lon="11.5581117"><ele>742.5</ele><time>2026-04-18T11:54:38.771Z</time></trkpt><trkpt lat="42.7548883" lon="11.55814"><ele>745.0</ele><time>2026-04-18T11:54:39.77Z</time></trkpt><trkpt lat="42.7550217" lon="11.5581667"><ele>745.0</ele><time>2026-04-18T11:54:40.767Z</time></trkpt><trkpt lat="42.7551517" lon="11.5582033"><ele>745.0</ele><time>2026-04-18T11:54:41.77Z</time></trkpt><trkpt lat="42.7552867" lon="11.5582433"><ele>745.0</ele><time>2026-04-18T11:54:42.77Z</time></trkpt><trkpt lat="42.755415" lon="11.5582833"><ele>745.0</ele><time>2026-04-18T11:54:43.769Z</time></trkpt><trkpt lat="42.7555383" lon="11.5583033"><ele>745.0</ele><time>2026-04-18T11:54:44.77Z</time></trkpt><trkpt lat="42.7556683" lon="11.5583067"><ele>745.0</ele><time>2026-04-18T11:54:45.767Z</time></trkpt><trkpt lat="42.7557867" lon="11.5582833"><ele>745.0</ele><time>2026-04-18T11:54:46.768Z</time></trkpt><trkpt lat="42.7559083" lon="11.5582333"><ele>745.0</ele><time>2026-04-18T11:54:47.768Z</time></trkpt><trkpt lat="42.7560333" lon="11.5581783"><ele>745.5</ele><time>2026-04-18T11:54:48.767Z</time></trkpt><trkpt lat="42.7561567" lon="11.5581217"><ele>746.0</ele><time>2026-04-18T11:54:49.769Z</time></trkpt><trkpt lat="42.756275" lon="11.558055"><ele>746.5</ele><time>2026-04-18T11:54:50.772Z</time></trkpt><trkpt lat="42.756385" lon="11.55797"><ele>747.0</ele><time>2026-04-18T11:54:51.769Z</time></trkpt><trkpt lat="42.7564717" lon="11.557855"><ele>747.0</ele><time>2026-04-18T11:54:52.766Z</time></trkpt><trkpt lat="42.7565633" lon="11.55773"><ele>747.0</ele><time>2026-04-18T11:54:53.77Z</time></trkpt><trkpt lat="42.7566367" lon="11.5575933"><ele>747.0</ele><time>2026-04-18T11:54:54.769Z</time></trkpt><trkpt lat="42.75668" lon="11.5574417"><ele>747.0</ele><time>2026-04-18T11:54:55.769Z</time></trkpt><trkpt lat="42.7567" lon="11.557285"><ele>747.0</ele><time>2026-04-18T11:54:56.765Z</time></trkpt><trkpt lat="42.7567083" lon="11.5571383"><ele>747.0</ele><time>2026-04-18T11:54:57.765Z</time></trkpt><trkpt lat="42.7567183" lon="11.5570083"><ele>747.0</ele><time>2026-04-18T11:54:58.766Z</time></trkpt><trkpt lat="42.756745" lon="11.5569"><ele>747.0</ele><time>2026-04-18T11:54:59.764Z</time></trkpt><trkpt lat="42.7567883" lon="11.5568267"><ele>747.0</ele><time>2026-04-18T11:55:00.766Z</time></trkpt><trkpt lat="42.7568783" lon="11.5567383"><ele>747.6</ele><time>2026-04-18T11:55:02.773Z</time></trkpt><trkpt lat="42.7569583" lon="11.5567667"><ele>748.2</ele><time>2026-04-18T11:55:03.763Z</time></trkpt><trkpt lat="42.7570267" lon="11.5567633"><ele>748.8</ele><time>2026-04-18T11:55:04.77Z</time></trkpt><trkpt lat="42.7571067" lon="11.5567467"><ele>749.4</ele><time>2026-04-18T11:55:05.771Z</time></trkpt><trkpt lat="42.7572133" lon="11.5566083"><ele>750.0</ele><time>2026-04-18T11:55:07.77Z</time></trkpt><trkpt lat="42.7572633" lon="11.5565167"><ele>750.0</ele><time>2026-04-18T11:55:08.773Z</time></trkpt><trkpt lat="42.7573017" lon="11.5564033"><ele>750.0</ele><time>2026-04-18T11:55:09.769Z</time></trkpt><trkpt lat="42.75734" lon="11.5562967"><ele>750.0</ele><time>2026-04-18T11:55:10.766Z</time></trkpt><trkpt lat="42.7573867" lon="11.5562083"><ele>750.0</ele><time>2026-04-18T11:55:11.769Z</time></trkpt><trkpt lat="42.7574433" lon="11.5561367"><ele>750.0</ele><time>2026-04-18T11:55:12.769Z</time></trkpt><trkpt lat="42.757505" lon="11.556085"><ele>750.0</ele><time>2026-04-18T11:55:13.77Z</time></trkpt><trkpt lat="42.7575733" lon="11.5560483"><ele>748.75</ele><time>2026-04-18T11:55:14.773Z</time></trkpt><trkpt lat="42.7576683" lon="11.5560417"><ele>747.5</ele><time>2026-04-18T11:55:15.768Z</time></trkpt><trkpt lat="42.7578067" lon="11.5560917"><ele>746.25</ele><time>2026-04-18T11:55:16.767Z</time></trkpt><trkpt lat="42.75794" lon="11.556105"><ele>745.0</ele><time>2026-04-18T11:55:17.769Z</time></trkpt><trkpt lat="42.7580767" lon="11.5561217"><ele>745.0</ele><time>2026-04-18T11:55:18.77Z</time></trkpt><trkpt lat="42.758215" lon="11.5561333"><ele>745.0</ele><time>2026-04-18T11:55:19.77Z</time></trkpt><trkpt lat="42.758345" lon="11.55613"><ele>745.0</ele><time>2026-04-18T11:55:20.771Z</time></trkpt><trkpt lat="42.758495" lon="11.5561217"><ele>745.0</ele><time>2026-04-18T11:55:21.766Z</time></trkpt><trkpt lat="42.7586417" lon="11.5561167"><ele>744.75</ele><time>2026-04-18T11:55:22.765Z</time></trkpt><trkpt lat="42.7587867" lon="11.5561217"><ele>744.5</ele><time>2026-04-18T11:55:23.766Z</time></trkpt><trkpt lat="42.7589267" lon="11.5561317"><ele>744.25</ele><time>2026-04-18T11:55:24.77Z</time></trkpt><trkpt lat="42.7590683" lon="11.5561467"><ele>744.0</ele><time>2026-04-18T11:55:25.766Z</time></trkpt><trkpt lat="42.7592" lon="11.5561683"><ele>744.0</ele><time>2026-04-18T11:55:26.771Z</time></trkpt><trkpt lat="42.7593433" lon="11.556195"><ele>744.0</ele><time>2026-04-18T11:55:27.769Z</time></trkpt><trkpt lat="42.7594833" lon="11.55623"><ele>744.0</ele><time>2026-04-18T11:55:28.766Z</time></trkpt><trkpt lat="42.75962" lon="11.556275"><ele>744.0</ele><time>2026-04-18T11:55:29.77Z</time></trkpt><trkpt lat="42.7597517" lon="11.55632"><ele>747.4000000000001</ele><time>2026-04-18T11:55:30.766Z</time></trkpt><trkpt lat="42.7598783" lon="11.5563717"><ele>750.8</ele><time>2026-04-18T11:55:31.768Z</time></trkpt><trkpt lat="42.7599883" lon="11.5564133"><ele>754.2</ele><time>2026-04-18T11:55:32.768Z</time></trkpt><trkpt lat="42.7600867" lon="11.55643"><ele>757.5999999999999</ele><time>2026-04-18T11:55:33.771Z</time></trkpt><trkpt lat="42.760175" lon="11.5564033"><ele>761.0</ele><time>2026-04-18T11:55:34.766Z</time></trkpt><trkpt lat="42.7602633" lon="11.55633"><ele>762.25</ele><time>2026-04-18T11:55:35.769Z</time></trkpt><trkpt lat="42.7603267" lon="11.5562033"><ele>763.5</ele><time>2026-04-18T11:55:36.771Z</time></trkpt><trkpt lat="42.760335" lon="11.5559967"><ele>764.75</ele><time>2026-04-18T11:55:37.77Z</time></trkpt><trkpt lat="42.7603517" lon="11.5558117"><ele>766.0</ele><time>2026-04-18T11:55:38.773Z</time></trkpt><trkpt lat="42.76037" lon="11.555615"><ele>766.0</ele><time>2026-04-18T11:55:39.768Z</time></trkpt><trkpt lat="42.7604033" lon="11.555415"><ele>766.0</ele><time>2026-04-18T11:55:40.765Z</time></trkpt><trkpt lat="42.7604717" lon="11.5552267"><ele>766.0</ele><time>2026-04-18T11:55:41.77Z</time></trkpt><trkpt lat="42.7605517" lon="11.5550533"><ele>765.25</ele><time>2026-04-18T11:55:42.774Z</time></trkpt><trkpt lat="42.7606317" lon="11.5548833"><ele>764.5</ele><time>2026-04-18T11:55:43.77Z</time></trkpt><trkpt lat="42.7606917" lon="11.554705"><ele>763.75</ele><time>2026-04-18T11:55:44.772Z</time></trkpt><trkpt lat="42.7607" lon="11.5545117"><ele>763.0</ele><time>2026-04-18T11:55:45.77Z</time></trkpt><trkpt lat="42.7606667" lon="11.5543383"><ele>762.2</ele><time>2026-04-18T11:55:46.77Z</time></trkpt><trkpt lat="42.7606367" lon="11.554175"><ele>761.4</ele><time>2026-04-18T11:55:47.772Z</time></trkpt><trkpt lat="42.7606383" lon="11.5540083"><ele>760.6</ele><time>2026-04-18T11:55:48.771Z</time></trkpt><trkpt lat="42.760665" lon="11.5538733"><ele>759.8000000000001</ele><time>2026-04-18T11:55:49.765Z</time></trkpt><trkpt lat="42.7607167" lon="11.5537867"><ele>759.0</ele><time>2026-04-18T11:55:50.773Z</time></trkpt><trkpt lat="42.7607717" lon="11.5537317"><ele>759.0</ele><time>2026-04-18T11:55:51.772Z</time></trkpt><trkpt lat="42.7608883" lon="11.5537283"><ele>759.0</ele><time>2026-04-18T11:55:53.771Z</time></trkpt><trkpt lat="42.7610083" lon="11.5538"><ele>759.0</ele><time>2026-04-18T11:55:55.771Z</time></trkpt><trkpt lat="42.7610967" lon="11.5539067"><ele>759.0</ele><time>2026-04-18T11:55:56.773Z</time></trkpt><trkpt lat="42.76121" lon="11.5539983"><ele>759.0</ele><time>2026-04-18T11:55:57.771Z</time></trkpt><trkpt lat="42.7613217" lon="11.5540883"><ele>759.0</ele><time>2026-04-18T11:55:58.77Z</time></trkpt><trkpt lat="42.7614283" lon="11.55415"><ele>759.0</ele><time>2026-04-18T11:55:59.771Z</time></trkpt><trkpt lat="42.7615267" lon="11.5541517"><ele>759.0</ele><time>2026-04-18T11:56:00.77Z</time></trkpt><trkpt lat="42.7616433" lon="11.554105"><ele>759.0</ele><time>2026-04-18T11:56:01.77Z</time></trkpt><trkpt lat="42.7617683" lon="11.5539733"><ele>759.0</ele><time>2026-04-18T11:56:02.773Z</time></trkpt><trkpt lat="42.7619" lon="11.5538267"><ele>759.0</ele><time>2026-04-18T11:56:03.77Z</time></trkpt><trkpt lat="42.7620283" lon="11.5536917"><ele>756.3333333333334</ele><time>2026-04-18T11:56:04.764Z</time></trkpt><trkpt lat="42.7621817" lon="11.5535717"><ele>753.6666666666667</ele><time>2026-04-18T11:56:05.77Z</time></trkpt><trkpt lat="42.76235" lon="11.5535067"><ele>751.0</ele><time>2026-04-18T11:56:06.774Z</time></trkpt><trkpt lat="42.7625167" lon="11.553475"><ele>751.0</ele><time>2026-04-18T11:56:07.769Z</time></trkpt><trkpt lat="42.762695" lon="11.55349"><ele>751.0</ele><time>2026-04-18T11:56:08.774Z</time></trkpt><trkpt lat="42.76287" lon="11.553555"><ele>751.0</ele><time>2026-04-18T11:56:09.77Z</time></trkpt><trkpt lat="42.7630333" lon="11.5536667"><ele>754.0</ele><time>2026-04-18T11:56:10.772Z</time></trkpt><trkpt lat="42.76319" lon="11.5537683"><ele>757.0</ele><time>2026-04-18T11:56:11.771Z</time></trkpt><trkpt lat="42.7633483" lon="11.5538433"><ele>760.0</ele><time>2026-04-18T11:56:12.769Z</time></trkpt><trkpt lat="42.7635083" lon="11.5538567"><ele>759.0</ele><time>2026-04-18T11:56:13.771Z</time></trkpt><trkpt lat="42.7636583" lon="11.553825"><ele>758.0</ele><time>2026-04-18T11:56:14.774Z</time></trkpt><trkpt lat="42.7638083" lon="11.5538117"><ele>757.0</ele><time>2026-04-18T11:56:15.769Z</time></trkpt><trkpt lat="42.763965" lon="11.553855"><ele>757.0</ele><time>2026-04-18T11:56:16.77Z</time></trkpt><trkpt lat="42.7641217" lon="11.5539533"><ele>757.0</ele><time>2026-04-18T11:56:17.769Z</time></trkpt><trkpt lat="42.764285" lon="11.5540633"><ele>757.0</ele><time>2026-04-18T11:56:18.77Z</time></trkpt><trkpt lat="42.764455" lon="11.5541717"><ele>755.3333333333334</ele><time>2026-04-18T11:56:19.767Z</time></trkpt><trkpt lat="42.76463" lon="11.554265"><ele>753.6666666666666</ele><time>2026-04-18T11:56:20.77Z</time></trkpt><trkpt lat="42.7648233" lon="11.554325"><ele>752.0</ele><time>2026-04-18T11:56:21.768Z</time></trkpt><trkpt lat="42.76503" lon="11.5543417"><ele>750.3333333333333</ele><time>2026-04-18T11:56:22.768Z</time></trkpt><trkpt lat="42.76523" lon="11.5543333"><ele>748.6666666666666</ele><time>2026-04-18T11:56:23.769Z</time></trkpt><trkpt lat="42.7654117" lon="11.5543233"><ele>747.0</ele><time>2026-04-18T11:56:24.77Z</time></trkpt><trkpt lat="42.765575" lon="11.5543483"><ele>747.0</ele><time>2026-04-18T11:56:25.769Z</time></trkpt><trkpt lat="42.76573" lon="11.5544383"><ele>747.0</ele><time>2026-04-18T11:56:26.77Z</time></trkpt><trkpt lat="42.7658733" lon="11.5545733"><ele>747.0</ele><time>2026-04-18T11:56:27.768Z</time></trkpt><trkpt lat="42.7660317" lon="11.5546917"><ele>750.0</ele><time>2026-04-18T11:56:28.768Z</time></trkpt><trkpt lat="42.7662067" lon="11.55475"><ele>753.0</ele><time>2026-04-18T11:56:29.768Z</time></trkpt><trkpt lat="42.7663983" lon="11.5547467"><ele>756.0</ele><time>2026-04-18T11:56:30.768Z</time></trkpt><trkpt lat="42.766605" lon="11.5546767"><ele>756.0</ele><time>2026-04-18T11:56:31.768Z</time></trkpt><trkpt lat="42.7668133" lon="11.5546067"><ele>756.0</ele><time>2026-04-18T11:56:32.768Z</time></trkpt><trkpt lat="42.7670317" lon="11.55454"><ele>756.0</ele><time>2026-04-18T11:56:33.769Z</time></trkpt><trkpt lat="42.76726" lon="11.5544767"><ele>754.6666666666666</ele><time>2026-04-18T11:56:34.771Z</time></trkpt><trkpt lat="42.767485" lon="11.5544133"><ele>753.3333333333333</ele><time>2026-04-18T11:56:35.769Z</time></trkpt><trkpt lat="42.7676983" lon="11.5543567"><ele>752.0</ele><time>2026-04-18T11:56:36.772Z</time></trkpt><trkpt lat="42.7678917" lon="11.5543033"><ele>752.0</ele><time>2026-04-18T11:56:37.77Z</time></trkpt><trkpt lat="42.7680633" lon="11.5542417"><ele>752.0</ele><time>2026-04-18T11:56:38.772Z</time></trkpt><trkpt lat="42.76822" lon="11.554145"><ele>752.0</ele><time>2026-04-18T11:56:39.771Z</time></trkpt><trkpt lat="42.7683483" lon="11.5540117"><ele>752.0</ele><time>2026-04-18T11:56:40.771Z</time></trkpt><trkpt lat="42.7684667" lon="11.553895"><ele>752.0</ele><time>2026-04-18T11:56:41.77Z</time></trkpt><trkpt lat="42.7685917" lon="11.553815"><ele>752.0</ele><time>2026-04-18T11:56:42.77Z</time></trkpt><trkpt lat="42.768735" lon="11.5537983"><ele>752.0</ele><time>2026-04-18T11:56:43.772Z</time></trkpt><trkpt lat="42.7689033" lon="11.5538467"><ele>752.3333333333333</ele><time>2026-04-18T11:56:44.773Z</time></trkpt><trkpt lat="42.769065" lon="11.55395"><ele>752.6666666666666</ele><time>2026-04-18T11:56:45.772Z</time></trkpt><trkpt lat="42.7692333" lon="11.5540217"><ele>753.0</ele><time>2026-04-18T11:56:46.769Z</time></trkpt><trkpt lat="42.7694033" lon="11.554035"><ele>752.0</ele><time>2026-04-18T11:56:47.769Z</time></trkpt><trkpt lat="42.769575" lon="11.5539833"><ele>751.0</ele><time>2026-04-18T11:56:48.771Z</time></trkpt><trkpt lat="42.7697467" lon="11.553925"><ele>750.0</ele><time>2026-04-18T11:56:49.771Z</time></trkpt><trkpt lat="42.7699233" lon="11.5538983"><ele>750.0</ele><time>2026-04-18T11:56:50.773Z</time></trkpt><trkpt lat="42.770105" lon="11.5539283"><ele>750.0</ele><time>2026-04-18T11:56:51.771Z</time></trkpt><trkpt lat="42.770285" lon="11.5540017"><ele>750.0</ele><time>2026-04-18T11:56:52.771Z</time></trkpt><trkpt lat="42.7704517" lon="11.5541033"><ele>749.6666666666666</ele><time>2026-04-18T11:56:53.771Z</time></trkpt><trkpt lat="42.7706083" lon="11.5542433"><ele>749.3333333333333</ele><time>2026-04-18T11:56:54.771Z</time></trkpt><trkpt lat="42.7707483" lon="11.55441"><ele>749.0</ele><time>2026-04-18T11:56:55.772Z</time></trkpt><trkpt lat="42.7708633" lon="11.5546117"><ele>748.6666666666666</ele><time>2026-04-18T11:56:56.773Z</time></trkpt><trkpt lat="42.77095" lon="11.55484"><ele>748.3333333333334</ele><time>2026-04-18T11:56:57.768Z</time></trkpt><trkpt lat="42.771005" lon="11.5550783"><ele>748.0</ele><time>2026-04-18T11:56:58.768Z</time></trkpt><trkpt lat="42.7710483" lon="11.5553067"><ele>747.0</ele><time>2026-04-18T11:56:59.769Z</time></trkpt><trkpt lat="42.7711067" lon="11.5555167"><ele>746.0</ele><time>2026-04-18T11:57:00.77Z</time></trkpt><trkpt lat="42.7712083" lon="11.5556767"><ele>745.0</ele><time>2026-04-18T11:57:01.766Z</time></trkpt><trkpt lat="42.7713233" lon="11.5557817"><ele>745.0</ele><time>2026-04-18T11:57:02.773Z</time></trkpt><trkpt lat="42.7714333" lon="11.555855"><ele>745.0</ele><time>2026-04-18T11:57:03.771Z</time></trkpt><trkpt lat="42.7715317" lon="11.555935"><ele>745.0</ele><time>2026-04-18T11:57:04.77Z</time></trkpt><trkpt lat="42.7716233" lon="11.556015"><ele>745.0</ele><time>2026-04-18T11:57:05.771Z</time></trkpt><trkpt lat="42.771725" lon="11.556095"><ele>745.0</ele><time>2026-04-18T11:57:06.766Z</time></trkpt><trkpt lat="42.7718367" lon="11.556185"><ele>745.0</ele><time>2026-04-18T11:57:07.767Z</time></trkpt><trkpt lat="42.7719617" lon="11.5562783"><ele>745.0</ele><time>2026-04-18T11:57:08.768Z</time></trkpt><trkpt lat="42.7721" lon="11.556365"><ele>745.0</ele><time>2026-04-18T11:57:09.767Z</time></trkpt><trkpt lat="42.7722517" lon="11.556425"><ele>743.0</ele><time>2026-04-18T11:57:10.765Z</time></trkpt><trkpt lat="42.77242" lon="11.5564583"><ele>741.0</ele><time>2026-04-18T11:57:11.768Z</time></trkpt><trkpt lat="42.7725967" lon="11.556475"><ele>739.0</ele><time>2026-04-18T11:57:12.769Z</time></trkpt><trkpt lat="42.7727817" lon="11.5564767"><ele>739.0</ele><time>2026-04-18T11:57:13.769Z</time></trkpt><trkpt lat="42.7729783" lon="11.5564783"><ele>739.0</ele><time>2026-04-18T11:57:14.774Z</time></trkpt><trkpt lat="42.77318" lon="11.556475"><ele>739.0</ele><time>2026-04-18T11:57:15.769Z</time></trkpt><trkpt lat="42.7733783" lon="11.556475"><ele>740.3333333333334</ele><time>2026-04-18T11:57:16.771Z</time></trkpt><trkpt lat="42.77357" lon="11.55648"><ele>741.6666666666666</ele><time>2026-04-18T11:57:17.767Z</time></trkpt><trkpt lat="42.7737617" lon="11.55648"><ele>743.0</ele><time>2026-04-18T11:57:18.769Z</time></trkpt><trkpt lat="42.773955" lon="11.5564517"><ele>743.0</ele><time>2026-04-18T11:57:19.77Z</time></trkpt><trkpt lat="42.7741533" lon="11.5563867"><ele>743.0</ele><time>2026-04-18T11:57:20.771Z</time></trkpt><trkpt lat="42.774355" lon="11.5562967"><ele>743.0</ele><time>2026-04-18T11:57:21.771Z</time></trkpt><trkpt lat="42.7745533" lon="11.5561933"><ele>744.6666666666666</ele><time>2026-04-18T11:57:22.769Z</time></trkpt><trkpt lat="42.7747467" lon="11.5560817"><ele>746.3333333333334</ele><time>2026-04-18T11:57:23.768Z</time></trkpt><trkpt lat="42.7749383" lon="11.5559667"><ele>748.0</ele><time>2026-04-18T11:57:24.771Z</time></trkpt><trkpt lat="42.7751267" lon="11.5558517"><ele>746.0</ele><time>2026-04-18T11:57:25.771Z</time></trkpt><trkpt lat="42.775315" lon="11.5557483"><ele>744.0</ele><time>2026-04-18T11:57:26.771Z</time></trkpt><trkpt lat="42.77551" lon="11.5556633"><ele>742.0</ele><time>2026-04-18T11:57:27.769Z</time></trkpt><trkpt lat="42.7757117" lon="11.5555967"><ele>742.0</ele><time>2026-04-18T11:57:28.766Z</time></trkpt><trkpt lat="42.7759133" lon="11.555545"><ele>742.0</ele><time>2026-04-18T11:57:29.769Z</time></trkpt><trkpt lat="42.7761067" lon="11.5555033"><ele>742.0</ele><time>2026-04-18T11:57:30.772Z</time></trkpt><trkpt lat="42.77628" lon="11.55545"><ele>743.0</ele><time>2026-04-18T11:57:31.769Z</time></trkpt><trkpt lat="42.776435" lon="11.555355"><ele>744.0</ele><time>2026-04-18T11:57:32.772Z</time></trkpt><trkpt lat="42.7765833" lon="11.555215"><ele>745.0</ele><time>2026-04-18T11:57:33.771Z</time></trkpt><trkpt lat="42.7767333" lon="11.5550683"><ele>743.0</ele><time>2026-04-18T11:57:34.765Z</time></trkpt><trkpt lat="42.776895" lon="11.5549467"><ele>741.0</ele><time>2026-04-18T11:57:35.769Z</time></trkpt><trkpt lat="42.7770717" lon="11.5548517"><ele>739.0</ele><time>2026-04-18T11:57:36.768Z</time></trkpt><trkpt lat="42.77727" lon="11.5547883"><ele>739.0</ele><time>2026-04-18T11:57:37.771Z</time></trkpt><trkpt lat="42.777475" lon="11.5547417"><ele>739.0</ele><time>2026-04-18T11:57:38.772Z</time></trkpt><trkpt lat="42.77769" lon="11.554695"><ele>739.0</ele><time>2026-04-18T11:57:39.768Z</time></trkpt><trkpt lat="42.7779017" lon="11.5546533"><ele>739.0</ele><time>2026-04-18T11:57:40.772Z</time></trkpt><trkpt lat="42.7781133" lon="11.5546233"><ele>739.0</ele><time>2026-04-18T11:57:41.769Z</time></trkpt><trkpt lat="42.7783183" lon="11.554585"><ele>739.0</ele><time>2026-04-18T11:57:42.77Z</time></trkpt><trkpt lat="42.7785117" lon="11.5545117"><ele>740.3333333333334</ele><time>2026-04-18T11:57:43.77Z</time></trkpt><trkpt lat="42.7786967" lon="11.5543833"><ele>741.6666666666666</ele><time>2026-04-18T11:57:44.773Z</time></trkpt><trkpt lat="42.7788717" lon="11.55425"><ele>743.0</ele><time>2026-04-18T11:57:45.771Z</time></trkpt><trkpt lat="42.779035" lon="11.554155"><ele>743.0</ele><time>2026-04-18T11:57:46.769Z</time></trkpt><trkpt lat="42.7791967" lon="11.5541067"><ele>743.0</ele><time>2026-04-18T11:57:47.77Z</time></trkpt><trkpt lat="42.7793467" lon="11.5541183"><ele>743.0</ele><time>2026-04-18T11:57:48.771Z</time></trkpt><trkpt lat="42.7794983" lon="11.5541833"><ele>743.6666666666666</ele><time>2026-04-18T11:57:49.769Z</time></trkpt><trkpt lat="42.77963" lon="11.5543367"><ele>744.3333333333334</ele><time>2026-04-18T11:57:50.773Z</time></trkpt><trkpt lat="42.77975" lon="11.5545383"><ele>745.0</ele><time>2026-04-18T11:57:51.77Z</time></trkpt><trkpt lat="42.77985" lon="11.5547683"><ele>745.0</ele><time>2026-04-18T11:57:52.769Z</time></trkpt><trkpt lat="42.7799317" lon="11.5549917"><ele>745.0</ele><time>2026-04-18T11:57:53.771Z</time></trkpt><trkpt lat="42.78" lon="11.5551917"><ele>745.0</ele><time>2026-04-18T11:57:54.773Z</time></trkpt><trkpt lat="42.780065" lon="11.5553733"><ele>745.5</ele><time>2026-04-18T11:57:55.772Z</time></trkpt><trkpt lat="42.7801367" lon="11.5555217"><ele>746.0</ele><time>2026-04-18T11:57:56.772Z</time></trkpt><trkpt lat="42.780225" lon="11.555615"><ele>746.5</ele><time>2026-04-18T11:57:57.771Z</time></trkpt><trkpt lat="42.7803283" lon="11.55564"><ele>747.0</ele><time>2026-04-18T11:57:58.769Z</time></trkpt><trkpt lat="42.7804367" lon="11.55557"><ele>748.6666666666666</ele><time>2026-04-18T11:57:59.77Z</time></trkpt><trkpt lat="42.7805233" lon="11.5554183"><ele>750.3333333333333</ele><time>2026-04-18T11:58:00.771Z</time></trkpt><trkpt lat="42.780565" lon="11.5551717"><ele>752.0</ele><time>2026-04-18T11:58:01.769Z</time></trkpt><trkpt lat="42.7806283" lon="11.5549733"><ele>752.0</ele><time>2026-04-18T11:58:02.772Z</time></trkpt><trkpt lat="42.7807183" lon="11.554815"><ele>752.0</ele><time>2026-04-18T11:58:03.769Z</time></trkpt><trkpt lat="42.7808217" lon="11.5547033"><ele>752.0</ele><time>2026-04-18T11:58:04.771Z</time></trkpt><trkpt lat="42.7809417" lon="11.5546917"><ele>752.0</ele><time>2026-04-18T11:58:05.766Z</time></trkpt><trkpt lat="42.7810467" lon="11.5548117"><ele>753.6666666666666</ele><time>2026-04-18T11:58:06.772Z</time></trkpt><trkpt lat="42.7811767" lon="11.5548683"><ele>755.3333333333334</ele><time>2026-04-18T11:58:07.765Z</time></trkpt><trkpt lat="42.7813333" lon="11.5548817"><ele>757.0</ele><time>2026-04-18T11:58:08.773Z</time></trkpt><trkpt lat="42.7815117" lon="11.554805"><ele>757.0</ele><time>2026-04-18T11:58:09.768Z</time></trkpt><trkpt lat="42.7816717" lon="11.5547033"><ele>757.0</ele><time>2026-04-18T11:58:10.768Z</time></trkpt><trkpt lat="42.7818333" lon="11.5546367"><ele>757.0</ele><time>2026-04-18T11:58:11.768Z</time></trkpt><trkpt lat="42.7820083" lon="11.554635"><ele>756.6666666666667</ele><time>2026-04-18T11:58:12.768Z</time></trkpt><trkpt lat="42.78223" lon="11.554675"><ele>756.3333333333334</ele><time>2026-04-18T11:58:13.772Z</time></trkpt><trkpt lat="42.7824467" lon="11.5547333"><ele>756.0</ele><time>2026-04-18T11:58:14.77Z</time></trkpt><trkpt lat="42.7826567" lon="11.5547933"><ele>756.6666666666666</ele><time>2026-04-18T11:58:15.769Z</time></trkpt><trkpt lat="42.78285" lon="11.554845"><ele>757.3333333333333</ele><time>2026-04-18T11:58:16.768Z</time></trkpt><trkpt lat="42.7830283" lon="11.5548633"><ele>758.0</ele><time>2026-04-18T11:58:17.765Z</time></trkpt><trkpt lat="42.7832067" lon="11.5548233"><ele>758.0</ele><time>2026-04-18T11:58:18.77Z</time></trkpt><trkpt lat="42.7833683" lon="11.5547283"><ele>758.0</ele><time>2026-04-18T11:58:19.77Z</time></trkpt><trkpt lat="42.7835167" lon="11.55459"><ele>758.0</ele><time>2026-04-18T11:58:20.769Z</time></trkpt><trkpt lat="42.78365" lon="11.5544633"><ele>756.0</ele><time>2026-04-18T11:58:21.767Z</time></trkpt><trkpt lat="42.7837667" lon="11.5543717"><ele>754.0</ele><time>2026-04-18T11:58:22.765Z</time></trkpt><trkpt lat="42.783865" lon="11.5543283"><ele>752.0</ele><time>2026-04-18T11:58:23.769Z</time></trkpt><trkpt lat="42.7839633" lon="11.554335"><ele>750.0</ele><time>2026-04-18T11:58:24.77Z</time></trkpt><trkpt lat="42.784075" lon="11.5544667"><ele>752.3333333333334</ele><time>2026-04-18T11:58:25.769Z</time></trkpt><trkpt lat="42.78412" lon="11.55471"><ele>754.6666666666667</ele><time>2026-04-18T11:58:26.771Z</time></trkpt><trkpt lat="42.7841967" lon="11.5549183"><ele>757.0</ele><time>2026-04-18T11:58:27.768Z</time></trkpt><trkpt lat="42.7843117" lon="11.5550733"><ele>755.6666666666667</ele><time>2026-04-18T11:58:28.768Z</time></trkpt><trkpt lat="42.78446" lon="11.555205"><ele>754.3333333333334</ele><time>2026-04-18T11:58:29.769Z</time></trkpt><trkpt lat="42.7846233" lon="11.5553233"><ele>753.0</ele><time>2026-04-18T11:58:30.77Z</time></trkpt><trkpt lat="42.7847783" lon="11.5554333"><ele>755.6666666666666</ele><time>2026-04-18T11:58:31.769Z</time></trkpt><trkpt lat="42.7849217" lon="11.5555267"><ele>758.3333333333333</ele><time>2026-04-18T11:58:32.771Z</time></trkpt><trkpt lat="42.78507" lon="11.5555967"><ele>761.0</ele><time>2026-04-18T11:58:33.759Z</time></trkpt><trkpt lat="42.7852233" lon="11.5556233"><ele>761.6666666666666</ele><time>2026-04-18T11:58:34.77Z</time></trkpt><trkpt lat="42.78538" lon="11.555605"><ele>762.3333333333334</ele><time>2026-04-18T11:58:35.769Z</time></trkpt><trkpt lat="42.785535" lon="11.55556"><ele>763.0</ele><time>2026-04-18T11:58:36.768Z</time></trkpt><trkpt lat="42.7856867" lon="11.5555317"><ele>763.0</ele><time>2026-04-18T11:58:37.769Z</time></trkpt><trkpt lat="42.78583" lon="11.555555"><ele>763.0</ele><time>2026-04-18T11:58:38.771Z</time></trkpt><trkpt lat="42.7859717" lon="11.5555717"><ele>763.0</ele><time>2026-04-18T11:58:39.771Z</time></trkpt><trkpt lat="42.7861017" lon="11.55554"><ele>763.0</ele><time>2026-04-18T11:58:40.769Z</time></trkpt><trkpt lat="42.78623" lon="11.55544"><ele>761.3333333333334</ele><time>2026-04-18T11:58:41.768Z</time></trkpt><trkpt lat="42.78637" lon="11.555285"><ele>759.6666666666666</ele><time>2026-04-18T11:58:42.769Z</time></trkpt><trkpt lat="42.7865117" lon="11.55513"><ele>758.0</ele><time>2026-04-18T11:58:43.769Z</time></trkpt><trkpt lat="42.78665" lon="11.554985"><ele>758.0</ele><time>2026-04-18T11:58:44.77Z</time></trkpt><trkpt lat="42.7867967" lon="11.554855"><ele>758.0</ele><time>2026-04-18T11:58:45.769Z</time></trkpt><trkpt lat="42.78694" lon="11.554735"><ele>758.0</ele><time>2026-04-18T11:58:46.768Z</time></trkpt><trkpt lat="42.7870717" lon="11.5546"><ele>758.3333333333333</ele><time>2026-04-18T11:58:47.765Z</time></trkpt><trkpt lat="42.7871883" lon="11.554435"><ele>758.6666666666666</ele><time>2026-04-18T11:58:48.769Z</time></trkpt><trkpt lat="42.78729" lon="11.5542617"><ele>759.0</ele><time>2026-04-18T11:58:49.766Z</time></trkpt><trkpt lat="42.787385" lon="11.5541017"><ele>759.0</ele><time>2026-04-18T11:58:50.767Z</time></trkpt><trkpt lat="42.7874817" lon="11.55395"><ele>759.0</ele><time>2026-04-18T11:58:51.769Z</time></trkpt><trkpt lat="42.7875817" lon="11.5538083"><ele>759.0</ele><time>2026-04-18T11:58:52.764Z</time></trkpt><trkpt lat="42.7876783" lon="11.5536717"><ele>759.0</ele><time>2026-04-18T11:58:53.765Z</time></trkpt><trkpt lat="42.78778" lon="11.55356"><ele>759.0</ele><time>2026-04-18T11:58:54.771Z</time></trkpt><trkpt lat="42.7879017" lon="11.5534733"><ele>759.0</ele><time>2026-04-18T11:58:55.772Z</time></trkpt><trkpt lat="42.7880367" lon="11.5534267"><ele>759.0</ele><time>2026-04-18T11:58:56.769Z</time></trkpt><trkpt lat="42.788185" lon="11.5534133"><ele>759.0</ele><time>2026-04-18T11:58:57.768Z</time></trkpt><trkpt lat="42.78833" lon="11.5534183"><ele>759.0</ele><time>2026-04-18T11:58:58.768Z</time></trkpt><trkpt lat="42.7884633" lon="11.5534433"><ele>759.0</ele><time>2026-04-18T11:58:59.771Z</time></trkpt><trkpt lat="42.7885767" lon="11.5534583"><ele>759.0</ele><time>2026-04-18T11:59:00.77Z</time></trkpt><trkpt lat="42.7886667" lon="11.5534283"><ele>759.0</ele><time>2026-04-18T11:59:01.77Z</time></trkpt><trkpt lat="42.7887233" lon="11.55334"><ele>759.0</ele><time>2026-04-18T11:59:02.772Z</time></trkpt><trkpt lat="42.7887517" lon="11.5532"><ele>761.75</ele><time>2026-04-18T11:59:03.768Z</time></trkpt><trkpt lat="42.788775" lon="11.5530317"><ele>764.5</ele><time>2026-04-18T11:59:04.77Z</time></trkpt><trkpt lat="42.7887917" lon="11.5528533"><ele>767.25</ele><time>2026-04-18T11:59:05.766Z</time></trkpt><trkpt lat="42.78879" lon="11.55269"><ele>770.0</ele><time>2026-04-18T11:59:06.773Z</time></trkpt><trkpt lat="42.7887367" lon="11.55254"><ele>770.0</ele><time>2026-04-18T11:59:07.77Z</time></trkpt><trkpt lat="42.7886733" lon="11.552395"><ele>770.0</ele><time>2026-04-18T11:59:08.768Z</time></trkpt><trkpt lat="42.788625" lon="11.5522467"><ele>770.0</ele><time>2026-04-18T11:59:09.765Z</time></trkpt><trkpt lat="42.7886067" lon="11.552085"><ele>770.0</ele><time>2026-04-18T11:59:10.771Z</time></trkpt><trkpt lat="42.7886367" lon="11.551915"><ele>768.5</ele><time>2026-04-18T11:59:11.768Z</time></trkpt><trkpt lat="42.7887117" lon="11.551755"><ele>767.0</ele><time>2026-04-18T11:59:12.77Z</time></trkpt><trkpt lat="42.78881" lon="11.5516033"><ele>765.5</ele><time>2026-04-18T11:59:13.77Z</time></trkpt><trkpt lat="42.788895" lon="11.551455"><ele>764.0</ele><time>2026-04-18T11:59:14.771Z</time></trkpt><trkpt lat="42.788965" lon="11.5513217"><ele>763.2</ele><time>2026-04-18T11:59:15.769Z</time></trkpt><trkpt lat="42.78902" lon="11.551195"><ele>762.4000000000001</ele><time>2026-04-18T11:59:16.77Z</time></trkpt><trkpt lat="42.7890617" lon="11.5510733"><ele>761.6</ele><time>2026-04-18T11:59:17.769Z</time></trkpt><trkpt lat="42.7890933" lon="11.5509633"><ele>760.8</ele><time>2026-04-18T11:59:18.767Z</time></trkpt><trkpt lat="42.7891217" lon="11.550875"><ele>760.0</ele><time>2026-04-18T11:59:19.769Z</time></trkpt><trkpt lat="42.789165" lon="11.5507667"><ele>760.0</ele><time>2026-04-18T11:59:21.771Z</time></trkpt><trkpt lat="42.7892267" lon="11.5506883"><ele>760.0</ele><time>2026-04-18T11:59:26.772Z</time></trkpt><trkpt lat="42.7893083" lon="11.5506617"><ele>760.0</ele><time>2026-04-18T11:59:28.764Z</time></trkpt><trkpt lat="42.789445" lon="11.5506267"><ele>760.0</ele><time>2026-04-18T11:59:30.764Z</time></trkpt><trkpt lat="42.78953" lon="11.5505933"><ele>760.0</ele><time>2026-04-18T11:59:31.768Z</time></trkpt><trkpt lat="42.7896167" lon="11.5505133"><ele>762.25</ele><time>2026-04-18T11:59:32.772Z</time></trkpt><trkpt lat="42.7897067" lon="11.5504"><ele>764.5</ele><time>2026-04-18T11:59:33.767Z</time></trkpt><trkpt lat="42.7897767" lon="11.5502633"><ele>766.75</ele><time>2026-04-18T11:59:34.77Z</time></trkpt><trkpt lat="42.7898367" lon="11.550115"><ele>769.0</ele><time>2026-04-18T11:59:35.767Z</time></trkpt><trkpt lat="42.78989" lon="11.54995"><ele>769.0</ele><time>2026-04-18T11:59:36.77Z</time></trkpt><trkpt lat="42.789955" lon="11.5497783"><ele>769.0</ele><time>2026-04-18T11:59:37.767Z</time></trkpt><trkpt lat="42.7900317" lon="11.549605"><ele>769.0</ele><time>2026-04-18T11:59:38.767Z</time></trkpt><trkpt lat="42.7901183" lon="11.5494333"><ele>769.0</ele><time>2026-04-18T11:59:39.767Z</time></trkpt><trkpt lat="42.7902067" lon="11.5492533"><ele>773.0</ele><time>2026-04-18T11:59:40.768Z</time></trkpt><trkpt lat="42.7902983" lon="11.54908"><ele>777.0</ele><time>2026-04-18T11:59:41.768Z</time></trkpt><trkpt lat="42.7904033" lon="11.548905"><ele>781.0</ele><time>2026-04-18T11:59:42.768Z</time></trkpt><trkpt lat="42.7905167" lon="11.5487517"><ele>779.0</ele><time>2026-04-18T11:59:43.768Z</time></trkpt><trkpt lat="42.7906317" lon="11.54862"><ele>777.0</ele><time>2026-04-18T11:59:44.77Z</time></trkpt><trkpt lat="42.7907567" lon="11.54852"><ele>775.0</ele><time>2026-04-18T11:59:45.766Z</time></trkpt><trkpt lat="42.7908683" lon="11.5484317"><ele>773.0</ele><time>2026-04-18T11:59:46.766Z</time></trkpt><trkpt lat="42.7909633" lon="11.5483767"><ele>775.8</ele><time>2026-04-18T11:59:47.77Z</time></trkpt><trkpt lat="42.7910383" lon="11.548385"><ele>778.5999999999999</ele><time>2026-04-18T11:59:48.773Z</time></trkpt><trkpt lat="42.7911" lon="11.5484317"><ele>781.4000000000001</ele><time>2026-04-18T11:59:49.77Z</time></trkpt><trkpt lat="42.7911217" lon="11.5485133"><ele>784.2</ele><time>2026-04-18T11:59:50.765Z</time></trkpt><trkpt lat="42.7911017" lon="11.5486567"><ele>787.0</ele><time>2026-04-18T11:59:51.772Z</time></trkpt><trkpt lat="42.791055" lon="11.5488467"><ele>785.0</ele><time>2026-04-18T11:59:52.765Z</time></trkpt><trkpt lat="42.7909083" lon="11.5490233"><ele>783.0</ele><time>2026-04-18T11:59:53.771Z</time></trkpt><trkpt lat="42.7907833" lon="11.5492217"><ele>781.0</ele><time>2026-04-18T11:59:54.77Z</time></trkpt><trkpt lat="42.7907033" lon="11.5494433"><ele>782.6666666666666</ele><time>2026-04-18T11:59:55.772Z</time></trkpt><trkpt lat="42.79068" lon="11.54968"><ele>784.3333333333333</ele><time>2026-04-18T11:59:56.773Z</time></trkpt><trkpt lat="42.790695" lon="11.549925"><ele>786.0</ele><time>2026-04-18T11:59:57.77Z</time></trkpt><trkpt lat="42.7907233" lon="11.5501767"><ele>787.0</ele><time>2026-04-18T11:59:58.768Z</time></trkpt><trkpt lat="42.7907383" lon="11.550425"><ele>788.0</ele><time>2026-04-18T11:59:59.77Z</time></trkpt><trkpt lat="42.79073" lon="11.55067"><ele>789.0</ele><time>2026-04-18T12:00:00.767Z</time></trkpt><trkpt lat="42.7906833" lon="11.550905"><ele>789.0</ele><time>2026-04-18T12:00:01.766Z</time></trkpt><trkpt lat="42.7906167" lon="11.5511183"><ele>789.0</ele><time>2026-04-18T12:00:02.767Z</time></trkpt><trkpt lat="42.7905533" lon="11.5513083"><ele>789.0</ele><time>2026-04-18T12:00:03.767Z</time></trkpt><trkpt lat="42.7905217" lon="11.55149"><ele>791.0</ele><time>2026-04-18T12:00:04.766Z</time></trkpt><trkpt lat="42.7905367" lon="11.55168"><ele>793.0</ele><time>2026-04-18T12:00:05.766Z</time></trkpt><trkpt lat="42.7905867" lon="11.5518633"><ele>795.0</ele><time>2026-04-18T12:00:06.769Z</time></trkpt><trkpt lat="42.790665" lon="11.5520417"><ele>797.0</ele><time>2026-04-18T12:00:07.768Z</time></trkpt><trkpt lat="42.790755" lon="11.5522167"><ele>798.75</ele><time>2026-04-18T12:00:08.767Z</time></trkpt><trkpt lat="42.7908667" lon="11.552375"><ele>800.5</ele><time>2026-04-18T12:00:09.767Z</time></trkpt><trkpt lat="42.7909883" lon="11.552495"><ele>802.25</ele><time>2026-04-18T12:00:10.77Z</time></trkpt><trkpt lat="42.7911167" lon="11.5525633"><ele>804.0</ele><time>2026-04-18T12:00:11.771Z</time></trkpt><trkpt lat="42.7912567" lon="11.5525717"><ele>806.75</ele><time>2026-04-18T12:00:12.771Z</time></trkpt><trkpt lat="42.7913967" lon="11.5525183"><ele>809.5</ele><time>2026-04-18T12:00:13.766Z</time></trkpt><trkpt lat="42.7915167" lon="11.5524233"><ele>812.25</ele><time>2026-04-18T12:00:14.772Z</time></trkpt><trkpt lat="42.7915933" lon="11.5522717"><ele>815.0</ele><time>2026-04-18T12:00:15.77Z</time></trkpt><trkpt lat="42.7916517" lon="11.5520917"><ele>813.6666666666667</ele><time>2026-04-18T12:00:16.769Z</time></trkpt><trkpt lat="42.7917133" lon="11.5519033"><ele>812.3333333333333</ele><time>2026-04-18T12:00:17.764Z</time></trkpt><trkpt lat="42.7918033" lon="11.5517333"><ele>811.0</ele><time>2026-04-18T12:00:18.771Z</time></trkpt><trkpt lat="42.7919167" lon="11.5515833"><ele>817.3333333333333</ele><time>2026-04-18T12:00:19.764Z</time></trkpt><trkpt lat="42.7920433" lon="11.5514267"><ele>823.6666666666667</ele><time>2026-04-18T12:00:20.77Z</time></trkpt><trkpt lat="42.7921517" lon="11.55124"><ele>830.0</ele><time>2026-04-18T12:00:21.769Z</time></trkpt><trkpt lat="42.7922367" lon="11.5510267"><ele>830.0</ele><time>2026-04-18T12:00:22.769Z</time></trkpt><trkpt lat="42.7923117" lon="11.5507933"><ele>830.0</ele><time>2026-04-18T12:00:23.77Z</time></trkpt><trkpt lat="42.7923933" lon="11.55057"><ele>830.0</ele><time>2026-04-18T12:00:24.768Z</time></trkpt><trkpt lat="42.792495" lon="11.550355"><ele>834.0</ele><time>2026-04-18T12:00:25.769Z</time></trkpt><trkpt lat="42.7926117" lon="11.5501533"><ele>838.0</ele><time>2026-04-18T12:00:26.772Z</time></trkpt><trkpt lat="42.7927417" lon="11.54996"><ele>842.0</ele><time>2026-04-18T12:00:27.769Z</time></trkpt><trkpt lat="42.7928767" lon="11.5497733"><ele>842.0</ele><time>2026-04-18T12:00:28.77Z</time></trkpt><trkpt lat="42.793005" lon="11.549605"><ele>842.0</ele><time>2026-04-18T12:00:29.771Z</time></trkpt><trkpt lat="42.79313" lon="11.5494667"><ele>842.0</ele><time>2026-04-18T12:00:30.771Z</time></trkpt><trkpt lat="42.7932717" lon="11.5493617"><ele>838.0</ele><time>2026-04-18T12:00:31.771Z</time></trkpt><trkpt lat="42.79343" lon="11.549295"><ele>834.0</ele><time>2026-04-18T12:00:32.768Z</time></trkpt><trkpt lat="42.7936067" lon="11.5492717"><ele>830.0</ele><time>2026-04-18T12:00:33.772Z</time></trkpt><trkpt lat="42.79379" lon="11.5492533"><ele>830.0</ele><time>2026-04-18T12:00:34.771Z</time></trkpt><trkpt lat="42.793975" lon="11.549235"><ele>830.0</ele><time>2026-04-18T12:00:35.771Z</time></trkpt><trkpt lat="42.7941467" lon="11.5492117"><ele>830.0</ele><time>2026-04-18T12:00:36.771Z</time></trkpt><trkpt lat="42.7942883" lon="11.5491817"><ele>832.0</ele><time>2026-04-18T12:00:37.771Z</time></trkpt><trkpt lat="42.7944117" lon="11.5491217"><ele>834.0</ele><time>2026-04-18T12:00:38.768Z</time></trkpt><trkpt lat="42.794495" lon="11.549"><ele>836.0</ele><time>2026-04-18T12:00:39.765Z</time></trkpt><trkpt lat="42.794515" lon="11.5488183"><ele>838.0</ele><time>2026-04-18T12:00:40.765Z</time></trkpt><trkpt lat="42.7944833" lon="11.54862"><ele>838.0</ele><time>2026-04-18T12:00:41.769Z</time></trkpt><trkpt lat="42.7944283" lon="11.548405"><ele>838.0</ele><time>2026-04-18T12:00:42.765Z</time></trkpt><trkpt lat="42.794385" lon="11.5481867"><ele>838.0</ele><time>2026-04-18T12:00:43.767Z</time></trkpt><trkpt lat="42.7943633" lon="11.5479783"><ele>838.25</ele><time>2026-04-18T12:00:44.77Z</time></trkpt><trkpt lat="42.7943617" lon="11.5477833"><ele>838.5</ele><time>2026-04-18T12:00:45.77Z</time></trkpt><trkpt lat="42.7944067" lon="11.5476233"><ele>838.75</ele><time>2026-04-18T12:00:46.766Z</time></trkpt><trkpt lat="42.7945033" lon="11.5475133"><ele>839.0</ele><time>2026-04-18T12:00:47.77Z</time></trkpt><trkpt lat="42.794615" lon="11.5474483"><ele>839.0</ele><time>2026-04-18T12:00:48.769Z</time></trkpt><trkpt lat="42.7947983" lon="11.54753"><ele>839.0</ele><time>2026-04-18T12:00:49.769Z</time></trkpt><trkpt lat="42.7949467" lon="11.5476583"><ele>839.0</ele><time>2026-04-18T12:00:50.769Z</time></trkpt><trkpt lat="42.795075" lon="11.5478183"><ele>838.6666666666667</ele><time>2026-04-18T12:00:51.77Z</time></trkpt><trkpt lat="42.7951633" lon="11.5480317"><ele>838.3333333333333</ele><time>2026-04-18T12:00:52.769Z</time></trkpt><trkpt lat="42.7952183" lon="11.54828"><ele>838.0</ele><time>2026-04-18T12:00:53.77Z</time></trkpt><trkpt lat="42.7952733" lon="11.5485233"><ele>844.6666666666666</ele><time>2026-04-18T12:00:54.762Z</time></trkpt><trkpt lat="42.7953183" lon="11.5487533"><ele>851.3333333333333</ele><time>2026-04-18T12:00:55.767Z</time></trkpt><trkpt lat="42.795345" lon="11.548985"><ele>858.0</ele><time>2026-04-18T12:00:56.768Z</time></trkpt><trkpt lat="42.7953367" lon="11.5492217"><ele>858.0</ele><time>2026-04-18T12:00:57.765Z</time></trkpt><trkpt lat="42.7952933" lon="11.549425"><ele>858.0</ele><time>2026-04-18T12:00:58.761Z</time></trkpt><trkpt lat="42.7952267" lon="11.549585"><ele>858.0</ele><time>2026-04-18T12:00:59.765Z</time></trkpt><trkpt lat="42.795175" lon="11.5497167"><ele>858.0</ele><time>2026-04-18T12:01:00.77Z</time></trkpt><trkpt lat="42.7951717" lon="11.5498383"><ele>859.75</ele><time>2026-04-18T12:01:01.769Z</time></trkpt><trkpt lat="42.79519" lon="11.5499367"><ele>861.5</ele><time>2026-04-18T12:01:02.77Z</time></trkpt><trkpt lat="42.7953" lon="11.5499667"><ele>863.25</ele><time>2026-04-18T12:01:04.769Z</time></trkpt><trkpt lat="42.7954067" lon="11.549855"><ele>865.0</ele><time>2026-04-18T12:01:05.769Z</time></trkpt><trkpt lat="42.7955317" lon="11.54976"><ele>865.0</ele><time>2026-04-18T12:01:06.769Z</time></trkpt><trkpt lat="42.7956867" lon="11.5496967"><ele>865.0</ele><time>2026-04-18T12:01:07.77Z</time></trkpt><trkpt lat="42.7958083" lon="11.5496533"><ele>865.0</ele><time>2026-04-18T12:01:08.77Z</time></trkpt><trkpt lat="42.79591" lon="11.5496083"><ele>865.0</ele><time>2026-04-18T12:01:09.769Z</time></trkpt><trkpt lat="42.7959967" lon="11.5495183"><ele>867.5</ele><time>2026-04-18T12:01:10.765Z</time></trkpt><trkpt lat="42.7960717" lon="11.5494133"><ele>870.0</ele><time>2026-04-18T12:01:11.77Z</time></trkpt><trkpt lat="42.796135" lon="11.5492933"><ele>872.5</ele><time>2026-04-18T12:01:12.764Z</time></trkpt><trkpt lat="42.796135" lon="11.5491133"><ele>875.0</ele><time>2026-04-18T12:01:13.766Z</time></trkpt><trkpt lat="42.7961633" lon="11.5489117"><ele>875.0</ele><time>2026-04-18T12:01:14.769Z</time></trkpt><trkpt lat="42.796205" lon="11.5487267"><ele>875.0</ele><time>2026-04-18T12:01:15.771Z</time></trkpt><trkpt lat="42.796265" lon="11.5485933"><ele>875.0</ele><time>2026-04-18T12:01:16.766Z</time></trkpt><trkpt lat="42.7963283" lon="11.5484983"><ele>875.0</ele><time>2026-04-18T12:01:17.767Z</time></trkpt><trkpt lat="42.79637" lon="11.54842"><ele>875.0</ele><time>2026-04-18T12:01:18.768Z</time></trkpt><trkpt lat="42.79645" lon="11.5483967"><ele>874.75</ele><time>2026-04-18T12:01:19.767Z</time></trkpt><trkpt lat="42.7965033" lon="11.5483483"><ele>874.5</ele><time>2026-04-18T12:01:20.764Z</time></trkpt><trkpt lat="42.7965933" lon="11.5483367"><ele>874.25</ele><time>2026-04-18T12:01:21.766Z</time></trkpt><trkpt lat="42.7966883" lon="11.5484333"><ele>874.0</ele><time>2026-04-18T12:01:22.769Z</time></trkpt><trkpt lat="42.796735" lon="11.54867"><ele>874.5</ele><time>2026-04-18T12:01:23.766Z</time></trkpt><trkpt lat="42.7968117" lon="11.548855"><ele>875.0</ele><time>2026-04-18T12:01:24.768Z</time></trkpt><trkpt lat="42.7962933" lon="11.5499483"><ele>879.0</ele><time>2026-04-18T12:01:25.758Z</time></trkpt><trkpt lat="42.7962783" lon="11.5502"><ele>883.0</ele><time>2026-04-18T12:01:26.779Z</time></trkpt><trkpt lat="42.7963583" lon="11.5507"><ele>883.0</ele><time>2026-04-18T12:01:28.766Z</time></trkpt><trkpt lat="42.796455" lon="11.550935"><ele>883.0</ele><time>2026-04-18T12:01:29.772Z</time></trkpt><trkpt lat="42.7965717" lon="11.5511317"><ele>883.0</ele><time>2026-04-18T12:01:30.768Z</time></trkpt><trkpt lat="42.7967067" lon="11.5512833"><ele>880.6666666666666</ele><time>2026-04-18T12:01:31.775Z</time></trkpt><trkpt lat="42.7968417" lon="11.5514117"><ele>878.3333333333333</ele><time>2026-04-18T12:01:32.768Z</time></trkpt><trkpt lat="42.797035" lon="11.5513983"><ele>876.0</ele><time>2026-04-18T12:01:33.767Z</time></trkpt><trkpt lat="42.7972167" lon="11.551365"><ele>876.0</ele><time>2026-04-18T12:01:34.765Z</time></trkpt><trkpt lat="42.797425" lon="11.5513017"><ele>876.0</ele><time>2026-04-18T12:01:35.766Z</time></trkpt><trkpt lat="42.797625" lon="11.55123"><ele>876.0</ele><time>2026-04-18T12:01:36.767Z</time></trkpt><trkpt lat="42.79783" lon="11.5511317"><ele>875.6666666666667</ele><time>2026-04-18T12:01:37.766Z</time></trkpt><trkpt lat="42.7979967" lon="11.551015"><ele>875.3333333333334</ele><time>2026-04-18T12:01:38.77Z</time></trkpt><trkpt lat="42.7981167" lon="11.5508633"><ele>875.0</ele><time>2026-04-18T12:01:39.766Z</time></trkpt><trkpt lat="42.79818" lon="11.550665"><ele>875.0</ele><time>2026-04-18T12:01:40.765Z</time></trkpt><trkpt lat="42.79822" lon="11.5504817"><ele>875.0</ele><time>2026-04-18T12:01:41.767Z</time></trkpt><trkpt lat="42.7982833" lon="11.550315"><ele>875.0</ele><time>2026-04-18T12:01:42.762Z</time></trkpt><trkpt lat="42.7983783" lon="11.550185"><ele>875.0</ele><time>2026-04-18T12:01:43.764Z</time></trkpt><trkpt lat="42.798505" lon="11.5501033"><ele>877.3333333333334</ele><time>2026-04-18T12:01:44.767Z</time></trkpt><trkpt lat="42.7986483" lon="11.5500817"><ele>879.6666666666667</ele><time>2026-04-18T12:01:45.769Z</time></trkpt><trkpt lat="42.798805" lon="11.55011"><ele>882.0</ele><time>2026-04-18T12:01:46.762Z</time></trkpt><trkpt lat="42.798965" lon="11.550165"><ele>882.0</ele><time>2026-04-18T12:01:47.763Z</time></trkpt><trkpt lat="42.7991117" lon="11.5502333"><ele>882.0</ele><time>2026-04-18T12:01:48.77Z</time></trkpt><trkpt lat="42.7992583" lon="11.550295"><ele>882.0</ele><time>2026-04-18T12:01:49.767Z</time></trkpt><trkpt lat="42.7994067" lon="11.5503333"><ele>883.25</ele><time>2026-04-18T12:01:50.766Z</time></trkpt><trkpt lat="42.79955" lon="11.5503517"><ele>884.5</ele><time>2026-04-18T12:01:51.766Z</time></trkpt><trkpt lat="42.7997017" lon="11.5503517"><ele>885.75</ele><time>2026-04-18T12:01:52.769Z</time></trkpt><trkpt lat="42.79985" lon="11.55035"><ele>887.0</ele><time>2026-04-18T12:01:53.765Z</time></trkpt><trkpt lat="42.8000067" lon="11.5503417"><ele>888.3333333333334</ele><time>2026-04-18T12:01:54.769Z</time></trkpt><trkpt lat="42.8001683" lon="11.55034"><ele>889.6666666666667</ele><time>2026-04-18T12:01:55.765Z</time></trkpt><trkpt lat="42.8003283" lon="11.5503317"><ele>891.0</ele><time>2026-04-18T12:01:56.772Z</time></trkpt><trkpt lat="42.8004767" lon="11.55031"><ele>891.0</ele><time>2026-04-18T12:01:57.765Z</time></trkpt><trkpt lat="42.8006183" lon="11.5502867"><ele>891.0</ele><time>2026-04-18T12:01:58.767Z</time></trkpt><trkpt lat="42.800755" lon="11.5502817"><ele>891.0</ele><time>2026-04-18T12:01:59.77Z</time></trkpt><trkpt lat="42.8008833" lon="11.5503233"><ele>891.0</ele><time>2026-04-18T12:02:00.77Z</time></trkpt><trkpt lat="42.8009983" lon="11.55042"><ele>889.75</ele><time>2026-04-18T12:02:01.768Z</time></trkpt><trkpt lat="42.8010817" lon="11.5505617"><ele>888.5</ele><time>2026-04-18T12:02:02.769Z</time></trkpt><trkpt lat="42.8011517" lon="11.55071"><ele>887.25</ele><time>2026-04-18T12:02:03.771Z</time></trkpt><trkpt lat="42.8012467" lon="11.5508467"><ele>886.0</ele><time>2026-04-18T12:02:04.765Z</time></trkpt><trkpt lat="42.8013633" lon="11.550955"><ele>886.0</ele><time>2026-04-18T12:02:05.767Z</time></trkpt><trkpt lat="42.8014883" lon="11.5510467"><ele>886.0</ele><time>2026-04-18T12:02:06.768Z</time></trkpt><trkpt lat="42.8016217" lon="11.55113"><ele>886.0</ele><time>2026-04-18T12:02:07.771Z</time></trkpt><trkpt lat="42.8017567" lon="11.5512067"><ele>886.0</ele><time>2026-04-18T12:02:08.769Z</time></trkpt><trkpt lat="42.8018983" lon="11.5512667"><ele>884.3333333333333</ele><time>2026-04-18T12:02:09.771Z</time></trkpt><trkpt lat="42.8020433" lon="11.5513033"><ele>882.6666666666667</ele><time>2026-04-18T12:02:10.768Z</time></trkpt><trkpt lat="42.802195" lon="11.5513217"><ele>881.0</ele><time>2026-04-18T12:02:11.771Z</time></trkpt><trkpt lat="42.8023483" lon="11.5513317"><ele>881.0</ele><time>2026-04-18T12:02:12.766Z</time></trkpt><trkpt lat="42.802505" lon="11.55134"><ele>881.0</ele><time>2026-04-18T12:02:13.769Z</time></trkpt><trkpt lat="42.802665" lon="11.5513467"><ele>881.0</ele><time>2026-04-18T12:02:14.771Z</time></trkpt><trkpt lat="42.802825" lon="11.55135"><ele>881.6666666666667</ele><time>2026-04-18T12:02:15.766Z</time></trkpt><trkpt lat="42.80298" lon="11.5513533"><ele>882.3333333333333</ele><time>2026-04-18T12:02:16.769Z</time></trkpt><trkpt lat="42.8031383" lon="11.5513583"><ele>883.0</ele><time>2026-04-18T12:02:17.77Z</time></trkpt><trkpt lat="42.803295" lon="11.55136"><ele>883.0</ele><time>2026-04-18T12:02:18.77Z</time></trkpt><trkpt lat="42.80345" lon="11.5513683"><ele>883.0</ele><time>2026-04-18T12:02:19.768Z</time></trkpt><trkpt lat="42.803615" lon="11.5513783"><ele>883.0</ele><time>2026-04-18T12:02:20.773Z</time></trkpt><trkpt lat="42.8037833" lon="11.5513833"><ele>883.3333333333333</ele><time>2026-04-18T12:02:21.77Z</time></trkpt><trkpt lat="42.8039517" lon="11.5513833"><ele>883.6666666666667</ele><time>2026-04-18T12:02:22.769Z</time></trkpt><trkpt lat="42.8041183" lon="11.55139"><ele>884.0</ele><time>2026-04-18T12:02:23.77Z</time></trkpt><trkpt lat="42.804285" lon="11.5513967"><ele>884.6666666666667</ele><time>2026-04-18T12:02:24.768Z</time></trkpt><trkpt lat="42.80445" lon="11.5514033"><ele>885.3333333333333</ele><time>2026-04-18T12:02:25.767Z</time></trkpt><trkpt lat="42.8046083" lon="11.5514167"><ele>886.0</ele><time>2026-04-18T12:02:26.767Z</time></trkpt><trkpt lat="42.804765" lon="11.5514217"><ele>886.0</ele><time>2026-04-18T12:02:27.772Z</time></trkpt><trkpt lat="42.80492" lon="11.55144"><ele>886.0</ele><time>2026-04-18T12:02:28.762Z</time></trkpt><trkpt lat="42.8050733" lon="11.5514983"><ele>886.0</ele><time>2026-04-18T12:02:29.766Z</time></trkpt><trkpt lat="42.8052133" lon="11.5515983"><ele>887.25</ele><time>2026-04-18T12:02:30.768Z</time></trkpt><trkpt lat="42.8053433" lon="11.5517133"><ele>888.5</ele><time>2026-04-18T12:02:31.767Z</time></trkpt><trkpt lat="42.8054717" lon="11.55182"><ele>889.75</ele><time>2026-04-18T12:02:32.767Z</time></trkpt><trkpt lat="42.8055967" lon="11.551915"><ele>891.0</ele><time>2026-04-18T12:02:33.764Z</time></trkpt><trkpt lat="42.8057317" lon="11.5520017"><ele>888.3333333333333</ele><time>2026-04-18T12:02:34.769Z</time></trkpt><trkpt lat="42.8058767" lon="11.5520733"><ele>885.6666666666666</ele><time>2026-04-18T12:02:35.769Z</time></trkpt><trkpt lat="42.8060267" lon="11.5521317"><ele>883.0</ele><time>2026-04-18T12:02:36.771Z</time></trkpt><trkpt lat="42.8061817" lon="11.5521833"><ele>882.6666666666666</ele><time>2026-04-18T12:02:37.769Z</time></trkpt><trkpt lat="42.806345" lon="11.55223"><ele>882.3333333333333</ele><time>2026-04-18T12:02:38.77Z</time></trkpt><trkpt lat="42.8065133" lon="11.5522717"><ele>882.0</ele><time>2026-04-18T12:02:39.768Z</time></trkpt><trkpt lat="42.8066833" lon="11.5523117"><ele>883.0</ele><time>2026-04-18T12:02:40.765Z</time></trkpt><trkpt lat="42.8068567" lon="11.5523567"><ele>884.0</ele><time>2026-04-18T12:02:41.766Z</time></trkpt><trkpt lat="42.8070217" lon="11.5523983"><ele>885.0</ele><time>2026-04-18T12:02:42.767Z</time></trkpt><trkpt lat="42.8071867" lon="11.55243"><ele>885.0</ele><time>2026-04-18T12:02:43.768Z</time></trkpt><trkpt lat="42.8073483" lon="11.5524533"><ele>885.0</ele><time>2026-04-18T12:02:44.77Z</time></trkpt><trkpt lat="42.8075033" lon="11.5524567"><ele>885.0</ele><time>2026-04-18T12:02:45.758Z</time></trkpt><trkpt lat="42.807655" lon="11.5524467"><ele>885.75</ele><time>2026-04-18T12:02:46.768Z</time></trkpt><trkpt lat="42.8078" lon="11.55244"><ele>886.5</ele><time>2026-04-18T12:02:47.769Z</time></trkpt><trkpt lat="42.8079383" lon="11.552445"><ele>887.25</ele><time>2026-04-18T12:02:48.768Z</time></trkpt><trkpt lat="42.8080683" lon="11.5524783"><ele>888.0</ele><time>2026-04-18T12:02:49.769Z</time></trkpt><trkpt lat="42.8081867" lon="11.5525483"><ele>888.0</ele><time>2026-04-18T12:02:50.773Z</time></trkpt><trkpt lat="42.808275" lon="11.5526567"><ele>888.0</ele><time>2026-04-18T12:02:51.768Z</time></trkpt><trkpt lat="42.808375" lon="11.5527483"><ele>888.0</ele><time>2026-04-18T12:02:52.77Z</time></trkpt><trkpt lat="42.8084833" lon="11.55282"><ele>888.0</ele><time>2026-04-18T12:02:53.768Z</time></trkpt><trkpt lat="42.8085983" lon="11.5528233"><ele>886.25</ele><time>2026-04-18T12:02:54.766Z</time></trkpt><trkpt lat="42.8087117" lon="11.5527933"><ele>884.5</ele><time>2026-04-18T12:02:55.763Z</time></trkpt><trkpt lat="42.8088217" lon="11.552705"><ele>882.75</ele><time>2026-04-18T12:02:56.773Z</time></trkpt><trkpt lat="42.8089267" lon="11.5526"><ele>881.0</ele><time>2026-04-18T12:02:57.768Z</time></trkpt><trkpt lat="42.8090133" lon="11.55249"><ele>881.0</ele><time>2026-04-18T12:02:58.764Z</time></trkpt><trkpt lat="42.8091" lon="11.5523833"><ele>880.9999999999999</ele><time>2026-04-18T12:02:59.769Z</time></trkpt><trkpt lat="42.80919" lon="11.5523067"><ele>880.9999999999999</ele><time>2026-04-18T12:03:00.769Z</time></trkpt><trkpt lat="42.8092767" lon="11.552265"><ele>881.0</ele><time>2026-04-18T12:03:01.769Z</time></trkpt><trkpt lat="42.809385" lon="11.5522733"><ele>881.0</ele><time>2026-04-18T12:03:02.765Z</time></trkpt><trkpt lat="42.8095" lon="11.5523167"><ele>882.25</ele><time>2026-04-18T12:03:03.763Z</time></trkpt><trkpt lat="42.809625" lon="11.5523717"><ele>883.5</ele><time>2026-04-18T12:03:04.769Z</time></trkpt><trkpt lat="42.8097583" lon="11.5524267"><ele>884.75</ele><time>2026-04-18T12:03:05.771Z</time></trkpt><trkpt lat="42.80989" lon="11.552495"><ele>886.0</ele><time>2026-04-18T12:03:06.769Z</time></trkpt><trkpt lat="42.8100283" lon="11.55258"><ele>886.3333333333333</ele><time>2026-04-18T12:03:07.768Z</time></trkpt><trkpt lat="42.81016" lon="11.5526833"><ele>886.6666666666667</ele><time>2026-04-18T12:03:08.772Z</time></trkpt><trkpt lat="42.8102783" lon="11.5528217"><ele>887.0</ele><time>2026-04-18T12:03:09.767Z</time></trkpt><trkpt lat="42.8103917" lon="11.5529867"><ele>887.0</ele><time>2026-04-18T12:03:10.767Z</time></trkpt><trkpt lat="42.8104967" lon="11.55317"><ele>887.0</ele><time>2026-04-18T12:03:11.769Z</time></trkpt><trkpt lat="42.8106017" lon="11.5533633"><ele>887.0</ele><time>2026-04-18T12:03:12.77Z</time></trkpt><trkpt lat="42.81071" lon="11.5535517"><ele>888.3333333333334</ele><time>2026-04-18T12:03:13.772Z</time></trkpt><trkpt lat="42.8108167" lon="11.5537433"><ele>889.6666666666667</ele><time>2026-04-18T12:03:14.77Z</time></trkpt><trkpt lat="42.8109233" lon="11.5539433"><ele>891.0</ele><time>2026-04-18T12:03:15.77Z</time></trkpt><trkpt lat="42.8110267" lon="11.5541467"><ele>891.0</ele><time>2026-04-18T12:03:16.77Z</time></trkpt><trkpt lat="42.811125" lon="11.5543283"><ele>891.0</ele><time>2026-04-18T12:03:17.77Z</time></trkpt><trkpt lat="42.8112167" lon="11.5544933"><ele>891.0</ele><time>2026-04-18T12:03:18.767Z</time></trkpt><trkpt lat="42.8113083" lon="11.55462"><ele>891.0</ele><time>2026-04-18T12:03:19.768Z</time></trkpt><trkpt lat="42.811405" lon="11.5547133"><ele>888.4</ele><time>2026-04-18T12:03:20.769Z</time></trkpt><trkpt lat="42.811505" lon="11.554755"><ele>885.8</ele><time>2026-04-18T12:03:21.771Z</time></trkpt><trkpt lat="42.8116167" lon="11.5547583"><ele>883.1999999999999</ele><time>2026-04-18T12:03:22.77Z</time></trkpt><trkpt lat="42.81173" lon="11.55473"><ele>880.5999999999999</ele><time>2026-04-18T12:03:23.771Z</time></trkpt><trkpt lat="42.8118367" lon="11.5546617"><ele>878.0</ele><time>2026-04-18T12:03:24.769Z</time></trkpt><trkpt lat="42.811945" lon="11.5545717"><ele>878.5</ele><time>2026-04-18T12:03:25.769Z</time></trkpt><trkpt lat="42.8120533" lon="11.5544683"><ele>879.0</ele><time>2026-04-18T12:03:26.768Z</time></trkpt><trkpt lat="42.8121667" lon="11.5543617"><ele>879.5</ele><time>2026-04-18T12:03:27.766Z</time></trkpt><trkpt lat="42.812285" lon="11.5542533"><ele>880.0</ele><time>2026-04-18T12:03:28.767Z</time></trkpt><trkpt lat="42.8124083" lon="11.55414"><ele>880.0</ele><time>2026-04-18T12:03:29.77Z</time></trkpt><trkpt lat="42.81253" lon="11.5540167"><ele>880.0</ele><time>2026-04-18T12:03:30.771Z</time></trkpt><trkpt lat="42.812645" lon="11.5538717"><ele>880.0</ele><time>2026-04-18T12:03:31.77Z</time></trkpt><trkpt lat="42.8127533" lon="11.5537117"><ele>877.0</ele><time>2026-04-18T12:03:32.768Z</time></trkpt><trkpt lat="42.812855" lon="11.5535433"><ele>874.0</ele><time>2026-04-18T12:03:33.768Z</time></trkpt><trkpt lat="42.8129517" lon="11.55338"><ele>871.0</ele><time>2026-04-18T12:03:34.767Z</time></trkpt><trkpt lat="42.81304" lon="11.553235"><ele>871.0</ele><time>2026-04-18T12:03:35.768Z</time></trkpt><trkpt lat="42.81313" lon="11.55311"><ele>871.0</ele><time>2026-04-18T12:03:36.761Z</time></trkpt><trkpt lat="42.8132283" lon="11.5530183"><ele>871.0</ele><time>2026-04-18T12:03:37.757Z</time></trkpt><trkpt lat="42.8133283" lon="11.5529683"><ele>871.0</ele><time>2026-04-18T12:03:38.769Z</time></trkpt><trkpt lat="42.81345" lon="11.552965"><ele>871.25</ele><time>2026-04-18T12:03:39.768Z</time></trkpt><trkpt lat="42.81358" lon="11.55299"><ele>871.5</ele><time>2026-04-18T12:03:40.767Z</time></trkpt><trkpt lat="42.8137183" lon="11.553025"><ele>871.75</ele><time>2026-04-18T12:03:41.765Z</time></trkpt><trkpt lat="42.8138617" lon="11.553065"><ele>872.0</ele><time>2026-04-18T12:03:42.771Z</time></trkpt><trkpt lat="42.8140117" lon="11.5531"><ele>872.0</ele><time>2026-04-18T12:03:43.769Z</time></trkpt><trkpt lat="42.81417" lon="11.5531333"><ele>872.0</ele><time>2026-04-18T12:03:44.769Z</time></trkpt><trkpt lat="42.81433" lon="11.553165"><ele>872.0</ele><time>2026-04-18T12:03:45.767Z</time></trkpt><trkpt lat="42.8144883" lon="11.55319"><ele>870.0</ele><time>2026-04-18T12:03:46.77Z</time></trkpt><trkpt lat="42.8146583" lon="11.55321"><ele>868.0</ele><time>2026-04-18T12:03:47.769Z</time></trkpt><trkpt lat="42.81483" lon="11.5532233"><ele>866.0</ele><time>2026-04-18T12:03:48.764Z</time></trkpt><trkpt lat="42.8149983" lon="11.5532267"><ele>864.6666666666667</ele><time>2026-04-18T12:03:49.769Z</time></trkpt><trkpt lat="42.8151667" lon="11.5532233"><ele>863.3333333333333</ele><time>2026-04-18T12:03:50.767Z</time></trkpt><trkpt lat="42.815335" lon="11.5532183"><ele>862.0</ele><time>2026-04-18T12:03:51.77Z</time></trkpt><trkpt lat="42.8154983" lon="11.5532133"><ele>862.0</ele><time>2026-04-18T12:03:52.767Z</time></trkpt><trkpt lat="42.8156567" lon="11.5531983"><ele>862.0</ele><time>2026-04-18T12:03:53.771Z</time></trkpt><trkpt lat="42.8158067" lon="11.5531617"><ele>862.0</ele><time>2026-04-18T12:03:54.771Z</time></trkpt><trkpt lat="42.8159433" lon="11.5530917"><ele>862.5</ele><time>2026-04-18T12:03:55.766Z</time></trkpt><trkpt lat="42.8160683" lon="11.5530033"><ele>863.0</ele><time>2026-04-18T12:03:56.771Z</time></trkpt><trkpt lat="42.81619" lon="11.552915"><ele>863.5</ele><time>2026-04-18T12:03:57.766Z</time></trkpt><trkpt lat="42.81631" lon="11.5528567"><ele>864.0</ele><time>2026-04-18T12:03:58.769Z</time></trkpt><trkpt lat="42.8164283" lon="11.5528433"><ele>864.0</ele><time>2026-04-18T12:03:59.769Z</time></trkpt><trkpt lat="42.8165533" lon="11.5528617"><ele>864.0</ele><time>2026-04-18T12:04:00.769Z</time></trkpt><trkpt lat="42.8166817" lon="11.552855"><ele>864.0</ele><time>2026-04-18T12:04:01.771Z</time></trkpt><trkpt lat="42.816805" lon="11.5528"><ele>864.0</ele><time>2026-04-18T12:04:02.769Z</time></trkpt><trkpt lat="42.8169183" lon="11.5527083"><ele>860.75</ele><time>2026-04-18T12:04:03.769Z</time></trkpt><trkpt lat="42.8170133" lon="11.5525883"><ele>857.5</ele><time>2026-04-18T12:04:04.769Z</time></trkpt><trkpt lat="42.8170817" lon="11.552445"><ele>854.25</ele><time>2026-04-18T12:04:05.769Z</time></trkpt><trkpt lat="42.81714" lon="11.5523017"><ele>851.0</ele><time>2026-04-18T12:04:06.772Z</time></trkpt><trkpt lat="42.8172083" lon="11.5521733"><ele>851.0</ele><time>2026-04-18T12:04:07.77Z</time></trkpt><trkpt lat="42.81728" lon="11.5520717"><ele>851.0</ele><time>2026-04-18T12:04:08.772Z</time></trkpt><trkpt lat="42.8173667" lon="11.5519983"><ele>851.0</ele><time>2026-04-18T12:04:09.77Z</time></trkpt><trkpt lat="42.8174783" lon="11.551975"><ele>851.0</ele><time>2026-04-18T12:04:10.77Z</time></trkpt><trkpt lat="42.81761" lon="11.5519933"><ele>850.0</ele><time>2026-04-18T12:04:11.769Z</time></trkpt><trkpt lat="42.8177533" lon="11.5520333"><ele>849.0</ele><time>2026-04-18T12:04:12.764Z</time></trkpt><trkpt lat="42.8179" lon="11.55208"><ele>848.0</ele><time>2026-04-18T12:04:13.766Z</time></trkpt><trkpt lat="42.81804" lon="11.552115"><ele>847.0</ele><time>2026-04-18T12:04:14.772Z</time></trkpt><trkpt lat="42.8181883" lon="11.5521867"><ele>847.0</ele><time>2026-04-18T12:04:15.771Z</time></trkpt><trkpt lat="42.8183317" lon="11.552265"><ele>847.0</ele><time>2026-04-18T12:04:16.768Z</time></trkpt><trkpt lat="42.8184483" lon="11.5523633"><ele>847.0</ele><time>2026-04-18T12:04:17.767Z</time></trkpt><trkpt lat="42.8185633" lon="11.5524633"><ele>847.0</ele><time>2026-04-18T12:04:18.77Z</time></trkpt><trkpt lat="42.8186667" lon="11.5525667"><ele>848.0</ele><time>2026-04-18T12:04:19.767Z</time></trkpt><trkpt lat="42.8187733" lon="11.55265"><ele>849.0</ele><time>2026-04-18T12:04:20.768Z</time></trkpt><trkpt lat="42.8188967" lon="11.5527"><ele>850.0</ele><time>2026-04-18T12:04:21.769Z</time></trkpt><trkpt lat="42.81902" lon="11.5527067"><ele>851.0</ele><time>2026-04-18T12:04:22.767Z</time></trkpt><trkpt lat="42.819155" lon="11.5526983"><ele>851.0</ele><time>2026-04-18T12:04:23.763Z</time></trkpt><trkpt lat="42.819295" lon="11.5526833"><ele>851.0</ele><time>2026-04-18T12:04:24.772Z</time></trkpt><trkpt lat="42.8194367" lon="11.552665"><ele>851.0</ele><time>2026-04-18T12:04:25.771Z</time></trkpt><trkpt lat="42.8195783" lon="11.552635"><ele>851.0</ele><time>2026-04-18T12:04:26.769Z</time></trkpt><trkpt lat="42.8197167" lon="11.5525883"><ele>849.25</ele><time>2026-04-18T12:04:27.766Z</time></trkpt><trkpt lat="42.8198533" lon="11.5525217"><ele>847.5</ele><time>2026-04-18T12:04:28.77Z</time></trkpt><trkpt lat="42.8199833" lon="11.552445"><ele>845.75</ele><time>2026-04-18T12:04:29.77Z</time></trkpt><trkpt lat="42.8201067" lon="11.552365"><ele>844.0</ele><time>2026-04-18T12:04:30.767Z</time></trkpt><trkpt lat="42.8202267" lon="11.5522833"><ele>844.25</ele><time>2026-04-18T12:04:31.769Z</time></trkpt><trkpt lat="42.8203233" lon="11.552185"><ele>844.5</ele><time>2026-04-18T12:04:32.773Z</time></trkpt><trkpt lat="42.82041" lon="11.5520667"><ele>844.75</ele><time>2026-04-18T12:04:33.768Z</time></trkpt><trkpt lat="42.8204867" lon="11.5519333"><ele>845.0</ele><time>2026-04-18T12:04:34.767Z</time></trkpt><trkpt lat="42.8205683" lon="11.5517983"><ele>845.0</ele><time>2026-04-18T12:04:35.77Z</time></trkpt><trkpt lat="42.8206567" lon="11.5516667"><ele>845.0</ele><time>2026-04-18T12:04:36.771Z</time></trkpt><trkpt lat="42.8207567" lon="11.5515383"><ele>845.0</ele><time>2026-04-18T12:04:37.766Z</time></trkpt><trkpt lat="42.82086" lon="11.5514167"><ele>845.0</ele><time>2026-04-18T12:04:38.77Z</time></trkpt><trkpt lat="42.820965" lon="11.5512967"><ele>843.5</ele><time>2026-04-18T12:04:39.77Z</time></trkpt><trkpt lat="42.8210733" lon="11.551175"><ele>842.0</ele><time>2026-04-18T12:04:40.765Z</time></trkpt><trkpt lat="42.821185" lon="11.5510483"><ele>840.5</ele><time>2026-04-18T12:04:41.769Z</time></trkpt><trkpt lat="42.8213017" lon="11.5509233"><ele>839.0</ele><time>2026-04-18T12:04:42.766Z</time></trkpt><trkpt lat="42.821415" lon="11.5507983"><ele>839.0</ele><time>2026-04-18T12:04:43.769Z</time></trkpt><trkpt lat="42.82153" lon="11.55067"><ele>839.0</ele><time>2026-04-18T12:04:44.77Z</time></trkpt><trkpt lat="42.8216467" lon="11.5505417"><ele>839.0</ele><time>2026-04-18T12:04:45.77Z</time></trkpt><trkpt lat="42.8217667" lon="11.55041"><ele>839.0</ele><time>2026-04-18T12:04:46.767Z</time></trkpt><trkpt lat="42.8218867" lon="11.550275"><ele>839.0</ele><time>2026-04-18T12:04:47.769Z</time></trkpt><trkpt lat="42.8220017" lon="11.5501433"><ele>839.0</ele><time>2026-04-18T12:04:48.77Z</time></trkpt><trkpt lat="42.8221217" lon="11.5500233"><ele>839.0</ele><time>2026-04-18T12:04:49.77Z</time></trkpt><trkpt lat="42.822255" lon="11.5499183"><ele>839.0</ele><time>2026-04-18T12:04:50.769Z</time></trkpt><trkpt lat="42.822405" lon="11.5498233"><ele>839.0</ele><time>2026-04-18T12:04:51.771Z</time></trkpt><trkpt lat="42.822555" lon="11.5497417"><ele>838.6666666666667</ele><time>2026-04-18T12:04:52.763Z</time></trkpt><trkpt lat="42.8227067" lon="11.549665"><ele>838.3333333333333</ele><time>2026-04-18T12:04:53.77Z</time></trkpt><trkpt lat="42.8228533" lon="11.54959"><ele>838.0</ele><time>2026-04-18T12:04:54.769Z</time></trkpt><trkpt lat="42.822995" lon="11.5495183"><ele>838.0</ele><time>2026-04-18T12:04:55.77Z</time></trkpt><trkpt lat="42.8231333" lon="11.5494483"><ele>838.0</ele><time>2026-04-18T12:04:56.772Z</time></trkpt><trkpt lat="42.8232633" lon="11.549375"><ele>838.0</ele><time>2026-04-18T12:04:57.768Z</time></trkpt><trkpt lat="42.8233817" lon="11.5492833"><ele>838.0</ele><time>2026-04-18T12:04:58.768Z</time></trkpt><trkpt lat="42.8234883" lon="11.54917"><ele>833.5</ele><time>2026-04-18T12:04:59.77Z</time></trkpt><trkpt lat="42.8235633" lon="11.5490317"><ele>829.0</ele><time>2026-04-18T12:05:00.772Z</time></trkpt><trkpt lat="42.823605" lon="11.5488667"><ele>824.5</ele><time>2026-04-18T12:05:01.766Z</time></trkpt><trkpt lat="42.8236183" lon="11.54869"><ele>820.0</ele><time>2026-04-18T12:05:02.769Z</time></trkpt><trkpt lat="42.8236183" lon="11.548515"><ele>820.0</ele><time>2026-04-18T12:05:03.77Z</time></trkpt><trkpt lat="42.823595" lon="11.5483433"><ele>820.0</ele><time>2026-04-18T12:05:04.767Z</time></trkpt><trkpt lat="42.82355" lon="11.5481733"><ele>820.0</ele><time>2026-04-18T12:05:05.766Z</time></trkpt><trkpt lat="42.8234867" lon="11.5480183"><ele>820.0</ele><time>2026-04-18T12:05:06.77Z</time></trkpt><trkpt lat="42.8234" lon="11.5478767"><ele>824.4</ele><time>2026-04-18T12:05:07.771Z</time></trkpt><trkpt lat="42.82333" lon="11.5477483"><ele>828.8</ele><time>2026-04-18T12:05:08.77Z</time></trkpt><trkpt lat="42.82329" lon="11.54763"><ele>833.2</ele><time>2026-04-18T12:05:09.77Z</time></trkpt><trkpt lat="42.8232817" lon="11.5475217"><ele>837.6</ele><time>2026-04-18T12:05:10.769Z</time></trkpt><trkpt lat="42.82332" lon="11.54743"><ele>842.0</ele><time>2026-04-18T12:05:11.769Z</time></trkpt><trkpt lat="42.8233817" lon="11.5473583"><ele>842.0</ele><time>2026-04-18T12:05:12.766Z</time></trkpt><trkpt lat="42.823455" lon="11.5473117"><ele>842.0</ele><time>2026-04-18T12:05:13.768Z</time></trkpt><trkpt lat="42.8235517" lon="11.5472983"><ele>842.0</ele><time>2026-04-18T12:05:14.773Z</time></trkpt><trkpt lat="42.8236767" lon="11.5473267"><ele>842.0</ele><time>2026-04-18T12:05:15.771Z</time></trkpt><trkpt lat="42.8238333" lon="11.5473767"><ele>839.5</ele><time>2026-04-18T12:05:16.765Z</time></trkpt><trkpt lat="42.82398" lon="11.547395"><ele>837.0</ele><time>2026-04-18T12:05:17.765Z</time></trkpt><trkpt lat="42.82412" lon="11.5473633"><ele>834.5</ele><time>2026-04-18T12:05:18.771Z</time></trkpt><trkpt lat="42.8242533" lon="11.5472833"><ele>832.0</ele><time>2026-04-18T12:05:19.769Z</time></trkpt><trkpt lat="42.8243867" lon="11.5471817"><ele>833.5</ele><time>2026-04-18T12:05:20.771Z</time></trkpt><trkpt lat="42.8245067" lon="11.5470617"><ele>835.0</ele><time>2026-04-18T12:05:21.77Z</time></trkpt><trkpt lat="42.8246183" lon="11.5469183"><ele>836.5</ele><time>2026-04-18T12:05:22.765Z</time></trkpt><trkpt lat="42.82473" lon="11.5467883"><ele>838.0</ele><time>2026-04-18T12:05:23.769Z</time></trkpt><trkpt lat="42.8248417" lon="11.5466767"><ele>838.0</ele><time>2026-04-18T12:05:24.772Z</time></trkpt><trkpt lat="42.8249667" lon="11.5465883"><ele>838.0</ele><time>2026-04-18T12:05:25.77Z</time></trkpt><trkpt lat="42.8251117" lon="11.5465367"><ele>838.0</ele><time>2026-04-18T12:05:26.774Z</time></trkpt><trkpt lat="42.8252617" lon="11.5465283"><ele>838.0</ele><time>2026-04-18T12:05:27.77Z</time></trkpt><trkpt lat="42.8254117" lon="11.546565"><ele>837.6666666666666</ele><time>2026-04-18T12:05:28.766Z</time></trkpt><trkpt lat="42.82556" lon="11.5466067"><ele>837.3333333333333</ele><time>2026-04-18T12:05:29.77Z</time></trkpt><trkpt lat="42.8257133" lon="11.546625"><ele>837.0</ele><time>2026-04-18T12:05:30.773Z</time></trkpt><trkpt lat="42.82588" lon="11.5466117"><ele>834.6666666666667</ele><time>2026-04-18T12:05:31.769Z</time></trkpt><trkpt lat="42.8260517" lon="11.5465733"><ele>832.3333333333334</ele><time>2026-04-18T12:05:32.77Z</time></trkpt><trkpt lat="42.82622" lon="11.5465167"><ele>830.0</ele><time>2026-04-18T12:05:33.77Z</time></trkpt><trkpt lat="42.82638" lon="11.5464333"><ele>830.0</ele><time>2026-04-18T12:05:34.765Z</time></trkpt><trkpt lat="42.8265317" lon="11.5463233"><ele>830.0</ele><time>2026-04-18T12:05:35.77Z</time></trkpt><trkpt lat="42.8266767" lon="11.5461883"><ele>830.0</ele><time>2026-04-18T12:05:36.77Z</time></trkpt><trkpt lat="42.82682" lon="11.5460333"><ele>832.6666666666667</ele><time>2026-04-18T12:05:37.77Z</time></trkpt><trkpt lat="42.8269667" lon="11.54588"><ele>835.3333333333333</ele><time>2026-04-18T12:05:38.771Z</time></trkpt><trkpt lat="42.8271117" lon="11.5457367"><ele>838.0</ele><time>2026-04-18T12:05:39.769Z</time></trkpt><trkpt lat="42.827245" lon="11.54561"><ele>838.0</ele><time>2026-04-18T12:05:40.765Z</time></trkpt><trkpt lat="42.8273633" lon="11.545505"><ele>838.0</ele><time>2026-04-18T12:05:41.771Z</time></trkpt><trkpt lat="42.8274717" lon="11.5454367"><ele>838.0</ele><time>2026-04-18T12:05:42.77Z</time></trkpt><trkpt lat="42.8275833" lon="11.545415"><ele>838.0</ele><time>2026-04-18T12:05:43.768Z</time></trkpt><trkpt lat="42.827705" lon="11.5454367"><ele>837.75</ele><time>2026-04-18T12:05:44.771Z</time></trkpt><trkpt lat="42.8278333" lon="11.5454933"><ele>837.5</ele><time>2026-04-18T12:05:45.769Z</time></trkpt><trkpt lat="42.8279683" lon="11.54556"><ele>837.25</ele><time>2026-04-18T12:05:46.77Z</time></trkpt><trkpt lat="42.8281117" lon="11.5456033"><ele>837.0</ele><time>2026-04-18T12:05:47.77Z</time></trkpt><trkpt lat="42.8282567" lon="11.5456017"><ele>837.0</ele><time>2026-04-18T12:05:48.771Z</time></trkpt><trkpt lat="42.828385" lon="11.5455383"><ele>837.0</ele><time>2026-04-18T12:05:49.766Z</time></trkpt><trkpt lat="42.8285033" lon="11.5454133"><ele>837.0</ele><time>2026-04-18T12:05:50.77Z</time></trkpt><trkpt lat="42.82863" lon="11.54524"><ele>836.3333333333333</ele><time>2026-04-18T12:05:51.77Z</time></trkpt><trkpt lat="42.8287517" lon="11.54506"><ele>835.6666666666666</ele><time>2026-04-18T12:05:52.769Z</time></trkpt><trkpt lat="42.8288783" lon="11.5448767"><ele>835.0</ele><time>2026-04-18T12:05:53.771Z</time></trkpt><trkpt lat="42.829" lon="11.5446833"><ele>839.6666666666666</ele><time>2026-04-18T12:05:54.77Z</time></trkpt><trkpt lat="42.8290983" lon="11.5444733"><ele>844.3333333333333</ele><time>2026-04-18T12:05:55.771Z</time></trkpt><trkpt lat="42.8291783" lon="11.5442567"><ele>849.0</ele><time>2026-04-18T12:05:56.772Z</time></trkpt><trkpt lat="42.8292433" lon="11.54404"><ele>849.0</ele><time>2026-04-18T12:05:57.766Z</time></trkpt><trkpt lat="42.8293033" lon="11.5438417"><ele>849.0</ele><time>2026-04-18T12:05:58.766Z</time></trkpt><trkpt lat="42.82938" lon="11.5436717"><ele>849.0</ele><time>2026-04-18T12:05:59.771Z</time></trkpt><trkpt lat="42.8294783" lon="11.5435333"><ele>849.0</ele><time>2026-04-18T12:06:00.772Z</time></trkpt><trkpt lat="42.8296017" lon="11.5434417"><ele>849.0</ele><time>2026-04-18T12:06:01.77Z</time></trkpt><trkpt lat="42.8297533" lon="11.543395"><ele>849.0</ele><time>2026-04-18T12:06:02.768Z</time></trkpt><trkpt lat="42.8299167" lon="11.5434"><ele>849.0</ele><time>2026-04-18T12:06:03.769Z</time></trkpt><trkpt lat="42.8300817" lon="11.5434417"><ele>847.3333333333333</ele><time>2026-04-18T12:06:04.77Z</time></trkpt><trkpt lat="42.8302467" lon="11.5434617"><ele>845.6666666666666</ele><time>2026-04-18T12:06:05.77Z</time></trkpt><trkpt lat="42.830415" lon="11.5434267"><ele>844.0</ele><time>2026-04-18T12:06:06.774Z</time></trkpt><trkpt lat="42.8305883" lon="11.5433483"><ele>844.0</ele><time>2026-04-18T12:06:07.769Z</time></trkpt><trkpt lat="42.83076" lon="11.5432417"><ele>844.0</ele><time>2026-04-18T12:06:08.771Z</time></trkpt><trkpt lat="42.83093" lon="11.5431433"><ele>844.0</ele><time>2026-04-18T12:06:09.77Z</time></trkpt><trkpt lat="42.83109" lon="11.5430617"><ele>844.3333333333333</ele><time>2026-04-18T12:06:10.769Z</time></trkpt><trkpt lat="42.831255" lon="11.5430017"><ele>844.6666666666667</ele><time>2026-04-18T12:06:11.769Z</time></trkpt><trkpt lat="42.83142" lon="11.5429933"><ele>845.0</ele><time>2026-04-18T12:06:12.769Z</time></trkpt><trkpt lat="42.83158" lon="11.5430367"><ele>845.0</ele><time>2026-04-18T12:06:13.769Z</time></trkpt><trkpt lat="42.8317367" lon="11.5431283"><ele>845.0</ele><time>2026-04-18T12:06:14.771Z</time></trkpt><trkpt lat="42.831885" lon="11.5432417"><ele>845.0</ele><time>2026-04-18T12:06:15.769Z</time></trkpt><trkpt lat="42.8320283" lon="11.54337"><ele>845.6666666666667</ele><time>2026-04-18T12:06:16.766Z</time></trkpt><trkpt lat="42.8321617" lon="11.5435267"><ele>846.3333333333333</ele><time>2026-04-18T12:06:17.769Z</time></trkpt><trkpt lat="42.832265" lon="11.5437183"><ele>847.0</ele><time>2026-04-18T12:06:18.767Z</time></trkpt><trkpt lat="42.8323367" lon="11.5439417"><ele>847.0</ele><time>2026-04-18T12:06:19.77Z</time></trkpt><trkpt lat="42.8323917" lon="11.544175"><ele>847.0</ele><time>2026-04-18T12:06:20.771Z</time></trkpt><trkpt lat="42.832445" lon="11.5444067"><ele>847.0</ele><time>2026-04-18T12:06:21.768Z</time></trkpt><trkpt lat="42.8325167" lon="11.5446367"><ele>846.0</ele><time>2026-04-18T12:06:22.77Z</time></trkpt><trkpt lat="42.83262" lon="11.5448467"><ele>845.0</ele><time>2026-04-18T12:06:23.77Z</time></trkpt><trkpt lat="42.8327367" lon="11.545045"><ele>844.0</ele><time>2026-04-18T12:06:24.768Z</time></trkpt><trkpt lat="42.8328583" lon="11.5452383"><ele>846.3333333333333</ele><time>2026-04-18T12:06:25.766Z</time></trkpt><trkpt lat="42.8329833" lon="11.5454317"><ele>848.6666666666667</ele><time>2026-04-18T12:06:26.771Z</time></trkpt><trkpt lat="42.8331067" lon="11.5456183"><ele>851.0</ele><time>2026-04-18T12:06:27.769Z</time></trkpt><trkpt lat="42.83323" lon="11.545805"><ele>851.0</ele><time>2026-04-18T12:06:28.769Z</time></trkpt><trkpt lat="42.8333483" lon="11.5459783"><ele>851.0</ele><time>2026-04-18T12:06:29.771Z</time></trkpt><trkpt lat="42.833465" lon="11.5461467"><ele>851.0</ele><time>2026-04-18T12:06:30.77Z</time></trkpt><trkpt lat="42.8335817" lon="11.5463033"><ele>850.6666666666667</ele><time>2026-04-18T12:06:31.771Z</time></trkpt><trkpt lat="42.8337083" lon="11.54643"><ele>850.3333333333333</ele><time>2026-04-18T12:06:32.772Z</time></trkpt><trkpt lat="42.8338467" lon="11.5465083"><ele>850.0</ele><time>2026-04-18T12:06:33.771Z</time></trkpt><trkpt lat="42.8339917" lon="11.5465283"><ele>850.0</ele><time>2026-04-18T12:06:34.769Z</time></trkpt><trkpt lat="42.8341417" lon="11.54651"><ele>850.0</ele><time>2026-04-18T12:06:35.772Z</time></trkpt><trkpt lat="42.8342867" lon="11.546485"><ele>850.0</ele><time>2026-04-18T12:06:36.771Z</time></trkpt><trkpt lat="42.8344233" lon="11.5464783"><ele>850.0</ele><time>2026-04-18T12:06:37.77Z</time></trkpt><trkpt lat="42.83454" lon="11.5465217"><ele>851.0</ele><time>2026-04-18T12:06:38.771Z</time></trkpt><trkpt lat="42.8346267" lon="11.54663"><ele>852.0</ele><time>2026-04-18T12:06:39.772Z</time></trkpt><trkpt lat="42.8347" lon="11.5467817"><ele>853.0</ele><time>2026-04-18T12:06:40.771Z</time></trkpt><trkpt lat="42.8347483" lon="11.5469767"><ele>854.0</ele><time>2026-04-18T12:06:41.769Z</time></trkpt><trkpt lat="42.8348033" lon="11.5471833"><ele>854.0</ele><time>2026-04-18T12:06:42.773Z</time></trkpt><trkpt lat="42.8348683" lon="11.547385"><ele>854.0</ele><time>2026-04-18T12:06:43.768Z</time></trkpt><trkpt lat="42.83495" lon="11.547585"><ele>854.0</ele><time>2026-04-18T12:06:44.77Z</time></trkpt><trkpt lat="42.83506" lon="11.547765"><ele>857.0</ele><time>2026-04-18T12:06:45.771Z</time></trkpt><trkpt lat="42.8351917" lon="11.5479333"><ele>860.0</ele><time>2026-04-18T12:06:46.772Z</time></trkpt><trkpt lat="42.8353333" lon="11.5481033"><ele>863.0</ele><time>2026-04-18T12:06:47.771Z</time></trkpt><trkpt lat="42.8354833" lon="11.5482783"><ele>863.0</ele><time>2026-04-18T12:06:48.77Z</time></trkpt><trkpt lat="42.83563" lon="11.5484567"><ele>863.0</ele><time>2026-04-18T12:06:49.77Z</time></trkpt><trkpt lat="42.8357733" lon="11.5486333"><ele>863.0</ele><time>2026-04-18T12:06:50.774Z</time></trkpt><trkpt lat="42.8359067" lon="11.5488"><ele>863.0</ele><time>2026-04-18T12:06:51.771Z</time></trkpt><trkpt lat="42.8360283" lon="11.5489617"><ele>863.0</ele><time>2026-04-18T12:06:52.771Z</time></trkpt><trkpt lat="42.8361333" lon="11.5491117"><ele>863.0</ele><time>2026-04-18T12:06:53.77Z</time></trkpt><trkpt lat="42.8362217" lon="11.54926"><ele>863.0</ele><time>2026-04-18T12:06:54.766Z</time></trkpt><trkpt lat="42.8363067" lon="11.5494033"><ele>863.0</ele><time>2026-04-18T12:06:55.771Z</time></trkpt><trkpt lat="42.8363917" lon="11.5495417"><ele>863.0</ele><time>2026-04-18T12:06:56.773Z</time></trkpt><trkpt lat="42.836475" lon="11.5496933"><ele>863.0</ele><time>2026-04-18T12:06:57.77Z</time></trkpt><trkpt lat="42.836555" lon="11.5498517"><ele>861.6666666666667</ele><time>2026-04-18T12:06:58.77Z</time></trkpt><trkpt lat="42.836625" lon="11.5500183"><ele>860.3333333333333</ele><time>2026-04-18T12:06:59.771Z</time></trkpt><trkpt lat="42.8366917" lon="11.5502"><ele>859.0</ele><time>2026-04-18T12:07:00.774Z</time></trkpt><trkpt lat="42.8367567" lon="11.5504017"><ele>863.6666666666666</ele><time>2026-04-18T12:07:01.77Z</time></trkpt><trkpt lat="42.836815" lon="11.5506233"><ele>868.3333333333333</ele><time>2026-04-18T12:07:02.769Z</time></trkpt><trkpt lat="42.8368617" lon="11.5508417"><ele>873.0</ele><time>2026-04-18T12:07:03.771Z</time></trkpt><trkpt lat="42.8369067" lon="11.55106"><ele>870.5</ele><time>2026-04-18T12:07:04.77Z</time></trkpt><trkpt lat="42.8369467" lon="11.5512633"><ele>868.0</ele><time>2026-04-18T12:07:05.77Z</time></trkpt><trkpt lat="42.836985" lon="11.5514533"><ele>865.5</ele><time>2026-04-18T12:07:06.774Z</time></trkpt><trkpt lat="42.83702" lon="11.5516367"><ele>863.0</ele><time>2026-04-18T12:07:07.771Z</time></trkpt><trkpt lat="42.8370567" lon="11.551805"><ele>863.0</ele><time>2026-04-18T12:07:08.772Z</time></trkpt><trkpt lat="42.83709" lon="11.5519617"><ele>863.0</ele><time>2026-04-18T12:07:09.767Z</time></trkpt><trkpt lat="42.8371267" lon="11.5521"><ele>863.0</ele><time>2026-04-18T12:07:10.767Z</time></trkpt><trkpt lat="42.837165" lon="11.55223"><ele>863.0</ele><time>2026-04-18T12:07:11.772Z</time></trkpt><trkpt lat="42.8372233" lon="11.552345"><ele>863.0</ele><time>2026-04-18T12:07:12.773Z</time></trkpt><trkpt lat="42.8373033" lon="11.5524467"><ele>860.25</ele><time>2026-04-18T12:07:13.771Z</time></trkpt><trkpt lat="42.8374017" lon="11.5525133"><ele>857.5</ele><time>2026-04-18T12:07:14.773Z</time></trkpt><trkpt lat="42.837515" lon="11.5525467"><ele>854.75</ele><time>2026-04-18T12:07:15.773Z</time></trkpt><trkpt lat="42.8376417" lon="11.5525367"><ele>852.0</ele><time>2026-04-18T12:07:16.771Z</time></trkpt><trkpt lat="42.8377733" lon="11.552485"><ele>851.0</ele><time>2026-04-18T12:07:17.771Z</time></trkpt><trkpt lat="42.8378967" lon="11.5524133"><ele>850.0</ele><time>2026-04-18T12:07:18.771Z</time></trkpt><trkpt lat="42.8380167" lon="11.5523417"><ele>849.0</ele><time>2026-04-18T12:07:19.77Z</time></trkpt><trkpt lat="42.8381367" lon="11.55228"><ele>848.0</ele><time>2026-04-18T12:07:20.771Z</time></trkpt><trkpt lat="42.8382567" lon="11.5522133"><ele>848.0</ele><time>2026-04-18T12:07:21.769Z</time></trkpt><trkpt lat="42.8383733" lon="11.55215"><ele>848.0</ele><time>2026-04-18T12:07:22.771Z</time></trkpt><trkpt lat="42.8384817" lon="11.5520867"><ele>848.0</ele><time>2026-04-18T12:07:23.77Z</time></trkpt><trkpt lat="42.83859" lon="11.5520283"><ele>848.0</ele><time>2026-04-18T12:07:24.768Z</time></trkpt><trkpt lat="42.8387033" lon="11.5519683"><ele>849.25</ele><time>2026-04-18T12:07:25.77Z</time></trkpt><trkpt lat="42.83882" lon="11.55191"><ele>850.5</ele><time>2026-04-18T12:07:26.771Z</time></trkpt><trkpt lat="42.8389383" lon="11.55185"><ele>851.75</ele><time>2026-04-18T12:07:27.77Z</time></trkpt><trkpt lat="42.83906" lon="11.551805"><ele>853.0</ele><time>2026-04-18T12:07:28.768Z</time></trkpt><trkpt lat="42.8391767" lon="11.55179"><ele>853.0</ele><time>2026-04-18T12:07:29.77Z</time></trkpt><trkpt lat="42.8392967" lon="11.551815"><ele>853.0</ele><time>2026-04-18T12:07:30.773Z</time></trkpt><trkpt lat="42.839415" lon="11.5518867"><ele>853.0</ele><time>2026-04-18T12:07:31.771Z</time></trkpt><trkpt lat="42.83951" lon="11.552"><ele>853.0</ele><time>2026-04-18T12:07:32.774Z</time></trkpt><trkpt lat="42.8395767" lon="11.55215"><ele>853.25</ele><time>2026-04-18T12:07:33.769Z</time></trkpt><trkpt lat="42.8396333" lon="11.5523217"><ele>853.5</ele><time>2026-04-18T12:07:34.77Z</time></trkpt><trkpt lat="42.8396883" lon="11.5525017"><ele>853.75</ele><time>2026-04-18T12:07:35.77Z</time></trkpt><trkpt lat="42.8397467" lon="11.5526833"><ele>854.0</ele><time>2026-04-18T12:07:36.772Z</time></trkpt><trkpt lat="42.8398067" lon="11.5528617"><ele>852.0</ele><time>2026-04-18T12:07:37.771Z</time></trkpt><trkpt lat="42.8398633" lon="11.5530383"><ele>850.0</ele><time>2026-04-18T12:07:38.773Z</time></trkpt><trkpt lat="42.8399217" lon="11.5532133"><ele>848.0</ele><time>2026-04-18T12:07:39.769Z</time></trkpt><trkpt lat="42.83999" lon="11.5533833"><ele>846.0</ele><time>2026-04-18T12:07:40.769Z</time></trkpt><trkpt lat="42.840075" lon="11.5535483"><ele>846.0</ele><time>2026-04-18T12:07:41.769Z</time></trkpt><trkpt lat="42.8401783" lon="11.5536783"><ele>846.0</ele><time>2026-04-18T12:07:42.772Z</time></trkpt><trkpt lat="42.8402917" lon="11.553795"><ele>846.0</ele><time>2026-04-18T12:07:43.77Z</time></trkpt><trkpt lat="42.84041" lon="11.5539083"><ele>846.0</ele><time>2026-04-18T12:07:44.771Z</time></trkpt><trkpt lat="42.8405283" lon="11.554025"><ele>846.0</ele><time>2026-04-18T12:07:45.771Z</time></trkpt><trkpt lat="42.8406467" lon="11.5541483"><ele>846.0</ele><time>2026-04-18T12:07:46.763Z</time></trkpt><trkpt lat="42.84076" lon="11.5542817"><ele>846.0</ele><time>2026-04-18T12:07:47.77Z</time></trkpt><trkpt lat="42.840865" lon="11.55442"><ele>846.0</ele><time>2026-04-18T12:07:48.769Z</time></trkpt><trkpt lat="42.8409667" lon="11.55457"><ele>849.0</ele><time>2026-04-18T12:07:49.77Z</time></trkpt><trkpt lat="42.8410617" lon="11.554725"><ele>852.0</ele><time>2026-04-18T12:07:50.774Z</time></trkpt><trkpt lat="42.8411567" lon="11.5548867"><ele>855.0</ele><time>2026-04-18T12:07:51.772Z</time></trkpt><trkpt lat="42.84125" lon="11.5550583"><ele>855.0</ele><time>2026-04-18T12:07:52.768Z</time></trkpt><trkpt lat="42.8413367" lon="11.555245"><ele>855.0</ele><time>2026-04-18T12:07:53.769Z</time></trkpt><trkpt lat="42.8414167" lon="11.5554417"><ele>855.0</ele><time>2026-04-18T12:07:54.771Z</time></trkpt><trkpt lat="42.8414917" lon="11.5556417"><ele>851.3333333333333</ele><time>2026-04-18T12:07:55.77Z</time></trkpt><trkpt lat="42.8415633" lon="11.55584"><ele>847.6666666666666</ele><time>2026-04-18T12:07:56.771Z</time></trkpt><trkpt lat="42.8416367" lon="11.55604"><ele>844.0</ele><time>2026-04-18T12:07:57.769Z</time></trkpt><trkpt lat="42.8417217" lon="11.5562417"><ele>843.6666666666666</ele><time>2026-04-18T12:07:58.767Z</time></trkpt><trkpt lat="42.8418183" lon="11.556445"><ele>843.3333333333333</ele><time>2026-04-18T12:07:59.771Z</time></trkpt><trkpt lat="42.8419233" lon="11.5566417"><ele>843.0</ele><time>2026-04-18T12:08:00.768Z</time></trkpt><trkpt lat="42.8420367" lon="11.55683"><ele>843.0</ele><time>2026-04-18T12:08:01.766Z</time></trkpt><trkpt lat="42.8421567" lon="11.5570083"><ele>843.0</ele><time>2026-04-18T12:08:02.77Z</time></trkpt><trkpt lat="42.8422883" lon="11.5571733"><ele>843.0</ele><time>2026-04-18T12:08:03.771Z</time></trkpt><trkpt lat="42.8424333" lon="11.5573283"><ele>842.3333333333333</ele><time>2026-04-18T12:08:04.769Z</time></trkpt><trkpt lat="42.84258" lon="11.557475"><ele>841.6666666666666</ele><time>2026-04-18T12:08:05.771Z</time></trkpt><trkpt lat="42.8427217" lon="11.5576133"><ele>841.0</ele><time>2026-04-18T12:08:06.773Z</time></trkpt><trkpt lat="42.8428617" lon="11.557735"><ele>841.0</ele><time>2026-04-18T12:08:07.772Z</time></trkpt><trkpt lat="42.8429967" lon="11.5578517"><ele>841.0</ele><time>2026-04-18T12:08:08.768Z</time></trkpt><trkpt lat="42.8431267" lon="11.5579783"><ele>841.0</ele><time>2026-04-18T12:08:09.769Z</time></trkpt><trkpt lat="42.8432417" lon="11.5581467"><ele>838.0</ele><time>2026-04-18T12:08:10.771Z</time></trkpt><trkpt lat="42.843335" lon="11.5583467"><ele>835.0</ele><time>2026-04-18T12:08:11.769Z</time></trkpt><trkpt lat="42.84341" lon="11.5585667"><ele>832.0</ele><time>2026-04-18T12:08:12.769Z</time></trkpt><trkpt lat="42.8434717" lon="11.55878"><ele>829.5</ele><time>2026-04-18T12:08:13.769Z</time></trkpt><trkpt lat="42.843535" lon="11.5589683"><ele>827.0</ele><time>2026-04-18T12:08:14.772Z</time></trkpt><trkpt lat="42.8436183" lon="11.55912"><ele>824.5</ele><time>2026-04-18T12:08:15.77Z</time></trkpt><trkpt lat="42.8437217" lon="11.559225"><ele>822.0</ele><time>2026-04-18T12:08:16.768Z</time></trkpt><trkpt lat="42.84385" lon="11.55928"><ele>822.0</ele><time>2026-04-18T12:08:17.771Z</time></trkpt><trkpt lat="42.8439967" lon="11.559285"><ele>822.0</ele><time>2026-04-18T12:08:18.771Z</time></trkpt><trkpt lat="42.8441583" lon="11.559245"><ele>822.0</ele><time>2026-04-18T12:08:19.77Z</time></trkpt><trkpt lat="42.844325" lon="11.5591933"><ele>820.0</ele><time>2026-04-18T12:08:20.772Z</time></trkpt><trkpt lat="42.8445067" lon="11.5591383"><ele>818.0</ele><time>2026-04-18T12:08:21.772Z</time></trkpt><trkpt lat="42.84469" lon="11.5590917"><ele>816.0</ele><time>2026-04-18T12:08:22.772Z</time></trkpt><trkpt lat="42.844865" lon="11.5590483"><ele>816.0</ele><time>2026-04-18T12:08:23.77Z</time></trkpt><trkpt lat="42.8450283" lon="11.5590083"><ele>816.0</ele><time>2026-04-18T12:08:24.77Z</time></trkpt><trkpt lat="42.845185" lon="11.558955"><ele>816.0</ele><time>2026-04-18T12:08:25.772Z</time></trkpt><trkpt lat="42.845335" lon="11.55887"><ele>814.3333333333333</ele><time>2026-04-18T12:08:26.775Z</time></trkpt><trkpt lat="42.84547" lon="11.5587383"><ele>812.6666666666666</ele><time>2026-04-18T12:08:27.771Z</time></trkpt><trkpt lat="42.845555" lon="11.5585617"><ele>811.0</ele><time>2026-04-18T12:08:28.77Z</time></trkpt><trkpt lat="42.84563" lon="11.5583817"><ele>811.0</ele><time>2026-04-18T12:08:29.768Z</time></trkpt><trkpt lat="42.845725" lon="11.5582333"><ele>811.0</ele><time>2026-04-18T12:08:30.771Z</time></trkpt><trkpt lat="42.845835" lon="11.5581117"><ele>811.0</ele><time>2026-04-18T12:08:31.771Z</time></trkpt><trkpt lat="42.8459767" lon="11.5580133"><ele>811.0</ele><time>2026-04-18T12:08:32.771Z</time></trkpt><trkpt lat="42.846125" lon="11.5579467"><ele>810.0</ele><time>2026-04-18T12:08:33.769Z</time></trkpt><trkpt lat="42.84628" lon="11.5579217"><ele>809.0</ele><time>2026-04-18T12:08:34.768Z</time></trkpt><trkpt lat="42.8464117" lon="11.55793"><ele>808.0</ele><time>2026-04-18T12:08:35.766Z</time></trkpt><trkpt lat="42.8465117" lon="11.5579567"><ele>807.0</ele><time>2026-04-18T12:08:36.771Z</time></trkpt><trkpt lat="42.8465833" lon="11.55799"><ele>807.0</ele><time>2026-04-18T12:08:37.769Z</time></trkpt><trkpt lat="42.8466417" lon="11.5580433"><ele>807.0</ele><time>2026-04-18T12:08:39.77Z</time></trkpt><trkpt lat="42.84672" lon="11.5581283"><ele>807.0</ele><time>2026-04-18T12:09:12.771Z</time></trkpt><trkpt lat="42.8468167" lon="11.558205"><ele>807.0</ele><time>2026-04-18T12:09:14.774Z</time></trkpt><trkpt lat="42.8469283" lon="11.55826"><ele>807.0</ele><time>2026-04-18T12:09:16.77Z</time></trkpt><trkpt lat="42.846995" lon="11.5582833"><ele>806.0</ele><time>2026-04-18T12:09:17.769Z</time></trkpt><trkpt lat="42.8470617" lon="11.5582933"><ele>805.0</ele><time>2026-04-18T12:09:18.768Z</time></trkpt><trkpt lat="42.84714" lon="11.5583"><ele>804.0</ele><time>2026-04-18T12:09:19.766Z</time></trkpt><trkpt lat="42.847225" lon="11.5582983"><ele>803.0</ele><time>2026-04-18T12:09:20.774Z</time></trkpt><trkpt lat="42.8473167" lon="11.5582933"><ele>802.0</ele><time>2026-04-18T12:09:21.771Z</time></trkpt><trkpt lat="42.847415" lon="11.5582833"><ele>801.0</ele><time>2026-04-18T12:09:22.769Z</time></trkpt><trkpt lat="42.847515" lon="11.5582733"><ele>801.0</ele><time>2026-04-18T12:09:23.77Z</time></trkpt><trkpt lat="42.8476133" lon="11.5582633"><ele>801.0</ele><time>2026-04-18T12:09:24.773Z</time></trkpt><trkpt lat="42.8477117" lon="11.5582567"><ele>801.0</ele><time>2026-04-18T12:09:25.769Z</time></trkpt><trkpt lat="42.8478133" lon="11.55825"><ele>801.0</ele><time>2026-04-18T12:09:26.772Z</time></trkpt><trkpt lat="42.8479217" lon="11.55824"><ele>801.0</ele><time>2026-04-18T12:09:27.769Z</time></trkpt><trkpt lat="42.848025" lon="11.5582267"><ele>799.25</ele><time>2026-04-18T12:09:28.769Z</time></trkpt><trkpt lat="42.84813" lon="11.5582133"><ele>797.5</ele><time>2026-04-18T12:09:29.77Z</time></trkpt><trkpt lat="42.8482417" lon="11.5582033"><ele>795.75</ele><time>2026-04-18T12:09:30.769Z</time></trkpt><trkpt lat="42.8483583" lon="11.5582017"><ele>794.0</ele><time>2026-04-18T12:09:31.769Z</time></trkpt><trkpt lat="42.848475" lon="11.558215"><ele>793.25</ele><time>2026-04-18T12:09:32.772Z</time></trkpt><trkpt lat="42.8485967" lon="11.5582433"><ele>792.5</ele><time>2026-04-18T12:09:33.769Z</time></trkpt><trkpt lat="42.8487217" lon="11.5582717"><ele>791.75</ele><time>2026-04-18T12:09:34.769Z</time></trkpt><trkpt lat="42.8488483" lon="11.5582767"><ele>791.0</ele><time>2026-04-18T12:09:35.771Z</time></trkpt><trkpt lat="42.8489833" lon="11.5582517"><ele>791.0</ele><time>2026-04-18T12:09:36.77Z</time></trkpt><trkpt lat="42.8491217" lon="11.5582083"><ele>791.0</ele><time>2026-04-18T12:09:37.768Z</time></trkpt><trkpt lat="42.8492617" lon="11.5581467"><ele>791.0</ele><time>2026-04-18T12:09:38.774Z</time></trkpt><trkpt lat="42.849395" lon="11.55807"><ele>791.0</ele><time>2026-04-18T12:09:39.77Z</time></trkpt><trkpt lat="42.8495233" lon="11.5579733"><ele>791.5</ele><time>2026-04-18T12:09:40.772Z</time></trkpt><trkpt lat="42.8496467" lon="11.55786"><ele>792.0</ele><time>2026-04-18T12:09:41.77Z</time></trkpt><trkpt lat="42.8497567" lon="11.55774"><ele>792.5</ele><time>2026-04-18T12:09:42.768Z</time></trkpt><trkpt lat="42.8498717" lon="11.5576317"><ele>793.0</ele><time>2026-04-18T12:09:43.771Z</time></trkpt><trkpt lat="42.8499917" lon="11.55754"><ele>793.0</ele><time>2026-04-18T12:09:44.769Z</time></trkpt><trkpt lat="42.8501183" lon="11.5574733"><ele>793.0</ele><time>2026-04-18T12:09:45.769Z</time></trkpt><trkpt lat="42.85025" lon="11.5574417"><ele>793.0</ele><time>2026-04-18T12:09:46.77Z</time></trkpt><trkpt lat="42.8503917" lon="11.5574333"><ele>793.0</ele><time>2026-04-18T12:09:47.766Z</time></trkpt><trkpt lat="42.8505317" lon="11.5574217"><ele>792.75</ele><time>2026-04-18T12:09:48.771Z</time></trkpt><trkpt lat="42.8506717" lon="11.5574033"><ele>792.5</ele><time>2026-04-18T12:09:49.765Z</time></trkpt><trkpt lat="42.8508183" lon="11.5573717"><ele>792.25</ele><time>2026-04-18T12:09:50.768Z</time></trkpt><trkpt lat="42.8509633" lon="11.557335"><ele>792.0</ele><time>2026-04-18T12:09:51.771Z</time></trkpt><trkpt lat="42.8511167" lon="11.5572967"><ele>792.0</ele><time>2026-04-18T12:09:52.766Z</time></trkpt><trkpt lat="42.8512767" lon="11.557255"><ele>792.0</ele><time>2026-04-18T12:09:53.772Z</time></trkpt><trkpt lat="42.8514467" lon="11.557215"><ele>792.0</ele><time>2026-04-18T12:09:54.771Z</time></trkpt><trkpt lat="42.8516183" lon="11.5571767"><ele>792.0</ele><time>2026-04-18T12:09:55.769Z</time></trkpt><trkpt lat="42.8517867" lon="11.5571367"><ele>792.0</ele><time>2026-04-18T12:09:56.771Z</time></trkpt><trkpt lat="42.85195" lon="11.5570983"><ele>792.0</ele><time>2026-04-18T12:09:57.766Z</time></trkpt><trkpt lat="42.8521033" lon="11.5570633"><ele>795.6666666666667</ele><time>2026-04-18T12:09:58.771Z</time></trkpt><trkpt lat="42.8522567" lon="11.5570317"><ele>799.3333333333334</ele><time>2026-04-18T12:09:59.769Z</time></trkpt><trkpt lat="42.8524133" lon="11.5570017"><ele>803.0</ele><time>2026-04-18T12:10:00.77Z</time></trkpt><trkpt lat="42.8525683" lon="11.5569717"><ele>804.0</ele><time>2026-04-18T12:10:01.77Z</time></trkpt><trkpt lat="42.8527217" lon="11.55694"><ele>805.0</ele><time>2026-04-18T12:10:02.773Z</time></trkpt><trkpt lat="42.8528717" lon="11.556905"><ele>806.0</ele><time>2026-04-18T12:10:03.767Z</time></trkpt><trkpt lat="42.853025" lon="11.556855"><ele>806.0</ele><time>2026-04-18T12:10:04.771Z</time></trkpt><trkpt lat="42.85318" lon="11.556775"><ele>806.0</ele><time>2026-04-18T12:10:05.771Z</time></trkpt><trkpt lat="42.8533333" lon="11.556675"><ele>806.0</ele><time>2026-04-18T12:10:06.767Z</time></trkpt><trkpt lat="42.8534833" lon="11.5565633"><ele>807.6666666666667</ele><time>2026-04-18T12:10:07.771Z</time></trkpt><trkpt lat="42.8536283" lon="11.5564433"><ele>809.3333333333333</ele><time>2026-04-18T12:10:08.77Z</time></trkpt><trkpt lat="42.8537667" lon="11.5563183"><ele>811.0</ele><time>2026-04-18T12:10:09.771Z</time></trkpt><trkpt lat="42.853905" lon="11.5561917"><ele>811.0</ele><time>2026-04-18T12:10:10.77Z</time></trkpt><trkpt lat="42.8540433" lon="11.5560683"><ele>811.0</ele><time>2026-04-18T12:10:11.77Z</time></trkpt><trkpt lat="42.8541817" lon="11.5559467"><ele>811.0</ele><time>2026-04-18T12:10:12.77Z</time></trkpt><trkpt lat="42.8543167" lon="11.555825"><ele>813.3333333333333</ele><time>2026-04-18T12:10:13.772Z</time></trkpt><trkpt lat="42.8544533" lon="11.555705"><ele>815.6666666666667</ele><time>2026-04-18T12:10:14.772Z</time></trkpt><trkpt lat="42.8545833" lon="11.5555733"><ele>818.0</ele><time>2026-04-18T12:10:15.771Z</time></trkpt><trkpt lat="42.8547033" lon="11.555435"><ele>818.0</ele><time>2026-04-18T12:10:16.771Z</time></trkpt><trkpt lat="42.8548133" lon="11.5552883"><ele>818.0</ele><time>2026-04-18T12:10:17.771Z</time></trkpt><trkpt lat="42.85491" lon="11.5551333"><ele>818.0</ele><time>2026-04-18T12:10:18.771Z</time></trkpt><trkpt lat="42.8550033" lon="11.55497"><ele>818.0</ele><time>2026-04-18T12:10:19.771Z</time></trkpt><trkpt lat="42.8550817" lon="11.5547967"><ele>818.0</ele><time>2026-04-18T12:10:20.772Z</time></trkpt><trkpt lat="42.855145" lon="11.55462"><ele>818.0</ele><time>2026-04-18T12:10:21.771Z</time></trkpt><trkpt lat="42.8551983" lon="11.554445"><ele>818.0</ele><time>2026-04-18T12:10:22.769Z</time></trkpt><trkpt lat="42.85524" lon="11.5542783"><ele>818.75</ele><time>2026-04-18T12:10:23.77Z</time></trkpt><trkpt lat="42.8552783" lon="11.5541167"><ele>819.5</ele><time>2026-04-18T12:10:24.773Z</time></trkpt><trkpt lat="42.8553183" lon="11.553965"><ele>820.25</ele><time>2026-04-18T12:10:25.77Z</time></trkpt><trkpt lat="42.855365" lon="11.553825"><ele>821.0</ele><time>2026-04-18T12:10:26.772Z</time></trkpt><trkpt lat="42.855425" lon="11.5537"><ele>821.0</ele><time>2026-04-18T12:10:27.772Z</time></trkpt><trkpt lat="42.855495" lon="11.5536033"><ele>821.0</ele><time>2026-04-18T12:10:28.772Z</time></trkpt><trkpt lat="42.8555833" lon="11.5535333"><ele>821.0</ele><time>2026-04-18T12:10:29.772Z</time></trkpt><trkpt lat="42.8556833" lon="11.5534783"><ele>821.0</ele><time>2026-04-18T12:10:30.77Z</time></trkpt><trkpt lat="42.855795" lon="11.553415"><ele>821.0</ele><time>2026-04-18T12:10:31.772Z</time></trkpt><trkpt lat="42.8559217" lon="11.5533433"><ele>821.75</ele><time>2026-04-18T12:10:32.771Z</time></trkpt><trkpt lat="42.8560367" lon="11.5532433"><ele>822.5</ele><time>2026-04-18T12:10:33.772Z</time></trkpt><trkpt lat="42.85615" lon="11.5531117"><ele>823.25</ele><time>2026-04-18T12:10:34.772Z</time></trkpt><trkpt lat="42.85626" lon="11.55297"><ele>824.0</ele><time>2026-04-18T12:10:35.773Z</time></trkpt><trkpt lat="42.85636" lon="11.5528133"><ele>819.0</ele><time>2026-04-18T12:10:36.77Z</time></trkpt><trkpt lat="42.8564667" lon="11.552665"><ele>814.0</ele><time>2026-04-18T12:10:37.771Z</time></trkpt><trkpt lat="42.8565867" lon="11.5525233"><ele>809.0</ele><time>2026-04-18T12:10:38.771Z</time></trkpt><trkpt lat="42.8567167" lon="11.5524033"><ele>810.3333333333334</ele><time>2026-04-18T12:10:39.771Z</time></trkpt><trkpt lat="42.85686" lon="11.5523017"><ele>811.6666666666667</ele><time>2026-04-18T12:10:40.769Z</time></trkpt><trkpt lat="42.8570133" lon="11.552225"><ele>813.0</ele><time>2026-04-18T12:10:41.774Z</time></trkpt><trkpt lat="42.85717" lon="11.552185"><ele>813.0</ele><time>2026-04-18T12:10:42.772Z</time></trkpt><trkpt lat="42.8573233" lon="11.5521517"><ele>813.0</ele><time>2026-04-18T12:10:43.773Z</time></trkpt><trkpt lat="42.85748" lon="11.5521283"><ele>813.0</ele><time>2026-04-18T12:10:44.774Z</time></trkpt><trkpt lat="42.8576317" lon="11.552095"><ele>815.25</ele><time>2026-04-18T12:10:45.773Z</time></trkpt><trkpt lat="42.8577767" lon="11.5520433"><ele>817.5</ele><time>2026-04-18T12:10:46.772Z</time></trkpt><trkpt lat="42.8579167" lon="11.5519667"><ele>819.75</ele><time>2026-04-18T12:10:47.771Z</time></trkpt><trkpt lat="42.8580483" lon="11.5518733"><ele>822.0</ele><time>2026-04-18T12:10:48.773Z</time></trkpt><trkpt lat="42.8581733" lon="11.551765"><ele>816.25</ele><time>2026-04-18T12:10:49.772Z</time></trkpt><trkpt lat="42.8582833" lon="11.5516417"><ele>810.5</ele><time>2026-04-18T12:10:50.772Z</time></trkpt><trkpt lat="42.858385" lon="11.55151"><ele>804.75</ele><time>2026-04-18T12:10:51.771Z</time></trkpt><trkpt lat="42.85849" lon="11.55139"><ele>799.0</ele><time>2026-04-18T12:10:52.77Z</time></trkpt><trkpt lat="42.8585933" lon="11.551275"><ele>793.25</ele><time>2026-04-18T12:10:53.77Z</time></trkpt><trkpt lat="42.8587017" lon="11.551165"><ele>787.5</ele><time>2026-04-18T12:10:54.771Z</time></trkpt><trkpt lat="42.8588167" lon="11.5510667"><ele>781.75</ele><time>2026-04-18T12:10:55.774Z</time></trkpt><trkpt lat="42.85894" lon="11.55099"><ele>776.0</ele><time>2026-04-18T12:10:56.771Z</time></trkpt><trkpt lat="42.85907" lon="11.5509283"><ele>776.0</ele><time>2026-04-18T12:10:57.771Z</time></trkpt><trkpt lat="42.8592" lon="11.550885"><ele>776.0</ele><time>2026-04-18T12:10:58.771Z</time></trkpt><trkpt lat="42.8593333" lon="11.5508533"><ele>776.0</ele><time>2026-04-18T12:10:59.769Z</time></trkpt><trkpt lat="42.85947" lon="11.550825"><ele>776.0</ele><time>2026-04-18T12:11:00.775Z</time></trkpt><trkpt lat="42.8596133" lon="11.5507917"><ele>779.3333333333334</ele><time>2026-04-18T12:11:01.772Z</time></trkpt><trkpt lat="42.859765" lon="11.5507567"><ele>782.6666666666667</ele><time>2026-04-18T12:11:02.773Z</time></trkpt><trkpt lat="42.8599217" lon="11.550715"><ele>786.0</ele><time>2026-04-18T12:11:03.769Z</time></trkpt><trkpt lat="42.8600817" lon="11.55066"><ele>790.0</ele><time>2026-04-18T12:11:04.767Z</time></trkpt><trkpt lat="42.8602483" lon="11.5505883"><ele>794.0</ele><time>2026-04-18T12:11:05.771Z</time></trkpt><trkpt lat="42.8604117" lon="11.5504967"><ele>798.0</ele><time>2026-04-18T12:11:06.772Z</time></trkpt><trkpt lat="42.86057" lon="11.55038"><ele>790.6666666666667</ele><time>2026-04-18T12:11:07.774Z</time></trkpt><trkpt lat="42.8607283" lon="11.55026"><ele>783.3333333333334</ele><time>2026-04-18T12:11:08.769Z</time></trkpt><trkpt lat="42.86089" lon="11.5501417"><ele>776.0</ele><time>2026-04-18T12:11:09.772Z</time></trkpt><trkpt lat="42.8610467" lon="11.550025"><ele>776.0</ele><time>2026-04-18T12:11:10.768Z</time></trkpt><trkpt lat="42.8612083" lon="11.5499183"><ele>776.0</ele><time>2026-04-18T12:11:11.772Z</time></trkpt><trkpt lat="42.8613667" lon="11.549825"><ele>776.0</ele><time>2026-04-18T12:11:12.774Z</time></trkpt><trkpt lat="42.8615267" lon="11.5497433"><ele>776.0</ele><time>2026-04-18T12:11:13.771Z</time></trkpt><trkpt lat="42.861695" lon="11.5496817"><ele>776.0</ele><time>2026-04-18T12:11:14.771Z</time></trkpt><trkpt lat="42.8618633" lon="11.54964"><ele>776.0</ele><time>2026-04-18T12:11:15.772Z</time></trkpt><trkpt lat="42.86203" lon="11.5496133"><ele>774.0</ele><time>2026-04-18T12:11:16.772Z</time></trkpt><trkpt lat="42.8621917" lon="11.5496017"><ele>772.0</ele><time>2026-04-18T12:11:17.773Z</time></trkpt><trkpt lat="42.862345" lon="11.5496083"><ele>770.0</ele><time>2026-04-18T12:11:18.77Z</time></trkpt><trkpt lat="42.8624867" lon="11.54962"><ele>769.0</ele><time>2026-04-18T12:11:19.77Z</time></trkpt><trkpt lat="42.86263" lon="11.54964"><ele>768.0</ele><time>2026-04-18T12:11:20.772Z</time></trkpt><trkpt lat="42.8627567" lon="11.5496567"><ele>767.0</ele><time>2026-04-18T12:11:21.771Z</time></trkpt><trkpt lat="42.8628583" lon="11.5496417"><ele>766.0</ele><time>2026-04-18T12:11:22.769Z</time></trkpt><trkpt lat="42.8629133" lon="11.5495767"><ele>765.0</ele><time>2026-04-18T12:11:23.774Z</time></trkpt><trkpt lat="42.8629283" lon="11.5494917"><ele>759.5</ele><time>2026-04-18T12:11:24.774Z</time></trkpt><trkpt lat="42.8628867" lon="11.549325"><ele>754.0</ele><time>2026-04-18T12:11:26.773Z</time></trkpt><trkpt lat="42.8628367" lon="11.5492483"><ele>748.5</ele><time>2026-04-18T12:11:27.774Z</time></trkpt><trkpt lat="42.8627433" lon="11.5491817"><ele>743.0</ele><time>2026-04-18T12:11:28.774Z</time></trkpt><trkpt lat="42.8625533" lon="11.5490883"><ele>743.0</ele><time>2026-04-18T12:11:29.771Z</time></trkpt><trkpt lat="42.8623" lon="11.54904"><ele>743.0</ele><time>2026-04-18T12:11:30.773Z</time></trkpt><trkpt lat="42.8621083" lon="11.5490033"><ele>743.0</ele><time>2026-04-18T12:11:31.773Z</time></trkpt><trkpt lat="42.8619067" lon="11.5489883"><ele>743.0</ele><time>2026-04-18T12:11:32.769Z</time></trkpt><trkpt lat="42.861735" lon="11.5489833"><ele>743.0</ele><time>2026-04-18T12:11:33.772Z</time></trkpt><trkpt lat="42.8615983" lon="11.5489783"><ele>743.0</ele><time>2026-04-18T12:11:34.771Z</time></trkpt><trkpt lat="42.86147" lon="11.54897"><ele>743.0</ele><time>2026-04-18T12:11:35.773Z</time></trkpt><trkpt lat="42.8613533" lon="11.5489583"><ele>743.0</ele><time>2026-04-18T12:11:36.773Z</time></trkpt><trkpt lat="42.86124" lon="11.5489283"><ele>743.0</ele><time>2026-04-18T12:11:37.772Z</time></trkpt><trkpt lat="42.8611417" lon="11.5488567"><ele>743.0</ele><time>2026-04-18T12:11:38.774Z</time></trkpt><trkpt lat="42.8610583" lon="11.548735"><ele>743.0</ele><time>2026-04-18T12:11:39.773Z</time></trkpt><trkpt lat="42.861" lon="11.5485867"><ele>737.75</ele><time>2026-04-18T12:11:40.771Z</time></trkpt><trkpt lat="42.860985" lon="11.54841"><ele>732.5</ele><time>2026-04-18T12:11:41.772Z</time></trkpt><trkpt lat="42.861" lon="11.5482233"><ele>727.25</ele><time>2026-04-18T12:11:42.773Z</time></trkpt><trkpt lat="42.86103" lon="11.54804"><ele>722.0</ele><time>2026-04-18T12:11:43.774Z</time></trkpt><trkpt lat="42.86108" lon="11.5478533"><ele>719.6666666666666</ele><time>2026-04-18T12:11:44.77Z</time></trkpt><trkpt lat="42.8611417" lon="11.5476633"><ele>717.3333333333334</ele><time>2026-04-18T12:11:45.773Z</time></trkpt><trkpt lat="42.86121" lon="11.547475"><ele>715.0</ele><time>2026-04-18T12:11:46.771Z</time></trkpt><trkpt lat="42.8612833" lon="11.5472783"><ele>715.0</ele><time>2026-04-18T12:11:47.767Z</time></trkpt><trkpt lat="42.8613583" lon="11.54708"><ele>715.0</ele><time>2026-04-18T12:11:48.77Z</time></trkpt><trkpt lat="42.8614367" lon="11.5468767"><ele>715.0</ele><time>2026-04-18T12:11:49.773Z</time></trkpt><trkpt lat="42.8615183" lon="11.5466717"><ele>712.6666666666667</ele><time>2026-04-18T12:11:50.774Z</time></trkpt><trkpt lat="42.8616067" lon="11.5464633"><ele>710.3333333333334</ele><time>2026-04-18T12:11:51.772Z</time></trkpt><trkpt lat="42.8617" lon="11.5462633"><ele>708.0</ele><time>2026-04-18T12:11:52.771Z</time></trkpt><trkpt lat="42.8617983" lon="11.54607"><ele>704.6666666666666</ele><time>2026-04-18T12:11:53.772Z</time></trkpt><trkpt lat="42.8618967" lon="11.5458817"><ele>701.3333333333333</ele><time>2026-04-18T12:11:54.769Z</time></trkpt><trkpt lat="42.8620017" lon="11.545705"><ele>698.0</ele><time>2026-04-18T12:11:55.772Z</time></trkpt><trkpt lat="42.8621217" lon="11.5455517"><ele>698.0</ele><time>2026-04-18T12:11:56.773Z</time></trkpt><trkpt lat="42.862255" lon="11.5454167"><ele>698.0</ele><time>2026-04-18T12:11:57.771Z</time></trkpt><trkpt lat="42.8623967" lon="11.545295"><ele>698.0</ele><time>2026-04-18T12:11:58.77Z</time></trkpt><trkpt lat="42.8625467" lon="11.5451967"><ele>700.0</ele><time>2026-04-18T12:11:59.772Z</time></trkpt><trkpt lat="42.8627067" lon="11.5451283"><ele>702.0</ele><time>2026-04-18T12:12:00.773Z</time></trkpt><trkpt lat="42.862875" lon="11.5450883"><ele>704.0</ele><time>2026-04-18T12:12:01.771Z</time></trkpt><trkpt lat="42.863045" lon="11.5450733"><ele>704.0</ele><time>2026-04-18T12:12:02.776Z</time></trkpt><trkpt lat="42.863215" lon="11.5450767"><ele>704.0</ele><time>2026-04-18T12:12:03.772Z</time></trkpt><trkpt lat="42.86338" lon="11.545095"><ele>704.0</ele><time>2026-04-18T12:12:04.77Z</time></trkpt><trkpt lat="42.8635467" lon="11.5451217"><ele>703.3333333333333</ele><time>2026-04-18T12:12:05.769Z</time></trkpt><trkpt lat="42.8637117" lon="11.5451467"><ele>702.6666666666666</ele><time>2026-04-18T12:12:06.77Z</time></trkpt><trkpt lat="42.8638717" lon="11.5451667"><ele>702.0</ele><time>2026-04-18T12:12:07.766Z</time></trkpt><trkpt lat="42.8640367" lon="11.545175"><ele>702.0</ele><time>2026-04-18T12:12:08.771Z</time></trkpt><trkpt lat="42.8642017" lon="11.5451717"><ele>702.0</ele><time>2026-04-18T12:12:09.769Z</time></trkpt><trkpt lat="42.864365" lon="11.5451583"><ele>702.0</ele><time>2026-04-18T12:12:10.772Z</time></trkpt><trkpt lat="42.86453" lon="11.54515"><ele>702.3333333333334</ele><time>2026-04-18T12:12:11.767Z</time></trkpt><trkpt lat="42.864695" lon="11.5451633"><ele>702.6666666666667</ele><time>2026-04-18T12:12:12.77Z</time></trkpt><trkpt lat="42.8648567" lon="11.5452033"><ele>703.0</ele><time>2026-04-18T12:12:13.772Z</time></trkpt><trkpt lat="42.865015" lon="11.5452683"><ele>705.3333333333334</ele><time>2026-04-18T12:12:14.774Z</time></trkpt><trkpt lat="42.8651717" lon="11.54534"><ele>707.6666666666666</ele><time>2026-04-18T12:12:15.769Z</time></trkpt><trkpt lat="42.8653317" lon="11.545395"><ele>710.0</ele><time>2026-04-18T12:12:16.771Z</time></trkpt><trkpt lat="42.8654967" lon="11.5454217"><ele>703.3333333333333</ele><time>2026-04-18T12:12:17.771Z</time></trkpt><trkpt lat="42.8656633" lon="11.545425"><ele>696.6666666666666</ele><time>2026-04-18T12:12:18.77Z</time></trkpt><trkpt lat="42.865825" lon="11.5454133"><ele>690.0</ele><time>2026-04-18T12:12:19.77Z</time></trkpt><trkpt lat="42.8659817" lon="11.5453933"><ele>695.3333333333334</ele><time>2026-04-18T12:12:20.773Z</time></trkpt><trkpt lat="42.8661417" lon="11.5453717"><ele>700.6666666666667</ele><time>2026-04-18T12:12:21.77Z</time></trkpt><trkpt lat="42.8663067" lon="11.5453483"><ele>706.0</ele><time>2026-04-18T12:12:22.772Z</time></trkpt><trkpt lat="42.8664683" lon="11.5453217"><ele>706.0</ele><time>2026-04-18T12:12:23.771Z</time></trkpt><trkpt lat="42.866625" lon="11.5452967"><ele>706.0</ele><time>2026-04-18T12:12:24.769Z</time></trkpt><trkpt lat="42.8667767" lon="11.5452733"><ele>706.0</ele><time>2026-04-18T12:12:25.77Z</time></trkpt><trkpt lat="42.8669267" lon="11.5452533"><ele>704.0</ele><time>2026-04-18T12:12:26.773Z</time></trkpt><trkpt lat="42.867075" lon="11.5452317"><ele>702.0</ele><time>2026-04-18T12:12:27.77Z</time></trkpt><trkpt lat="42.8672233" lon="11.5452083"><ele>700.0</ele><time>2026-04-18T12:12:28.769Z</time></trkpt><trkpt lat="42.8673733" lon="11.5451817"><ele>700.0</ele><time>2026-04-18T12:12:29.77Z</time></trkpt><trkpt lat="42.8675217" lon="11.5451583"><ele>700.0</ele><time>2026-04-18T12:12:30.767Z</time></trkpt><trkpt lat="42.8676667" lon="11.5451433"><ele>700.0</ele><time>2026-04-18T12:12:31.77Z</time></trkpt><trkpt lat="42.867805" lon="11.5451367"><ele>700.0</ele><time>2026-04-18T12:12:32.773Z</time></trkpt><trkpt lat="42.86794" lon="11.5451467"><ele>698.5</ele><time>2026-04-18T12:12:33.771Z</time></trkpt><trkpt lat="42.86807" lon="11.545175"><ele>697.0</ele><time>2026-04-18T12:12:34.769Z</time></trkpt><trkpt lat="42.8681967" lon="11.5452083"><ele>695.5</ele><time>2026-04-18T12:12:35.77Z</time></trkpt><trkpt lat="42.868315" lon="11.54523"><ele>694.0</ele><time>2026-04-18T12:12:36.77Z</time></trkpt><trkpt lat="42.8684217" lon="11.5452267"><ele>690.4000000000001</ele><time>2026-04-18T12:12:37.772Z</time></trkpt><trkpt lat="42.8685167" lon="11.54519"><ele>686.8</ele><time>2026-04-18T12:12:38.773Z</time></trkpt><trkpt lat="42.8686017" lon="11.5451233"><ele>683.2</ele><time>2026-04-18T12:12:39.769Z</time></trkpt><trkpt lat="42.8686783" lon="11.5450267"><ele>679.5999999999999</ele><time>2026-04-18T12:12:40.77Z</time></trkpt><trkpt lat="42.8687517" lon="11.5449183"><ele>676.0</ele><time>2026-04-18T12:12:41.77Z</time></trkpt><trkpt lat="42.8688317" lon="11.54482"><ele>676.0</ele><time>2026-04-18T12:12:42.771Z</time></trkpt><trkpt lat="42.8689233" lon="11.5447433"><ele>676.0</ele><time>2026-04-18T12:12:43.771Z</time></trkpt><trkpt lat="42.8690133" lon="11.5446817"><ele>676.0</ele><time>2026-04-18T12:12:44.773Z</time></trkpt><trkpt lat="42.8691067" lon="11.5446367"><ele>676.0</ele><time>2026-04-18T12:12:45.768Z</time></trkpt><trkpt lat="42.8692083" lon="11.5445817"><ele>676.0</ele><time>2026-04-18T12:12:46.769Z</time></trkpt><trkpt lat="42.8693" lon="11.54451"><ele>672.5999999999999</ele><time>2026-04-18T12:12:47.759Z</time></trkpt><trkpt lat="42.8693883" lon="11.5444283"><ele>669.2</ele><time>2026-04-18T12:12:48.769Z</time></trkpt><trkpt lat="42.86946" lon="11.54433"><ele>665.8</ele><time>2026-04-18T12:12:49.771Z</time></trkpt><trkpt lat="42.8695083" lon="11.5442233"><ele>662.4000000000001</ele><time>2026-04-18T12:12:50.77Z</time></trkpt><trkpt lat="42.8695367" lon="11.54411"><ele>659.0</ele><time>2026-04-18T12:12:51.769Z</time></trkpt><trkpt lat="42.869545" lon="11.5439967"><ele>659.0</ele><time>2026-04-18T12:12:52.769Z</time></trkpt><trkpt lat="42.8695483" lon="11.5438817"><ele>659.0</ele><time>2026-04-18T12:12:53.77Z</time></trkpt><trkpt lat="42.8695467" lon="11.54377"><ele>659.0</ele><time>2026-04-18T12:12:54.769Z</time></trkpt><trkpt lat="42.8695533" lon="11.5436583"><ele>659.0</ele><time>2026-04-18T12:12:55.771Z</time></trkpt><trkpt lat="42.8695667" lon="11.5435483"><ele>659.0</ele><time>2026-04-18T12:12:56.769Z</time></trkpt><trkpt lat="42.8695883" lon="11.5434433"><ele>659.0</ele><time>2026-04-18T12:12:57.77Z</time></trkpt><trkpt lat="42.869625" lon="11.5433433"><ele>660.6</ele><time>2026-04-18T12:12:58.77Z</time></trkpt><trkpt lat="42.8696667" lon="11.5432483"><ele>662.2</ele><time>2026-04-18T12:12:59.771Z</time></trkpt><trkpt lat="42.869715" lon="11.5431467"><ele>663.8000000000001</ele><time>2026-04-18T12:13:00.764Z</time></trkpt><trkpt lat="42.8697667" lon="11.543045"><ele>665.4000000000001</ele><time>2026-04-18T12:13:01.771Z</time></trkpt><trkpt lat="42.8698217" lon="11.542935"><ele>667.0</ele><time>2026-04-18T12:13:02.77Z</time></trkpt><trkpt lat="42.869875" lon="11.5428217"><ele>667.0</ele><time>2026-04-18T12:13:03.772Z</time></trkpt><trkpt lat="42.8699367" lon="11.542715"><ele>667.0</ele><time>2026-04-18T12:13:04.769Z</time></trkpt><trkpt lat="42.8699967" lon="11.5426083"><ele>667.0</ele><time>2026-04-18T12:13:05.768Z</time></trkpt><trkpt lat="42.87006" lon="11.5425067"><ele>667.0</ele><time>2026-04-18T12:13:06.769Z</time></trkpt><trkpt lat="42.87012" lon="11.5424033"><ele>667.0</ele><time>2026-04-18T12:13:07.771Z</time></trkpt><trkpt lat="42.87018" lon="11.5422983"><ele>667.0</ele><time>2026-04-18T12:13:08.772Z</time></trkpt><trkpt lat="42.8702433" lon="11.542195"><ele>667.0</ele><time>2026-04-18T12:13:09.771Z</time></trkpt><trkpt lat="42.8703033" lon="11.5420917"><ele>667.0</ele><time>2026-04-18T12:13:10.768Z</time></trkpt><trkpt lat="42.8703617" lon="11.5419867"><ele>667.0</ele><time>2026-04-18T12:13:11.77Z</time></trkpt><trkpt lat="42.8704183" lon="11.5418767"><ele>667.0</ele><time>2026-04-18T12:13:12.769Z</time></trkpt><trkpt lat="42.87048" lon="11.5417683"><ele>666.6</ele><time>2026-04-18T12:13:13.771Z</time></trkpt><trkpt lat="42.8705467" lon="11.5416617"><ele>666.2</ele><time>2026-04-18T12:13:14.771Z</time></trkpt><trkpt lat="42.8706117" lon="11.5415533"><ele>665.8</ele><time>2026-04-18T12:13:15.772Z</time></trkpt><trkpt lat="42.870675" lon="11.5414433"><ele>665.4</ele><time>2026-04-18T12:13:16.772Z</time></trkpt><trkpt lat="42.870735" lon="11.54133"><ele>665.0</ele><time>2026-04-18T12:13:17.769Z</time></trkpt><trkpt lat="42.8707967" lon="11.54122"><ele>664.6</ele><time>2026-04-18T12:13:18.771Z</time></trkpt><trkpt lat="42.87086" lon="11.5411067"><ele>664.2</ele><time>2026-04-18T12:13:19.771Z</time></trkpt><trkpt lat="42.8709217" lon="11.5409967"><ele>663.8</ele><time>2026-04-18T12:13:20.773Z</time></trkpt><trkpt lat="42.8709867" lon="11.5408833"><ele>663.4</ele><time>2026-04-18T12:13:21.771Z</time></trkpt><trkpt lat="42.8710483" lon="11.54077"><ele>663.0</ele><time>2026-04-18T12:13:22.769Z</time></trkpt><trkpt lat="42.871115" lon="11.5406517"><ele>662.5</ele><time>2026-04-18T12:13:23.771Z</time></trkpt><trkpt lat="42.8711767" lon="11.54054"><ele>662.0</ele><time>2026-04-18T12:13:24.774Z</time></trkpt><trkpt lat="42.8712317" lon="11.5404367"><ele>661.5</ele><time>2026-04-18T12:13:25.771Z</time></trkpt><trkpt lat="42.87128" lon="11.5403533"><ele>661.0</ele><time>2026-04-18T12:13:26.772Z</time></trkpt><trkpt lat="42.871335" lon="11.540295"><ele>660.5</ele><time>2026-04-18T12:13:27.771Z</time></trkpt><trkpt lat="42.87139" lon="11.54025"><ele>660.0</ele><time>2026-04-18T12:13:28.768Z</time></trkpt><trkpt lat="42.87151" lon="11.5402217"><ele>660.0</ele><time>2026-04-18T12:13:30.772Z</time></trkpt><trkpt lat="42.871645" lon="11.54024"><ele>660.0</ele><time>2026-04-18T12:13:32.77Z</time></trkpt><trkpt lat="42.8717367" lon="11.540255"><ele>660.0</ele><time>2026-04-18T12:13:33.77Z</time></trkpt><trkpt lat="42.8718317" lon="11.5402433"><ele>660.0</ele><time>2026-04-18T12:13:34.77Z</time></trkpt><trkpt lat="42.8719217" lon="11.5402"><ele>660.0</ele><time>2026-04-18T12:13:35.769Z</time></trkpt><trkpt lat="42.8720033" lon="11.540115"><ele>657.0</ele><time>2026-04-18T12:13:36.768Z</time></trkpt><trkpt lat="42.8720667" lon="11.539995"><ele>654.0</ele><time>2026-04-18T12:13:37.769Z</time></trkpt><trkpt lat="42.8721283" lon="11.539855"><ele>651.0</ele><time>2026-04-18T12:13:38.772Z</time></trkpt><trkpt lat="42.872175" lon="11.5396983"><ele>648.0</ele><time>2026-04-18T12:13:39.771Z</time></trkpt><trkpt lat="42.872225" lon="11.53954"><ele>648.0</ele><time>2026-04-18T12:13:40.765Z</time></trkpt><trkpt lat="42.8722667" lon="11.539385"><ele>648.0</ele><time>2026-04-18T12:13:41.77Z</time></trkpt><trkpt lat="42.8723067" lon="11.5392367"><ele>648.0</ele><time>2026-04-18T12:13:42.77Z</time></trkpt><trkpt lat="42.8723467" lon="11.539085"><ele>648.0</ele><time>2026-04-18T12:13:43.76Z</time></trkpt><trkpt lat="42.872385" lon="11.53893"><ele>648.0</ele><time>2026-04-18T12:13:44.762Z</time></trkpt><trkpt lat="42.87241" lon="11.5387683"><ele>648.0</ele><time>2026-04-18T12:13:45.762Z</time></trkpt><trkpt lat="42.8724267" lon="11.538605"><ele>648.0</ele><time>2026-04-18T12:13:46.771Z</time></trkpt><trkpt lat="42.8724417" lon="11.5384433"><ele>648.0</ele><time>2026-04-18T12:13:47.771Z</time></trkpt><trkpt lat="42.8724517" lon="11.5382883"><ele>649.4</ele><time>2026-04-18T12:13:48.773Z</time></trkpt><trkpt lat="42.8724617" lon="11.5381383"><ele>650.8</ele><time>2026-04-18T12:13:49.773Z</time></trkpt><trkpt lat="42.8724783" lon="11.5379967"><ele>652.2</ele><time>2026-04-18T12:13:50.771Z</time></trkpt><trkpt lat="42.8725083" lon="11.5378733"><ele>653.6</ele><time>2026-04-18T12:13:51.771Z</time></trkpt><trkpt lat="42.872555" lon="11.5377733"><ele>655.0</ele><time>2026-04-18T12:13:52.77Z</time></trkpt><trkpt lat="42.8726067" lon="11.5376967"><ele>652.2</ele><time>2026-04-18T12:13:53.771Z</time></trkpt><trkpt lat="42.8727117" lon="11.5376767"><ele>649.4</ele><time>2026-04-18T12:13:54.773Z</time></trkpt><trkpt lat="42.8728117" lon="11.5377033"><ele>646.5999999999999</ele><time>2026-04-18T12:13:55.772Z</time></trkpt><trkpt lat="42.8728967" lon="11.5377517"><ele>643.8</ele><time>2026-04-18T12:13:56.771Z</time></trkpt><trkpt lat="42.8729533" lon="11.537865"><ele>641.0</ele><time>2026-04-18T12:13:57.772Z</time></trkpt><trkpt lat="42.872975" lon="11.5380117"><ele>638.3333333333333</ele><time>2026-04-18T12:13:58.77Z</time></trkpt><trkpt lat="42.8729467" lon="11.5382483"><ele>635.6666666666666</ele><time>2026-04-18T12:13:59.77Z</time></trkpt><trkpt lat="42.8728883" lon="11.5384417"><ele>633.0</ele><time>2026-04-18T12:14:00.77Z</time></trkpt><trkpt lat="42.872845" lon="11.538635"><ele>631.0</ele><time>2026-04-18T12:14:01.77Z</time></trkpt><trkpt lat="42.8728283" lon="11.5388017"><ele>629.0</ele><time>2026-04-18T12:14:02.773Z</time></trkpt><trkpt lat="42.8728083" lon="11.538975"><ele>627.0</ele><time>2026-04-18T12:14:03.771Z</time></trkpt><trkpt lat="42.87279" lon="11.5391467"><ele>625.0</ele><time>2026-04-18T12:14:04.766Z</time></trkpt><trkpt lat="42.87277" lon="11.5393183"><ele>625.0</ele><time>2026-04-18T12:14:05.771Z</time></trkpt><trkpt lat="42.8727533" lon="11.5394917"><ele>625.0</ele><time>2026-04-18T12:14:06.774Z</time></trkpt><trkpt lat="42.872735" lon="11.5396683"><ele>625.0</ele><time>2026-04-18T12:14:07.772Z</time></trkpt><trkpt lat="42.8727217" lon="11.53984"><ele>625.0</ele><time>2026-04-18T12:14:08.773Z</time></trkpt><trkpt lat="42.87271" lon="11.5400133"><ele>623.75</ele><time>2026-04-18T12:14:09.773Z</time></trkpt><trkpt lat="42.8726933" lon="11.54019"><ele>622.5</ele><time>2026-04-18T12:14:10.771Z</time></trkpt><trkpt lat="42.8726833" lon="11.5403683"><ele>621.25</ele><time>2026-04-18T12:14:11.769Z</time></trkpt><trkpt lat="42.8726817" lon="11.540545"><ele>620.0</ele><time>2026-04-18T12:14:12.768Z</time></trkpt><trkpt lat="42.8726933" lon="11.5407167"><ele>620.0</ele><time>2026-04-18T12:14:13.77Z</time></trkpt><trkpt lat="42.8727167" lon="11.5408867"><ele>620.0</ele><time>2026-04-18T12:14:14.772Z</time></trkpt><trkpt lat="42.8727483" lon="11.541055"><ele>620.0</ele><time>2026-04-18T12:14:15.77Z</time></trkpt><trkpt lat="42.8727833" lon="11.5412217"><ele>620.0</ele><time>2026-04-18T12:14:16.768Z</time></trkpt><trkpt lat="42.872815" lon="11.541385"><ele>620.0</ele><time>2026-04-18T12:14:17.768Z</time></trkpt><trkpt lat="42.8728433" lon="11.5415417"><ele>620.0</ele><time>2026-04-18T12:14:18.774Z</time></trkpt><trkpt lat="42.87287" lon="11.5416883"><ele>620.0</ele><time>2026-04-18T12:14:19.769Z</time></trkpt><trkpt lat="42.8729117" lon="11.541825"><ele>620.0</ele><time>2026-04-18T12:14:20.773Z</time></trkpt><trkpt lat="42.872975" lon="11.5419383"><ele>620.0</ele><time>2026-04-18T12:14:21.771Z</time></trkpt><trkpt lat="42.87306" lon="11.54203"><ele>620.0</ele><time>2026-04-18T12:14:22.769Z</time></trkpt><trkpt lat="42.8731667" lon="11.5420867"><ele>620.0</ele><time>2026-04-18T12:14:23.771Z</time></trkpt><trkpt lat="42.8732817" lon="11.542095"><ele>620.0</ele><time>2026-04-18T12:14:24.77Z</time></trkpt><trkpt lat="42.8734" lon="11.5420533"><ele>620.0</ele><time>2026-04-18T12:14:25.769Z</time></trkpt><trkpt lat="42.8735133" lon="11.5419733"><ele>619.75</ele><time>2026-04-18T12:14:26.774Z</time></trkpt><trkpt lat="42.873615" lon="11.54186"><ele>619.5</ele><time>2026-04-18T12:14:27.77Z</time></trkpt><trkpt lat="42.8737133" lon="11.541735"><ele>619.25</ele><time>2026-04-18T12:14:28.771Z</time></trkpt><trkpt lat="42.8738183" lon="11.5415983"><ele>619.0</ele><time>2026-04-18T12:14:29.772Z</time></trkpt><trkpt lat="42.873925" lon="11.5414567"><ele>619.0</ele><time>2026-04-18T12:14:30.773Z</time></trkpt><trkpt lat="42.87404" lon="11.5413217"><ele>619.0</ele><time>2026-04-18T12:14:31.771Z</time></trkpt><trkpt lat="42.8741617" lon="11.5411867"><ele>619.0</ele><time>2026-04-18T12:14:32.773Z</time></trkpt><trkpt lat="42.874275" lon="11.54106"><ele>620.5</ele><time>2026-04-18T12:14:33.771Z</time></trkpt><trkpt lat="42.8743883" lon="11.5409283"><ele>622.0</ele><time>2026-04-18T12:14:34.771Z</time></trkpt><trkpt lat="42.8744917" lon="11.5407917"><ele>623.5</ele><time>2026-04-18T12:14:35.772Z</time></trkpt><trkpt lat="42.8745783" lon="11.5406383"><ele>625.0</ele><time>2026-04-18T12:14:36.772Z</time></trkpt><trkpt lat="42.874645" lon="11.54047"><ele>622.0</ele><time>2026-04-18T12:14:37.772Z</time></trkpt><trkpt lat="42.8747033" lon="11.540285"><ele>619.0</ele><time>2026-04-18T12:14:38.771Z</time></trkpt><trkpt lat="42.8747617" lon="11.5401067"><ele>616.0</ele><time>2026-04-18T12:14:39.77Z</time></trkpt><trkpt lat="42.87482" lon="11.5399317"><ele>613.0</ele><time>2026-04-18T12:14:40.766Z</time></trkpt><trkpt lat="42.8748717" lon="11.539745"><ele>613.0</ele><time>2026-04-18T12:14:41.769Z</time></trkpt><trkpt lat="42.87493" lon="11.5395583"><ele>613.0</ele><time>2026-04-18T12:14:42.77Z</time></trkpt><trkpt lat="42.8749933" lon="11.53937"><ele>613.0</ele><time>2026-04-18T12:14:43.77Z</time></trkpt><trkpt lat="42.875055" lon="11.5391833"><ele>618.5</ele><time>2026-04-18T12:14:44.772Z</time></trkpt><trkpt lat="42.8751167" lon="11.5390033"><ele>624.0</ele><time>2026-04-18T12:14:45.771Z</time></trkpt><trkpt lat="42.8751717" lon="11.5388217"><ele>629.5</ele><time>2026-04-18T12:14:46.772Z</time></trkpt><trkpt lat="42.8752217" lon="11.5386367"><ele>635.0</ele><time>2026-04-18T12:14:47.772Z</time></trkpt><trkpt lat="42.8752733" lon="11.5384583"><ele>635.0</ele><time>2026-04-18T12:14:48.771Z</time></trkpt><trkpt lat="42.8753367" lon="11.538295"><ele>635.0</ele><time>2026-04-18T12:14:49.771Z</time></trkpt><trkpt lat="42.8754217" lon="11.5381483"><ele>635.0</ele><time>2026-04-18T12:14:50.773Z</time></trkpt><trkpt lat="42.8755183" lon="11.5380167"><ele>635.0</ele><time>2026-04-18T12:14:51.771Z</time></trkpt><trkpt lat="42.8756317" lon="11.5379167"><ele>632.0</ele><time>2026-04-18T12:14:52.769Z</time></trkpt><trkpt lat="42.875745" lon="11.5378433"><ele>629.0</ele><time>2026-04-18T12:14:53.772Z</time></trkpt><trkpt lat="42.8758617" lon="11.537765"><ele>626.0</ele><time>2026-04-18T12:14:54.772Z</time></trkpt><trkpt lat="42.8759667" lon="11.5376667"><ele>623.0</ele><time>2026-04-18T12:14:55.771Z</time></trkpt><trkpt lat="42.8760533" lon="11.53755"><ele>628.25</ele><time>2026-04-18T12:14:56.774Z</time></trkpt><trkpt lat="42.87613" lon="11.5374183"><ele>633.5</ele><time>2026-04-18T12:14:57.767Z</time></trkpt><trkpt lat="42.876195" lon="11.53728"><ele>638.75</ele><time>2026-04-18T12:14:58.773Z</time></trkpt><trkpt lat="42.8762567" lon="11.5371467"><ele>644.0</ele><time>2026-04-18T12:14:59.773Z</time></trkpt><trkpt lat="42.87632" lon="11.5370167"><ele>644.0</ele><time>2026-04-18T12:15:00.772Z</time></trkpt><trkpt lat="42.8763833" lon="11.536895"><ele>644.0</ele><time>2026-04-18T12:15:01.77Z</time></trkpt><trkpt lat="42.876445" lon="11.53677"><ele>644.0</ele><time>2026-04-18T12:15:02.776Z</time></trkpt><trkpt lat="42.876505" lon="11.5366433"><ele>644.0</ele><time>2026-04-18T12:15:03.772Z</time></trkpt><trkpt lat="42.8765717" lon="11.5365183"><ele>644.0</ele><time>2026-04-18T12:15:04.771Z</time></trkpt><trkpt lat="42.87664" lon="11.5363967"><ele>644.0</ele><time>2026-04-18T12:15:05.772Z</time></trkpt><trkpt lat="42.8767083" lon="11.5362767"><ele>644.0</ele><time>2026-04-18T12:15:06.772Z</time></trkpt><trkpt lat="42.87678" lon="11.53616"><ele>644.0</ele><time>2026-04-18T12:15:07.771Z</time></trkpt><trkpt lat="42.8768533" lon="11.53604"><ele>644.0</ele><time>2026-04-18T12:15:08.766Z</time></trkpt><trkpt lat="42.8769267" lon="11.53592"><ele>645.75</ele><time>2026-04-18T12:15:09.77Z</time></trkpt><trkpt lat="42.8770017" lon="11.535805"><ele>647.5</ele><time>2026-04-18T12:15:10.772Z</time></trkpt><trkpt lat="42.8770883" lon="11.535705"><ele>649.25</ele><time>2026-04-18T12:15:11.772Z</time></trkpt><trkpt lat="42.8771817" lon="11.5356283"><ele>651.0</ele><time>2026-04-18T12:15:12.771Z</time></trkpt><trkpt lat="42.87729" lon="11.5355667"><ele>651.0</ele><time>2026-04-18T12:15:13.77Z</time></trkpt><trkpt lat="42.8774" lon="11.535525"><ele>651.0</ele><time>2026-04-18T12:15:14.773Z</time></trkpt><trkpt lat="42.8775133" lon="11.5355033"><ele>651.0</ele><time>2026-04-18T12:15:15.772Z</time></trkpt><trkpt lat="42.877625" lon="11.5354983"><ele>651.0</ele><time>2026-04-18T12:15:16.77Z</time></trkpt><trkpt lat="42.8777333" lon="11.5354933"><ele>651.0</ele><time>2026-04-18T12:15:17.771Z</time></trkpt><trkpt lat="42.8778417" lon="11.535485"><ele>654.0</ele><time>2026-04-18T12:15:18.77Z</time></trkpt><trkpt lat="42.8779533" lon="11.535465"><ele>657.0</ele><time>2026-04-18T12:15:19.77Z</time></trkpt><trkpt lat="42.8780683" lon="11.5354317"><ele>660.0</ele><time>2026-04-18T12:15:20.773Z</time></trkpt><trkpt lat="42.87818" lon="11.5353917"><ele>663.0</ele><time>2026-04-18T12:15:21.772Z</time></trkpt><trkpt lat="42.878295" lon="11.5353467"><ele>655.75</ele><time>2026-04-18T12:15:22.771Z</time></trkpt><trkpt lat="42.8784133" lon="11.5353017"><ele>648.5</ele><time>2026-04-18T12:15:23.772Z</time></trkpt><trkpt lat="42.8785333" lon="11.53528"><ele>641.25</ele><time>2026-04-18T12:15:24.773Z</time></trkpt><trkpt lat="42.8786567" lon="11.535275"><ele>634.0</ele><time>2026-04-18T12:15:25.767Z</time></trkpt><trkpt lat="42.878785" lon="11.5353033"><ele>632.75</ele><time>2026-04-18T12:15:26.77Z</time></trkpt><trkpt lat="42.8789317" lon="11.5353633"><ele>631.5</ele><time>2026-04-18T12:15:27.771Z</time></trkpt><trkpt lat="42.8790633" lon="11.5354517"><ele>630.25</ele><time>2026-04-18T12:15:28.767Z</time></trkpt><trkpt lat="42.8791783" lon="11.5355467"><ele>629.0</ele><time>2026-04-18T12:15:29.773Z</time></trkpt><trkpt lat="42.879285" lon="11.535645"><ele>633.0</ele><time>2026-04-18T12:15:30.771Z</time></trkpt><trkpt lat="42.879405" lon="11.5357233"><ele>637.0</ele><time>2026-04-18T12:15:31.773Z</time></trkpt><trkpt lat="42.879525" lon="11.5357817"><ele>641.0</ele><time>2026-04-18T12:15:32.774Z</time></trkpt><trkpt lat="42.8796467" lon="11.535825"><ele>645.0</ele><time>2026-04-18T12:15:33.77Z</time></trkpt><trkpt lat="42.8797617" lon="11.5358583"><ele>645.0</ele><time>2026-04-18T12:15:34.771Z</time></trkpt><trkpt lat="42.8798583" lon="11.5359033"><ele>645.0</ele><time>2026-04-18T12:15:35.771Z</time></trkpt><trkpt lat="42.8799567" lon="11.535975"><ele>645.0</ele><time>2026-04-18T12:15:36.768Z</time></trkpt><trkpt lat="42.88005" lon="11.5360767"><ele>645.0</ele><time>2026-04-18T12:15:37.772Z</time></trkpt><trkpt lat="42.8801267" lon="11.5362"><ele>647.0</ele><time>2026-04-18T12:15:38.773Z</time></trkpt><trkpt lat="42.8801917" lon="11.5363333"><ele>649.0</ele><time>2026-04-18T12:15:39.772Z</time></trkpt><trkpt lat="42.8802367" lon="11.53648"><ele>651.0</ele><time>2026-04-18T12:15:40.772Z</time></trkpt><trkpt lat="42.88027" lon="11.53663"><ele>653.0</ele><time>2026-04-18T12:15:41.772Z</time></trkpt><trkpt lat="42.8802933" lon="11.536775"><ele>653.0</ele><time>2026-04-18T12:15:42.77Z</time></trkpt><trkpt lat="42.8803183" lon="11.536915"><ele>653.0</ele><time>2026-04-18T12:15:43.773Z</time></trkpt><trkpt lat="42.8803467" lon="11.53706"><ele>653.0</ele><time>2026-04-18T12:15:44.773Z</time></trkpt><trkpt lat="42.8803833" lon="11.5372"><ele>653.0</ele><time>2026-04-18T12:15:45.771Z</time></trkpt><trkpt lat="42.8804267" lon="11.5373333"><ele>653.0</ele><time>2026-04-18T12:15:46.771Z</time></trkpt><trkpt lat="42.8804817" lon="11.5374617"><ele>654.5</ele><time>2026-04-18T12:15:47.771Z</time></trkpt><trkpt lat="42.8805467" lon="11.537585"><ele>656.0</ele><time>2026-04-18T12:15:48.772Z</time></trkpt><trkpt lat="42.88063" lon="11.5376967"><ele>657.5</ele><time>2026-04-18T12:15:49.769Z</time></trkpt><trkpt lat="42.8807267" lon="11.5378017"><ele>659.0</ele><time>2026-04-18T12:15:50.771Z</time></trkpt><trkpt lat="42.880835" lon="11.5378933"><ele>660.5</ele><time>2026-04-18T12:15:51.769Z</time></trkpt><trkpt lat="42.8809433" lon="11.53797"><ele>662.0</ele><time>2026-04-18T12:15:52.768Z</time></trkpt><trkpt lat="42.8810567" lon="11.5380317"><ele>663.5</ele><time>2026-04-18T12:15:53.771Z</time></trkpt><trkpt lat="42.881175" lon="11.53807"><ele>665.0</ele><time>2026-04-18T12:15:54.773Z</time></trkpt><trkpt lat="42.88129" lon="11.538085"><ele>665.0</ele><time>2026-04-18T12:15:55.771Z</time></trkpt><trkpt lat="42.881405" lon="11.538075"><ele>665.0</ele><time>2026-04-18T12:15:56.771Z</time></trkpt><trkpt lat="42.8815233" lon="11.53805"><ele>665.0</ele><time>2026-04-18T12:15:57.77Z</time></trkpt><trkpt lat="42.88164" lon="11.5380183"><ele>665.0</ele><time>2026-04-18T12:15:58.766Z</time></trkpt><trkpt lat="42.8817533" lon="11.5379867"><ele>665.2</ele><time>2026-04-18T12:15:59.773Z</time></trkpt><trkpt lat="42.881865" lon="11.5379533"><ele>665.4</ele><time>2026-04-18T12:16:00.767Z</time></trkpt><trkpt lat="42.8819733" lon="11.5379117"><ele>665.5999999999999</ele><time>2026-04-18T12:16:01.771Z</time></trkpt><trkpt lat="42.8820767" lon="11.5378667"><ele>665.8</ele><time>2026-04-18T12:16:02.772Z</time></trkpt><trkpt lat="42.8821833" lon="11.537815"><ele>666.0</ele><time>2026-04-18T12:16:03.768Z</time></trkpt><trkpt lat="42.8822917" lon="11.5377583"><ele>665.25</ele><time>2026-04-18T12:16:04.769Z</time></trkpt><trkpt lat="42.8823967" lon="11.5376933"><ele>664.5</ele><time>2026-04-18T12:16:05.772Z</time></trkpt><trkpt lat="42.8825017" lon="11.5376167"><ele>663.75</ele><time>2026-04-18T12:16:06.772Z</time></trkpt><trkpt lat="42.882605" lon="11.5375383"><ele>663.0</ele><time>2026-04-18T12:16:07.771Z</time></trkpt><trkpt lat="42.8827117" lon="11.53746"><ele>662.0</ele><time>2026-04-18T12:16:08.769Z</time></trkpt><trkpt lat="42.88282" lon="11.5373867"><ele>661.0</ele><time>2026-04-18T12:16:09.766Z</time></trkpt><trkpt lat="42.8829333" lon="11.537315"><ele>660.0</ele><time>2026-04-18T12:16:10.771Z</time></trkpt><trkpt lat="42.8830483" lon="11.53725"><ele>659.0</ele><time>2026-04-18T12:16:11.77Z</time></trkpt><trkpt lat="42.88317" lon="11.5371933"><ele>659.0</ele><time>2026-04-18T12:16:12.772Z</time></trkpt><trkpt lat="42.8833" lon="11.5371383"><ele>659.0</ele><time>2026-04-18T12:16:13.766Z</time></trkpt><trkpt lat="42.88343" lon="11.5370917"><ele>659.0</ele><time>2026-04-18T12:16:14.773Z</time></trkpt><trkpt lat="42.88355" lon="11.5370467"><ele>659.0</ele><time>2026-04-18T12:16:15.772Z</time></trkpt><trkpt lat="42.883665" lon="11.5370067"><ele>657.6</ele><time>2026-04-18T12:16:16.77Z</time></trkpt><trkpt lat="42.88378" lon="11.53697"><ele>656.2</ele><time>2026-04-18T12:16:17.77Z</time></trkpt><trkpt lat="42.8838883" lon="11.53694"><ele>654.8000000000001</ele><time>2026-04-18T12:16:18.77Z</time></trkpt><trkpt lat="42.883995" lon="11.5369083"><ele>653.4000000000001</ele><time>2026-04-18T12:16:19.772Z</time></trkpt><trkpt lat="42.8840983" lon="11.53688"><ele>652.0</ele><time>2026-04-18T12:16:20.768Z</time></trkpt><trkpt lat="42.884195" lon="11.53685"><ele>651.0</ele><time>2026-04-18T12:16:21.773Z</time></trkpt><trkpt lat="42.884295" lon="11.5368167"><ele>650.0</ele><time>2026-04-18T12:16:22.769Z</time></trkpt><trkpt lat="42.8843967" lon="11.5367833"><ele>649.0</ele><time>2026-04-18T12:16:23.769Z</time></trkpt><trkpt lat="42.88449" lon="11.53675"><ele>648.0</ele><time>2026-04-18T12:16:24.77Z</time></trkpt><trkpt lat="42.88458" lon="11.536715"><ele>647.0</ele><time>2026-04-18T12:16:25.771Z</time></trkpt><trkpt lat="42.8846733" lon="11.53667"><ele>647.0</ele><time>2026-04-18T12:16:26.77Z</time></trkpt><trkpt lat="42.8847667" lon="11.5366183"><ele>647.0</ele><time>2026-04-18T12:16:27.771Z</time></trkpt><trkpt lat="42.88486" lon="11.5365633"><ele>647.0</ele><time>2026-04-18T12:16:28.77Z</time></trkpt><trkpt lat="42.88496" lon="11.536505"><ele>647.0</ele><time>2026-04-18T12:16:29.772Z</time></trkpt><trkpt lat="42.8850617" lon="11.536445"><ele>647.0</ele><time>2026-04-18T12:16:30.77Z</time></trkpt><trkpt lat="42.8851617" lon="11.5363883"><ele>646.25</ele><time>2026-04-18T12:16:31.774Z</time></trkpt><trkpt lat="42.8852667" lon="11.5363333"><ele>645.5</ele><time>2026-04-18T12:16:32.773Z</time></trkpt><trkpt lat="42.8853717" lon="11.536275"><ele>644.75</ele><time>2026-04-18T12:16:33.771Z</time></trkpt><trkpt lat="42.88548" lon="11.5362183"><ele>644.0</ele><time>2026-04-18T12:16:34.77Z</time></trkpt><trkpt lat="42.88559" lon="11.536155"><ele>644.0</ele><time>2026-04-18T12:16:35.773Z</time></trkpt><trkpt lat="42.8856983" lon="11.5360933"><ele>644.0</ele><time>2026-04-18T12:16:36.772Z</time></trkpt><trkpt lat="42.8858067" lon="11.5360333"><ele>644.0</ele><time>2026-04-18T12:16:37.771Z</time></trkpt><trkpt lat="42.88591" lon="11.5359783"><ele>644.0</ele><time>2026-04-18T12:16:38.773Z</time></trkpt><trkpt lat="42.88602" lon="11.5359267"><ele>642.5</ele><time>2026-04-18T12:16:39.771Z</time></trkpt><trkpt lat="42.8861333" lon="11.5358717"><ele>641.0</ele><time>2026-04-18T12:16:40.769Z</time></trkpt><trkpt lat="42.886245" lon="11.5358167"><ele>639.5</ele><time>2026-04-18T12:16:41.765Z</time></trkpt><trkpt lat="42.8863567" lon="11.535765"><ele>638.0</ele><time>2026-04-18T12:16:42.772Z</time></trkpt><trkpt lat="42.8864817" lon="11.5357283"><ele>638.0</ele><time>2026-04-18T12:16:43.772Z</time></trkpt><trkpt lat="42.886605" lon="11.5357083"><ele>638.0</ele><time>2026-04-18T12:16:44.774Z</time></trkpt><trkpt lat="42.886725" lon="11.5357017"><ele>638.0</ele><time>2026-04-18T12:16:45.769Z</time></trkpt><trkpt lat="42.8868417" lon="11.5357"><ele>638.0</ele><time>2026-04-18T12:16:46.768Z</time></trkpt><trkpt lat="42.88696" lon="11.5357033"><ele>637.75</ele><time>2026-04-18T12:16:47.773Z</time></trkpt><trkpt lat="42.8870733" lon="11.53571"><ele>637.5</ele><time>2026-04-18T12:16:48.774Z</time></trkpt><trkpt lat="42.887185" lon="11.53572"><ele>637.25</ele><time>2026-04-18T12:16:49.772Z</time></trkpt><trkpt lat="42.8872983" lon="11.5357333"><ele>637.0</ele><time>2026-04-18T12:16:50.772Z</time></trkpt><trkpt lat="42.8874117" lon="11.53574"><ele>637.0</ele><time>2026-04-18T12:16:51.77Z</time></trkpt><trkpt lat="42.8875217" lon="11.535745"><ele>637.0</ele><time>2026-04-18T12:16:52.766Z</time></trkpt><trkpt lat="42.887635" lon="11.535755"><ele>637.0</ele><time>2026-04-18T12:16:53.772Z</time></trkpt><trkpt lat="42.8877483" lon="11.5357667"><ele>637.0</ele><time>2026-04-18T12:16:54.771Z</time></trkpt><trkpt lat="42.8878683" lon="11.535785"><ele>636.5</ele><time>2026-04-18T12:16:55.771Z</time></trkpt><trkpt lat="42.88799" lon="11.5358117"><ele>636.0</ele><time>2026-04-18T12:16:56.773Z</time></trkpt><trkpt lat="42.88811" lon="11.5358417"><ele>635.5</ele><time>2026-04-18T12:16:57.771Z</time></trkpt><trkpt lat="42.8882183" lon="11.5358683"><ele>635.0</ele><time>2026-04-18T12:16:58.771Z</time></trkpt><trkpt lat="42.8883183" lon="11.535895"><ele>635.0</ele><time>2026-04-18T12:16:59.773Z</time></trkpt><trkpt lat="42.8884117" lon="11.5359217"><ele>635.0</ele><time>2026-04-18T12:17:00.769Z</time></trkpt><trkpt lat="42.8885033" lon="11.535955"><ele>635.0</ele><time>2026-04-18T12:17:01.769Z</time></trkpt><trkpt lat="42.888595" lon="11.5360017"><ele>635.0</ele><time>2026-04-18T12:17:02.772Z</time></trkpt><trkpt lat="42.888685" lon="11.536055"><ele>635.0</ele><time>2026-04-18T12:17:03.773Z</time></trkpt><trkpt lat="42.8887717" lon="11.5361117"><ele>634.4</ele><time>2026-04-18T12:17:04.769Z</time></trkpt><trkpt lat="42.8888767" lon="11.53617"><ele>633.8</ele><time>2026-04-18T12:17:05.772Z</time></trkpt><trkpt lat="42.888975" lon="11.536235"><ele>633.2</ele><time>2026-04-18T12:17:06.771Z</time></trkpt><trkpt lat="42.8890733" lon="11.5363017"><ele>632.6</ele><time>2026-04-18T12:17:07.768Z</time></trkpt><trkpt lat="42.889175" lon="11.53637"><ele>632.0</ele><time>2026-04-18T12:17:08.772Z</time></trkpt><trkpt lat="42.88929" lon="11.5364433"><ele>631.0</ele><time>2026-04-18T12:17:09.77Z</time></trkpt><trkpt lat="42.8894067" lon="11.5365217"><ele>630.0</ele><time>2026-04-18T12:17:10.772Z</time></trkpt><trkpt lat="42.889525" lon="11.5365933"><ele>629.0</ele><time>2026-04-18T12:17:11.772Z</time></trkpt><trkpt lat="42.8896367" lon="11.536665"><ele>628.0</ele><time>2026-04-18T12:17:12.772Z</time></trkpt><trkpt lat="42.8897483" lon="11.5367383"><ele>628.0</ele><time>2026-04-18T12:17:13.769Z</time></trkpt><trkpt lat="42.88986" lon="11.5368133"><ele>628.0</ele><time>2026-04-18T12:17:14.772Z</time></trkpt><trkpt lat="42.8899683" lon="11.5368833"><ele>628.0</ele><time>2026-04-18T12:17:15.769Z</time></trkpt><trkpt lat="42.8900717" lon="11.5369617"><ele>628.0</ele><time>2026-04-18T12:17:16.771Z</time></trkpt><trkpt lat="42.890175" lon="11.537035"><ele>627.0</ele><time>2026-04-18T12:17:17.769Z</time></trkpt><trkpt lat="42.8902717" lon="11.5371083"><ele>626.0</ele><time>2026-04-18T12:17:18.772Z</time></trkpt><trkpt lat="42.89037" lon="11.5371783"><ele>625.0</ele><time>2026-04-18T12:17:19.77Z</time></trkpt><trkpt lat="42.8904667" lon="11.5372417"><ele>624.0</ele><time>2026-04-18T12:17:20.771Z</time></trkpt><trkpt lat="42.8905667" lon="11.537305"><ele>623.0</ele><time>2026-04-18T12:17:21.771Z</time></trkpt><trkpt lat="42.8906667" lon="11.537375"><ele>623.0</ele><time>2026-04-18T12:17:22.769Z</time></trkpt><trkpt lat="42.8907717" lon="11.5374467"><ele>623.0</ele><time>2026-04-18T12:17:23.772Z</time></trkpt><trkpt lat="42.890875" lon="11.537525"><ele>623.0</ele><time>2026-04-18T12:17:24.773Z</time></trkpt><trkpt lat="42.890985" lon="11.5376067"><ele>623.0</ele><time>2026-04-18T12:17:25.772Z</time></trkpt><trkpt lat="42.891105" lon="11.5376817"><ele>623.5</ele><time>2026-04-18T12:17:26.77Z</time></trkpt><trkpt lat="42.8912217" lon="11.5377533"><ele>624.0</ele><time>2026-04-18T12:17:27.771Z</time></trkpt><trkpt lat="42.8913333" lon="11.537835"><ele>624.5</ele><time>2026-04-18T12:17:28.769Z</time></trkpt><trkpt lat="42.89145" lon="11.5379133"><ele>625.0</ele><time>2026-04-18T12:17:29.772Z</time></trkpt><trkpt lat="42.8915583" lon="11.5379933"><ele>625.0</ele><time>2026-04-18T12:17:30.771Z</time></trkpt><trkpt lat="42.8916633" lon="11.5380683"><ele>625.0</ele><time>2026-04-18T12:17:31.77Z</time></trkpt><trkpt lat="42.8917633" lon="11.53814"><ele>625.0</ele><time>2026-04-18T12:17:32.775Z</time></trkpt><trkpt lat="42.8918583" lon="11.5382017"><ele>625.0</ele><time>2026-04-18T12:17:33.77Z</time></trkpt><trkpt lat="42.8919467" lon="11.53828"><ele>625.0</ele><time>2026-04-18T12:17:34.766Z</time></trkpt><trkpt lat="42.8920233" lon="11.5383733"><ele>625.0</ele><time>2026-04-18T12:17:35.771Z</time></trkpt><trkpt lat="42.8920883" lon="11.5384917"><ele>625.0</ele><time>2026-04-18T12:17:36.771Z</time></trkpt><trkpt lat="42.8921383" lon="11.5386317"><ele>625.0</ele><time>2026-04-18T12:17:37.77Z</time></trkpt><trkpt lat="42.8921817" lon="11.538785"><ele>625.0</ele><time>2026-04-18T12:17:38.772Z</time></trkpt><trkpt lat="42.892215" lon="11.5389467"><ele>624.25</ele><time>2026-04-18T12:17:39.771Z</time></trkpt><trkpt lat="42.892245" lon="11.5391133"><ele>623.5</ele><time>2026-04-18T12:17:40.769Z</time></trkpt><trkpt lat="42.8922783" lon="11.5392867"><ele>622.75</ele><time>2026-04-18T12:17:41.768Z</time></trkpt><trkpt lat="42.89231" lon="11.53946"><ele>622.0</ele><time>2026-04-18T12:17:42.771Z</time></trkpt><trkpt lat="42.89234" lon="11.53963"><ele>621.5</ele><time>2026-04-18T12:17:43.768Z</time></trkpt><trkpt lat="42.892365" lon="11.5398033"><ele>621.0</ele><time>2026-04-18T12:17:44.77Z</time></trkpt><trkpt lat="42.8923917" lon="11.5399817"><ele>620.5</ele><time>2026-04-18T12:17:45.769Z</time></trkpt><trkpt lat="42.89242" lon="11.5401617"><ele>620.0</ele><time>2026-04-18T12:17:46.769Z</time></trkpt><trkpt lat="42.89245" lon="11.5403333"><ele>619.25</ele><time>2026-04-18T12:17:47.769Z</time></trkpt><trkpt lat="42.89248" lon="11.5405067"><ele>618.5</ele><time>2026-04-18T12:17:48.771Z</time></trkpt><trkpt lat="42.8925067" lon="11.5406783"><ele>617.75</ele><time>2026-04-18T12:17:49.766Z</time></trkpt><trkpt lat="42.8925333" lon="11.5408533"><ele>617.0</ele><time>2026-04-18T12:17:50.772Z</time></trkpt><trkpt lat="42.8925633" lon="11.54103"><ele>617.0</ele><time>2026-04-18T12:17:51.771Z</time></trkpt><trkpt lat="42.8925933" lon="11.541205"><ele>617.0</ele><time>2026-04-18T12:17:52.768Z</time></trkpt><trkpt lat="42.892625" lon="11.5413783"><ele>617.0</ele><time>2026-04-18T12:17:53.771Z</time></trkpt><trkpt lat="42.89266" lon="11.541555"><ele>617.0</ele><time>2026-04-18T12:17:54.774Z</time></trkpt><trkpt lat="42.89269" lon="11.54173"><ele>617.0</ele><time>2026-04-18T12:17:55.772Z</time></trkpt><trkpt lat="42.89272" lon="11.5419067"><ele>617.0</ele><time>2026-04-18T12:17:56.774Z</time></trkpt><trkpt lat="42.8927517" lon="11.54208"><ele>617.0</ele><time>2026-04-18T12:17:57.771Z</time></trkpt><trkpt lat="42.8927817" lon="11.54225"><ele>617.0</ele><time>2026-04-18T12:17:58.772Z</time></trkpt><trkpt lat="42.8928117" lon="11.5424167"><ele>616.25</ele><time>2026-04-18T12:17:59.77Z</time></trkpt><trkpt lat="42.89284" lon="11.5425817"><ele>615.5</ele><time>2026-04-18T12:18:00.772Z</time></trkpt><trkpt lat="42.89287" lon="11.5427533"><ele>614.75</ele><time>2026-04-18T12:18:01.77Z</time></trkpt><trkpt lat="42.892895" lon="11.5429217"><ele>614.0</ele><time>2026-04-18T12:18:02.769Z</time></trkpt><trkpt lat="42.892925" lon="11.5430867"><ele>613.5</ele><time>2026-04-18T12:18:03.771Z</time></trkpt><trkpt lat="42.8929533" lon="11.5432517"><ele>613.0</ele><time>2026-04-18T12:18:04.77Z</time></trkpt><trkpt lat="42.89298" lon="11.5434183"><ele>612.5</ele><time>2026-04-18T12:18:05.772Z</time></trkpt><trkpt lat="42.8930033" lon="11.543585"><ele>612.0</ele><time>2026-04-18T12:18:06.771Z</time></trkpt><trkpt lat="42.8930283" lon="11.54375"><ele>610.75</ele><time>2026-04-18T12:18:07.766Z</time></trkpt><trkpt lat="42.8930533" lon="11.54391"><ele>609.5</ele><time>2026-04-18T12:18:08.774Z</time></trkpt><trkpt lat="42.8930833" lon="11.54407"><ele>608.25</ele><time>2026-04-18T12:18:09.771Z</time></trkpt><trkpt lat="42.8931183" lon="11.5442367"><ele>607.0</ele><time>2026-04-18T12:18:10.77Z</time></trkpt><trkpt lat="42.89316" lon="11.5444033"><ele>607.0</ele><time>2026-04-18T12:18:11.771Z</time></trkpt><trkpt lat="42.8932083" lon="11.5445683"><ele>607.0</ele><time>2026-04-18T12:18:12.771Z</time></trkpt><trkpt lat="42.8932617" lon="11.5447367"><ele>607.0</ele><time>2026-04-18T12:18:13.773Z</time></trkpt><trkpt lat="42.893325" lon="11.5448983"><ele>607.0</ele><time>2026-04-18T12:18:14.774Z</time></trkpt><trkpt lat="42.8933983" lon="11.545055"><ele>606.3333333333334</ele><time>2026-04-18T12:18:15.769Z</time></trkpt><trkpt lat="42.893485" lon="11.5452217"><ele>605.6666666666666</ele><time>2026-04-18T12:18:16.774Z</time></trkpt><trkpt lat="42.8935817" lon="11.5453883"><ele>605.0</ele><time>2026-04-18T12:18:17.773Z</time></trkpt><trkpt lat="42.8936817" lon="11.5455567"><ele>607.3333333333333</ele><time>2026-04-18T12:18:18.77Z</time></trkpt><trkpt lat="42.89378" lon="11.5457233"><ele>609.6666666666666</ele><time>2026-04-18T12:18:19.772Z</time></trkpt><trkpt lat="42.8938717" lon="11.5458883"><ele>612.0</ele><time>2026-04-18T12:18:20.773Z</time></trkpt><trkpt lat="42.8939583" lon="11.54605"><ele>612.0</ele><time>2026-04-18T12:18:21.771Z</time></trkpt><trkpt lat="42.8940383" lon="11.546205"><ele>612.0</ele><time>2026-04-18T12:18:22.769Z</time></trkpt><trkpt lat="42.894105" lon="11.54635"><ele>612.0</ele><time>2026-04-18T12:18:23.769Z</time></trkpt><trkpt lat="42.894165" lon="11.5464917"><ele>612.0</ele><time>2026-04-18T12:18:24.767Z</time></trkpt><trkpt lat="42.8942167" lon="11.5466283"><ele>610.75</ele><time>2026-04-18T12:18:25.767Z</time></trkpt><trkpt lat="42.894265" lon="11.546765"><ele>609.5</ele><time>2026-04-18T12:18:26.773Z</time></trkpt><trkpt lat="42.8943167" lon="11.5468983"><ele>608.25</ele><time>2026-04-18T12:18:27.772Z</time></trkpt><trkpt lat="42.8943733" lon="11.5470333"><ele>607.0</ele><time>2026-04-18T12:18:28.768Z</time></trkpt><trkpt lat="42.894445" lon="11.5471833"><ele>609.75</ele><time>2026-04-18T12:18:29.771Z</time></trkpt><trkpt lat="42.89451" lon="11.547345"><ele>612.5</ele><time>2026-04-18T12:18:30.772Z</time></trkpt><trkpt lat="42.894575" lon="11.5475283"><ele>615.25</ele><time>2026-04-18T12:18:31.769Z</time></trkpt><trkpt lat="42.8946317" lon="11.5477283"><ele>618.0</ele><time>2026-04-18T12:18:32.773Z</time></trkpt><trkpt lat="42.8946817" lon="11.547945"><ele>621.6666666666666</ele><time>2026-04-18T12:18:33.765Z</time></trkpt><trkpt lat="42.8947233" lon="11.5481783"><ele>625.3333333333333</ele><time>2026-04-18T12:18:34.771Z</time></trkpt><trkpt lat="42.8947567" lon="11.5484217"><ele>629.0</ele><time>2026-04-18T12:18:35.772Z</time></trkpt><trkpt lat="42.8947867" lon="11.54867"><ele>630.3333333333333</ele><time>2026-04-18T12:18:36.765Z</time></trkpt><trkpt lat="42.8948267" lon="11.5489183"><ele>631.6666666666666</ele><time>2026-04-18T12:18:37.768Z</time></trkpt><trkpt lat="42.8948783" lon="11.54918"><ele>633.0</ele><time>2026-04-18T12:18:38.771Z</time></trkpt><trkpt lat="42.8949467" lon="11.5494383"><ele>633.3333333333334</ele><time>2026-04-18T12:18:39.772Z</time></trkpt><trkpt lat="42.8950333" lon="11.5496867"><ele>633.6666666666667</ele><time>2026-04-18T12:18:40.77Z</time></trkpt><trkpt lat="42.895135" lon="11.5499383"><ele>634.0</ele><time>2026-04-18T12:18:41.768Z</time></trkpt><trkpt lat="42.8952367" lon="11.550195"><ele>635.6666666666667</ele><time>2026-04-18T12:18:42.77Z</time></trkpt><trkpt lat="42.8953383" lon="11.5504583"><ele>637.3333333333334</ele><time>2026-04-18T12:18:43.77Z</time></trkpt><trkpt lat="42.8954433" lon="11.5507217"><ele>639.0</ele><time>2026-04-18T12:18:44.771Z</time></trkpt><trkpt lat="42.8955417" lon="11.55098"><ele>641.3333333333334</ele><time>2026-04-18T12:18:45.771Z</time></trkpt><trkpt lat="42.8956333" lon="11.5512133"><ele>643.6666666666667</ele><time>2026-04-18T12:18:46.769Z</time></trkpt><trkpt lat="42.895715" lon="11.5514317"><ele>646.0</ele><time>2026-04-18T12:18:47.759Z</time></trkpt><trkpt lat="42.8957883" lon="11.55165"><ele>646.0</ele><time>2026-04-18T12:18:48.771Z</time></trkpt><trkpt lat="42.8958383" lon="11.5518867"><ele>646.0</ele><time>2026-04-18T12:18:49.761Z</time></trkpt><trkpt lat="42.8958683" lon="11.55213"><ele>646.0</ele><time>2026-04-18T12:18:50.773Z</time></trkpt><trkpt lat="42.8958917" lon="11.5523783"><ele>644.0</ele><time>2026-04-18T12:18:51.769Z</time></trkpt><trkpt lat="42.89593" lon="11.5526083"><ele>642.0</ele><time>2026-04-18T12:18:52.769Z</time></trkpt><trkpt lat="42.8959933" lon="11.5528117"><ele>640.0</ele><time>2026-04-18T12:18:53.769Z</time></trkpt><trkpt lat="42.896085" lon="11.55298"><ele>640.0</ele><time>2026-04-18T12:18:54.77Z</time></trkpt><trkpt lat="42.8962033" lon="11.55311"><ele>640.0</ele><time>2026-04-18T12:18:55.773Z</time></trkpt><trkpt lat="42.896355" lon="11.55319"><ele>640.0</ele><time>2026-04-18T12:18:56.773Z</time></trkpt><trkpt lat="42.8965283" lon="11.5532783"><ele>640.0</ele><time>2026-04-18T12:18:57.77Z</time></trkpt><trkpt lat="42.8966967" lon="11.5533967"><ele>640.0</ele><time>2026-04-18T12:18:58.771Z</time></trkpt><trkpt lat="42.8968417" lon="11.553545"><ele>640.0</ele><time>2026-04-18T12:18:59.77Z</time></trkpt><trkpt lat="42.89699" lon="11.5536733"><ele>640.6666666666667</ele><time>2026-04-18T12:19:00.772Z</time></trkpt><trkpt lat="42.8971317" lon="11.5537667"><ele>641.3333333333334</ele><time>2026-04-18T12:19:01.77Z</time></trkpt><trkpt lat="42.8972967" lon="11.5538033"><ele>642.0</ele><time>2026-04-18T12:19:02.773Z</time></trkpt><trkpt lat="42.897465" lon="11.5538117"><ele>637.0</ele><time>2026-04-18T12:19:03.77Z</time></trkpt><trkpt lat="42.897625" lon="11.5538217"><ele>632.0</ele><time>2026-04-18T12:19:04.766Z</time></trkpt><trkpt lat="42.897775" lon="11.5538767"><ele>627.0</ele><time>2026-04-18T12:19:05.77Z</time></trkpt><trkpt lat="42.8979083" lon="11.553975"><ele>627.0</ele><time>2026-04-18T12:19:06.77Z</time></trkpt><trkpt lat="42.8980133" lon="11.554135"><ele>627.0</ele><time>2026-04-18T12:19:07.77Z</time></trkpt><trkpt lat="42.8980783" lon="11.5543467"><ele>627.0</ele><time>2026-04-18T12:19:08.774Z</time></trkpt><trkpt lat="42.8981233" lon="11.5545817"><ele>629.3333333333334</ele><time>2026-04-18T12:19:09.768Z</time></trkpt><trkpt lat="42.89817" lon="11.5548"><ele>631.6666666666667</ele><time>2026-04-18T12:19:10.77Z</time></trkpt><trkpt lat="42.8982267" lon="11.554995"><ele>634.0</ele><time>2026-04-18T12:19:11.771Z</time></trkpt><trkpt lat="42.898325" lon="11.5551483"><ele>631.0</ele><time>2026-04-18T12:19:12.766Z</time></trkpt><trkpt lat="42.8984633" lon="11.55526"><ele>628.0</ele><time>2026-04-18T12:19:13.772Z</time></trkpt><trkpt lat="42.89861" lon="11.5553567"><ele>625.0</ele><time>2026-04-18T12:19:14.77Z</time></trkpt><trkpt lat="42.8987617" lon="11.5554733"><ele>625.0</ele><time>2026-04-18T12:19:15.772Z</time></trkpt><trkpt lat="42.8989033" lon="11.555625"><ele>625.0</ele><time>2026-04-18T12:19:16.772Z</time></trkpt><trkpt lat="42.8990383" lon="11.5558"><ele>625.0</ele><time>2026-04-18T12:19:17.773Z</time></trkpt><trkpt lat="42.8991683" lon="11.5559767"><ele>622.6666666666667</ele><time>2026-04-18T12:19:18.773Z</time></trkpt><trkpt lat="42.8992933" lon="11.5561433"><ele>620.3333333333334</ele><time>2026-04-18T12:19:19.772Z</time></trkpt><trkpt lat="42.89942" lon="11.5563133"><ele>618.0</ele><time>2026-04-18T12:19:20.774Z</time></trkpt><trkpt lat="42.899555" lon="11.5564767"><ele>618.0</ele><time>2026-04-18T12:19:21.772Z</time></trkpt><trkpt lat="42.899705" lon="11.55662"><ele>618.0</ele><time>2026-04-18T12:19:22.768Z</time></trkpt><trkpt lat="42.8998633" lon="11.55674"><ele>618.0</ele><time>2026-04-18T12:19:23.769Z</time></trkpt><trkpt lat="42.9000283" lon="11.55684"><ele>617.6666666666666</ele><time>2026-04-18T12:19:24.771Z</time></trkpt><trkpt lat="42.9001933" lon="11.5569317"><ele>617.3333333333333</ele><time>2026-04-18T12:19:25.771Z</time></trkpt><trkpt lat="42.9003533" lon="11.5570183"><ele>617.0</ele><time>2026-04-18T12:19:26.771Z</time></trkpt><trkpt lat="42.9005083" lon="11.5570967"><ele>620.0</ele><time>2026-04-18T12:19:27.772Z</time></trkpt><trkpt lat="42.9006517" lon="11.5571533"><ele>623.0</ele><time>2026-04-18T12:19:28.773Z</time></trkpt><trkpt lat="42.9008017" lon="11.5571667"><ele>626.0</ele><time>2026-04-18T12:19:29.77Z</time></trkpt><trkpt lat="42.9009617" lon="11.5571417"><ele>624.6666666666666</ele><time>2026-04-18T12:19:30.769Z</time></trkpt><trkpt lat="42.9011217" lon="11.5570667"><ele>623.3333333333334</ele><time>2026-04-18T12:19:31.771Z</time></trkpt><trkpt lat="42.901275" lon="11.556945"><ele>622.0</ele><time>2026-04-18T12:19:32.773Z</time></trkpt><trkpt lat="42.9014233" lon="11.5567933"><ele>622.0</ele><time>2026-04-18T12:19:33.771Z</time></trkpt><trkpt lat="42.90158" lon="11.5566333"><ele>622.0</ele><time>2026-04-18T12:19:34.77Z</time></trkpt><trkpt lat="42.901735" lon="11.55647"><ele>622.0</ele><time>2026-04-18T12:19:35.77Z</time></trkpt><trkpt lat="42.90189" lon="11.5563133"><ele>622.6666666666667</ele><time>2026-04-18T12:19:36.769Z</time></trkpt><trkpt lat="42.90205" lon="11.5561617"><ele>623.3333333333334</ele><time>2026-04-18T12:19:37.772Z</time></trkpt><trkpt lat="42.902205" lon="11.5560217"><ele>624.0</ele><time>2026-04-18T12:19:38.773Z</time></trkpt><trkpt lat="42.9023633" lon="11.5558917"><ele>624.0</ele><time>2026-04-18T12:19:39.771Z</time></trkpt><trkpt lat="42.90252" lon="11.5557717"><ele>624.0</ele><time>2026-04-18T12:19:40.77Z</time></trkpt><trkpt lat="42.9026783" lon="11.555665"><ele>624.0</ele><time>2026-04-18T12:19:41.771Z</time></trkpt><trkpt lat="42.902835" lon="11.5555567"><ele>623.6666666666666</ele><time>2026-04-18T12:19:42.77Z</time></trkpt><trkpt lat="42.90299" lon="11.555435"><ele>623.3333333333333</ele><time>2026-04-18T12:19:43.767Z</time></trkpt><trkpt lat="42.9031467" lon="11.5553"><ele>623.0</ele><time>2026-04-18T12:19:44.772Z</time></trkpt><trkpt lat="42.9033133" lon="11.5551583"><ele>626.3333333333333</ele><time>2026-04-18T12:19:45.769Z</time></trkpt><trkpt lat="42.9034867" lon="11.55501"><ele>629.6666666666666</ele><time>2026-04-18T12:19:46.773Z</time></trkpt><trkpt lat="42.903655" lon="11.554855"><ele>633.0</ele><time>2026-04-18T12:19:47.773Z</time></trkpt><trkpt lat="42.9038267" lon="11.5546967"><ele>630.0</ele><time>2026-04-18T12:19:48.773Z</time></trkpt><trkpt lat="42.9040017" lon="11.5545283"><ele>627.0</ele><time>2026-04-18T12:19:49.773Z</time></trkpt><trkpt lat="42.9041833" lon="11.5543617"><ele>624.0</ele><time>2026-04-18T12:19:50.774Z</time></trkpt><trkpt lat="42.9043633" lon="11.5541917"><ele>624.0</ele><time>2026-04-18T12:19:51.771Z</time></trkpt><trkpt lat="42.90455" lon="11.554045"><ele>624.0</ele><time>2026-04-18T12:19:52.771Z</time></trkpt><trkpt lat="42.9047333" lon="11.5539"><ele>624.0</ele><time>2026-04-18T12:19:53.773Z</time></trkpt><trkpt lat="42.9048983" lon="11.553765"><ele>619.3333333333334</ele><time>2026-04-18T12:19:54.772Z</time></trkpt><trkpt lat="42.90505" lon="11.5536433"><ele>614.6666666666667</ele><time>2026-04-18T12:19:55.772Z</time></trkpt><trkpt lat="42.9052" lon="11.55353"><ele>610.0</ele><time>2026-04-18T12:19:56.775Z</time></trkpt><trkpt lat="42.905345" lon="11.5534267"><ele>609.3333333333334</ele><time>2026-04-18T12:19:57.773Z</time></trkpt><trkpt lat="42.9054917" lon="11.5533317"><ele>608.6666666666666</ele><time>2026-04-18T12:19:58.772Z</time></trkpt><trkpt lat="42.9056233" lon="11.55324"><ele>608.0</ele><time>2026-04-18T12:19:59.771Z</time></trkpt><trkpt lat="42.9057517" lon="11.55316"><ele>608.0</ele><time>2026-04-18T12:20:00.771Z</time></trkpt><trkpt lat="42.90589" lon="11.5531167"><ele>608.0</ele><time>2026-04-18T12:20:01.771Z</time></trkpt><trkpt lat="42.9060367" lon="11.553105"><ele>608.0</ele><time>2026-04-18T12:20:02.773Z</time></trkpt><trkpt lat="42.9061917" lon="11.55313"><ele>608.0</ele><time>2026-04-18T12:20:03.77Z</time></trkpt><trkpt lat="42.9063483" lon="11.5531717"><ele>607.25</ele><time>2026-04-18T12:20:04.771Z</time></trkpt><trkpt lat="42.90649" lon="11.553195"><ele>606.5</ele><time>2026-04-18T12:20:05.77Z</time></trkpt><trkpt lat="42.90662" lon="11.553175"><ele>605.75</ele><time>2026-04-18T12:20:06.77Z</time></trkpt><trkpt lat="42.9067467" lon="11.55308"><ele>605.0</ele><time>2026-04-18T12:20:07.771Z</time></trkpt><trkpt lat="42.9068683" lon="11.5529333"><ele>601.3333333333333</ele><time>2026-04-18T12:20:08.772Z</time></trkpt><trkpt lat="42.906995" lon="11.5527783"><ele>597.6666666666666</ele><time>2026-04-18T12:20:09.767Z</time></trkpt><trkpt lat="42.9071167" lon="11.5526517"><ele>594.0</ele><time>2026-04-18T12:20:10.769Z</time></trkpt><trkpt lat="42.9072383" lon="11.5525683"><ele>594.0</ele><time>2026-04-18T12:20:11.771Z</time></trkpt><trkpt lat="42.907355" lon="11.552525"><ele>594.0</ele><time>2026-04-18T12:20:12.77Z</time></trkpt><trkpt lat="42.9074783" lon="11.5525333"><ele>594.0</ele><time>2026-04-18T12:20:13.77Z</time></trkpt><trkpt lat="42.9076133" lon="11.55258"><ele>594.0</ele><time>2026-04-18T12:20:14.769Z</time></trkpt><trkpt lat="42.9077467" lon="11.5527017"><ele>594.0</ele><time>2026-04-18T12:20:15.769Z</time></trkpt><trkpt lat="42.9078967" lon="11.55287"><ele>594.0</ele><time>2026-04-18T12:20:16.769Z</time></trkpt><trkpt lat="42.9080617" lon="11.5530217"><ele>594.0</ele><time>2026-04-18T12:20:17.77Z</time></trkpt><trkpt lat="42.9082567" lon="11.553115"><ele>590.0</ele><time>2026-04-18T12:20:18.771Z</time></trkpt><trkpt lat="42.9084667" lon="11.5531833"><ele>586.0</ele><time>2026-04-18T12:20:19.768Z</time></trkpt><trkpt lat="42.9086733" lon="11.5532617"><ele>582.0</ele><time>2026-04-18T12:20:20.773Z</time></trkpt><trkpt lat="42.9088683" lon="11.5533533"><ele>582.0</ele><time>2026-04-18T12:20:21.77Z</time></trkpt><trkpt lat="42.9090467" lon="11.5534467"><ele>582.0</ele><time>2026-04-18T12:20:22.771Z</time></trkpt><trkpt lat="42.9092183" lon="11.5535367"><ele>582.0</ele><time>2026-04-18T12:20:23.769Z</time></trkpt><trkpt lat="42.9093633" lon="11.5536217"><ele>575.75</ele><time>2026-04-18T12:20:24.768Z</time></trkpt><trkpt lat="42.9094767" lon="11.5537183"><ele>569.5</ele><time>2026-04-18T12:20:25.773Z</time></trkpt><trkpt lat="42.9095467" lon="11.5538383"><ele>563.25</ele><time>2026-04-18T12:20:26.772Z</time></trkpt><trkpt lat="42.9095833" lon="11.5539867"><ele>557.0</ele><time>2026-04-18T12:20:27.769Z</time></trkpt><trkpt lat="42.909585" lon="11.5541617"><ele>557.0</ele><time>2026-04-18T12:20:28.769Z</time></trkpt><trkpt lat="42.9095767" lon="11.5543567"><ele>557.0</ele><time>2026-04-18T12:20:29.769Z</time></trkpt><trkpt lat="42.9095683" lon="11.55458"><ele>557.0</ele><time>2026-04-18T12:20:30.77Z</time></trkpt><trkpt lat="42.9095533" lon="11.5548183"><ele>557.3333333333333</ele><time>2026-04-18T12:20:31.77Z</time></trkpt><trkpt lat="42.9095417" lon="11.5550633"><ele>557.6666666666666</ele><time>2026-04-18T12:20:32.772Z</time></trkpt><trkpt lat="42.9095383" lon="11.5553133"><ele>558.0</ele><time>2026-04-18T12:20:33.771Z</time></trkpt><trkpt lat="42.9095433" lon="11.5555667"><ele>560.3333333333334</ele><time>2026-04-18T12:20:34.771Z</time></trkpt><trkpt lat="42.9095617" lon="11.5558183"><ele>562.6666666666667</ele><time>2026-04-18T12:20:35.772Z</time></trkpt><trkpt lat="42.909595" lon="11.5560683"><ele>565.0</ele><time>2026-04-18T12:20:36.767Z</time></trkpt><trkpt lat="42.9096283" lon="11.5563133"><ele>567.6666666666667</ele><time>2026-04-18T12:20:37.77Z</time></trkpt><trkpt lat="42.9096633" lon="11.55655"><ele>570.3333333333334</ele><time>2026-04-18T12:20:38.772Z</time></trkpt><trkpt lat="42.9096883" lon="11.5567683"><ele>573.0</ele><time>2026-04-18T12:20:39.77Z</time></trkpt><trkpt lat="42.9097117" lon="11.5569667"><ele>573.5</ele><time>2026-04-18T12:20:40.771Z</time></trkpt><trkpt lat="42.90974" lon="11.5571483"><ele>574.0</ele><time>2026-04-18T12:20:41.77Z</time></trkpt><trkpt lat="42.9097917" lon="11.5573083"><ele>574.5</ele><time>2026-04-18T12:20:42.77Z</time></trkpt><trkpt lat="42.9098583" lon="11.5574283"><ele>575.0</ele><time>2026-04-18T12:20:43.77Z</time></trkpt><trkpt lat="42.9099467" lon="11.5575117"><ele>575.0</ele><time>2026-04-18T12:20:44.771Z</time></trkpt><trkpt lat="42.9100733" lon="11.5575183"><ele>575.0</ele><time>2026-04-18T12:20:45.767Z</time></trkpt><trkpt lat="42.9102233" lon="11.55745"><ele>575.0</ele><time>2026-04-18T12:20:46.767Z</time></trkpt><trkpt lat="42.9103733" lon="11.5573883"><ele>575.0</ele><time>2026-04-18T12:20:47.767Z</time></trkpt><trkpt lat="42.91051" lon="11.5573433"><ele>570.5</ele><time>2026-04-18T12:20:48.774Z</time></trkpt><trkpt lat="42.9106367" lon="11.5573233"><ele>566.0</ele><time>2026-04-18T12:20:49.767Z</time></trkpt><trkpt lat="42.9107417" lon="11.5573583"><ele>561.5</ele><time>2026-04-18T12:20:50.771Z</time></trkpt><trkpt lat="42.9107967" lon="11.5574633"><ele>557.0</ele><time>2026-04-18T12:20:51.767Z</time></trkpt><trkpt lat="42.9107767" lon="11.5576367"><ele>557.0</ele><time>2026-04-18T12:20:52.764Z</time></trkpt><trkpt lat="42.9107467" lon="11.5578267"><ele>557.0</ele><time>2026-04-18T12:20:53.769Z</time></trkpt><trkpt lat="42.9107133" lon="11.558025"><ele>557.0</ele><time>2026-04-18T12:20:54.767Z</time></trkpt><trkpt lat="42.9107067" lon="11.5582217"><ele>557.0</ele><time>2026-04-18T12:20:55.768Z</time></trkpt><trkpt lat="42.9107167" lon="11.5583967"><ele>555.6</ele><time>2026-04-18T12:20:56.769Z</time></trkpt><trkpt lat="42.9107483" lon="11.5585483"><ele>554.2</ele><time>2026-04-18T12:20:57.768Z</time></trkpt><trkpt lat="42.910785" lon="11.5586833"><ele>552.8</ele><time>2026-04-18T12:20:58.769Z</time></trkpt><trkpt lat="42.9108233" lon="11.5588117"><ele>551.4</ele><time>2026-04-18T12:20:59.768Z</time></trkpt><trkpt lat="42.9108517" lon="11.5589367"><ele>550.0</ele><time>2026-04-18T12:21:00.769Z</time></trkpt><trkpt lat="42.9108583" lon="11.559075"><ele>548.75</ele><time>2026-04-18T12:21:01.764Z</time></trkpt><trkpt lat="42.910845" lon="11.5592333"><ele>547.5</ele><time>2026-04-18T12:21:02.768Z</time></trkpt><trkpt lat="42.9108117" lon="11.5594017"><ele>546.25</ele><time>2026-04-18T12:21:03.767Z</time></trkpt><trkpt lat="42.910765" lon="11.5595667"><ele>545.0</ele><time>2026-04-18T12:21:04.766Z</time></trkpt><trkpt lat="42.9107217" lon="11.559725"><ele>544.0</ele><time>2026-04-18T12:21:05.769Z</time></trkpt><trkpt lat="42.9106933" lon="11.5598733"><ele>543.0</ele><time>2026-04-18T12:21:06.773Z</time></trkpt><trkpt lat="42.9106917" lon="11.56004"><ele>542.0</ele><time>2026-04-18T12:21:07.77Z</time></trkpt><trkpt lat="42.9107317" lon="11.5602"><ele>541.0</ele><time>2026-04-18T12:21:08.772Z</time></trkpt><trkpt lat="42.9107933" lon="11.56035"><ele>541.25</ele><time>2026-04-18T12:21:09.763Z</time></trkpt><trkpt lat="42.9108767" lon="11.5604883"><ele>541.5</ele><time>2026-04-18T12:21:10.766Z</time></trkpt><trkpt lat="42.91096" lon="11.5606183"><ele>541.75</ele><time>2026-04-18T12:21:11.771Z</time></trkpt><trkpt lat="42.9110617" lon="11.5607467"><ele>542.0</ele><time>2026-04-18T12:21:12.773Z</time></trkpt><trkpt lat="42.9111817" lon="11.56088"><ele>538.6666666666666</ele><time>2026-04-18T12:21:13.769Z</time></trkpt><trkpt lat="42.9113233" lon="11.561025"><ele>535.3333333333334</ele><time>2026-04-18T12:21:14.772Z</time></trkpt><trkpt lat="42.9114733" lon="11.5611867"><ele>532.0</ele><time>2026-04-18T12:21:15.77Z</time></trkpt><trkpt lat="42.91162" lon="11.5613567"><ele>529.6666666666667</ele><time>2026-04-18T12:21:16.762Z</time></trkpt><trkpt lat="42.9117683" lon="11.56152"><ele>527.3333333333334</ele><time>2026-04-18T12:21:17.77Z</time></trkpt><trkpt lat="42.91191" lon="11.5616783"><ele>525.0</ele><time>2026-04-18T12:21:18.767Z</time></trkpt><trkpt lat="42.9120433" lon="11.5618217"><ele>525.0</ele><time>2026-04-18T12:21:19.766Z</time></trkpt><trkpt lat="42.9121683" lon="11.5619533"><ele>525.0</ele><time>2026-04-18T12:21:20.771Z</time></trkpt><trkpt lat="42.9122817" lon="11.5620517"><ele>525.0</ele><time>2026-04-18T12:21:21.768Z</time></trkpt><trkpt lat="42.91239" lon="11.562105"><ele>525.0</ele><time>2026-04-18T12:21:22.763Z</time></trkpt><trkpt lat="42.912505" lon="11.562115"><ele>524.3333333333334</ele><time>2026-04-18T12:21:23.768Z</time></trkpt><trkpt lat="42.9126333" lon="11.5620617"><ele>523.6666666666667</ele><time>2026-04-18T12:21:24.769Z</time></trkpt><trkpt lat="42.912775" lon="11.5619733"><ele>523.0</ele><time>2026-04-18T12:21:25.767Z</time></trkpt><trkpt lat="42.91292" lon="11.5618717"><ele>523.0</ele><time>2026-04-18T12:21:26.769Z</time></trkpt><trkpt lat="42.9130833" lon="11.5618083"><ele>523.0</ele><time>2026-04-18T12:21:27.767Z</time></trkpt><trkpt lat="42.9133083" lon="11.5617767"><ele>523.0</ele><time>2026-04-18T12:21:28.765Z</time></trkpt><trkpt lat="42.9135217" lon="11.5617367"><ele>523.0</ele><time>2026-04-18T12:21:29.768Z</time></trkpt><trkpt lat="42.9137517" lon="11.56168"><ele>523.0</ele><time>2026-04-18T12:21:30.768Z</time></trkpt><trkpt lat="42.9139733" lon="11.5616317"><ele>523.0</ele><time>2026-04-18T12:21:31.766Z</time></trkpt><trkpt lat="42.914175" lon="11.5616117"><ele>523.0</ele><time>2026-04-18T12:21:32.768Z</time></trkpt><trkpt lat="42.9143633" lon="11.5616217"><ele>523.0</ele><time>2026-04-18T12:21:33.767Z</time></trkpt><trkpt lat="42.91454" lon="11.5616483"><ele>524.0</ele><time>2026-04-18T12:21:34.765Z</time></trkpt><trkpt lat="42.914705" lon="11.5616717"><ele>525.0</ele><time>2026-04-18T12:21:35.769Z</time></trkpt><trkpt lat="42.9148767" lon="11.561665"><ele>526.0</ele><time>2026-04-18T12:21:36.767Z</time></trkpt><trkpt lat="42.91505" lon="11.5616117"><ele>529.0</ele><time>2026-04-18T12:21:37.769Z</time></trkpt><trkpt lat="42.9152267" lon="11.5615133"><ele>532.0</ele><time>2026-04-18T12:21:38.772Z</time></trkpt><trkpt lat="42.9154183" lon="11.5613733"><ele>535.0</ele><time>2026-04-18T12:21:39.768Z</time></trkpt><trkpt lat="42.9156333" lon="11.561225"><ele>529.0</ele><time>2026-04-18T12:21:40.766Z</time></trkpt><trkpt lat="42.9158417" lon="11.56108"><ele>523.0</ele><time>2026-04-18T12:21:41.77Z</time></trkpt><trkpt lat="42.91604" lon="11.560965"><ele>517.0</ele><time>2026-04-18T12:21:42.769Z</time></trkpt><trkpt lat="42.9162333" lon="11.5608617"><ele>517.0</ele><time>2026-04-18T12:21:43.77Z</time></trkpt><trkpt lat="42.9164283" lon="11.5607817"><ele>517.0</ele><time>2026-04-18T12:21:44.771Z</time></trkpt><trkpt lat="42.91663" lon="11.560725"><ele>517.0</ele><time>2026-04-18T12:21:45.77Z</time></trkpt><trkpt lat="42.9168167" lon="11.560695"><ele>518.3333333333334</ele><time>2026-04-18T12:21:46.77Z</time></trkpt><trkpt lat="42.9169933" lon="11.5606717"><ele>519.6666666666666</ele><time>2026-04-18T12:21:47.764Z</time></trkpt><trkpt lat="42.9171667" lon="11.560625"><ele>521.0</ele><time>2026-04-18T12:21:48.77Z</time></trkpt><trkpt lat="42.91732" lon="11.56054"><ele>521.0</ele><time>2026-04-18T12:21:49.765Z</time></trkpt><trkpt lat="42.91746" lon="11.56044"><ele>521.0</ele><time>2026-04-18T12:21:50.767Z</time></trkpt><trkpt lat="42.9175983" lon="11.56036"><ele>521.0</ele><time>2026-04-18T12:21:51.759Z</time></trkpt><trkpt lat="42.9177433" lon="11.5603233"><ele>517.75</ele><time>2026-04-18T12:21:52.765Z</time></trkpt><trkpt lat="42.9178883" lon="11.560335"><ele>514.5</ele><time>2026-04-18T12:21:53.768Z</time></trkpt><trkpt lat="42.9180317" lon="11.5603967"><ele>511.25</ele><time>2026-04-18T12:21:54.765Z</time></trkpt><trkpt lat="42.918155" lon="11.5605017"><ele>508.0</ele><time>2026-04-18T12:21:55.769Z</time></trkpt><trkpt lat="42.9182533" lon="11.56067"><ele>508.0</ele><time>2026-04-18T12:21:56.771Z</time></trkpt><trkpt lat="42.9183333" lon="11.56088"><ele>508.0</ele><time>2026-04-18T12:21:57.77Z</time></trkpt><trkpt lat="42.9184167" lon="11.5611067"><ele>508.0</ele><time>2026-04-18T12:21:58.769Z</time></trkpt><trkpt lat="42.918505" lon="11.5613483"><ele>505.33333333333337</ele><time>2026-04-18T12:21:59.77Z</time></trkpt><trkpt lat="42.918595" lon="11.5615883"><ele>502.66666666666663</ele><time>2026-04-18T12:22:00.77Z</time></trkpt><trkpt lat="42.9186967" lon="11.5618267"><ele>500.0</ele><time>2026-04-18T12:22:01.77Z</time></trkpt><trkpt lat="42.918795" lon="11.5620667"><ele>500.0</ele><time>2026-04-18T12:22:02.766Z</time></trkpt><trkpt lat="42.9188767" lon="11.5623133"><ele>500.0</ele><time>2026-04-18T12:22:03.766Z</time></trkpt><trkpt lat="42.9189583" lon="11.5625667"><ele>500.0</ele><time>2026-04-18T12:22:04.768Z</time></trkpt><trkpt lat="42.9190333" lon="11.5628167"><ele>498.66666666666663</ele><time>2026-04-18T12:22:05.77Z</time></trkpt><trkpt lat="42.9191133" lon="11.5630517"><ele>497.33333333333337</ele><time>2026-04-18T12:22:06.77Z</time></trkpt><trkpt lat="42.9192083" lon="11.56326"><ele>496.0</ele><time>2026-04-18T12:22:07.77Z</time></trkpt><trkpt lat="42.919325" lon="11.5634517"><ele>496.0</ele><time>2026-04-18T12:22:08.769Z</time></trkpt><trkpt lat="42.9194483" lon="11.5636317"><ele>496.0</ele><time>2026-04-18T12:22:09.77Z</time></trkpt><trkpt lat="42.9195717" lon="11.56382"><ele>496.0</ele><time>2026-04-18T12:22:10.765Z</time></trkpt><trkpt lat="42.919685" lon="11.5640283"><ele>498.6666666666667</ele><time>2026-04-18T12:22:11.77Z</time></trkpt><trkpt lat="42.9197933" lon="11.56424"><ele>501.33333333333337</ele><time>2026-04-18T12:22:12.771Z</time></trkpt><trkpt lat="42.9198967" lon="11.5644333"><ele>504.0</ele><time>2026-04-18T12:22:13.769Z</time></trkpt><trkpt lat="42.9199883" lon="11.5646167"><ele>504.5</ele><time>2026-04-18T12:22:14.766Z</time></trkpt><trkpt lat="42.9200533" lon="11.5647933"><ele>505.0</ele><time>2026-04-18T12:22:15.77Z</time></trkpt><trkpt lat="42.920085" lon="11.56497"><ele>505.5</ele><time>2026-04-18T12:22:16.767Z</time></trkpt><trkpt lat="42.9200817" lon="11.5651517"><ele>506.0</ele><time>2026-04-18T12:22:17.771Z</time></trkpt><trkpt lat="42.9200433" lon="11.56533"><ele>505.25</ele><time>2026-04-18T12:22:18.771Z</time></trkpt><trkpt lat="42.9200033" lon="11.56551"><ele>504.5</ele><time>2026-04-18T12:22:19.77Z</time></trkpt><trkpt lat="42.9199933" lon="11.565695"><ele>503.75</ele><time>2026-04-18T12:22:20.771Z</time></trkpt><trkpt lat="42.92001" lon="11.565875"><ele>503.0</ele><time>2026-04-18T12:22:21.772Z</time></trkpt><trkpt lat="42.9200533" lon="11.5660433"><ele>501.75</ele><time>2026-04-18T12:22:22.77Z</time></trkpt><trkpt lat="42.92012" lon="11.5661883"><ele>500.5</ele><time>2026-04-18T12:22:23.772Z</time></trkpt><trkpt lat="42.9202167" lon="11.5662917"><ele>499.25</ele><time>2026-04-18T12:22:24.772Z</time></trkpt><trkpt lat="42.9203267" lon="11.56635"><ele>498.0</ele><time>2026-04-18T12:22:25.77Z</time></trkpt><trkpt lat="42.920445" lon="11.566345"><ele>498.0</ele><time>2026-04-18T12:22:26.775Z</time></trkpt><trkpt lat="42.9205583" lon="11.566255"><ele>498.0</ele><time>2026-04-18T12:22:27.771Z</time></trkpt><trkpt lat="42.9206667" lon="11.5661017"><ele>498.0</ele><time>2026-04-18T12:22:28.772Z</time></trkpt><trkpt lat="42.9207583" lon="11.5659233"><ele>498.0</ele><time>2026-04-18T12:22:29.77Z</time></trkpt><trkpt lat="42.9208433" lon="11.5657483"><ele>496.66666666666663</ele><time>2026-04-18T12:22:30.77Z</time></trkpt><trkpt lat="42.9209383" lon="11.56557"><ele>495.3333333333333</ele><time>2026-04-18T12:22:31.77Z</time></trkpt><trkpt lat="42.9210533" lon="11.5653833"><ele>494.0</ele><time>2026-04-18T12:22:32.771Z</time></trkpt><trkpt lat="42.921165" lon="11.5652"><ele>494.0</ele><time>2026-04-18T12:22:33.771Z</time></trkpt><trkpt lat="42.9212767" lon="11.5650183"><ele>494.0</ele><time>2026-04-18T12:22:34.77Z</time></trkpt><trkpt lat="42.9213783" lon="11.5648367"><ele>494.0</ele><time>2026-04-18T12:22:35.773Z</time></trkpt><trkpt lat="42.9214817" lon="11.56467"><ele>490.75</ele><time>2026-04-18T12:22:36.77Z</time></trkpt><trkpt lat="42.9215933" lon="11.5645283"><ele>487.5</ele><time>2026-04-18T12:22:37.772Z</time></trkpt><trkpt lat="42.9217033" lon="11.5644133"><ele>484.25</ele><time>2026-04-18T12:22:38.773Z</time></trkpt><trkpt lat="42.921825" lon="11.5643417"><ele>481.0</ele><time>2026-04-18T12:22:39.77Z</time></trkpt><trkpt lat="42.9219683" lon="11.5643033"><ele>480.33333333333337</ele><time>2026-04-18T12:22:40.763Z</time></trkpt><trkpt lat="42.9221233" lon="11.5643033"><ele>479.66666666666663</ele><time>2026-04-18T12:22:41.767Z</time></trkpt><trkpt lat="42.9222867" lon="11.5643183"><ele>479.0</ele><time>2026-04-18T12:22:42.771Z</time></trkpt><trkpt lat="42.922455" lon="11.564325"><ele>477.66666666666663</ele><time>2026-04-18T12:22:43.769Z</time></trkpt><trkpt lat="42.9226267" lon="11.5643033"><ele>476.33333333333337</ele><time>2026-04-18T12:22:44.768Z</time></trkpt><trkpt lat="42.9227983" lon="11.5642383"><ele>475.0</ele><time>2026-04-18T12:22:45.769Z</time></trkpt><trkpt lat="42.922965" lon="11.56414"><ele>475.0</ele><time>2026-04-18T12:22:46.771Z</time></trkpt><trkpt lat="42.9231333" lon="11.5640317"><ele>475.0</ele><time>2026-04-18T12:22:47.772Z</time></trkpt><trkpt lat="42.9233083" lon="11.5639267"><ele>475.0</ele><time>2026-04-18T12:22:48.772Z</time></trkpt><trkpt lat="42.923475" lon="11.563825"><ele>473.33333333333337</ele><time>2026-04-18T12:22:49.771Z</time></trkpt><trkpt lat="42.923635" lon="11.5637283"><ele>471.66666666666663</ele><time>2026-04-18T12:22:50.77Z</time></trkpt><trkpt lat="42.9237817" lon="11.563655"><ele>470.0</ele><time>2026-04-18T12:22:51.77Z</time></trkpt><trkpt lat="42.9239233" lon="11.56362"><ele>470.0</ele><time>2026-04-18T12:22:52.769Z</time></trkpt><trkpt lat="42.9240617" lon="11.5636367"><ele>470.0</ele><time>2026-04-18T12:22:53.772Z</time></trkpt><trkpt lat="42.9241967" lon="11.5636983"><ele>470.0</ele><time>2026-04-18T12:22:54.768Z</time></trkpt><trkpt lat="42.9243383" lon="11.5637867"><ele>470.0</ele><time>2026-04-18T12:22:55.77Z</time></trkpt><trkpt lat="42.9244867" lon="11.56389"><ele>467.0</ele><time>2026-04-18T12:22:56.771Z</time></trkpt><trkpt lat="42.92464" lon="11.564"><ele>464.0</ele><time>2026-04-18T12:22:57.771Z</time></trkpt><trkpt lat="42.9247967" lon="11.564115"><ele>461.0</ele><time>2026-04-18T12:22:58.77Z</time></trkpt><trkpt lat="42.9249583" lon="11.5642367"><ele>461.0</ele><time>2026-04-18T12:22:59.77Z</time></trkpt><trkpt lat="42.9251233" lon="11.5643617"><ele>461.0</ele><time>2026-04-18T12:23:00.772Z</time></trkpt><trkpt lat="42.9252867" lon="11.564475"><ele>461.0</ele><time>2026-04-18T12:23:01.767Z</time></trkpt><trkpt lat="42.9254483" lon="11.5645833"><ele>461.0</ele><time>2026-04-18T12:23:02.773Z</time></trkpt><trkpt lat="42.9256067" lon="11.5646783"><ele>461.0</ele><time>2026-04-18T12:23:03.771Z</time></trkpt><trkpt lat="42.9257717" lon="11.564745"><ele>461.0</ele><time>2026-04-18T12:23:04.771Z</time></trkpt><trkpt lat="42.9259333" lon="11.5647967"><ele>458.0</ele><time>2026-04-18T12:23:05.771Z</time></trkpt><trkpt lat="42.9260933" lon="11.5648417"><ele>455.0</ele><time>2026-04-18T12:23:06.771Z</time></trkpt><trkpt lat="42.9262583" lon="11.564885"><ele>452.0</ele><time>2026-04-18T12:23:07.771Z</time></trkpt><trkpt lat="42.9264033" lon="11.5649233"><ele>452.0</ele><time>2026-04-18T12:23:08.77Z</time></trkpt><trkpt lat="42.926545" lon="11.5649433"><ele>452.0</ele><time>2026-04-18T12:23:09.769Z</time></trkpt><trkpt lat="42.9266683" lon="11.5649333"><ele>452.0</ele><time>2026-04-18T12:23:10.772Z</time></trkpt><trkpt lat="42.92678" lon="11.564865"><ele>452.0</ele><time>2026-04-18T12:23:11.77Z</time></trkpt><trkpt lat="42.9268817" lon="11.5647533"><ele>451.75</ele><time>2026-04-18T12:23:12.774Z</time></trkpt><trkpt lat="42.9269683" lon="11.5646"><ele>451.5</ele><time>2026-04-18T12:23:13.771Z</time></trkpt><trkpt lat="42.9270433" lon="11.56443"><ele>451.25</ele><time>2026-04-18T12:23:14.772Z</time></trkpt><trkpt lat="42.9271133" lon="11.5642433"><ele>451.0</ele><time>2026-04-18T12:23:15.772Z</time></trkpt><trkpt lat="42.9271833" lon="11.5640633"><ele>450.25</ele><time>2026-04-18T12:23:16.766Z</time></trkpt><trkpt lat="42.9272517" lon="11.5638817"><ele>449.5</ele><time>2026-04-18T12:23:17.771Z</time></trkpt><trkpt lat="42.92732" lon="11.5637133"><ele>448.75</ele><time>2026-04-18T12:23:18.771Z</time></trkpt><trkpt lat="42.9273883" lon="11.5635467"><ele>448.0</ele><time>2026-04-18T12:23:19.77Z</time></trkpt><trkpt lat="42.9274583" lon="11.5633867"><ele>445.75</ele><time>2026-04-18T12:23:20.774Z</time></trkpt><trkpt lat="42.9275317" lon="11.5632333"><ele>443.5</ele><time>2026-04-18T12:23:21.772Z</time></trkpt><trkpt lat="42.927615" lon="11.5630917"><ele>441.25</ele><time>2026-04-18T12:23:22.77Z</time></trkpt><trkpt lat="42.927705" lon="11.562965"><ele>439.0</ele><time>2026-04-18T12:23:23.77Z</time></trkpt><trkpt lat="42.9278" lon="11.5628483"><ele>437.75</ele><time>2026-04-18T12:23:24.772Z</time></trkpt><trkpt lat="42.92789" lon="11.56273"><ele>436.5</ele><time>2026-04-18T12:23:25.771Z</time></trkpt><trkpt lat="42.92797" lon="11.562605"><ele>435.25</ele><time>2026-04-18T12:23:26.773Z</time></trkpt><trkpt lat="42.928035" lon="11.5624733"><ele>434.0</ele><time>2026-04-18T12:23:27.771Z</time></trkpt><trkpt lat="42.9280933" lon="11.5623433"><ele>434.0</ele><time>2026-04-18T12:23:28.769Z</time></trkpt><trkpt lat="42.9281467" lon="11.56222"><ele>434.0</ele><time>2026-04-18T12:23:29.77Z</time></trkpt><trkpt lat="42.9282" lon="11.5621"><ele>434.0</ele><time>2026-04-18T12:23:30.772Z</time></trkpt><trkpt lat="42.9282533" lon="11.561985"><ele>434.0</ele><time>2026-04-18T12:23:31.77Z</time></trkpt><trkpt lat="42.9283" lon="11.56187"><ele>434.0</ele><time>2026-04-18T12:23:32.772Z</time></trkpt><trkpt lat="42.9283467" lon="11.5617583"><ele>432.3333333333333</ele><time>2026-04-18T12:23:33.771Z</time></trkpt><trkpt lat="42.928385" lon="11.5616467"><ele>430.66666666666663</ele><time>2026-04-18T12:23:34.772Z</time></trkpt><trkpt lat="42.9284217" lon="11.56154"><ele>429.0</ele><time>2026-04-18T12:23:35.77Z</time></trkpt><trkpt lat="42.928455" lon="11.5614333"><ele>427.33333333333337</ele><time>2026-04-18T12:23:36.769Z</time></trkpt><trkpt lat="42.928485" lon="11.5613267"><ele>425.6666666666667</ele><time>2026-04-18T12:23:37.77Z</time></trkpt><trkpt lat="42.928515" lon="11.561225"><ele>424.0</ele><time>2026-04-18T12:23:38.772Z</time></trkpt><trkpt lat="42.928535" lon="11.5611433"><ele>422.6666666666667</ele><time>2026-04-18T12:23:39.771Z</time></trkpt><trkpt lat="42.9285617" lon="11.5610317"><ele>421.33333333333337</ele><time>2026-04-18T12:23:41.769Z</time></trkpt><trkpt lat="42.9285917" lon="11.5609283"><ele>420.0</ele><time>2026-04-18T12:23:43.765Z</time></trkpt><trkpt lat="42.9286383" lon="11.5607633"><ele>418.66666666666663</ele><time>2026-04-18T12:23:45.768Z</time></trkpt><trkpt lat="42.92868" lon="11.5606683"><ele>417.3333333333333</ele><time>2026-04-18T12:23:46.769Z</time></trkpt><trkpt lat="42.9287083" lon="11.560585"><ele>416.0</ele><time>2026-04-18T12:23:47.77Z</time></trkpt><trkpt lat="42.9287517" lon="11.56052"><ele>416.0</ele><time>2026-04-18T12:23:48.771Z</time></trkpt><trkpt lat="42.92883" lon="11.5604767"><ele>416.0</ele><time>2026-04-18T12:23:49.772Z</time></trkpt><trkpt lat="42.9288933" lon="11.5604333"><ele>416.0</ele><time>2026-04-18T12:23:50.772Z</time></trkpt><trkpt lat="42.92903" lon="11.5604333"><ele>416.0</ele><time>2026-04-18T12:23:51.758Z</time></trkpt><trkpt lat="42.9292017" lon="11.5604417"><ele>415.0</ele><time>2026-04-18T12:23:52.76Z</time></trkpt><trkpt lat="42.929405" lon="11.560455"><ele>414.0</ele><time>2026-04-18T12:23:53.773Z</time></trkpt><trkpt lat="42.9296167" lon="11.560475"><ele>413.0</ele><time>2026-04-18T12:23:54.772Z</time></trkpt><trkpt lat="42.9298117" lon="11.5604917"><ele>413.0</ele><time>2026-04-18T12:23:55.77Z</time></trkpt><trkpt lat="42.93" lon="11.5605033"><ele>413.0</ele><time>2026-04-18T12:23:56.773Z</time></trkpt><trkpt lat="42.93019" lon="11.5605133"><ele>413.0</ele><time>2026-04-18T12:23:57.772Z</time></trkpt><trkpt lat="42.93038" lon="11.5605217"><ele>410.0</ele><time>2026-04-18T12:23:58.767Z</time></trkpt><trkpt lat="42.930575" lon="11.5605317"><ele>407.0</ele><time>2026-04-18T12:23:59.769Z</time></trkpt><trkpt lat="42.9307483" lon="11.5605367"><ele>404.0</ele><time>2026-04-18T12:24:00.774Z</time></trkpt><trkpt lat="42.9309267" lon="11.5605417"><ele>402.3333333333333</ele><time>2026-04-18T12:24:01.77Z</time></trkpt><trkpt lat="42.9311" lon="11.5605533"><ele>400.66666666666663</ele><time>2026-04-18T12:24:02.774Z</time></trkpt><trkpt lat="42.9312667" lon="11.5605683"><ele>399.0</ele><time>2026-04-18T12:24:03.771Z</time></trkpt><trkpt lat="42.931435" lon="11.5605817"><ele>399.0</ele><time>2026-04-18T12:24:04.771Z</time></trkpt><trkpt lat="42.9316033" lon="11.5605767"><ele>399.0</ele><time>2026-04-18T12:24:05.77Z</time></trkpt><trkpt lat="42.9317717" lon="11.5605433"><ele>399.0</ele><time>2026-04-18T12:24:06.771Z</time></trkpt><trkpt lat="42.9319283" lon="11.56049"><ele>396.25</ele><time>2026-04-18T12:24:07.771Z</time></trkpt><trkpt lat="42.93207" lon="11.5604233"><ele>393.5</ele><time>2026-04-18T12:24:08.772Z</time></trkpt><trkpt lat="42.9321983" lon="11.5603383"><ele>390.75</ele><time>2026-04-18T12:24:09.767Z</time></trkpt><trkpt lat="42.9323083" lon="11.5602217"><ele>388.0</ele><time>2026-04-18T12:24:10.769Z</time></trkpt><trkpt lat="42.9324033" lon="11.5600817"><ele>387.0</ele><time>2026-04-18T12:24:11.769Z</time></trkpt><trkpt lat="42.93246" lon="11.5598967"><ele>386.0</ele><time>2026-04-18T12:24:12.771Z</time></trkpt><trkpt lat="42.93247" lon="11.559675"><ele>385.0</ele><time>2026-04-18T12:24:13.771Z</time></trkpt><trkpt lat="42.932465" lon="11.559435"><ele>384.33333333333337</ele><time>2026-04-18T12:24:14.773Z</time></trkpt><trkpt lat="42.9324667" lon="11.5591883"><ele>383.6666666666667</ele><time>2026-04-18T12:24:15.774Z</time></trkpt><trkpt lat="42.932475" lon="11.55893"><ele>383.0</ele><time>2026-04-18T12:24:16.77Z</time></trkpt><trkpt lat="42.9324983" lon="11.5586683"><ele>383.0</ele><time>2026-04-18T12:24:17.772Z</time></trkpt><trkpt lat="42.93254" lon="11.5584"><ele>383.0</ele><time>2026-04-18T12:24:18.773Z</time></trkpt><trkpt lat="42.9325983" lon="11.558145"><ele>383.0</ele><time>2026-04-18T12:24:19.773Z</time></trkpt><trkpt lat="42.9326517" lon="11.5579033"><ele>376.33333333333337</ele><time>2026-04-18T12:24:20.775Z</time></trkpt><trkpt lat="42.932705" lon="11.5576917"><ele>369.6666666666667</ele><time>2026-04-18T12:24:21.773Z</time></trkpt><trkpt lat="42.932745" lon="11.5574983"><ele>363.0</ele><time>2026-04-18T12:24:22.77Z</time></trkpt><trkpt lat="42.9327633" lon="11.5573"><ele>363.0</ele><time>2026-04-18T12:24:23.771Z</time></trkpt><trkpt lat="42.93276" lon="11.55709"><ele>363.0</ele><time>2026-04-18T12:24:24.772Z</time></trkpt><trkpt lat="42.9327217" lon="11.5568733"><ele>363.0</ele><time>2026-04-18T12:24:25.772Z</time></trkpt><trkpt lat="42.9326433" lon="11.5566483"><ele>363.0</ele><time>2026-04-18T12:24:26.773Z</time></trkpt><trkpt lat="42.932535" lon="11.5564267"><ele>363.0</ele><time>2026-04-18T12:24:27.773Z</time></trkpt><trkpt lat="42.93244" lon="11.5562133"><ele>363.0</ele><time>2026-04-18T12:24:28.772Z</time></trkpt><trkpt lat="42.9323617" lon="11.5560067"><ele>363.0</ele><time>2026-04-18T12:24:29.772Z</time></trkpt><trkpt lat="42.9323" lon="11.5558017"><ele>363.0</ele><time>2026-04-18T12:24:30.771Z</time></trkpt><trkpt lat="42.9322617" lon="11.55559"><ele>363.0</ele><time>2026-04-18T12:24:31.772Z</time></trkpt><trkpt lat="42.9322567" lon="11.55539"><ele>363.25</ele><time>2026-04-18T12:24:32.772Z</time></trkpt><trkpt lat="42.93229" lon="11.555195"><ele>363.5</ele><time>2026-04-18T12:24:33.771Z</time></trkpt><trkpt lat="42.9323433" lon="11.5550317"><ele>363.75</ele><time>2026-04-18T12:24:34.772Z</time></trkpt><trkpt lat="42.9324033" lon="11.5549017"><ele>364.0</ele><time>2026-04-18T12:24:35.772Z</time></trkpt><trkpt lat="42.9324583" lon="11.5548133"><ele>364.0</ele><time>2026-04-18T12:24:36.771Z</time></trkpt><trkpt lat="42.9325083" lon="11.55474"><ele>364.0</ele><time>2026-04-18T12:24:37.769Z</time></trkpt><trkpt lat="42.9325617" lon="11.5546833"><ele>364.0</ele><time>2026-04-18T12:24:38.771Z</time></trkpt><trkpt lat="42.9326267" lon="11.5546933"><ele>364.0</ele><time>2026-04-18T12:24:39.769Z</time></trkpt><trkpt lat="42.93271" lon="11.5548067"><ele>364.0</ele><time>2026-04-18T12:24:40.77Z</time></trkpt><trkpt lat="42.93284" lon="11.5549317"><ele>367.0</ele><time>2026-04-18T12:24:41.771Z</time></trkpt><trkpt lat="42.933015" lon="11.5550367"><ele>370.0</ele><time>2026-04-18T12:24:42.768Z</time></trkpt><trkpt lat="42.9331683" lon="11.5550933"><ele>373.0</ele><time>2026-04-18T12:24:43.769Z</time></trkpt><trkpt lat="42.9333333" lon="11.5551533"><ele>374.0</ele><time>2026-04-18T12:24:44.771Z</time></trkpt><trkpt lat="42.933495" lon="11.55524"><ele>375.0</ele><time>2026-04-18T12:24:45.77Z</time></trkpt><trkpt lat="42.9336467" lon="11.55535"><ele>376.0</ele><time>2026-04-18T12:24:46.769Z</time></trkpt><trkpt lat="42.93377" lon="11.555495"><ele>376.0</ele><time>2026-04-18T12:24:47.769Z</time></trkpt><trkpt lat="42.933875" lon="11.5556683"><ele>376.0</ele><time>2026-04-18T12:24:48.77Z</time></trkpt><trkpt lat="42.93397" lon="11.555845"><ele>376.0</ele><time>2026-04-18T12:24:49.771Z</time></trkpt><trkpt lat="42.9340733" lon="11.5559967"><ele>376.0</ele><time>2026-04-18T12:24:50.772Z</time></trkpt><trkpt lat="42.9341883" lon="11.5561033"><ele>376.0</ele><time>2026-04-18T12:24:51.763Z</time></trkpt><trkpt lat="42.9343133" lon="11.556155"><ele>376.0</ele><time>2026-04-18T12:24:52.769Z</time></trkpt><trkpt lat="42.934455" lon="11.5561633"><ele>376.0</ele><time>2026-04-18T12:24:53.769Z</time></trkpt><trkpt lat="42.9346067" lon="11.55616"><ele>377.75</ele><time>2026-04-18T12:24:54.77Z</time></trkpt><trkpt lat="42.9347583" lon="11.5561517"><ele>379.5</ele><time>2026-04-18T12:24:55.769Z</time></trkpt><trkpt lat="42.9349017" lon="11.5561433"><ele>381.25</ele><time>2026-04-18T12:24:56.772Z</time></trkpt><trkpt lat="42.9350383" lon="11.5561417"><ele>383.0</ele><time>2026-04-18T12:24:57.77Z</time></trkpt><trkpt lat="42.9351633" lon="11.556145"><ele>382.79999999999995</ele><time>2026-04-18T12:24:58.764Z</time></trkpt><trkpt lat="42.9352783" lon="11.556145"><ele>382.6</ele><time>2026-04-18T12:24:59.772Z</time></trkpt><trkpt lat="42.93538" lon="11.556145"><ele>382.4</ele><time>2026-04-18T12:25:00.77Z</time></trkpt><trkpt lat="42.9354733" lon="11.556155"><ele>382.20000000000005</ele><time>2026-04-18T12:25:01.771Z</time></trkpt><trkpt lat="42.935555" lon="11.5561817"><ele>382.0</ele><time>2026-04-18T12:25:02.771Z</time></trkpt><trkpt lat="42.935635" lon="11.5562267"><ele>382.0</ele><time>2026-04-18T12:25:03.769Z</time></trkpt><trkpt lat="42.935715" lon="11.5563067"><ele>382.0</ele><time>2026-04-18T12:25:04.767Z</time></trkpt><trkpt lat="42.9357967" lon="11.55641"><ele>382.0</ele><time>2026-04-18T12:25:05.769Z</time></trkpt><trkpt lat="42.9358767" lon="11.5565183"><ele>382.0</ele><time>2026-04-18T12:25:06.772Z</time></trkpt><trkpt lat="42.935945" lon="11.5566233"><ele>382.0</ele><time>2026-04-18T12:25:07.769Z</time></trkpt><trkpt lat="42.93601" lon="11.556725"><ele>383.0</ele><time>2026-04-18T12:25:08.772Z</time></trkpt><trkpt lat="42.9360733" lon="11.55682"><ele>384.0</ele><time>2026-04-18T12:25:09.769Z</time></trkpt><trkpt lat="42.93614" lon="11.5569183"><ele>385.0</ele><time>2026-04-18T12:25:10.769Z</time></trkpt><trkpt lat="42.93621" lon="11.5570217"><ele>386.0</ele><time>2026-04-18T12:25:11.769Z</time></trkpt><trkpt lat="42.9362817" lon="11.557125"><ele>387.0</ele><time>2026-04-18T12:25:12.771Z</time></trkpt><trkpt lat="42.936355" lon="11.557225"><ele>387.0</ele><time>2026-04-18T12:25:13.771Z</time></trkpt><trkpt lat="42.9364317" lon="11.557325"><ele>387.0</ele><time>2026-04-18T12:25:14.771Z</time></trkpt><trkpt lat="42.9365117" lon="11.55741"><ele>387.0</ele><time>2026-04-18T12:25:15.77Z</time></trkpt><trkpt lat="42.9366033" lon="11.5574733"><ele>387.0</ele><time>2026-04-18T12:25:16.769Z</time></trkpt><trkpt lat="42.9367033" lon="11.55752"><ele>387.0</ele><time>2026-04-18T12:25:17.767Z</time></trkpt><trkpt lat="42.9368067" lon="11.55756"><ele>387.6666666666667</ele><time>2026-04-18T12:25:18.77Z</time></trkpt><trkpt lat="42.9369033" lon="11.5576"><ele>388.33333333333337</ele><time>2026-04-18T12:25:19.768Z</time></trkpt><trkpt lat="42.9369867" lon="11.5576317"><ele>389.0</ele><time>2026-04-18T12:25:20.771Z</time></trkpt><trkpt lat="42.937065" lon="11.5576433"><ele>389.6666666666667</ele><time>2026-04-18T12:25:21.766Z</time></trkpt><trkpt lat="42.9371467" lon="11.5576333"><ele>390.33333333333337</ele><time>2026-04-18T12:25:22.767Z</time></trkpt><trkpt lat="42.9372317" lon="11.55759"><ele>391.0</ele><time>2026-04-18T12:25:23.77Z</time></trkpt><trkpt lat="42.9373033" lon="11.5575017"><ele>391.0</ele><time>2026-04-18T12:25:24.771Z</time></trkpt><trkpt lat="42.9373683" lon="11.5573967"><ele>391.0</ele><time>2026-04-18T12:25:25.769Z</time></trkpt><trkpt lat="42.937445" lon="11.5572933"><ele>391.0</ele><time>2026-04-18T12:25:26.772Z</time></trkpt><trkpt lat="42.9375317" lon="11.557215"><ele>391.0</ele><time>2026-04-18T12:25:27.77Z</time></trkpt><trkpt lat="42.9376217" lon="11.5571517"><ele>391.0</ele><time>2026-04-18T12:25:28.771Z</time></trkpt><trkpt lat="42.937705" lon="11.557105"><ele>393.6666666666667</ele><time>2026-04-18T12:25:29.771Z</time></trkpt><trkpt lat="42.9377783" lon="11.5570733"><ele>396.33333333333337</ele><time>2026-04-18T12:25:30.771Z</time></trkpt><trkpt lat="42.93785" lon="11.557055"><ele>399.0</ele><time>2026-04-18T12:25:31.771Z</time></trkpt><trkpt lat="42.93792" lon="11.557065"><ele>401.66666666666663</ele><time>2026-04-18T12:25:32.772Z</time></trkpt><trkpt lat="42.9379783" lon="11.55711"><ele>404.3333333333333</ele><time>2026-04-18T12:25:33.768Z</time></trkpt><trkpt lat="42.9380183" lon="11.5571817"><ele>407.0</ele><time>2026-04-18T12:25:34.77Z</time></trkpt><trkpt lat="42.9380633" lon="11.55734"><ele>406.99999999999994</ele><time>2026-04-18T12:25:36.766Z</time></trkpt><trkpt lat="42.9380567" lon="11.5574517"><ele>407.0</ele><time>2026-04-18T12:25:37.769Z</time></trkpt><trkpt lat="42.93805" lon="11.5575667"><ele>407.0</ele><time>2026-04-18T12:25:38.771Z</time></trkpt><trkpt lat="42.93806" lon="11.5576817"><ele>407.0</ele><time>2026-04-18T12:25:39.77Z</time></trkpt><trkpt lat="42.9380933" lon="11.5577983"><ele>406.99999999999994</ele><time>2026-04-18T12:25:40.771Z</time></trkpt><trkpt lat="42.9381517" lon="11.5579017"><ele>407.0</ele><time>2026-04-18T12:25:41.77Z</time></trkpt><trkpt lat="42.9382267" lon="11.5579833"><ele>407.0</ele><time>2026-04-18T12:25:42.769Z</time></trkpt><trkpt lat="42.9383183" lon="11.5580467"><ele>407.0</ele><time>2026-04-18T12:25:43.769Z</time></trkpt><trkpt lat="42.93843" lon="11.5580833"><ele>407.0</ele><time>2026-04-18T12:25:44.772Z</time></trkpt><trkpt lat="42.938565" lon="11.5580983"><ele>407.0</ele><time>2026-04-18T12:25:45.77Z</time></trkpt><trkpt lat="42.9387117" lon="11.55811"><ele>407.0</ele><time>2026-04-18T12:25:46.77Z</time></trkpt><trkpt lat="42.9388683" lon="11.55815"><ele>407.0</ele><time>2026-04-18T12:25:47.769Z</time></trkpt><trkpt lat="42.9390317" lon="11.5582067"><ele>407.0</ele><time>2026-04-18T12:25:48.771Z</time></trkpt><trkpt lat="42.9392033" lon="11.5582817"><ele>409.0</ele><time>2026-04-18T12:25:49.771Z</time></trkpt><trkpt lat="42.9393833" lon="11.558355"><ele>411.0</ele><time>2026-04-18T12:25:50.772Z</time></trkpt><trkpt lat="42.9395717" lon="11.5584183"><ele>413.0</ele><time>2026-04-18T12:25:51.769Z</time></trkpt><trkpt lat="42.9397633" lon="11.5584783"><ele>413.0</ele><time>2026-04-18T12:25:52.77Z</time></trkpt><trkpt lat="42.939955" lon="11.5585483"><ele>413.0</ele><time>2026-04-18T12:25:53.769Z</time></trkpt><trkpt lat="42.9401467" lon="11.5586133"><ele>413.0</ele><time>2026-04-18T12:25:54.769Z</time></trkpt><trkpt lat="42.9403383" lon="11.5586733"><ele>411.66666666666663</ele><time>2026-04-18T12:25:55.768Z</time></trkpt><trkpt lat="42.9405267" lon="11.5587317"><ele>410.33333333333337</ele><time>2026-04-18T12:25:56.771Z</time></trkpt><trkpt lat="42.9407083" lon="11.5587917"><ele>409.0</ele><time>2026-04-18T12:25:57.77Z</time></trkpt><trkpt lat="42.9408833" lon="11.5588483"><ele>413.6666666666667</ele><time>2026-04-18T12:25:58.768Z</time></trkpt><trkpt lat="42.9410533" lon="11.5589183"><ele>418.33333333333337</ele><time>2026-04-18T12:25:59.769Z</time></trkpt><trkpt lat="42.9412217" lon="11.5590083"><ele>423.0</ele><time>2026-04-18T12:26:00.768Z</time></trkpt><trkpt lat="42.941385" lon="11.5591267"><ele>423.0</ele><time>2026-04-18T12:26:01.77Z</time></trkpt><trkpt lat="42.9415517" lon="11.55925"><ele>423.0</ele><time>2026-04-18T12:26:02.771Z</time></trkpt><trkpt lat="42.9417217" lon="11.5593733"><ele>423.0</ele><time>2026-04-18T12:26:03.77Z</time></trkpt><trkpt lat="42.9418883" lon="11.5594967"><ele>423.66666666666663</ele><time>2026-04-18T12:26:04.771Z</time></trkpt><trkpt lat="42.94205" lon="11.5596217"><ele>424.3333333333333</ele><time>2026-04-18T12:26:05.769Z</time></trkpt><trkpt lat="42.9422017" lon="11.55976"><ele>425.0</ele><time>2026-04-18T12:26:06.768Z</time></trkpt><trkpt lat="42.942345" lon="11.5599017"><ele>425.0</ele><time>2026-04-18T12:26:07.769Z</time></trkpt><trkpt lat="42.9424767" lon="11.5600383"><ele>425.0</ele><time>2026-04-18T12:26:08.764Z</time></trkpt><trkpt lat="42.942605" lon="11.5601583"><ele>425.0</ele><time>2026-04-18T12:26:09.769Z</time></trkpt><trkpt lat="42.942735" lon="11.5602533"><ele>427.3333333333333</ele><time>2026-04-18T12:26:10.771Z</time></trkpt><trkpt lat="42.94288" lon="11.5602983"><ele>429.66666666666663</ele><time>2026-04-18T12:26:11.77Z</time></trkpt><trkpt lat="42.9430317" lon="11.560285"><ele>432.0</ele><time>2026-04-18T12:26:12.771Z</time></trkpt><trkpt lat="42.94319" lon="11.5602317"><ele>432.0</ele><time>2026-04-18T12:26:13.77Z</time></trkpt><trkpt lat="42.9433567" lon="11.5601433"><ele>432.0</ele><time>2026-04-18T12:26:14.771Z</time></trkpt><trkpt lat="42.9435233" lon="11.560045"><ele>432.0</ele><time>2026-04-18T12:26:15.771Z</time></trkpt><trkpt lat="42.9436883" lon="11.5599283"><ele>431.66666666666663</ele><time>2026-04-18T12:26:16.77Z</time></trkpt><trkpt lat="42.9438367" lon="11.5598083"><ele>431.3333333333333</ele><time>2026-04-18T12:26:17.769Z</time></trkpt><trkpt lat="42.9439767" lon="11.5596967"><ele>431.0</ele><time>2026-04-18T12:26:18.768Z</time></trkpt><trkpt lat="42.9441117" lon="11.5596067"><ele>434.0</ele><time>2026-04-18T12:26:19.768Z</time></trkpt><trkpt lat="42.9442517" lon="11.5595517"><ele>437.0</ele><time>2026-04-18T12:26:20.771Z</time></trkpt><trkpt lat="42.9443933" lon="11.55954"><ele>440.0</ele><time>2026-04-18T12:26:21.77Z</time></trkpt><trkpt lat="42.9445317" lon="11.5595767"><ele>443.0</ele><time>2026-04-18T12:26:22.772Z</time></trkpt><trkpt lat="42.9446633" lon="11.5596583"><ele>443.0</ele><time>2026-04-18T12:26:23.77Z</time></trkpt><trkpt lat="42.944785" lon="11.559795"><ele>443.0</ele><time>2026-04-18T12:26:24.767Z</time></trkpt><trkpt lat="42.9449017" lon="11.5599633"><ele>443.0</ele><time>2026-04-18T12:26:25.769Z</time></trkpt><trkpt lat="42.945015" lon="11.5601517"><ele>446.3333333333333</ele><time>2026-04-18T12:26:26.774Z</time></trkpt><trkpt lat="42.9451217" lon="11.560355"><ele>449.66666666666663</ele><time>2026-04-18T12:26:27.77Z</time></trkpt><trkpt lat="42.945225" lon="11.5605617"><ele>453.0</ele><time>2026-04-18T12:26:28.772Z</time></trkpt><trkpt lat="42.9453233" lon="11.56077"><ele>453.0</ele><time>2026-04-18T12:26:29.77Z</time></trkpt><trkpt lat="42.9454233" lon="11.5609733"><ele>453.0</ele><time>2026-04-18T12:26:30.763Z</time></trkpt><trkpt lat="42.94554" lon="11.561165"><ele>453.0</ele><time>2026-04-18T12:26:31.771Z</time></trkpt><trkpt lat="42.9456733" lon="11.5613483"><ele>455.33333333333337</ele><time>2026-04-18T12:26:32.772Z</time></trkpt><trkpt lat="42.9458233" lon="11.561515"><ele>457.6666666666667</ele><time>2026-04-18T12:26:33.769Z</time></trkpt><trkpt lat="42.945985" lon="11.5616717"><ele>460.0</ele><time>2026-04-18T12:26:34.771Z</time></trkpt><trkpt lat="42.9461417" lon="11.5618167"><ele>460.0</ele><time>2026-04-18T12:26:35.77Z</time></trkpt><trkpt lat="42.94629" lon="11.5619483"><ele>460.0</ele><time>2026-04-18T12:26:36.77Z</time></trkpt><trkpt lat="42.9464417" lon="11.5620517"><ele>460.0</ele><time>2026-04-18T12:26:37.771Z</time></trkpt><trkpt lat="42.9466033" lon="11.5621117"><ele>456.6666666666667</ele><time>2026-04-18T12:26:38.773Z</time></trkpt><trkpt lat="42.946775" lon="11.5621167"><ele>453.33333333333337</ele><time>2026-04-18T12:26:39.77Z</time></trkpt><trkpt lat="42.9469567" lon="11.56209"><ele>450.0</ele><time>2026-04-18T12:26:40.771Z</time></trkpt><trkpt lat="42.947145" lon="11.5620483"><ele>456.0</ele><time>2026-04-18T12:26:41.769Z</time></trkpt><trkpt lat="42.9473317" lon="11.5620033"><ele>462.0</ele><time>2026-04-18T12:26:42.77Z</time></trkpt><trkpt lat="42.947525" lon="11.5619617"><ele>468.0</ele><time>2026-04-18T12:26:43.768Z</time></trkpt><trkpt lat="42.94772" lon="11.5619383"><ele>467.0</ele><time>2026-04-18T12:26:44.772Z</time></trkpt><trkpt lat="42.9479083" lon="11.5619483"><ele>466.0</ele><time>2026-04-18T12:26:45.772Z</time></trkpt><trkpt lat="42.9480733" lon="11.561985"><ele>465.0</ele><time>2026-04-18T12:26:46.77Z</time></trkpt><trkpt lat="42.9482067" lon="11.5620483"><ele>465.0</ele><time>2026-04-18T12:26:47.769Z</time></trkpt><trkpt lat="42.9483283" lon="11.5621417"><ele>465.0</ele><time>2026-04-18T12:26:48.771Z</time></trkpt><trkpt lat="42.948445" lon="11.562275"><ele>465.0</ele><time>2026-04-18T12:26:49.772Z</time></trkpt><trkpt lat="42.9485433" lon="11.562425"><ele>465.0</ele><time>2026-04-18T12:26:50.765Z</time></trkpt><trkpt lat="42.94864" lon="11.5625783"><ele>469.66666666666663</ele><time>2026-04-18T12:26:51.77Z</time></trkpt><trkpt lat="42.9487583" lon="11.5626983"><ele>474.3333333333333</ele><time>2026-04-18T12:26:52.77Z</time></trkpt><trkpt lat="42.9488933" lon="11.5627933"><ele>479.0</ele><time>2026-04-18T12:26:53.77Z</time></trkpt><trkpt lat="42.9490567" lon="11.56283"><ele>483.66666666666663</ele><time>2026-04-18T12:26:54.77Z</time></trkpt><trkpt lat="42.94922" lon="11.5628433"><ele>488.33333333333337</ele><time>2026-04-18T12:26:55.77Z</time></trkpt><trkpt lat="42.9493683" lon="11.562855"><ele>493.0</ele><time>2026-04-18T12:26:56.772Z</time></trkpt><trkpt lat="42.9495067" lon="11.5628833"><ele>493.0</ele><time>2026-04-18T12:26:57.769Z</time></trkpt><trkpt lat="42.9496233" lon="11.56296"><ele>493.0</ele><time>2026-04-18T12:26:58.77Z</time></trkpt><trkpt lat="42.9497167" lon="11.5630633"><ele>493.0</ele><time>2026-04-18T12:26:59.77Z</time></trkpt><trkpt lat="42.9497517" lon="11.5632367"><ele>493.0</ele><time>2026-04-18T12:27:00.768Z</time></trkpt><trkpt lat="42.94979" lon="11.563445"><ele>493.0</ele><time>2026-04-18T12:27:01.77Z</time></trkpt><trkpt lat="42.9498567" lon="11.5636217"><ele>493.0</ele><time>2026-04-18T12:27:02.773Z</time></trkpt><trkpt lat="42.9499733" lon="11.5637617"><ele>493.0</ele><time>2026-04-18T12:27:03.771Z</time></trkpt><trkpt lat="42.9501083" lon="11.5639067"><ele>494.33333333333337</ele><time>2026-04-18T12:27:04.769Z</time></trkpt><trkpt lat="42.9502467" lon="11.5640517"><ele>495.66666666666663</ele><time>2026-04-18T12:27:05.771Z</time></trkpt><trkpt lat="42.95039" lon="11.5642083"><ele>497.0</ele><time>2026-04-18T12:27:06.772Z</time></trkpt><trkpt lat="42.9505317" lon="11.5643717"><ele>496.66666666666663</ele><time>2026-04-18T12:27:07.772Z</time></trkpt><trkpt lat="42.950675" lon="11.564535"><ele>496.33333333333337</ele><time>2026-04-18T12:27:08.772Z</time></trkpt><trkpt lat="42.9508117" lon="11.5646983"><ele>496.0</ele><time>2026-04-18T12:27:09.772Z</time></trkpt><trkpt lat="42.9509333" lon="11.5648567"><ele>496.0</ele><time>2026-04-18T12:27:10.77Z</time></trkpt><trkpt lat="42.9510417" lon="11.565025"><ele>496.0</ele><time>2026-04-18T12:27:11.771Z</time></trkpt><trkpt lat="42.9511417" lon="11.5652067"><ele>496.0</ele><time>2026-04-18T12:27:12.773Z</time></trkpt><trkpt lat="42.9512367" lon="11.565395"><ele>495.33333333333337</ele><time>2026-04-18T12:27:13.772Z</time></trkpt><trkpt lat="42.951325" lon="11.5655783"><ele>494.66666666666663</ele><time>2026-04-18T12:27:14.771Z</time></trkpt><trkpt lat="42.9514067" lon="11.5657533"><ele>494.0</ele><time>2026-04-18T12:27:15.774Z</time></trkpt><trkpt lat="42.9514867" lon="11.5659183"><ele>494.0</ele><time>2026-04-18T12:27:16.773Z</time></trkpt><trkpt lat="42.95156" lon="11.5660767"><ele>494.0</ele><time>2026-04-18T12:27:17.769Z</time></trkpt><trkpt lat="42.95163" lon="11.5662283"><ele>494.0</ele><time>2026-04-18T12:27:18.769Z</time></trkpt><trkpt lat="42.9517033" lon="11.5663683"><ele>494.0</ele><time>2026-04-18T12:27:19.769Z</time></trkpt><trkpt lat="42.95178" lon="11.5664933"><ele>492.25</ele><time>2026-04-18T12:27:20.772Z</time></trkpt><trkpt lat="42.9518667" lon="11.5665933"><ele>490.5</ele><time>2026-04-18T12:27:21.769Z</time></trkpt><trkpt lat="42.95197" lon="11.5666767"><ele>488.75</ele><time>2026-04-18T12:27:22.755Z</time></trkpt><trkpt lat="42.95209" lon="11.566755"><ele>487.0</ele><time>2026-04-18T12:27:23.77Z</time></trkpt><trkpt lat="42.9522317" lon="11.5668233"><ele>487.0</ele><time>2026-04-18T12:27:24.77Z</time></trkpt><trkpt lat="42.95239" lon="11.5668867"><ele>487.0</ele><time>2026-04-18T12:27:25.77Z</time></trkpt><trkpt lat="42.9525617" lon="11.5669517"><ele>487.0</ele><time>2026-04-18T12:27:26.773Z</time></trkpt><trkpt lat="42.9527483" lon="11.5670283"><ele>486.6666666666667</ele><time>2026-04-18T12:27:27.772Z</time></trkpt><trkpt lat="42.9529417" lon="11.567115"><ele>486.33333333333337</ele><time>2026-04-18T12:27:28.769Z</time></trkpt><trkpt lat="42.953135" lon="11.5672083"><ele>486.0</ele><time>2026-04-18T12:27:29.77Z</time></trkpt><trkpt lat="42.9533333" lon="11.5672967"><ele>483.0</ele><time>2026-04-18T12:27:30.769Z</time></trkpt><trkpt lat="42.9535317" lon="11.567385"><ele>480.0</ele><time>2026-04-18T12:27:31.77Z</time></trkpt><trkpt lat="42.9537317" lon="11.5674683"><ele>477.0</ele><time>2026-04-18T12:27:32.772Z</time></trkpt><trkpt lat="42.953925" lon="11.56755"><ele>477.0</ele><time>2026-04-18T12:27:33.769Z</time></trkpt><trkpt lat="42.95411" lon="11.56763"><ele>477.0</ele><time>2026-04-18T12:27:34.77Z</time></trkpt><trkpt lat="42.9543" lon="11.567685"><ele>477.0</ele><time>2026-04-18T12:27:35.771Z</time></trkpt><trkpt lat="42.9545017" lon="11.5677117"><ele>474.0</ele><time>2026-04-18T12:27:36.772Z</time></trkpt><trkpt lat="42.9547083" lon="11.5677133"><ele>471.0</ele><time>2026-04-18T12:27:37.77Z</time></trkpt><trkpt lat="42.9549217" lon="11.5676967"><ele>468.0</ele><time>2026-04-18T12:27:38.774Z</time></trkpt><trkpt lat="42.955135" lon="11.5676733"><ele>467.0</ele><time>2026-04-18T12:27:39.773Z</time></trkpt><trkpt lat="42.9553533" lon="11.5676483"><ele>466.0</ele><time>2026-04-18T12:27:40.769Z</time></trkpt><trkpt lat="42.9555717" lon="11.5676267"><ele>465.0</ele><time>2026-04-18T12:27:41.769Z</time></trkpt><trkpt lat="42.9557917" lon="11.5676033"><ele>463.66666666666663</ele><time>2026-04-18T12:27:42.771Z</time></trkpt><trkpt lat="42.9560083" lon="11.567585"><ele>462.3333333333333</ele><time>2026-04-18T12:27:43.772Z</time></trkpt><trkpt lat="42.9562183" lon="11.5675667"><ele>461.0</ele><time>2026-04-18T12:27:44.77Z</time></trkpt><trkpt lat="42.9564233" lon="11.5675417"><ele>461.0</ele><time>2026-04-18T12:27:45.77Z</time></trkpt><trkpt lat="42.95663" lon="11.5675217"><ele>461.0</ele><time>2026-04-18T12:27:46.77Z</time></trkpt><trkpt lat="42.9568367" lon="11.5675267"><ele>461.0</ele><time>2026-04-18T12:27:47.769Z</time></trkpt><trkpt lat="42.95704" lon="11.5675583"><ele>458.0</ele><time>2026-04-18T12:27:48.766Z</time></trkpt><trkpt lat="42.95725" lon="11.567615"><ele>455.0</ele><time>2026-04-18T12:27:49.77Z</time></trkpt><trkpt lat="42.9574667" lon="11.5676833"><ele>452.0</ele><time>2026-04-18T12:27:50.769Z</time></trkpt><trkpt lat="42.95768" lon="11.5677583"><ele>452.0</ele><time>2026-04-18T12:27:51.769Z</time></trkpt><trkpt lat="42.9578817" lon="11.567835"><ele>452.0</ele><time>2026-04-18T12:27:52.765Z</time></trkpt><trkpt lat="42.9580767" lon="11.5679117"><ele>452.0</ele><time>2026-04-18T12:27:53.767Z</time></trkpt><trkpt lat="42.958265" lon="11.5679917"><ele>451.3333333333333</ele><time>2026-04-18T12:27:54.77Z</time></trkpt><trkpt lat="42.9584417" lon="11.5680533"><ele>450.66666666666663</ele><time>2026-04-18T12:27:55.769Z</time></trkpt><trkpt lat="42.9586217" lon="11.5680683"><ele>450.0</ele><time>2026-04-18T12:27:56.77Z</time></trkpt><trkpt lat="42.9588083" lon="11.5680333"><ele>450.0</ele><time>2026-04-18T12:27:57.769Z</time></trkpt><trkpt lat="42.959" lon="11.5679533"><ele>450.0</ele><time>2026-04-18T12:27:58.768Z</time></trkpt><trkpt lat="42.9591967" lon="11.5678433"><ele>450.0</ele><time>2026-04-18T12:27:59.77Z</time></trkpt><trkpt lat="42.9593967" lon="11.5677133"><ele>445.66666666666663</ele><time>2026-04-18T12:28:00.769Z</time></trkpt><trkpt lat="42.9595933" lon="11.5675783"><ele>441.3333333333333</ele><time>2026-04-18T12:28:01.767Z</time></trkpt><trkpt lat="42.9597833" lon="11.567455"><ele>437.0</ele><time>2026-04-18T12:28:02.773Z</time></trkpt><trkpt lat="42.9599717" lon="11.567345"><ele>436.0</ele><time>2026-04-18T12:28:03.771Z</time></trkpt><trkpt lat="42.96015" lon="11.5672433"><ele>435.0</ele><time>2026-04-18T12:28:04.769Z</time></trkpt><trkpt lat="42.9603233" lon="11.5671583"><ele>434.0</ele><time>2026-04-18T12:28:05.769Z</time></trkpt><trkpt lat="42.9604917" lon="11.5671133"><ele>434.0</ele><time>2026-04-18T12:28:06.771Z</time></trkpt><trkpt lat="42.9606633" lon="11.5671083"><ele>434.0</ele><time>2026-04-18T12:28:07.768Z</time></trkpt><trkpt lat="42.9608417" lon="11.567135"><ele>434.0</ele><time>2026-04-18T12:28:08.772Z</time></trkpt><trkpt lat="42.9610333" lon="11.5671783"><ele>431.0</ele><time>2026-04-18T12:28:09.769Z</time></trkpt><trkpt lat="42.9612333" lon="11.5672267"><ele>428.0</ele><time>2026-04-18T12:28:10.77Z</time></trkpt><trkpt lat="42.96144" lon="11.5672733"><ele>425.0</ele><time>2026-04-18T12:28:11.767Z</time></trkpt><trkpt lat="42.96165" lon="11.5673167"><ele>422.66666666666663</ele><time>2026-04-18T12:28:12.767Z</time></trkpt><trkpt lat="42.9618567" lon="11.5673583"><ele>420.33333333333337</ele><time>2026-04-18T12:28:13.764Z</time></trkpt><trkpt lat="42.9620567" lon="11.567395"><ele>418.0</ele><time>2026-04-18T12:28:14.773Z</time></trkpt><trkpt lat="42.9622383" lon="11.567445"><ele>418.0</ele><time>2026-04-18T12:28:15.768Z</time></trkpt><trkpt lat="42.962405" lon="11.567515"><ele>418.0</ele><time>2026-04-18T12:28:16.77Z</time></trkpt><trkpt lat="42.9625617" lon="11.5676117"><ele>418.0</ele><time>2026-04-18T12:28:17.765Z</time></trkpt><trkpt lat="42.96271" lon="11.5677433"><ele>417.6666666666667</ele><time>2026-04-18T12:28:18.77Z</time></trkpt><trkpt lat="42.9628567" lon="11.5678883"><ele>417.33333333333337</ele><time>2026-04-18T12:28:19.77Z</time></trkpt><trkpt lat="42.963005" lon="11.568035"><ele>417.0</ele><time>2026-04-18T12:28:20.772Z</time></trkpt><trkpt lat="42.9631617" lon="11.5681767"><ele>417.0</ele><time>2026-04-18T12:28:21.766Z</time></trkpt><trkpt lat="42.9633167" lon="11.5683183"><ele>417.0</ele><time>2026-04-18T12:28:22.769Z</time></trkpt><trkpt lat="42.9634867" lon="11.5684383"><ele>417.0</ele><time>2026-04-18T12:28:23.771Z</time></trkpt><trkpt lat="42.9636617" lon="11.5685283"><ele>414.33333333333337</ele><time>2026-04-18T12:28:24.771Z</time></trkpt><trkpt lat="42.9638517" lon="11.5685717"><ele>411.6666666666667</ele><time>2026-04-18T12:28:25.767Z</time></trkpt><trkpt lat="42.9640567" lon="11.5685683"><ele>409.0</ele><time>2026-04-18T12:28:26.771Z</time></trkpt><trkpt lat="42.9642667" lon="11.5685417"><ele>406.33333333333337</ele><time>2026-04-18T12:28:27.769Z</time></trkpt><trkpt lat="42.9644767" lon="11.568505"><ele>403.66666666666663</ele><time>2026-04-18T12:28:28.763Z</time></trkpt><trkpt lat="42.9646717" lon="11.5684867"><ele>401.0</ele><time>2026-04-18T12:28:29.77Z</time></trkpt><trkpt lat="42.9648567" lon="11.5684917"><ele>399.66666666666663</ele><time>2026-04-18T12:28:30.773Z</time></trkpt><trkpt lat="42.9650367" lon="11.568535"><ele>398.33333333333337</ele><time>2026-04-18T12:28:31.771Z</time></trkpt><trkpt lat="42.965215" lon="11.568625"><ele>397.0</ele><time>2026-04-18T12:28:32.773Z</time></trkpt><trkpt lat="42.9654017" lon="11.56874"><ele>397.0</ele><time>2026-04-18T12:28:33.771Z</time></trkpt><trkpt lat="42.9655867" lon="11.5688583"><ele>397.0</ele><time>2026-04-18T12:28:34.769Z</time></trkpt><trkpt lat="42.96577" lon="11.5689767"><ele>397.0</ele><time>2026-04-18T12:28:35.769Z</time></trkpt><trkpt lat="42.9659433" lon="11.569095"><ele>393.33333333333337</ele><time>2026-04-18T12:28:36.77Z</time></trkpt><trkpt lat="42.9661033" lon="11.5692167"><ele>389.66666666666663</ele><time>2026-04-18T12:28:37.771Z</time></trkpt><trkpt lat="42.9662383" lon="11.5693683"><ele>386.0</ele><time>2026-04-18T12:28:38.773Z</time></trkpt><trkpt lat="42.9663467" lon="11.569555"><ele>386.0</ele><time>2026-04-18T12:28:39.772Z</time></trkpt><trkpt lat="42.9664283" lon="11.5697733"><ele>386.0</ele><time>2026-04-18T12:28:40.771Z</time></trkpt><trkpt lat="42.9664983" lon="11.57002"><ele>386.0</ele><time>2026-04-18T12:28:41.77Z</time></trkpt><trkpt lat="42.9665617" lon="11.5702817"><ele>385.66666666666663</ele><time>2026-04-18T12:28:42.774Z</time></trkpt><trkpt lat="42.9666167" lon="11.5705567"><ele>385.33333333333337</ele><time>2026-04-18T12:28:43.77Z</time></trkpt><trkpt lat="42.96668" lon="11.57084"><ele>385.0</ele><time>2026-04-18T12:28:44.773Z</time></trkpt><trkpt lat="42.966745" lon="11.5711283"><ele>378.6666666666667</ele><time>2026-04-18T12:28:45.771Z</time></trkpt><trkpt lat="42.966815" lon="11.57142"><ele>372.33333333333337</ele><time>2026-04-18T12:28:46.768Z</time></trkpt><trkpt lat="42.966875" lon="11.5717133"><ele>366.0</ele><time>2026-04-18T12:28:47.77Z</time></trkpt><trkpt lat="42.9669267" lon="11.571995"><ele>364.6666666666667</ele><time>2026-04-18T12:28:48.772Z</time></trkpt><trkpt lat="42.9669767" lon="11.572275"><ele>363.33333333333337</ele><time>2026-04-18T12:28:49.771Z</time></trkpt><trkpt lat="42.96703" lon="11.5725417"><ele>362.0</ele><time>2026-04-18T12:28:50.767Z</time></trkpt><trkpt lat="42.96708" lon="11.5727917"><ele>360.0</ele><time>2026-04-18T12:28:51.769Z</time></trkpt><trkpt lat="42.96712" lon="11.57303"><ele>358.0</ele><time>2026-04-18T12:28:52.766Z</time></trkpt><trkpt lat="42.96714" lon="11.5732617"><ele>356.0</ele><time>2026-04-18T12:28:53.771Z</time></trkpt><trkpt lat="42.9671333" lon="11.57349"><ele>353.0</ele><time>2026-04-18T12:28:54.772Z</time></trkpt><trkpt lat="42.9671017" lon="11.5737267"><ele>350.0</ele><time>2026-04-18T12:28:55.759Z</time></trkpt><trkpt lat="42.9670567" lon="11.57397"><ele>347.0</ele><time>2026-04-18T12:28:56.761Z</time></trkpt><trkpt lat="42.9670067" lon="11.57421"><ele>347.0</ele><time>2026-04-18T12:28:57.769Z</time></trkpt><trkpt lat="42.966955" lon="11.5744433"><ele>347.0</ele><time>2026-04-18T12:28:58.77Z</time></trkpt><trkpt lat="42.96691" lon="11.5746667"><ele>347.0</ele><time>2026-04-18T12:28:59.768Z</time></trkpt><trkpt lat="42.9668867" lon="11.5748717"><ele>347.75</ele><time>2026-04-18T12:29:00.774Z</time></trkpt><trkpt lat="42.96689" lon="11.5750683"><ele>348.5</ele><time>2026-04-18T12:29:01.769Z</time></trkpt><trkpt lat="42.9669317" lon="11.57525"><ele>349.25</ele><time>2026-04-18T12:29:02.771Z</time></trkpt><trkpt lat="42.9670117" lon="11.5754183"><ele>350.0</ele><time>2026-04-18T12:29:03.77Z</time></trkpt><trkpt lat="42.96712" lon="11.57556"><ele>354.6666666666667</ele><time>2026-04-18T12:29:04.767Z</time></trkpt><trkpt lat="42.9672517" lon="11.5756683"><ele>359.3333333333333</ele><time>2026-04-18T12:29:05.77Z</time></trkpt><trkpt lat="42.96741" lon="11.5757217"><ele>364.0</ele><time>2026-04-18T12:29:06.768Z</time></trkpt><trkpt lat="42.9675833" lon="11.57569"><ele>365.3333333333333</ele><time>2026-04-18T12:29:07.772Z</time></trkpt><trkpt lat="42.9677583" lon="11.5755833"><ele>366.6666666666667</ele><time>2026-04-18T12:29:08.771Z</time></trkpt><trkpt lat="42.967905" lon="11.57545"><ele>368.0</ele><time>2026-04-18T12:29:09.772Z</time></trkpt><trkpt lat="42.9680467" lon="11.5753167"><ele>366.33333333333337</ele><time>2026-04-18T12:29:10.77Z</time></trkpt><trkpt lat="42.9681867" lon="11.5752317"><ele>364.6666666666667</ele><time>2026-04-18T12:29:11.772Z</time></trkpt><trkpt lat="42.968335" lon="11.5751783"><ele>363.0</ele><time>2026-04-18T12:29:12.771Z</time></trkpt><trkpt lat="42.9684883" lon="11.5751367"><ele>363.0</ele><time>2026-04-18T12:29:13.772Z</time></trkpt><trkpt lat="42.9686333" lon="11.5750717"><ele>363.0</ele><time>2026-04-18T12:29:14.773Z</time></trkpt><trkpt lat="42.9687733" lon="11.5749717"><ele>363.0</ele><time>2026-04-18T12:29:15.771Z</time></trkpt><trkpt lat="42.9689033" lon="11.5748467"><ele>363.0</ele><time>2026-04-18T12:29:16.766Z</time></trkpt><trkpt lat="42.9690367" lon="11.5747017"><ele>363.0</ele><time>2026-04-18T12:29:17.77Z</time></trkpt><trkpt lat="42.9691717" lon="11.5745517"><ele>363.0</ele><time>2026-04-18T12:29:18.772Z</time></trkpt><trkpt lat="42.9693117" lon="11.5744033"><ele>361.3333333333333</ele><time>2026-04-18T12:29:19.77Z</time></trkpt><trkpt lat="42.9694583" lon="11.57426"><ele>359.66666666666663</ele><time>2026-04-18T12:29:20.767Z</time></trkpt><trkpt lat="42.969605" lon="11.5741283"><ele>358.0</ele><time>2026-04-18T12:29:21.767Z</time></trkpt><trkpt lat="42.96974" lon="11.5740083"><ele>358.0</ele><time>2026-04-18T12:29:22.769Z</time></trkpt><trkpt lat="42.9698533" lon="11.5739067"><ele>358.0</ele><time>2026-04-18T12:29:23.769Z</time></trkpt><trkpt lat="42.9699433" lon="11.5738233"><ele>358.0</ele><time>2026-04-18T12:29:24.773Z</time></trkpt><trkpt lat="42.97002" lon="11.5737683"><ele>358.0</ele><time>2026-04-18T12:29:25.77Z</time></trkpt><trkpt lat="42.97008" lon="11.573735"><ele>358.0</ele><time>2026-04-18T12:29:26.771Z</time></trkpt><trkpt lat="42.9701433" lon="11.5737733"><ele>358.0</ele><time>2026-04-18T12:29:28.771Z</time></trkpt><trkpt lat="42.970125" lon="11.573915"><ele>358.0</ele><time>2026-04-18T12:29:30.771Z</time></trkpt><trkpt lat="42.9700533" lon="11.5740683"><ele>358.0</ele><time>2026-04-18T12:29:31.771Z</time></trkpt><trkpt lat="42.9699083" lon="11.5742033"><ele>358.0</ele><time>2026-04-18T12:29:32.77Z</time></trkpt><trkpt lat="42.969765" lon="11.5743033"><ele>358.0</ele><time>2026-04-18T12:29:33.767Z</time></trkpt><trkpt lat="42.969605" lon="11.5744233"><ele>358.0</ele><time>2026-04-18T12:29:34.765Z</time></trkpt><trkpt lat="42.9695333" lon="11.5745283"><ele>358.0</ele><time>2026-04-18T12:29:35.77Z</time></trkpt><trkpt lat="42.9694933" lon="11.5746517"><ele>358.0</ele><time>2026-04-18T12:29:36.771Z</time></trkpt><trkpt lat="42.9694867" lon="11.57477"><ele>361.0</ele><time>2026-04-18T12:29:37.769Z</time></trkpt><trkpt lat="42.9695117" lon="11.5748633"><ele>364.0</ele><time>2026-04-18T12:29:38.77Z</time></trkpt><trkpt lat="42.969575" lon="11.574955"><ele>367.0</ele><time>2026-04-18T12:29:39.77Z</time></trkpt><trkpt lat="42.9696983" lon="11.5750517"><ele>370.0</ele><time>2026-04-18T12:29:40.768Z</time></trkpt><trkpt lat="42.9699233" lon="11.5751183"><ele>371.3333333333333</ele><time>2026-04-18T12:29:41.77Z</time></trkpt><trkpt lat="42.9701067" lon="11.5751567"><ele>372.6666666666667</ele><time>2026-04-18T12:29:42.771Z</time></trkpt><trkpt lat="42.970275" lon="11.5751183"><ele>374.0</ele><time>2026-04-18T12:29:43.769Z</time></trkpt><trkpt lat="42.9704283" lon="11.57503"><ele>374.0</ele><time>2026-04-18T12:29:44.774Z</time></trkpt><trkpt lat="42.970585" lon="11.574945"><ele>374.0</ele><time>2026-04-18T12:29:45.767Z</time></trkpt><trkpt lat="42.97074" lon="11.5749"><ele>374.0</ele><time>2026-04-18T12:29:46.768Z</time></trkpt><trkpt lat="42.9708833" lon="11.5748867"><ele>373.0</ele><time>2026-04-18T12:29:47.77Z</time></trkpt><trkpt lat="42.97102" lon="11.5749233"><ele>372.0</ele><time>2026-04-18T12:29:48.771Z</time></trkpt><trkpt lat="42.971155" lon="11.5750133"><ele>371.0</ele><time>2026-04-18T12:29:49.769Z</time></trkpt><trkpt lat="42.9712367" lon="11.5752"><ele>370.0</ele><time>2026-04-18T12:29:50.773Z</time></trkpt><trkpt lat="42.9712733" lon="11.575455"><ele>372.66666666666663</ele><time>2026-04-18T12:29:51.77Z</time></trkpt><trkpt lat="42.9713383" lon="11.5756883"><ele>375.3333333333333</ele><time>2026-04-18T12:29:52.769Z</time></trkpt><trkpt lat="42.9714383" lon="11.5759083"><ele>378.0</ele><time>2026-04-18T12:29:53.771Z</time></trkpt><trkpt lat="42.971555" lon="11.576095"><ele>378.75</ele><time>2026-04-18T12:29:54.775Z</time></trkpt><trkpt lat="42.971655" lon="11.5762583"><ele>379.5</ele><time>2026-04-18T12:29:55.769Z</time></trkpt><trkpt lat="42.97173" lon="11.5764167"><ele>380.25</ele><time>2026-04-18T12:29:56.771Z</time></trkpt><trkpt lat="42.9717633" lon="11.5765833"><ele>381.0</ele><time>2026-04-18T12:29:57.771Z</time></trkpt><trkpt lat="42.97176" lon="11.576755"><ele>381.0</ele><time>2026-04-18T12:29:58.768Z</time></trkpt><trkpt lat="42.97173" lon="11.5769017"><ele>381.0</ele><time>2026-04-18T12:29:59.769Z</time></trkpt><trkpt lat="42.971585" lon="11.5769433"><ele>381.0</ele><time>2026-04-18T12:30:00.768Z</time></trkpt><trkpt lat="42.9714067" lon="11.5768633"><ele>381.0</ele><time>2026-04-18T12:30:01.771Z</time></trkpt><trkpt lat="42.97124" lon="11.5766717"><ele>383.0</ele><time>2026-04-18T12:30:02.768Z</time></trkpt><trkpt lat="42.9710817" lon="11.5765183"><ele>385.0</ele><time>2026-04-18T12:30:03.77Z</time></trkpt><trkpt lat="42.97093" lon="11.5764067"><ele>387.0</ele><time>2026-04-18T12:30:04.77Z</time></trkpt><trkpt lat="42.970785" lon="11.57634"><ele>389.0</ele><time>2026-04-18T12:30:05.771Z</time></trkpt><trkpt lat="42.9706467" lon="11.57631"><ele>391.0</ele><time>2026-04-18T12:30:06.771Z</time></trkpt><trkpt lat="42.97051" lon="11.5763433"><ele>393.0</ele><time>2026-04-18T12:30:07.769Z</time></trkpt><trkpt lat="42.9703867" lon="11.5764567"><ele>395.0</ele><time>2026-04-18T12:30:08.767Z</time></trkpt><trkpt lat="42.9702817" lon="11.5766017"><ele>395.0</ele><time>2026-04-18T12:30:09.77Z</time></trkpt><trkpt lat="42.9702317" lon="11.576785"><ele>395.0</ele><time>2026-04-18T12:30:10.767Z</time></trkpt><trkpt lat="42.9702483" lon="11.5769617"><ele>395.0</ele><time>2026-04-18T12:30:11.771Z</time></trkpt><trkpt lat="42.9703117" lon="11.577105"><ele>395.0</ele><time>2026-04-18T12:30:12.772Z</time></trkpt><trkpt lat="42.97044" lon="11.5771883"><ele>396.0</ele><time>2026-04-18T12:30:13.77Z</time></trkpt><trkpt lat="42.970595" lon="11.5771867"><ele>397.0</ele><time>2026-04-18T12:30:14.774Z</time></trkpt><trkpt lat="42.9707517" lon="11.577155"><ele>398.0</ele><time>2026-04-18T12:30:15.769Z</time></trkpt><trkpt lat="42.9709033" lon="11.5771333"><ele>398.0</ele><time>2026-04-18T12:30:16.772Z</time></trkpt><trkpt lat="42.9710517" lon="11.5771983"><ele>398.0</ele><time>2026-04-18T12:30:17.77Z</time></trkpt><trkpt lat="42.9711617" lon="11.5773317"><ele>398.0</ele><time>2026-04-18T12:30:18.77Z</time></trkpt><trkpt lat="42.9712283" lon="11.577495"><ele>398.0</ele><time>2026-04-18T12:30:19.77Z</time></trkpt><trkpt lat="42.9712783" lon="11.5776517"><ele>398.0</ele><time>2026-04-18T12:30:20.774Z</time></trkpt><trkpt lat="42.9713417" lon="11.5777933"><ele>398.0</ele><time>2026-04-18T12:30:21.772Z</time></trkpt><trkpt lat="42.97143" lon="11.57791"><ele>398.0</ele><time>2026-04-18T12:30:22.772Z</time></trkpt><trkpt lat="42.9715367" lon="11.5779983"><ele>398.0</ele><time>2026-04-18T12:30:23.77Z</time></trkpt><trkpt lat="42.9716483" lon="11.5780767"><ele>399.75</ele><time>2026-04-18T12:30:24.77Z</time></trkpt><trkpt lat="42.971755" lon="11.5781717"><ele>401.5</ele><time>2026-04-18T12:30:25.77Z</time></trkpt><trkpt lat="42.9718517" lon="11.5782933"><ele>403.25</ele><time>2026-04-18T12:30:26.774Z</time></trkpt><trkpt lat="42.9719317" lon="11.5784333"><ele>405.0</ele><time>2026-04-18T12:30:27.771Z</time></trkpt><trkpt lat="42.9720117" lon="11.57856"><ele>405.0</ele><time>2026-04-18T12:30:28.77Z</time></trkpt><trkpt lat="42.9721017" lon="11.578665"><ele>405.0</ele><time>2026-04-18T12:30:29.77Z</time></trkpt><trkpt lat="42.9722067" lon="11.578745"><ele>405.0</ele><time>2026-04-18T12:30:30.771Z</time></trkpt><trkpt lat="42.972325" lon="11.5787983"><ele>405.0</ele><time>2026-04-18T12:30:31.771Z</time></trkpt><trkpt lat="42.9724433" lon="11.5788383"><ele>405.2</ele><time>2026-04-18T12:30:32.771Z</time></trkpt><trkpt lat="42.972555" lon="11.57888"><ele>405.4</ele><time>2026-04-18T12:30:33.77Z</time></trkpt><trkpt lat="42.9726483" lon="11.578935"><ele>405.6</ele><time>2026-04-18T12:30:34.769Z</time></trkpt><trkpt lat="42.97272" lon="11.579015"><ele>405.8</ele><time>2026-04-18T12:30:35.771Z</time></trkpt><trkpt lat="42.9727567" lon="11.579125"><ele>406.0</ele><time>2026-04-18T12:30:36.771Z</time></trkpt><trkpt lat="42.9727583" lon="11.579245"><ele>406.0</ele><time>2026-04-18T12:30:37.769Z</time></trkpt><trkpt lat="42.972725" lon="11.5793533"><ele>406.0</ele><time>2026-04-18T12:30:38.77Z</time></trkpt><trkpt lat="42.9726667" lon="11.579435"><ele>406.0</ele><time>2026-04-18T12:30:39.772Z</time></trkpt><trkpt lat="42.9725667" lon="11.5794683"><ele>406.0</ele><time>2026-04-18T12:30:40.766Z</time></trkpt><trkpt lat="42.9724517" lon="11.5794417"><ele>406.0</ele><time>2026-04-18T12:30:41.771Z</time></trkpt><trkpt lat="42.97231" lon="11.5793583"><ele>408.75</ele><time>2026-04-18T12:30:42.765Z</time></trkpt><trkpt lat="42.9721917" lon="11.5792967"><ele>411.5</ele><time>2026-04-18T12:30:43.771Z</time></trkpt><trkpt lat="42.97207" lon="11.57927"><ele>414.25</ele><time>2026-04-18T12:30:44.771Z</time></trkpt><trkpt lat="42.9719483" lon="11.5792733"><ele>417.0</ele><time>2026-04-18T12:30:45.77Z</time></trkpt><trkpt lat="42.9718217" lon="11.5792817"><ele>417.0</ele><time>2026-04-18T12:30:46.772Z</time></trkpt><trkpt lat="42.9716967" lon="11.5793033"><ele>417.0</ele><time>2026-04-18T12:30:47.769Z</time></trkpt><trkpt lat="42.9715733" lon="11.5793267"><ele>417.0</ele><time>2026-04-18T12:30:48.771Z</time></trkpt><trkpt lat="42.9714483" lon="11.5793517"><ele>417.0</ele><time>2026-04-18T12:30:49.77Z</time></trkpt><trkpt lat="42.9713233" lon="11.579385"><ele>418.5</ele><time>2026-04-18T12:30:50.774Z</time></trkpt><trkpt lat="42.9712017" lon="11.5794367"><ele>420.0</ele><time>2026-04-18T12:30:51.771Z</time></trkpt><trkpt lat="42.97108" lon="11.5795067"><ele>421.5</ele><time>2026-04-18T12:30:52.771Z</time></trkpt><trkpt lat="42.9709617" lon="11.579595"><ele>423.0</ele><time>2026-04-18T12:30:53.77Z</time></trkpt><trkpt lat="42.9708433" lon="11.5796733"><ele>426.25</ele><time>2026-04-18T12:30:54.765Z</time></trkpt><trkpt lat="42.9707283" lon="11.5797283"><ele>429.5</ele><time>2026-04-18T12:30:55.771Z</time></trkpt><trkpt lat="42.9706133" lon="11.57974"><ele>432.75</ele><time>2026-04-18T12:30:56.773Z</time></trkpt><trkpt lat="42.9705017" lon="11.5797183"><ele>436.0</ele><time>2026-04-18T12:30:57.771Z</time></trkpt><trkpt lat="42.9703917" lon="11.5796767"><ele>436.0</ele><time>2026-04-18T12:30:58.77Z</time></trkpt><trkpt lat="42.9702833" lon="11.5796467"><ele>436.0</ele><time>2026-04-18T12:30:59.771Z</time></trkpt><trkpt lat="42.9701717" lon="11.57965"><ele>436.0</ele><time>2026-04-18T12:31:00.774Z</time></trkpt><trkpt lat="42.9700617" lon="11.579695"><ele>436.0</ele><time>2026-04-18T12:31:01.77Z</time></trkpt><trkpt lat="42.9699517" lon="11.5797783"><ele>436.5</ele><time>2026-04-18T12:31:02.773Z</time></trkpt><trkpt lat="42.96985" lon="11.579885"><ele>437.0</ele><time>2026-04-18T12:31:03.771Z</time></trkpt><trkpt lat="42.969755" lon="11.5799883"><ele>437.5</ele><time>2026-04-18T12:31:04.765Z</time></trkpt><trkpt lat="42.9696617" lon="11.58009"><ele>438.0</ele><time>2026-04-18T12:31:05.772Z</time></trkpt><trkpt lat="42.969565" lon="11.5801933"><ele>438.0</ele><time>2026-04-18T12:31:06.772Z</time></trkpt><trkpt lat="42.96947" lon="11.5802933"><ele>438.0</ele><time>2026-04-18T12:31:07.769Z</time></trkpt><trkpt lat="42.9693767" lon="11.5803967"><ele>438.0</ele><time>2026-04-18T12:31:08.775Z</time></trkpt><trkpt lat="42.96928" lon="11.5805033"><ele>438.0</ele><time>2026-04-18T12:31:09.77Z</time></trkpt><trkpt lat="42.9691817" lon="11.58061"><ele>440.5</ele><time>2026-04-18T12:31:10.771Z</time></trkpt><trkpt lat="42.9690817" lon="11.5807167"><ele>443.0</ele><time>2026-04-18T12:31:11.769Z</time></trkpt><trkpt lat="42.9689783" lon="11.580825"><ele>445.5</ele><time>2026-04-18T12:31:12.771Z</time></trkpt><trkpt lat="42.9688817" lon="11.580935"><ele>448.0</ele><time>2026-04-18T12:31:13.772Z</time></trkpt><trkpt lat="42.9687983" lon="11.5810583"><ele>450.25</ele><time>2026-04-18T12:31:14.774Z</time></trkpt><trkpt lat="42.9687267" lon="11.5812033"><ele>452.5</ele><time>2026-04-18T12:31:15.771Z</time></trkpt><trkpt lat="42.9686733" lon="11.5813683"><ele>454.75</ele><time>2026-04-18T12:31:16.769Z</time></trkpt><trkpt lat="42.9686367" lon="11.5815467"><ele>457.0</ele><time>2026-04-18T12:31:17.771Z</time></trkpt><trkpt lat="42.9686183" lon="11.5817333"><ele>457.0</ele><time>2026-04-18T12:31:18.768Z</time></trkpt><trkpt lat="42.968615" lon="11.58192"><ele>457.0</ele><time>2026-04-18T12:31:19.772Z</time></trkpt><trkpt lat="42.968625" lon="11.5821083"><ele>457.0</ele><time>2026-04-18T12:31:20.764Z</time></trkpt><trkpt lat="42.9686333" lon="11.5822883"><ele>457.0</ele><time>2026-04-18T12:31:21.77Z</time></trkpt><trkpt lat="42.9686417" lon="11.58246"><ele>458.8</ele><time>2026-04-18T12:31:22.77Z</time></trkpt><trkpt lat="42.9686433" lon="11.5826133"><ele>460.6</ele><time>2026-04-18T12:31:23.77Z</time></trkpt><trkpt lat="42.9686217" lon="11.58275"><ele>462.40000000000003</ele><time>2026-04-18T12:31:24.77Z</time></trkpt><trkpt lat="42.9685617" lon="11.5828617"><ele>464.20000000000005</ele><time>2026-04-18T12:31:25.768Z</time></trkpt><trkpt lat="42.9684717" lon="11.5829333"><ele>466.0</ele><time>2026-04-18T12:31:26.77Z</time></trkpt><trkpt lat="42.96837" lon="11.58296"><ele>465.6</ele><time>2026-04-18T12:31:27.769Z</time></trkpt><trkpt lat="42.9682667" lon="11.5829633"><ele>465.20000000000005</ele><time>2026-04-18T12:31:28.766Z</time></trkpt><trkpt lat="42.9681633" lon="11.582975"><ele>464.79999999999995</ele><time>2026-04-18T12:31:29.768Z</time></trkpt><trkpt lat="42.96806" lon="11.5830133"><ele>464.4</ele><time>2026-04-18T12:31:30.77Z</time></trkpt><trkpt lat="42.96796" lon="11.5830833"><ele>464.0</ele><time>2026-04-18T12:31:31.769Z</time></trkpt><trkpt lat="42.967875" lon="11.58318"><ele>464.0</ele><time>2026-04-18T12:31:32.773Z</time></trkpt><trkpt lat="42.9678067" lon="11.58329"><ele>464.0</ele><time>2026-04-18T12:31:33.772Z</time></trkpt><trkpt lat="42.9677533" lon="11.5834083"><ele>464.0</ele><time>2026-04-18T12:31:34.769Z</time></trkpt><trkpt lat="42.9677317" lon="11.5835317"><ele>464.0</ele><time>2026-04-18T12:31:35.773Z</time></trkpt><trkpt lat="42.9677333" lon="11.5836567"><ele>464.0</ele><time>2026-04-18T12:31:36.774Z</time></trkpt><trkpt lat="42.967755" lon="11.5837867"><ele>465.79999999999995</ele><time>2026-04-18T12:31:37.772Z</time></trkpt><trkpt lat="42.9678033" lon="11.5839183"><ele>467.59999999999997</ele><time>2026-04-18T12:31:38.772Z</time></trkpt><trkpt lat="42.9678717" lon="11.5840317"><ele>469.4</ele><time>2026-04-18T12:31:39.772Z</time></trkpt><trkpt lat="42.967955" lon="11.5841167"><ele>471.2</ele><time>2026-04-18T12:31:40.769Z</time></trkpt><trkpt lat="42.9680517" lon="11.5841567"><ele>473.0</ele><time>2026-04-18T12:31:41.769Z</time></trkpt><trkpt lat="42.968165" lon="11.58414"><ele>473.0</ele><time>2026-04-18T12:31:42.77Z</time></trkpt><trkpt lat="42.9682767" lon="11.5840717"><ele>473.0</ele><time>2026-04-18T12:31:43.77Z</time></trkpt><trkpt lat="42.96838" lon="11.5839783"><ele>473.0</ele><time>2026-04-18T12:31:44.771Z</time></trkpt><trkpt lat="42.9684783" lon="11.583875"><ele>473.0</ele><time>2026-04-18T12:31:45.769Z</time></trkpt><trkpt lat="42.968585" lon="11.5837717"><ele>472.4</ele><time>2026-04-18T12:31:46.766Z</time></trkpt><trkpt lat="42.9686867" lon="11.583695"><ele>471.79999999999995</ele><time>2026-04-18T12:31:47.77Z</time></trkpt><trkpt lat="42.9687917" lon="11.58366"><ele>471.2</ele><time>2026-04-18T12:31:48.77Z</time></trkpt><trkpt lat="42.9688933" lon="11.5836733"><ele>470.6</ele><time>2026-04-18T12:31:49.773Z</time></trkpt><trkpt lat="42.9689783" lon="11.5837417"><ele>470.0</ele><time>2026-04-18T12:31:50.773Z</time></trkpt><trkpt lat="42.9690567" lon="11.5838367"><ele>472.0</ele><time>2026-04-18T12:31:51.769Z</time></trkpt><trkpt lat="42.9691433" lon="11.58391"><ele>474.0</ele><time>2026-04-18T12:31:52.768Z</time></trkpt><trkpt lat="42.9692417" lon="11.5839317"><ele>476.0</ele><time>2026-04-18T12:31:53.77Z</time></trkpt><trkpt lat="42.969345" lon="11.58389"><ele>478.0</ele><time>2026-04-18T12:31:54.769Z</time></trkpt><trkpt lat="42.969435" lon="11.5838083"><ele>480.0</ele><time>2026-04-18T12:31:55.771Z</time></trkpt><trkpt lat="42.9695067" lon="11.5836933"><ele>480.5</ele><time>2026-04-18T12:31:56.772Z</time></trkpt><trkpt lat="42.9695733" lon="11.58356"><ele>481.0</ele><time>2026-04-18T12:31:57.768Z</time></trkpt><trkpt lat="42.96964" lon="11.5834267"><ele>481.5</ele><time>2026-04-18T12:31:58.77Z</time></trkpt><trkpt lat="42.9697083" lon="11.5832917"><ele>482.0</ele><time>2026-04-18T12:31:59.769Z</time></trkpt><trkpt lat="42.9697833" lon="11.5831667"><ele>482.0</ele><time>2026-04-18T12:32:00.771Z</time></trkpt><trkpt lat="42.9698767" lon="11.58307"><ele>482.0</ele><time>2026-04-18T12:32:01.767Z</time></trkpt><trkpt lat="42.9699883" lon="11.583005"><ele>482.0</ele><time>2026-04-18T12:32:02.773Z</time></trkpt><trkpt lat="42.97011" lon="11.5829767"><ele>482.0</ele><time>2026-04-18T12:32:03.77Z</time></trkpt><trkpt lat="42.9702333" lon="11.5829933"><ele>482.25</ele><time>2026-04-18T12:32:04.768Z</time></trkpt><trkpt lat="42.9703567" lon="11.5830583"><ele>482.5</ele><time>2026-04-18T12:32:05.77Z</time></trkpt><trkpt lat="42.9704717" lon="11.5831483"><ele>482.75</ele><time>2026-04-18T12:32:06.771Z</time></trkpt><trkpt lat="42.970575" lon="11.5832367"><ele>483.0</ele><time>2026-04-18T12:32:07.77Z</time></trkpt><trkpt lat="42.970675" lon="11.5833267"><ele>483.0</ele><time>2026-04-18T12:32:08.773Z</time></trkpt><trkpt lat="42.97077" lon="11.5834183"><ele>483.0</ele><time>2026-04-18T12:32:09.77Z</time></trkpt><trkpt lat="42.970845" lon="11.5835433"><ele>483.0</ele><time>2026-04-18T12:32:10.769Z</time></trkpt><trkpt lat="42.970895" lon="11.5836917"><ele>483.0</ele><time>2026-04-18T12:32:11.771Z</time></trkpt><trkpt lat="42.9709017" lon="11.5838483"><ele>483.25</ele><time>2026-04-18T12:32:12.772Z</time></trkpt><trkpt lat="42.9708733" lon="11.584005"><ele>483.5</ele><time>2026-04-18T12:32:13.771Z</time></trkpt><trkpt lat="42.9708333" lon="11.5841567"><ele>483.75</ele><time>2026-04-18T12:32:14.773Z</time></trkpt><trkpt lat="42.9707933" lon="11.584305"><ele>484.0</ele><time>2026-04-18T12:32:15.77Z</time></trkpt><trkpt lat="42.9707633" lon="11.5844483"><ele>485.6</ele><time>2026-04-18T12:32:16.769Z</time></trkpt><trkpt lat="42.97076" lon="11.584595"><ele>487.2</ele><time>2026-04-18T12:32:17.771Z</time></trkpt><trkpt lat="42.9707917" lon="11.584735"><ele>488.80000000000007</ele><time>2026-04-18T12:32:18.769Z</time></trkpt><trkpt lat="42.970855" lon="11.584855"><ele>490.40000000000003</ele><time>2026-04-18T12:32:19.769Z</time></trkpt><trkpt lat="42.9709383" lon="11.5849583"><ele>492.0</ele><time>2026-04-18T12:32:20.774Z</time></trkpt><trkpt lat="42.9710267" lon="11.5850517"><ele>492.0</ele><time>2026-04-18T12:32:21.769Z</time></trkpt><trkpt lat="42.971115" lon="11.5851483"><ele>492.00000000000006</ele><time>2026-04-18T12:32:22.769Z</time></trkpt><trkpt lat="42.9712" lon="11.58524"><ele>492.00000000000006</ele><time>2026-04-18T12:32:23.77Z</time></trkpt><trkpt lat="42.9712833" lon="11.5853283"><ele>492.0</ele><time>2026-04-18T12:32:24.77Z</time></trkpt><trkpt lat="42.9713667" lon="11.58543"><ele>492.0</ele><time>2026-04-18T12:32:25.77Z</time></trkpt><trkpt lat="42.9714367" lon="11.5855517"><ele>494.5</ele><time>2026-04-18T12:32:26.774Z</time></trkpt><trkpt lat="42.9714967" lon="11.5856883"><ele>497.0</ele><time>2026-04-18T12:32:27.771Z</time></trkpt><trkpt lat="42.9715517" lon="11.5858367"><ele>499.5</ele><time>2026-04-18T12:32:28.767Z</time></trkpt><trkpt lat="42.9716067" lon="11.5859933"><ele>502.0</ele><time>2026-04-18T12:32:29.767Z</time></trkpt><trkpt lat="42.971665" lon="11.58615"><ele>501.0</ele><time>2026-04-18T12:32:30.77Z</time></trkpt><trkpt lat="42.971725" lon="11.586305"><ele>500.0</ele><time>2026-04-18T12:32:31.771Z</time></trkpt><trkpt lat="42.9717833" lon="11.5864533"><ele>499.0</ele><time>2026-04-18T12:32:32.772Z</time></trkpt><trkpt lat="42.9718433" lon="11.5866"><ele>498.0</ele><time>2026-04-18T12:32:33.77Z</time></trkpt><trkpt lat="42.971905" lon="11.5867383"><ele>498.0</ele><time>2026-04-18T12:32:34.769Z</time></trkpt><trkpt lat="42.9719733" lon="11.5868683"><ele>498.0</ele><time>2026-04-18T12:32:35.77Z</time></trkpt><trkpt lat="42.972045" lon="11.58699"><ele>498.0</ele><time>2026-04-18T12:32:36.77Z</time></trkpt><trkpt lat="42.9721083" lon="11.5871183"><ele>498.0</ele><time>2026-04-18T12:32:37.771Z</time></trkpt><trkpt lat="42.9721617" lon="11.5872517"><ele>500.75</ele><time>2026-04-18T12:32:38.772Z</time></trkpt><trkpt lat="42.9722117" lon="11.5873933"><ele>503.5</ele><time>2026-04-18T12:32:39.77Z</time></trkpt><trkpt lat="42.9722567" lon="11.5875383"><ele>506.25</ele><time>2026-04-18T12:32:40.766Z</time></trkpt><trkpt lat="42.9723017" lon="11.587685"><ele>509.0</ele><time>2026-04-18T12:32:41.772Z</time></trkpt><trkpt lat="42.97235" lon="11.5878267"><ele>510.4</ele><time>2026-04-18T12:32:42.77Z</time></trkpt><trkpt lat="42.972405" lon="11.58796"><ele>511.79999999999995</ele><time>2026-04-18T12:32:43.77Z</time></trkpt><trkpt lat="42.9724667" lon="11.5880783"><ele>513.2</ele><time>2026-04-18T12:32:44.772Z</time></trkpt><trkpt lat="42.9725317" lon="11.588185"><ele>514.6</ele><time>2026-04-18T12:32:45.768Z</time></trkpt><trkpt lat="42.9726033" lon="11.5882833"><ele>516.0</ele><time>2026-04-18T12:32:46.778Z</time></trkpt><trkpt lat="42.9726833" lon="11.5883683"><ele>516.0</ele><time>2026-04-18T12:32:47.772Z</time></trkpt><trkpt lat="42.972765" lon="11.5884433"><ele>516.0</ele><time>2026-04-18T12:32:48.769Z</time></trkpt><trkpt lat="42.97284" lon="11.5885183"><ele>516.0</ele><time>2026-04-18T12:32:49.77Z</time></trkpt><trkpt lat="42.9729033" lon="11.5885967"><ele>516.0</ele><time>2026-04-18T12:32:50.771Z</time></trkpt><trkpt lat="42.9729583" lon="11.5886817"><ele>516.0</ele><time>2026-04-18T12:32:51.769Z</time></trkpt><trkpt lat="42.9730017" lon="11.5887817"><ele>516.0</ele><time>2026-04-18T12:32:52.77Z</time></trkpt><trkpt lat="42.9730367" lon="11.5888867"><ele>517.8</ele><time>2026-04-18T12:32:53.771Z</time></trkpt><trkpt lat="42.973065" lon="11.589005"><ele>519.6</ele><time>2026-04-18T12:32:54.77Z</time></trkpt><trkpt lat="42.973095" lon="11.589125"><ele>521.4</ele><time>2026-04-18T12:32:55.769Z</time></trkpt><trkpt lat="42.9731283" lon="11.5892383"><ele>523.2</ele><time>2026-04-18T12:32:56.774Z</time></trkpt><trkpt lat="42.9731633" lon="11.5893517"><ele>525.0</ele><time>2026-04-18T12:32:57.769Z</time></trkpt><trkpt lat="42.9732067" lon="11.5894667"><ele>524.2</ele><time>2026-04-18T12:32:58.767Z</time></trkpt><trkpt lat="42.9732517" lon="11.5895817"><ele>523.4</ele><time>2026-04-18T12:32:59.77Z</time></trkpt><trkpt lat="42.9732967" lon="11.5896967"><ele>522.6</ele><time>2026-04-18T12:33:00.771Z</time></trkpt><trkpt lat="42.9733417" lon="11.589815"><ele>521.8</ele><time>2026-04-18T12:33:01.772Z</time></trkpt><trkpt lat="42.9733867" lon="11.5899367"><ele>521.0</ele><time>2026-04-18T12:33:02.769Z</time></trkpt><trkpt lat="42.97343" lon="11.5900617"><ele>521.0</ele><time>2026-04-18T12:33:03.77Z</time></trkpt><trkpt lat="42.9734733" lon="11.5901867"><ele>521.0</ele><time>2026-04-18T12:33:04.769Z</time></trkpt><trkpt lat="42.973515" lon="11.5903117"><ele>521.0</ele><time>2026-04-18T12:33:05.767Z</time></trkpt><trkpt lat="42.9735533" lon="11.5904383"><ele>521.0</ele><time>2026-04-18T12:33:06.771Z</time></trkpt><trkpt lat="42.97359" lon="11.5905683"><ele>521.0</ele><time>2026-04-18T12:33:07.771Z</time></trkpt><trkpt lat="42.9736283" lon="11.5906983"><ele>521.6</ele><time>2026-04-18T12:33:08.771Z</time></trkpt><trkpt lat="42.9736633" lon="11.59083"><ele>522.2</ele><time>2026-04-18T12:33:09.769Z</time></trkpt><trkpt lat="42.9737033" lon="11.5909633"><ele>522.8</ele><time>2026-04-18T12:33:10.767Z</time></trkpt><trkpt lat="42.9737483" lon="11.59111"><ele>523.4</ele><time>2026-04-18T12:33:11.771Z</time></trkpt><trkpt lat="42.9738033" lon="11.5912567"><ele>524.0</ele><time>2026-04-18T12:33:12.771Z</time></trkpt><trkpt lat="42.9738733" lon="11.5914017"><ele>522.5</ele><time>2026-04-18T12:33:13.769Z</time></trkpt><trkpt lat="42.97395" lon="11.59155"><ele>521.0</ele><time>2026-04-18T12:33:14.772Z</time></trkpt><trkpt lat="42.9740317" lon="11.5916967"><ele>519.5</ele><time>2026-04-18T12:33:15.769Z</time></trkpt><trkpt lat="42.97412" lon="11.5918417"><ele>518.0</ele><time>2026-04-18T12:33:16.766Z</time></trkpt><trkpt lat="42.9742117" lon="11.5919883"><ele>520.5</ele><time>2026-04-18T12:33:17.764Z</time></trkpt><trkpt lat="42.974305" lon="11.5921267"><ele>523.0</ele><time>2026-04-18T12:33:18.774Z</time></trkpt><trkpt lat="42.9743917" lon="11.5922667"><ele>525.5</ele><time>2026-04-18T12:33:19.769Z</time></trkpt><trkpt lat="42.9744633" lon="11.592405"><ele>528.0</ele><time>2026-04-18T12:33:20.771Z</time></trkpt><trkpt lat="42.9745117" lon="11.5925533"><ele>528.0</ele><time>2026-04-18T12:33:21.763Z</time></trkpt><trkpt lat="42.9745317" lon="11.59272"><ele>528.0</ele><time>2026-04-18T12:33:22.771Z</time></trkpt><trkpt lat="42.9745333" lon="11.5928967"><ele>528.0</ele><time>2026-04-18T12:33:23.77Z</time></trkpt><trkpt lat="42.9745267" lon="11.5930667"><ele>528.0</ele><time>2026-04-18T12:33:24.768Z</time></trkpt><trkpt lat="42.97452" lon="11.5932267"><ele>529.0</ele><time>2026-04-18T12:33:25.77Z</time></trkpt><trkpt lat="42.9745133" lon="11.5933783"><ele>530.0</ele><time>2026-04-18T12:33:26.774Z</time></trkpt><trkpt lat="42.9745167" lon="11.59351"><ele>531.0</ele><time>2026-04-18T12:33:27.771Z</time></trkpt><trkpt lat="42.974555" lon="11.5936233"><ele>532.0</ele><time>2026-04-18T12:33:28.768Z</time></trkpt><trkpt lat="42.9746217" lon="11.5937167"><ele>533.0</ele><time>2026-04-18T12:33:29.77Z</time></trkpt><trkpt lat="42.9747067" lon="11.593805"><ele>535.0</ele><time>2026-04-18T12:33:30.773Z</time></trkpt><trkpt lat="42.9748217" lon="11.593855"><ele>537.0</ele><time>2026-04-18T12:33:31.769Z</time></trkpt><trkpt lat="42.974965" lon="11.5938633"><ele>539.0</ele><time>2026-04-18T12:33:32.771Z</time></trkpt><trkpt lat="42.97511" lon="11.5938533"><ele>541.0</ele><time>2026-04-18T12:33:33.77Z</time></trkpt><trkpt lat="42.975245" lon="11.593865"><ele>541.0</ele><time>2026-04-18T12:33:34.769Z</time></trkpt><trkpt lat="42.9753717" lon="11.5939117"><ele>541.0</ele><time>2026-04-18T12:33:35.769Z</time></trkpt><trkpt lat="42.9754717" lon="11.59399"><ele>541.0</ele><time>2026-04-18T12:33:36.773Z</time></trkpt><trkpt lat="42.9755633" lon="11.5940967"><ele>541.0</ele><time>2026-04-18T12:33:37.769Z</time></trkpt><trkpt lat="42.975625" lon="11.5942233"><ele>541.0</ele><time>2026-04-18T12:33:38.771Z</time></trkpt><trkpt lat="42.975665" lon="11.5943883"><ele>541.0</ele><time>2026-04-18T12:33:39.769Z</time></trkpt><trkpt lat="42.97568" lon="11.5945683"><ele>541.0</ele><time>2026-04-18T12:33:40.765Z</time></trkpt><trkpt lat="42.97569" lon="11.5947467"><ele>541.0</ele><time>2026-04-18T12:33:41.772Z</time></trkpt><trkpt lat="42.9756933" lon="11.59492"><ele>543.0</ele><time>2026-04-18T12:33:42.767Z</time></trkpt><trkpt lat="42.9756967" lon="11.59509"><ele>545.0</ele><time>2026-04-18T12:33:43.771Z</time></trkpt><trkpt lat="42.975705" lon="11.595255"><ele>547.0</ele><time>2026-04-18T12:33:44.771Z</time></trkpt><trkpt lat="42.9757233" lon="11.5954267"><ele>549.0</ele><time>2026-04-18T12:33:45.77Z</time></trkpt><trkpt lat="42.9757583" lon="11.5955967"><ele>549.0</ele><time>2026-04-18T12:33:46.769Z</time></trkpt><trkpt lat="42.9758133" lon="11.59577"><ele>549.0</ele><time>2026-04-18T12:33:47.766Z</time></trkpt><trkpt lat="42.975875" lon="11.59594"><ele>549.0</ele><time>2026-04-18T12:33:48.773Z</time></trkpt><trkpt lat="42.975945" lon="11.5961083"><ele>549.0</ele><time>2026-04-18T12:33:49.769Z</time></trkpt><trkpt lat="42.9760233" lon="11.5962783"><ele>549.0</ele><time>2026-04-18T12:33:50.768Z</time></trkpt><trkpt lat="42.97611" lon="11.596445"><ele>549.0</ele><time>2026-04-18T12:33:51.77Z</time></trkpt><trkpt lat="42.9762067" lon="11.59661"><ele>549.0</ele><time>2026-04-18T12:33:52.77Z</time></trkpt><trkpt lat="42.9763067" lon="11.5967733"><ele>549.0</ele><time>2026-04-18T12:33:53.771Z</time></trkpt><trkpt lat="42.97641" lon="11.59693"><ele>549.0</ele><time>2026-04-18T12:33:54.77Z</time></trkpt><trkpt lat="42.9765167" lon="11.5970817"><ele>549.0</ele><time>2026-04-18T12:33:55.77Z</time></trkpt><trkpt lat="42.976625" lon="11.5972367"><ele>548.6666666666666</ele><time>2026-04-18T12:33:56.772Z</time></trkpt><trkpt lat="42.976735" lon="11.5973967"><ele>548.3333333333333</ele><time>2026-04-18T12:33:57.768Z</time></trkpt><trkpt lat="42.9768483" lon="11.5975583"><ele>548.0</ele><time>2026-04-18T12:33:58.757Z</time></trkpt><trkpt lat="42.9769667" lon="11.597715"><ele>551.6666666666666</ele><time>2026-04-18T12:33:59.76Z</time></trkpt><trkpt lat="42.97708" lon="11.5978683"><ele>555.3333333333334</ele><time>2026-04-18T12:34:00.771Z</time></trkpt><trkpt lat="42.97719" lon="11.5980167"><ele>559.0</ele><time>2026-04-18T12:34:01.769Z</time></trkpt><trkpt lat="42.977295" lon="11.59816"><ele>559.0</ele><time>2026-04-18T12:34:02.77Z</time></trkpt><trkpt lat="42.9773933" lon="11.5983083"><ele>559.0</ele><time>2026-04-18T12:34:03.771Z</time></trkpt><trkpt lat="42.97748" lon="11.598465"><ele>559.0</ele><time>2026-04-18T12:34:04.771Z</time></trkpt><trkpt lat="42.9775533" lon="11.5986267"><ele>559.0</ele><time>2026-04-18T12:34:05.769Z</time></trkpt><trkpt lat="42.9776117" lon="11.5987817"><ele>558.6</ele><time>2026-04-18T12:34:06.771Z</time></trkpt><trkpt lat="42.97766" lon="11.5989283"><ele>558.2</ele><time>2026-04-18T12:34:07.77Z</time></trkpt><trkpt lat="42.9776967" lon="11.5990633"><ele>557.8000000000001</ele><time>2026-04-18T12:34:08.772Z</time></trkpt><trkpt lat="42.97773" lon="11.599185"><ele>557.4</ele><time>2026-04-18T12:34:09.77Z</time></trkpt><trkpt lat="42.97776" lon="11.5993017"><ele>557.0</ele><time>2026-04-18T12:34:10.767Z</time></trkpt><trkpt lat="42.977795" lon="11.5994117"><ele>558.2</ele><time>2026-04-18T12:34:11.772Z</time></trkpt><trkpt lat="42.9778383" lon="11.5995183"><ele>559.4000000000001</ele><time>2026-04-18T12:34:12.769Z</time></trkpt><trkpt lat="42.9778933" lon="11.59961"><ele>560.5999999999999</ele><time>2026-04-18T12:34:13.771Z</time></trkpt><trkpt lat="42.9779733" lon="11.59969"><ele>561.8</ele><time>2026-04-18T12:34:14.772Z</time></trkpt><trkpt lat="42.9780783" lon="11.5997583"><ele>563.0</ele><time>2026-04-18T12:34:15.77Z</time></trkpt><trkpt lat="42.9781983" lon="11.5998283"><ele>563.0</ele><time>2026-04-18T12:34:16.77Z</time></trkpt><trkpt lat="42.9783267" lon="11.5999033"><ele>563.0</ele><time>2026-04-18T12:34:17.767Z</time></trkpt><trkpt lat="42.978465" lon="11.599985"><ele>563.0</ele><time>2026-04-18T12:34:18.767Z</time></trkpt><trkpt lat="42.978605" lon="11.6000717"><ele>563.0</ele><time>2026-04-18T12:34:19.771Z</time></trkpt><trkpt lat="42.9787483" lon="11.6001533"><ele>560.0</ele><time>2026-04-18T12:34:20.771Z</time></trkpt><trkpt lat="42.9789" lon="11.6002117"><ele>557.0</ele><time>2026-04-18T12:34:21.77Z</time></trkpt><trkpt lat="42.9790583" lon="11.600235"><ele>554.0</ele><time>2026-04-18T12:34:22.765Z</time></trkpt><trkpt lat="42.9792183" lon="11.6002383"><ele>551.0</ele><time>2026-04-18T12:34:23.771Z</time></trkpt><trkpt lat="42.97939" lon="11.6002483"><ele>548.0</ele><time>2026-04-18T12:34:24.771Z</time></trkpt><trkpt lat="42.979585" lon="11.6002783"><ele>545.0</ele><time>2026-04-18T12:34:25.772Z</time></trkpt><trkpt lat="42.9798" lon="11.6003383"><ele>540.5</ele><time>2026-04-18T12:34:26.771Z</time></trkpt><trkpt lat="42.980025" lon="11.600405"><ele>536.0</ele><time>2026-04-18T12:34:27.77Z</time></trkpt><trkpt lat="42.98026" lon="11.6004567"><ele>536.0</ele><time>2026-04-18T12:34:28.769Z</time></trkpt><trkpt lat="42.9804933" lon="11.6004783"><ele>536.0</ele><time>2026-04-18T12:34:29.77Z</time></trkpt><trkpt lat="42.98072" lon="11.6004683"><ele>535.3333333333333</ele><time>2026-04-18T12:34:30.77Z</time></trkpt><trkpt lat="42.9809417" lon="11.600435"><ele>534.6666666666666</ele><time>2026-04-18T12:34:31.77Z</time></trkpt><trkpt lat="42.9811567" lon="11.600365"><ele>534.0</ele><time>2026-04-18T12:34:32.77Z</time></trkpt><trkpt lat="42.9813583" lon="11.600285"><ele>534.6666666666666</ele><time>2026-04-18T12:34:33.771Z</time></trkpt><trkpt lat="42.9815517" lon="11.6002383"><ele>535.3333333333333</ele><time>2026-04-18T12:34:34.769Z</time></trkpt><trkpt lat="42.98173" lon="11.600245"><ele>536.0</ele><time>2026-04-18T12:34:35.769Z</time></trkpt><trkpt lat="42.9818983" lon="11.600305"><ele>536.6666666666666</ele><time>2026-04-18T12:34:36.773Z</time></trkpt><trkpt lat="42.98206" lon="11.6004317"><ele>537.3333333333334</ele><time>2026-04-18T12:34:37.768Z</time></trkpt><trkpt lat="42.9822283" lon="11.6005733"><ele>538.0</ele><time>2026-04-18T12:34:38.771Z</time></trkpt><trkpt lat="42.9824167" lon="11.6006867"><ele>537.0</ele><time>2026-04-18T12:34:39.771Z</time></trkpt><trkpt lat="42.9826233" lon="11.6007783"><ele>536.0</ele><time>2026-04-18T12:34:40.765Z</time></trkpt><trkpt lat="42.9828383" lon="11.6008617"><ele>535.0</ele><time>2026-04-18T12:34:41.772Z</time></trkpt><trkpt lat="42.9830583" lon="11.60095"><ele>535.0</ele><time>2026-04-18T12:34:42.771Z</time></trkpt><trkpt lat="42.983285" lon="11.6010417"><ele>535.0</ele><time>2026-04-18T12:34:43.771Z</time></trkpt><trkpt lat="42.9835167" lon="11.6011233"><ele>533.0</ele><time>2026-04-18T12:34:44.772Z</time></trkpt><trkpt lat="42.9837567" lon="11.60118"><ele>531.0</ele><time>2026-04-18T12:34:45.771Z</time></trkpt><trkpt lat="42.9840067" lon="11.6012117"><ele>530.0</ele><time>2026-04-18T12:34:46.77Z</time></trkpt><trkpt lat="42.9842633" lon="11.6012267"><ele>529.0</ele><time>2026-04-18T12:34:47.766Z</time></trkpt><trkpt lat="42.984525" lon="11.6012367"><ele>529.0</ele><time>2026-04-18T12:34:48.771Z</time></trkpt><trkpt lat="42.9847883" lon="11.6012517"><ele>529.0</ele><time>2026-04-18T12:34:49.77Z</time></trkpt><trkpt lat="42.9850467" lon="11.6012717"><ele>529.0</ele><time>2026-04-18T12:34:50.771Z</time></trkpt><trkpt lat="42.9853" lon="11.6012983"><ele>529.0</ele><time>2026-04-18T12:34:51.771Z</time></trkpt><trkpt lat="42.9855483" lon="11.6013283"><ele>529.0</ele><time>2026-04-18T12:34:52.769Z</time></trkpt><trkpt lat="42.985795" lon="11.6013683"><ele>529.0</ele><time>2026-04-18T12:34:53.77Z</time></trkpt><trkpt lat="42.986035" lon="11.6014217"><ele>534.5</ele><time>2026-04-18T12:34:54.774Z</time></trkpt><trkpt lat="42.986275" lon="11.601485"><ele>540.0</ele><time>2026-04-18T12:34:55.768Z</time></trkpt><trkpt lat="42.98651" lon="11.601555"><ele>544.5</ele><time>2026-04-18T12:34:56.774Z</time></trkpt><trkpt lat="42.9867367" lon="11.601635"><ele>549.0</ele><time>2026-04-18T12:34:57.769Z</time></trkpt><trkpt lat="42.9869617" lon="11.601725"><ele>549.0</ele><time>2026-04-18T12:34:58.769Z</time></trkpt><trkpt lat="42.9871817" lon="11.6018117"><ele>549.0</ele><time>2026-04-18T12:34:59.768Z</time></trkpt><trkpt lat="42.9873883" lon="11.6018967"><ele>549.0</ele><time>2026-04-18T12:35:00.77Z</time></trkpt><trkpt lat="42.987585" lon="11.60198"><ele>551.0</ele><time>2026-04-18T12:35:01.769Z</time></trkpt><trkpt lat="42.98777" lon="11.6020633"><ele>553.0</ele><time>2026-04-18T12:35:02.771Z</time></trkpt><trkpt lat="42.98795" lon="11.6021517"><ele>555.0</ele><time>2026-04-18T12:35:03.769Z</time></trkpt><trkpt lat="42.9881317" lon="11.6022483"><ele>555.0</ele><time>2026-04-18T12:35:04.77Z</time></trkpt><trkpt lat="42.9883117" lon="11.6023483"><ele>555.0</ele><time>2026-04-18T12:35:05.771Z</time></trkpt><trkpt lat="42.988495" lon="11.602455"><ele>555.0</ele><time>2026-04-18T12:35:06.773Z</time></trkpt><trkpt lat="42.9886833" lon="11.6025567"><ele>556.3333333333334</ele><time>2026-04-18T12:35:07.77Z</time></trkpt><trkpt lat="42.9888733" lon="11.6026633"><ele>557.6666666666667</ele><time>2026-04-18T12:35:08.77Z</time></trkpt><trkpt lat="42.9890633" lon="11.602775"><ele>559.0</ele><time>2026-04-18T12:35:09.771Z</time></trkpt><trkpt lat="42.9892533" lon="11.6028833"><ele>561.0</ele><time>2026-04-18T12:35:10.77Z</time></trkpt><trkpt lat="42.9894433" lon="11.6029833"><ele>563.0</ele><time>2026-04-18T12:35:11.769Z</time></trkpt><trkpt lat="42.989635" lon="11.603085"><ele>565.0</ele><time>2026-04-18T12:35:12.77Z</time></trkpt><trkpt lat="42.9898267" lon="11.6031817"><ele>565.6666666666667</ele><time>2026-04-18T12:35:13.769Z</time></trkpt><trkpt lat="42.99002" lon="11.6032817"><ele>566.3333333333334</ele><time>2026-04-18T12:35:14.773Z</time></trkpt><trkpt lat="42.9902167" lon="11.6033783"><ele>567.0</ele><time>2026-04-18T12:35:15.769Z</time></trkpt><trkpt lat="42.9904167" lon="11.6034767"><ele>567.0</ele><time>2026-04-18T12:35:16.77Z</time></trkpt><trkpt lat="42.9906133" lon="11.603575"><ele>567.0</ele><time>2026-04-18T12:35:17.764Z</time></trkpt><trkpt lat="42.9908117" lon="11.60367"><ele>567.0</ele><time>2026-04-18T12:35:18.77Z</time></trkpt><trkpt lat="42.991015" lon="11.603745"><ele>569.3333333333334</ele><time>2026-04-18T12:35:19.766Z</time></trkpt><trkpt lat="42.991225" lon="11.6038"><ele>571.6666666666667</ele><time>2026-04-18T12:35:20.77Z</time></trkpt><trkpt lat="42.9914383" lon="11.6038333"><ele>574.0</ele><time>2026-04-18T12:35:21.768Z</time></trkpt><trkpt lat="42.9916583" lon="11.603855"><ele>576.3333333333334</ele><time>2026-04-18T12:35:22.764Z</time></trkpt><trkpt lat="42.9918783" lon="11.603865"><ele>578.6666666666666</ele><time>2026-04-18T12:35:23.769Z</time></trkpt><trkpt lat="42.9921033" lon="11.6038683"><ele>581.0</ele><time>2026-04-18T12:35:24.772Z</time></trkpt><trkpt lat="42.99233" lon="11.6038733"><ele>583.5</ele><time>2026-04-18T12:35:25.769Z</time></trkpt><trkpt lat="42.9925583" lon="11.6038883"><ele>586.0</ele><time>2026-04-18T12:35:26.772Z</time></trkpt><trkpt lat="42.9927833" lon="11.603915"><ele>586.0</ele><time>2026-04-18T12:35:27.77Z</time></trkpt><trkpt lat="42.9930067" lon="11.6039517"><ele>586.0</ele><time>2026-04-18T12:35:28.769Z</time></trkpt><trkpt lat="42.9932233" lon="11.6039967"><ele>586.0</ele><time>2026-04-18T12:35:29.771Z</time></trkpt><trkpt lat="42.9934333" lon="11.60404"><ele>587.3333333333334</ele><time>2026-04-18T12:35:30.77Z</time></trkpt><trkpt lat="42.9936317" lon="11.6040767"><ele>588.6666666666666</ele><time>2026-04-18T12:35:31.767Z</time></trkpt><trkpt lat="42.993815" lon="11.604115"><ele>590.0</ele><time>2026-04-18T12:35:32.77Z</time></trkpt><trkpt lat="42.9939833" lon="11.6041533"><ele>590.0</ele><time>2026-04-18T12:35:33.77Z</time></trkpt><trkpt lat="42.9941483" lon="11.6042"><ele>590.0</ele><time>2026-04-18T12:35:34.768Z</time></trkpt><trkpt lat="42.9943117" lon="11.6042467"><ele>590.0</ele><time>2026-04-18T12:35:35.77Z</time></trkpt><trkpt lat="42.9944817" lon="11.6042883"><ele>589.0</ele><time>2026-04-18T12:35:36.772Z</time></trkpt><trkpt lat="42.9946567" lon="11.6043217"><ele>588.0</ele><time>2026-04-18T12:35:37.76Z</time></trkpt><trkpt lat="42.9948283" lon="11.6043433"><ele>587.0</ele><time>2026-04-18T12:35:38.773Z</time></trkpt><trkpt lat="42.994995" lon="11.6043733"><ele>587.6666666666666</ele><time>2026-04-18T12:35:39.769Z</time></trkpt><trkpt lat="42.9951567" lon="11.6044417"><ele>588.3333333333334</ele><time>2026-04-18T12:35:40.767Z</time></trkpt><trkpt lat="42.99531" lon="11.6045517"><ele>589.0</ele><time>2026-04-18T12:35:41.766Z</time></trkpt><trkpt lat="42.9954517" lon="11.604695"><ele>589.0</ele><time>2026-04-18T12:35:42.771Z</time></trkpt><trkpt lat="42.99558" lon="11.60485"><ele>589.0</ele><time>2026-04-18T12:35:43.77Z</time></trkpt><trkpt lat="42.995695" lon="11.60501"><ele>589.0</ele><time>2026-04-18T12:35:44.773Z</time></trkpt><trkpt lat="42.9958017" lon="11.6051733"><ele>587.3333333333334</ele><time>2026-04-18T12:35:45.77Z</time></trkpt><trkpt lat="42.9959033" lon="11.6053367"><ele>585.6666666666666</ele><time>2026-04-18T12:35:46.769Z</time></trkpt><trkpt lat="42.9960033" lon="11.6054967"><ele>584.0</ele><time>2026-04-18T12:35:47.769Z</time></trkpt><trkpt lat="42.99611" lon="11.6056433"><ele>584.0</ele><time>2026-04-18T12:35:48.769Z</time></trkpt><trkpt lat="42.99623" lon="11.60578"><ele>584.0</ele><time>2026-04-18T12:35:49.77Z</time></trkpt><trkpt lat="42.9963617" lon="11.605905"><ele>584.0</ele><time>2026-04-18T12:35:50.77Z</time></trkpt><trkpt lat="42.9964967" lon="11.6060183"><ele>584.0</ele><time>2026-04-18T12:35:51.771Z</time></trkpt><trkpt lat="42.9966317" lon="11.60613"><ele>584.0</ele><time>2026-04-18T12:35:52.77Z</time></trkpt><trkpt lat="42.996765" lon="11.6062333"><ele>584.0</ele><time>2026-04-18T12:35:53.766Z</time></trkpt><trkpt lat="42.9969067" lon="11.6063233"><ele>582.3333333333333</ele><time>2026-04-18T12:35:54.772Z</time></trkpt><trkpt lat="42.9970567" lon="11.6064033"><ele>580.6666666666666</ele><time>2026-04-18T12:35:55.762Z</time></trkpt><trkpt lat="42.9972167" lon="11.6064683"><ele>579.0</ele><time>2026-04-18T12:35:56.77Z</time></trkpt><trkpt lat="42.99738" lon="11.6065217"><ele>577.0</ele><time>2026-04-18T12:35:57.769Z</time></trkpt><trkpt lat="42.99754" lon="11.606565"><ele>575.0</ele><time>2026-04-18T12:35:58.764Z</time></trkpt><trkpt lat="42.9976983" lon="11.6066117"><ele>573.0</ele><time>2026-04-18T12:35:59.77Z</time></trkpt><trkpt lat="42.997845" lon="11.606675"><ele>573.0</ele><time>2026-04-18T12:36:00.771Z</time></trkpt><trkpt lat="42.99799" lon="11.60678"><ele>573.0</ele><time>2026-04-18T12:36:01.77Z</time></trkpt><trkpt lat="42.9981367" lon="11.60691"><ele>573.0</ele><time>2026-04-18T12:36:02.769Z</time></trkpt><trkpt lat="42.9982833" lon="11.60706"><ele>572.6666666666666</ele><time>2026-04-18T12:36:03.765Z</time></trkpt><trkpt lat="42.9984317" lon="11.6072217"><ele>572.3333333333333</ele><time>2026-04-18T12:36:04.766Z</time></trkpt><trkpt lat="42.9985783" lon="11.6073817"><ele>572.0</ele><time>2026-04-18T12:36:05.771Z</time></trkpt><trkpt lat="42.998725" lon="11.60754"><ele>572.0</ele><time>2026-04-18T12:36:06.767Z</time></trkpt><trkpt lat="42.998865" lon="11.60769"><ele>572.0</ele><time>2026-04-18T12:36:07.77Z</time></trkpt><trkpt lat="42.9990033" lon="11.607835"><ele>572.0</ele><time>2026-04-18T12:36:08.771Z</time></trkpt><trkpt lat="42.9991367" lon="11.6079767"><ele>573.6666666666666</ele><time>2026-04-18T12:36:09.767Z</time></trkpt><trkpt lat="42.9992617" lon="11.6081183"><ele>575.3333333333334</ele><time>2026-04-18T12:36:10.769Z</time></trkpt><trkpt lat="42.9993717" lon="11.6082683"><ele>577.0</ele><time>2026-04-18T12:36:11.769Z</time></trkpt><trkpt lat="42.99946" lon="11.6084283"><ele>577.0</ele><time>2026-04-18T12:36:12.77Z</time></trkpt><trkpt lat="42.9995117" lon="11.6086017"><ele>577.0</ele><time>2026-04-18T12:36:13.771Z</time></trkpt><trkpt lat="42.999535" lon="11.60879"><ele>577.0</ele><time>2026-04-18T12:36:14.772Z</time></trkpt><trkpt lat="42.9995317" lon="11.6090067"><ele>577.0</ele><time>2026-04-18T12:36:15.77Z</time></trkpt><trkpt lat="42.999525" lon="11.60923"><ele>576.0</ele><time>2026-04-18T12:36:16.769Z</time></trkpt><trkpt lat="42.999515" lon="11.6094483"><ele>575.0</ele><time>2026-04-18T12:36:17.77Z</time></trkpt><trkpt lat="42.9995083" lon="11.6096533"><ele>574.0</ele><time>2026-04-18T12:36:18.769Z</time></trkpt><trkpt lat="42.9995033" lon="11.6098533"><ele>573.75</ele><time>2026-04-18T12:36:19.767Z</time></trkpt><trkpt lat="42.999505" lon="11.6100467"><ele>573.5</ele><time>2026-04-18T12:36:20.773Z</time></trkpt><trkpt lat="42.99953" lon="11.610245"><ele>573.25</ele><time>2026-04-18T12:36:21.77Z</time></trkpt><trkpt lat="42.9995783" lon="11.610435"><ele>573.0</ele><time>2026-04-18T12:36:22.77Z</time></trkpt><trkpt lat="42.999645" lon="11.61062"><ele>571.5</ele><time>2026-04-18T12:36:23.766Z</time></trkpt><trkpt lat="42.9997217" lon="11.6107933"><ele>570.0</ele><time>2026-04-18T12:36:24.772Z</time></trkpt><trkpt lat="42.9997967" lon="11.6109617"><ele>568.5</ele><time>2026-04-18T12:36:25.77Z</time></trkpt><trkpt lat="42.9998733" lon="11.6111217"><ele>567.0</ele><time>2026-04-18T12:36:26.771Z</time></trkpt><trkpt lat="42.9999533" lon="11.611275"><ele>564.5</ele><time>2026-04-18T12:36:27.769Z</time></trkpt><trkpt lat="43.0000383" lon="11.6114233"><ele>562.0</ele><time>2026-04-18T12:36:28.764Z</time></trkpt><trkpt lat="43.00013" lon="11.6115667"><ele>559.5</ele><time>2026-04-18T12:36:29.769Z</time></trkpt><trkpt lat="43.0002233" lon="11.6117"><ele>557.0</ele><time>2026-04-18T12:36:30.772Z</time></trkpt><trkpt lat="43.0003167" lon="11.6118267"><ele>557.0</ele><time>2026-04-18T12:36:31.767Z</time></trkpt><trkpt lat="43.0004083" lon="11.6119467"><ele>557.0</ele><time>2026-04-18T12:36:32.774Z</time></trkpt><trkpt lat="43.0004933" lon="11.6120533"><ele>557.0</ele><time>2026-04-18T12:36:33.77Z</time></trkpt><trkpt lat="43.00058" lon="11.6121433"><ele>557.0</ele><time>2026-04-18T12:36:34.767Z</time></trkpt><trkpt lat="43.000675" lon="11.61223"><ele>556.8000000000001</ele><time>2026-04-18T12:36:35.769Z</time></trkpt><trkpt lat="43.0007733" lon="11.6123183"><ele>556.6</ele><time>2026-04-18T12:36:36.769Z</time></trkpt><trkpt lat="43.000865" lon="11.612415"><ele>556.4000000000001</ele><time>2026-04-18T12:36:37.765Z</time></trkpt><trkpt lat="43.0009417" lon="11.6125183"><ele>556.2</ele><time>2026-04-18T12:36:38.773Z</time></trkpt><trkpt lat="43.00101" lon="11.6126267"><ele>556.0</ele><time>2026-04-18T12:36:39.769Z</time></trkpt><trkpt lat="43.0010717" lon="11.6127317"><ele>553.6</ele><time>2026-04-18T12:36:40.771Z</time></trkpt><trkpt lat="43.0011317" lon="11.612835"><ele>551.2</ele><time>2026-04-18T12:36:41.766Z</time></trkpt><trkpt lat="43.001195" lon="11.6129333"><ele>548.8</ele><time>2026-04-18T12:36:42.77Z</time></trkpt><trkpt lat="43.0012633" lon="11.6130267"><ele>546.4</ele><time>2026-04-18T12:36:43.77Z</time></trkpt><trkpt lat="43.001335" lon="11.6131117"><ele>544.0</ele><time>2026-04-18T12:36:44.772Z</time></trkpt><trkpt lat="43.0014117" lon="11.6131867"><ele>544.0</ele><time>2026-04-18T12:36:45.77Z</time></trkpt><trkpt lat="43.0014933" lon="11.6132533"><ele>544.0</ele><time>2026-04-18T12:36:46.769Z</time></trkpt><trkpt lat="43.0015767" lon="11.61331"><ele>544.0</ele><time>2026-04-18T12:36:47.77Z</time></trkpt><trkpt lat="43.0016617" lon="11.6133667"><ele>544.0</ele><time>2026-04-18T12:36:48.769Z</time></trkpt><trkpt lat="43.00175" lon="11.61342"><ele>544.0</ele><time>2026-04-18T12:36:49.767Z</time></trkpt><trkpt lat="43.0018383" lon="11.613475"><ele>544.6</ele><time>2026-04-18T12:36:50.771Z</time></trkpt><trkpt lat="43.001925" lon="11.61354"><ele>545.2</ele><time>2026-04-18T12:36:51.769Z</time></trkpt><trkpt lat="43.0020067" lon="11.6136133"><ele>545.8000000000001</ele><time>2026-04-18T12:36:52.768Z</time></trkpt><trkpt lat="43.0020883" lon="11.613685"><ele>546.4</ele><time>2026-04-18T12:36:53.771Z</time></trkpt><trkpt lat="43.00217" lon="11.61376"><ele>547.0</ele><time>2026-04-18T12:36:54.769Z</time></trkpt><trkpt lat="43.0022483" lon="11.6138383"><ele>543.6</ele><time>2026-04-18T12:36:55.769Z</time></trkpt><trkpt lat="43.0023267" lon="11.6139133"><ele>540.2</ele><time>2026-04-18T12:36:56.773Z</time></trkpt><trkpt lat="43.002405" lon="11.6139883"><ele>536.8</ele><time>2026-04-18T12:36:57.769Z</time></trkpt><trkpt lat="43.0024833" lon="11.6140767"><ele>533.4</ele><time>2026-04-18T12:36:58.769Z</time></trkpt><trkpt lat="43.002555" lon="11.6141717"><ele>530.0</ele><time>2026-04-18T12:36:59.769Z</time></trkpt><trkpt lat="43.0026267" lon="11.614265"><ele>530.0</ele><time>2026-04-18T12:37:00.768Z</time></trkpt><trkpt lat="43.0026983" lon="11.614365"><ele>530.0</ele><time>2026-04-18T12:37:01.77Z</time></trkpt><trkpt lat="43.00276" lon="11.614475"><ele>530.0</ele><time>2026-04-18T12:37:02.771Z</time></trkpt><trkpt lat="43.0028217" lon="11.6145683"><ele>530.0</ele><time>2026-04-18T12:37:03.767Z</time></trkpt><trkpt lat="43.0028867" lon="11.6146567"><ele>530.0</ele><time>2026-04-18T12:37:04.767Z</time></trkpt><trkpt lat="43.002945" lon="11.614745"><ele>528.2</ele><time>2026-04-18T12:37:05.769Z</time></trkpt><trkpt lat="43.0030067" lon="11.614845"><ele>526.4</ele><time>2026-04-18T12:37:06.772Z</time></trkpt><trkpt lat="43.0030583" lon="11.6149483"><ele>524.6</ele><time>2026-04-18T12:37:07.769Z</time></trkpt><trkpt lat="43.0030983" lon="11.6150567"><ele>522.8</ele><time>2026-04-18T12:37:08.771Z</time></trkpt><trkpt lat="43.00314" lon="11.6151667"><ele>521.0</ele><time>2026-04-18T12:37:09.765Z</time></trkpt><trkpt lat="43.003175" lon="11.6152717"><ele>521.2</ele><time>2026-04-18T12:37:10.766Z</time></trkpt><trkpt lat="43.0032067" lon="11.6153633"><ele>521.4000000000001</ele><time>2026-04-18T12:37:11.767Z</time></trkpt><trkpt lat="43.00327" lon="11.6155"><ele>521.6</ele><time>2026-04-18T12:37:13.768Z</time></trkpt><trkpt lat="43.0033233" lon="11.615635"><ele>521.8000000000001</ele><time>2026-04-18T12:37:15.767Z</time></trkpt><trkpt lat="43.00337" lon="11.615765"><ele>522.0</ele><time>2026-04-18T12:37:17.768Z</time></trkpt><trkpt lat="43.0034183" lon="11.6159067"><ele>522.0</ele><time>2026-04-18T12:37:19.77Z</time></trkpt><trkpt lat="43.003485" lon="11.6160267"><ele>522.0</ele><time>2026-04-18T12:37:21.768Z</time></trkpt><trkpt lat="43.0035633" lon="11.61614"><ele>522.0</ele><time>2026-04-18T12:37:23.77Z</time></trkpt><trkpt lat="43.003645" lon="11.616235"><ele>522.0</ele><time>2026-04-18T12:37:25.77Z</time></trkpt><trkpt lat="43.0037283" lon="11.6163217"><ele>522.0</ele><time>2026-04-18T12:37:27.769Z</time></trkpt><trkpt lat="43.0038117" lon="11.6164167"><ele>522.1666666666666</ele><time>2026-04-18T12:37:29.77Z</time></trkpt><trkpt lat="43.0039067" lon="11.6165267"><ele>522.3333333333334</ele><time>2026-04-18T12:37:31.764Z</time></trkpt><trkpt lat="43.003955" lon="11.616585"><ele>522.5</ele><time>2026-04-18T12:37:32.773Z</time></trkpt><trkpt lat="43.0040083" lon="11.6166433"><ele>522.6666666666667</ele><time>2026-04-18T12:37:33.763Z</time></trkpt><trkpt lat="43.00407" lon="11.616695"><ele>522.8333333333334</ele><time>2026-04-18T12:37:34.771Z</time></trkpt><trkpt lat="43.0041333" lon="11.616755"><ele>523.0</ele><time>2026-04-18T12:37:35.77Z</time></trkpt><trkpt lat="43.0042" lon="11.616825"><ele>523.0</ele><time>2026-04-18T12:37:36.77Z</time></trkpt><trkpt lat="43.00427" lon="11.6168933"><ele>523.0</ele><time>2026-04-18T12:37:37.77Z</time></trkpt><trkpt lat="43.0043367" lon="11.6169483"><ele>523.0</ele><time>2026-04-18T12:37:38.773Z</time></trkpt><trkpt lat="43.004415" lon="11.616995"><ele>523.0</ele><time>2026-04-18T12:37:39.759Z</time></trkpt><trkpt lat="43.0044933" lon="11.6170233"><ele>523.0</ele><time>2026-04-18T12:37:40.767Z</time></trkpt><trkpt lat="43.00458" lon="11.6170267"><ele>523.0</ele><time>2026-04-18T12:37:41.769Z</time></trkpt><trkpt lat="43.004665" lon="11.6170133"><ele>520.1666666666667</ele><time>2026-04-18T12:37:42.771Z</time></trkpt><trkpt lat="43.00475" lon="11.6169967"><ele>517.3333333333334</ele><time>2026-04-18T12:37:43.766Z</time></trkpt><trkpt lat="43.0048317" lon="11.61699"><ele>514.5</ele><time>2026-04-18T12:37:44.77Z</time></trkpt><trkpt lat="43.0049" lon="11.6170033"><ele>511.66666666666663</ele><time>2026-04-18T12:37:45.77Z</time></trkpt><trkpt lat="43.004975" lon="11.6170283"><ele>508.8333333333333</ele><time>2026-04-18T12:37:46.769Z</time></trkpt><trkpt lat="43.0050533" lon="11.617065"><ele>506.0</ele><time>2026-04-18T12:37:47.766Z</time></trkpt><trkpt lat="43.00513" lon="11.617105"><ele>505.49999999999994</ele><time>2026-04-18T12:37:48.77Z</time></trkpt><trkpt lat="43.0052117" lon="11.6171433"><ele>505.0</ele><time>2026-04-18T12:37:49.77Z</time></trkpt><trkpt lat="43.0052917" lon="11.6171633"><ele>504.5</ele><time>2026-04-18T12:37:50.774Z</time></trkpt><trkpt lat="43.005375" lon="11.6171533"><ele>504.0</ele><time>2026-04-18T12:37:51.77Z</time></trkpt><trkpt lat="43.005455" lon="11.6171167"><ele>503.49999999999994</ele><time>2026-04-18T12:37:52.769Z</time></trkpt><trkpt lat="43.005535" lon="11.61705"><ele>503.0</ele><time>2026-04-18T12:37:53.77Z</time></trkpt><trkpt lat="43.0056083" lon="11.61697"><ele>507.2</ele><time>2026-04-18T12:37:54.769Z</time></trkpt><trkpt lat="43.00568" lon="11.6168833"><ele>511.4</ele><time>2026-04-18T12:37:55.77Z</time></trkpt><trkpt lat="43.005755" lon="11.6167967"><ele>515.5999999999999</ele><time>2026-04-18T12:37:56.772Z</time></trkpt><trkpt lat="43.0058417" lon="11.61673"><ele>519.8</ele><time>2026-04-18T12:37:57.769Z</time></trkpt><trkpt lat="43.00593" lon="11.6166867"><ele>524.0</ele><time>2026-04-18T12:37:58.766Z</time></trkpt><trkpt lat="43.006025" lon="11.6166583"><ele>524.0</ele><time>2026-04-18T12:37:59.767Z</time></trkpt><trkpt lat="43.006125" lon="11.61664"><ele>524.0</ele><time>2026-04-18T12:38:00.766Z</time></trkpt><trkpt lat="43.0062233" lon="11.6166267"><ele>524.0</ele><time>2026-04-18T12:38:01.77Z</time></trkpt><trkpt lat="43.0063217" lon="11.616625"><ele>524.0</ele><time>2026-04-18T12:38:02.773Z</time></trkpt><trkpt lat="43.0064167" lon="11.6166317"><ele>524.0</ele><time>2026-04-18T12:38:03.768Z</time></trkpt><trkpt lat="43.0065033" lon="11.6166517"><ele>524.0</ele><time>2026-04-18T12:38:04.767Z</time></trkpt><trkpt lat="43.0065867" lon="11.616675"><ele>524.0</ele><time>2026-04-18T12:38:05.77Z</time></trkpt><trkpt lat="43.0066617" lon="11.6167217"><ele>524.0</ele><time>2026-04-18T12:38:06.764Z</time></trkpt><trkpt lat="43.00673" lon="11.616765"><ele>524.0</ele><time>2026-04-18T12:38:07.767Z</time></trkpt><trkpt lat="43.0067983" lon="11.61681"><ele>524.0</ele><time>2026-04-18T12:38:08.769Z</time></trkpt><trkpt lat="43.0068617" lon="11.6168567"><ele>524.0</ele><time>2026-04-18T12:38:09.77Z</time></trkpt><trkpt lat="43.0069283" lon="11.6168967"><ele>525.3333333333333</ele><time>2026-04-18T12:38:10.765Z</time></trkpt><trkpt lat="43.0069933" lon="11.6169133"><ele>526.6666666666666</ele><time>2026-04-18T12:38:11.766Z</time></trkpt><trkpt lat="43.0071233" lon="11.6169117"><ele>528.0</ele><time>2026-04-18T12:38:13.766Z</time></trkpt><trkpt lat="43.0071883" lon="11.616915"><ele>529.3333333333334</ele><time>2026-04-18T12:38:14.771Z</time></trkpt><trkpt lat="43.0072517" lon="11.616925"><ele>530.6666666666667</ele><time>2026-04-18T12:38:15.764Z</time></trkpt><trkpt lat="43.0073217" lon="11.6169667"><ele>532.0</ele><time>2026-04-18T12:38:16.769Z</time></trkpt><trkpt lat="43.0074" lon="11.6170067"><ele>530.1666666666667</ele><time>2026-04-18T12:38:17.77Z</time></trkpt><trkpt lat="43.0074733" lon="11.617055"><ele>528.3333333333334</ele><time>2026-04-18T12:38:18.77Z</time></trkpt><trkpt lat="43.0075567" lon="11.6170967"><ele>526.5</ele><time>2026-04-18T12:38:19.769Z</time></trkpt><trkpt lat="43.0076333" lon="11.6171433"><ele>524.6666666666666</ele><time>2026-04-18T12:38:20.771Z</time></trkpt><trkpt lat="43.007705" lon="11.6171967"><ele>522.8333333333333</ele><time>2026-04-18T12:38:21.768Z</time></trkpt><trkpt lat="43.007785" lon="11.6172433"><ele>521.0</ele><time>2026-04-18T12:38:22.769Z</time></trkpt><trkpt lat="43.007855" lon="11.6172917"><ele>521.0</ele><time>2026-04-18T12:38:23.768Z</time></trkpt><trkpt lat="43.0079183" lon="11.6173417"><ele>521.0</ele><time>2026-04-18T12:38:24.774Z</time></trkpt><trkpt lat="43.007965" lon="11.6174017"><ele>521.0</ele><time>2026-04-18T12:38:25.77Z</time></trkpt><trkpt lat="43.00799" lon="11.6174817"><ele>521.0</ele><time>2026-04-18T12:38:26.773Z</time></trkpt><trkpt lat="43.0080033" lon="11.6175717"><ele>521.0</ele><time>2026-04-18T12:38:27.769Z</time></trkpt><trkpt lat="43.0080067" lon="11.6176767"><ele>521.0</ele><time>2026-04-18T12:38:28.77Z</time></trkpt><trkpt lat="43.0079833" lon="11.6177883"><ele>521.0</ele><time>2026-04-18T12:38:29.769Z</time></trkpt><trkpt lat="43.0079333" lon="11.6178983"><ele>518.3333333333333</ele><time>2026-04-18T12:38:30.771Z</time></trkpt><trkpt lat="43.0078767" lon="11.61799"><ele>515.6666666666666</ele><time>2026-04-18T12:38:31.77Z</time></trkpt><trkpt lat="43.0078083" lon="11.6180533"><ele>513.0</ele><time>2026-04-18T12:38:32.772Z</time></trkpt><trkpt lat="43.0077333" lon="11.6180817"><ele>510.33333333333337</ele><time>2026-04-18T12:38:33.767Z</time></trkpt><trkpt lat="43.00765" lon="11.6180583"><ele>507.6666666666667</ele><time>2026-04-18T12:38:34.766Z</time></trkpt><trkpt lat="43.00757" lon="11.61805"><ele>505.0</ele><time>2026-04-18T12:38:35.771Z</time></trkpt><trkpt lat="43.0074933" lon="11.61805"><ele>502.8</ele><time>2026-04-18T12:38:36.77Z</time></trkpt><trkpt lat="43.0074167" lon="11.61809"><ele>500.6</ele><time>2026-04-18T12:38:37.769Z</time></trkpt><trkpt lat="43.0073517" lon="11.6181783"><ele>498.4</ele><time>2026-04-18T12:38:38.772Z</time></trkpt><trkpt lat="43.0073033" lon="11.6183117"><ele>496.2</ele><time>2026-04-18T12:38:39.769Z</time></trkpt><trkpt lat="43.0072967" lon="11.6184817"><ele>494.0</ele><time>2026-04-18T12:38:40.767Z</time></trkpt><trkpt lat="43.007315" lon="11.618645"><ele>494.2</ele><time>2026-04-18T12:38:41.769Z</time></trkpt><trkpt lat="43.00736" lon="11.6188"><ele>494.4</ele><time>2026-04-18T12:38:42.771Z</time></trkpt><trkpt lat="43.0074217" lon="11.6189467"><ele>494.6</ele><time>2026-04-18T12:38:43.767Z</time></trkpt><trkpt lat="43.0074917" lon="11.61906"><ele>494.8</ele><time>2026-04-18T12:38:44.772Z</time></trkpt><trkpt lat="43.00756" lon="11.6191417"><ele>495.0</ele><time>2026-04-18T12:38:45.768Z</time></trkpt><trkpt lat="43.007635" lon="11.6191867"><ele>495.0</ele><time>2026-04-18T12:38:46.769Z</time></trkpt><trkpt lat="43.0077133" lon="11.6191867"><ele>495.0</ele><time>2026-04-18T12:38:47.769Z</time></trkpt><trkpt lat="43.007795" lon="11.6191233"><ele>495.0</ele><time>2026-04-18T12:38:48.769Z</time></trkpt><trkpt lat="43.007875" lon="11.6190067"><ele>495.0</ele><time>2026-04-18T12:38:49.769Z</time></trkpt><trkpt lat="43.0079567" lon="11.61882"><ele>495.0</ele><time>2026-04-18T12:38:50.772Z</time></trkpt><trkpt lat="43.00805" lon="11.6186783"><ele>495.4</ele><time>2026-04-18T12:38:51.769Z</time></trkpt><trkpt lat="43.0081433" lon="11.6185417"><ele>495.8</ele><time>2026-04-18T12:38:52.769Z</time></trkpt><trkpt lat="43.0082333" lon="11.6184483"><ele>496.20000000000005</ele><time>2026-04-18T12:38:53.77Z</time></trkpt><trkpt lat="43.0083167" lon="11.618385"><ele>496.6</ele><time>2026-04-18T12:38:54.769Z</time></trkpt><trkpt lat="43.0083967" lon="11.61836"><ele>497.0</ele><time>2026-04-18T12:38:55.766Z</time></trkpt><trkpt lat="43.00847" lon="11.618375"><ele>497.0</ele><time>2026-04-18T12:38:56.772Z</time></trkpt><trkpt lat="43.0085483" lon="11.6183783"><ele>497.0</ele><time>2026-04-18T12:38:57.769Z</time></trkpt><trkpt lat="43.0086083" lon="11.6185633"><ele>497.0</ele><time>2026-04-18T12:38:59.767Z</time></trkpt><trkpt lat="43.00855" lon="11.61874"><ele>497.0</ele><time>2026-04-18T12:39:00.767Z</time></trkpt><trkpt lat="43.0084017" lon="11.6189583"><ele>496.3333333333333</ele><time>2026-04-18T12:39:01.76Z</time></trkpt><trkpt lat="43.0083317" lon="11.6191467"><ele>495.66666666666663</ele><time>2026-04-18T12:39:02.759Z</time></trkpt><trkpt lat="43.0082617" lon="11.6193683"><ele>495.0</ele><time>2026-04-18T12:39:03.77Z</time></trkpt><trkpt lat="43.0082467" lon="11.61956"><ele>493.0</ele><time>2026-04-18T12:39:04.772Z</time></trkpt><trkpt lat="43.0082417" lon="11.619745"><ele>491.0</ele><time>2026-04-18T12:39:05.769Z</time></trkpt><trkpt lat="43.0082267" lon="11.619925"><ele>489.0</ele><time>2026-04-18T12:39:06.77Z</time></trkpt><trkpt lat="43.0081783" lon="11.6200933"><ele>487.0</ele><time>2026-04-18T12:39:07.769Z</time></trkpt><trkpt lat="43.0081117" lon="11.6202517"><ele>483.75</ele><time>2026-04-18T12:39:08.773Z</time></trkpt><trkpt lat="43.0080367" lon="11.6203983"><ele>480.5</ele><time>2026-04-18T12:39:09.77Z</time></trkpt><trkpt lat="43.0079583" lon="11.6205417"><ele>477.25</ele><time>2026-04-18T12:39:10.767Z</time></trkpt><trkpt lat="43.0078783" lon="11.62067"><ele>474.0</ele><time>2026-04-18T12:39:11.77Z</time></trkpt><trkpt lat="43.0077917" lon="11.62077"><ele>474.0</ele><time>2026-04-18T12:39:12.766Z</time></trkpt><trkpt lat="43.007695" lon="11.620835"><ele>474.0</ele><time>2026-04-18T12:39:13.767Z</time></trkpt><trkpt lat="43.0075933" lon="11.6208583"><ele>474.0</ele><time>2026-04-18T12:39:14.771Z</time></trkpt><trkpt lat="43.0074867" lon="11.6208383"><ele>474.0</ele><time>2026-04-18T12:39:15.769Z</time></trkpt><trkpt lat="43.0073767" lon="11.62078"><ele>474.0</ele><time>2026-04-18T12:39:16.768Z</time></trkpt><trkpt lat="43.007285" lon="11.62069"><ele>474.0</ele><time>2026-04-18T12:39:17.77Z</time></trkpt><trkpt lat="43.0072233" lon="11.6205383"><ele>474.0</ele><time>2026-04-18T12:39:18.764Z</time></trkpt><trkpt lat="43.0071833" lon="11.6203983"><ele>474.0</ele><time>2026-04-18T12:39:19.766Z</time></trkpt><trkpt lat="43.0071367" lon="11.62027"><ele>474.0</ele><time>2026-04-18T12:39:20.771Z</time></trkpt><trkpt lat="43.0070767" lon="11.6201717"><ele>474.0</ele><time>2026-04-18T12:39:21.769Z</time></trkpt><trkpt lat="43.00701" lon="11.620105"><ele>474.0</ele><time>2026-04-18T12:39:22.765Z</time></trkpt><trkpt lat="43.0069433" lon="11.6200767"><ele>474.0</ele><time>2026-04-18T12:39:23.77Z</time></trkpt><trkpt lat="43.0068583" lon="11.6202233"><ele>474.0</ele><time>2026-04-18T12:39:25.767Z</time></trkpt><trkpt lat="43.0068983" lon="11.6203967"><ele>474.0</ele><time>2026-04-18T12:39:26.77Z</time></trkpt><trkpt lat="43.006935" lon="11.62056"><ele>472.0</ele><time>2026-04-18T12:39:27.769Z</time></trkpt><trkpt lat="43.00699" lon="11.6207267"><ele>470.0</ele><time>2026-04-18T12:39:28.768Z</time></trkpt><trkpt lat="43.007035" lon="11.620895"><ele>468.0</ele><time>2026-04-18T12:39:29.769Z</time></trkpt><trkpt lat="43.0070833" lon="11.6210583"><ele>466.0</ele><time>2026-04-18T12:39:30.772Z</time></trkpt><trkpt lat="43.0071317" lon="11.6212083"><ele>464.4</ele><time>2026-04-18T12:39:31.768Z</time></trkpt><trkpt lat="43.0071733" lon="11.6213583"><ele>462.8</ele><time>2026-04-18T12:39:32.771Z</time></trkpt><trkpt lat="43.00721" lon="11.6214933"><ele>461.19999999999993</ele><time>2026-04-18T12:39:33.768Z</time></trkpt><trkpt lat="43.00725" lon="11.6216133"><ele>459.59999999999997</ele><time>2026-04-18T12:39:34.764Z</time></trkpt><trkpt lat="43.0073133" lon="11.6217083"><ele>458.0</ele><time>2026-04-18T12:39:35.769Z</time></trkpt><trkpt lat="43.0073867" lon="11.621795"><ele>458.0</ele><time>2026-04-18T12:39:36.771Z</time></trkpt><trkpt lat="43.00748" lon="11.6218333"><ele>458.0</ele><time>2026-04-18T12:39:37.77Z</time></trkpt><trkpt lat="43.007615" lon="11.6218133"><ele>458.0</ele><time>2026-04-18T12:39:38.77Z</time></trkpt><trkpt lat="43.0077583" lon="11.621805"><ele>458.0</ele><time>2026-04-18T12:39:39.769Z</time></trkpt><trkpt lat="43.0078983" lon="11.6218283"><ele>459.0</ele><time>2026-04-18T12:39:40.77Z</time></trkpt><trkpt lat="43.008035" lon="11.621865"><ele>460.0</ele><time>2026-04-18T12:39:41.771Z</time></trkpt><trkpt lat="43.0081633" lon="11.6219117"><ele>461.0</ele><time>2026-04-18T12:39:42.771Z</time></trkpt><trkpt lat="43.0082833" lon="11.6219567"><ele>462.0</ele><time>2026-04-18T12:39:43.768Z</time></trkpt><trkpt lat="43.0084" lon="11.6219983"><ele>458.0</ele><time>2026-04-18T12:39:44.771Z</time></trkpt><trkpt lat="43.0085183" lon="11.6220383"><ele>454.0</ele><time>2026-04-18T12:39:45.772Z</time></trkpt><trkpt lat="43.0086467" lon="11.6220617"><ele>450.0</ele><time>2026-04-18T12:39:46.765Z</time></trkpt><trkpt lat="43.008785" lon="11.6220567"><ele>446.0</ele><time>2026-04-18T12:39:47.77Z</time></trkpt><trkpt lat="43.0089317" lon="11.6220233"><ele>449.25</ele><time>2026-04-18T12:39:48.763Z</time></trkpt><trkpt lat="43.0090767" lon="11.6219717"><ele>452.5</ele><time>2026-04-18T12:39:49.765Z</time></trkpt><trkpt lat="43.00922" lon="11.6219167"><ele>455.75</ele><time>2026-04-18T12:39:50.772Z</time></trkpt><trkpt lat="43.0093567" lon="11.6218683"><ele>459.0</ele><time>2026-04-18T12:39:51.77Z</time></trkpt><trkpt lat="43.0094883" lon="11.6218317"><ele>459.0</ele><time>2026-04-18T12:39:52.769Z</time></trkpt><trkpt lat="43.009615" lon="11.6217917"><ele>459.0</ele><time>2026-04-18T12:39:53.767Z</time></trkpt><trkpt lat="43.0097317" lon="11.6217483"><ele>459.0</ele><time>2026-04-18T12:39:54.769Z</time></trkpt><trkpt lat="43.00984" lon="11.6216983"><ele>459.0</ele><time>2026-04-18T12:39:55.765Z</time></trkpt><trkpt lat="43.0099367" lon="11.6216333"><ele>456.6</ele><time>2026-04-18T12:39:56.768Z</time></trkpt><trkpt lat="43.0100183" lon="11.6215533"><ele>454.2</ele><time>2026-04-18T12:39:57.77Z</time></trkpt><trkpt lat="43.0100917" lon="11.621465"><ele>451.80000000000007</ele><time>2026-04-18T12:39:58.769Z</time></trkpt><trkpt lat="43.0101617" lon="11.6213733"><ele>449.40000000000003</ele><time>2026-04-18T12:39:59.77Z</time></trkpt><trkpt lat="43.0102433" lon="11.6212733"><ele>447.0</ele><time>2026-04-18T12:40:00.769Z</time></trkpt><trkpt lat="43.01033" lon="11.6211683"><ele>449.75</ele><time>2026-04-18T12:40:01.77Z</time></trkpt><trkpt lat="43.01043" lon="11.6210617"><ele>452.5</ele><time>2026-04-18T12:40:02.773Z</time></trkpt><trkpt lat="43.010545" lon="11.6209583"><ele>455.25</ele><time>2026-04-18T12:40:03.771Z</time></trkpt><trkpt lat="43.0106633" lon="11.62086"><ele>458.0</ele><time>2026-04-18T12:40:04.77Z</time></trkpt><trkpt lat="43.01077" lon="11.6207667"><ele>457.0</ele><time>2026-04-18T12:40:05.766Z</time></trkpt><trkpt lat="43.0108717" lon="11.6206567"><ele>456.0</ele><time>2026-04-18T12:40:06.766Z</time></trkpt><trkpt lat="43.010975" lon="11.62052"><ele>455.0</ele><time>2026-04-18T12:40:07.768Z</time></trkpt><trkpt lat="43.0110717" lon="11.6203717"><ele>454.0</ele><time>2026-04-18T12:40:08.773Z</time></trkpt><trkpt lat="43.0111667" lon="11.6202283"><ele>454.0</ele><time>2026-04-18T12:40:09.77Z</time></trkpt><trkpt lat="43.0112617" lon="11.62009"><ele>454.0</ele><time>2026-04-18T12:40:10.769Z</time></trkpt><trkpt lat="43.0113633" lon="11.6199633"><ele>454.0</ele><time>2026-04-18T12:40:11.766Z</time></trkpt><trkpt lat="43.0114817" lon="11.619865"><ele>454.0</ele><time>2026-04-18T12:40:12.766Z</time></trkpt><trkpt lat="43.0116183" lon="11.6197867"><ele>449.75</ele><time>2026-04-18T12:40:13.77Z</time></trkpt><trkpt lat="43.0117633" lon="11.6197133"><ele>445.5</ele><time>2026-04-18T12:40:14.773Z</time></trkpt><trkpt lat="43.011905" lon="11.6196417"><ele>441.25</ele><time>2026-04-18T12:40:15.77Z</time></trkpt><trkpt lat="43.0120383" lon="11.6195683"><ele>437.0</ele><time>2026-04-18T12:40:16.77Z</time></trkpt><trkpt lat="43.0121667" lon="11.6195033"><ele>437.0</ele><time>2026-04-18T12:40:17.771Z</time></trkpt><trkpt lat="43.0123017" lon="11.6194617"><ele>437.0</ele><time>2026-04-18T12:40:18.769Z</time></trkpt><trkpt lat="43.0124483" lon="11.6194533"><ele>437.0</ele><time>2026-04-18T12:40:19.769Z</time></trkpt><trkpt lat="43.0125883" lon="11.6194883"><ele>437.0</ele><time>2026-04-18T12:40:20.771Z</time></trkpt><trkpt lat="43.0127083" lon="11.619575"><ele>435.0</ele><time>2026-04-18T12:40:21.771Z</time></trkpt><trkpt lat="43.0128217" lon="11.6196717"><ele>433.0</ele><time>2026-04-18T12:40:22.77Z</time></trkpt><trkpt lat="43.01293" lon="11.6197567"><ele>431.0</ele><time>2026-04-18T12:40:23.768Z</time></trkpt><trkpt lat="43.0130283" lon="11.6197967"><ele>429.0</ele><time>2026-04-18T12:40:24.767Z</time></trkpt><trkpt lat="43.013125" lon="11.6197883"><ele>429.0</ele><time>2026-04-18T12:40:25.772Z</time></trkpt><trkpt lat="43.0131867" lon="11.6197017"><ele>429.0</ele><time>2026-04-18T12:40:26.77Z</time></trkpt><trkpt lat="43.0132267" lon="11.6195767"><ele>429.0</ele><time>2026-04-18T12:40:27.769Z</time></trkpt><trkpt lat="43.0132217" lon="11.619425"><ele>429.0</ele><time>2026-04-18T12:40:28.769Z</time></trkpt><trkpt lat="43.0131583" lon="11.6192967"><ele>429.0</ele><time>2026-04-18T12:40:29.77Z</time></trkpt><trkpt lat="43.0130383" lon="11.61918"><ele>430.66666666666663</ele><time>2026-04-18T12:40:30.77Z</time></trkpt><trkpt lat="43.0128683" lon="11.6190767"><ele>432.3333333333333</ele><time>2026-04-18T12:40:31.77Z</time></trkpt><trkpt lat="43.01265" lon="11.6190017"><ele>434.0</ele><time>2026-04-18T12:40:32.772Z</time></trkpt><trkpt lat="43.012455" lon="11.61896"><ele>435.0</ele><time>2026-04-18T12:40:33.771Z</time></trkpt><trkpt lat="43.012275" lon="11.6189483"><ele>436.0</ele><time>2026-04-18T12:40:34.766Z</time></trkpt><trkpt lat="43.012115" lon="11.6189383"><ele>437.0</ele><time>2026-04-18T12:40:35.77Z</time></trkpt><trkpt lat="43.0119767" lon="11.6189117"><ele>437.0</ele><time>2026-04-18T12:40:36.765Z</time></trkpt><trkpt lat="43.011865" lon="11.61885"><ele>437.0</ele><time>2026-04-18T12:40:37.769Z</time></trkpt><trkpt lat="43.01177" lon="11.6187383"><ele>437.0</ele><time>2026-04-18T12:40:38.771Z</time></trkpt><trkpt lat="43.0116883" lon="11.618595"><ele>437.0</ele><time>2026-04-18T12:40:39.769Z</time></trkpt><trkpt lat="43.01161" lon="11.6184433"><ele>438.25</ele><time>2026-04-18T12:40:40.766Z</time></trkpt><trkpt lat="43.0115433" lon="11.6182833"><ele>439.5</ele><time>2026-04-18T12:40:41.765Z</time></trkpt><trkpt lat="43.011495" lon="11.6181267"><ele>440.75</ele><time>2026-04-18T12:40:42.772Z</time></trkpt><trkpt lat="43.01148" lon="11.61796"><ele>442.0</ele><time>2026-04-18T12:40:43.766Z</time></trkpt><trkpt lat="43.0114833" lon="11.617795"><ele>442.20000000000005</ele><time>2026-04-18T12:40:44.772Z</time></trkpt><trkpt lat="43.0115067" lon="11.6176433"><ele>442.40000000000003</ele><time>2026-04-18T12:40:45.766Z</time></trkpt><trkpt lat="43.0115617" lon="11.61752"><ele>442.59999999999997</ele><time>2026-04-18T12:40:46.772Z</time></trkpt><trkpt lat="43.0116333" lon="11.617425"><ele>442.79999999999995</ele><time>2026-04-18T12:40:47.769Z</time></trkpt><trkpt lat="43.0117217" lon="11.617375"><ele>443.0</ele><time>2026-04-18T12:40:48.771Z</time></trkpt><trkpt lat="43.01184" lon="11.6173667"><ele>439.25</ele><time>2026-04-18T12:40:49.764Z</time></trkpt><trkpt lat="43.011975" lon="11.61743"><ele>435.5</ele><time>2026-04-18T12:40:50.769Z</time></trkpt><trkpt lat="43.01211" lon="11.6174933"><ele>431.75</ele><time>2026-04-18T12:40:51.766Z</time></trkpt><trkpt lat="43.01225" lon="11.61756"><ele>428.0</ele><time>2026-04-18T12:40:52.769Z</time></trkpt><trkpt lat="43.0123917" lon="11.6176117"><ele>426.0</ele><time>2026-04-18T12:40:53.769Z</time></trkpt><trkpt lat="43.0125333" lon="11.6176533"><ele>424.0</ele><time>2026-04-18T12:40:54.766Z</time></trkpt><trkpt lat="43.01268" lon="11.6176883"><ele>422.0</ele><time>2026-04-18T12:40:55.77Z</time></trkpt><trkpt lat="43.0128267" lon="11.6177167"><ele>420.0</ele><time>2026-04-18T12:40:56.772Z</time></trkpt><trkpt lat="43.0129717" lon="11.6177517"><ele>420.0</ele><time>2026-04-18T12:40:57.769Z</time></trkpt><trkpt lat="43.01311" lon="11.6178017"><ele>420.0</ele><time>2026-04-18T12:40:58.769Z</time></trkpt><trkpt lat="43.0132367" lon="11.617885"><ele>420.0</ele><time>2026-04-18T12:40:59.765Z</time></trkpt><trkpt lat="43.01335" lon="11.618015"><ele>420.0</ele><time>2026-04-18T12:41:00.773Z</time></trkpt><trkpt lat="43.01344" lon="11.6181767"><ele>418.5</ele><time>2026-04-18T12:41:01.767Z</time></trkpt><trkpt lat="43.0135083" lon="11.6183517"><ele>417.0</ele><time>2026-04-18T12:41:02.77Z</time></trkpt><trkpt lat="43.0135733" lon="11.6185283"><ele>415.5</ele><time>2026-04-18T12:41:03.77Z</time></trkpt><trkpt lat="43.0136383" lon="11.618685"><ele>414.0</ele><time>2026-04-18T12:41:04.765Z</time></trkpt><trkpt lat="43.013715" lon="11.61882"><ele>417.25</ele><time>2026-04-18T12:41:05.769Z</time></trkpt><trkpt lat="43.0137933" lon="11.618935"><ele>420.5</ele><time>2026-04-18T12:41:06.771Z</time></trkpt><trkpt lat="43.0138917" lon="11.6190233"><ele>423.75</ele><time>2026-04-18T12:41:07.769Z</time></trkpt><trkpt lat="43.014" lon="11.6190867"><ele>427.0</ele><time>2026-04-18T12:41:08.768Z</time></trkpt><trkpt lat="43.0141333" lon="11.619115"><ele>422.5</ele><time>2026-04-18T12:41:09.769Z</time></trkpt><trkpt lat="43.014275" lon="11.619125"><ele>418.0</ele><time>2026-04-18T12:41:10.769Z</time></trkpt><trkpt lat="43.0144217" lon="11.6191183"><ele>413.5</ele><time>2026-04-18T12:41:11.769Z</time></trkpt><trkpt lat="43.0145683" lon="11.61909"><ele>409.0</ele><time>2026-04-18T12:41:12.773Z</time></trkpt><trkpt lat="43.0147" lon="11.6190483"><ele>409.0</ele><time>2026-04-18T12:41:13.77Z</time></trkpt><trkpt lat="43.0148167" lon="11.619015"><ele>409.0</ele><time>2026-04-18T12:41:14.774Z</time></trkpt><trkpt lat="43.01493" lon="11.6189967"><ele>409.0</ele><time>2026-04-18T12:41:15.769Z</time></trkpt><trkpt lat="43.0150467" lon="11.61901"><ele>409.0</ele><time>2026-04-18T12:41:16.77Z</time></trkpt><trkpt lat="43.0151633" lon="11.6190617"><ele>405.5</ele><time>2026-04-18T12:41:17.77Z</time></trkpt><trkpt lat="43.0152867" lon="11.6191483"><ele>402.0</ele><time>2026-04-18T12:41:18.766Z</time></trkpt><trkpt lat="43.0153983" lon="11.6192517"><ele>398.5</ele><time>2026-04-18T12:41:19.769Z</time></trkpt><trkpt lat="43.0154917" lon="11.6193517"><ele>395.0</ele><time>2026-04-18T12:41:20.77Z</time></trkpt><trkpt lat="43.0155717" lon="11.6194333"><ele>394.49999999999994</ele><time>2026-04-18T12:41:21.769Z</time></trkpt><trkpt lat="43.0156217" lon="11.6194867"><ele>394.0</ele><time>2026-04-18T12:41:22.77Z</time></trkpt><trkpt lat="43.0156359" lon="11.6196453"><ele>393.5</ele><time>2026-04-18T12:42:24.895Z</time></trkpt><trkpt lat="43.0156396" lon="11.6195592"><ele>393.0</ele><time>2026-04-18T12:43:33.885Z</time></trkpt><trkpt lat="43.0157111" lon="11.6195524"><ele>392.49999999999994</ele><time>2026-04-18T12:48:21.809Z</time></trkpt><trkpt lat="43.0157804" lon="11.6195632"><ele>392.0</ele><time>2026-04-18T12:48:22.832Z</time></trkpt><trkpt lat="43.0158831" lon="11.6196772"><ele>392.0</ele><time>2026-04-18T12:48:23.768Z</time></trkpt><trkpt lat="43.0159837" lon="11.6197708"><ele>392.0</ele><time>2026-04-18T12:48:24.768Z</time></trkpt><trkpt lat="43.0160922" lon="11.6198609"><ele>392.0</ele><time>2026-04-18T12:48:25.769Z</time></trkpt><trkpt lat="43.016208" lon="11.6199482"><ele>392.0</ele><time>2026-04-18T12:48:26.771Z</time></trkpt><trkpt lat="43.0163296" lon="11.6200377"><ele>392.0</ele><time>2026-04-18T12:48:27.77Z</time></trkpt><trkpt lat="43.0164536" lon="11.6201288"><ele>392.0</ele><time>2026-04-18T12:48:28.77Z</time></trkpt><trkpt lat="43.0165797" lon="11.620219"><ele>392.0</ele><time>2026-04-18T12:48:29.769Z</time></trkpt><trkpt lat="43.0167126" lon="11.6203045"><ele>392.0</ele><time>2026-04-18T12:48:30.77Z</time></trkpt><trkpt lat="43.0168509" lon="11.6203819"><ele>391.66666666666663</ele><time>2026-04-18T12:48:31.768Z</time></trkpt><trkpt lat="43.0169946" lon="11.6204546"><ele>391.33333333333337</ele><time>2026-04-18T12:48:32.772Z</time></trkpt><trkpt lat="43.0171426" lon="11.6205213"><ele>391.0</ele><time>2026-04-18T12:48:33.768Z</time></trkpt><trkpt lat="43.0172928" lon="11.620583"><ele>391.0</ele><time>2026-04-18T12:48:34.77Z</time></trkpt><trkpt lat="43.0174436" lon="11.6206443"><ele>391.0</ele><time>2026-04-18T12:48:35.771Z</time></trkpt><trkpt lat="43.0175941" lon="11.6207068"><ele>391.0</ele><time>2026-04-18T12:48:36.769Z</time></trkpt><trkpt lat="43.0177508" lon="11.6207679"><ele>384.33333333333337</ele><time>2026-04-18T12:48:37.77Z</time></trkpt><trkpt lat="43.0179028" lon="11.6208309"><ele>377.6666666666667</ele><time>2026-04-18T12:48:38.772Z</time></trkpt><trkpt lat="43.0180556" lon="11.6208983"><ele>371.0</ele><time>2026-04-18T12:48:39.768Z</time></trkpt><trkpt lat="43.0182089" lon="11.6209785"><ele>367.6666666666667</ele><time>2026-04-18T12:48:40.769Z</time></trkpt><trkpt lat="43.018363" lon="11.6210649"><ele>364.3333333333333</ele><time>2026-04-18T12:48:41.768Z</time></trkpt><trkpt lat="43.0185192" lon="11.621158"><ele>361.0</ele><time>2026-04-18T12:48:42.771Z</time></trkpt><trkpt lat="43.0186731" lon="11.6212494"><ele>359.0</ele><time>2026-04-18T12:48:43.771Z</time></trkpt><trkpt lat="43.0188213" lon="11.6213409"><ele>357.0</ele><time>2026-04-18T12:48:44.773Z</time></trkpt><trkpt lat="43.0189675" lon="11.6214211"><ele>355.0</ele><time>2026-04-18T12:48:45.764Z</time></trkpt><trkpt lat="43.019117" lon="11.6214911"><ele>354.75</ele><time>2026-04-18T12:48:46.768Z</time></trkpt><trkpt lat="43.0192568" lon="11.6215584"><ele>354.5</ele><time>2026-04-18T12:48:47.771Z</time></trkpt><trkpt lat="43.0193831" lon="11.621631"><ele>354.25</ele><time>2026-04-18T12:48:48.769Z</time></trkpt><trkpt lat="43.0194927" lon="11.6217273"><ele>354.0</ele><time>2026-04-18T12:48:49.769Z</time></trkpt><trkpt lat="43.0195895" lon="11.6218483"><ele>352.75</ele><time>2026-04-18T12:48:50.77Z</time></trkpt><trkpt lat="43.0196718" lon="11.6219957"><ele>351.5</ele><time>2026-04-18T12:48:51.767Z</time></trkpt><trkpt lat="43.0197434" lon="11.6221709"><ele>350.25</ele><time>2026-04-18T12:48:52.766Z</time></trkpt><trkpt lat="43.0198135" lon="11.6223614"><ele>349.0</ele><time>2026-04-18T12:48:53.77Z</time></trkpt><trkpt lat="43.0198779" lon="11.6225544"><ele>349.0</ele><time>2026-04-18T12:48:54.769Z</time></trkpt><trkpt lat="43.0199293" lon="11.6227435"><ele>349.0</ele><time>2026-04-18T12:48:55.764Z</time></trkpt><trkpt lat="43.0199713" lon="11.6229218"><ele>349.0</ele><time>2026-04-18T12:48:56.77Z</time></trkpt><trkpt lat="43.0200081" lon="11.6230827"><ele>349.0</ele><time>2026-04-18T12:48:57.77Z</time></trkpt><trkpt lat="43.0200558" lon="11.6232197"><ele>349.0</ele><time>2026-04-18T12:48:58.767Z</time></trkpt><trkpt lat="43.0201207" lon="11.6233157"><ele>349.0</ele><time>2026-04-18T12:48:59.763Z</time></trkpt><trkpt lat="43.0202063" lon="11.6233684"><ele>349.0</ele><time>2026-04-18T12:49:00.769Z</time></trkpt><trkpt lat="43.0203055" lon="11.6233886"><ele>349.0</ele><time>2026-04-18T12:49:01.769Z</time></trkpt><trkpt lat="43.0204379" lon="11.6233708"><ele>349.0</ele><time>2026-04-18T12:49:02.771Z</time></trkpt><trkpt lat="43.0205871" lon="11.623368"><ele>349.0</ele><time>2026-04-18T12:49:03.765Z</time></trkpt><trkpt lat="43.020745" lon="11.6233863"><ele>349.0</ele><time>2026-04-18T12:49:04.769Z</time></trkpt><trkpt lat="43.0208985" lon="11.623423"><ele>349.0</ele><time>2026-04-18T12:49:05.759Z</time></trkpt><trkpt lat="43.0210453" lon="11.6234668"><ele>348.75</ele><time>2026-04-18T12:49:06.763Z</time></trkpt><trkpt lat="43.0211858" lon="11.6235092"><ele>348.5</ele><time>2026-04-18T12:49:07.765Z</time></trkpt><trkpt lat="43.0213146" lon="11.6235475"><ele>348.25</ele><time>2026-04-18T12:49:08.77Z</time></trkpt><trkpt lat="43.0214302" lon="11.6235848"><ele>348.0</ele><time>2026-04-18T12:49:09.763Z</time></trkpt><trkpt lat="43.0215241" lon="11.623626"><ele>346.1666666666667</ele><time>2026-04-18T12:49:10.768Z</time></trkpt><trkpt lat="43.0215967" lon="11.6236811"><ele>344.3333333333333</ele><time>2026-04-18T12:49:11.769Z</time></trkpt><trkpt lat="43.0216423" lon="11.6237573"><ele>342.5</ele><time>2026-04-18T12:49:12.769Z</time></trkpt><trkpt lat="43.0216618" lon="11.623852"><ele>340.66666666666663</ele><time>2026-04-18T12:49:13.769Z</time></trkpt><trkpt lat="43.0216233" lon="11.6239433"><ele>338.8333333333333</ele><time>2026-04-18T12:49:14.77Z</time></trkpt><trkpt lat="43.021535" lon="11.6240583"><ele>337.0</ele><time>2026-04-18T12:49:16.764Z</time></trkpt><trkpt lat="43.0214183" lon="11.62407"><ele>337.0</ele><time>2026-04-18T12:49:17.765Z</time></trkpt><trkpt lat="43.0212883" lon="11.624035"><ele>337.0</ele><time>2026-04-18T12:49:18.769Z</time></trkpt><trkpt lat="43.0211183" lon="11.6239917"><ele>337.0</ele><time>2026-04-18T12:49:19.764Z</time></trkpt><trkpt lat="43.0209433" lon="11.6239483"><ele>337.75</ele><time>2026-04-18T12:49:20.769Z</time></trkpt><trkpt lat="43.0208033" lon="11.6239233"><ele>338.5</ele><time>2026-04-18T12:49:21.764Z</time></trkpt><trkpt lat="43.0206833" lon="11.6239217"><ele>339.25</ele><time>2026-04-18T12:49:22.767Z</time></trkpt><trkpt lat="43.0205433" lon="11.6239383"><ele>340.0</ele><time>2026-04-18T12:49:23.763Z</time></trkpt><trkpt lat="43.0204633" lon="11.6239967"><ele>340.0</ele><time>2026-04-18T12:49:24.773Z</time></trkpt><trkpt lat="43.0204283" lon="11.6240917"><ele>340.0</ele><time>2026-04-18T12:49:25.766Z</time></trkpt><trkpt lat="43.0204317" lon="11.6241867"><ele>340.0</ele><time>2026-04-18T12:49:26.77Z</time></trkpt><trkpt lat="43.0205567" lon="11.6243167"><ele>340.0</ele><time>2026-04-18T12:49:28.764Z</time></trkpt><trkpt lat="43.02073" lon="11.6243683"><ele>339.0</ele><time>2026-04-18T12:49:29.765Z</time></trkpt><trkpt lat="43.0210017" lon="11.624415"><ele>338.0</ele><time>2026-04-18T12:49:30.769Z</time></trkpt><trkpt lat="43.0211583" lon="11.6244533"><ele>337.0</ele><time>2026-04-18T12:49:31.764Z</time></trkpt><trkpt lat="43.0212933" lon="11.62449"><ele>333.5</ele><time>2026-04-18T12:49:32.769Z</time></trkpt><trkpt lat="43.021425" lon="11.6245417"><ele>330.0</ele><time>2026-04-18T12:49:33.765Z</time></trkpt><trkpt lat="43.021555" lon="11.6246067"><ele>326.5</ele><time>2026-04-18T12:49:34.768Z</time></trkpt><trkpt lat="43.0216867" lon="11.6246967"><ele>323.0</ele><time>2026-04-18T12:49:35.769Z</time></trkpt><trkpt lat="43.0218133" lon="11.6248117"><ele>323.0</ele><time>2026-04-18T12:49:36.77Z</time></trkpt><trkpt lat="43.021945" lon="11.6249283"><ele>323.0</ele><time>2026-04-18T12:49:37.765Z</time></trkpt><trkpt lat="43.0220867" lon="11.62505"><ele>323.0</ele><time>2026-04-18T12:49:38.766Z</time></trkpt><trkpt lat="43.0222267" lon="11.6251817"><ele>320.0</ele><time>2026-04-18T12:49:39.77Z</time></trkpt><trkpt lat="43.0223717" lon="11.6253183"><ele>317.0</ele><time>2026-04-18T12:49:40.769Z</time></trkpt><trkpt lat="43.0225117" lon="11.6254533"><ele>314.0</ele><time>2026-04-18T12:49:41.769Z</time></trkpt><trkpt lat="43.0226433" lon="11.62558"><ele>313.5</ele><time>2026-04-18T12:49:42.77Z</time></trkpt><trkpt lat="43.02277" lon="11.6257033"><ele>313.0</ele><time>2026-04-18T12:49:43.77Z</time></trkpt><trkpt lat="43.02289" lon="11.6258233"><ele>312.5</ele><time>2026-04-18T12:49:44.77Z</time></trkpt><trkpt lat="43.023" lon="11.6259417"><ele>312.0</ele><time>2026-04-18T12:49:45.766Z</time></trkpt><trkpt lat="43.0231033" lon="11.6260583"><ele>310.25</ele><time>2026-04-18T12:49:46.769Z</time></trkpt><trkpt lat="43.0232133" lon="11.6261617"><ele>308.5</ele><time>2026-04-18T12:49:47.765Z</time></trkpt><trkpt lat="43.023335" lon="11.6262433"><ele>306.75</ele><time>2026-04-18T12:49:48.772Z</time></trkpt><trkpt lat="43.0234717" lon="11.62631"><ele>305.0</ele><time>2026-04-18T12:49:49.769Z</time></trkpt><trkpt lat="43.0236217" lon="11.6263517"><ele>305.0</ele><time>2026-04-18T12:49:50.771Z</time></trkpt><trkpt lat="43.0237767" lon="11.6263717"><ele>305.0</ele><time>2026-04-18T12:49:51.77Z</time></trkpt><trkpt lat="43.0239367" lon="11.6263717"><ele>305.0</ele><time>2026-04-18T12:49:52.768Z</time></trkpt><trkpt lat="43.024095" lon="11.6263617"><ele>304.25</ele><time>2026-04-18T12:49:53.771Z</time></trkpt><trkpt lat="43.0242433" lon="11.6263417"><ele>303.5</ele><time>2026-04-18T12:49:54.766Z</time></trkpt><trkpt lat="43.0243767" lon="11.626295"><ele>302.75</ele><time>2026-04-18T12:49:55.769Z</time></trkpt><trkpt lat="43.0244917" lon="11.6262133"><ele>302.0</ele><time>2026-04-18T12:49:56.77Z</time></trkpt><trkpt lat="43.0245917" lon="11.6261017"><ele>301.2</ele><time>2026-04-18T12:49:57.77Z</time></trkpt><trkpt lat="43.0246817" lon="11.6259883"><ele>300.4</ele><time>2026-04-18T12:49:58.77Z</time></trkpt><trkpt lat="43.0247767" lon="11.625915"><ele>299.6</ele><time>2026-04-18T12:49:59.769Z</time></trkpt><trkpt lat="43.02487" lon="11.6258917"><ele>298.8</ele><time>2026-04-18T12:50:00.765Z</time></trkpt><trkpt lat="43.0249733" lon="11.62593"><ele>298.0</ele><time>2026-04-18T12:50:01.769Z</time></trkpt><trkpt lat="43.025085" lon="11.6260167"><ele>297.0</ele><time>2026-04-18T12:50:02.771Z</time></trkpt><trkpt lat="43.025195" lon="11.6261683"><ele>296.0</ele><time>2026-04-18T12:50:03.771Z</time></trkpt><trkpt lat="43.0253183" lon="11.6262983"><ele>295.0</ele><time>2026-04-18T12:50:04.77Z</time></trkpt><trkpt lat="43.0254567" lon="11.6263917"><ele>295.0</ele><time>2026-04-18T12:50:05.765Z</time></trkpt><trkpt lat="43.025595" lon="11.62645"><ele>295.0</ele><time>2026-04-18T12:50:06.768Z</time></trkpt><trkpt lat="43.0257317" lon="11.6265017"><ele>295.0</ele><time>2026-04-18T12:50:07.771Z</time></trkpt><trkpt lat="43.025865" lon="11.6265467"><ele>295.0</ele><time>2026-04-18T12:50:08.772Z</time></trkpt><trkpt lat="43.0259983" lon="11.6265817"><ele>294.16666666666663</ele><time>2026-04-18T12:50:09.769Z</time></trkpt><trkpt lat="43.02612" lon="11.6266133"><ele>293.3333333333333</ele><time>2026-04-18T12:50:10.769Z</time></trkpt><trkpt lat="43.0262167" lon="11.62665"><ele>292.5</ele><time>2026-04-18T12:50:11.769Z</time></trkpt><trkpt lat="43.0262817" lon="11.6266933"><ele>291.6666666666667</ele><time>2026-04-18T12:50:12.764Z</time></trkpt><trkpt lat="43.02634" lon="11.6267467"><ele>290.83333333333337</ele><time>2026-04-18T12:50:13.771Z</time></trkpt><trkpt lat="43.02638" lon="11.626815"><ele>290.0</ele><time>2026-04-18T12:50:14.772Z</time></trkpt><trkpt lat="43.0263633" lon="11.62692"><ele>288.4</ele><time>2026-04-18T12:50:15.769Z</time></trkpt><trkpt lat="43.0263233" lon="11.6270317"><ele>286.8</ele><time>2026-04-18T12:50:16.77Z</time></trkpt><trkpt lat="43.0262617" lon="11.627145"><ele>285.2</ele><time>2026-04-18T12:50:17.769Z</time></trkpt><trkpt lat="43.02618" lon="11.627265"><ele>283.6</ele><time>2026-04-18T12:50:18.766Z</time></trkpt><trkpt lat="43.02612" lon="11.6273767"><ele>282.0</ele><time>2026-04-18T12:50:19.769Z</time></trkpt><trkpt lat="43.0260617" lon="11.6274817"><ele>282.0</ele><time>2026-04-18T12:50:20.771Z</time></trkpt><trkpt lat="43.0260083" lon="11.6275717"><ele>282.0</ele><time>2026-04-18T12:50:21.77Z</time></trkpt><trkpt lat="43.025965" lon="11.62765"><ele>282.0</ele><time>2026-04-18T12:50:22.77Z</time></trkpt><trkpt lat="43.0259267" lon="11.62772"><ele>282.0</ele><time>2026-04-18T12:50:23.77Z</time></trkpt><trkpt lat="43.02588" lon="11.6278433"><ele>282.0</ele><time>2026-04-18T12:50:25.768Z</time></trkpt><trkpt lat="43.0258967" lon="11.6279267"><ele>282.0</ele><time>2026-04-18T12:50:27.768Z</time></trkpt><trkpt lat="43.0260017" lon="11.6279367"><ele>280.2</ele><time>2026-04-18T12:50:29.769Z</time></trkpt><trkpt lat="43.0260883" lon="11.62791"><ele>278.4</ele><time>2026-04-18T12:50:30.771Z</time></trkpt><trkpt lat="43.026185" lon="11.6278883"><ele>276.6</ele><time>2026-04-18T12:50:31.769Z</time></trkpt><trkpt lat="43.0262967" lon="11.62787"><ele>274.8</ele><time>2026-04-18T12:50:32.772Z</time></trkpt><trkpt lat="43.0264117" lon="11.6278533"><ele>273.0</ele><time>2026-04-18T12:50:33.769Z</time></trkpt><trkpt lat="43.0265383" lon="11.627835"><ele>272.25</ele><time>2026-04-18T12:50:34.77Z</time></trkpt><trkpt lat="43.0266667" lon="11.627815"><ele>271.5</ele><time>2026-04-18T12:50:35.77Z</time></trkpt><trkpt lat="43.0267867" lon="11.6277933"><ele>270.75</ele><time>2026-04-18T12:50:36.77Z</time></trkpt><trkpt lat="43.0269017" lon="11.6277767"><ele>270.0</ele><time>2026-04-18T12:50:37.771Z</time></trkpt><trkpt lat="43.0270117" lon="11.627765"><ele>271.8</ele><time>2026-04-18T12:50:38.772Z</time></trkpt><trkpt lat="43.0271167" lon="11.6277417"><ele>273.6</ele><time>2026-04-18T12:50:39.771Z</time></trkpt><trkpt lat="43.0272167" lon="11.6277"><ele>275.4</ele><time>2026-04-18T12:50:40.77Z</time></trkpt><trkpt lat="43.0273067" lon="11.62763"><ele>277.2</ele><time>2026-04-18T12:50:41.771Z</time></trkpt><trkpt lat="43.02739" lon="11.62754"><ele>279.0</ele><time>2026-04-18T12:50:42.77Z</time></trkpt><trkpt lat="43.0274667" lon="11.627425"><ele>277.25</ele><time>2026-04-18T12:50:43.77Z</time></trkpt><trkpt lat="43.027535" lon="11.6272817"><ele>275.5</ele><time>2026-04-18T12:50:44.772Z</time></trkpt><trkpt lat="43.0275933" lon="11.6271217"><ele>273.75</ele><time>2026-04-18T12:50:45.77Z</time></trkpt><trkpt lat="43.0276417" lon="11.6269567"><ele>272.0</ele><time>2026-04-18T12:50:46.767Z</time></trkpt><trkpt lat="43.0276717" lon="11.62678"><ele>272.0</ele><time>2026-04-18T12:50:47.771Z</time></trkpt><trkpt lat="43.0276783" lon="11.6266033"><ele>272.0</ele><time>2026-04-18T12:50:48.769Z</time></trkpt><trkpt lat="43.0276617" lon="11.62644"><ele>272.0</ele><time>2026-04-18T12:50:49.77Z</time></trkpt><trkpt lat="43.0276367" lon="11.62629"><ele>272.0</ele><time>2026-04-18T12:50:50.773Z</time></trkpt><trkpt lat="43.02763" lon="11.6261483"><ele>269.75</ele><time>2026-04-18T12:50:51.769Z</time></trkpt><trkpt lat="43.02766" lon="11.6260117"><ele>267.5</ele><time>2026-04-18T12:50:52.769Z</time></trkpt><trkpt lat="43.0277133" lon="11.62589"><ele>265.25</ele><time>2026-04-18T12:50:53.77Z</time></trkpt><trkpt lat="43.0278183" lon="11.625785"><ele>263.0</ele><time>2026-04-18T12:50:54.77Z</time></trkpt><trkpt lat="43.0279217" lon="11.6256833"><ele>263.0</ele><time>2026-04-18T12:50:55.77Z</time></trkpt><trkpt lat="43.0280167" lon="11.625575"><ele>263.0</ele><time>2026-04-18T12:50:56.765Z</time></trkpt><trkpt lat="43.0281033" lon="11.625475"><ele>263.0</ele><time>2026-04-18T12:50:57.769Z</time></trkpt><trkpt lat="43.028185" lon="11.6253817"><ele>263.0</ele><time>2026-04-18T12:50:58.769Z</time></trkpt><trkpt lat="43.0282733" lon="11.6253233"><ele>263.0</ele><time>2026-04-18T12:50:59.766Z</time></trkpt><trkpt lat="43.0283767" lon="11.6253083"><ele>262.25</ele><time>2026-04-18T12:51:00.77Z</time></trkpt><trkpt lat="43.0284983" lon="11.6253467"><ele>261.5</ele><time>2026-04-18T12:51:01.769Z</time></trkpt><trkpt lat="43.02861" lon="11.625425"><ele>260.75</ele><time>2026-04-18T12:51:02.774Z</time></trkpt><trkpt lat="43.0287033" lon="11.625565"><ele>260.0</ele><time>2026-04-18T12:51:03.77Z</time></trkpt><trkpt lat="43.0288117" lon="11.6256983"><ele>260.0</ele><time>2026-04-18T12:51:04.769Z</time></trkpt><trkpt lat="43.0289433" lon="11.625805"><ele>260.0</ele><time>2026-04-18T12:51:05.771Z</time></trkpt><trkpt lat="43.029095" lon="11.62589"><ele>260.0</ele><time>2026-04-18T12:51:06.77Z</time></trkpt><trkpt lat="43.02926" lon="11.6259683"><ele>258.6666666666667</ele><time>2026-04-18T12:51:07.769Z</time></trkpt><trkpt lat="43.0294333" lon="11.6260583"><ele>257.3333333333333</ele><time>2026-04-18T12:51:08.772Z</time></trkpt><trkpt lat="43.0296083" lon="11.6261667"><ele>256.0</ele><time>2026-04-18T12:51:09.766Z</time></trkpt><trkpt lat="43.0297867" lon="11.626285"><ele>257.0</ele><time>2026-04-18T12:51:10.768Z</time></trkpt><trkpt lat="43.0299767" lon="11.62639"><ele>258.0</ele><time>2026-04-18T12:51:11.765Z</time></trkpt><trkpt lat="43.0301783" lon="11.6264683"><ele>259.0</ele><time>2026-04-18T12:51:12.773Z</time></trkpt><trkpt lat="43.0303833" lon="11.6265267"><ele>259.0</ele><time>2026-04-18T12:51:13.771Z</time></trkpt><trkpt lat="43.0305917" lon="11.6265783"><ele>259.0</ele><time>2026-04-18T12:51:14.772Z</time></trkpt><trkpt lat="43.0308017" lon="11.6266333"><ele>259.0</ele><time>2026-04-18T12:51:15.772Z</time></trkpt><trkpt lat="43.0310183" lon="11.6266917"><ele>260.0</ele><time>2026-04-18T12:51:16.769Z</time></trkpt><trkpt lat="43.031235" lon="11.6267533"><ele>261.0</ele><time>2026-04-18T12:51:17.771Z</time></trkpt><trkpt lat="43.03145" lon="11.6268183"><ele>262.0</ele><time>2026-04-18T12:51:18.765Z</time></trkpt><trkpt lat="43.0316667" lon="11.6268833"><ele>262.0</ele><time>2026-04-18T12:51:19.768Z</time></trkpt><trkpt lat="43.031885" lon="11.6269483"><ele>262.0</ele><time>2026-04-18T12:51:20.766Z</time></trkpt><trkpt lat="43.0321033" lon="11.6270117"><ele>262.0</ele><time>2026-04-18T12:51:21.769Z</time></trkpt><trkpt lat="43.03232" lon="11.6270767"><ele>260.3333333333333</ele><time>2026-04-18T12:51:22.769Z</time></trkpt><trkpt lat="43.0325317" lon="11.6271417"><ele>258.6666666666667</ele><time>2026-04-18T12:51:23.768Z</time></trkpt><trkpt lat="43.0327433" lon="11.6272083"><ele>257.0</ele><time>2026-04-18T12:51:24.772Z</time></trkpt><trkpt lat="43.0329483" lon="11.6272783"><ele>257.0</ele><time>2026-04-18T12:51:25.766Z</time></trkpt><trkpt lat="43.0331467" lon="11.6273483"><ele>257.0</ele><time>2026-04-18T12:51:26.77Z</time></trkpt><trkpt lat="43.0333417" lon="11.6274117"><ele>257.0</ele><time>2026-04-18T12:51:27.77Z</time></trkpt><trkpt lat="43.033535" lon="11.6274783"><ele>258.33333333333337</ele><time>2026-04-18T12:51:28.765Z</time></trkpt><trkpt lat="43.0337283" lon="11.6275433"><ele>259.6666666666667</ele><time>2026-04-18T12:51:29.768Z</time></trkpt><trkpt lat="43.0339167" lon="11.6276083"><ele>261.0</ele><time>2026-04-18T12:51:30.769Z</time></trkpt><trkpt lat="43.0341" lon="11.6276533"><ele>263.0</ele><time>2026-04-18T12:51:31.769Z</time></trkpt><trkpt lat="43.0342933" lon="11.6276667"><ele>265.0</ele><time>2026-04-18T12:51:32.773Z</time></trkpt><trkpt lat="43.03449" lon="11.6276467"><ele>267.0</ele><time>2026-04-18T12:51:33.762Z</time></trkpt><trkpt lat="43.03469" lon="11.6276117"><ele>267.0</ele><time>2026-04-18T12:51:34.772Z</time></trkpt><trkpt lat="43.03489" lon="11.6275733"><ele>267.0</ele><time>2026-04-18T12:51:35.77Z</time></trkpt><trkpt lat="43.035095" lon="11.6275383"><ele>267.0</ele><time>2026-04-18T12:51:36.771Z</time></trkpt><trkpt lat="43.0353067" lon="11.6274967"><ele>267.6666666666667</ele><time>2026-04-18T12:51:37.769Z</time></trkpt><trkpt lat="43.0355167" lon="11.62746"><ele>268.33333333333337</ele><time>2026-04-18T12:51:38.772Z</time></trkpt><trkpt lat="43.03573" lon="11.6274283"><ele>269.0</ele><time>2026-04-18T12:51:39.769Z</time></trkpt><trkpt lat="43.0359483" lon="11.627395"><ele>269.6666666666667</ele><time>2026-04-18T12:51:40.77Z</time></trkpt><trkpt lat="43.03617" lon="11.6273617"><ele>270.3333333333333</ele><time>2026-04-18T12:51:41.77Z</time></trkpt><trkpt lat="43.0363883" lon="11.6273267"><ele>271.0</ele><time>2026-04-18T12:51:42.77Z</time></trkpt><trkpt lat="43.0366067" lon="11.6272933"><ele>269.3333333333333</ele><time>2026-04-18T12:51:43.769Z</time></trkpt><trkpt lat="43.0368217" lon="11.627255"><ele>267.6666666666667</ele><time>2026-04-18T12:51:44.773Z</time></trkpt><trkpt lat="43.0370333" lon="11.6272217"><ele>266.0</ele><time>2026-04-18T12:51:45.769Z</time></trkpt><trkpt lat="43.0372433" lon="11.6271833"><ele>266.0</ele><time>2026-04-18T12:51:46.77Z</time></trkpt><trkpt lat="43.03745" lon="11.6271467"><ele>266.0</ele><time>2026-04-18T12:51:47.766Z</time></trkpt><trkpt lat="43.0376533" lon="11.627105"><ele>266.0</ele><time>2026-04-18T12:51:48.765Z</time></trkpt><trkpt lat="43.0378567" lon="11.62707"><ele>265.6666666666667</ele><time>2026-04-18T12:51:49.766Z</time></trkpt><trkpt lat="43.0380567" lon="11.6270367"><ele>265.3333333333333</ele><time>2026-04-18T12:51:50.77Z</time></trkpt><trkpt lat="43.0382533" lon="11.6270033"><ele>265.0</ele><time>2026-04-18T12:51:51.77Z</time></trkpt><trkpt lat="43.0384517" lon="11.6269717"><ele>267.66666666666663</ele><time>2026-04-18T12:51:52.764Z</time></trkpt><trkpt lat="43.0386467" lon="11.6269383"><ele>270.3333333333333</ele><time>2026-04-18T12:51:53.765Z</time></trkpt><trkpt lat="43.0388467" lon="11.6269117"><ele>273.0</ele><time>2026-04-18T12:51:54.771Z</time></trkpt><trkpt lat="43.0390483" lon="11.6268933"><ele>273.0</ele><time>2026-04-18T12:51:55.767Z</time></trkpt><trkpt lat="43.03925" lon="11.6268867"><ele>273.0</ele><time>2026-04-18T12:51:56.77Z</time></trkpt><trkpt lat="43.0394533" lon="11.6268833"><ele>273.0</ele><time>2026-04-18T12:51:57.767Z</time></trkpt><trkpt lat="43.0396583" lon="11.6268817"><ele>273.0</ele><time>2026-04-18T12:51:58.765Z</time></trkpt><trkpt lat="43.0398633" lon="11.6268817"><ele>273.0</ele><time>2026-04-18T12:51:59.766Z</time></trkpt><trkpt lat="43.0400633" lon="11.6268833"><ele>273.0</ele><time>2026-04-18T12:52:00.77Z</time></trkpt><trkpt lat="43.04026" lon="11.6268717"><ele>273.0</ele><time>2026-04-18T12:52:01.769Z</time></trkpt><trkpt lat="43.0404567" lon="11.62684"><ele>273.0</ele><time>2026-04-18T12:52:02.77Z</time></trkpt><trkpt lat="43.04065" lon="11.62679"><ele>273.0</ele><time>2026-04-18T12:52:03.766Z</time></trkpt><trkpt lat="43.0408367" lon="11.6267333"><ele>273.0</ele><time>2026-04-18T12:52:04.766Z</time></trkpt><trkpt lat="43.041015" lon="11.62669"><ele>273.0</ele><time>2026-04-18T12:52:05.767Z</time></trkpt><trkpt lat="43.0411817" lon="11.62666"><ele>273.0</ele><time>2026-04-18T12:52:06.769Z</time></trkpt><trkpt lat="43.0413467" lon="11.6266133"><ele>273.0</ele><time>2026-04-18T12:52:07.765Z</time></trkpt><trkpt lat="43.0415133" lon="11.6265533"><ele>273.0</ele><time>2026-04-18T12:52:08.772Z</time></trkpt><trkpt lat="43.0416767" lon="11.6264817"><ele>273.0</ele><time>2026-04-18T12:52:09.769Z</time></trkpt><trkpt lat="43.04184" lon="11.626405"><ele>272.0</ele><time>2026-04-18T12:52:10.765Z</time></trkpt><trkpt lat="43.042" lon="11.6263283"><ele>271.0</ele><time>2026-04-18T12:52:11.767Z</time></trkpt><trkpt lat="43.042155" lon="11.6262483"><ele>270.0</ele><time>2026-04-18T12:52:12.77Z</time></trkpt><trkpt lat="43.04231" lon="11.6261683"><ele>271.3333333333333</ele><time>2026-04-18T12:52:13.765Z</time></trkpt><trkpt lat="43.042465" lon="11.6260867"><ele>272.66666666666663</ele><time>2026-04-18T12:52:14.77Z</time></trkpt><trkpt lat="43.0426167" lon="11.6260083"><ele>274.0</ele><time>2026-04-18T12:52:15.771Z</time></trkpt><trkpt lat="43.04277" lon="11.6259283"><ele>274.0</ele><time>2026-04-18T12:52:16.772Z</time></trkpt><trkpt lat="43.042925" lon="11.6258467"><ele>274.0</ele><time>2026-04-18T12:52:17.77Z</time></trkpt><trkpt lat="43.0430867" lon="11.6257633"><ele>274.0</ele><time>2026-04-18T12:52:18.767Z</time></trkpt><trkpt lat="43.04325" lon="11.625675"><ele>274.0</ele><time>2026-04-18T12:52:19.77Z</time></trkpt><trkpt lat="43.0434217" lon="11.62558"><ele>274.0</ele><time>2026-04-18T12:52:20.771Z</time></trkpt><trkpt lat="43.0435917" lon="11.6254867"><ele>274.0</ele><time>2026-04-18T12:52:21.77Z</time></trkpt><trkpt lat="43.043765" lon="11.6253967"><ele>275.66666666666663</ele><time>2026-04-18T12:52:22.764Z</time></trkpt><trkpt lat="43.0439383" lon="11.6253067"><ele>277.3333333333333</ele><time>2026-04-18T12:52:23.766Z</time></trkpt><trkpt lat="43.044115" lon="11.6252233"><ele>279.0</ele><time>2026-04-18T12:52:24.768Z</time></trkpt><trkpt lat="43.0442983" lon="11.6251533"><ele>279.0</ele><time>2026-04-18T12:52:25.77Z</time></trkpt><trkpt lat="43.0444833" lon="11.6251033"><ele>279.0</ele><time>2026-04-18T12:52:26.765Z</time></trkpt><trkpt lat="43.0446683" lon="11.6250717"><ele>279.0</ele><time>2026-04-18T12:52:27.767Z</time></trkpt><trkpt lat="43.0448583" lon="11.6250533"><ele>278.6666666666667</ele><time>2026-04-18T12:52:28.766Z</time></trkpt><trkpt lat="43.045045" lon="11.6250483"><ele>278.33333333333337</ele><time>2026-04-18T12:52:29.77Z</time></trkpt><trkpt lat="43.0452333" lon="11.62505"><ele>278.0</ele><time>2026-04-18T12:52:30.771Z</time></trkpt><trkpt lat="43.0454233" lon="11.6250533"><ele>278.0</ele><time>2026-04-18T12:52:31.761Z</time></trkpt><trkpt lat="43.045605" lon="11.625075"><ele>278.0</ele><time>2026-04-18T12:52:32.773Z</time></trkpt><trkpt lat="43.0457817" lon="11.625125"><ele>278.0</ele><time>2026-04-18T12:52:33.769Z</time></trkpt><trkpt lat="43.0459533" lon="11.625205"><ele>278.33333333333337</ele><time>2026-04-18T12:52:34.769Z</time></trkpt><trkpt lat="43.0461233" lon="11.6252967"><ele>278.6666666666667</ele><time>2026-04-18T12:52:35.769Z</time></trkpt><trkpt lat="43.0462933" lon="11.62538"><ele>279.0</ele><time>2026-04-18T12:52:36.77Z</time></trkpt><trkpt lat="43.0464717" lon="11.6254433"><ele>278.3333333333333</ele><time>2026-04-18T12:52:37.766Z</time></trkpt><trkpt lat="43.0466533" lon="11.6254867"><ele>277.66666666666663</ele><time>2026-04-18T12:52:38.774Z</time></trkpt><trkpt lat="43.0468367" lon="11.6255083"><ele>277.0</ele><time>2026-04-18T12:52:39.769Z</time></trkpt><trkpt lat="43.0470167" lon="11.6255183"><ele>277.0</ele><time>2026-04-18T12:52:40.769Z</time></trkpt><trkpt lat="43.0472017" lon="11.6255267"><ele>277.0</ele><time>2026-04-18T12:52:41.77Z</time></trkpt><trkpt lat="43.04738" lon="11.6255333"><ele>277.0</ele><time>2026-04-18T12:52:42.77Z</time></trkpt><trkpt lat="43.04755" lon="11.62554"><ele>277.66666666666663</ele><time>2026-04-18T12:52:43.765Z</time></trkpt><trkpt lat="43.047715" lon="11.6255417"><ele>278.3333333333333</ele><time>2026-04-18T12:52:44.773Z</time></trkpt><trkpt lat="43.04787" lon="11.625515"><ele>279.0</ele><time>2026-04-18T12:52:45.769Z</time></trkpt><trkpt lat="43.0480133" lon="11.6254433"><ele>279.0</ele><time>2026-04-18T12:52:46.769Z</time></trkpt><trkpt lat="43.0481367" lon="11.6253267"><ele>279.0</ele><time>2026-04-18T12:52:47.768Z</time></trkpt><trkpt lat="43.0482417" lon="11.6251833"><ele>279.0</ele><time>2026-04-18T12:52:48.769Z</time></trkpt><trkpt lat="43.0483333" lon="11.625015"><ele>281.3333333333333</ele><time>2026-04-18T12:52:49.77Z</time></trkpt><trkpt lat="43.0484183" lon="11.6248383"><ele>283.66666666666663</ele><time>2026-04-18T12:52:50.771Z</time></trkpt><trkpt lat="43.0485017" lon="11.6246633"><ele>286.0</ele><time>2026-04-18T12:52:51.771Z</time></trkpt><trkpt lat="43.0485917" lon="11.62449"><ele>288.3333333333333</ele><time>2026-04-18T12:52:52.766Z</time></trkpt><trkpt lat="43.048675" lon="11.6243117"><ele>290.6666666666667</ele><time>2026-04-18T12:52:53.77Z</time></trkpt><trkpt lat="43.0487567" lon="11.6241333"><ele>293.0</ele><time>2026-04-18T12:52:54.77Z</time></trkpt><trkpt lat="43.0488417" lon="11.6239517"><ele>293.0</ele><time>2026-04-18T12:52:55.772Z</time></trkpt><trkpt lat="43.04893" lon="11.6237717"><ele>293.0</ele><time>2026-04-18T12:52:56.771Z</time></trkpt><trkpt lat="43.0490183" lon="11.62359"><ele>293.0</ele><time>2026-04-18T12:52:57.769Z</time></trkpt><trkpt lat="43.0491" lon="11.623405"><ele>293.25</ele><time>2026-04-18T12:52:58.769Z</time></trkpt><trkpt lat="43.04917" lon="11.623225"><ele>293.5</ele><time>2026-04-18T12:52:59.772Z</time></trkpt><trkpt lat="43.0492317" lon="11.623055"><ele>293.75</ele><time>2026-04-18T12:53:00.769Z</time></trkpt><trkpt lat="43.049285" lon="11.6228983"><ele>294.0</ele><time>2026-04-18T12:53:01.77Z</time></trkpt><trkpt lat="43.0493367" lon="11.6227533"><ele>294.0</ele><time>2026-04-18T12:53:02.772Z</time></trkpt><trkpt lat="43.0493933" lon="11.62262"><ele>294.0</ele><time>2026-04-18T12:53:03.767Z</time></trkpt><trkpt lat="43.0494483" lon="11.6224717"><ele>294.0</ele><time>2026-04-18T12:53:04.77Z</time></trkpt><trkpt lat="43.0495" lon="11.622295"><ele>294.0</ele><time>2026-04-18T12:53:05.771Z</time></trkpt><trkpt lat="43.0495483" lon="11.6220883"><ele>295.3333333333333</ele><time>2026-04-18T12:53:06.77Z</time></trkpt><trkpt lat="43.0495983" lon="11.62187"><ele>296.66666666666663</ele><time>2026-04-18T12:53:07.767Z</time></trkpt><trkpt lat="43.0496483" lon="11.6216533"><ele>298.0</ele><time>2026-04-18T12:53:08.772Z</time></trkpt><trkpt lat="43.0496967" lon="11.6214367"><ele>298.0</ele><time>2026-04-18T12:53:09.769Z</time></trkpt><trkpt lat="43.0497467" lon="11.621225"><ele>298.0</ele><time>2026-04-18T12:53:10.769Z</time></trkpt><trkpt lat="43.049795" lon="11.6210283"><ele>298.0</ele><time>2026-04-18T12:53:11.768Z</time></trkpt><trkpt lat="43.0498567" lon="11.620855"><ele>298.75</ele><time>2026-04-18T12:53:12.771Z</time></trkpt><trkpt lat="43.0499367" lon="11.6207133"><ele>299.5</ele><time>2026-04-18T12:53:13.77Z</time></trkpt><trkpt lat="43.050045" lon="11.6206"><ele>300.25</ele><time>2026-04-18T12:53:14.773Z</time></trkpt><trkpt lat="43.050175" lon="11.6205167"><ele>301.0</ele><time>2026-04-18T12:53:15.769Z</time></trkpt><trkpt lat="43.05033" lon="11.6204683"><ele>297.66666666666663</ele><time>2026-04-18T12:53:16.766Z</time></trkpt><trkpt lat="43.0504917" lon="11.6204433"><ele>294.3333333333333</ele><time>2026-04-18T12:53:17.769Z</time></trkpt><trkpt lat="43.050665" lon="11.6204167"><ele>291.0</ele><time>2026-04-18T12:53:18.769Z</time></trkpt><trkpt lat="43.05084" lon="11.6203883"><ele>290.6666666666667</ele><time>2026-04-18T12:53:19.766Z</time></trkpt><trkpt lat="43.0510133" lon="11.6203583"><ele>290.33333333333337</ele><time>2026-04-18T12:53:20.77Z</time></trkpt><trkpt lat="43.0511833" lon="11.6203267"><ele>290.0</ele><time>2026-04-18T12:53:21.765Z</time></trkpt><trkpt lat="43.0513467" lon="11.6202833"><ele>290.6666666666667</ele><time>2026-04-18T12:53:22.766Z</time></trkpt><trkpt lat="43.0514983" lon="11.6202217"><ele>291.3333333333333</ele><time>2026-04-18T12:53:23.772Z</time></trkpt><trkpt lat="43.0516383" lon="11.6201267"><ele>292.0</ele><time>2026-04-18T12:53:24.773Z</time></trkpt><trkpt lat="43.0517633" lon="11.6199883"><ele>292.66666666666663</ele><time>2026-04-18T12:53:25.769Z</time></trkpt><trkpt lat="43.051875" lon="11.61982"><ele>293.3333333333333</ele><time>2026-04-18T12:53:26.772Z</time></trkpt><trkpt lat="43.0519717" lon="11.61963"><ele>294.0</ele><time>2026-04-18T12:53:27.766Z</time></trkpt><trkpt lat="43.052065" lon="11.6194217"><ele>296.3333333333333</ele><time>2026-04-18T12:53:28.769Z</time></trkpt><trkpt lat="43.0521617" lon="11.61921"><ele>298.66666666666663</ele><time>2026-04-18T12:53:29.77Z</time></trkpt><trkpt lat="43.05226" lon="11.6189867"><ele>301.0</ele><time>2026-04-18T12:53:30.77Z</time></trkpt><trkpt lat="43.0523633" lon="11.6187467"><ele>304.66666666666663</ele><time>2026-04-18T12:53:31.77Z</time></trkpt><trkpt lat="43.0524683" lon="11.6184833"><ele>308.3333333333333</ele><time>2026-04-18T12:53:32.769Z</time></trkpt><trkpt lat="43.05257" lon="11.6182233"><ele>312.0</ele><time>2026-04-18T12:53:33.77Z</time></trkpt><trkpt lat="43.0526717" lon="11.6179933"><ele>313.3333333333333</ele><time>2026-04-18T12:53:34.769Z</time></trkpt><trkpt lat="43.0527683" lon="11.6177933"><ele>314.66666666666663</ele><time>2026-04-18T12:53:35.77Z</time></trkpt><trkpt lat="43.0528383" lon="11.6175983"><ele>316.0</ele><time>2026-04-18T12:53:36.769Z</time></trkpt><trkpt lat="43.0529" lon="11.6173967"><ele>316.0</ele><time>2026-04-18T12:53:37.766Z</time></trkpt><trkpt lat="43.05294" lon="11.6171867"><ele>316.0</ele><time>2026-04-18T12:53:38.771Z</time></trkpt><trkpt lat="43.052975" lon="11.6169683"><ele>316.0</ele><time>2026-04-18T12:53:39.77Z</time></trkpt><trkpt lat="43.053015" lon="11.6167467"><ele>319.0</ele><time>2026-04-18T12:53:40.769Z</time></trkpt><trkpt lat="43.05306" lon="11.61653"><ele>322.0</ele><time>2026-04-18T12:53:41.77Z</time></trkpt><trkpt lat="43.0531033" lon="11.61632"><ele>325.0</ele><time>2026-04-18T12:53:42.77Z</time></trkpt><trkpt lat="43.05314" lon="11.6161283"><ele>325.8</ele><time>2026-04-18T12:53:43.769Z</time></trkpt><trkpt lat="43.0531633" lon="11.615965"><ele>326.6</ele><time>2026-04-18T12:53:44.772Z</time></trkpt><trkpt lat="43.0531533" lon="11.6158267"><ele>327.4</ele><time>2026-04-18T12:53:45.767Z</time></trkpt><trkpt lat="43.0531083" lon="11.6157017"><ele>328.2</ele><time>2026-04-18T12:53:46.77Z</time></trkpt><trkpt lat="43.0530217" lon="11.61558"><ele>329.0</ele><time>2026-04-18T12:53:47.765Z</time></trkpt><trkpt lat="43.0529117" lon="11.6154717"><ele>329.0</ele><time>2026-04-18T12:53:48.768Z</time></trkpt><trkpt lat="43.05279" lon="11.6153583"><ele>329.0</ele><time>2026-04-18T12:53:49.77Z</time></trkpt><trkpt lat="43.0526783" lon="11.6152367"><ele>329.0</ele><time>2026-04-18T12:53:50.771Z</time></trkpt><trkpt lat="43.052585" lon="11.6151117"><ele>329.0</ele><time>2026-04-18T12:53:51.77Z</time></trkpt><trkpt lat="43.0525133" lon="11.6149817"><ele>330.0</ele><time>2026-04-18T12:53:52.768Z</time></trkpt><trkpt lat="43.0524683" lon="11.614825"><ele>331.0</ele><time>2026-04-18T12:53:53.77Z</time></trkpt><trkpt lat="43.0524383" lon="11.6146533"><ele>332.0</ele><time>2026-04-18T12:53:54.774Z</time></trkpt><trkpt lat="43.0524267" lon="11.61448"><ele>333.0</ele><time>2026-04-18T12:53:55.766Z</time></trkpt><trkpt lat="43.052435" lon="11.6143267"><ele>333.75</ele><time>2026-04-18T12:53:56.774Z</time></trkpt><trkpt lat="43.0524783" lon="11.614195"><ele>334.5</ele><time>2026-04-18T12:53:57.769Z</time></trkpt><trkpt lat="43.0525567" lon="11.614105"><ele>335.25</ele><time>2026-04-18T12:53:58.768Z</time></trkpt><trkpt lat="43.0526767" lon="11.6140533"><ele>336.0</ele><time>2026-04-18T12:53:59.766Z</time></trkpt><trkpt lat="43.05283" lon="11.6139983"><ele>336.0</ele><time>2026-04-18T12:54:00.773Z</time></trkpt><trkpt lat="43.05298" lon="11.6139067"><ele>336.0</ele><time>2026-04-18T12:54:01.77Z</time></trkpt><trkpt lat="43.053125" lon="11.613785"><ele>336.0</ele><time>2026-04-18T12:54:02.769Z</time></trkpt><trkpt lat="43.0532617" lon="11.613645"><ele>339.0</ele><time>2026-04-18T12:54:03.769Z</time></trkpt><trkpt lat="43.0533933" lon="11.6134933"><ele>342.0</ele><time>2026-04-18T12:54:04.769Z</time></trkpt><trkpt lat="43.05353" lon="11.61334"><ele>345.0</ele><time>2026-04-18T12:54:05.769Z</time></trkpt><trkpt lat="43.0536733" lon="11.61319"><ele>345.0</ele><time>2026-04-18T12:54:06.771Z</time></trkpt><trkpt lat="43.0538167" lon="11.613055"><ele>345.0</ele><time>2026-04-18T12:54:07.77Z</time></trkpt><trkpt lat="43.0539633" lon="11.6129283"><ele>345.0</ele><time>2026-04-18T12:54:08.759Z</time></trkpt><trkpt lat="43.0541033" lon="11.6128117"><ele>348.3333333333333</ele><time>2026-04-18T12:54:09.761Z</time></trkpt><trkpt lat="43.054245" lon="11.6126883"><ele>351.66666666666663</ele><time>2026-04-18T12:54:10.766Z</time></trkpt><trkpt lat="43.0543867" lon="11.6125583"><ele>355.0</ele><time>2026-04-18T12:54:11.765Z</time></trkpt><trkpt lat="43.05452" lon="11.61243"><ele>355.0</ele><time>2026-04-18T12:54:12.77Z</time></trkpt><trkpt lat="43.0546483" lon="11.612295"><ele>355.0</ele><time>2026-04-18T12:54:13.77Z</time></trkpt><trkpt lat="43.0547717" lon="11.612145"><ele>355.0</ele><time>2026-04-18T12:54:14.773Z</time></trkpt><trkpt lat="43.0548917" lon="11.6119767"><ele>357.0</ele><time>2026-04-18T12:54:15.769Z</time></trkpt><trkpt lat="43.0549983" lon="11.6117933"><ele>359.0</ele><time>2026-04-18T12:54:16.769Z</time></trkpt><trkpt lat="43.05511" lon="11.6116033"><ele>361.0</ele><time>2026-04-18T12:54:17.769Z</time></trkpt><trkpt lat="43.055215" lon="11.6114117"><ele>361.0</ele><time>2026-04-18T12:54:18.766Z</time></trkpt><trkpt lat="43.0553133" lon="11.611225"><ele>361.0</ele><time>2026-04-18T12:54:19.767Z</time></trkpt><trkpt lat="43.0554083" lon="11.6110367"><ele>361.0</ele><time>2026-04-18T12:54:20.772Z</time></trkpt><trkpt lat="43.0554967" lon="11.610855"><ele>362.0</ele><time>2026-04-18T12:54:21.769Z</time></trkpt><trkpt lat="43.0555733" lon="11.6106883"><ele>363.0</ele><time>2026-04-18T12:54:22.768Z</time></trkpt><trkpt lat="43.0556433" lon="11.6105417"><ele>364.0</ele><time>2026-04-18T12:54:23.77Z</time></trkpt><trkpt lat="43.0557083" lon="11.6104167"><ele>365.0</ele><time>2026-04-18T12:54:24.771Z</time></trkpt><trkpt lat="43.0557717" lon="11.610315"><ele>366.4</ele><time>2026-04-18T12:54:25.765Z</time></trkpt><trkpt lat="43.05583" lon="11.61024"><ele>367.8</ele><time>2026-04-18T12:54:26.773Z</time></trkpt><trkpt lat="43.0559183" lon="11.6101817"><ele>369.20000000000005</ele><time>2026-04-18T12:54:28.766Z</time></trkpt><trkpt lat="43.0560083" lon="11.6102267"><ele>370.6</ele><time>2026-04-18T12:54:30.766Z</time></trkpt><trkpt lat="43.0560717" lon="11.610295"><ele>372.0</ele><time>2026-04-18T12:54:31.77Z</time></trkpt><trkpt lat="43.0561583" lon="11.610375"><ele>372.0</ele><time>2026-04-18T12:54:32.772Z</time></trkpt><trkpt lat="43.0562567" lon="11.61046"><ele>372.0</ele><time>2026-04-18T12:54:33.767Z</time></trkpt><trkpt lat="43.056365" lon="11.61055"><ele>372.0</ele><time>2026-04-18T12:54:34.765Z</time></trkpt><trkpt lat="43.0564783" lon="11.6106467"><ele>372.0</ele><time>2026-04-18T12:54:35.771Z</time></trkpt><trkpt lat="43.0565983" lon="11.6107517"><ele>372.6666666666667</ele><time>2026-04-18T12:54:36.771Z</time></trkpt><trkpt lat="43.056725" lon="11.6108533"><ele>373.33333333333337</ele><time>2026-04-18T12:54:37.77Z</time></trkpt><trkpt lat="43.0568633" lon="11.6109483"><ele>374.0</ele><time>2026-04-18T12:54:38.772Z</time></trkpt><trkpt lat="43.0570167" lon="11.6110317"><ele>374.0</ele><time>2026-04-18T12:54:39.769Z</time></trkpt><trkpt lat="43.0571817" lon="11.6110817"><ele>374.0</ele><time>2026-04-18T12:54:40.769Z</time></trkpt><trkpt lat="43.057355" lon="11.611085"><ele>374.0</ele><time>2026-04-18T12:54:41.769Z</time></trkpt><trkpt lat="43.057525" lon="11.6110433"><ele>375.33333333333337</ele><time>2026-04-18T12:54:42.769Z</time></trkpt><trkpt lat="43.05769" lon="11.610965"><ele>376.6666666666667</ele><time>2026-04-18T12:54:43.77Z</time></trkpt><trkpt lat="43.0578517" lon="11.61085"><ele>378.0</ele><time>2026-04-18T12:54:44.772Z</time></trkpt><trkpt lat="43.058" lon="11.610705"><ele>378.0</ele><time>2026-04-18T12:54:45.769Z</time></trkpt><trkpt lat="43.058135" lon="11.6105367"><ele>378.0</ele><time>2026-04-18T12:54:46.771Z</time></trkpt><trkpt lat="43.0582567" lon="11.610355"><ele>378.0</ele><time>2026-04-18T12:54:47.769Z</time></trkpt><trkpt lat="43.0583733" lon="11.6101717"><ele>381.0</ele><time>2026-04-18T12:54:48.77Z</time></trkpt><trkpt lat="43.0584817" lon="11.609985"><ele>384.0</ele><time>2026-04-18T12:54:49.766Z</time></trkpt><trkpt lat="43.0585917" lon="11.6098067"><ele>387.0</ele><time>2026-04-18T12:54:50.772Z</time></trkpt><trkpt lat="43.0587" lon="11.6096333"><ele>389.75</ele><time>2026-04-18T12:54:51.767Z</time></trkpt><trkpt lat="43.0588033" lon="11.6094683"><ele>392.5</ele><time>2026-04-18T12:54:52.77Z</time></trkpt><trkpt lat="43.0589017" lon="11.6093133"><ele>395.25</ele><time>2026-04-18T12:54:53.771Z</time></trkpt><trkpt lat="43.0589933" lon="11.6091683"><ele>398.0</ele><time>2026-04-18T12:54:54.766Z</time></trkpt><trkpt lat="43.0590767" lon="11.6090333"><ele>396.0</ele><time>2026-04-18T12:54:55.77Z</time></trkpt><trkpt lat="43.0591533" lon="11.608915"><ele>394.0</ele><time>2026-04-18T12:54:56.773Z</time></trkpt><trkpt lat="43.059215" lon="11.6088333"><ele>392.0</ele><time>2026-04-18T12:54:57.769Z</time></trkpt><trkpt lat="43.0592717" lon="11.6087867"><ele>390.0</ele><time>2026-04-18T12:54:58.768Z</time></trkpt><trkpt lat="43.0593717" lon="11.6087717"><ele>388.0</ele><time>2026-04-18T12:55:00.77Z</time></trkpt><trkpt lat="43.05945" lon="11.608735"><ele>389.50000000000006</ele><time>2026-04-18T12:55:03.767Z</time></trkpt><trkpt lat="43.0595167" lon="11.60865"><ele>391.0</ele><time>2026-04-18T12:58:39.768Z</time></trkpt><trkpt lat="43.0595383" lon="11.6085467"><ele>392.5</ele><time>2026-04-18T12:58:41.769Z</time></trkpt><trkpt lat="43.0595533" lon="11.6084217"><ele>394.0</ele><time>2026-04-18T12:58:43.761Z</time></trkpt><trkpt lat="43.059555" lon="11.6083217"><ele>395.50000000000006</ele><time>2026-04-18T12:58:45.767Z</time></trkpt><trkpt lat="43.0595633" lon="11.6082317"><ele>397.0</ele><time>2026-04-18T12:58:47.767Z</time></trkpt><trkpt lat="43.0596333" lon="11.6080633"><ele>397.0</ele><time>2026-04-18T12:58:49.766Z</time></trkpt><trkpt lat="43.0596967" lon="11.6079567"><ele>397.0</ele><time>2026-04-18T12:58:50.767Z</time></trkpt><trkpt lat="43.0597817" lon="11.60783"><ele>397.0</ele><time>2026-04-18T12:58:51.769Z</time></trkpt><trkpt lat="43.059865" lon="11.6076983"><ele>397.0</ele><time>2026-04-18T12:58:52.765Z</time></trkpt><trkpt lat="43.0599567" lon="11.6075567"><ele>396.0</ele><time>2026-04-18T12:58:53.767Z</time></trkpt><trkpt lat="43.060055" lon="11.6074033"><ele>395.0</ele><time>2026-04-18T12:58:54.771Z</time></trkpt><trkpt lat="43.0601583" lon="11.6072383"><ele>394.0</ele><time>2026-04-18T12:58:55.769Z</time></trkpt><trkpt lat="43.0602683" lon="11.607065"><ele>395.33333333333337</ele><time>2026-04-18T12:58:56.769Z</time></trkpt><trkpt lat="43.0603833" lon="11.6068833"><ele>396.66666666666663</ele><time>2026-04-18T12:58:57.769Z</time></trkpt><trkpt lat="43.0605" lon="11.6066917"><ele>398.0</ele><time>2026-04-18T12:58:58.765Z</time></trkpt><trkpt lat="43.06062" lon="11.6064917"><ele>398.0</ele><time>2026-04-18T12:58:59.769Z</time></trkpt><trkpt lat="43.06074" lon="11.60629"><ele>398.0</ele><time>2026-04-18T12:59:00.763Z</time></trkpt><trkpt lat="43.0608583" lon="11.606095"><ele>398.0</ele><time>2026-04-18T12:59:01.77Z</time></trkpt><trkpt lat="43.0609767" lon="11.6059083"><ele>399.66666666666663</ele><time>2026-04-18T12:59:02.767Z</time></trkpt><trkpt lat="43.061095" lon="11.6057217"><ele>401.33333333333337</ele><time>2026-04-18T12:59:03.765Z</time></trkpt><trkpt lat="43.0612" lon="11.605525"><ele>403.0</ele><time>2026-04-18T12:59:04.765Z</time></trkpt><trkpt lat="43.061295" lon="11.6053133"><ele>405.0</ele><time>2026-04-18T12:59:05.764Z</time></trkpt><trkpt lat="43.0613767" lon="11.605095"><ele>407.0</ele><time>2026-04-18T12:59:06.769Z</time></trkpt><trkpt lat="43.0614467" lon="11.6048717"><ele>409.0</ele><time>2026-04-18T12:59:07.77Z</time></trkpt><trkpt lat="43.0614983" lon="11.60464"><ele>409.0</ele><time>2026-04-18T12:59:08.771Z</time></trkpt><trkpt lat="43.0615333" lon="11.6044"><ele>409.0</ele><time>2026-04-18T12:59:09.764Z</time></trkpt><trkpt lat="43.0615567" lon="11.60416"><ele>409.0</ele><time>2026-04-18T12:59:10.768Z</time></trkpt><trkpt lat="43.06157" lon="11.6039183"><ele>409.0</ele><time>2026-04-18T12:59:11.76Z</time></trkpt><trkpt lat="43.06157" lon="11.6036733"><ele>409.0</ele><time>2026-04-18T12:59:12.769Z</time></trkpt><trkpt lat="43.0615683" lon="11.60343"><ele>409.0</ele><time>2026-04-18T12:59:13.767Z</time></trkpt><trkpt lat="43.0615617" lon="11.6031867"><ele>408.6666666666667</ele><time>2026-04-18T12:59:14.77Z</time></trkpt><trkpt lat="43.0615417" lon="11.60294"><ele>408.33333333333337</ele><time>2026-04-18T12:59:15.769Z</time></trkpt><trkpt lat="43.061515" lon="11.6026917"><ele>408.0</ele><time>2026-04-18T12:59:16.769Z</time></trkpt><trkpt lat="43.06148" lon="11.6024467"><ele>405.66666666666663</ele><time>2026-04-18T12:59:17.766Z</time></trkpt><trkpt lat="43.06144" lon="11.6022067"><ele>403.3333333333333</ele><time>2026-04-18T12:59:18.766Z</time></trkpt><trkpt lat="43.0613883" lon="11.60197"><ele>401.0</ele><time>2026-04-18T12:59:19.771Z</time></trkpt><trkpt lat="43.061325" lon="11.6017383"><ele>398.3333333333333</ele><time>2026-04-18T12:59:20.771Z</time></trkpt><trkpt lat="43.0612517" lon="11.6015083"><ele>395.66666666666663</ele><time>2026-04-18T12:59:21.768Z</time></trkpt><trkpt lat="43.0611667" lon="11.60128"><ele>393.0</ele><time>2026-04-18T12:59:22.764Z</time></trkpt><trkpt lat="43.06107" lon="11.60106"><ele>390.66666666666663</ele><time>2026-04-18T12:59:23.765Z</time></trkpt><trkpt lat="43.0609683" lon="11.6008433"><ele>388.3333333333333</ele><time>2026-04-18T12:59:24.765Z</time></trkpt><trkpt lat="43.0608633" lon="11.60063"><ele>386.0</ele><time>2026-04-18T12:59:25.764Z</time></trkpt><trkpt lat="43.0607633" lon="11.6004267"><ele>383.0</ele><time>2026-04-18T12:59:26.772Z</time></trkpt><trkpt lat="43.0606717" lon="11.6002317"><ele>380.0</ele><time>2026-04-18T12:59:27.765Z</time></trkpt><trkpt lat="43.0605833" lon="11.6000417"><ele>377.0</ele><time>2026-04-18T12:59:28.768Z</time></trkpt><trkpt lat="43.0604933" lon="11.5998517"><ele>377.0</ele><time>2026-04-18T12:59:29.771Z</time></trkpt><trkpt lat="43.0604067" lon="11.5996567"><ele>377.0</ele><time>2026-04-18T12:59:30.765Z</time></trkpt><trkpt lat="43.0603233" lon="11.59946"><ele>377.0</ele><time>2026-04-18T12:59:31.767Z</time></trkpt><trkpt lat="43.060245" lon="11.599255"><ele>373.6666666666667</ele><time>2026-04-18T12:59:32.77Z</time></trkpt><trkpt lat="43.0601733" lon="11.5990433"><ele>370.3333333333333</ele><time>2026-04-18T12:59:33.768Z</time></trkpt><trkpt lat="43.0601017" lon="11.5988167"><ele>367.0</ele><time>2026-04-18T12:59:34.768Z</time></trkpt><trkpt lat="43.060035" lon="11.5985833"><ele>365.3333333333333</ele><time>2026-04-18T12:59:35.77Z</time></trkpt><trkpt lat="43.059975" lon="11.59834"><ele>363.6666666666667</ele><time>2026-04-18T12:59:36.766Z</time></trkpt><trkpt lat="43.0599283" lon="11.59809"><ele>362.0</ele><time>2026-04-18T12:59:37.768Z</time></trkpt><trkpt lat="43.0598883" lon="11.5978233"><ele>368.33333333333337</ele><time>2026-04-18T12:59:38.771Z</time></trkpt><trkpt lat="43.0598667" lon="11.5975467"><ele>374.6666666666667</ele><time>2026-04-18T12:59:39.768Z</time></trkpt><trkpt lat="43.0598517" lon="11.5972683"><ele>381.0</ele><time>2026-04-18T12:59:40.769Z</time></trkpt><trkpt lat="43.0598383" lon="11.5969867"><ele>380.6666666666667</ele><time>2026-04-18T12:59:41.77Z</time></trkpt><trkpt lat="43.05982" lon="11.5967083"><ele>380.33333333333337</ele><time>2026-04-18T12:59:42.77Z</time></trkpt><trkpt lat="43.05981" lon="11.59643"><ele>380.0</ele><time>2026-04-18T12:59:43.765Z</time></trkpt><trkpt lat="43.0598033" lon="11.596145"><ele>380.0</ele><time>2026-04-18T12:59:44.77Z</time></trkpt><trkpt lat="43.0597983" lon="11.5958583"><ele>380.0</ele><time>2026-04-18T12:59:45.769Z</time></trkpt><trkpt lat="43.0597983" lon="11.59557"><ele>380.0</ele><time>2026-04-18T12:59:46.765Z</time></trkpt><trkpt lat="43.0598" lon="11.59528"><ele>379.0</ele><time>2026-04-18T12:59:47.77Z</time></trkpt><trkpt lat="43.059805" lon="11.5949883"><ele>378.0</ele><time>2026-04-18T12:59:48.768Z</time></trkpt><trkpt lat="43.059815" lon="11.5947"><ele>377.0</ele><time>2026-04-18T12:59:49.77Z</time></trkpt><trkpt lat="43.0598283" lon="11.594415"><ele>374.33333333333337</ele><time>2026-04-18T12:59:50.772Z</time></trkpt><trkpt lat="43.05986" lon="11.5941283"><ele>371.6666666666667</ele><time>2026-04-18T12:59:51.766Z</time></trkpt><trkpt lat="43.0599083" lon="11.593845"><ele>369.0</ele><time>2026-04-18T12:59:52.77Z</time></trkpt><trkpt lat="43.059965" lon="11.5935633"><ele>363.6666666666667</ele><time>2026-04-18T12:59:53.765Z</time></trkpt><trkpt lat="43.0600333" lon="11.5932817"><ele>358.33333333333337</ele><time>2026-04-18T12:59:54.765Z</time></trkpt><trkpt lat="43.0601083" lon="11.5930067"><ele>353.0</ele><time>2026-04-18T12:59:55.768Z</time></trkpt><trkpt lat="43.0601933" lon="11.59274"><ele>350.6666666666667</ele><time>2026-04-18T12:59:56.77Z</time></trkpt><trkpt lat="43.0602867" lon="11.59248"><ele>348.3333333333333</ele><time>2026-04-18T12:59:57.769Z</time></trkpt><trkpt lat="43.0603917" lon="11.5922233"><ele>346.0</ele><time>2026-04-18T12:59:58.764Z</time></trkpt><trkpt lat="43.0605033" lon="11.5919733"><ele>345.0</ele><time>2026-04-18T12:59:59.765Z</time></trkpt><trkpt lat="43.06062" lon="11.5917267"><ele>344.0</ele><time>2026-04-18T13:00:00.765Z</time></trkpt><trkpt lat="43.0607433" lon="11.5914833"><ele>343.0</ele><time>2026-04-18T13:00:01.762Z</time></trkpt><trkpt lat="43.06087" lon="11.5912417"><ele>344.0</ele><time>2026-04-18T13:00:02.768Z</time></trkpt><trkpt lat="43.0609983" lon="11.591"><ele>345.0</ele><time>2026-04-18T13:00:03.766Z</time></trkpt><trkpt lat="43.06113" lon="11.5907583"><ele>346.0</ele><time>2026-04-18T13:00:04.763Z</time></trkpt><trkpt lat="43.0612583" lon="11.5905167"><ele>348.0</ele><time>2026-04-18T13:00:05.766Z</time></trkpt><trkpt lat="43.0613833" lon="11.5902733"><ele>350.0</ele><time>2026-04-18T13:00:06.766Z</time></trkpt><trkpt lat="43.061505" lon="11.590025"><ele>352.0</ele><time>2026-04-18T13:00:07.765Z</time></trkpt><trkpt lat="43.0616217" lon="11.58977"><ele>348.66666666666663</ele><time>2026-04-18T13:00:08.764Z</time></trkpt><trkpt lat="43.0617317" lon="11.5895067"><ele>345.3333333333333</ele><time>2026-04-18T13:00:09.763Z</time></trkpt><trkpt lat="43.061835" lon="11.5892417"><ele>342.0</ele><time>2026-04-18T13:00:10.762Z</time></trkpt><trkpt lat="43.0619317" lon="11.588975"><ele>342.0</ele><time>2026-04-18T13:00:11.77Z</time></trkpt><trkpt lat="43.0620233" lon="11.5887067"><ele>342.0</ele><time>2026-04-18T13:00:12.762Z</time></trkpt><trkpt lat="43.0621117" lon="11.588435"><ele>342.0</ele><time>2026-04-18T13:00:13.764Z</time></trkpt><trkpt lat="43.0621967" lon="11.58816"><ele>341.3333333333333</ele><time>2026-04-18T13:00:14.77Z</time></trkpt><trkpt lat="43.06228" lon="11.5878917"><ele>340.66666666666663</ele><time>2026-04-18T13:00:15.769Z</time></trkpt><trkpt lat="43.0623733" lon="11.587625"><ele>340.0</ele><time>2026-04-18T13:00:16.766Z</time></trkpt><trkpt lat="43.062475" lon="11.5873617"><ele>335.66666666666663</ele><time>2026-04-18T13:00:17.765Z</time></trkpt><trkpt lat="43.0625883" lon="11.5871117"><ele>331.3333333333333</ele><time>2026-04-18T13:00:18.768Z</time></trkpt><trkpt lat="43.0627083" lon="11.586875"><ele>327.0</ele><time>2026-04-18T13:00:19.771Z</time></trkpt><trkpt lat="43.0628317" lon="11.58665"><ele>327.0</ele><time>2026-04-18T13:00:20.769Z</time></trkpt><trkpt lat="43.0629583" lon="11.5864383"><ele>327.0</ele><time>2026-04-18T13:00:21.77Z</time></trkpt><trkpt lat="43.063095" lon="11.5862383"><ele>327.0</ele><time>2026-04-18T13:00:22.768Z</time></trkpt><trkpt lat="43.0632367" lon="11.58605"><ele>324.6666666666667</ele><time>2026-04-18T13:00:23.767Z</time></trkpt><trkpt lat="43.063385" lon="11.5858667"><ele>322.33333333333337</ele><time>2026-04-18T13:00:24.768Z</time></trkpt><trkpt lat="43.06354" lon="11.5856933"><ele>320.0</ele><time>2026-04-18T13:00:25.769Z</time></trkpt><trkpt lat="43.0637017" lon="11.58553"><ele>320.0</ele><time>2026-04-18T13:00:26.77Z</time></trkpt><trkpt lat="43.0638667" lon="11.58538"><ele>320.0</ele><time>2026-04-18T13:00:27.764Z</time></trkpt><trkpt lat="43.0640383" lon="11.5852383"><ele>320.0</ele><time>2026-04-18T13:00:28.768Z</time></trkpt><trkpt lat="43.0642183" lon="11.585105"><ele>320.0</ele><time>2026-04-18T13:00:29.769Z</time></trkpt><trkpt lat="43.0644017" lon="11.58498"><ele>320.0</ele><time>2026-04-18T13:00:30.766Z</time></trkpt><trkpt lat="43.06459" lon="11.5848617"><ele>320.0</ele><time>2026-04-18T13:00:31.765Z</time></trkpt><trkpt lat="43.0647817" lon="11.584745"><ele>318.6666666666667</ele><time>2026-04-18T13:00:32.769Z</time></trkpt><trkpt lat="43.0649733" lon="11.5846283"><ele>317.3333333333333</ele><time>2026-04-18T13:00:33.768Z</time></trkpt><trkpt lat="43.0651583" lon="11.5845167"><ele>316.0</ele><time>2026-04-18T13:00:34.763Z</time></trkpt><trkpt lat="43.0653433" lon="11.5844067"><ele>316.0</ele><time>2026-04-18T13:00:35.765Z</time></trkpt><trkpt lat="43.065525" lon="11.5842983"><ele>316.0</ele><time>2026-04-18T13:00:36.765Z</time></trkpt><trkpt lat="43.065705" lon="11.5841833"><ele>316.0</ele><time>2026-04-18T13:00:37.766Z</time></trkpt><trkpt lat="43.0658883" lon="11.584075"><ele>313.0</ele><time>2026-04-18T13:00:38.769Z</time></trkpt><trkpt lat="43.0660717" lon="11.5839733"><ele>310.0</ele><time>2026-04-18T13:00:39.765Z</time></trkpt><trkpt lat="43.06625" lon="11.5838767"><ele>307.0</ele><time>2026-04-18T13:00:40.767Z</time></trkpt><trkpt lat="43.0664183" lon="11.5837867"><ele>307.0</ele><time>2026-04-18T13:00:41.77Z</time></trkpt><trkpt lat="43.066575" lon="11.5836983"><ele>307.0</ele><time>2026-04-18T13:00:42.764Z</time></trkpt><trkpt lat="43.0667217" lon="11.58361"><ele>307.0</ele><time>2026-04-18T13:00:43.768Z</time></trkpt><trkpt lat="43.0668733" lon="11.583515"><ele>307.66666666666663</ele><time>2026-04-18T13:00:44.772Z</time></trkpt><trkpt lat="43.0670283" lon="11.58341"><ele>308.3333333333333</ele><time>2026-04-18T13:00:45.768Z</time></trkpt><trkpt lat="43.06719" lon="11.5833033"><ele>309.0</ele><time>2026-04-18T13:00:46.769Z</time></trkpt><trkpt lat="43.0673467" lon="11.5831967"><ele>308.0</ele><time>2026-04-18T13:00:47.768Z</time></trkpt><trkpt lat="43.067505" lon="11.5830817"><ele>307.0</ele><time>2026-04-18T13:00:48.77Z</time></trkpt><trkpt lat="43.0676683" lon="11.582955"><ele>306.0</ele><time>2026-04-18T13:00:49.769Z</time></trkpt><trkpt lat="43.0678333" lon="11.5828167"><ele>306.0</ele><time>2026-04-18T13:00:50.771Z</time></trkpt><trkpt lat="43.067995" lon="11.5826767"><ele>306.0</ele><time>2026-04-18T13:00:51.77Z</time></trkpt><trkpt lat="43.068145" lon="11.582535"><ele>306.0</ele><time>2026-04-18T13:00:52.77Z</time></trkpt><trkpt lat="43.0682867" lon="11.58239"><ele>303.3333333333333</ele><time>2026-04-18T13:00:53.768Z</time></trkpt><trkpt lat="43.068425" lon="11.5822433"><ele>300.66666666666663</ele><time>2026-04-18T13:00:54.768Z</time></trkpt><trkpt lat="43.06856" lon="11.5820933"><ele>298.0</ele><time>2026-04-18T13:00:55.77Z</time></trkpt><trkpt lat="43.0686883" lon="11.5819367"><ele>298.0</ele><time>2026-04-18T13:00:56.77Z</time></trkpt><trkpt lat="43.068815" lon="11.5817667"><ele>298.0</ele><time>2026-04-18T13:00:57.769Z</time></trkpt><trkpt lat="43.0689467" lon="11.5815883"><ele>298.0</ele><time>2026-04-18T13:00:58.763Z</time></trkpt><trkpt lat="43.0690767" lon="11.5813983"><ele>295.3333333333333</ele><time>2026-04-18T13:00:59.764Z</time></trkpt><trkpt lat="43.0691983" lon="11.5812017"><ele>292.6666666666667</ele><time>2026-04-18T13:01:00.766Z</time></trkpt><trkpt lat="43.0693167" lon="11.5809983"><ele>290.0</ele><time>2026-04-18T13:01:01.767Z</time></trkpt><trkpt lat="43.0694267" lon="11.5807917"><ele>289.33333333333337</ele><time>2026-04-18T13:01:02.77Z</time></trkpt><trkpt lat="43.0695283" lon="11.580585"><ele>288.6666666666667</ele><time>2026-04-18T13:01:03.765Z</time></trkpt><trkpt lat="43.0696217" lon="11.580375"><ele>288.0</ele><time>2026-04-18T13:01:04.764Z</time></trkpt><trkpt lat="43.0697083" lon="11.5801617"><ele>287.0</ele><time>2026-04-18T13:01:05.765Z</time></trkpt><trkpt lat="43.0697883" lon="11.57995"><ele>286.0</ele><time>2026-04-18T13:01:06.771Z</time></trkpt><trkpt lat="43.06986" lon="11.5797417"><ele>285.0</ele><time>2026-04-18T13:01:07.767Z</time></trkpt><trkpt lat="43.06993" lon="11.5795317"><ele>281.3333333333333</ele><time>2026-04-18T13:01:08.77Z</time></trkpt><trkpt lat="43.06999" lon="11.5793167"><ele>277.66666666666663</ele><time>2026-04-18T13:01:09.765Z</time></trkpt><trkpt lat="43.0700433" lon="11.5791017"><ele>274.0</ele><time>2026-04-18T13:01:10.77Z</time></trkpt><trkpt lat="43.0700883" lon="11.5788867"><ele>271.0</ele><time>2026-04-18T13:01:11.768Z</time></trkpt><trkpt lat="43.0701283" lon="11.5786783"><ele>268.0</ele><time>2026-04-18T13:01:12.769Z</time></trkpt><trkpt lat="43.070165" lon="11.5784733"><ele>265.0</ele><time>2026-04-18T13:01:13.769Z</time></trkpt><trkpt lat="43.0701933" lon="11.5782683"><ele>265.0</ele><time>2026-04-18T13:01:14.772Z</time></trkpt><trkpt lat="43.0702167" lon="11.5780567"><ele>265.0</ele><time>2026-04-18T13:01:15.772Z</time></trkpt><trkpt lat="43.0702333" lon="11.577835"><ele>265.0</ele><time>2026-04-18T13:01:16.769Z</time></trkpt><trkpt lat="43.0702417" lon="11.577605"><ele>262.3333333333333</ele><time>2026-04-18T13:01:17.763Z</time></trkpt><trkpt lat="43.0702417" lon="11.5773633"><ele>259.6666666666667</ele><time>2026-04-18T13:01:18.765Z</time></trkpt><trkpt lat="43.0702317" lon="11.5771083"><ele>257.0</ele><time>2026-04-18T13:01:19.766Z</time></trkpt><trkpt lat="43.0702167" lon="11.576835"><ele>254.66666666666669</ele><time>2026-04-18T13:01:20.767Z</time></trkpt><trkpt lat="43.0701983" lon="11.5765517"><ele>252.33333333333331</ele><time>2026-04-18T13:01:21.768Z</time></trkpt><trkpt lat="43.0701683" lon="11.5762633"><ele>250.0</ele><time>2026-04-18T13:01:22.766Z</time></trkpt><trkpt lat="43.0701333" lon="11.5759683"><ele>249.33333333333331</ele><time>2026-04-18T13:01:23.771Z</time></trkpt><trkpt lat="43.0700883" lon="11.575675"><ele>248.66666666666669</ele><time>2026-04-18T13:01:24.772Z</time></trkpt><trkpt lat="43.0700317" lon="11.5753833"><ele>248.0</ele><time>2026-04-18T13:01:25.77Z</time></trkpt><trkpt lat="43.069965" lon="11.5750967"><ele>247.0</ele><time>2026-04-18T13:01:26.772Z</time></trkpt><trkpt lat="43.069885" lon="11.5748183"><ele>246.0</ele><time>2026-04-18T13:01:27.768Z</time></trkpt><trkpt lat="43.0698" lon="11.57454"><ele>245.0</ele><time>2026-04-18T13:01:28.764Z</time></trkpt><trkpt lat="43.0697067" lon="11.57427"><ele>244.66666666666669</ele><time>2026-04-18T13:01:29.766Z</time></trkpt><trkpt lat="43.0696083" lon="11.57401"><ele>244.33333333333331</ele><time>2026-04-18T13:01:30.769Z</time></trkpt><trkpt lat="43.0695017" lon="11.5737567"><ele>244.0</ele><time>2026-04-18T13:01:31.765Z</time></trkpt><trkpt lat="43.0693883" lon="11.5735067"><ele>244.33333333333331</ele><time>2026-04-18T13:01:32.771Z</time></trkpt><trkpt lat="43.0692683" lon="11.573265"><ele>244.66666666666669</ele><time>2026-04-18T13:01:33.765Z</time></trkpt><trkpt lat="43.069145" lon="11.57303"><ele>245.0</ele><time>2026-04-18T13:01:34.764Z</time></trkpt><trkpt lat="43.069015" lon="11.5728"><ele>245.0</ele><time>2026-04-18T13:01:35.77Z</time></trkpt><trkpt lat="43.0688867" lon="11.5725783"><ele>245.0</ele><time>2026-04-18T13:01:36.766Z</time></trkpt><trkpt lat="43.0687617" lon="11.57237"><ele>245.0</ele><time>2026-04-18T13:01:37.765Z</time></trkpt><trkpt lat="43.0686417" lon="11.572175"><ele>246.0</ele><time>2026-04-18T13:01:38.768Z</time></trkpt><trkpt lat="43.0685233" lon="11.57199"><ele>247.0</ele><time>2026-04-18T13:01:39.767Z</time></trkpt><trkpt lat="43.0684067" lon="11.57181"><ele>248.0</ele><time>2026-04-18T13:01:40.765Z</time></trkpt><trkpt lat="43.06829" lon="11.5716383"><ele>248.33333333333334</ele><time>2026-04-18T13:01:41.771Z</time></trkpt><trkpt lat="43.0681783" lon="11.5714733"><ele>248.66666666666669</ele><time>2026-04-18T13:01:42.77Z</time></trkpt><trkpt lat="43.0680683" lon="11.571315"><ele>249.0</ele><time>2026-04-18T13:01:43.767Z</time></trkpt><trkpt lat="43.06796" lon="11.5711567"><ele>249.0</ele><time>2026-04-18T13:01:44.773Z</time></trkpt><trkpt lat="43.0678517" lon="11.5709983"><ele>249.0</ele><time>2026-04-18T13:01:45.769Z</time></trkpt><trkpt lat="43.06774" lon="11.5708383"><ele>249.0</ele><time>2026-04-18T13:01:46.764Z</time></trkpt><trkpt lat="43.0676217" lon="11.57067"><ele>249.0</ele><time>2026-04-18T13:01:47.769Z</time></trkpt><trkpt lat="43.0674967" lon="11.570495"><ele>249.0</ele><time>2026-04-18T13:01:48.768Z</time></trkpt><trkpt lat="43.0673667" lon="11.5703083"><ele>249.0</ele><time>2026-04-18T13:01:49.766Z</time></trkpt><trkpt lat="43.0672267" lon="11.5701133"><ele>248.66666666666669</ele><time>2026-04-18T13:01:50.772Z</time></trkpt><trkpt lat="43.0670833" lon="11.56992"><ele>248.33333333333334</ele><time>2026-04-18T13:01:51.77Z</time></trkpt><trkpt lat="43.0669417" lon="11.5697267"><ele>248.0</ele><time>2026-04-18T13:01:52.768Z</time></trkpt><trkpt lat="43.0668" lon="11.56953"><ele>249.0</ele><time>2026-04-18T13:01:53.768Z</time></trkpt><trkpt lat="43.066655" lon="11.5693283"><ele>250.0</ele><time>2026-04-18T13:01:54.769Z</time></trkpt><trkpt lat="43.0665117" lon="11.5691233"><ele>251.0</ele><time>2026-04-18T13:01:55.764Z</time></trkpt><trkpt lat="43.0663683" lon="11.5689133"><ele>248.66666666666669</ele><time>2026-04-18T13:01:56.772Z</time></trkpt><trkpt lat="43.06623" lon="11.5687117"><ele>246.33333333333331</ele><time>2026-04-18T13:01:57.769Z</time></trkpt><trkpt lat="43.0661" lon="11.5685167"><ele>244.0</ele><time>2026-04-18T13:01:58.766Z</time></trkpt><trkpt lat="43.06597" lon="11.568325"><ele>244.0</ele><time>2026-04-18T13:01:59.767Z</time></trkpt><trkpt lat="43.0658417" lon="11.5681383"><ele>244.0</ele><time>2026-04-18T13:02:00.769Z</time></trkpt><trkpt lat="43.06571" lon="11.56795"><ele>244.0</ele><time>2026-04-18T13:02:01.77Z</time></trkpt><trkpt lat="43.065565" lon="11.567755"><ele>244.5</ele><time>2026-04-18T13:02:02.766Z</time></trkpt><trkpt lat="43.0653967" lon="11.56753"><ele>245.0</ele><time>2026-04-18T13:02:03.764Z</time></trkpt><trkpt lat="43.065215" lon="11.567265"><ele>246.0</ele><time>2026-04-18T13:02:04.767Z</time></trkpt><trkpt lat="43.065005" lon="11.566935"><ele>247.0</ele><time>2026-04-18T13:02:05.769Z</time></trkpt><trkpt lat="43.06479" lon="11.5665583"><ele>249.0</ele><time>2026-04-18T13:02:06.769Z</time></trkpt><trkpt lat="43.0645783" lon="11.5661533"><ele>251.0</ele><time>2026-04-18T13:02:07.769Z</time></trkpt><trkpt lat="43.0643967" lon="11.5657483"><ele>252.0</ele><time>2026-04-18T13:02:08.77Z</time></trkpt><trkpt lat="43.064245" lon="11.5653583"><ele>253.0</ele><time>2026-04-18T13:02:09.765Z</time></trkpt><trkpt lat="43.06412" lon="11.56497"><ele>249.0</ele><time>2026-04-18T13:02:10.769Z</time></trkpt><trkpt lat="43.0640117" lon="11.5645833"><ele>245.0</ele><time>2026-04-18T13:02:11.771Z</time></trkpt><trkpt lat="43.0639283" lon="11.5641933"><ele>244.5</ele><time>2026-04-18T13:02:12.769Z</time></trkpt><trkpt lat="43.063865" lon="11.5638033"><ele>244.0</ele><time>2026-04-18T13:02:13.77Z</time></trkpt><trkpt lat="43.0638233" lon="11.5634117"><ele>243.5</ele><time>2026-04-18T13:02:14.77Z</time></trkpt><trkpt lat="43.0637983" lon="11.563025"><ele>243.0</ele><time>2026-04-18T13:02:15.766Z</time></trkpt><trkpt lat="43.06379" lon="11.56264"><ele>244.5</ele><time>2026-04-18T13:02:16.768Z</time></trkpt><trkpt lat="43.0637967" lon="11.5622667"><ele>246.0</ele><time>2026-04-18T13:02:17.77Z</time></trkpt><trkpt lat="43.0638067" lon="11.561905"><ele>249.5</ele><time>2026-04-18T13:02:18.765Z</time></trkpt><trkpt lat="43.0638283" lon="11.5615467"><ele>253.0</ele><time>2026-04-18T13:02:19.77Z</time></trkpt><trkpt lat="43.0638517" lon="11.56119"><ele>257.5</ele><time>2026-04-18T13:02:20.772Z</time></trkpt><trkpt lat="43.0638767" lon="11.56084"><ele>262.0</ele><time>2026-04-18T13:02:21.769Z</time></trkpt><trkpt lat="43.0639033" lon="11.5604933"><ele>260.5</ele><time>2026-04-18T13:02:22.767Z</time></trkpt><trkpt lat="43.0639317" lon="11.560145"><ele>259.0</ele><time>2026-04-18T13:02:23.768Z</time></trkpt><trkpt lat="43.0639567" lon="11.5597917"><ele>255.5</ele><time>2026-04-18T13:02:24.767Z</time></trkpt><trkpt lat="43.06398" lon="11.5594317"><ele>252.0</ele><time>2026-04-18T13:02:25.769Z</time></trkpt><trkpt lat="43.064005" lon="11.5590683"><ele>250.0</ele><time>2026-04-18T13:02:26.77Z</time></trkpt><trkpt lat="43.0640283" lon="11.5587"><ele>248.0</ele><time>2026-04-18T13:02:27.771Z</time></trkpt><trkpt lat="43.0640567" lon="11.5583217"><ele>248.0</ele><time>2026-04-18T13:02:28.767Z</time></trkpt><trkpt lat="43.064085" lon="11.55794"><ele>248.0</ele><time>2026-04-18T13:02:29.764Z</time></trkpt><trkpt lat="43.0641133" lon="11.5575583"><ele>247.5</ele><time>2026-04-18T13:02:30.769Z</time></trkpt><trkpt lat="43.0641383" lon="11.5571867"><ele>247.0</ele><time>2026-04-18T13:02:31.768Z</time></trkpt><trkpt lat="43.0641633" lon="11.5568183"><ele>247.0</ele><time>2026-04-18T13:02:32.77Z</time></trkpt><trkpt lat="43.06419" lon="11.556455"><ele>247.0</ele><time>2026-04-18T13:02:33.768Z</time></trkpt><trkpt lat="43.0642217" lon="11.5560917"><ele>248.5</ele><time>2026-04-18T13:02:34.764Z</time></trkpt><trkpt lat="43.06427" lon="11.5557267"><ele>250.0</ele><time>2026-04-18T13:02:35.766Z</time></trkpt><trkpt lat="43.0643317" lon="11.5553633"><ele>250.0</ele><time>2026-04-18T13:02:36.77Z</time></trkpt><trkpt lat="43.0644117" lon="11.555"><ele>250.0</ele><time>2026-04-18T13:02:37.768Z</time></trkpt><trkpt lat="43.0645067" lon="11.5546233"><ele>245.5</ele><time>2026-04-18T13:02:38.77Z</time></trkpt><trkpt lat="43.06462" lon="11.55422"><ele>241.0</ele><time>2026-04-18T13:02:39.765Z</time></trkpt><trkpt lat="43.064745" lon="11.5537767"><ele>238.0</ele><time>2026-04-18T13:02:40.763Z</time></trkpt><trkpt lat="43.06489" lon="11.553295"><ele>235.0</ele><time>2026-04-18T13:02:41.771Z</time></trkpt><trkpt lat="43.0650517" lon="11.5527617"><ele>235.0</ele><time>2026-04-18T13:02:42.77Z</time></trkpt><trkpt lat="43.0652317" lon="11.5522033"><ele>235.0</ele><time>2026-04-18T13:02:43.77Z</time></trkpt><trkpt lat="43.0654083" lon="11.5516633"><ele>233.5</ele><time>2026-04-18T13:02:44.772Z</time></trkpt><trkpt lat="43.0655683" lon="11.55117"><ele>232.0</ele><time>2026-04-18T13:02:45.771Z</time></trkpt><trkpt lat="43.06572" lon="11.5507133"><ele>234.5</ele><time>2026-04-18T13:02:46.77Z</time></trkpt><trkpt lat="43.0658667" lon="11.5502917"><ele>237.0</ele><time>2026-04-18T13:02:47.77Z</time></trkpt><trkpt lat="43.0660167" lon="11.5499083"><ele>237.0</ele><time>2026-04-18T13:02:48.768Z</time></trkpt><trkpt lat="43.0661733" lon="11.54955"><ele>237.0</ele><time>2026-04-18T13:02:49.769Z</time></trkpt><trkpt lat="43.0663433" lon="11.5492117"><ele>237.5</ele><time>2026-04-18T13:02:50.771Z</time></trkpt><trkpt lat="43.0665283" lon="11.5488967"><ele>238.0</ele><time>2026-04-18T13:02:51.77Z</time></trkpt><trkpt lat="43.0667233" lon="11.5486067"><ele>239.5</ele><time>2026-04-18T13:02:52.767Z</time></trkpt><trkpt lat="43.0669317" lon="11.5483383"><ele>241.0</ele><time>2026-04-18T13:02:53.77Z</time></trkpt><trkpt lat="43.0671467" lon="11.5480917"><ele>240.5</ele><time>2026-04-18T13:02:54.77Z</time></trkpt><trkpt lat="43.0673683" lon="11.547875"><ele>240.0</ele><time>2026-04-18T13:02:55.767Z</time></trkpt><trkpt lat="43.0675983" lon="11.5476783"><ele>239.5</ele><time>2026-04-18T13:02:56.774Z</time></trkpt><trkpt lat="43.0678317" lon="11.5474967"><ele>239.0</ele><time>2026-04-18T13:02:57.769Z</time></trkpt><trkpt lat="43.0680717" lon="11.54733"><ele>240.5</ele><time>2026-04-18T13:02:58.768Z</time></trkpt><trkpt lat="43.0683183" lon="11.5471883"><ele>242.0</ele><time>2026-04-18T13:02:59.769Z</time></trkpt><trkpt lat="43.0685733" lon="11.5470733"><ele>244.0</ele><time>2026-04-18T13:03:00.766Z</time></trkpt><trkpt lat="43.0688333" lon="11.5469783"><ele>246.0</ele><time>2026-04-18T13:03:01.769Z</time></trkpt><trkpt lat="43.0691017" lon="11.5469083"><ele>246.5</ele><time>2026-04-18T13:03:02.769Z</time></trkpt><trkpt lat="43.0693717" lon="11.54686"><ele>247.0</ele><time>2026-04-18T13:03:03.768Z</time></trkpt><trkpt lat="43.0696417" lon="11.546835"><ele>247.0</ele><time>2026-04-18T13:03:04.767Z</time></trkpt><trkpt lat="43.0699133" lon="11.5468283"><ele>247.0</ele><time>2026-04-18T13:03:05.767Z</time></trkpt><trkpt lat="43.0701817" lon="11.546845"><ele>245.0</ele><time>2026-04-18T13:03:06.766Z</time></trkpt><trkpt lat="43.07045" lon="11.5468883"><ele>243.0</ele><time>2026-04-18T13:03:07.767Z</time></trkpt><trkpt lat="43.070715" lon="11.5469533"><ele>242.5</ele><time>2026-04-18T13:03:08.768Z</time></trkpt><trkpt lat="43.07098" lon="11.5470267"><ele>242.0</ele><time>2026-04-18T13:03:09.771Z</time></trkpt><trkpt lat="43.0712417" lon="11.547105"><ele>242.0</ele><time>2026-04-18T13:03:10.765Z</time></trkpt><trkpt lat="43.0715033" lon="11.5471867"><ele>242.0</ele><time>2026-04-18T13:03:11.766Z</time></trkpt><trkpt lat="43.0717617" lon="11.5472683"><ele>241.5</ele><time>2026-04-18T13:03:12.76Z</time></trkpt><trkpt lat="43.07202" lon="11.547345"><ele>241.0</ele><time>2026-04-18T13:03:13.769Z</time></trkpt><trkpt lat="43.0722833" lon="11.5474167"><ele>242.5</ele><time>2026-04-18T13:03:14.773Z</time></trkpt><trkpt lat="43.072545" lon="11.5474783"><ele>244.0</ele><time>2026-04-18T13:03:15.766Z</time></trkpt><trkpt lat="43.07281" lon="11.5475233"><ele>244.0</ele><time>2026-04-18T13:03:16.77Z</time></trkpt><trkpt lat="43.073075" lon="11.5475383"><ele>244.0</ele><time>2026-04-18T13:03:17.77Z</time></trkpt><trkpt lat="43.073335" lon="11.547535"><ele>246.0</ele><time>2026-04-18T13:03:18.765Z</time></trkpt><trkpt lat="43.073595" lon="11.547515"><ele>248.0</ele><time>2026-04-18T13:03:19.766Z</time></trkpt><trkpt lat="43.0738567" lon="11.54748"><ele>248.5</ele><time>2026-04-18T13:03:20.768Z</time></trkpt><trkpt lat="43.0741167" lon="11.5474317"><ele>249.0</ele><time>2026-04-18T13:03:21.77Z</time></trkpt><trkpt lat="43.0743783" lon="11.547375"><ele>249.0</ele><time>2026-04-18T13:03:22.768Z</time></trkpt><trkpt lat="43.0746417" lon="11.5473133"><ele>249.0</ele><time>2026-04-18T13:03:23.768Z</time></trkpt><trkpt lat="43.074905" lon="11.5472483"><ele>248.0</ele><time>2026-04-18T13:03:24.77Z</time></trkpt><trkpt lat="43.07517" lon="11.54718"><ele>247.0</ele><time>2026-04-18T13:03:25.769Z</time></trkpt><trkpt lat="43.0754333" lon="11.5471117"><ele>248.5</ele><time>2026-04-18T13:03:26.77Z</time></trkpt><trkpt lat="43.0756867" lon="11.5470433"><ele>250.0</ele><time>2026-04-18T13:03:27.767Z</time></trkpt><trkpt lat="43.0759383" lon="11.546975"><ele>250.0</ele><time>2026-04-18T13:03:28.766Z</time></trkpt><trkpt lat="43.0761933" lon="11.546915"><ele>250.0</ele><time>2026-04-18T13:03:29.77Z</time></trkpt><trkpt lat="43.07644" lon="11.5468533"><ele>248.0</ele><time>2026-04-18T13:03:30.764Z</time></trkpt><trkpt lat="43.076685" lon="11.54679"><ele>246.0</ele><time>2026-04-18T13:03:31.768Z</time></trkpt><trkpt lat="43.0769267" lon="11.5467283"><ele>246.0</ele><time>2026-04-18T13:03:32.77Z</time></trkpt><trkpt lat="43.0771683" lon="11.54667"><ele>246.0</ele><time>2026-04-18T13:03:33.77Z</time></trkpt><trkpt lat="43.0774117" lon="11.54662"><ele>244.5</ele><time>2026-04-18T13:03:34.767Z</time></trkpt><trkpt lat="43.0776533" lon="11.546585"><ele>243.0</ele><time>2026-04-18T13:03:35.77Z</time></trkpt><trkpt lat="43.0778983" lon="11.5465683"><ele>243.0</ele><time>2026-04-18T13:03:36.765Z</time></trkpt><trkpt lat="43.078135" lon="11.5465633"><ele>243.0</ele><time>2026-04-18T13:03:37.77Z</time></trkpt><trkpt lat="43.0783733" lon="11.546575"><ele>243.0</ele><time>2026-04-18T13:03:38.766Z</time></trkpt><trkpt lat="43.0786083" lon="11.5466067"><ele>243.0</ele><time>2026-04-18T13:03:39.767Z</time></trkpt><trkpt lat="43.0788433" lon="11.5466533"><ele>243.0</ele><time>2026-04-18T13:03:40.764Z</time></trkpt><trkpt lat="43.0790767" lon="11.5467167"><ele>243.0</ele><time>2026-04-18T13:03:41.771Z</time></trkpt><trkpt lat="43.0793083" lon="11.546795"><ele>243.5</ele><time>2026-04-18T13:03:42.769Z</time></trkpt><trkpt lat="43.0795367" lon="11.5468833"><ele>244.0</ele><time>2026-04-18T13:03:43.768Z</time></trkpt><trkpt lat="43.0797683" lon="11.5469733"><ele>244.0</ele><time>2026-04-18T13:03:44.772Z</time></trkpt><trkpt lat="43.0799917" lon="11.5470667"><ele>244.0</ele><time>2026-04-18T13:03:45.77Z</time></trkpt><trkpt lat="43.0802167" lon="11.5471517"><ele>244.0</ele><time>2026-04-18T13:03:46.768Z</time></trkpt><trkpt lat="43.0804417" lon="11.5472217"><ele>244.0</ele><time>2026-04-18T13:03:47.766Z</time></trkpt><trkpt lat="43.08067" lon="11.547275"><ele>246.5</ele><time>2026-04-18T13:03:48.767Z</time></trkpt><trkpt lat="43.0809017" lon="11.54731"><ele>249.0</ele><time>2026-04-18T13:03:49.769Z</time></trkpt><trkpt lat="43.08113" lon="11.5473283"><ele>249.0</ele><time>2026-04-18T13:03:50.766Z</time></trkpt><trkpt lat="43.0813567" lon="11.54733"><ele>249.0</ele><time>2026-04-18T13:03:51.769Z</time></trkpt><trkpt lat="43.0815817" lon="11.5473133"><ele>250.0</ele><time>2026-04-18T13:03:52.765Z</time></trkpt><trkpt lat="43.081805" lon="11.54728"><ele>251.0</ele><time>2026-04-18T13:03:53.769Z</time></trkpt><trkpt lat="43.08203" lon="11.5472317"><ele>251.0</ele><time>2026-04-18T13:03:54.77Z</time></trkpt><trkpt lat="43.0822533" lon="11.5471683"><ele>251.0</ele><time>2026-04-18T13:03:55.766Z</time></trkpt><trkpt lat="43.082475" lon="11.5470917"><ele>256.0</ele><time>2026-04-18T13:03:56.769Z</time></trkpt><trkpt lat="43.0826867" lon="11.5469917"><ele>261.0</ele><time>2026-04-18T13:03:57.767Z</time></trkpt><trkpt lat="43.082895" lon="11.5468733"><ele>266.0</ele><time>2026-04-18T13:03:58.765Z</time></trkpt><trkpt lat="43.0830933" lon="11.5467383"><ele>264.6666666666667</ele><time>2026-04-18T13:03:59.767Z</time></trkpt><trkpt lat="43.0832783" lon="11.546595"><ele>263.3333333333333</ele><time>2026-04-18T13:04:00.769Z</time></trkpt><trkpt lat="43.0834567" lon="11.5464517"><ele>262.0</ele><time>2026-04-18T13:04:01.771Z</time></trkpt><trkpt lat="43.0836267" lon="11.5463033"><ele>264.0</ele><time>2026-04-18T13:04:02.771Z</time></trkpt><trkpt lat="43.0837867" lon="11.5461467"><ele>266.0</ele><time>2026-04-18T13:04:03.766Z</time></trkpt><trkpt lat="43.0839383" lon="11.545985"><ele>268.0</ele><time>2026-04-18T13:04:04.766Z</time></trkpt><trkpt lat="43.0840867" lon="11.5458167"><ele>267.0</ele><time>2026-04-18T13:04:05.767Z</time></trkpt><trkpt lat="43.08423" lon="11.545635"><ele>266.0</ele><time>2026-04-18T13:04:06.768Z</time></trkpt><trkpt lat="43.0843667" lon="11.5454433"><ele>265.0</ele><time>2026-04-18T13:04:07.766Z</time></trkpt><trkpt lat="43.084495" lon="11.5452467"><ele>265.0</ele><time>2026-04-18T13:04:08.769Z</time></trkpt><trkpt lat="43.0846167" lon="11.545045"><ele>265.0</ele><time>2026-04-18T13:04:09.762Z</time></trkpt><trkpt lat="43.0847367" lon="11.5448367"><ele>265.0</ele><time>2026-04-18T13:04:10.769Z</time></trkpt><trkpt lat="43.0848567" lon="11.544625"><ele>266.66666666666663</ele><time>2026-04-18T13:04:11.771Z</time></trkpt><trkpt lat="43.0849767" lon="11.544415"><ele>268.3333333333333</ele><time>2026-04-18T13:04:12.765Z</time></trkpt><trkpt lat="43.0850967" lon="11.544205"><ele>270.0</ele><time>2026-04-18T13:04:13.755Z</time></trkpt><trkpt lat="43.0852167" lon="11.543995"><ele>256.0</ele><time>2026-04-18T13:04:14.759Z</time></trkpt><trkpt lat="43.0860133" lon="11.5426833"><ele>256.0</ele><time>2026-04-18T13:04:22.77Z</time></trkpt><trkpt lat="43.086165" lon="11.542525"><ele>256.0</ele><time>2026-04-18T13:04:23.769Z</time></trkpt><trkpt lat="43.08628" lon="11.5423717"><ele>256.0</ele><time>2026-04-18T13:04:24.768Z</time></trkpt><trkpt lat="43.086455" lon="11.5423"><ele>255.33333333333331</ele><time>2026-04-18T13:04:25.769Z</time></trkpt><trkpt lat="43.0866117" lon="11.5421767"><ele>254.66666666666669</ele><time>2026-04-18T13:04:26.769Z</time></trkpt><trkpt lat="43.0867817" lon="11.5420633"><ele>254.0</ele><time>2026-04-18T13:04:27.769Z</time></trkpt><trkpt lat="43.0869533" lon="11.541955"><ele>249.66666666666669</ele><time>2026-04-18T13:04:28.768Z</time></trkpt><trkpt lat="43.0871333" lon="11.5418433"><ele>245.33333333333331</ele><time>2026-04-18T13:04:29.767Z</time></trkpt><trkpt lat="43.08732" lon="11.5417367"><ele>241.0</ele><time>2026-04-18T13:04:30.77Z</time></trkpt><trkpt lat="43.087515" lon="11.5416283"><ele>240.5</ele><time>2026-04-18T13:04:31.77Z</time></trkpt><trkpt lat="43.0877233" lon="11.541515"><ele>240.0</ele><time>2026-04-18T13:04:32.77Z</time></trkpt><trkpt lat="43.087935" lon="11.5414067"><ele>240.0</ele><time>2026-04-18T13:04:33.77Z</time></trkpt><trkpt lat="43.08815" lon="11.5413033"><ele>240.0</ele><time>2026-04-18T13:04:34.766Z</time></trkpt><trkpt lat="43.088365" lon="11.5412033"><ele>233.5</ele><time>2026-04-18T13:04:35.768Z</time></trkpt><trkpt lat="43.0885833" lon="11.5411017"><ele>227.0</ele><time>2026-04-18T13:04:36.764Z</time></trkpt><trkpt lat="43.0888033" lon="11.5409933"><ele>227.0</ele><time>2026-04-18T13:04:37.77Z</time></trkpt><trkpt lat="43.0890233" lon="11.5408833"><ele>227.0</ele><time>2026-04-18T13:04:38.771Z</time></trkpt><trkpt lat="43.0892467" lon="11.5407717"><ele>230.5</ele><time>2026-04-18T13:04:39.768Z</time></trkpt><trkpt lat="43.08947" lon="11.5406617"><ele>234.0</ele><time>2026-04-18T13:04:40.765Z</time></trkpt><trkpt lat="43.0896967" lon="11.540545"><ele>234.0</ele><time>2026-04-18T13:04:41.77Z</time></trkpt><trkpt lat="43.089925" lon="11.5404267"><ele>234.0</ele><time>2026-04-18T13:04:42.77Z</time></trkpt><trkpt lat="43.0901517" lon="11.5403067"><ele>228.5</ele><time>2026-04-18T13:04:43.769Z</time></trkpt><trkpt lat="43.0903767" lon="11.5401767"><ele>223.0</ele><time>2026-04-18T13:04:44.77Z</time></trkpt><trkpt lat="43.0905983" lon="11.5400333"><ele>225.0</ele><time>2026-04-18T13:04:45.77Z</time></trkpt><trkpt lat="43.090815" lon="11.5398767"><ele>227.0</ele><time>2026-04-18T13:04:46.769Z</time></trkpt><trkpt lat="43.0910267" lon="11.539705"><ele>221.0</ele><time>2026-04-18T13:04:47.769Z</time></trkpt><trkpt lat="43.091235" lon="11.5395217"><ele>215.0</ele><time>2026-04-18T13:04:48.771Z</time></trkpt><trkpt lat="43.091435" lon="11.53932"><ele>216.0</ele><time>2026-04-18T13:04:49.766Z</time></trkpt><trkpt lat="43.091625" lon="11.5391017"><ele>217.0</ele><time>2026-04-18T13:04:50.766Z</time></trkpt><trkpt lat="43.0918067" lon="11.53887"><ele>212.5</ele><time>2026-04-18T13:04:51.766Z</time></trkpt><trkpt lat="43.09198" lon="11.5386267"><ele>208.0</ele><time>2026-04-18T13:04:52.763Z</time></trkpt><trkpt lat="43.092145" lon="11.5383733"><ele>208.0</ele><time>2026-04-18T13:04:53.765Z</time></trkpt><trkpt lat="43.0923" lon="11.53811"><ele>208.0</ele><time>2026-04-18T13:04:54.769Z</time></trkpt><trkpt lat="43.0924467" lon="11.537835"><ele>204.5</ele><time>2026-04-18T13:04:55.768Z</time></trkpt><trkpt lat="43.092585" lon="11.5375467"><ele>201.0</ele><time>2026-04-18T13:04:56.765Z</time></trkpt><trkpt lat="43.0927167" lon="11.5372483"><ele>197.0</ele><time>2026-04-18T13:04:57.768Z</time></trkpt><trkpt lat="43.0928367" lon="11.5369433"><ele>193.0</ele><time>2026-04-18T13:04:58.764Z</time></trkpt><trkpt lat="43.0929433" lon="11.536625"><ele>193.0</ele><time>2026-04-18T13:04:59.765Z</time></trkpt><trkpt lat="43.09304" lon="11.5363"><ele>193.0</ele><time>2026-04-18T13:05:00.769Z</time></trkpt><trkpt lat="43.09312" lon="11.5359717"><ele>191.0</ele><time>2026-04-18T13:05:01.769Z</time></trkpt><trkpt lat="43.0931883" lon="11.53563"><ele>189.0</ele><time>2026-04-18T13:05:02.771Z</time></trkpt><trkpt lat="43.0932433" lon="11.535285"><ele>189.0</ele><time>2026-04-18T13:05:03.769Z</time></trkpt><trkpt lat="43.0932917" lon="11.53494"><ele>189.0</ele><time>2026-04-18T13:05:04.767Z</time></trkpt><trkpt lat="43.0933317" lon="11.5345967"><ele>187.0</ele><time>2026-04-18T13:05:05.769Z</time></trkpt><trkpt lat="43.0933633" lon="11.5342533"><ele>185.0</ele><time>2026-04-18T13:05:06.769Z</time></trkpt><trkpt lat="43.0933933" lon="11.53391"><ele>182.0</ele><time>2026-04-18T13:05:07.77Z</time></trkpt><trkpt lat="43.0934233" lon="11.5335667"><ele>179.0</ele><time>2026-04-18T13:05:08.772Z</time></trkpt><trkpt lat="43.0934517" lon="11.5332267"><ele>176.5</ele><time>2026-04-18T13:05:09.769Z</time></trkpt><trkpt lat="43.093485" lon="11.532885"><ele>174.0</ele><time>2026-04-18T13:05:10.77Z</time></trkpt><trkpt lat="43.0935183" lon="11.5325483"><ele>174.0</ele><time>2026-04-18T13:05:11.765Z</time></trkpt><trkpt lat="43.0935583" lon="11.5322117"><ele>174.0</ele><time>2026-04-18T13:05:12.77Z</time></trkpt><trkpt lat="43.0936017" lon="11.5318767"><ele>171.5</ele><time>2026-04-18T13:05:13.769Z</time></trkpt><trkpt lat="43.09365" lon="11.53154"><ele>169.0</ele><time>2026-04-18T13:05:14.768Z</time></trkpt><trkpt lat="43.09371" lon="11.5312067"><ele>167.0</ele><time>2026-04-18T13:05:15.769Z</time></trkpt><trkpt lat="43.0937767" lon="11.5308833"><ele>165.0</ele><time>2026-04-18T13:05:16.769Z</time></trkpt><trkpt lat="43.0938483" lon="11.5305667"><ele>165.0</ele><time>2026-04-18T13:05:17.768Z</time></trkpt><trkpt lat="43.0939267" lon="11.5302483"><ele>165.0</ele><time>2026-04-18T13:05:18.766Z</time></trkpt><trkpt lat="43.094015" lon="11.5299383"><ele>164.5</ele><time>2026-04-18T13:05:19.765Z</time></trkpt><trkpt lat="43.0941133" lon="11.5296333"><ele>164.0</ele><time>2026-04-18T13:05:20.768Z</time></trkpt><trkpt lat="43.0942167" lon="11.5293333"><ele>164.0</ele><time>2026-04-18T13:05:21.771Z</time></trkpt><trkpt lat="43.0943283" lon="11.529045"><ele>164.0</ele><time>2026-04-18T13:05:22.764Z</time></trkpt><trkpt lat="43.0944467" lon="11.5287633"><ele>166.5</ele><time>2026-04-18T13:05:23.766Z</time></trkpt><trkpt lat="43.0945683" lon="11.5284933"><ele>169.0</ele><time>2026-04-18T13:05:24.772Z</time></trkpt><trkpt lat="43.094695" lon="11.5282333"><ele>169.0</ele><time>2026-04-18T13:05:25.77Z</time></trkpt><trkpt lat="43.09483" lon="11.52798"><ele>169.0</ele><time>2026-04-18T13:05:26.773Z</time></trkpt><trkpt lat="43.0949733" lon="11.5277283"><ele>168.0</ele><time>2026-04-18T13:05:27.77Z</time></trkpt><trkpt lat="43.0951217" lon="11.52748"><ele>167.0</ele><time>2026-04-18T13:05:28.766Z</time></trkpt><trkpt lat="43.0952767" lon="11.5272383"><ele>174.5</ele><time>2026-04-18T13:05:29.77Z</time></trkpt><trkpt lat="43.0954383" lon="11.527005"><ele>182.0</ele><time>2026-04-18T13:05:30.767Z</time></trkpt><trkpt lat="43.095605" lon="11.52678"><ele>173.5</ele><time>2026-04-18T13:05:31.769Z</time></trkpt><trkpt lat="43.0957783" lon="11.5265567"><ele>165.0</ele><time>2026-04-18T13:05:32.767Z</time></trkpt><trkpt lat="43.09596" lon="11.5263467"><ele>166.5</ele><time>2026-04-18T13:05:33.769Z</time></trkpt><trkpt lat="43.0961467" lon="11.526145"><ele>168.0</ele><time>2026-04-18T13:05:34.769Z</time></trkpt><trkpt lat="43.0963317" lon="11.5259467"><ele>168.0</ele><time>2026-04-18T13:05:35.768Z</time></trkpt><trkpt lat="43.09652" lon="11.52575"><ele>168.0</ele><time>2026-04-18T13:05:36.77Z</time></trkpt><trkpt lat="43.0967083" lon="11.525545"><ele>166.0</ele><time>2026-04-18T13:05:37.769Z</time></trkpt><trkpt lat="43.0968983" lon="11.5253417"><ele>164.0</ele><time>2026-04-18T13:05:38.771Z</time></trkpt><trkpt lat="43.097085" lon="11.52514"><ele>164.0</ele><time>2026-04-18T13:05:39.769Z</time></trkpt><trkpt lat="43.0972733" lon="11.52494"><ele>164.0</ele><time>2026-04-18T13:05:40.77Z</time></trkpt><trkpt lat="43.0974583" lon="11.5247417"><ele>167.5</ele><time>2026-04-18T13:05:41.77Z</time></trkpt><trkpt lat="43.0976383" lon="11.5245433"><ele>171.0</ele><time>2026-04-18T13:05:42.77Z</time></trkpt><trkpt lat="43.0978183" lon="11.524345"><ele>171.0</ele><time>2026-04-18T13:05:43.77Z</time></trkpt><trkpt lat="43.0979967" lon="11.524145"><ele>171.0</ele><time>2026-04-18T13:05:44.772Z</time></trkpt><trkpt lat="43.09817" lon="11.5239417"><ele>171.0</ele><time>2026-04-18T13:05:45.77Z</time></trkpt><trkpt lat="43.098345" lon="11.523735"><ele>171.0</ele><time>2026-04-18T13:05:46.766Z</time></trkpt><trkpt lat="43.098515" lon="11.523525"><ele>171.0</ele><time>2026-04-18T13:05:47.765Z</time></trkpt><trkpt lat="43.098685" lon="11.52331"><ele>171.0</ele><time>2026-04-18T13:05:48.77Z</time></trkpt><trkpt lat="43.0988533" lon="11.5230967"><ele>168.5</ele><time>2026-04-18T13:05:49.765Z</time></trkpt><trkpt lat="43.09902" lon="11.5228883"><ele>166.0</ele><time>2026-04-18T13:05:50.769Z</time></trkpt><trkpt lat="43.0991883" lon="11.522685"><ele>166.0</ele><time>2026-04-18T13:05:51.766Z</time></trkpt><trkpt lat="43.099365" lon="11.5225"><ele>166.0</ele><time>2026-04-18T13:05:52.765Z</time></trkpt><trkpt lat="43.0995517" lon="11.5223383"><ele>166.0</ele><time>2026-04-18T13:05:53.767Z</time></trkpt><trkpt lat="43.0997433" lon="11.5221817"><ele>163.66666666666669</ele><time>2026-04-18T13:05:54.772Z</time></trkpt><trkpt lat="43.0999267" lon="11.52201"><ele>161.33333333333334</ele><time>2026-04-18T13:05:55.768Z</time></trkpt><trkpt lat="43.1000983" lon="11.52182"><ele>159.0</ele><time>2026-04-18T13:05:56.77Z</time></trkpt><trkpt lat="43.1002617" lon="11.52162"><ele>159.0</ele><time>2026-04-18T13:05:57.769Z</time></trkpt><trkpt lat="43.1004233" lon="11.5214183"><ele>159.0</ele><time>2026-04-18T13:05:58.765Z</time></trkpt><trkpt lat="43.1005883" lon="11.521215"><ele>159.0</ele><time>2026-04-18T13:05:59.769Z</time></trkpt><trkpt lat="43.100745" lon="11.5210017"><ele>159.66666666666666</ele><time>2026-04-18T13:06:00.769Z</time></trkpt><trkpt lat="43.1008883" lon="11.5207683"><ele>160.33333333333331</ele><time>2026-04-18T13:06:01.769Z</time></trkpt><trkpt lat="43.1010183" lon="11.5205183"><ele>161.0</ele><time>2026-04-18T13:06:02.772Z</time></trkpt><trkpt lat="43.1011367" lon="11.5202667"><ele>164.66666666666666</ele><time>2026-04-18T13:06:03.769Z</time></trkpt><trkpt lat="43.1012467" lon="11.5200167"><ele>168.33333333333334</ele><time>2026-04-18T13:06:04.769Z</time></trkpt><trkpt lat="43.101335" lon="11.5197667"><ele>172.0</ele><time>2026-04-18T13:06:05.77Z</time></trkpt><trkpt lat="43.10141" lon="11.5195317"><ele>174.33333333333334</ele><time>2026-04-18T13:06:06.77Z</time></trkpt><trkpt lat="43.101495" lon="11.51932"><ele>176.66666666666666</ele><time>2026-04-18T13:06:07.77Z</time></trkpt><trkpt lat="43.101605" lon="11.5191317"><ele>179.0</ele><time>2026-04-18T13:06:08.769Z</time></trkpt><trkpt lat="43.1017517" lon="11.5189717"><ele>175.0</ele><time>2026-04-18T13:06:09.769Z</time></trkpt><trkpt lat="43.1019133" lon="11.5188233"><ele>171.0</ele><time>2026-04-18T13:06:10.77Z</time></trkpt><trkpt lat="43.1020667" lon="11.5186567"><ele>167.0</ele><time>2026-04-18T13:06:11.769Z</time></trkpt><trkpt lat="43.102195" lon="11.5184533"><ele>167.0</ele><time>2026-04-18T13:06:12.769Z</time></trkpt><trkpt lat="43.1022983" lon="11.518225"><ele>167.0</ele><time>2026-04-18T13:06:13.763Z</time></trkpt><trkpt lat="43.102405" lon="11.5179933"><ele>167.0</ele><time>2026-04-18T13:06:14.772Z</time></trkpt><trkpt lat="43.1025367" lon="11.51778"><ele>166.33333333333331</ele><time>2026-04-18T13:06:15.769Z</time></trkpt><trkpt lat="43.1026717" lon="11.5175767"><ele>165.66666666666666</ele><time>2026-04-18T13:06:16.768Z</time></trkpt><trkpt lat="43.1028" lon="11.5173583"><ele>165.0</ele><time>2026-04-18T13:06:17.77Z</time></trkpt><trkpt lat="43.1029117" lon="11.517115"><ele>166.66666666666666</ele><time>2026-04-18T13:06:18.765Z</time></trkpt><trkpt lat="43.102995" lon="11.5168483"><ele>168.33333333333331</ele><time>2026-04-18T13:06:19.768Z</time></trkpt><trkpt lat="43.10306" lon="11.5165633"><ele>170.0</ele><time>2026-04-18T13:06:20.771Z</time></trkpt><trkpt lat="43.1031117" lon="11.5162617"><ele>172.0</ele><time>2026-04-18T13:06:21.765Z</time></trkpt><trkpt lat="43.103155" lon="11.5159567"><ele>174.0</ele><time>2026-04-18T13:06:22.77Z</time></trkpt><trkpt lat="43.1031833" lon="11.51565"><ele>172.5</ele><time>2026-04-18T13:06:23.769Z</time></trkpt><trkpt lat="43.1032133" lon="11.5153333"><ele>171.0</ele><time>2026-04-18T13:06:24.771Z</time></trkpt><trkpt lat="43.103255" lon="11.515015"><ele>164.0</ele><time>2026-04-18T13:06:25.768Z</time></trkpt><trkpt lat="43.10332" lon="11.514705"><ele>157.0</ele><time>2026-04-18T13:06:26.77Z</time></trkpt><trkpt lat="43.1034" lon="11.514405"><ele>157.0</ele><time>2026-04-18T13:06:27.771Z</time></trkpt><trkpt lat="43.1034933" lon="11.5141033"><ele>157.0</ele><time>2026-04-18T13:06:28.768Z</time></trkpt><trkpt lat="43.1035883" lon="11.5138017"><ele>157.0</ele><time>2026-04-18T13:06:29.767Z</time></trkpt><trkpt lat="43.1036717" lon="11.5134917"><ele>157.0</ele><time>2026-04-18T13:06:30.77Z</time></trkpt><trkpt lat="43.1037583" lon="11.5131767"><ele>160.5</ele><time>2026-04-18T13:06:31.769Z</time></trkpt><trkpt lat="43.10385" lon="11.5128717"><ele>164.0</ele><time>2026-04-18T13:06:32.769Z</time></trkpt><trkpt lat="43.10395" lon="11.51257"><ele>164.0</ele><time>2026-04-18T13:06:33.768Z</time></trkpt><trkpt lat="43.1040483" lon="11.51226"><ele>164.0</ele><time>2026-04-18T13:06:34.77Z</time></trkpt><trkpt lat="43.1041333" lon="11.51194"><ele>160.5</ele><time>2026-04-18T13:06:35.77Z</time></trkpt><trkpt lat="43.10422" lon="11.5116167"><ele>157.0</ele><time>2026-04-18T13:06:36.769Z</time></trkpt><trkpt lat="43.104305" lon="11.5112933"><ele>160.5</ele><time>2026-04-18T13:06:37.769Z</time></trkpt><trkpt lat="43.104375" lon="11.51097"><ele>164.0</ele><time>2026-04-18T13:06:38.769Z</time></trkpt><trkpt lat="43.1044383" lon="11.5106367"><ele>167.0</ele><time>2026-04-18T13:06:39.769Z</time></trkpt><trkpt lat="43.1044917" lon="11.5102983"><ele>170.0</ele><time>2026-04-18T13:06:40.77Z</time></trkpt><trkpt lat="43.1045433" lon="11.5099567"><ele>170.0</ele><time>2026-04-18T13:06:41.767Z</time></trkpt><trkpt lat="43.1046033" lon="11.5096167"><ele>170.0</ele><time>2026-04-18T13:06:42.771Z</time></trkpt><trkpt lat="43.1046783" lon="11.5092833"><ele>171.5</ele><time>2026-04-18T13:06:43.769Z</time></trkpt><trkpt lat="43.1047633" lon="11.5089533"><ele>173.0</ele><time>2026-04-18T13:06:44.771Z</time></trkpt><trkpt lat="43.1048583" lon="11.5086233"><ele>165.0</ele><time>2026-04-18T13:06:45.769Z</time></trkpt><trkpt lat="43.1049517" lon="11.5082967"><ele>157.0</ele><time>2026-04-18T13:06:46.772Z</time></trkpt><trkpt lat="43.10505" lon="11.50797"><ele>160.0</ele><time>2026-04-18T13:06:47.766Z</time></trkpt><trkpt lat="43.105145" lon="11.5076433"><ele>163.0</ele><time>2026-04-18T13:06:48.77Z</time></trkpt><trkpt lat="43.1052417" lon="11.5073183"><ele>165.5</ele><time>2026-04-18T13:06:49.77Z</time></trkpt><trkpt lat="43.1053367" lon="11.506995"><ele>168.0</ele><time>2026-04-18T13:06:50.772Z</time></trkpt><trkpt lat="43.10543" lon="11.5066733"><ele>168.0</ele><time>2026-04-18T13:06:51.77Z</time></trkpt><trkpt lat="43.1055233" lon="11.5063533"><ele>168.0</ele><time>2026-04-18T13:06:52.769Z</time></trkpt><trkpt lat="43.1056083" lon="11.5060383"><ele>169.0</ele><time>2026-04-18T13:06:53.77Z</time></trkpt><trkpt lat="43.1056783" lon="11.5057233"><ele>170.0</ele><time>2026-04-18T13:06:54.77Z</time></trkpt><trkpt lat="43.1057283" lon="11.5053933"><ele>163.0</ele><time>2026-04-18T13:06:55.766Z</time></trkpt><trkpt lat="43.1057667" lon="11.50505"><ele>156.0</ele><time>2026-04-18T13:06:56.773Z</time></trkpt><trkpt lat="43.1057917" lon="11.504695"><ele>155.5</ele><time>2026-04-18T13:06:57.769Z</time></trkpt><trkpt lat="43.1058117" lon="11.5043383"><ele>155.0</ele><time>2026-04-18T13:06:58.77Z</time></trkpt><trkpt lat="43.1058317" lon="11.503975"><ele>153.5</ele><time>2026-04-18T13:06:59.769Z</time></trkpt><trkpt lat="43.1058467" lon="11.5036167"><ele>152.0</ele><time>2026-04-18T13:07:00.769Z</time></trkpt><trkpt lat="43.10587" lon="11.50326"><ele>152.5</ele><time>2026-04-18T13:07:01.771Z</time></trkpt><trkpt lat="43.105895" lon="11.502905"><ele>153.0</ele><time>2026-04-18T13:07:02.771Z</time></trkpt><trkpt lat="43.10592" lon="11.5025533"><ele>153.0</ele><time>2026-04-18T13:07:03.77Z</time></trkpt><trkpt lat="43.1059383" lon="11.5022033"><ele>153.0</ele><time>2026-04-18T13:07:04.769Z</time></trkpt><trkpt lat="43.1059583" lon="11.50185"><ele>154.5</ele><time>2026-04-18T13:07:05.769Z</time></trkpt><trkpt lat="43.1059783" lon="11.501495"><ele>156.0</ele><time>2026-04-18T13:07:06.77Z</time></trkpt><trkpt lat="43.106" lon="11.5011383"><ele>157.5</ele><time>2026-04-18T13:07:07.77Z</time></trkpt><trkpt lat="43.1060183" lon="11.5007833"><ele>159.0</ele><time>2026-04-18T13:07:08.771Z</time></trkpt><trkpt lat="43.1060317" lon="11.50043"><ele>159.5</ele><time>2026-04-18T13:07:09.77Z</time></trkpt><trkpt lat="43.10604" lon="11.5000933"><ele>160.0</ele><time>2026-04-18T13:07:10.766Z</time></trkpt><trkpt lat="43.1060517" lon="11.4997817"><ele>161.0</ele><time>2026-04-18T13:07:11.77Z</time></trkpt><trkpt lat="43.106065" lon="11.499495"><ele>162.0</ele><time>2026-04-18T13:07:12.77Z</time></trkpt><trkpt lat="43.1060833" lon="11.4992233"><ele>163.0</ele><time>2026-04-18T13:07:13.769Z</time></trkpt><trkpt lat="43.106135" lon="11.49897"><ele>163.66666666666669</ele><time>2026-04-18T13:07:14.772Z</time></trkpt><trkpt lat="43.10623" lon="11.4987367"><ele>164.33333333333334</ele><time>2026-04-18T13:07:15.769Z</time></trkpt><trkpt lat="43.1063683" lon="11.4985283"><ele>165.0</ele><time>2026-04-18T13:07:16.767Z</time></trkpt><trkpt lat="43.106545" lon="11.4983667"><ele>158.5</ele><time>2026-04-18T13:07:17.769Z</time></trkpt><trkpt lat="43.1067567" lon="11.498255"><ele>152.0</ele><time>2026-04-18T13:07:18.767Z</time></trkpt><trkpt lat="43.106975" lon="11.4981783"><ele>152.0</ele><time>2026-04-18T13:07:19.766Z</time></trkpt><trkpt lat="43.1072083" lon="11.498115"><ele>152.0</ele><time>2026-04-18T13:07:20.766Z</time></trkpt><trkpt lat="43.1074433" lon="11.4980383"><ele>150.0</ele><time>2026-04-18T13:07:21.769Z</time></trkpt><trkpt lat="43.1076817" lon="11.497965"><ele>148.0</ele><time>2026-04-18T13:07:22.767Z</time></trkpt><trkpt lat="43.10791" lon="11.4978967"><ele>148.33333333333334</ele><time>2026-04-18T13:07:23.769Z</time></trkpt><trkpt lat="43.1081217" lon="11.497835"><ele>148.66666666666666</ele><time>2026-04-18T13:07:24.771Z</time></trkpt><trkpt lat="43.108315" lon="11.4977417"><ele>149.0</ele><time>2026-04-18T13:07:25.766Z</time></trkpt><trkpt lat="43.1084867" lon="11.49759"><ele>149.0</ele><time>2026-04-18T13:07:26.77Z</time></trkpt><trkpt lat="43.1086333" lon="11.4973867"><ele>149.0</ele><time>2026-04-18T13:07:27.77Z</time></trkpt><trkpt lat="43.1087533" lon="11.49713"><ele>149.0</ele><time>2026-04-18T13:07:28.766Z</time></trkpt><trkpt lat="43.10887" lon="11.4968517"><ele>149.0</ele><time>2026-04-18T13:07:29.766Z</time></trkpt><trkpt lat="43.1089917" lon="11.4965767"><ele>149.0</ele><time>2026-04-18T13:07:30.772Z</time></trkpt><trkpt lat="43.1091167" lon="11.4962983"><ele>151.0</ele><time>2026-04-18T13:07:31.77Z</time></trkpt><trkpt lat="43.1092433" lon="11.4960133"><ele>153.0</ele><time>2026-04-18T13:07:32.769Z</time></trkpt><trkpt lat="43.1093683" lon="11.4957317"><ele>153.0</ele><time>2026-04-18T13:07:33.77Z</time></trkpt><trkpt lat="43.1094883" lon="11.49546"><ele>153.0</ele><time>2026-04-18T13:07:34.767Z</time></trkpt><trkpt lat="43.1096083" lon="11.495185"><ele>150.0</ele><time>2026-04-18T13:07:35.766Z</time></trkpt><trkpt lat="43.10972" lon="11.4949083"><ele>147.0</ele><time>2026-04-18T13:07:36.769Z</time></trkpt><trkpt lat="43.1098217" lon="11.4946217"><ele>146.0</ele><time>2026-04-18T13:07:37.769Z</time></trkpt><trkpt lat="43.1099033" lon="11.4943283"><ele>145.0</ele><time>2026-04-18T13:07:38.77Z</time></trkpt><trkpt lat="43.10996" lon="11.4940283"><ele>148.66666666666669</ele><time>2026-04-18T13:07:39.769Z</time></trkpt><trkpt lat="43.1099917" lon="11.49373"><ele>152.33333333333334</ele><time>2026-04-18T13:07:40.769Z</time></trkpt><trkpt lat="43.1100117" lon="11.49344"><ele>156.0</ele><time>2026-04-18T13:07:41.769Z</time></trkpt><trkpt lat="43.1100183" lon="11.4931683"><ele>156.66666666666666</ele><time>2026-04-18T13:07:42.77Z</time></trkpt><trkpt lat="43.110025" lon="11.4929167"><ele>157.33333333333331</ele><time>2026-04-18T13:07:43.769Z</time></trkpt><trkpt lat="43.1100383" lon="11.4926883"><ele>158.0</ele><time>2026-04-18T13:07:44.769Z</time></trkpt><trkpt lat="43.11005" lon="11.4924717"><ele>158.0</ele><time>2026-04-18T13:07:45.77Z</time></trkpt><trkpt lat="43.1100667" lon="11.4922617"><ele>158.0</ele><time>2026-04-18T13:07:46.769Z</time></trkpt><trkpt lat="43.1101" lon="11.49206"><ele>158.0</ele><time>2026-04-18T13:07:47.769Z</time></trkpt><trkpt lat="43.1101583" lon="11.4918667"><ele>158.0</ele><time>2026-04-18T13:07:48.772Z</time></trkpt><trkpt lat="43.1102317" lon="11.4916767"><ele>158.0</ele><time>2026-04-18T13:07:49.766Z</time></trkpt><trkpt lat="43.1103083" lon="11.4914883"><ele>158.0</ele><time>2026-04-18T13:07:50.772Z</time></trkpt><trkpt lat="43.11039" lon="11.49131"><ele>157.33333333333331</ele><time>2026-04-18T13:07:51.764Z</time></trkpt><trkpt lat="43.11048" lon="11.49114"><ele>156.66666666666666</ele><time>2026-04-18T13:07:52.768Z</time></trkpt><trkpt lat="43.1105817" lon="11.490975"><ele>156.0</ele><time>2026-04-18T13:07:53.768Z</time></trkpt><trkpt lat="43.1106883" lon="11.4908117"><ele>158.66666666666666</ele><time>2026-04-18T13:07:54.766Z</time></trkpt><trkpt lat="43.1107983" lon="11.4906567"><ele>161.33333333333331</ele><time>2026-04-18T13:07:55.771Z</time></trkpt><trkpt lat="43.1109117" lon="11.490505"><ele>164.0</ele><time>2026-04-18T13:07:56.773Z</time></trkpt><trkpt lat="43.1110233" lon="11.49035"><ele>164.0</ele><time>2026-04-18T13:07:57.77Z</time></trkpt><trkpt lat="43.1111317" lon="11.490205"><ele>164.0</ele><time>2026-04-18T13:07:58.768Z</time></trkpt><trkpt lat="43.1112317" lon="11.49005"><ele>164.0</ele><time>2026-04-18T13:07:59.768Z</time></trkpt><trkpt lat="43.111325" lon="11.4898767"><ele>164.0</ele><time>2026-04-18T13:08:00.77Z</time></trkpt><trkpt lat="43.11141" lon="11.4896917"><ele>164.0</ele><time>2026-04-18T13:08:01.769Z</time></trkpt><trkpt lat="43.11149" lon="11.4894983"><ele>164.0</ele><time>2026-04-18T13:08:02.769Z</time></trkpt><trkpt lat="43.1115733" lon="11.4892933"><ele>165.0</ele><time>2026-04-18T13:08:03.768Z</time></trkpt><trkpt lat="43.1116633" lon="11.489085"><ele>166.0</ele><time>2026-04-18T13:08:04.77Z</time></trkpt><trkpt lat="43.111755" lon="11.4888783"><ele>167.0</ele><time>2026-04-18T13:08:05.77Z</time></trkpt><trkpt lat="43.11185" lon="11.4886767"><ele>167.0</ele><time>2026-04-18T13:08:06.769Z</time></trkpt><trkpt lat="43.1119467" lon="11.4884733"><ele>167.0</ele><time>2026-04-18T13:08:07.769Z</time></trkpt><trkpt lat="43.11204" lon="11.488275"><ele>167.0</ele><time>2026-04-18T13:08:08.77Z</time></trkpt><trkpt lat="43.1121333" lon="11.4880817"><ele>166.33333333333331</ele><time>2026-04-18T13:08:09.769Z</time></trkpt><trkpt lat="43.1122217" lon="11.4878983"><ele>165.66666666666666</ele><time>2026-04-18T13:08:10.77Z</time></trkpt><trkpt lat="43.11232" lon="11.4877183"><ele>165.0</ele><time>2026-04-18T13:08:11.771Z</time></trkpt><trkpt lat="43.1124317" lon="11.4875517"><ele>167.66666666666666</ele><time>2026-04-18T13:08:12.766Z</time></trkpt><trkpt lat="43.1125633" lon="11.48741"><ele>170.33333333333331</ele><time>2026-04-18T13:08:13.769Z</time></trkpt><trkpt lat="43.1127017" lon="11.4872867"><ele>173.0</ele><time>2026-04-18T13:08:14.769Z</time></trkpt><trkpt lat="43.1128433" lon="11.4871617"><ele>172.33333333333331</ele><time>2026-04-18T13:08:15.765Z</time></trkpt><trkpt lat="43.11299" lon="11.4870417"><ele>171.66666666666666</ele><time>2026-04-18T13:08:16.77Z</time></trkpt><trkpt lat="43.1131317" lon="11.4869217"><ele>171.0</ele><time>2026-04-18T13:08:17.768Z</time></trkpt><trkpt lat="43.1132783" lon="11.4867967"><ele>172.33333333333334</ele><time>2026-04-18T13:08:18.766Z</time></trkpt><trkpt lat="43.1134233" lon="11.4866733"><ele>173.66666666666669</ele><time>2026-04-18T13:08:19.766Z</time></trkpt><trkpt lat="43.1135683" lon="11.48655"><ele>175.0</ele><time>2026-04-18T13:08:20.771Z</time></trkpt><trkpt lat="43.1137183" lon="11.4864267"><ele>175.0</ele><time>2026-04-18T13:08:21.768Z</time></trkpt><trkpt lat="43.1138717" lon="11.4863"><ele>175.0</ele><time>2026-04-18T13:08:22.769Z</time></trkpt><trkpt lat="43.114025" lon="11.4861767"><ele>175.0</ele><time>2026-04-18T13:08:23.766Z</time></trkpt><trkpt lat="43.1141783" lon="11.4860567"><ele>175.33333333333334</ele><time>2026-04-18T13:08:24.769Z</time></trkpt><trkpt lat="43.11433" lon="11.48594"><ele>175.66666666666666</ele><time>2026-04-18T13:08:25.769Z</time></trkpt><trkpt lat="43.1144767" lon="11.485825"><ele>176.0</ele><time>2026-04-18T13:08:26.771Z</time></trkpt><trkpt lat="43.11462" lon="11.4857117"><ele>176.0</ele><time>2026-04-18T13:08:27.769Z</time></trkpt><trkpt lat="43.11476" lon="11.4856017"><ele>176.0</ele><time>2026-04-18T13:08:28.77Z</time></trkpt><trkpt lat="43.114895" lon="11.485495"><ele>176.0</ele><time>2026-04-18T13:08:29.769Z</time></trkpt><trkpt lat="43.1150267" lon="11.4853917"><ele>175.0</ele><time>2026-04-18T13:08:30.769Z</time></trkpt><trkpt lat="43.1151567" lon="11.4852883"><ele>174.0</ele><time>2026-04-18T13:08:31.769Z</time></trkpt><trkpt lat="43.115285" lon="11.4851917"><ele>173.0</ele><time>2026-04-18T13:08:32.773Z</time></trkpt><trkpt lat="43.1154133" lon="11.4850967"><ele>172.0</ele><time>2026-04-18T13:08:33.769Z</time></trkpt><trkpt lat="43.115535" lon="11.485"><ele>172.0</ele><time>2026-04-18T13:08:34.77Z</time></trkpt><trkpt lat="43.115655" lon="11.4849017"><ele>172.0</ele><time>2026-04-18T13:08:35.769Z</time></trkpt><trkpt lat="43.1157717" lon="11.4847967"><ele>172.0</ele><time>2026-04-18T13:08:36.77Z</time></trkpt><trkpt lat="43.1158767" lon="11.4846767"><ele>172.0</ele><time>2026-04-18T13:08:37.765Z</time></trkpt><trkpt lat="43.1159683" lon="11.4845383"><ele>170.5</ele><time>2026-04-18T13:08:38.774Z</time></trkpt><trkpt lat="43.11604" lon="11.4843717"><ele>169.0</ele><time>2026-04-18T13:08:39.769Z</time></trkpt><trkpt lat="43.1160917" lon="11.4841833"><ele>167.5</ele><time>2026-04-18T13:08:40.771Z</time></trkpt><trkpt lat="43.1161283" lon="11.4840017"><ele>166.0</ele><time>2026-04-18T13:08:41.769Z</time></trkpt><trkpt lat="43.116175" lon="11.483845"><ele>165.5</ele><time>2026-04-18T13:08:42.769Z</time></trkpt><trkpt lat="43.1162417" lon="11.48372"><ele>165.0</ele><time>2026-04-18T13:08:43.769Z</time></trkpt><trkpt lat="43.1163283" lon="11.48363"><ele>164.5</ele><time>2026-04-18T13:08:44.772Z</time></trkpt><trkpt lat="43.1164333" lon="11.48359"><ele>164.0</ele><time>2026-04-18T13:08:45.769Z</time></trkpt><trkpt lat="43.1165533" lon="11.4836017"><ele>162.5</ele><time>2026-04-18T13:08:46.768Z</time></trkpt><trkpt lat="43.1166867" lon="11.4836733"><ele>161.0</ele><time>2026-04-18T13:08:47.769Z</time></trkpt><trkpt lat="43.1168017" lon="11.4837467"><ele>159.5</ele><time>2026-04-18T13:08:48.766Z</time></trkpt><trkpt lat="43.1169117" lon="11.4838167"><ele>158.0</ele><time>2026-04-18T13:08:49.769Z</time></trkpt><trkpt lat="43.1170317" lon="11.483875"><ele>158.0</ele><time>2026-04-18T13:08:50.772Z</time></trkpt><trkpt lat="43.1171583" lon="11.48391"><ele>158.0</ele><time>2026-04-18T13:08:51.768Z</time></trkpt><trkpt lat="43.1172867" lon="11.48392"><ele>158.0</ele><time>2026-04-18T13:08:52.77Z</time></trkpt><trkpt lat="43.1174183" lon="11.483915"><ele>158.0</ele><time>2026-04-18T13:08:53.771Z</time></trkpt><trkpt lat="43.11755" lon="11.4839017"><ele>155.5</ele><time>2026-04-18T13:08:54.767Z</time></trkpt><trkpt lat="43.117685" lon="11.4838783"><ele>153.0</ele><time>2026-04-18T13:08:55.77Z</time></trkpt><trkpt lat="43.11782" lon="11.4838517"><ele>150.5</ele><time>2026-04-18T13:08:56.77Z</time></trkpt><trkpt lat="43.1179567" lon="11.483825"><ele>148.0</ele><time>2026-04-18T13:08:57.77Z</time></trkpt><trkpt lat="43.1180933" lon="11.4837967"><ele>148.0</ele><time>2026-04-18T13:08:58.769Z</time></trkpt><trkpt lat="43.11823" lon="11.48377"><ele>148.0</ele><time>2026-04-18T13:08:59.769Z</time></trkpt><trkpt lat="43.118365" lon="11.48374"><ele>148.0</ele><time>2026-04-18T13:09:00.771Z</time></trkpt><trkpt lat="43.118505" lon="11.4837083"><ele>148.0</ele><time>2026-04-18T13:09:01.77Z</time></trkpt><trkpt lat="43.1186517" lon="11.4836767"><ele>146.33333333333334</ele><time>2026-04-18T13:09:02.771Z</time></trkpt><trkpt lat="43.1188033" lon="11.4836417"><ele>144.66666666666666</ele><time>2026-04-18T13:09:03.77Z</time></trkpt><trkpt lat="43.1189533" lon="11.48361"><ele>143.0</ele><time>2026-04-18T13:09:04.768Z</time></trkpt><trkpt lat="43.1191083" lon="11.4835733"><ele>142.66666666666666</ele><time>2026-04-18T13:09:05.77Z</time></trkpt><trkpt lat="43.1192633" lon="11.4835417"><ele>142.33333333333334</ele><time>2026-04-18T13:09:06.762Z</time></trkpt><trkpt lat="43.1194233" lon="11.48351"><ele>142.0</ele><time>2026-04-18T13:09:07.771Z</time></trkpt><trkpt lat="43.1195783" lon="11.48348"><ele>142.0</ele><time>2026-04-18T13:09:08.77Z</time></trkpt><trkpt lat="43.1197283" lon="11.4834517"><ele>142.0</ele><time>2026-04-18T13:09:09.766Z</time></trkpt><trkpt lat="43.1198683" lon="11.4834283"><ele>142.0</ele><time>2026-04-18T13:09:10.77Z</time></trkpt><trkpt lat="43.1200033" lon="11.4834067"><ele>142.0</ele><time>2026-04-18T13:09:11.769Z</time></trkpt><trkpt lat="43.12014" lon="11.4833867"><ele>142.0</ele><time>2026-04-18T13:09:12.767Z</time></trkpt><trkpt lat="43.1202733" lon="11.4833667"><ele>142.0</ele><time>2026-04-18T13:09:13.77Z</time></trkpt><trkpt lat="43.120405" lon="11.48335"><ele>142.0</ele><time>2026-04-18T13:09:14.772Z</time></trkpt><trkpt lat="43.120535" lon="11.4833367"><ele>142.0</ele><time>2026-04-18T13:09:15.77Z</time></trkpt><trkpt lat="43.1206633" lon="11.4833267"><ele>142.25</ele><time>2026-04-18T13:09:16.767Z</time></trkpt><trkpt lat="43.120785" lon="11.4833167"><ele>142.5</ele><time>2026-04-18T13:09:17.768Z</time></trkpt><trkpt lat="43.1209" lon="11.4833067"><ele>142.75</ele><time>2026-04-18T13:09:18.76Z</time></trkpt><trkpt lat="43.1210117" lon="11.4833"><ele>143.0</ele><time>2026-04-18T13:09:19.758Z</time></trkpt><trkpt lat="43.1211167" lon="11.4832967"><ele>143.0</ele><time>2026-04-18T13:09:20.773Z</time></trkpt><trkpt lat="43.121215" lon="11.48329"><ele>143.0</ele><time>2026-04-18T13:09:21.769Z</time></trkpt><trkpt lat="43.1213167" lon="11.483285"><ele>143.0</ele><time>2026-04-18T13:09:22.77Z</time></trkpt><trkpt lat="43.1214183" lon="11.483275"><ele>143.0</ele><time>2026-04-18T13:09:23.766Z</time></trkpt><trkpt lat="43.1215217" lon="11.4832633"><ele>143.0</ele><time>2026-04-18T13:09:24.77Z</time></trkpt><trkpt lat="43.12162" lon="11.4832517"><ele>143.20000000000002</ele><time>2026-04-18T13:09:25.769Z</time></trkpt><trkpt lat="43.1217183" lon="11.48324"><ele>143.4</ele><time>2026-04-18T13:09:26.77Z</time></trkpt><trkpt lat="43.1218067" lon="11.4832333"><ele>143.60000000000002</ele><time>2026-04-18T13:09:27.77Z</time></trkpt><trkpt lat="43.1218917" lon="11.4832283"><ele>143.8</ele><time>2026-04-18T13:09:28.769Z</time></trkpt><trkpt lat="43.1219767" lon="11.4832167"><ele>144.0</ele><time>2026-04-18T13:09:29.77Z</time></trkpt><trkpt lat="43.1220683" lon="11.4832017"><ele>144.0</ele><time>2026-04-18T13:09:30.768Z</time></trkpt><trkpt lat="43.12216" lon="11.4831917"><ele>144.0</ele><time>2026-04-18T13:09:31.766Z</time></trkpt><trkpt lat="43.1222467" lon="11.4831833"><ele>144.0</ele><time>2026-04-18T13:09:32.772Z</time></trkpt><trkpt lat="43.1223333" lon="11.4831817"><ele>144.0</ele><time>2026-04-18T13:09:33.769Z</time></trkpt><trkpt lat="43.1224233" lon="11.48318"><ele>144.0</ele><time>2026-04-18T13:09:34.769Z</time></trkpt><trkpt lat="43.1225183" lon="11.4831733"><ele>144.6</ele><time>2026-04-18T13:09:35.769Z</time></trkpt><trkpt lat="43.1226167" lon="11.4831617"><ele>145.2</ele><time>2026-04-18T13:09:36.772Z</time></trkpt><trkpt lat="43.12272" lon="11.48315"><ele>145.79999999999998</ele><time>2026-04-18T13:09:37.765Z</time></trkpt><trkpt lat="43.1228283" lon="11.4831417"><ele>146.4</ele><time>2026-04-18T13:09:38.774Z</time></trkpt><trkpt lat="43.12294" lon="11.48313"><ele>147.0</ele><time>2026-04-18T13:09:39.769Z</time></trkpt><trkpt lat="43.1230567" lon="11.4831233"><ele>147.0</ele><time>2026-04-18T13:09:40.769Z</time></trkpt><trkpt lat="43.12318" lon="11.483115"><ele>147.0</ele><time>2026-04-18T13:09:41.769Z</time></trkpt><trkpt lat="43.1233017" lon="11.483105"><ele>147.0</ele><time>2026-04-18T13:09:42.773Z</time></trkpt><trkpt lat="43.1234333" lon="11.4830933"><ele>147.0</ele><time>2026-04-18T13:09:43.769Z</time></trkpt><trkpt lat="43.1235717" lon="11.48308"><ele>146.5</ele><time>2026-04-18T13:09:44.772Z</time></trkpt><trkpt lat="43.1237083" lon="11.4830683"><ele>146.0</ele><time>2026-04-18T13:09:45.769Z</time></trkpt><trkpt lat="43.1238467" lon="11.4830533"><ele>145.5</ele><time>2026-04-18T13:09:46.769Z</time></trkpt><trkpt lat="43.1239867" lon="11.4830367"><ele>145.0</ele><time>2026-04-18T13:09:47.765Z</time></trkpt><trkpt lat="43.1241317" lon="11.483025"><ele>144.5</ele><time>2026-04-18T13:09:48.77Z</time></trkpt><trkpt lat="43.1242767" lon="11.483015"><ele>144.0</ele><time>2026-04-18T13:09:49.77Z</time></trkpt><trkpt lat="43.12442" lon="11.483005"><ele>143.5</ele><time>2026-04-18T13:09:50.769Z</time></trkpt><trkpt lat="43.12457" lon="11.4829917"><ele>143.0</ele><time>2026-04-18T13:09:51.771Z</time></trkpt><trkpt lat="43.1247217" lon="11.4829717"><ele>143.0</ele><time>2026-04-18T13:09:52.766Z</time></trkpt><trkpt lat="43.1248767" lon="11.4829533"><ele>143.0</ele><time>2026-04-18T13:09:53.77Z</time></trkpt><trkpt lat="43.1250283" lon="11.4829383"><ele>143.0</ele><time>2026-04-18T13:09:54.771Z</time></trkpt><trkpt lat="43.1251767" lon="11.4829267"><ele>142.75</ele><time>2026-04-18T13:09:55.772Z</time></trkpt><trkpt lat="43.1253217" lon="11.482915"><ele>142.5</ele><time>2026-04-18T13:09:56.77Z</time></trkpt><trkpt lat="43.1254633" lon="11.482905"><ele>142.25</ele><time>2026-04-18T13:09:57.769Z</time></trkpt><trkpt lat="43.125605" lon="11.4828917"><ele>142.0</ele><time>2026-04-18T13:09:58.769Z</time></trkpt><trkpt lat="43.1257467" lon="11.48288"><ele>142.0</ele><time>2026-04-18T13:09:59.769Z</time></trkpt><trkpt lat="43.12589" lon="11.4828667"><ele>142.0</ele><time>2026-04-18T13:10:00.77Z</time></trkpt><trkpt lat="43.1260383" lon="11.482855"><ele>142.0</ele><time>2026-04-18T13:10:01.765Z</time></trkpt><trkpt lat="43.1261867" lon="11.4828433"><ele>142.0</ele><time>2026-04-18T13:10:02.771Z</time></trkpt><trkpt lat="43.1263383" lon="11.48283"><ele>142.0</ele><time>2026-04-18T13:10:03.77Z</time></trkpt><trkpt lat="43.126495" lon="11.482815"><ele>142.0</ele><time>2026-04-18T13:10:04.766Z</time></trkpt><trkpt lat="43.1266517" lon="11.4828"><ele>142.0</ele><time>2026-04-18T13:10:05.769Z</time></trkpt><trkpt lat="43.12681" lon="11.4827833"><ele>142.66666666666669</ele><time>2026-04-18T13:10:06.768Z</time></trkpt><trkpt lat="43.1269733" lon="11.482765"><ele>143.33333333333334</ele><time>2026-04-18T13:10:07.772Z</time></trkpt><trkpt lat="43.127135" lon="11.4827517"><ele>144.0</ele><time>2026-04-18T13:10:08.771Z</time></trkpt><trkpt lat="43.1272967" lon="11.4827417"><ele>144.33333333333334</ele><time>2026-04-18T13:10:09.772Z</time></trkpt><trkpt lat="43.1274567" lon="11.4827317"><ele>144.66666666666669</ele><time>2026-04-18T13:10:10.771Z</time></trkpt><trkpt lat="43.127615" lon="11.48272"><ele>145.0</ele><time>2026-04-18T13:10:11.768Z</time></trkpt><trkpt lat="43.127775" lon="11.4827067"><ele>145.0</ele><time>2026-04-18T13:10:12.77Z</time></trkpt><trkpt lat="43.127935" lon="11.4826933"><ele>145.0</ele><time>2026-04-18T13:10:13.769Z</time></trkpt><trkpt lat="43.1280933" lon="11.4826783"><ele>145.0</ele><time>2026-04-18T13:10:14.772Z</time></trkpt><trkpt lat="43.12825" lon="11.4826633"><ele>145.0</ele><time>2026-04-18T13:10:15.77Z</time></trkpt><trkpt lat="43.1284033" lon="11.48265"><ele>145.0</ele><time>2026-04-18T13:10:16.764Z</time></trkpt><trkpt lat="43.128555" lon="11.4826383"><ele>145.0</ele><time>2026-04-18T13:10:17.765Z</time></trkpt><trkpt lat="43.1287067" lon="11.4826283"><ele>145.0</ele><time>2026-04-18T13:10:18.767Z</time></trkpt><trkpt lat="43.128855" lon="11.4826183"><ele>145.0</ele><time>2026-04-18T13:10:19.77Z</time></trkpt><trkpt lat="43.1290017" lon="11.482605"><ele>145.0</ele><time>2026-04-18T13:10:20.772Z</time></trkpt><trkpt lat="43.1291467" lon="11.4825917"><ele>145.0</ele><time>2026-04-18T13:10:21.77Z</time></trkpt><trkpt lat="43.12929" lon="11.48258"><ele>144.75</ele><time>2026-04-18T13:10:22.764Z</time></trkpt><trkpt lat="43.129435" lon="11.48257"><ele>144.5</ele><time>2026-04-18T13:10:23.771Z</time></trkpt><trkpt lat="43.129575" lon="11.4825567"><ele>144.25</ele><time>2026-04-18T13:10:24.772Z</time></trkpt><trkpt lat="43.1297183" lon="11.4825467"><ele>144.0</ele><time>2026-04-18T13:10:25.77Z</time></trkpt><trkpt lat="43.1298633" lon="11.4825333"><ele>143.5</ele><time>2026-04-18T13:10:26.772Z</time></trkpt><trkpt lat="43.1300083" lon="11.4825217"><ele>143.0</ele><time>2026-04-18T13:10:27.771Z</time></trkpt><trkpt lat="43.1301567" lon="11.4825133"><ele>142.5</ele><time>2026-04-18T13:10:28.772Z</time></trkpt><trkpt lat="43.1303067" lon="11.482505"><ele>142.0</ele><time>2026-04-18T13:10:29.769Z</time></trkpt><trkpt lat="43.1304567" lon="11.4824983"><ele>142.0</ele><time>2026-04-18T13:10:30.769Z</time></trkpt><trkpt lat="43.1306017" lon="11.4824867"><ele>142.0</ele><time>2026-04-18T13:10:31.771Z</time></trkpt><trkpt lat="43.1307483" lon="11.4824683"><ele>142.0</ele><time>2026-04-18T13:10:32.772Z</time></trkpt><trkpt lat="43.1308983" lon="11.4824533"><ele>142.0</ele><time>2026-04-18T13:10:33.77Z</time></trkpt><trkpt lat="43.1310517" lon="11.48244"><ele>141.75</ele><time>2026-04-18T13:10:34.769Z</time></trkpt><trkpt lat="43.1312" lon="11.4824283"><ele>141.5</ele><time>2026-04-18T13:10:35.769Z</time></trkpt><trkpt lat="43.1313433" lon="11.4824167"><ele>141.25</ele><time>2026-04-18T13:10:36.77Z</time></trkpt><trkpt lat="43.13149" lon="11.4824"><ele>141.0</ele><time>2026-04-18T13:10:37.769Z</time></trkpt><trkpt lat="43.1316333" lon="11.482385"><ele>141.75</ele><time>2026-04-18T13:10:38.771Z</time></trkpt><trkpt lat="43.13177" lon="11.4823833"><ele>142.5</ele><time>2026-04-18T13:10:39.77Z</time></trkpt><trkpt lat="43.13191" lon="11.48239"><ele>143.25</ele><time>2026-04-18T13:10:40.768Z</time></trkpt><trkpt lat="43.132045" lon="11.4824167"><ele>144.0</ele><time>2026-04-18T13:10:41.771Z</time></trkpt><trkpt lat="43.1321833" lon="11.48246"><ele>144.0</ele><time>2026-04-18T13:10:42.772Z</time></trkpt><trkpt lat="43.1323233" lon="11.4825117"><ele>144.0</ele><time>2026-04-18T13:10:43.769Z</time></trkpt><trkpt lat="43.1324667" lon="11.4825617"><ele>144.0</ele><time>2026-04-18T13:10:44.773Z</time></trkpt><trkpt lat="43.1326133" lon="11.4826183"><ele>144.0</ele><time>2026-04-18T13:10:45.769Z</time></trkpt><trkpt lat="43.1327633" lon="11.482675"><ele>143.66666666666666</ele><time>2026-04-18T13:10:46.769Z</time></trkpt><trkpt lat="43.132915" lon="11.4827283"><ele>143.33333333333331</ele><time>2026-04-18T13:10:47.766Z</time></trkpt><trkpt lat="43.133065" lon="11.4827833"><ele>143.0</ele><time>2026-04-18T13:10:48.769Z</time></trkpt><trkpt lat="43.1332167" lon="11.4828433"><ele>143.5</ele><time>2026-04-18T13:10:49.766Z</time></trkpt><trkpt lat="43.1333667" lon="11.4829"><ele>144.0</ele><time>2026-04-18T13:10:50.769Z</time></trkpt><trkpt lat="43.1335133" lon="11.4829533"><ele>144.5</ele><time>2026-04-18T13:10:51.769Z</time></trkpt><trkpt lat="43.1336467" lon="11.4829983"><ele>145.0</ele><time>2026-04-18T13:10:52.765Z</time></trkpt><trkpt lat="43.1337667" lon="11.4830317"><ele>145.0</ele><time>2026-04-18T13:10:53.769Z</time></trkpt><trkpt lat="43.1338733" lon="11.4830533"><ele>145.0</ele><time>2026-04-18T13:10:54.774Z</time></trkpt><trkpt lat="43.1339833" lon="11.483075"><ele>145.0</ele><time>2026-04-18T13:10:55.768Z</time></trkpt><trkpt lat="43.1341033" lon="11.483095"><ele>145.0</ele><time>2026-04-18T13:10:56.773Z</time></trkpt><trkpt lat="43.1342333" lon="11.4831233"><ele>145.0</ele><time>2026-04-18T13:10:57.77Z</time></trkpt><trkpt lat="43.1343667" lon="11.4831483"><ele>145.0</ele><time>2026-04-18T13:10:58.769Z</time></trkpt><trkpt lat="43.1344983" lon="11.483175"><ele>145.0</ele><time>2026-04-18T13:10:59.769Z</time></trkpt><trkpt lat="43.1346367" lon="11.4831983"><ele>145.0</ele><time>2026-04-18T13:11:00.769Z</time></trkpt><trkpt lat="43.1347717" lon="11.4832233"><ele>145.25</ele><time>2026-04-18T13:11:01.765Z</time></trkpt><trkpt lat="43.1349033" lon="11.48325"><ele>145.5</ele><time>2026-04-18T13:11:02.774Z</time></trkpt><trkpt lat="43.1350317" lon="11.4832783"><ele>145.75</ele><time>2026-04-18T13:11:03.769Z</time></trkpt><trkpt lat="43.135155" lon="11.4832983"><ele>146.0</ele><time>2026-04-18T13:11:04.769Z</time></trkpt><trkpt lat="43.135275" lon="11.4833217"><ele>146.0</ele><time>2026-04-18T13:11:05.765Z</time></trkpt><trkpt lat="43.13539" lon="11.48335"><ele>146.0</ele><time>2026-04-18T13:11:06.773Z</time></trkpt><trkpt lat="43.1355033" lon="11.4833733"><ele>146.0</ele><time>2026-04-18T13:11:07.772Z</time></trkpt><trkpt lat="43.1356217" lon="11.48339"><ele>146.0</ele><time>2026-04-18T13:11:08.773Z</time></trkpt><trkpt lat="43.1357417" lon="11.4834017"><ele>146.0</ele><time>2026-04-18T13:11:09.771Z</time></trkpt><trkpt lat="43.1358617" lon="11.4834083"><ele>146.0</ele><time>2026-04-18T13:11:10.769Z</time></trkpt><trkpt lat="43.1359817" lon="11.4834117"><ele>146.0</ele><time>2026-04-18T13:11:11.769Z</time></trkpt><trkpt lat="43.1360983" lon="11.483415"><ele>146.0</ele><time>2026-04-18T13:11:12.768Z</time></trkpt><trkpt lat="43.136215" lon="11.48342"><ele>146.0</ele><time>2026-04-18T13:11:13.77Z</time></trkpt><trkpt lat="43.1363267" lon="11.4834217"><ele>146.0</ele><time>2026-04-18T13:11:14.772Z</time></trkpt><trkpt lat="43.1364333" lon="11.48342"><ele>146.0</ele><time>2026-04-18T13:11:15.767Z</time></trkpt><trkpt lat="43.1365333" lon="11.4834167"><ele>146.0</ele><time>2026-04-18T13:11:16.766Z</time></trkpt><trkpt lat="43.1366317" lon="11.4834133"><ele>146.0</ele><time>2026-04-18T13:11:17.77Z</time></trkpt><trkpt lat="43.1367267" lon="11.4834083"><ele>146.0</ele><time>2026-04-18T13:11:18.767Z</time></trkpt><trkpt lat="43.1368183" lon="11.483405"><ele>146.0</ele><time>2026-04-18T13:11:19.767Z</time></trkpt><trkpt lat="43.136905" lon="11.4834017"><ele>146.0</ele><time>2026-04-18T13:11:20.774Z</time></trkpt><trkpt lat="43.13699" lon="11.4834"><ele>146.0</ele><time>2026-04-18T13:11:21.77Z</time></trkpt><trkpt lat="43.1370717" lon="11.4833917"><ele>146.0</ele><time>2026-04-18T13:11:22.768Z</time></trkpt><trkpt lat="43.1371533" lon="11.4833883"><ele>146.0</ele><time>2026-04-18T13:11:23.769Z</time></trkpt><trkpt lat="43.13723" lon="11.48339"><ele>146.0</ele><time>2026-04-18T13:11:24.773Z</time></trkpt><trkpt lat="43.1373067" lon="11.48339"><ele>146.0</ele><time>2026-04-18T13:11:25.767Z</time></trkpt><trkpt lat="43.137375" lon="11.48339"><ele>146.0</ele><time>2026-04-18T13:11:26.771Z</time></trkpt><trkpt lat="43.1374667" lon="11.4833867"><ele>146.0</ele><time>2026-04-18T13:11:28.769Z</time></trkpt><trkpt lat="43.1375483" lon="11.48338"><ele>146.0</ele><time>2026-04-18T13:11:30.771Z</time></trkpt><trkpt lat="43.13767" lon="11.483375"><ele>146.0</ele><time>2026-04-18T13:11:32.77Z</time></trkpt><trkpt lat="43.1377517" lon="11.4833767"><ele>146.0</ele><time>2026-04-18T13:11:33.769Z</time></trkpt><trkpt lat="43.137835" lon="11.4833733"><ele>146.0</ele><time>2026-04-18T13:11:34.77Z</time></trkpt><trkpt lat="43.1379333" lon="11.4833767"><ele>146.0</ele><time>2026-04-18T13:11:35.769Z</time></trkpt><trkpt lat="43.1380367" lon="11.4833783"><ele>146.0</ele><time>2026-04-18T13:11:36.769Z</time></trkpt><trkpt lat="43.13815" lon="11.4833783"><ele>146.0</ele><time>2026-04-18T13:11:37.77Z</time></trkpt><trkpt lat="43.1382683" lon="11.4833667"><ele>146.0</ele><time>2026-04-18T13:11:38.766Z</time></trkpt><trkpt lat="43.1383883" lon="11.4833467"><ele>146.0</ele><time>2026-04-18T13:11:39.765Z</time></trkpt><trkpt lat="43.13851" lon="11.4833183"><ele>146.0</ele><time>2026-04-18T13:11:40.765Z</time></trkpt><trkpt lat="43.1386317" lon="11.48328"><ele>146.0</ele><time>2026-04-18T13:11:41.77Z</time></trkpt><trkpt lat="43.1387517" lon="11.4832367"><ele>146.0</ele><time>2026-04-18T13:11:42.772Z</time></trkpt><trkpt lat="43.1388667" lon="11.4831867"><ele>146.0</ele><time>2026-04-18T13:11:43.77Z</time></trkpt><trkpt lat="43.138975" lon="11.483135"><ele>146.0</ele><time>2026-04-18T13:11:44.773Z</time></trkpt><trkpt lat="43.1390783" lon="11.4830817"><ele>146.0</ele><time>2026-04-18T13:11:45.769Z</time></trkpt><trkpt lat="43.1391767" lon="11.48302"><ele>145.8</ele><time>2026-04-18T13:11:46.767Z</time></trkpt><trkpt lat="43.139275" lon="11.4829583"><ele>145.6</ele><time>2026-04-18T13:11:47.77Z</time></trkpt><trkpt lat="43.1393733" lon="11.48289"><ele>145.4</ele><time>2026-04-18T13:11:48.774Z</time></trkpt><trkpt lat="43.1394717" lon="11.4828167"><ele>145.2</ele><time>2026-04-18T13:11:49.769Z</time></trkpt><trkpt lat="43.1395717" lon="11.4827433"><ele>145.0</ele><time>2026-04-18T13:11:50.773Z</time></trkpt><trkpt lat="43.1396717" lon="11.4826733"><ele>145.5</ele><time>2026-04-18T13:11:51.768Z</time></trkpt><trkpt lat="43.1397733" lon="11.482605"><ele>146.0</ele><time>2026-04-18T13:11:52.769Z</time></trkpt><trkpt lat="43.1398783" lon="11.48253"><ele>146.5</ele><time>2026-04-18T13:11:53.769Z</time></trkpt><trkpt lat="43.1399933" lon="11.4824517"><ele>147.0</ele><time>2026-04-18T13:11:54.767Z</time></trkpt><trkpt lat="43.1401183" lon="11.4823667"><ele>146.0</ele><time>2026-04-18T13:11:55.769Z</time></trkpt><trkpt lat="43.1402483" lon="11.4822717"><ele>145.0</ele><time>2026-04-18T13:11:56.773Z</time></trkpt><trkpt lat="43.1403783" lon="11.4821733"><ele>144.0</ele><time>2026-04-18T13:11:57.769Z</time></trkpt><trkpt lat="43.1405067" lon="11.4820833"><ele>143.0</ele><time>2026-04-18T13:11:58.767Z</time></trkpt><trkpt lat="43.14064" lon="11.4819917"><ele>142.33333333333331</ele><time>2026-04-18T13:11:59.767Z</time></trkpt><trkpt lat="43.14078" lon="11.481895"><ele>141.66666666666666</ele><time>2026-04-18T13:12:00.773Z</time></trkpt><trkpt lat="43.1409267" lon="11.4817867"><ele>141.0</ele><time>2026-04-18T13:12:01.77Z</time></trkpt><trkpt lat="43.14108" lon="11.4816783"><ele>141.0</ele><time>2026-04-18T13:12:02.773Z</time></trkpt><trkpt lat="43.141235" lon="11.48157"><ele>141.0</ele><time>2026-04-18T13:12:03.77Z</time></trkpt><trkpt lat="43.1413933" lon="11.4814517"><ele>141.0</ele><time>2026-04-18T13:12:04.764Z</time></trkpt><trkpt lat="43.1415467" lon="11.4813133"><ele>141.33333333333334</ele><time>2026-04-18T13:12:05.77Z</time></trkpt><trkpt lat="43.1416933" lon="11.481145"><ele>141.66666666666669</ele><time>2026-04-18T13:12:06.769Z</time></trkpt><trkpt lat="43.14183" lon="11.480965"><ele>142.0</ele><time>2026-04-18T13:12:07.767Z</time></trkpt><trkpt lat="43.141965" lon="11.4807833"><ele>142.0</ele><time>2026-04-18T13:12:08.772Z</time></trkpt><trkpt lat="43.1421" lon="11.480615"><ele>142.0</ele><time>2026-04-18T13:12:09.771Z</time></trkpt><trkpt lat="43.1422383" lon="11.4804483"><ele>142.0</ele><time>2026-04-18T13:12:10.77Z</time></trkpt><trkpt lat="43.142375" lon="11.4802867"><ele>142.66666666666669</ele><time>2026-04-18T13:12:11.768Z</time></trkpt><trkpt lat="43.1425067" lon="11.480115"><ele>143.33333333333334</ele><time>2026-04-18T13:12:12.774Z</time></trkpt><trkpt lat="43.1426217" lon="11.4799283"><ele>144.0</ele><time>2026-04-18T13:12:13.766Z</time></trkpt><trkpt lat="43.1427083" lon="11.4797133"><ele>143.66666666666666</ele><time>2026-04-18T13:12:14.772Z</time></trkpt><trkpt lat="43.1427733" lon="11.4794733"><ele>143.33333333333331</ele><time>2026-04-18T13:12:15.772Z</time></trkpt><trkpt lat="43.142835" lon="11.479215"><ele>143.0</ele><time>2026-04-18T13:12:16.769Z</time></trkpt><trkpt lat="43.1428817" lon="11.4789467"><ele>143.0</ele><time>2026-04-18T13:12:17.77Z</time></trkpt><trkpt lat="43.1429217" lon="11.47867"><ele>143.0</ele><time>2026-04-18T13:12:18.77Z</time></trkpt><trkpt lat="43.1429567" lon="11.4783967"><ele>143.0</ele><time>2026-04-18T13:12:19.768Z</time></trkpt><trkpt lat="43.1429967" lon="11.4781367"><ele>143.0</ele><time>2026-04-18T13:12:20.772Z</time></trkpt><trkpt lat="43.1430433" lon="11.477895"><ele>143.0</ele><time>2026-04-18T13:12:21.77Z</time></trkpt><trkpt lat="43.143105" lon="11.4776717"><ele>143.0</ele><time>2026-04-18T13:12:22.767Z</time></trkpt><trkpt lat="43.1431883" lon="11.4774667"><ele>143.0</ele><time>2026-04-18T13:12:23.769Z</time></trkpt><trkpt lat="43.14329" lon="11.4772683"><ele>143.0</ele><time>2026-04-18T13:12:24.762Z</time></trkpt><trkpt lat="43.1434117" lon="11.4770833"><ele>143.0</ele><time>2026-04-18T13:12:25.768Z</time></trkpt><trkpt lat="43.1435467" lon="11.4769167"><ele>143.0</ele><time>2026-04-18T13:12:26.772Z</time></trkpt><trkpt lat="43.1436917" lon="11.47676"><ele>143.0</ele><time>2026-04-18T13:12:27.769Z</time></trkpt><trkpt lat="43.1438383" lon="11.47661"><ele>143.0</ele><time>2026-04-18T13:12:28.768Z</time></trkpt><trkpt lat="43.1439817" lon="11.4764617"><ele>142.66666666666666</ele><time>2026-04-18T13:12:29.769Z</time></trkpt><trkpt lat="43.1441217" lon="11.4763267"><ele>142.33333333333334</ele><time>2026-04-18T13:12:30.772Z</time></trkpt><trkpt lat="43.14427" lon="11.4762317"><ele>142.0</ele><time>2026-04-18T13:12:31.768Z</time></trkpt><trkpt lat="43.144435" lon="11.4761817"><ele>142.0</ele><time>2026-04-18T13:12:32.767Z</time></trkpt><trkpt lat="43.1446183" lon="11.47618"><ele>142.0</ele><time>2026-04-18T13:12:33.77Z</time></trkpt><trkpt lat="43.144805" lon="11.476205"><ele>142.0</ele><time>2026-04-18T13:12:34.766Z</time></trkpt><trkpt lat="43.1449967" lon="11.4762183"><ele>142.0</ele><time>2026-04-18T13:12:35.768Z</time></trkpt><trkpt lat="43.1451967" lon="11.4762233"><ele>142.0</ele><time>2026-04-18T13:12:36.767Z</time></trkpt><trkpt lat="43.1454033" lon="11.4762"><ele>142.0</ele><time>2026-04-18T13:12:37.771Z</time></trkpt><trkpt lat="43.1456083" lon="11.4761517"><ele>143.0</ele><time>2026-04-18T13:12:38.769Z</time></trkpt><trkpt lat="43.14582" lon="11.476085"><ele>144.0</ele><time>2026-04-18T13:12:39.771Z</time></trkpt><trkpt lat="43.1460383" lon="11.4760083"><ele>145.0</ele><time>2026-04-18T13:12:40.765Z</time></trkpt><trkpt lat="43.1462583" lon="11.47593"><ele>145.0</ele><time>2026-04-18T13:12:41.771Z</time></trkpt><trkpt lat="43.1464817" lon="11.4758467"><ele>145.0</ele><time>2026-04-18T13:12:42.767Z</time></trkpt><trkpt lat="43.1467117" lon="11.475765"><ele>146.5</ele><time>2026-04-18T13:12:43.77Z</time></trkpt><trkpt lat="43.146945" lon="11.4756817"><ele>148.0</ele><time>2026-04-18T13:12:44.771Z</time></trkpt><trkpt lat="43.1471717" lon="11.4756"><ele>149.0</ele><time>2026-04-18T13:12:45.764Z</time></trkpt><trkpt lat="43.1474033" lon="11.475515"><ele>150.0</ele><time>2026-04-18T13:12:46.767Z</time></trkpt><trkpt lat="43.1476417" lon="11.4754267"><ele>147.0</ele><time>2026-04-18T13:12:47.765Z</time></trkpt><trkpt lat="43.1478767" lon="11.475335"><ele>144.0</ele><time>2026-04-18T13:12:48.771Z</time></trkpt><trkpt lat="43.148115" lon="11.47524"><ele>145.0</ele><time>2026-04-18T13:12:49.771Z</time></trkpt><trkpt lat="43.1483583" lon="11.4751483"><ele>146.0</ele><time>2026-04-18T13:12:50.772Z</time></trkpt><trkpt lat="43.1486017" lon="11.4750567"><ele>146.0</ele><time>2026-04-18T13:12:51.769Z</time></trkpt><trkpt lat="43.148845" lon="11.4749617"><ele>146.0</ele><time>2026-04-18T13:12:52.77Z</time></trkpt><trkpt lat="43.1490867" lon="11.4748583"><ele>147.0</ele><time>2026-04-18T13:12:53.769Z</time></trkpt><trkpt lat="43.1493267" lon="11.4747433"><ele>148.0</ele><time>2026-04-18T13:12:54.769Z</time></trkpt><trkpt lat="43.1495633" lon="11.4746183"><ele>147.5</ele><time>2026-04-18T13:12:55.77Z</time></trkpt><trkpt lat="43.1497967" lon="11.47448"><ele>147.0</ele><time>2026-04-18T13:12:56.771Z</time></trkpt><trkpt lat="43.1500333" lon="11.4743317"><ele>147.0</ele><time>2026-04-18T13:12:57.77Z</time></trkpt><trkpt lat="43.1502683" lon="11.4741683"><ele>147.0</ele><time>2026-04-18T13:12:58.769Z</time></trkpt><trkpt lat="43.1504933" lon="11.47399"><ele>147.5</ele><time>2026-04-18T13:12:59.77Z</time></trkpt><trkpt lat="43.150715" lon="11.473785"><ele>148.0</ele><time>2026-04-18T13:13:00.77Z</time></trkpt><trkpt lat="43.1509283" lon="11.4735717"><ele>148.0</ele><time>2026-04-18T13:13:01.77Z</time></trkpt><trkpt lat="43.15114" lon="11.4733617"><ele>148.0</ele><time>2026-04-18T13:13:02.771Z</time></trkpt><trkpt lat="43.151355" lon="11.4731583"><ele>148.5</ele><time>2026-04-18T13:13:03.769Z</time></trkpt><trkpt lat="43.1515783" lon="11.47297"><ele>149.0</ele><time>2026-04-18T13:13:04.771Z</time></trkpt><trkpt lat="43.1518133" lon="11.4728033"><ele>146.0</ele><time>2026-04-18T13:13:05.769Z</time></trkpt><trkpt lat="43.1520567" lon="11.4726633"><ele>143.0</ele><time>2026-04-18T13:13:06.768Z</time></trkpt><trkpt lat="43.15231" lon="11.472555"><ele>143.0</ele><time>2026-04-18T13:13:07.77Z</time></trkpt><trkpt lat="43.1525683" lon="11.4724667"><ele>143.0</ele><time>2026-04-18T13:13:08.771Z</time></trkpt><trkpt lat="43.1528333" lon="11.4724"><ele>143.0</ele><time>2026-04-18T13:13:09.766Z</time></trkpt><trkpt lat="43.153095" lon="11.4723467"><ele>143.0</ele><time>2026-04-18T13:13:10.769Z</time></trkpt><trkpt lat="43.153355" lon="11.4722933"><ele>143.0</ele><time>2026-04-18T13:13:11.768Z</time></trkpt><trkpt lat="43.1536083" lon="11.4722383"><ele>143.0</ele><time>2026-04-18T13:13:12.77Z</time></trkpt><trkpt lat="43.15385" lon="11.4721833"><ele>143.5</ele><time>2026-04-18T13:13:13.77Z</time></trkpt><trkpt lat="43.1540817" lon="11.4721283"><ele>144.0</ele><time>2026-04-18T13:13:14.773Z</time></trkpt><trkpt lat="43.1543017" lon="11.4720767"><ele>144.0</ele><time>2026-04-18T13:13:15.766Z</time></trkpt><trkpt lat="43.1545083" lon="11.47203"><ele>144.0</ele><time>2026-04-18T13:13:16.766Z</time></trkpt><trkpt lat="43.1547167" lon="11.47198"><ele>144.0</ele><time>2026-04-18T13:13:17.771Z</time></trkpt><trkpt lat="43.154925" lon="11.4719317"><ele>144.33333333333334</ele><time>2026-04-18T13:13:18.769Z</time></trkpt><trkpt lat="43.1551267" lon="11.471885"><ele>144.66666666666669</ele><time>2026-04-18T13:13:19.766Z</time></trkpt><trkpt lat="43.155315" lon="11.4718433"><ele>145.0</ele><time>2026-04-18T13:13:20.77Z</time></trkpt><trkpt lat="43.1554967" lon="11.4718067"><ele>145.0</ele><time>2026-04-18T13:13:21.769Z</time></trkpt><trkpt lat="43.1556683" lon="11.47177"><ele>145.0</ele><time>2026-04-18T13:13:22.768Z</time></trkpt><trkpt lat="43.1558317" lon="11.4717333"><ele>145.0</ele><time>2026-04-18T13:13:23.771Z</time></trkpt><trkpt lat="43.1559867" lon="11.4716967"><ele>146.0</ele><time>2026-04-18T13:13:24.771Z</time></trkpt><trkpt lat="43.1561367" lon="11.47166"><ele>147.0</ele><time>2026-04-18T13:13:25.77Z</time></trkpt><trkpt lat="43.156285" lon="11.4716233"><ele>148.0</ele><time>2026-04-18T13:13:26.773Z</time></trkpt><trkpt lat="43.1564333" lon="11.47159"><ele>148.25</ele><time>2026-04-18T13:13:27.768Z</time></trkpt><trkpt lat="43.1565783" lon="11.471555"><ele>148.5</ele><time>2026-04-18T13:13:28.766Z</time></trkpt><trkpt lat="43.156725" lon="11.4715217"><ele>148.75</ele><time>2026-04-18T13:13:29.77Z</time></trkpt><trkpt lat="43.156875" lon="11.4714883"><ele>149.0</ele><time>2026-04-18T13:13:30.769Z</time></trkpt><trkpt lat="43.15703" lon="11.4714533"><ele>149.0</ele><time>2026-04-18T13:13:31.77Z</time></trkpt><trkpt lat="43.1571933" lon="11.471415"><ele>149.0</ele><time>2026-04-18T13:13:32.771Z</time></trkpt><trkpt lat="43.157355" lon="11.4713833"><ele>149.0</ele><time>2026-04-18T13:13:33.768Z</time></trkpt><trkpt lat="43.1575133" lon="11.47135"><ele>149.0</ele><time>2026-04-18T13:13:34.768Z</time></trkpt><trkpt lat="43.1576683" lon="11.47131"><ele>149.0</ele><time>2026-04-18T13:13:35.768Z</time></trkpt><trkpt lat="43.1578167" lon="11.471255"><ele>149.0</ele><time>2026-04-18T13:13:36.771Z</time></trkpt><trkpt lat="43.1579617" lon="11.47118"><ele>148.33333333333331</ele><time>2026-04-18T13:13:37.77Z</time></trkpt><trkpt lat="43.1580983" lon="11.47109"><ele>147.66666666666666</ele><time>2026-04-18T13:13:38.771Z</time></trkpt><trkpt lat="43.1582383" lon="11.470985"><ele>147.0</ele><time>2026-04-18T13:13:39.768Z</time></trkpt><trkpt lat="43.158385" lon="11.47086"><ele>147.0</ele><time>2026-04-18T13:13:40.77Z</time></trkpt><trkpt lat="43.158545" lon="11.4707217"><ele>147.0</ele><time>2026-04-18T13:13:41.768Z</time></trkpt><trkpt lat="43.158715" lon="11.4705817"><ele>147.0</ele><time>2026-04-18T13:13:42.768Z</time></trkpt><trkpt lat="43.158895" lon="11.4704417"><ele>147.0</ele><time>2026-04-18T13:13:43.77Z</time></trkpt><trkpt lat="43.1590783" lon="11.470295"><ele>147.0</ele><time>2026-04-18T13:13:44.773Z</time></trkpt><trkpt lat="43.1592583" lon="11.4701417"><ele>147.0</ele><time>2026-04-18T13:13:45.769Z</time></trkpt><trkpt lat="43.159425" lon="11.469985"><ele>147.0</ele><time>2026-04-18T13:13:46.767Z</time></trkpt><trkpt lat="43.1595933" lon="11.469815"><ele>147.0</ele><time>2026-04-18T13:13:47.768Z</time></trkpt><trkpt lat="43.1597783" lon="11.4696233"><ele>147.0</ele><time>2026-04-18T13:13:48.768Z</time></trkpt><trkpt lat="43.1599783" lon="11.4694333"><ele>146.5</ele><time>2026-04-18T13:13:49.77Z</time></trkpt><trkpt lat="43.1601733" lon="11.4692633"><ele>146.0</ele><time>2026-04-18T13:13:50.768Z</time></trkpt><trkpt lat="43.1603617" lon="11.4691067"><ele>146.0</ele><time>2026-04-18T13:13:51.768Z</time></trkpt><trkpt lat="43.160535" lon="11.4689567"><ele>146.0</ele><time>2026-04-18T13:13:52.77Z</time></trkpt><trkpt lat="43.1607033" lon="11.4688317"><ele>146.0</ele><time>2026-04-18T13:13:53.77Z</time></trkpt><trkpt lat="43.160885" lon="11.46874"><ele>147.0</ele><time>2026-04-18T13:13:54.769Z</time></trkpt><trkpt lat="43.161085" lon="11.46866"><ele>148.0</ele><time>2026-04-18T13:13:55.764Z</time></trkpt><trkpt lat="43.1612983" lon="11.468605"><ele>149.0</ele><time>2026-04-18T13:13:56.772Z</time></trkpt><trkpt lat="43.1615217" lon="11.4685583"><ele>150.0</ele><time>2026-04-18T13:13:57.77Z</time></trkpt><trkpt lat="43.16175" lon="11.468515"><ele>151.0</ele><time>2026-04-18T13:13:58.77Z</time></trkpt><trkpt lat="43.161975" lon="11.4684733"><ele>151.0</ele><time>2026-04-18T13:13:59.768Z</time></trkpt><trkpt lat="43.1622" lon="11.4684333"><ele>151.0</ele><time>2026-04-18T13:14:00.771Z</time></trkpt><trkpt lat="43.16242" lon="11.4683917"><ele>151.0</ele><time>2026-04-18T13:14:01.77Z</time></trkpt><trkpt lat="43.1626317" lon="11.46835"><ele>150.0</ele><time>2026-04-18T13:14:02.773Z</time></trkpt><trkpt lat="43.162835" lon="11.4682917"><ele>149.0</ele><time>2026-04-18T13:14:03.77Z</time></trkpt><trkpt lat="43.16303" lon="11.4682033"><ele>148.0</ele><time>2026-04-18T13:14:04.77Z</time></trkpt><trkpt lat="43.16322" lon="11.468095"><ele>147.33333333333334</ele><time>2026-04-18T13:14:05.766Z</time></trkpt><trkpt lat="43.1634133" lon="11.4679667"><ele>146.66666666666666</ele><time>2026-04-18T13:14:06.769Z</time></trkpt><trkpt lat="43.1636067" lon="11.4678317"><ele>146.0</ele><time>2026-04-18T13:14:07.769Z</time></trkpt><trkpt lat="43.1638" lon="11.4676883"><ele>146.0</ele><time>2026-04-18T13:14:08.772Z</time></trkpt><trkpt lat="43.1639983" lon="11.467545"><ele>146.0</ele><time>2026-04-18T13:14:09.769Z</time></trkpt><trkpt lat="43.1641967" lon="11.4674033"><ele>146.0</ele><time>2026-04-18T13:14:10.769Z</time></trkpt><trkpt lat="43.164395" lon="11.4672633"><ele>146.0</ele><time>2026-04-18T13:14:11.769Z</time></trkpt><trkpt lat="43.164585" lon="11.4671317"><ele>146.0</ele><time>2026-04-18T13:14:12.769Z</time></trkpt><trkpt lat="43.16477" lon="11.467005"><ele>146.0</ele><time>2026-04-18T13:14:13.771Z</time></trkpt><trkpt lat="43.1649483" lon="11.4668783"><ele>146.66666666666666</ele><time>2026-04-18T13:14:14.774Z</time></trkpt><trkpt lat="43.1651183" lon="11.46676"><ele>147.33333333333334</ele><time>2026-04-18T13:14:15.77Z</time></trkpt><trkpt lat="43.1652867" lon="11.4666533"><ele>148.0</ele><time>2026-04-18T13:14:16.769Z</time></trkpt><trkpt lat="43.1654517" lon="11.466565"><ele>148.0</ele><time>2026-04-18T13:14:17.769Z</time></trkpt><trkpt lat="43.16561" lon="11.46648"><ele>148.0</ele><time>2026-04-18T13:14:18.771Z</time></trkpt><trkpt lat="43.1657483" lon="11.466395"><ele>148.0</ele><time>2026-04-18T13:14:19.767Z</time></trkpt><trkpt lat="43.1658717" lon="11.466285"><ele>147.0</ele><time>2026-04-18T13:14:20.771Z</time></trkpt><trkpt lat="43.1659783" lon="11.466155"><ele>146.0</ele><time>2026-04-18T13:14:21.769Z</time></trkpt><trkpt lat="43.16608" lon="11.4660183"><ele>145.0</ele><time>2026-04-18T13:14:22.761Z</time></trkpt><trkpt lat="43.166175" lon="11.4658883"><ele>144.0</ele><time>2026-04-18T13:14:23.76Z</time></trkpt><trkpt lat="43.1662617" lon="11.4657633"><ele>144.0</ele><time>2026-04-18T13:14:24.76Z</time></trkpt><trkpt lat="43.1663383" lon="11.46565"><ele>144.0</ele><time>2026-04-18T13:14:25.769Z</time></trkpt><trkpt lat="43.1664083" lon="11.465555"><ele>144.0</ele><time>2026-04-18T13:14:26.77Z</time></trkpt><trkpt lat="43.166475" lon="11.46547"><ele>144.0</ele><time>2026-04-18T13:14:27.768Z</time></trkpt><trkpt lat="43.1665333" lon="11.46541"><ele>144.0</ele><time>2026-04-18T13:14:28.769Z</time></trkpt><trkpt lat="43.1666333" lon="11.465355"><ele>144.33333333333334</ele><time>2026-04-18T13:14:30.767Z</time></trkpt><trkpt lat="43.16671" lon="11.4654317"><ele>144.66666666666666</ele><time>2026-04-18T13:14:32.771Z</time></trkpt><trkpt lat="43.1667867" lon="11.4655533"><ele>145.0</ele><time>2026-04-18T13:14:34.77Z</time></trkpt><trkpt lat="43.1668383" lon="11.4656283"><ele>145.33333333333331</ele><time>2026-04-18T13:14:35.769Z</time></trkpt><trkpt lat="43.1668933" lon="11.4656983"><ele>145.66666666666666</ele><time>2026-04-18T13:14:36.769Z</time></trkpt><trkpt lat="43.1669483" lon="11.4657717"><ele>146.0</ele><time>2026-04-18T13:14:37.768Z</time></trkpt><trkpt lat="43.1670017" lon="11.465845"><ele>146.0</ele><time>2026-04-18T13:14:38.772Z</time></trkpt><trkpt lat="43.1670567" lon="11.4659133"><ele>146.0</ele><time>2026-04-18T13:14:39.769Z</time></trkpt><trkpt lat="43.1671183" lon="11.465975"><ele>146.0</ele><time>2026-04-18T13:14:40.768Z</time></trkpt><trkpt lat="43.167185" lon="11.4660333"><ele>146.0</ele><time>2026-04-18T13:14:41.768Z</time></trkpt><trkpt lat="43.1672583" lon="11.4660867"><ele>146.0</ele><time>2026-04-18T13:14:42.768Z</time></trkpt><trkpt lat="43.1673283" lon="11.4661383"><ele>146.0</ele><time>2026-04-18T13:14:43.768Z</time></trkpt><trkpt lat="43.1673917" lon="11.4661867"><ele>146.5</ele><time>2026-04-18T13:14:44.767Z</time></trkpt><trkpt lat="43.1674517" lon="11.4662317"><ele>147.0</ele><time>2026-04-18T13:14:45.765Z</time></trkpt><trkpt lat="43.1675117" lon="11.46628"><ele>147.5</ele><time>2026-04-18T13:14:46.764Z</time></trkpt><trkpt lat="43.1675683" lon="11.466325"><ele>148.0</ele><time>2026-04-18T13:14:47.765Z</time></trkpt><trkpt lat="43.1676267" lon="11.466365"><ele>148.5</ele><time>2026-04-18T13:14:48.766Z</time></trkpt><trkpt lat="43.167735" lon="11.466395"><ele>149.0</ele><time>2026-04-18T13:14:50.766Z</time></trkpt><trkpt lat="43.1678317" lon="11.4663983"><ele>149.0</ele><time>2026-04-18T13:14:52.763Z</time></trkpt><trkpt lat="43.16789" lon="11.4663167"><ele>149.0</ele><time>2026-04-18T13:14:54.771Z</time></trkpt><trkpt lat="43.1679" lon="11.4661783"><ele>149.0</ele><time>2026-04-18T13:14:56.771Z</time></trkpt><trkpt lat="43.1678867" lon="11.4660633"><ele>149.0</ele><time>2026-04-18T13:14:58.767Z</time></trkpt><trkpt lat="43.1678367" lon="11.4659833"><ele>149.0</ele><time>2026-04-18T13:15:01.77Z</time></trkpt></trkseg><trkseg><trkpt lat="43.1679317" lon="11.4660667"><ele>149.0</ele><time>2026-04-18T13:45:04.733Z</time></trkpt><trkpt lat="43.1678667" lon="11.466025"><ele>149.0</ele><time>2026-04-18T13:45:08.762Z</time></trkpt><trkpt lat="43.1678183" lon="11.4659467"><ele>149.0</ele><time>2026-04-18T13:47:55.769Z</time></trkpt><trkpt lat="43.1677467" lon="11.46588"><ele>149.0</ele><time>2026-04-18T13:48:24.77Z</time></trkpt><trkpt lat="43.1676817" lon="11.4658667"><ele>149.0</ele><time>2026-04-18T13:48:26.761Z</time></trkpt><trkpt lat="43.1676" lon="11.4659367"><ele>149.0</ele><time>2026-04-18T13:48:28.765Z</time></trkpt><trkpt lat="43.167535" lon="11.466015"><ele>149.0</ele><time>2026-04-18T13:48:30.766Z</time></trkpt><trkpt lat="43.16749" lon="11.466085"><ele>149.0</ele><time>2026-04-18T13:48:32.76Z</time></trkpt><trkpt lat="43.167445" lon="11.4661533"><ele>149.0</ele><time>2026-04-18T13:48:35.768Z</time></trkpt><trkpt lat="43.16748" lon="11.46623"><ele>149.0</ele><time>2026-04-18T13:48:38.768Z</time></trkpt><trkpt lat="43.1675433" lon="11.4663033"><ele>149.0</ele><time>2026-04-18T13:48:40.767Z</time></trkpt><trkpt lat="43.167625" lon="11.4663683"><ele>149.0</ele><time>2026-04-18T13:48:42.765Z</time></trkpt><trkpt lat="43.16769" lon="11.46638"><ele>149.0</ele><time>2026-04-18T13:48:44.77Z</time></trkpt><trkpt lat="43.167755" lon="11.4663783"><ele>149.0</ele><time>2026-04-18T13:48:47.769Z</time></trkpt><trkpt lat="43.1678467" lon="11.4663533"><ele>149.0</ele><time>2026-04-18T13:48:50.772Z</time></trkpt><trkpt lat="43.1679167" lon="11.4663333"><ele>149.0</ele><time>2026-04-18T13:48:52.768Z</time></trkpt><trkpt lat="43.1680033" lon="11.4663183"><ele>149.0</ele><time>2026-04-18T13:48:54.769Z</time></trkpt><trkpt lat="43.1680867" lon="11.4663083"><ele>149.0</ele><time>2026-04-18T13:48:56.771Z</time></trkpt><trkpt lat="43.1681667" lon="11.4662833"><ele>149.0</ele><time>2026-04-18T13:48:58.767Z</time></trkpt><trkpt lat="43.1682517" lon="11.4662567"><ele>149.0</ele><time>2026-04-18T13:49:00.772Z</time></trkpt><trkpt lat="43.16834" lon="11.466235"><ele>149.0</ele><time>2026-04-18T13:49:02.772Z</time></trkpt><trkpt lat="43.1684233" lon="11.4662033"><ele>149.0</ele><time>2026-04-18T13:49:04.768Z</time></trkpt><trkpt lat="43.1685283" lon="11.4661517"><ele>149.0</ele><time>2026-04-18T13:49:06.76Z</time></trkpt><trkpt lat="43.16859" lon="11.46613"><ele>149.0</ele><time>2026-04-18T13:49:07.761Z</time></trkpt><trkpt lat="43.168655" lon="11.4661067"><ele>149.0</ele><time>2026-04-18T13:49:08.772Z</time></trkpt><trkpt lat="43.1687717" lon="11.4660617"><ele>149.0</ele><time>2026-04-18T13:49:10.771Z</time></trkpt><trkpt lat="43.1688917" lon="11.4660233"><ele>149.0</ele><time>2026-04-18T13:49:12.769Z</time></trkpt><trkpt lat="43.1690183" lon="11.4659817"><ele>149.0</ele><time>2026-04-18T13:49:14.773Z</time></trkpt><trkpt lat="43.1691333" lon="11.4659233"><ele>149.0</ele><time>2026-04-18T13:49:16.769Z</time></trkpt><trkpt lat="43.1692517" lon="11.4658817"><ele>149.2</ele><time>2026-04-18T13:49:18.771Z</time></trkpt><trkpt lat="43.16936" lon="11.4658567"><ele>149.4</ele><time>2026-04-18T13:49:20.77Z</time></trkpt><trkpt lat="43.16943" lon="11.4658083"><ele>149.6</ele><time>2026-04-18T13:49:22.768Z</time></trkpt><trkpt lat="43.1694233" lon="11.4657117"><ele>149.8</ele><time>2026-04-18T13:49:26.77Z</time></trkpt><trkpt lat="43.1692817" lon="11.4657033"><ele>150.0</ele><time>2026-04-18T13:49:28.765Z</time></trkpt><trkpt lat="43.1691733" lon="11.46569"><ele>150.0</ele><time>2026-04-18T13:49:29.771Z</time></trkpt><trkpt lat="43.1690633" lon="11.4656733"><ele>150.0</ele><time>2026-04-18T13:49:30.771Z</time></trkpt><trkpt lat="43.1689533" lon="11.4656583"><ele>150.0</ele><time>2026-04-18T13:49:31.77Z</time></trkpt><trkpt lat="43.1688383" lon="11.4656333"><ele>150.0</ele><time>2026-04-18T13:49:32.771Z</time></trkpt><trkpt lat="43.1687333" lon="11.4655933"><ele>150.0</ele><time>2026-04-18T13:49:33.765Z</time></trkpt><trkpt lat="43.1686267" lon="11.4655467"><ele>149.75</ele><time>2026-04-18T13:49:34.764Z</time></trkpt><trkpt lat="43.1685167" lon="11.4654933"><ele>149.5</ele><time>2026-04-18T13:49:35.77Z</time></trkpt><trkpt lat="43.168405" lon="11.4654383"><ele>149.25</ele><time>2026-04-18T13:49:36.771Z</time></trkpt><trkpt lat="43.1683" lon="11.4653833"><ele>149.0</ele><time>2026-04-18T13:49:37.771Z</time></trkpt><trkpt lat="43.1681967" lon="11.4653233"><ele>149.0</ele><time>2026-04-18T13:49:38.773Z</time></trkpt><trkpt lat="43.168095" lon="11.4652617"><ele>149.0</ele><time>2026-04-18T13:49:39.764Z</time></trkpt><trkpt lat="43.1679933" lon="11.4652067"><ele>149.0</ele><time>2026-04-18T13:49:40.771Z</time></trkpt><trkpt lat="43.1678917" lon="11.46515"><ele>149.0</ele><time>2026-04-18T13:49:41.767Z</time></trkpt><trkpt lat="43.16779" lon="11.4650983"><ele>149.0</ele><time>2026-04-18T13:49:42.771Z</time></trkpt><trkpt lat="43.1676867" lon="11.4650533"><ele>149.0</ele><time>2026-04-18T13:49:43.769Z</time></trkpt><trkpt lat="43.1675767" lon="11.465025"><ele>149.0</ele><time>2026-04-18T13:49:44.773Z</time></trkpt><trkpt lat="43.1674683" lon="11.4650033"><ele>149.0</ele><time>2026-04-18T13:49:45.769Z</time></trkpt><trkpt lat="43.1673633" lon="11.4649883"><ele>149.0</ele><time>2026-04-18T13:49:46.769Z</time></trkpt><trkpt lat="43.16725" lon="11.4649933"><ele>149.0</ele><time>2026-04-18T13:49:47.767Z</time></trkpt><trkpt lat="43.1671483" lon="11.4650117"><ele>148.8</ele><time>2026-04-18T13:49:48.77Z</time></trkpt><trkpt lat="43.16706" lon="11.4650317"><ele>148.60000000000002</ele><time>2026-04-18T13:49:49.769Z</time></trkpt><trkpt lat="43.1669667" lon="11.465065"><ele>148.4</ele><time>2026-04-18T13:49:50.771Z</time></trkpt><trkpt lat="43.166875" lon="11.46512"><ele>148.20000000000002</ele><time>2026-04-18T13:49:51.771Z</time></trkpt><trkpt lat="43.166785" lon="11.4651733"><ele>148.0</ele><time>2026-04-18T13:49:52.77Z</time></trkpt><trkpt lat="43.1666967" lon="11.4652333"><ele>148.0</ele><time>2026-04-18T13:49:53.769Z</time></trkpt><trkpt lat="43.1666117" lon="11.4653083"><ele>148.0</ele><time>2026-04-18T13:49:54.769Z</time></trkpt><trkpt lat="43.1665267" lon="11.4653917"><ele>148.0</ele><time>2026-04-18T13:49:55.767Z</time></trkpt><trkpt lat="43.1664417" lon="11.4654833"><ele>148.0</ele><time>2026-04-18T13:49:56.771Z</time></trkpt><trkpt lat="43.16636" lon="11.4655817"><ele>148.0</ele><time>2026-04-18T13:49:57.769Z</time></trkpt><trkpt lat="43.1662783" lon="11.465685"><ele>147.0</ele><time>2026-04-18T13:49:58.764Z</time></trkpt><trkpt lat="43.1661983" lon="11.46579"><ele>146.0</ele><time>2026-04-18T13:49:59.768Z</time></trkpt><trkpt lat="43.1661217" lon="11.4658967"><ele>145.0</ele><time>2026-04-18T13:50:00.771Z</time></trkpt><trkpt lat="43.1660417" lon="11.4660067"><ele>144.0</ele><time>2026-04-18T13:50:01.77Z</time></trkpt><trkpt lat="43.1659583" lon="11.466125"><ele>144.0</ele><time>2026-04-18T13:50:02.771Z</time></trkpt><trkpt lat="43.1658683" lon="11.4662433"><ele>144.0</ele><time>2026-04-18T13:50:03.771Z</time></trkpt><trkpt lat="43.165765" lon="11.466355"><ele>144.0</ele><time>2026-04-18T13:50:04.766Z</time></trkpt><trkpt lat="43.1656383" lon="11.4664417"><ele>144.0</ele><time>2026-04-18T13:50:05.769Z</time></trkpt><trkpt lat="43.1655033" lon="11.46652"><ele>145.0</ele><time>2026-04-18T13:50:06.773Z</time></trkpt><trkpt lat="43.1653617" lon="11.4665983"><ele>146.0</ele><time>2026-04-18T13:50:07.77Z</time></trkpt><trkpt lat="43.16523" lon="11.4666817"><ele>147.0</ele><time>2026-04-18T13:50:08.758Z</time></trkpt><trkpt lat="43.1650983" lon="11.46677"><ele>148.0</ele><time>2026-04-18T13:50:09.757Z</time></trkpt><trkpt lat="43.1649617" lon="11.4668583"><ele>147.5</ele><time>2026-04-18T13:50:10.758Z</time></trkpt><trkpt lat="43.164835" lon="11.4669467"><ele>147.0</ele><time>2026-04-18T13:50:11.77Z</time></trkpt><trkpt lat="43.1647217" lon="11.467025"><ele>146.5</ele><time>2026-04-18T13:50:12.769Z</time></trkpt><trkpt lat="43.1646233" lon="11.4670967"><ele>146.0</ele><time>2026-04-18T13:50:13.77Z</time></trkpt><trkpt lat="43.164525" lon="11.4671667"><ele>146.0</ele><time>2026-04-18T13:50:14.771Z</time></trkpt><trkpt lat="43.1644233" lon="11.4672367"><ele>146.0</ele><time>2026-04-18T13:50:15.77Z</time></trkpt><trkpt lat="43.16432" lon="11.46731"><ele>146.0</ele><time>2026-04-18T13:50:16.767Z</time></trkpt><trkpt lat="43.1642167" lon="11.4673833"><ele>146.0</ele><time>2026-04-18T13:50:17.771Z</time></trkpt><trkpt lat="43.1641133" lon="11.467455"><ele>145.5</ele><time>2026-04-18T13:50:18.77Z</time></trkpt><trkpt lat="43.1640117" lon="11.4675267"><ele>145.0</ele><time>2026-04-18T13:50:19.763Z</time></trkpt><trkpt lat="43.1639067" lon="11.4675983"><ele>144.5</ele><time>2026-04-18T13:50:20.772Z</time></trkpt><trkpt lat="43.163805" lon="11.4676683"><ele>144.0</ele><time>2026-04-18T13:50:21.77Z</time></trkpt><trkpt lat="43.1637033" lon="11.4677383"><ele>144.0</ele><time>2026-04-18T13:50:22.769Z</time></trkpt><trkpt lat="43.1635967" lon="11.46781"><ele>144.0</ele><time>2026-04-18T13:50:23.77Z</time></trkpt><trkpt lat="43.16349" lon="11.46788"><ele>144.0</ele><time>2026-04-18T13:50:24.77Z</time></trkpt><trkpt lat="43.1633817" lon="11.467955"><ele>144.0</ele><time>2026-04-18T13:50:25.769Z</time></trkpt><trkpt lat="43.1632717" lon="11.4680317"><ele>145.0</ele><time>2026-04-18T13:50:26.772Z</time></trkpt><trkpt lat="43.1631583" lon="11.4681117"><ele>146.0</ele><time>2026-04-18T13:50:27.769Z</time></trkpt><trkpt lat="43.16304" lon="11.468185"><ele>147.0</ele><time>2026-04-18T13:50:28.768Z</time></trkpt><trkpt lat="43.16292" lon="11.46825"><ele>148.0</ele><time>2026-04-18T13:50:29.771Z</time></trkpt><trkpt lat="43.1627967" lon="11.4682967"><ele>148.0</ele><time>2026-04-18T13:50:30.769Z</time></trkpt><trkpt lat="43.1626667" lon="11.4683317"><ele>148.0</ele><time>2026-04-18T13:50:31.767Z</time></trkpt><trkpt lat="43.1625317" lon="11.4683617"><ele>148.0</ele><time>2026-04-18T13:50:32.766Z</time></trkpt><trkpt lat="43.1624017" lon="11.46839"><ele>148.0</ele><time>2026-04-18T13:50:33.769Z</time></trkpt><trkpt lat="43.1622717" lon="11.468415"><ele>148.75</ele><time>2026-04-18T13:50:34.768Z</time></trkpt><trkpt lat="43.1621417" lon="11.46844"><ele>149.5</ele><time>2026-04-18T13:50:35.772Z</time></trkpt><trkpt lat="43.1620133" lon="11.4684633"><ele>150.25</ele><time>2026-04-18T13:50:36.77Z</time></trkpt><trkpt lat="43.161885" lon="11.46848"><ele>151.0</ele><time>2026-04-18T13:50:37.771Z</time></trkpt><trkpt lat="43.16175" lon="11.4685017"><ele>151.0</ele><time>2026-04-18T13:50:38.772Z</time></trkpt><trkpt lat="43.1616017" lon="11.468525"><ele>151.0</ele><time>2026-04-18T13:50:39.77Z</time></trkpt><trkpt lat="43.161445" lon="11.4685533"><ele>151.0</ele><time>2026-04-18T13:50:40.768Z</time></trkpt><trkpt lat="43.16128" lon="11.4685883"><ele>150.33333333333334</ele><time>2026-04-18T13:50:41.769Z</time></trkpt><trkpt lat="43.16111" lon="11.46863"><ele>149.66666666666666</ele><time>2026-04-18T13:50:42.77Z</time></trkpt><trkpt lat="43.1609367" lon="11.4686817"><ele>149.0</ele><time>2026-04-18T13:50:43.77Z</time></trkpt><trkpt lat="43.1607567" lon="11.468765"><ele>148.0</ele><time>2026-04-18T13:50:44.772Z</time></trkpt><trkpt lat="43.160575" lon="11.4688817"><ele>147.0</ele><time>2026-04-18T13:50:45.769Z</time></trkpt><trkpt lat="43.1604017" lon="11.4690317"><ele>146.0</ele><time>2026-04-18T13:50:46.772Z</time></trkpt><trkpt lat="43.1602267" lon="11.469195"><ele>146.0</ele><time>2026-04-18T13:50:47.771Z</time></trkpt><trkpt lat="43.1600533" lon="11.469365"><ele>146.0</ele><time>2026-04-18T13:50:48.769Z</time></trkpt><trkpt lat="43.1598733" lon="11.4695383"><ele>146.0</ele><time>2026-04-18T13:50:49.768Z</time></trkpt><trkpt lat="43.1596883" lon="11.4697083"><ele>146.5</ele><time>2026-04-18T13:50:50.772Z</time></trkpt><trkpt lat="43.1595033" lon="11.469885"><ele>147.0</ele><time>2026-04-18T13:50:51.765Z</time></trkpt><trkpt lat="43.1593183" lon="11.4700583"><ele>147.0</ele><time>2026-04-18T13:50:52.77Z</time></trkpt><trkpt lat="43.1591333" lon="11.4702333"><ele>147.0</ele><time>2026-04-18T13:50:53.771Z</time></trkpt><trkpt lat="43.158945" lon="11.4703983"><ele>147.0</ele><time>2026-04-18T13:50:54.766Z</time></trkpt><trkpt lat="43.1587533" lon="11.47056"><ele>147.0</ele><time>2026-04-18T13:50:55.766Z</time></trkpt><trkpt lat="43.15856" lon="11.470715"><ele>147.0</ele><time>2026-04-18T13:50:56.773Z</time></trkpt><trkpt lat="43.158365" lon="11.4708617"><ele>147.0</ele><time>2026-04-18T13:50:57.771Z</time></trkpt><trkpt lat="43.1581683" lon="11.4709967"><ele>146.66666666666666</ele><time>2026-04-18T13:50:58.77Z</time></trkpt><trkpt lat="43.157965" lon="11.4711267"><ele>146.33333333333331</ele><time>2026-04-18T13:50:59.77Z</time></trkpt><trkpt lat="43.157755" lon="11.4712317"><ele>146.0</ele><time>2026-04-18T13:51:00.77Z</time></trkpt><trkpt lat="43.1575333" lon="11.4713067"><ele>147.5</ele><time>2026-04-18T13:51:01.768Z</time></trkpt><trkpt lat="43.1573033" lon="11.4713617"><ele>149.0</ele><time>2026-04-18T13:51:02.772Z</time></trkpt><trkpt lat="43.15707" lon="11.47141"><ele>149.0</ele><time>2026-04-18T13:51:03.771Z</time></trkpt><trkpt lat="43.1568333" lon="11.47146"><ele>149.0</ele><time>2026-04-18T13:51:04.77Z</time></trkpt><trkpt lat="43.156595" lon="11.4715133"><ele>148.5</ele><time>2026-04-18T13:51:05.769Z</time></trkpt><trkpt lat="43.15636" lon="11.4715667"><ele>148.0</ele><time>2026-04-18T13:51:06.767Z</time></trkpt><trkpt lat="43.15612" lon="11.471615"><ele>148.0</ele><time>2026-04-18T13:51:07.773Z</time></trkpt><trkpt lat="43.15588" lon="11.4716683"><ele>148.0</ele><time>2026-04-18T13:51:08.77Z</time></trkpt><trkpt lat="43.1556417" lon="11.471725"><ele>146.5</ele><time>2026-04-18T13:51:09.768Z</time></trkpt><trkpt lat="43.1554067" lon="11.4717817"><ele>145.0</ele><time>2026-04-18T13:51:10.77Z</time></trkpt><trkpt lat="43.15517" lon="11.471835"><ele>145.0</ele><time>2026-04-18T13:51:11.771Z</time></trkpt><trkpt lat="43.1549383" lon="11.4718883"><ele>145.0</ele><time>2026-04-18T13:51:12.768Z</time></trkpt><trkpt lat="43.1547083" lon="11.4719433"><ele>144.5</ele><time>2026-04-18T13:51:13.769Z</time></trkpt><trkpt lat="43.1544817" lon="11.4720017"><ele>144.0</ele><time>2026-04-18T13:51:14.771Z</time></trkpt><trkpt lat="43.1542533" lon="11.4720567"><ele>143.66666666666666</ele><time>2026-04-18T13:51:15.771Z</time></trkpt><trkpt lat="43.1540383" lon="11.4721083"><ele>143.33333333333331</ele><time>2026-04-18T13:51:16.769Z</time></trkpt><trkpt lat="43.1538383" lon="11.4721567"><ele>143.0</ele><time>2026-04-18T13:51:17.77Z</time></trkpt><trkpt lat="43.153645" lon="11.4722033"><ele>143.0</ele><time>2026-04-18T13:51:18.764Z</time></trkpt><trkpt lat="43.1534583" lon="11.4722483"><ele>143.0</ele><time>2026-04-18T13:51:19.764Z</time></trkpt><trkpt lat="43.1532717" lon="11.4722917"><ele>143.0</ele><time>2026-04-18T13:51:20.771Z</time></trkpt><trkpt lat="43.15309" lon="11.4723333"><ele>143.0</ele><time>2026-04-18T13:51:21.766Z</time></trkpt><trkpt lat="43.1529117" lon="11.4723733"><ele>143.0</ele><time>2026-04-18T13:51:22.763Z</time></trkpt><trkpt lat="43.1527283" lon="11.47241"><ele>143.0</ele><time>2026-04-18T13:51:23.769Z</time></trkpt><trkpt lat="43.15254" lon="11.4724517"><ele>143.0</ele><time>2026-04-18T13:51:24.768Z</time></trkpt><trkpt lat="43.1523483" lon="11.4725167"><ele>143.0</ele><time>2026-04-18T13:51:25.768Z</time></trkpt><trkpt lat="43.1521617" lon="11.472585"><ele>143.0</ele><time>2026-04-18T13:51:26.767Z</time></trkpt><trkpt lat="43.1519767" lon="11.4726733"><ele>143.0</ele><time>2026-04-18T13:51:27.765Z</time></trkpt><trkpt lat="43.1517983" lon="11.4727717"><ele>143.0</ele><time>2026-04-18T13:51:28.763Z</time></trkpt><trkpt lat="43.1516267" lon="11.4728933"><ele>143.0</ele><time>2026-04-18T13:51:29.765Z</time></trkpt><trkpt lat="43.1514583" lon="11.4730267"><ele>144.66666666666666</ele><time>2026-04-18T13:51:30.769Z</time></trkpt><trkpt lat="43.151295" lon="11.4731717"><ele>146.33333333333334</ele><time>2026-04-18T13:51:31.766Z</time></trkpt><trkpt lat="43.151135" lon="11.4733267"><ele>148.0</ele><time>2026-04-18T13:51:32.771Z</time></trkpt><trkpt lat="43.15098" lon="11.4734833"><ele>148.0</ele><time>2026-04-18T13:51:33.766Z</time></trkpt><trkpt lat="43.1508233" lon="11.4736417"><ele>148.0</ele><time>2026-04-18T13:51:34.764Z</time></trkpt><trkpt lat="43.150665" lon="11.4738"><ele>148.0</ele><time>2026-04-18T13:51:35.767Z</time></trkpt><trkpt lat="43.150505" lon="11.4739483"><ele>147.66666666666669</ele><time>2026-04-18T13:51:36.768Z</time></trkpt><trkpt lat="43.15034" lon="11.4740883"><ele>147.33333333333334</ele><time>2026-04-18T13:51:37.764Z</time></trkpt><trkpt lat="43.15017" lon="11.4742117"><ele>147.0</ele><time>2026-04-18T13:51:38.768Z</time></trkpt><trkpt lat="43.1499967" lon="11.4743267"><ele>147.33333333333334</ele><time>2026-04-18T13:51:39.767Z</time></trkpt><trkpt lat="43.1498233" lon="11.4744417"><ele>147.66666666666669</ele><time>2026-04-18T13:51:40.769Z</time></trkpt><trkpt lat="43.1496467" lon="11.4745517"><ele>148.0</ele><time>2026-04-18T13:51:41.768Z</time></trkpt><trkpt lat="43.14947" lon="11.4746567"><ele>148.0</ele><time>2026-04-18T13:51:42.766Z</time></trkpt><trkpt lat="43.14929" lon="11.474755"><ele>148.0</ele><time>2026-04-18T13:51:43.768Z</time></trkpt><trkpt lat="43.149105" lon="11.4748433"><ele>148.0</ele><time>2026-04-18T13:51:44.768Z</time></trkpt><trkpt lat="43.1489067" lon="11.4749233"><ele>147.33333333333334</ele><time>2026-04-18T13:51:45.77Z</time></trkpt><trkpt lat="43.1487" lon="11.4750033"><ele>146.66666666666666</ele><time>2026-04-18T13:51:46.769Z</time></trkpt><trkpt lat="43.14849" lon="11.4750833"><ele>146.0</ele><time>2026-04-18T13:51:47.77Z</time></trkpt><trkpt lat="43.148275" lon="11.4751667"><ele>145.0</ele><time>2026-04-18T13:51:48.766Z</time></trkpt><trkpt lat="43.1480517" lon="11.475255"><ele>144.0</ele><time>2026-04-18T13:51:49.766Z</time></trkpt><trkpt lat="43.147825" lon="11.4753483"><ele>144.0</ele><time>2026-04-18T13:51:50.766Z</time></trkpt><trkpt lat="43.1475933" lon="11.4754333"><ele>144.0</ele><time>2026-04-18T13:51:51.767Z</time></trkpt><trkpt lat="43.14737" lon="11.47551"><ele>145.33333333333334</ele><time>2026-04-18T13:51:52.768Z</time></trkpt><trkpt lat="43.1471617" lon="11.47558"><ele>146.66666666666669</ele><time>2026-04-18T13:51:53.77Z</time></trkpt><trkpt lat="43.1469617" lon="11.4756517"><ele>148.0</ele><time>2026-04-18T13:51:54.77Z</time></trkpt><trkpt lat="43.1467717" lon="11.47572"><ele>148.0</ele><time>2026-04-18T13:51:55.768Z</time></trkpt><trkpt lat="43.1465883" lon="11.475785"><ele>148.0</ele><time>2026-04-18T13:51:56.768Z</time></trkpt><trkpt lat="43.1464067" lon="11.4758533"><ele>148.0</ele><time>2026-04-18T13:51:57.765Z</time></trkpt><trkpt lat="43.1462267" lon="11.47592"><ele>147.0</ele><time>2026-04-18T13:51:58.766Z</time></trkpt><trkpt lat="43.1460517" lon="11.475985"><ele>146.0</ele><time>2026-04-18T13:51:59.77Z</time></trkpt><trkpt lat="43.1458817" lon="11.47605"><ele>145.0</ele><time>2026-04-18T13:52:00.77Z</time></trkpt><trkpt lat="43.1457183" lon="11.4761033"><ele>144.0</ele><time>2026-04-18T13:52:01.771Z</time></trkpt><trkpt lat="43.1455583" lon="11.4761467"><ele>143.0</ele><time>2026-04-18T13:52:02.77Z</time></trkpt><trkpt lat="43.1453967" lon="11.4761817"><ele>142.0</ele><time>2026-04-18T13:52:03.769Z</time></trkpt><trkpt lat="43.1452317" lon="11.4762033"><ele>142.0</ele><time>2026-04-18T13:52:04.77Z</time></trkpt><trkpt lat="43.145065" lon="11.4762167"><ele>142.0</ele><time>2026-04-18T13:52:05.77Z</time></trkpt><trkpt lat="43.1449033" lon="11.476215"><ele>142.0</ele><time>2026-04-18T13:52:06.769Z</time></trkpt><trkpt lat="43.1447467" lon="11.4761917"><ele>142.0</ele><time>2026-04-18T13:52:07.768Z</time></trkpt><trkpt lat="43.1445967" lon="11.476155"><ele>142.0</ele><time>2026-04-18T13:52:08.772Z</time></trkpt><trkpt lat="43.1444483" lon="11.47614"><ele>142.0</ele><time>2026-04-18T13:52:09.766Z</time></trkpt><trkpt lat="43.1443033" lon="11.4761633"><ele>142.0</ele><time>2026-04-18T13:52:10.77Z</time></trkpt><trkpt lat="43.144165" lon="11.476235"><ele>142.33333333333334</ele><time>2026-04-18T13:52:11.761Z</time></trkpt><trkpt lat="43.1440367" lon="11.4763467"><ele>142.66666666666666</ele><time>2026-04-18T13:52:12.761Z</time></trkpt><trkpt lat="43.1439183" lon="11.4764783"><ele>143.0</ele><time>2026-04-18T13:52:13.771Z</time></trkpt><trkpt lat="43.143805" lon="11.476605"><ele>143.0</ele><time>2026-04-18T13:52:14.772Z</time></trkpt><trkpt lat="43.1436967" lon="11.476725"><ele>143.0</ele><time>2026-04-18T13:52:15.77Z</time></trkpt><trkpt lat="43.143595" lon="11.4768367"><ele>143.0</ele><time>2026-04-18T13:52:16.769Z</time></trkpt><trkpt lat="43.1435017" lon="11.47694"><ele>143.0</ele><time>2026-04-18T13:52:17.771Z</time></trkpt><trkpt lat="43.1434167" lon="11.4770383"><ele>143.0</ele><time>2026-04-18T13:52:18.769Z</time></trkpt><trkpt lat="43.143345" lon="11.477135"><ele>143.0</ele><time>2026-04-18T13:52:19.77Z</time></trkpt><trkpt lat="43.1432783" lon="11.4772367"><ele>143.0</ele><time>2026-04-18T13:52:20.77Z</time></trkpt><trkpt lat="43.1432117" lon="11.477355"><ele>143.0</ele><time>2026-04-18T13:52:21.77Z</time></trkpt><trkpt lat="43.1431467" lon="11.4774883"><ele>143.0</ele><time>2026-04-18T13:52:22.768Z</time></trkpt><trkpt lat="43.1430867" lon="11.477635"><ele>143.0</ele><time>2026-04-18T13:52:23.766Z</time></trkpt><trkpt lat="43.143035" lon="11.4777933"><ele>143.0</ele><time>2026-04-18T13:52:24.771Z</time></trkpt><trkpt lat="43.1429917" lon="11.4779633"><ele>143.0</ele><time>2026-04-18T13:52:25.764Z</time></trkpt><trkpt lat="43.1429567" lon="11.4781467"><ele>143.0</ele><time>2026-04-18T13:52:26.772Z</time></trkpt><trkpt lat="43.142925" lon="11.47834"><ele>143.0</ele><time>2026-04-18T13:52:27.767Z</time></trkpt><trkpt lat="43.1428967" lon="11.478545"><ele>143.0</ele><time>2026-04-18T13:52:28.764Z</time></trkpt><trkpt lat="43.1428667" lon="11.4787567"><ele>143.0</ele><time>2026-04-18T13:52:29.77Z</time></trkpt><trkpt lat="43.1428333" lon="11.478975"><ele>143.0</ele><time>2026-04-18T13:52:30.768Z</time></trkpt><trkpt lat="43.1427983" lon="11.479195"><ele>143.0</ele><time>2026-04-18T13:52:31.771Z</time></trkpt><trkpt lat="43.14276" lon="11.4794133"><ele>143.0</ele><time>2026-04-18T13:52:32.773Z</time></trkpt><trkpt lat="43.14271" lon="11.4796267"><ele>143.33333333333331</ele><time>2026-04-18T13:52:33.769Z</time></trkpt><trkpt lat="43.14264" lon="11.4798283"><ele>143.66666666666666</ele><time>2026-04-18T13:52:34.768Z</time></trkpt><trkpt lat="43.1425417" lon="11.48001"><ele>144.0</ele><time>2026-04-18T13:52:35.77Z</time></trkpt><trkpt lat="43.1424267" lon="11.480175"><ele>143.33333333333334</ele><time>2026-04-18T13:52:36.768Z</time></trkpt><trkpt lat="43.1423083" lon="11.48033"><ele>142.66666666666669</ele><time>2026-04-18T13:52:37.769Z</time></trkpt><trkpt lat="43.1421883" lon="11.4804817"><ele>142.0</ele><time>2026-04-18T13:52:38.771Z</time></trkpt><trkpt lat="43.1420733" lon="11.480625"><ele>142.0</ele><time>2026-04-18T13:52:39.77Z</time></trkpt><trkpt lat="43.1419617" lon="11.4807617"><ele>142.0</ele><time>2026-04-18T13:52:40.771Z</time></trkpt><trkpt lat="43.1418517" lon="11.480905"><ele>142.0</ele><time>2026-04-18T13:52:41.769Z</time></trkpt><trkpt lat="43.1417383" lon="11.4810483"><ele>142.0</ele><time>2026-04-18T13:52:42.768Z</time></trkpt><trkpt lat="43.14162" lon="11.4811833"><ele>142.0</ele><time>2026-04-18T13:52:43.771Z</time></trkpt><trkpt lat="43.1415" lon="11.481305"><ele>142.0</ele><time>2026-04-18T13:52:44.772Z</time></trkpt><trkpt lat="43.1413817" lon="11.4814117"><ele>142.0</ele><time>2026-04-18T13:52:45.77Z</time></trkpt><trkpt lat="43.1412633" lon="11.4815017"><ele>141.75</ele><time>2026-04-18T13:52:46.77Z</time></trkpt><trkpt lat="43.14114" lon="11.4815867"><ele>141.5</ele><time>2026-04-18T13:52:47.766Z</time></trkpt><trkpt lat="43.14101" lon="11.4816733"><ele>141.25</ele><time>2026-04-18T13:52:48.768Z</time></trkpt><trkpt lat="43.14088" lon="11.4817633"><ele>141.0</ele><time>2026-04-18T13:52:49.767Z</time></trkpt><trkpt lat="43.1407517" lon="11.4818567"><ele>141.25</ele><time>2026-04-18T13:52:50.771Z</time></trkpt><trkpt lat="43.1406233" lon="11.4819483"><ele>141.5</ele><time>2026-04-18T13:52:51.768Z</time></trkpt><trkpt lat="43.1404967" lon="11.4820417"><ele>141.75</ele><time>2026-04-18T13:52:52.764Z</time></trkpt><trkpt lat="43.14037" lon="11.4821333"><ele>142.0</ele><time>2026-04-18T13:52:53.771Z</time></trkpt><trkpt lat="43.14025" lon="11.4822167"><ele>142.25</ele><time>2026-04-18T13:52:54.771Z</time></trkpt><trkpt lat="43.1401383" lon="11.4822933"><ele>142.5</ele><time>2026-04-18T13:52:55.771Z</time></trkpt><trkpt lat="43.14003" lon="11.4823683"><ele>142.75</ele><time>2026-04-18T13:52:56.769Z</time></trkpt><trkpt lat="43.1399283" lon="11.48244"><ele>143.0</ele><time>2026-04-18T13:52:57.765Z</time></trkpt><trkpt lat="43.139835" lon="11.48251"><ele>143.8</ele><time>2026-04-18T13:52:58.765Z</time></trkpt><trkpt lat="43.1397417" lon="11.482575"><ele>144.60000000000002</ele><time>2026-04-18T13:52:59.768Z</time></trkpt><trkpt lat="43.1396533" lon="11.4826333"><ele>145.39999999999998</ele><time>2026-04-18T13:53:00.771Z</time></trkpt><trkpt lat="43.13957" lon="11.48269"><ele>146.2</ele><time>2026-04-18T13:53:01.769Z</time></trkpt><trkpt lat="43.1394983" lon="11.48274"><ele>147.0</ele><time>2026-04-18T13:53:02.772Z</time></trkpt><trkpt lat="43.1394267" lon="11.48279"><ele>147.0</ele><time>2026-04-18T13:53:03.77Z</time></trkpt><trkpt lat="43.1393567" lon="11.4828417"><ele>147.0</ele><time>2026-04-18T13:53:04.769Z</time></trkpt><trkpt lat="43.1392833" lon="11.4828933"><ele>147.0</ele><time>2026-04-18T13:53:05.769Z</time></trkpt><trkpt lat="43.1392033" lon="11.4829433"><ele>147.0</ele><time>2026-04-18T13:53:06.769Z</time></trkpt><trkpt lat="43.1391233" lon="11.48299"><ele>147.0</ele><time>2026-04-18T13:53:07.768Z</time></trkpt><trkpt lat="43.13904" lon="11.4830383"><ele>147.0</ele><time>2026-04-18T13:53:08.771Z</time></trkpt><trkpt lat="43.13895" lon="11.4830817"><ele>146.79999999999998</ele><time>2026-04-18T13:53:09.77Z</time></trkpt><trkpt lat="43.138855" lon="11.4831267"><ele>146.6</ele><time>2026-04-18T13:53:10.771Z</time></trkpt><trkpt lat="43.138755" lon="11.48317"><ele>146.39999999999998</ele><time>2026-04-18T13:53:11.771Z</time></trkpt><trkpt lat="43.1386483" lon="11.4832083"><ele>146.2</ele><time>2026-04-18T13:53:12.77Z</time></trkpt><trkpt lat="43.1385383" lon="11.483245"><ele>146.0</ele><time>2026-04-18T13:53:13.769Z</time></trkpt><trkpt lat="43.138425" lon="11.4832717"><ele>146.0</ele><time>2026-04-18T13:53:14.772Z</time></trkpt><trkpt lat="43.1383117" lon="11.48329"><ele>146.0</ele><time>2026-04-18T13:53:15.769Z</time></trkpt><trkpt lat="43.1382033" lon="11.4833033"><ele>146.0</ele><time>2026-04-18T13:53:16.77Z</time></trkpt><trkpt lat="43.1381" lon="11.483315"><ele>146.0</ele><time>2026-04-18T13:53:17.772Z</time></trkpt><trkpt lat="43.1379983" lon="11.483325"><ele>146.0</ele><time>2026-04-18T13:53:18.77Z</time></trkpt><trkpt lat="43.1379017" lon="11.4833267"><ele>146.2</ele><time>2026-04-18T13:53:19.77Z</time></trkpt><trkpt lat="43.13781" lon="11.4833267"><ele>146.39999999999998</ele><time>2026-04-18T13:53:20.77Z</time></trkpt><trkpt lat="43.1377133" lon="11.483325"><ele>146.6</ele><time>2026-04-18T13:53:21.771Z</time></trkpt><trkpt lat="43.1376183" lon="11.483325"><ele>146.79999999999998</ele><time>2026-04-18T13:53:22.771Z</time></trkpt><trkpt lat="43.13752" lon="11.4833233"><ele>147.0</ele><time>2026-04-18T13:53:23.766Z</time></trkpt><trkpt lat="43.1374217" lon="11.4833267"><ele>146.79999999999998</ele><time>2026-04-18T13:53:24.77Z</time></trkpt><trkpt lat="43.137325" lon="11.4833317"><ele>146.6</ele><time>2026-04-18T13:53:25.768Z</time></trkpt><trkpt lat="43.1372283" lon="11.4833333"><ele>146.39999999999998</ele><time>2026-04-18T13:53:26.772Z</time></trkpt><trkpt lat="43.13713" lon="11.4833333"><ele>146.2</ele><time>2026-04-18T13:53:27.769Z</time></trkpt><trkpt lat="43.1370283" lon="11.4833367"><ele>146.0</ele><time>2026-04-18T13:53:28.771Z</time></trkpt><trkpt lat="43.1369233" lon="11.483345"><ele>146.0</ele><time>2026-04-18T13:53:29.77Z</time></trkpt><trkpt lat="43.1368183" lon="11.4833517"><ele>146.0</ele><time>2026-04-18T13:53:30.771Z</time></trkpt><trkpt lat="43.1367183" lon="11.4833533"><ele>146.0</ele><time>2026-04-18T13:53:31.768Z</time></trkpt><trkpt lat="43.136615" lon="11.4833567"><ele>146.0</ele><time>2026-04-18T13:53:32.773Z</time></trkpt><trkpt lat="43.136515" lon="11.4833567"><ele>146.0</ele><time>2026-04-18T13:53:33.77Z</time></trkpt><trkpt lat="43.136415" lon="11.4833617"><ele>146.0</ele><time>2026-04-18T13:53:34.771Z</time></trkpt><trkpt lat="43.1363183" lon="11.483365"><ele>146.0</ele><time>2026-04-18T13:53:35.771Z</time></trkpt><trkpt lat="43.1362233" lon="11.4833633"><ele>146.0</ele><time>2026-04-18T13:53:36.771Z</time></trkpt><trkpt lat="43.1361283" lon="11.4833583"><ele>146.0</ele><time>2026-04-18T13:53:37.768Z</time></trkpt><trkpt lat="43.1360367" lon="11.4833567"><ele>146.0</ele><time>2026-04-18T13:53:38.773Z</time></trkpt><trkpt lat="43.135945" lon="11.4833517"><ele>146.0</ele><time>2026-04-18T13:53:39.771Z</time></trkpt><trkpt lat="43.1358533" lon="11.483345"><ele>146.0</ele><time>2026-04-18T13:53:40.771Z</time></trkpt><trkpt lat="43.1357633" lon="11.4833383"><ele>146.0</ele><time>2026-04-18T13:53:41.77Z</time></trkpt><trkpt lat="43.135675" lon="11.4833317"><ele>146.0</ele><time>2026-04-18T13:53:42.768Z</time></trkpt><trkpt lat="43.1355917" lon="11.4833283"><ele>146.0</ele><time>2026-04-18T13:53:43.768Z</time></trkpt><trkpt lat="43.13551" lon="11.4833217"><ele>146.0</ele><time>2026-04-18T13:53:44.772Z</time></trkpt><trkpt lat="43.1354283" lon="11.48331"><ele>146.0</ele><time>2026-04-18T13:53:45.769Z</time></trkpt><trkpt lat="43.1353467" lon="11.4832933"><ele>146.0</ele><time>2026-04-18T13:53:46.77Z</time></trkpt><trkpt lat="43.1352633" lon="11.4832783"><ele>146.0</ele><time>2026-04-18T13:53:47.768Z</time></trkpt><trkpt lat="43.1351717" lon="11.4832633"><ele>146.0</ele><time>2026-04-18T13:53:48.766Z</time></trkpt><trkpt lat="43.135075" lon="11.4832467"><ele>146.0</ele><time>2026-04-18T13:53:49.767Z</time></trkpt><trkpt lat="43.1349733" lon="11.4832283"><ele>145.8</ele><time>2026-04-18T13:53:50.77Z</time></trkpt><trkpt lat="43.1348683" lon="11.4832083"><ele>145.6</ele><time>2026-04-18T13:53:51.77Z</time></trkpt><trkpt lat="43.13476" lon="11.4831883"><ele>145.4</ele><time>2026-04-18T13:53:52.763Z</time></trkpt><trkpt lat="43.13465" lon="11.4831667"><ele>145.2</ele><time>2026-04-18T13:53:53.764Z</time></trkpt><trkpt lat="43.1345367" lon="11.4831467"><ele>145.0</ele><time>2026-04-18T13:53:54.771Z</time></trkpt><trkpt lat="43.1344233" lon="11.48312"><ele>145.0</ele><time>2026-04-18T13:53:55.769Z</time></trkpt><trkpt lat="43.134305" lon="11.4830917"><ele>145.0</ele><time>2026-04-18T13:53:56.772Z</time></trkpt><trkpt lat="43.1341767" lon="11.4830733"><ele>145.0</ele><time>2026-04-18T13:53:57.767Z</time></trkpt><trkpt lat="43.13405" lon="11.483055"><ele>145.0</ele><time>2026-04-18T13:53:58.77Z</time></trkpt><trkpt lat="43.13392" lon="11.483035"><ele>145.0</ele><time>2026-04-18T13:53:59.767Z</time></trkpt><trkpt lat="43.133785" lon="11.483015"><ele>145.0</ele><time>2026-04-18T13:54:00.77Z</time></trkpt><trkpt lat="43.1336517" lon="11.4829783"><ele>145.0</ele><time>2026-04-18T13:54:01.765Z</time></trkpt><trkpt lat="43.1335233" lon="11.4829267"><ele>145.0</ele><time>2026-04-18T13:54:02.772Z</time></trkpt><trkpt lat="43.1333967" lon="11.482875"><ele>145.0</ele><time>2026-04-18T13:54:03.767Z</time></trkpt><trkpt lat="43.1332683" lon="11.4828283"><ele>145.0</ele><time>2026-04-18T13:54:04.766Z</time></trkpt><trkpt lat="43.1331417" lon="11.48278"><ele>145.0</ele><time>2026-04-18T13:54:05.77Z</time></trkpt><trkpt lat="43.1330167" lon="11.48273"><ele>145.0</ele><time>2026-04-18T13:54:06.769Z</time></trkpt><trkpt lat="43.1328867" lon="11.48268"><ele>144.75</ele><time>2026-04-18T13:54:07.77Z</time></trkpt><trkpt lat="43.13276" lon="11.4826317"><ele>144.5</ele><time>2026-04-18T13:54:08.771Z</time></trkpt><trkpt lat="43.1326317" lon="11.482585"><ele>144.25</ele><time>2026-04-18T13:54:09.767Z</time></trkpt><trkpt lat="43.132505" lon="11.482535"><ele>144.0</ele><time>2026-04-18T13:54:10.769Z</time></trkpt><trkpt lat="43.1323767" lon="11.4824833"><ele>144.0</ele><time>2026-04-18T13:54:11.768Z</time></trkpt><trkpt lat="43.1322467" lon="11.4824317"><ele>144.0</ele><time>2026-04-18T13:54:12.768Z</time></trkpt><trkpt lat="43.1321133" lon="11.4823833"><ele>144.0</ele><time>2026-04-18T13:54:13.77Z</time></trkpt><trkpt lat="43.1319783" lon="11.4823483"><ele>144.0</ele><time>2026-04-18T13:54:14.767Z</time></trkpt><trkpt lat="43.131845" lon="11.4823267"><ele>144.0</ele><time>2026-04-18T13:54:15.767Z</time></trkpt><trkpt lat="43.1317067" lon="11.4823283"><ele>144.0</ele><time>2026-04-18T13:54:16.768Z</time></trkpt><trkpt lat="43.1315617" lon="11.4823367"><ele>144.0</ele><time>2026-04-18T13:54:17.767Z</time></trkpt><trkpt lat="43.131415" lon="11.4823467"><ele>144.0</ele><time>2026-04-18T13:54:18.77Z</time></trkpt><trkpt lat="43.131265" lon="11.48236"><ele>143.0</ele><time>2026-04-18T13:54:19.769Z</time></trkpt><trkpt lat="43.1311133" lon="11.482375"><ele>142.0</ele><time>2026-04-18T13:54:20.769Z</time></trkpt><trkpt lat="43.1309533" lon="11.48239"><ele>141.0</ele><time>2026-04-18T13:54:21.771Z</time></trkpt><trkpt lat="43.13079" lon="11.4824033"><ele>141.33333333333334</ele><time>2026-04-18T13:54:22.764Z</time></trkpt><trkpt lat="43.1306217" lon="11.4824183"><ele>141.66666666666669</ele><time>2026-04-18T13:54:23.763Z</time></trkpt><trkpt lat="43.1304517" lon="11.4824333"><ele>142.0</ele><time>2026-04-18T13:54:24.771Z</time></trkpt><trkpt lat="43.1302833" lon="11.4824517"><ele>142.0</ele><time>2026-04-18T13:54:25.769Z</time></trkpt><trkpt lat="43.1301133" lon="11.4824683"><ele>142.0</ele><time>2026-04-18T13:54:26.771Z</time></trkpt><trkpt lat="43.1299433" lon="11.4824833"><ele>142.0</ele><time>2026-04-18T13:54:27.767Z</time></trkpt><trkpt lat="43.1297767" lon="11.482495"><ele>142.66666666666669</ele><time>2026-04-18T13:54:28.764Z</time></trkpt><trkpt lat="43.1296133" lon="11.4825067"><ele>143.33333333333334</ele><time>2026-04-18T13:54:29.767Z</time></trkpt><trkpt lat="43.129455" lon="11.48252"><ele>144.0</ele><time>2026-04-18T13:54:30.771Z</time></trkpt><trkpt lat="43.1292917" lon="11.482535"><ele>144.0</ele><time>2026-04-18T13:54:31.77Z</time></trkpt><trkpt lat="43.12913" lon="11.48255"><ele>144.0</ele><time>2026-04-18T13:54:32.77Z</time></trkpt><trkpt lat="43.12897" lon="11.4825683"><ele>144.0</ele><time>2026-04-18T13:54:33.768Z</time></trkpt><trkpt lat="43.128815" lon="11.482585"><ele>144.25</ele><time>2026-04-18T13:54:34.769Z</time></trkpt><trkpt lat="43.1286717" lon="11.4825967"><ele>144.5</ele><time>2026-04-18T13:54:35.768Z</time></trkpt><trkpt lat="43.1285317" lon="11.4826083"><ele>144.75</ele><time>2026-04-18T13:54:36.769Z</time></trkpt><trkpt lat="43.128385" lon="11.4826217"><ele>145.0</ele><time>2026-04-18T13:54:37.77Z</time></trkpt><trkpt lat="43.1282367" lon="11.4826367"><ele>145.0</ele><time>2026-04-18T13:54:38.771Z</time></trkpt><trkpt lat="43.1280883" lon="11.48265"><ele>145.0</ele><time>2026-04-18T13:54:39.768Z</time></trkpt><trkpt lat="43.1279367" lon="11.4826633"><ele>145.0</ele><time>2026-04-18T13:54:40.766Z</time></trkpt><trkpt lat="43.1277817" lon="11.4826767"><ele>145.0</ele><time>2026-04-18T13:54:41.768Z</time></trkpt><trkpt lat="43.127625" lon="11.4826867"><ele>145.0</ele><time>2026-04-18T13:54:42.771Z</time></trkpt><trkpt lat="43.1274667" lon="11.4827017"><ele>145.0</ele><time>2026-04-18T13:54:43.771Z</time></trkpt><trkpt lat="43.127305" lon="11.48272"><ele>144.66666666666669</ele><time>2026-04-18T13:54:44.767Z</time></trkpt><trkpt lat="43.1271533" lon="11.48273"><ele>144.33333333333334</ele><time>2026-04-18T13:54:45.77Z</time></trkpt><trkpt lat="43.1269983" lon="11.4827383"><ele>144.0</ele><time>2026-04-18T13:54:46.768Z</time></trkpt><trkpt lat="43.1268417" lon="11.4827467"><ele>144.0</ele><time>2026-04-18T13:54:47.769Z</time></trkpt><trkpt lat="43.1266933" lon="11.48276"><ele>144.0</ele><time>2026-04-18T13:54:48.769Z</time></trkpt><trkpt lat="43.1265533" lon="11.4827733"><ele>144.0</ele><time>2026-04-18T13:54:49.77Z</time></trkpt><trkpt lat="43.1264267" lon="11.4827833"><ele>144.0</ele><time>2026-04-18T13:54:50.772Z</time></trkpt><trkpt lat="43.12631" lon="11.48279"><ele>143.5</ele><time>2026-04-18T13:54:51.765Z</time></trkpt><trkpt lat="43.1261917" lon="11.4827983"><ele>143.0</ele><time>2026-04-18T13:54:52.769Z</time></trkpt><trkpt lat="43.126065" lon="11.4828117"><ele>142.5</ele><time>2026-04-18T13:54:53.768Z</time></trkpt><trkpt lat="43.125925" lon="11.4828283"><ele>142.0</ele><time>2026-04-18T13:54:54.77Z</time></trkpt><trkpt lat="43.1257667" lon="11.4828517"><ele>141.66666666666669</ele><time>2026-04-18T13:54:55.77Z</time></trkpt><trkpt lat="43.1255917" lon="11.48287"><ele>141.33333333333334</ele><time>2026-04-18T13:54:56.769Z</time></trkpt><trkpt lat="43.1254033" lon="11.4828883"><ele>141.0</ele><time>2026-04-18T13:54:57.77Z</time></trkpt><trkpt lat="43.125215" lon="11.4828983"><ele>141.0</ele><time>2026-04-18T13:54:58.768Z</time></trkpt><trkpt lat="43.1250333" lon="11.4829"><ele>141.0</ele><time>2026-04-18T13:54:59.77Z</time></trkpt><trkpt lat="43.1248583" lon="11.4829083"><ele>141.0</ele><time>2026-04-18T13:55:00.768Z</time></trkpt><trkpt lat="43.1246833" lon="11.4829233"><ele>141.66666666666666</ele><time>2026-04-18T13:55:01.769Z</time></trkpt><trkpt lat="43.124505" lon="11.4829383"><ele>142.33333333333331</ele><time>2026-04-18T13:55:02.772Z</time></trkpt><trkpt lat="43.12432" lon="11.482955"><ele>143.0</ele><time>2026-04-18T13:55:03.768Z</time></trkpt><trkpt lat="43.1241333" lon="11.4829683"><ele>143.66666666666666</ele><time>2026-04-18T13:55:04.77Z</time></trkpt><trkpt lat="43.123945" lon="11.4829833"><ele>144.33333333333334</ele><time>2026-04-18T13:55:05.769Z</time></trkpt><trkpt lat="43.1237583" lon="11.4830017"><ele>145.0</ele><time>2026-04-18T13:55:06.769Z</time></trkpt><trkpt lat="43.1235767" lon="11.4830183"><ele>145.0</ele><time>2026-04-18T13:55:07.768Z</time></trkpt><trkpt lat="43.1234017" lon="11.4830367"><ele>145.0</ele><time>2026-04-18T13:55:08.772Z</time></trkpt><trkpt lat="43.1232367" lon="11.4830533"><ele>145.0</ele><time>2026-04-18T13:55:09.77Z</time></trkpt><trkpt lat="43.123085" lon="11.4830683"><ele>145.5</ele><time>2026-04-18T13:55:10.767Z</time></trkpt><trkpt lat="43.1229433" lon="11.4830833"><ele>146.0</ele><time>2026-04-18T13:55:11.77Z</time></trkpt><trkpt lat="43.1228133" lon="11.4830967"><ele>146.5</ele><time>2026-04-18T13:55:12.769Z</time></trkpt><trkpt lat="43.12269" lon="11.4831067"><ele>147.0</ele><time>2026-04-18T13:55:13.767Z</time></trkpt><trkpt lat="43.1225767" lon="11.4831167"><ele>147.0</ele><time>2026-04-18T13:55:14.771Z</time></trkpt><trkpt lat="43.1224683" lon="11.483125"><ele>147.0</ele><time>2026-04-18T13:55:15.766Z</time></trkpt><trkpt lat="43.1223667" lon="11.4831333"><ele>147.0</ele><time>2026-04-18T13:55:16.767Z</time></trkpt><trkpt lat="43.1222683" lon="11.4831417"><ele>147.0</ele><time>2026-04-18T13:55:17.769Z</time></trkpt><trkpt lat="43.1221683" lon="11.4831483"><ele>147.0</ele><time>2026-04-18T13:55:18.77Z</time></trkpt><trkpt lat="43.1220683" lon="11.483155"><ele>146.4</ele><time>2026-04-18T13:55:19.77Z</time></trkpt><trkpt lat="43.12197" lon="11.4831617"><ele>145.79999999999998</ele><time>2026-04-18T13:55:20.771Z</time></trkpt><trkpt lat="43.121875" lon="11.48317"><ele>145.2</ele><time>2026-04-18T13:55:21.769Z</time></trkpt><trkpt lat="43.1217783" lon="11.4831767"><ele>144.6</ele><time>2026-04-18T13:55:22.768Z</time></trkpt><trkpt lat="43.1216833" lon="11.4831833"><ele>144.0</ele><time>2026-04-18T13:55:23.769Z</time></trkpt><trkpt lat="43.12159" lon="11.48319"><ele>143.83333333333334</ele><time>2026-04-18T13:55:24.77Z</time></trkpt><trkpt lat="43.1214933" lon="11.4831967"><ele>143.66666666666666</ele><time>2026-04-18T13:55:25.769Z</time></trkpt><trkpt lat="43.1213983" lon="11.4832033"><ele>143.5</ele><time>2026-04-18T13:55:26.772Z</time></trkpt><trkpt lat="43.1213117" lon="11.48321"><ele>143.33333333333331</ele><time>2026-04-18T13:55:27.77Z</time></trkpt><trkpt lat="43.1212283" lon="11.4832183"><ele>143.16666666666666</ele><time>2026-04-18T13:55:28.767Z</time></trkpt><trkpt lat="43.1211467" lon="11.4832267"><ele>143.0</ele><time>2026-04-18T13:55:29.769Z</time></trkpt><trkpt lat="43.1210667" lon="11.4832333"><ele>143.0</ele><time>2026-04-18T13:55:30.77Z</time></trkpt><trkpt lat="43.1209933" lon="11.4832383"><ele>143.0</ele><time>2026-04-18T13:55:31.769Z</time></trkpt><trkpt lat="43.1209283" lon="11.483245"><ele>143.0</ele><time>2026-04-18T13:55:32.771Z</time></trkpt><trkpt lat="43.12082" lon="11.4832483"><ele>143.0</ele><time>2026-04-18T13:55:34.768Z</time></trkpt><trkpt lat="43.1207333" lon="11.48323"><ele>143.0</ele><time>2026-04-18T13:55:36.771Z</time></trkpt><trkpt lat="43.1206733" lon="11.48319"><ele>143.0</ele><time>2026-04-18T13:55:38.771Z</time></trkpt><trkpt lat="43.1206067" lon="11.483125"><ele>142.85714285714283</ele><time>2026-04-18T13:55:41.768Z</time></trkpt><trkpt lat="43.1205567" lon="11.483045"><ele>142.71428571428572</ele><time>2026-04-18T13:55:45.769Z</time></trkpt><trkpt lat="43.1205133" lon="11.4829583"><ele>142.57142857142856</ele><time>2026-04-18T13:55:50.769Z</time></trkpt><trkpt lat="43.1204533" lon="11.4829217"><ele>142.42857142857142</ele><time>2026-04-18T13:55:54.769Z</time></trkpt><trkpt lat="43.1204483" lon="11.4830183"><ele>142.28571428571428</ele><time>2026-04-18T13:57:01.77Z</time></trkpt><trkpt lat="43.1203983" lon="11.48309"><ele>142.14285714285714</ele><time>2026-04-18T13:57:08.759Z</time></trkpt><trkpt lat="43.1203317" lon="11.4830767"><ele>142.0</ele><time>2026-04-18T13:57:12.77Z</time></trkpt><trkpt lat="43.1202567" lon="11.4830683"><ele>142.0</ele><time>2026-04-18T13:57:16.761Z</time></trkpt><trkpt lat="43.1202583" lon="11.48317"><ele>142.0</ele><time>2026-04-18T13:57:19.765Z</time></trkpt><trkpt lat="43.1203217" lon="11.48319"><ele>142.0</ele><time>2026-04-18T13:57:21.765Z</time></trkpt><trkpt lat="43.1203933" lon="11.4831567"><ele>142.0</ele><time>2026-04-18T13:57:23.765Z</time></trkpt><trkpt lat="43.1204217" lon="11.4830283"><ele>142.0</ele><time>2026-04-18T14:02:41.77Z</time></trkpt><trkpt lat="43.12035" lon="11.483105"><ele>142.0</ele><time>2026-04-18T14:03:07.765Z</time></trkpt><trkpt lat="43.1202967" lon="11.483175"><ele>142.0</ele><time>2026-04-18T14:03:10.766Z</time></trkpt><trkpt lat="43.1201833" lon="11.4833133"><ele>142.0</ele><time>2026-04-18T14:03:20.768Z</time></trkpt><trkpt lat="43.1200983" lon="11.4833333"><ele>142.0</ele><time>2026-04-18T14:03:21.77Z</time></trkpt><trkpt lat="43.12" lon="11.4833517"><ele>142.0</ele><time>2026-04-18T14:03:22.768Z</time></trkpt><trkpt lat="43.1198817" lon="11.48337"><ele>142.0</ele><time>2026-04-18T14:03:23.768Z</time></trkpt><trkpt lat="43.1197517" lon="11.4833933"><ele>142.0</ele><time>2026-04-18T14:03:24.767Z</time></trkpt><trkpt lat="43.1196167" lon="11.4834217"><ele>142.0</ele><time>2026-04-18T14:03:25.767Z</time></trkpt><trkpt lat="43.11948" lon="11.4834533"><ele>142.0</ele><time>2026-04-18T14:03:26.771Z</time></trkpt><trkpt lat="43.1193483" lon="11.48347"><ele>142.0</ele><time>2026-04-18T14:03:27.768Z</time></trkpt><trkpt lat="43.11922" lon="11.483445"><ele>142.0</ele><time>2026-04-18T14:03:28.765Z</time></trkpt><trkpt lat="43.1191017" lon="11.4833683"><ele>142.0</ele><time>2026-04-18T14:03:29.771Z</time></trkpt><trkpt lat="43.1190117" lon="11.483225"><ele>142.0</ele><time>2026-04-18T14:03:30.768Z</time></trkpt><trkpt lat="43.1189517" lon="11.48303"><ele>141.66666666666669</ele><time>2026-04-18T14:03:31.771Z</time></trkpt><trkpt lat="43.1189217" lon="11.4827883"><ele>141.33333333333334</ele><time>2026-04-18T14:03:32.771Z</time></trkpt><trkpt lat="43.1188867" lon="11.482535"><ele>141.0</ele><time>2026-04-18T14:03:33.77Z</time></trkpt><trkpt lat="43.1188133" lon="11.482285"><ele>141.33333333333334</ele><time>2026-04-18T14:03:34.77Z</time></trkpt><trkpt lat="43.1186933" lon="11.4820733"><ele>141.66666666666669</ele><time>2026-04-18T14:03:35.769Z</time></trkpt><trkpt lat="43.11852" lon="11.4818983"><ele>142.0</ele><time>2026-04-18T14:03:36.768Z</time></trkpt><trkpt lat="43.1182833" lon="11.4817517"><ele>144.0</ele><time>2026-04-18T14:03:37.77Z</time></trkpt><trkpt lat="43.1179833" lon="11.4816267"><ele>146.0</ele><time>2026-04-18T14:03:38.77Z</time></trkpt><trkpt lat="43.1176467" lon="11.4815"><ele>151.5</ele><time>2026-04-18T14:03:39.768Z</time></trkpt><trkpt lat="43.1173033" lon="11.481355"><ele>157.0</ele><time>2026-04-18T14:03:40.769Z</time></trkpt><trkpt lat="43.1169783" lon="11.4812083"><ele>158.5</ele><time>2026-04-18T14:03:41.769Z</time></trkpt><trkpt lat="43.1166817" lon="11.4810783"><ele>160.0</ele><time>2026-04-18T14:03:42.768Z</time></trkpt><trkpt lat="43.1164133" lon="11.480955"><ele>161.0</ele><time>2026-04-18T14:03:43.77Z</time></trkpt><trkpt lat="43.1161617" lon="11.4808433"><ele>162.0</ele><time>2026-04-18T14:03:44.77Z</time></trkpt><trkpt lat="43.11593" lon="11.4807383"><ele>163.5</ele><time>2026-04-18T14:03:45.77Z</time></trkpt><trkpt lat="43.1157067" lon="11.4806483"><ele>165.0</ele><time>2026-04-18T14:03:46.766Z</time></trkpt><trkpt lat="43.1154867" lon="11.480565"><ele>165.0</ele><time>2026-04-18T14:03:47.77Z</time></trkpt><trkpt lat="43.1152683" lon="11.4804917"><ele>165.0</ele><time>2026-04-18T14:03:48.768Z</time></trkpt><trkpt lat="43.11505" lon="11.48043"><ele>165.0</ele><time>2026-04-18T14:03:49.769Z</time></trkpt><trkpt lat="43.1148267" lon="11.4803783"><ele>165.0</ele><time>2026-04-18T14:03:50.769Z</time></trkpt><trkpt lat="43.1146017" lon="11.4803383"><ele>165.0</ele><time>2026-04-18T14:03:51.769Z</time></trkpt><trkpt lat="43.1143767" lon="11.4803017"><ele>165.0</ele><time>2026-04-18T14:03:52.768Z</time></trkpt><trkpt lat="43.114155" lon="11.480265"><ele>165.0</ele><time>2026-04-18T14:03:53.767Z</time></trkpt><trkpt lat="43.1139283" lon="11.48023"><ele>162.5</ele><time>2026-04-18T14:03:54.771Z</time></trkpt><trkpt lat="43.1137" lon="11.4801983"><ele>160.0</ele><time>2026-04-18T14:03:55.768Z</time></trkpt><trkpt lat="43.1134717" lon="11.480165"><ele>160.0</ele><time>2026-04-18T14:03:56.771Z</time></trkpt><trkpt lat="43.1132483" lon="11.480115"><ele>160.0</ele><time>2026-04-18T14:03:57.769Z</time></trkpt><trkpt lat="43.113025" lon="11.4800467"><ele>157.5</ele><time>2026-04-18T14:03:58.764Z</time></trkpt><trkpt lat="43.1127967" lon="11.4799633"><ele>155.0</ele><time>2026-04-18T14:03:59.769Z</time></trkpt><trkpt lat="43.1125667" lon="11.4798767"><ele>154.5</ele><time>2026-04-18T14:04:00.763Z</time></trkpt><trkpt lat="43.11234" lon="11.4797833"><ele>154.0</ele><time>2026-04-18T14:04:01.766Z</time></trkpt><trkpt lat="43.11211" lon="11.479695"><ele>154.0</ele><time>2026-04-18T14:04:02.771Z</time></trkpt><trkpt lat="43.111875" lon="11.4796083"><ele>154.0</ele><time>2026-04-18T14:04:03.771Z</time></trkpt><trkpt lat="43.11164" lon="11.4795283"><ele>153.0</ele><time>2026-04-18T14:04:04.769Z</time></trkpt><trkpt lat="43.1114033" lon="11.47946"><ele>152.0</ele><time>2026-04-18T14:04:05.769Z</time></trkpt><trkpt lat="43.111165" lon="11.4794083"><ele>152.0</ele><time>2026-04-18T14:04:06.771Z</time></trkpt><trkpt lat="43.11091" lon="11.4793717"><ele>152.0</ele><time>2026-04-18T14:04:07.77Z</time></trkpt><trkpt lat="43.1106417" lon="11.479345"><ele>150.5</ele><time>2026-04-18T14:04:08.768Z</time></trkpt><trkpt lat="43.11036" lon="11.4793217"><ele>149.0</ele><time>2026-04-18T14:04:09.768Z</time></trkpt><trkpt lat="43.1100717" lon="11.4793017"><ele>147.5</ele><time>2026-04-18T14:04:10.77Z</time></trkpt><trkpt lat="43.1097867" lon="11.4792833"><ele>146.0</ele><time>2026-04-18T14:04:11.767Z</time></trkpt><trkpt lat="43.109505" lon="11.4792633"><ele>146.0</ele><time>2026-04-18T14:04:12.769Z</time></trkpt><trkpt lat="43.1092267" lon="11.479245"><ele>146.0</ele><time>2026-04-18T14:04:13.768Z</time></trkpt><trkpt lat="43.1089567" lon="11.4792283"><ele>143.5</ele><time>2026-04-18T14:04:14.772Z</time></trkpt><trkpt lat="43.1086883" lon="11.479215"><ele>141.0</ele><time>2026-04-18T14:04:15.766Z</time></trkpt><trkpt lat="43.10842" lon="11.4792033"><ele>139.5</ele><time>2026-04-18T14:04:16.769Z</time></trkpt><trkpt lat="43.1081533" lon="11.479195"><ele>138.0</ele><time>2026-04-18T14:04:17.769Z</time></trkpt><trkpt lat="43.107885" lon="11.4791917"><ele>138.0</ele><time>2026-04-18T14:04:18.765Z</time></trkpt><trkpt lat="43.10762" lon="11.4791967"><ele>138.0</ele><time>2026-04-18T14:04:19.769Z</time></trkpt><trkpt lat="43.1073567" lon="11.479205"><ele>137.5</ele><time>2026-04-18T14:04:20.768Z</time></trkpt><trkpt lat="43.1070917" lon="11.479215"><ele>137.0</ele><time>2026-04-18T14:04:21.765Z</time></trkpt><trkpt lat="43.1068317" lon="11.479225"><ele>139.0</ele><time>2026-04-18T14:04:22.768Z</time></trkpt><trkpt lat="43.1065717" lon="11.479235"><ele>141.0</ele><time>2026-04-18T14:04:23.77Z</time></trkpt><trkpt lat="43.106315" lon="11.479245"><ele>141.0</ele><time>2026-04-18T14:04:24.77Z</time></trkpt><trkpt lat="43.1060567" lon="11.4792567"><ele>141.0</ele><time>2026-04-18T14:04:25.77Z</time></trkpt><trkpt lat="43.1057967" lon="11.4792683"><ele>144.0</ele><time>2026-04-18T14:04:26.77Z</time></trkpt><trkpt lat="43.1055383" lon="11.4792817"><ele>147.0</ele><time>2026-04-18T14:04:27.77Z</time></trkpt><trkpt lat="43.1052817" lon="11.4792933"><ele>147.0</ele><time>2026-04-18T14:04:28.768Z</time></trkpt><trkpt lat="43.1050267" lon="11.4793067"><ele>147.0</ele><time>2026-04-18T14:04:29.769Z</time></trkpt><trkpt lat="43.104775" lon="11.4793183"><ele>150.0</ele><time>2026-04-18T14:04:30.77Z</time></trkpt><trkpt lat="43.1045267" lon="11.4793317"><ele>153.0</ele><time>2026-04-18T14:04:31.769Z</time></trkpt><trkpt lat="43.1042783" lon="11.4793383"><ele>153.0</ele><time>2026-04-18T14:04:32.77Z</time></trkpt><trkpt lat="43.1040333" lon="11.4793483"><ele>153.0</ele><time>2026-04-18T14:04:33.768Z</time></trkpt><trkpt lat="43.10379" lon="11.479375"><ele>153.0</ele><time>2026-04-18T14:04:34.771Z</time></trkpt><trkpt lat="43.1035467" lon="11.4794383"><ele>153.0</ele><time>2026-04-18T14:04:35.77Z</time></trkpt><trkpt lat="43.1033117" lon="11.479545"><ele>149.0</ele><time>2026-04-18T14:04:36.768Z</time></trkpt><trkpt lat="43.1030967" lon="11.479685"><ele>145.0</ele><time>2026-04-18T14:04:37.765Z</time></trkpt><trkpt lat="43.1028883" lon="11.4798483"><ele>145.0</ele><time>2026-04-18T14:04:38.77Z</time></trkpt><trkpt lat="43.102675" lon="11.4800233"><ele>145.0</ele><time>2026-04-18T14:04:39.77Z</time></trkpt><trkpt lat="43.1024617" lon="11.4801983"><ele>144.5</ele><time>2026-04-18T14:04:40.765Z</time></trkpt><trkpt lat="43.1022483" lon="11.4803783"><ele>144.0</ele><time>2026-04-18T14:04:41.764Z</time></trkpt><trkpt lat="43.1020367" lon="11.4805667"><ele>144.0</ele><time>2026-04-18T14:04:42.773Z</time></trkpt><trkpt lat="43.1018317" lon="11.48077"><ele>144.0</ele><time>2026-04-18T14:04:43.767Z</time></trkpt><trkpt lat="43.1016367" lon="11.4809933"><ele>143.5</ele><time>2026-04-18T14:04:44.772Z</time></trkpt><trkpt lat="43.1014483" lon="11.4812383"><ele>143.0</ele><time>2026-04-18T14:04:45.766Z</time></trkpt><trkpt lat="43.1012617" lon="11.4814917"><ele>143.0</ele><time>2026-04-18T14:04:46.765Z</time></trkpt><trkpt lat="43.10107" lon="11.4817467"><ele>143.0</ele><time>2026-04-18T14:04:47.765Z</time></trkpt><trkpt lat="43.1008833" lon="11.48199"><ele>144.0</ele><time>2026-04-18T14:04:48.769Z</time></trkpt><trkpt lat="43.1007067" lon="11.4822167"><ele>145.0</ele><time>2026-04-18T14:04:49.768Z</time></trkpt><trkpt lat="43.10054" lon="11.4824367"><ele>145.0</ele><time>2026-04-18T14:04:50.768Z</time></trkpt><trkpt lat="43.1003783" lon="11.482655"><ele>145.0</ele><time>2026-04-18T14:04:51.769Z</time></trkpt><trkpt lat="43.10022" lon="11.482865"><ele>145.0</ele><time>2026-04-18T14:04:52.766Z</time></trkpt><trkpt lat="43.10006" lon="11.4830533"><ele>145.33333333333334</ele><time>2026-04-18T14:04:53.769Z</time></trkpt><trkpt lat="43.0998867" lon="11.4832067"><ele>145.66666666666666</ele><time>2026-04-18T14:04:54.771Z</time></trkpt><trkpt lat="43.0996883" lon="11.4833083"><ele>146.0</ele><time>2026-04-18T14:04:55.771Z</time></trkpt><trkpt lat="43.09946" lon="11.483335"><ele>146.0</ele><time>2026-04-18T14:04:56.769Z</time></trkpt><trkpt lat="43.0992383" lon="11.4833333"><ele>146.0</ele><time>2026-04-18T14:04:57.77Z</time></trkpt><trkpt lat="43.0990317" lon="11.4833383"><ele>146.0</ele><time>2026-04-18T14:04:58.767Z</time></trkpt><trkpt lat="43.0988367" lon="11.4833667"><ele>146.66666666666666</ele><time>2026-04-18T14:04:59.77Z</time></trkpt><trkpt lat="43.0986417" lon="11.4834217"><ele>147.33333333333334</ele><time>2026-04-18T14:05:00.77Z</time></trkpt><trkpt lat="43.0984417" lon="11.4835033"><ele>148.0</ele><time>2026-04-18T14:05:01.769Z</time></trkpt><trkpt lat="43.0982633" lon="11.4835867"><ele>149.0</ele><time>2026-04-18T14:05:02.772Z</time></trkpt><trkpt lat="43.0981067" lon="11.4836633"><ele>150.0</ele><time>2026-04-18T14:05:03.768Z</time></trkpt><trkpt lat="43.097965" lon="11.4837317"><ele>151.0</ele><time>2026-04-18T14:05:04.766Z</time></trkpt><trkpt lat="43.0978317" lon="11.4838067"><ele>151.0</ele><time>2026-04-18T14:05:05.77Z</time></trkpt><trkpt lat="43.0976967" lon="11.4838967"><ele>151.0</ele><time>2026-04-18T14:05:06.771Z</time></trkpt><trkpt lat="43.0975517" lon="11.4840117"><ele>151.0</ele><time>2026-04-18T14:05:07.769Z</time></trkpt><trkpt lat="43.0973933" lon="11.484145"><ele>150.33333333333334</ele><time>2026-04-18T14:05:08.77Z</time></trkpt><trkpt lat="43.0972217" lon="11.4842867"><ele>149.66666666666666</ele><time>2026-04-18T14:05:09.77Z</time></trkpt><trkpt lat="43.097035" lon="11.484435"><ele>149.0</ele><time>2026-04-18T14:05:10.766Z</time></trkpt><trkpt lat="43.0968383" lon="11.4845933"><ele>150.0</ele><time>2026-04-18T14:05:11.77Z</time></trkpt><trkpt lat="43.0966317" lon="11.4847667"><ele>151.0</ele><time>2026-04-18T14:05:12.763Z</time></trkpt><trkpt lat="43.0964217" lon="11.4849517"><ele>152.0</ele><time>2026-04-18T14:05:13.768Z</time></trkpt><trkpt lat="43.096195" lon="11.48513"><ele>153.0</ele><time>2026-04-18T14:05:14.766Z</time></trkpt><trkpt lat="43.0959467" lon="11.4852833"><ele>152.0</ele><time>2026-04-18T14:05:15.769Z</time></trkpt><trkpt lat="43.0956833" lon="11.4854117"><ele>151.0</ele><time>2026-04-18T14:05:16.769Z</time></trkpt><trkpt lat="43.0954133" lon="11.4855183"><ele>151.0</ele><time>2026-04-18T14:05:17.763Z</time></trkpt><trkpt lat="43.0951483" lon="11.4856217"><ele>151.0</ele><time>2026-04-18T14:05:18.772Z</time></trkpt><trkpt lat="43.094885" lon="11.4857317"><ele>153.5</ele><time>2026-04-18T14:05:19.765Z</time></trkpt><trkpt lat="43.094625" lon="11.4858467"><ele>156.0</ele><time>2026-04-18T14:05:20.767Z</time></trkpt><trkpt lat="43.094365" lon="11.4859483"><ele>156.0</ele><time>2026-04-18T14:05:21.768Z</time></trkpt><trkpt lat="43.0941017" lon="11.48602"><ele>156.0</ele><time>2026-04-18T14:05:22.767Z</time></trkpt><trkpt lat="43.0938417" lon="11.4860683"><ele>156.5</ele><time>2026-04-18T14:05:23.769Z</time></trkpt><trkpt lat="43.0935817" lon="11.4861067"><ele>157.0</ele><time>2026-04-18T14:05:24.77Z</time></trkpt><trkpt lat="43.0933233" lon="11.4861433"><ele>156.0</ele><time>2026-04-18T14:05:25.768Z</time></trkpt><trkpt lat="43.093065" lon="11.4861783"><ele>155.0</ele><time>2026-04-18T14:05:26.772Z</time></trkpt><trkpt lat="43.0928133" lon="11.4862133"><ele>155.0</ele><time>2026-04-18T14:05:27.766Z</time></trkpt><trkpt lat="43.09256" lon="11.4862517"><ele>155.0</ele><time>2026-04-18T14:05:28.764Z</time></trkpt><trkpt lat="43.0923083" lon="11.4862867"><ele>154.5</ele><time>2026-04-18T14:05:29.77Z</time></trkpt><trkpt lat="43.0920583" lon="11.48632"><ele>154.0</ele><time>2026-04-18T14:05:30.764Z</time></trkpt><trkpt lat="43.0918133" lon="11.4863533"><ele>155.5</ele><time>2026-04-18T14:05:31.77Z</time></trkpt><trkpt lat="43.0915683" lon="11.4863917"><ele>157.0</ele><time>2026-04-18T14:05:32.771Z</time></trkpt><trkpt lat="43.091325" lon="11.4864283"><ele>157.0</ele><time>2026-04-18T14:05:33.771Z</time></trkpt><trkpt lat="43.09108" lon="11.4864633"><ele>157.0</ele><time>2026-04-18T14:05:34.766Z</time></trkpt><trkpt lat="43.0908333" lon="11.4865017"><ele>157.5</ele><time>2026-04-18T14:05:35.769Z</time></trkpt><trkpt lat="43.0905867" lon="11.48654"><ele>158.0</ele><time>2026-04-18T14:05:36.765Z</time></trkpt><trkpt lat="43.0903433" lon="11.4865767"><ele>158.0</ele><time>2026-04-18T14:05:37.77Z</time></trkpt><trkpt lat="43.0900967" lon="11.486615"><ele>158.0</ele><time>2026-04-18T14:05:38.77Z</time></trkpt><trkpt lat="43.0898533" lon="11.4866517"><ele>158.0</ele><time>2026-04-18T14:05:39.77Z</time></trkpt><trkpt lat="43.0896083" lon="11.4866933"><ele>158.0</ele><time>2026-04-18T14:05:40.77Z</time></trkpt><trkpt lat="43.0893667" lon="11.486735"><ele>158.0</ele><time>2026-04-18T14:05:41.765Z</time></trkpt><trkpt lat="43.089135" lon="11.4867617"><ele>158.0</ele><time>2026-04-18T14:05:42.77Z</time></trkpt><trkpt lat="43.0889167" lon="11.4867533"><ele>158.0</ele><time>2026-04-18T14:05:43.765Z</time></trkpt><trkpt lat="43.0887117" lon="11.48669"><ele>158.0</ele><time>2026-04-18T14:05:44.77Z</time></trkpt><trkpt lat="43.0885217" lon="11.4865917"><ele>158.0</ele><time>2026-04-18T14:05:45.766Z</time></trkpt><trkpt lat="43.0883467" lon="11.4864467"><ele>158.0</ele><time>2026-04-18T14:05:46.765Z</time></trkpt><trkpt lat="43.0881933" lon="11.486225"><ele>158.0</ele><time>2026-04-18T14:05:47.766Z</time></trkpt><trkpt lat="43.0880467" lon="11.4859733"><ele>158.0</ele><time>2026-04-18T14:05:48.77Z</time></trkpt><trkpt lat="43.087895" lon="11.4857117"><ele>158.0</ele><time>2026-04-18T14:05:49.768Z</time></trkpt><trkpt lat="43.08774" lon="11.4854433"><ele>159.5</ele><time>2026-04-18T14:05:50.769Z</time></trkpt><trkpt lat="43.08758" lon="11.4851683"><ele>161.0</ele><time>2026-04-18T14:05:51.771Z</time></trkpt><trkpt lat="43.0874183" lon="11.4848933"><ele>161.0</ele><time>2026-04-18T14:05:52.765Z</time></trkpt><trkpt lat="43.0872567" lon="11.484625"><ele>161.0</ele><time>2026-04-18T14:05:53.769Z</time></trkpt><trkpt lat="43.0870933" lon="11.4843783"><ele>163.0</ele><time>2026-04-18T14:05:54.772Z</time></trkpt><trkpt lat="43.0869133" lon="11.4841683"><ele>165.0</ele><time>2026-04-18T14:05:55.769Z</time></trkpt><trkpt lat="43.0867083" lon="11.484015"><ele>167.0</ele><time>2026-04-18T14:05:56.771Z</time></trkpt><trkpt lat="43.0864717" lon="11.4839217"><ele>169.0</ele><time>2026-04-18T14:05:57.77Z</time></trkpt><trkpt lat="43.08622" lon="11.4838967"><ele>169.0</ele><time>2026-04-18T14:05:58.77Z</time></trkpt><trkpt lat="43.0859633" lon="11.4839033"><ele>169.0</ele><time>2026-04-18T14:05:59.765Z</time></trkpt><trkpt lat="43.0856967" lon="11.4839233"><ele>173.5</ele><time>2026-04-18T14:06:00.77Z</time></trkpt><trkpt lat="43.0854067" lon="11.4839483"><ele>178.0</ele><time>2026-04-18T14:06:01.765Z</time></trkpt><trkpt lat="43.085105" lon="11.4839717"><ele>182.0</ele><time>2026-04-18T14:06:02.772Z</time></trkpt><trkpt lat="43.084805" lon="11.4839917"><ele>186.0</ele><time>2026-04-18T14:06:03.765Z</time></trkpt><trkpt lat="43.0845083" lon="11.48402"><ele>186.0</ele><time>2026-04-18T14:06:04.77Z</time></trkpt><trkpt lat="43.084225" lon="11.484045"><ele>186.0</ele><time>2026-04-18T14:06:05.765Z</time></trkpt><trkpt lat="43.083955" lon="11.48407"><ele>190.0</ele><time>2026-04-18T14:06:06.769Z</time></trkpt><trkpt lat="43.0837" lon="11.484125"><ele>194.0</ele><time>2026-04-18T14:06:07.765Z</time></trkpt><trkpt lat="43.083455" lon="11.4842233"><ele>199.5</ele><time>2026-04-18T14:06:08.769Z</time></trkpt><trkpt lat="43.0832233" lon="11.484345"><ele>205.0</ele><time>2026-04-18T14:06:09.765Z</time></trkpt><trkpt lat="43.0830017" lon="11.4844617"><ele>205.0</ele><time>2026-04-18T14:06:10.764Z</time></trkpt><trkpt lat="43.0827833" lon="11.484545"><ele>205.0</ele><time>2026-04-18T14:06:11.769Z</time></trkpt><trkpt lat="43.082565" lon="11.4845883"><ele>205.0</ele><time>2026-04-18T14:06:12.772Z</time></trkpt><trkpt lat="43.0823433" lon="11.4845667"><ele>207.0</ele><time>2026-04-18T14:06:13.766Z</time></trkpt><trkpt lat="43.0821317" lon="11.4844883"><ele>209.0</ele><time>2026-04-18T14:06:14.77Z</time></trkpt><trkpt lat="43.0819333" lon="11.48439"><ele>211.0</ele><time>2026-04-18T14:06:15.77Z</time></trkpt><trkpt lat="43.0817483" lon="11.4843033"><ele>213.33333333333331</ele><time>2026-04-18T14:06:16.769Z</time></trkpt><trkpt lat="43.0815767" lon="11.4842383"><ele>215.66666666666669</ele><time>2026-04-18T14:06:17.77Z</time></trkpt><trkpt lat="43.0814167" lon="11.4842267"><ele>218.0</ele><time>2026-04-18T14:06:18.766Z</time></trkpt><trkpt lat="43.0812717" lon="11.4842783"><ele>218.0</ele><time>2026-04-18T14:06:19.768Z</time></trkpt><trkpt lat="43.0811533" lon="11.4844017"><ele>218.0</ele><time>2026-04-18T14:06:20.765Z</time></trkpt><trkpt lat="43.08106" lon="11.48458"><ele>218.0</ele><time>2026-04-18T14:06:21.765Z</time></trkpt><trkpt lat="43.08101" lon="11.484845"><ele>217.66666666666669</ele><time>2026-04-18T14:06:22.771Z</time></trkpt><trkpt lat="43.0810017" lon="11.4851367"><ele>217.33333333333331</ele><time>2026-04-18T14:06:23.77Z</time></trkpt><trkpt lat="43.0809783" lon="11.48542"><ele>217.0</ele><time>2026-04-18T14:06:24.77Z</time></trkpt><trkpt lat="43.08092" lon="11.4856783"><ele>216.33333333333331</ele><time>2026-04-18T14:06:25.762Z</time></trkpt><trkpt lat="43.0808117" lon="11.485915"><ele>215.66666666666669</ele><time>2026-04-18T14:06:26.767Z</time></trkpt><trkpt lat="43.0806717" lon="11.48612"><ele>215.0</ele><time>2026-04-18T14:06:27.765Z</time></trkpt><trkpt lat="43.0805133" lon="11.4863183"><ele>222.5</ele><time>2026-04-18T14:06:28.767Z</time></trkpt><trkpt lat="43.0803517" lon="11.4865317"><ele>230.0</ele><time>2026-04-18T14:06:29.765Z</time></trkpt><trkpt lat="43.0802117" lon="11.4867733"><ele>230.0</ele><time>2026-04-18T14:06:30.766Z</time></trkpt><trkpt lat="43.080095" lon="11.4870317"><ele>230.0</ele><time>2026-04-18T14:06:31.763Z</time></trkpt><trkpt lat="43.0799833" lon="11.48729"><ele>230.0</ele><time>2026-04-18T14:06:32.772Z</time></trkpt><trkpt lat="43.07985" lon="11.487525"><ele>234.0</ele><time>2026-04-18T14:06:33.77Z</time></trkpt><trkpt lat="43.079685" lon="11.4877317"><ele>238.0</ele><time>2026-04-18T14:06:34.764Z</time></trkpt><trkpt lat="43.0794933" lon="11.487915"><ele>238.0</ele><time>2026-04-18T14:06:35.77Z</time></trkpt><trkpt lat="43.0792817" lon="11.4880767"><ele>238.0</ele><time>2026-04-18T14:06:36.769Z</time></trkpt><trkpt lat="43.0790767" lon="11.488215"><ele>238.0</ele><time>2026-04-18T14:06:37.768Z</time></trkpt><trkpt lat="43.0788833" lon="11.48833"><ele>238.0</ele><time>2026-04-18T14:06:38.769Z</time></trkpt><trkpt lat="43.0787083" lon="11.4884267"><ele>238.0</ele><time>2026-04-18T14:06:39.765Z</time></trkpt><trkpt lat="43.0785483" lon="11.4885233"><ele>238.0</ele><time>2026-04-18T14:06:40.763Z</time></trkpt><trkpt lat="43.0784217" lon="11.4886583"><ele>238.0</ele><time>2026-04-18T14:06:41.767Z</time></trkpt><trkpt lat="43.078325" lon="11.4888433"><ele>238.0</ele><time>2026-04-18T14:06:42.766Z</time></trkpt><trkpt lat="43.0782733" lon="11.4890783"><ele>238.66666666666666</ele><time>2026-04-18T14:06:43.769Z</time></trkpt><trkpt lat="43.0783" lon="11.4893383"><ele>239.33333333333331</ele><time>2026-04-18T14:06:44.77Z</time></trkpt><trkpt lat="43.07839" lon="11.4896"><ele>240.0</ele><time>2026-04-18T14:06:45.768Z</time></trkpt><trkpt lat="43.0784583" lon="11.4898333"><ele>240.0</ele><time>2026-04-18T14:06:46.77Z</time></trkpt><trkpt lat="43.0784817" lon="11.490055"><ele>240.0</ele><time>2026-04-18T14:06:47.77Z</time></trkpt><trkpt lat="43.0784583" lon="11.490285"><ele>240.0</ele><time>2026-04-18T14:06:48.769Z</time></trkpt><trkpt lat="43.0783983" lon="11.4905217"><ele>239.33333333333331</ele><time>2026-04-18T14:06:49.767Z</time></trkpt><trkpt lat="43.0783183" lon="11.4907583"><ele>238.66666666666666</ele><time>2026-04-18T14:06:50.771Z</time></trkpt><trkpt lat="43.07824" lon="11.4909917"><ele>238.0</ele><time>2026-04-18T14:06:51.765Z</time></trkpt><trkpt lat="43.0781883" lon="11.4912133"><ele>241.66666666666666</ele><time>2026-04-18T14:06:52.77Z</time></trkpt><trkpt lat="43.0781583" lon="11.4914283"><ele>245.33333333333331</ele><time>2026-04-18T14:06:53.765Z</time></trkpt><trkpt lat="43.0781367" lon="11.49164"><ele>249.0</ele><time>2026-04-18T14:06:54.769Z</time></trkpt><trkpt lat="43.0781133" lon="11.491855"><ele>249.0</ele><time>2026-04-18T14:06:55.767Z</time></trkpt><trkpt lat="43.07808" lon="11.492065"><ele>249.0</ele><time>2026-04-18T14:06:56.771Z</time></trkpt><trkpt lat="43.07803" lon="11.49227"><ele>249.0</ele><time>2026-04-18T14:06:57.766Z</time></trkpt><trkpt lat="43.0779517" lon="11.4924533"><ele>249.33333333333331</ele><time>2026-04-18T14:06:58.768Z</time></trkpt><trkpt lat="43.0778417" lon="11.4926117"><ele>249.66666666666666</ele><time>2026-04-18T14:06:59.768Z</time></trkpt><trkpt lat="43.0777017" lon="11.4927467"><ele>250.0</ele><time>2026-04-18T14:07:00.771Z</time></trkpt><trkpt lat="43.0775317" lon="11.4928733"><ele>250.5</ele><time>2026-04-18T14:07:01.767Z</time></trkpt><trkpt lat="43.077325" lon="11.493"><ele>251.0</ele><time>2026-04-18T14:07:02.768Z</time></trkpt><trkpt lat="43.0770983" lon="11.49315"><ele>251.0</ele><time>2026-04-18T14:07:03.767Z</time></trkpt><trkpt lat="43.0768583" lon="11.4933283"><ele>251.0</ele><time>2026-04-18T14:07:04.768Z</time></trkpt><trkpt lat="43.07661" lon="11.4935417"><ele>252.0</ele><time>2026-04-18T14:07:05.769Z</time></trkpt><trkpt lat="43.0763633" lon="11.4937817"><ele>253.0</ele><time>2026-04-18T14:07:06.769Z</time></trkpt><trkpt lat="43.0761067" lon="11.49404"><ele>253.0</ele><time>2026-04-18T14:07:07.769Z</time></trkpt><trkpt lat="43.0758467" lon="11.4943117"><ele>253.0</ele><time>2026-04-18T14:07:08.769Z</time></trkpt><trkpt lat="43.0755733" lon="11.4945817"><ele>255.5</ele><time>2026-04-18T14:07:09.769Z</time></trkpt><trkpt lat="43.0752867" lon="11.4948333"><ele>258.0</ele><time>2026-04-18T14:07:10.765Z</time></trkpt><trkpt lat="43.075" lon="11.495075"><ele>259.0</ele><time>2026-04-18T14:07:11.766Z</time></trkpt><trkpt lat="43.0747183" lon="11.4953067"><ele>260.0</ele><time>2026-04-18T14:07:12.768Z</time></trkpt><trkpt lat="43.0744417" lon="11.4955317"><ele>262.0</ele><time>2026-04-18T14:07:13.768Z</time></trkpt><trkpt lat="43.0741717" lon="11.49575"><ele>264.0</ele><time>2026-04-18T14:07:14.771Z</time></trkpt><trkpt lat="43.0739033" lon="11.4959517"><ele>264.5</ele><time>2026-04-18T14:07:15.77Z</time></trkpt><trkpt lat="43.0736367" lon="11.4961183"><ele>265.0</ele><time>2026-04-18T14:07:16.77Z</time></trkpt><trkpt lat="43.0733767" lon="11.49625"><ele>270.5</ele><time>2026-04-18T14:07:17.765Z</time></trkpt><trkpt lat="43.0731267" lon="11.4963583"><ele>276.0</ele><time>2026-04-18T14:07:18.766Z</time></trkpt><trkpt lat="43.0728883" lon="11.496465"><ele>276.0</ele><time>2026-04-18T14:07:19.77Z</time></trkpt><trkpt lat="43.0726583" lon="11.4965867"><ele>276.0</ele><time>2026-04-18T14:07:20.773Z</time></trkpt><trkpt lat="43.0724417" lon="11.4967317"><ele>274.5</ele><time>2026-04-18T14:07:21.762Z</time></trkpt><trkpt lat="43.0722233" lon="11.4968933"><ele>273.0</ele><time>2026-04-18T14:07:22.761Z</time></trkpt><trkpt lat="43.0720083" lon="11.49706"><ele>275.0</ele><time>2026-04-18T14:07:23.761Z</time></trkpt><trkpt lat="43.071785" lon="11.4972233"><ele>277.0</ele><time>2026-04-18T14:07:24.77Z</time></trkpt><trkpt lat="43.0715633" lon="11.4973883"><ele>277.0</ele><time>2026-04-18T14:07:25.765Z</time></trkpt><trkpt lat="43.071345" lon="11.4975583"><ele>277.0</ele><time>2026-04-18T14:07:26.772Z</time></trkpt><trkpt lat="43.071125" lon="11.4977283"><ele>277.0</ele><time>2026-04-18T14:07:27.767Z</time></trkpt><trkpt lat="43.0709017" lon="11.4978983"><ele>277.0</ele><time>2026-04-18T14:07:28.766Z</time></trkpt><trkpt lat="43.0706817" lon="11.4980717"><ele>281.0</ele><time>2026-04-18T14:07:29.769Z</time></trkpt><trkpt lat="43.070455" lon="11.498245"><ele>285.0</ele><time>2026-04-18T14:07:30.766Z</time></trkpt><trkpt lat="43.0702183" lon="11.4984033"><ele>285.0</ele><time>2026-04-18T14:07:31.77Z</time></trkpt><trkpt lat="43.0699667" lon="11.49853"><ele>285.0</ele><time>2026-04-18T14:07:32.769Z</time></trkpt><trkpt lat="43.0697017" lon="11.49863"><ele>286.0</ele><time>2026-04-18T14:07:33.77Z</time></trkpt><trkpt lat="43.0694317" lon="11.4987167"><ele>287.0</ele><time>2026-04-18T14:07:34.758Z</time></trkpt><trkpt lat="43.0691633" lon="11.4987933"><ele>290.5</ele><time>2026-04-18T14:07:35.769Z</time></trkpt><trkpt lat="43.0689117" lon="11.4988667"><ele>294.0</ele><time>2026-04-18T14:07:36.766Z</time></trkpt><trkpt lat="43.068675" lon="11.4989383"><ele>294.0</ele><time>2026-04-18T14:07:37.77Z</time></trkpt><trkpt lat="43.06845" lon="11.4990033"><ele>294.0</ele><time>2026-04-18T14:07:38.771Z</time></trkpt><trkpt lat="43.0682367" lon="11.4990633"><ele>294.0</ele><time>2026-04-18T14:07:39.77Z</time></trkpt><trkpt lat="43.0680383" lon="11.49912"><ele>297.3333333333333</ele><time>2026-04-18T14:07:40.766Z</time></trkpt><trkpt lat="43.0678517" lon="11.4991817"><ele>300.66666666666663</ele><time>2026-04-18T14:07:41.769Z</time></trkpt><trkpt lat="43.0676667" lon="11.4992633"><ele>304.0</ele><time>2026-04-18T14:07:42.765Z</time></trkpt><trkpt lat="43.06748" lon="11.4993783"><ele>304.66666666666663</ele><time>2026-04-18T14:07:43.77Z</time></trkpt><trkpt lat="43.0672983" lon="11.4995167"><ele>305.3333333333333</ele><time>2026-04-18T14:07:44.768Z</time></trkpt><trkpt lat="43.067115" lon="11.4996583"><ele>306.0</ele><time>2026-04-18T14:07:45.77Z</time></trkpt><trkpt lat="43.0669233" lon="11.4997867"><ele>306.0</ele><time>2026-04-18T14:07:46.765Z</time></trkpt><trkpt lat="43.0667183" lon="11.4998983"><ele>306.0</ele><time>2026-04-18T14:07:47.772Z</time></trkpt><trkpt lat="43.0665067" lon="11.4999767"><ele>306.0</ele><time>2026-04-18T14:07:48.766Z</time></trkpt><trkpt lat="43.0663017" lon="11.5000367"><ele>308.6666666666667</ele><time>2026-04-18T14:07:49.77Z</time></trkpt><trkpt lat="43.0661183" lon="11.5000967"><ele>311.33333333333337</ele><time>2026-04-18T14:07:50.771Z</time></trkpt><trkpt lat="43.0659483" lon="11.500185"><ele>314.0</ele><time>2026-04-18T14:07:51.77Z</time></trkpt><trkpt lat="43.0657917" lon="11.5003333"><ele>316.33333333333337</ele><time>2026-04-18T14:07:52.768Z</time></trkpt><trkpt lat="43.0656533" lon="11.5005333"><ele>318.6666666666667</ele><time>2026-04-18T14:07:53.77Z</time></trkpt><trkpt lat="43.065535" lon="11.5007767"><ele>321.0</ele><time>2026-04-18T14:07:54.765Z</time></trkpt><trkpt lat="43.0654233" lon="11.5010333"><ele>320.0</ele><time>2026-04-18T14:07:55.765Z</time></trkpt><trkpt lat="43.0653017" lon="11.5012783"><ele>319.0</ele><time>2026-04-18T14:07:56.77Z</time></trkpt><trkpt lat="43.0651633" lon="11.5014867"><ele>318.0</ele><time>2026-04-18T14:07:57.765Z</time></trkpt><trkpt lat="43.0649967" lon="11.50164"><ele>319.3333333333333</ele><time>2026-04-18T14:07:58.769Z</time></trkpt><trkpt lat="43.064805" lon="11.5017383"><ele>320.66666666666663</ele><time>2026-04-18T14:07:59.765Z</time></trkpt><trkpt lat="43.0645917" lon="11.5017633"><ele>322.0</ele><time>2026-04-18T14:08:00.768Z</time></trkpt><trkpt lat="43.0643483" lon="11.5016933"><ele>322.0</ele><time>2026-04-18T14:08:01.77Z</time></trkpt><trkpt lat="43.06412" lon="11.5015583"><ele>322.0</ele><time>2026-04-18T14:08:02.773Z</time></trkpt><trkpt lat="43.0638983" lon="11.5013967"><ele>322.5</ele><time>2026-04-18T14:08:03.771Z</time></trkpt><trkpt lat="43.06367" lon="11.5012683"><ele>323.0</ele><time>2026-04-18T14:08:04.768Z</time></trkpt><trkpt lat="43.063455" lon="11.5011433"><ele>327.6666666666667</ele><time>2026-04-18T14:08:05.771Z</time></trkpt><trkpt lat="43.0632567" lon="11.5010433"><ele>332.3333333333333</ele><time>2026-04-18T14:08:06.77Z</time></trkpt><trkpt lat="43.0630583" lon="11.5009717"><ele>337.0</ele><time>2026-04-18T14:08:07.769Z</time></trkpt><trkpt lat="43.06285" lon="11.50095"><ele>337.0</ele><time>2026-04-18T14:08:08.77Z</time></trkpt><trkpt lat="43.0626367" lon="11.5010033"><ele>337.0</ele><time>2026-04-18T14:08:09.77Z</time></trkpt><trkpt lat="43.062435" lon="11.5011333"><ele>337.0</ele><time>2026-04-18T14:08:10.77Z</time></trkpt><trkpt lat="43.062265" lon="11.501315"><ele>338.66666666666663</ele><time>2026-04-18T14:08:11.769Z</time></trkpt><trkpt lat="43.062095" lon="11.50149"><ele>340.3333333333333</ele><time>2026-04-18T14:08:12.77Z</time></trkpt><trkpt lat="43.0619183" lon="11.501665"><ele>342.0</ele><time>2026-04-18T14:08:13.769Z</time></trkpt><trkpt lat="43.06174" lon="11.501825"><ele>344.6666666666667</ele><time>2026-04-18T14:08:14.764Z</time></trkpt><trkpt lat="43.0615533" lon="11.5019483"><ele>347.33333333333337</ele><time>2026-04-18T14:08:15.77Z</time></trkpt><trkpt lat="43.0613467" lon="11.50204"><ele>350.0</ele><time>2026-04-18T14:08:16.763Z</time></trkpt><trkpt lat="43.0611417" lon="11.5020783"><ele>352.0</ele><time>2026-04-18T14:08:17.768Z</time></trkpt><trkpt lat="43.0609533" lon="11.5021317"><ele>354.0</ele><time>2026-04-18T14:08:18.766Z</time></trkpt><trkpt lat="43.0607883" lon="11.5022433"><ele>356.0</ele><time>2026-04-18T14:08:19.77Z</time></trkpt><trkpt lat="43.0606467" lon="11.5024167"><ele>356.0</ele><time>2026-04-18T14:08:20.771Z</time></trkpt><trkpt lat="43.0605267" lon="11.5026117"><ele>356.0</ele><time>2026-04-18T14:08:21.769Z</time></trkpt><trkpt lat="43.060405" lon="11.5027933"><ele>356.0</ele><time>2026-04-18T14:08:22.771Z</time></trkpt><trkpt lat="43.060265" lon="11.5029367"><ele>351.33333333333337</ele><time>2026-04-18T14:08:23.77Z</time></trkpt><trkpt lat="43.0600967" lon="11.5030483"><ele>346.6666666666667</ele><time>2026-04-18T14:08:24.765Z</time></trkpt><trkpt lat="43.0599017" lon="11.5031017"><ele>342.0</ele><time>2026-04-18T14:08:25.771Z</time></trkpt><trkpt lat="43.0596883" lon="11.5030883"><ele>342.0</ele><time>2026-04-18T14:08:26.77Z</time></trkpt><trkpt lat="43.05949" lon="11.5030283"><ele>342.0</ele><time>2026-04-18T14:08:27.767Z</time></trkpt><trkpt lat="43.0593117" lon="11.502935"><ele>342.0</ele><time>2026-04-18T14:08:28.769Z</time></trkpt><trkpt lat="43.0591333" lon="11.502805"><ele>348.3333333333333</ele><time>2026-04-18T14:08:29.77Z</time></trkpt><trkpt lat="43.0589683" lon="11.50262"><ele>354.66666666666663</ele><time>2026-04-18T14:08:30.768Z</time></trkpt><trkpt lat="43.0588167" lon="11.502425"><ele>361.0</ele><time>2026-04-18T14:08:31.769Z</time></trkpt><trkpt lat="43.058685" lon="11.50224"><ele>361.0</ele><time>2026-04-18T14:08:32.771Z</time></trkpt><trkpt lat="43.0585583" lon="11.5020867"><ele>361.0</ele><time>2026-04-18T14:08:33.77Z</time></trkpt><trkpt lat="43.0584267" lon="11.5019917"><ele>361.0</ele><time>2026-04-18T14:08:34.769Z</time></trkpt><trkpt lat="43.05828" lon="11.5019567"><ele>365.0</ele><time>2026-04-18T14:08:35.768Z</time></trkpt><trkpt lat="43.0581367" lon="11.5019717"><ele>369.0</ele><time>2026-04-18T14:08:36.766Z</time></trkpt><trkpt lat="43.0579867" lon="11.5020483"><ele>373.0</ele><time>2026-04-18T14:08:37.767Z</time></trkpt><trkpt lat="43.05786" lon="11.5021617"><ele>373.66666666666663</ele><time>2026-04-18T14:08:38.771Z</time></trkpt><trkpt lat="43.0577617" lon="11.5023167"><ele>374.3333333333333</ele><time>2026-04-18T14:08:39.763Z</time></trkpt><trkpt lat="43.0577167" lon="11.5025117"><ele>375.0</ele><time>2026-04-18T14:08:40.767Z</time></trkpt><trkpt lat="43.0577133" lon="11.50273"><ele>374.0</ele><time>2026-04-18T14:08:41.77Z</time></trkpt><trkpt lat="43.05771" lon="11.5029517"><ele>373.0</ele><time>2026-04-18T14:08:42.769Z</time></trkpt><trkpt lat="43.05768" lon="11.503165"><ele>372.0</ele><time>2026-04-18T14:08:43.77Z</time></trkpt><trkpt lat="43.05761" lon="11.5033467"><ele>372.0</ele><time>2026-04-18T14:08:44.77Z</time></trkpt><trkpt lat="43.0574967" lon="11.5034667"><ele>372.0</ele><time>2026-04-18T14:08:45.772Z</time></trkpt><trkpt lat="43.0573117" lon="11.5035233"><ele>372.0</ele><time>2026-04-18T14:08:46.769Z</time></trkpt><trkpt lat="43.0571017" lon="11.503585"><ele>372.0</ele><time>2026-04-18T14:08:47.772Z</time></trkpt><trkpt lat="43.0568967" lon="11.5036783"><ele>372.0</ele><time>2026-04-18T14:08:48.769Z</time></trkpt><trkpt lat="43.056695" lon="11.50379"><ele>372.0</ele><time>2026-04-18T14:08:49.769Z</time></trkpt><trkpt lat="43.0564983" lon="11.5039133"><ele>378.0</ele><time>2026-04-18T14:08:50.772Z</time></trkpt><trkpt lat="43.0563133" lon="11.50406"><ele>384.0</ele><time>2026-04-18T14:08:51.769Z</time></trkpt><trkpt lat="43.0561433" lon="11.50426"><ele>390.0</ele><time>2026-04-18T14:08:52.765Z</time></trkpt><trkpt lat="43.0559933" lon="11.5045017"><ele>388.0</ele><time>2026-04-18T14:08:53.77Z</time></trkpt><trkpt lat="43.0558583" lon="11.5047733"><ele>386.0</ele><time>2026-04-18T14:08:54.766Z</time></trkpt><trkpt lat="43.0557333" lon="11.50507"><ele>394.0</ele><time>2026-04-18T14:08:55.767Z</time></trkpt><trkpt lat="43.0556267" lon="11.5053767"><ele>402.0</ele><time>2026-04-18T14:08:56.772Z</time></trkpt><trkpt lat="43.055535" lon="11.505665"><ele>402.0</ele><time>2026-04-18T14:08:57.77Z</time></trkpt><trkpt lat="43.05547" lon="11.5059317"><ele>402.0</ele><time>2026-04-18T14:08:58.766Z</time></trkpt><trkpt lat="43.05545" lon="11.5061783"><ele>402.0</ele><time>2026-04-18T14:08:59.764Z</time></trkpt><trkpt lat="43.055475" lon="11.5064267"><ele>402.0</ele><time>2026-04-18T14:09:00.77Z</time></trkpt><trkpt lat="43.0555417" lon="11.5066633"><ele>402.0</ele><time>2026-04-18T14:09:01.767Z</time></trkpt><trkpt lat="43.0556583" lon="11.5068717"><ele>402.0</ele><time>2026-04-18T14:09:02.772Z</time></trkpt><trkpt lat="43.0557617" lon="11.50709"><ele>400.0</ele><time>2026-04-18T14:09:03.768Z</time></trkpt><trkpt lat="43.05585" lon="11.5073183"><ele>398.0</ele><time>2026-04-18T14:09:04.765Z</time></trkpt><trkpt lat="43.0559067" lon="11.5075733"><ele>396.0</ele><time>2026-04-18T14:09:05.765Z</time></trkpt><trkpt lat="43.0559217" lon="11.50786"><ele>396.66666666666663</ele><time>2026-04-18T14:09:06.77Z</time></trkpt><trkpt lat="43.055905" lon="11.508115"><ele>397.3333333333333</ele><time>2026-04-18T14:09:07.77Z</time></trkpt><trkpt lat="43.055855" lon="11.5083417"><ele>398.0</ele><time>2026-04-18T14:09:08.77Z</time></trkpt><trkpt lat="43.0557383" lon="11.5085267"><ele>403.3333333333333</ele><time>2026-04-18T14:09:09.767Z</time></trkpt><trkpt lat="43.0555983" lon="11.5087067"><ele>408.66666666666663</ele><time>2026-04-18T14:09:10.771Z</time></trkpt><trkpt lat="43.0554417" lon="11.508885"><ele>414.0</ele><time>2026-04-18T14:09:11.77Z</time></trkpt><trkpt lat="43.055285" lon="11.5090917"><ele>414.0</ele><time>2026-04-18T14:09:12.77Z</time></trkpt><trkpt lat="43.0551617" lon="11.5093317"><ele>414.0</ele><time>2026-04-18T14:09:13.764Z</time></trkpt><trkpt lat="43.05506" lon="11.50959"><ele>414.0</ele><time>2026-04-18T14:09:14.773Z</time></trkpt><trkpt lat="43.0549617" lon="11.5098533"><ele>414.66666666666663</ele><time>2026-04-18T14:09:15.769Z</time></trkpt><trkpt lat="43.0548433" lon="11.5100967"><ele>415.3333333333333</ele><time>2026-04-18T14:09:16.765Z</time></trkpt><trkpt lat="43.0547" lon="11.5102983"><ele>416.0</ele><time>2026-04-18T14:09:17.771Z</time></trkpt><trkpt lat="43.0545367" lon="11.51046"><ele>416.0</ele><time>2026-04-18T14:09:18.769Z</time></trkpt><trkpt lat="43.054355" lon="11.5105917"><ele>416.0</ele><time>2026-04-18T14:09:19.771Z</time></trkpt><trkpt lat="43.054165" lon="11.510675"><ele>416.0</ele><time>2026-04-18T14:09:20.768Z</time></trkpt><trkpt lat="43.0539533" lon="11.5106617"><ele>416.66666666666663</ele><time>2026-04-18T14:09:21.769Z</time></trkpt><trkpt lat="43.05374" lon="11.510585"><ele>417.33333333333337</ele><time>2026-04-18T14:09:22.769Z</time></trkpt><trkpt lat="43.0535517" lon="11.5104517"><ele>418.0</ele><time>2026-04-18T14:09:23.772Z</time></trkpt><trkpt lat="43.0533783" lon="11.510245"><ele>419.0</ele><time>2026-04-18T14:09:24.764Z</time></trkpt><trkpt lat="43.053245" lon="11.5099317"><ele>420.0</ele><time>2026-04-18T14:09:25.766Z</time></trkpt><trkpt lat="43.05314" lon="11.50961"><ele>424.0</ele><time>2026-04-18T14:09:26.773Z</time></trkpt><trkpt lat="43.053075" lon="11.5092333"><ele>428.0</ele><time>2026-04-18T14:09:27.771Z</time></trkpt><trkpt lat="43.0530333" lon="11.5088383"><ele>432.0</ele><time>2026-04-18T14:09:28.769Z</time></trkpt><trkpt lat="43.0530167" lon="11.508465"><ele>436.0</ele><time>2026-04-18T14:09:29.77Z</time></trkpt><trkpt lat="43.05304" lon="11.5080933"><ele>440.5</ele><time>2026-04-18T14:09:30.769Z</time></trkpt><trkpt lat="43.053085" lon="11.5077167"><ele>445.0</ele><time>2026-04-18T14:09:31.767Z</time></trkpt><trkpt lat="43.0531367" lon="11.5073367"><ele>449.0</ele><time>2026-04-18T14:09:32.771Z</time></trkpt><trkpt lat="43.05318" lon="11.5069733"><ele>453.0</ele><time>2026-04-18T14:09:33.771Z</time></trkpt><trkpt lat="43.0532233" lon="11.5066233"><ele>453.0</ele><time>2026-04-18T14:09:34.765Z</time></trkpt><trkpt lat="43.0532583" lon="11.5063183"><ele>453.0</ele><time>2026-04-18T14:09:35.771Z</time></trkpt><trkpt lat="43.0532833" lon="11.5060533"><ele>453.0</ele><time>2026-04-18T14:09:36.766Z</time></trkpt><trkpt lat="43.0532917" lon="11.5058117"><ele>454.0</ele><time>2026-04-18T14:09:37.77Z</time></trkpt><trkpt lat="43.0532767" lon="11.5055917"><ele>455.0</ele><time>2026-04-18T14:09:38.767Z</time></trkpt><trkpt lat="43.0532233" lon="11.5053933"><ele>456.0</ele><time>2026-04-18T14:09:39.77Z</time></trkpt><trkpt lat="43.0531183" lon="11.505235"><ele>456.5</ele><time>2026-04-18T14:09:40.767Z</time></trkpt><trkpt lat="43.05298" lon="11.50512"><ele>457.0</ele><time>2026-04-18T14:09:41.77Z</time></trkpt><trkpt lat="43.05285" lon="11.5050333"><ele>457.5</ele><time>2026-04-18T14:09:42.769Z</time></trkpt><trkpt lat="43.0527333" lon="11.504975"><ele>458.0</ele><time>2026-04-18T14:09:43.766Z</time></trkpt><trkpt lat="43.0526317" lon="11.5049333"><ele>457.99999999999994</ele><time>2026-04-18T14:09:44.772Z</time></trkpt><trkpt lat="43.0525433" lon="11.5048983"><ele>458.0</ele><time>2026-04-18T14:09:45.77Z</time></trkpt><trkpt lat="43.05247" lon="11.5048517"><ele>458.0</ele><time>2026-04-18T14:09:46.77Z</time></trkpt><trkpt lat="43.0524017" lon="11.5047883"><ele>458.0</ele><time>2026-04-18T14:09:47.769Z</time></trkpt><trkpt lat="43.0523467" lon="11.5047083"><ele>457.99999999999994</ele><time>2026-04-18T14:09:48.769Z</time></trkpt><trkpt lat="43.05231" lon="11.5045917"><ele>458.0</ele><time>2026-04-18T14:09:49.768Z</time></trkpt><trkpt lat="43.0522717" lon="11.5044483"><ele>457.5</ele><time>2026-04-18T14:09:50.769Z</time></trkpt><trkpt lat="43.05222" lon="11.5042817"><ele>457.0</ele><time>2026-04-18T14:09:51.77Z</time></trkpt><trkpt lat="43.0521583" lon="11.50411"><ele>456.5</ele><time>2026-04-18T14:09:52.766Z</time></trkpt><trkpt lat="43.0520867" lon="11.5039333"><ele>456.0</ele><time>2026-04-18T14:09:53.771Z</time></trkpt><trkpt lat="43.052015" lon="11.5037617"><ele>458.0</ele><time>2026-04-18T14:09:54.772Z</time></trkpt><trkpt lat="43.0519367" lon="11.503595"><ele>460.0</ele><time>2026-04-18T14:09:55.763Z</time></trkpt><trkpt lat="43.0518617" lon="11.5034283"><ele>462.0</ele><time>2026-04-18T14:09:56.772Z</time></trkpt><trkpt lat="43.0517983" lon="11.5032633"><ele>464.0</ele><time>2026-04-18T14:09:57.764Z</time></trkpt><trkpt lat="43.0517533" lon="11.50309"><ele>464.5</ele><time>2026-04-18T14:09:58.765Z</time></trkpt><trkpt lat="43.0517417" lon="11.50291"><ele>465.0</ele><time>2026-04-18T14:09:59.77Z</time></trkpt><trkpt lat="43.0517617" lon="11.5027233"><ele>465.5</ele><time>2026-04-18T14:10:00.767Z</time></trkpt><trkpt lat="43.0518083" lon="11.5025383"><ele>466.0</ele><time>2026-04-18T14:10:01.771Z</time></trkpt><trkpt lat="43.05186" lon="11.502355"><ele>466.0</ele><time>2026-04-18T14:10:02.773Z</time></trkpt><trkpt lat="43.0519133" lon="11.5021667"><ele>466.0</ele><time>2026-04-18T14:10:03.765Z</time></trkpt><trkpt lat="43.0519483" lon="11.5019633"><ele>466.0</ele><time>2026-04-18T14:10:04.77Z</time></trkpt><trkpt lat="43.0519633" lon="11.501745"><ele>467.0</ele><time>2026-04-18T14:10:05.769Z</time></trkpt><trkpt lat="43.0519583" lon="11.5015167"><ele>468.0</ele><time>2026-04-18T14:10:06.77Z</time></trkpt><trkpt lat="43.051955" lon="11.501285"><ele>469.0</ele><time>2026-04-18T14:10:07.77Z</time></trkpt><trkpt lat="43.0519567" lon="11.50105"><ele>470.6666666666667</ele><time>2026-04-18T14:10:08.77Z</time></trkpt><trkpt lat="43.05198" lon="11.5008133"><ele>472.33333333333337</ele><time>2026-04-18T14:10:09.765Z</time></trkpt><trkpt lat="43.0520317" lon="11.5005683"><ele>474.0</ele><time>2026-04-18T14:10:10.766Z</time></trkpt><trkpt lat="43.0521083" lon="11.5003167"><ele>475.66666666666663</ele><time>2026-04-18T14:10:11.769Z</time></trkpt><trkpt lat="43.052205" lon="11.5000683"><ele>477.3333333333333</ele><time>2026-04-18T14:10:12.77Z</time></trkpt><trkpt lat="43.0523133" lon="11.49982"><ele>479.0</ele><time>2026-04-18T14:10:13.769Z</time></trkpt><trkpt lat="43.0524183" lon="11.4995683"><ele>482.66666666666663</ele><time>2026-04-18T14:10:14.772Z</time></trkpt><trkpt lat="43.0525233" lon="11.499315"><ele>486.33333333333337</ele><time>2026-04-18T14:10:15.771Z</time></trkpt><trkpt lat="43.0526333" lon="11.4990567"><ele>490.0</ele><time>2026-04-18T14:10:16.768Z</time></trkpt><trkpt lat="43.05274" lon="11.4988"><ele>493.33333333333337</ele><time>2026-04-18T14:10:17.771Z</time></trkpt><trkpt lat="43.0528433" lon="11.498545"><ele>496.66666666666663</ele><time>2026-04-18T14:10:18.771Z</time></trkpt><trkpt lat="43.0529517" lon="11.4983"><ele>500.0</ele><time>2026-04-18T14:10:19.771Z</time></trkpt><trkpt lat="43.0530583" lon="11.4980567"><ele>498.66666666666663</ele><time>2026-04-18T14:10:20.77Z</time></trkpt><trkpt lat="43.0531717" lon="11.4978133"><ele>497.33333333333337</ele><time>2026-04-18T14:10:21.77Z</time></trkpt><trkpt lat="43.0532817" lon="11.4975667"><ele>496.0</ele><time>2026-04-18T14:10:22.765Z</time></trkpt><trkpt lat="43.0533783" lon="11.4973067"><ele>497.0</ele><time>2026-04-18T14:10:23.771Z</time></trkpt><trkpt lat="43.0534533" lon="11.4970367"><ele>498.0</ele><time>2026-04-18T14:10:24.77Z</time></trkpt><trkpt lat="43.0535033" lon="11.4967583"><ele>499.0</ele><time>2026-04-18T14:10:25.77Z</time></trkpt><trkpt lat="43.0535367" lon="11.4964783"><ele>500.6666666666667</ele><time>2026-04-18T14:10:26.768Z</time></trkpt><trkpt lat="43.0535633" lon="11.4961917"><ele>502.33333333333337</ele><time>2026-04-18T14:10:27.771Z</time></trkpt><trkpt lat="43.0535867" lon="11.4959067"><ele>504.0</ele><time>2026-04-18T14:10:28.77Z</time></trkpt><trkpt lat="43.0535917" lon="11.4956233"><ele>504.33333333333337</ele><time>2026-04-18T14:10:29.771Z</time></trkpt><trkpt lat="43.0535833" lon="11.4953433"><ele>504.6666666666667</ele><time>2026-04-18T14:10:30.77Z</time></trkpt><trkpt lat="43.0535617" lon="11.495065"><ele>505.0</ele><time>2026-04-18T14:10:31.766Z</time></trkpt><trkpt lat="43.0535417" lon="11.4947967"><ele>506.0</ele><time>2026-04-18T14:10:32.772Z</time></trkpt><trkpt lat="43.0535333" lon="11.49455"><ele>507.0</ele><time>2026-04-18T14:10:33.769Z</time></trkpt><trkpt lat="43.0535433" lon="11.4943133"><ele>508.0</ele><time>2026-04-18T14:10:34.77Z</time></trkpt><trkpt lat="43.0535883" lon="11.49409"><ele>508.0</ele><time>2026-04-18T14:10:35.768Z</time></trkpt><trkpt lat="43.0536617" lon="11.49388"><ele>508.0</ele><time>2026-04-18T14:10:36.771Z</time></trkpt><trkpt lat="43.0537817" lon="11.4936967"><ele>508.0</ele><time>2026-04-18T14:10:37.769Z</time></trkpt><trkpt lat="43.0539217" lon="11.4935433"><ele>507.33333333333337</ele><time>2026-04-18T14:10:38.769Z</time></trkpt><trkpt lat="43.0540683" lon="11.493405"><ele>506.66666666666663</ele><time>2026-04-18T14:10:39.768Z</time></trkpt><trkpt lat="43.0541967" lon="11.4932583"><ele>506.0</ele><time>2026-04-18T14:10:40.77Z</time></trkpt><trkpt lat="43.054305" lon="11.4930883"><ele>512.0</ele><time>2026-04-18T14:10:41.772Z</time></trkpt><trkpt lat="43.0543917" lon="11.492895"><ele>518.0</ele><time>2026-04-18T14:10:42.771Z</time></trkpt><trkpt lat="43.0544433" lon="11.4926817"><ele>524.0</ele><time>2026-04-18T14:10:43.771Z</time></trkpt><trkpt lat="43.0544683" lon="11.492455"><ele>524.0</ele><time>2026-04-18T14:10:44.771Z</time></trkpt><trkpt lat="43.054465" lon="11.4922133"><ele>524.0</ele><time>2026-04-18T14:10:45.771Z</time></trkpt><trkpt lat="43.0544433" lon="11.4919717"><ele>524.0</ele><time>2026-04-18T14:10:46.772Z</time></trkpt><trkpt lat="43.0544167" lon="11.4917433"><ele>527.0</ele><time>2026-04-18T14:10:47.766Z</time></trkpt><trkpt lat="43.054385" lon="11.4915367"><ele>530.0</ele><time>2026-04-18T14:10:48.767Z</time></trkpt><trkpt lat="43.0543667" lon="11.4913567"><ele>533.0</ele><time>2026-04-18T14:10:49.77Z</time></trkpt><trkpt lat="43.0543717" lon="11.491195"><ele>536.0</ele><time>2026-04-18T14:10:50.771Z</time></trkpt><trkpt lat="43.0544117" lon="11.4910617"><ele>536.4</ele><time>2026-04-18T14:10:51.769Z</time></trkpt><trkpt lat="43.05447" lon="11.4909633"><ele>536.8</ele><time>2026-04-18T14:10:52.768Z</time></trkpt><trkpt lat="43.0545483" lon="11.4909033"><ele>537.1999999999999</ele><time>2026-04-18T14:10:53.764Z</time></trkpt><trkpt lat="43.05464" lon="11.4908833"><ele>537.6</ele><time>2026-04-18T14:10:54.772Z</time></trkpt><trkpt lat="43.05475" lon="11.490945"><ele>538.0</ele><time>2026-04-18T14:10:55.772Z</time></trkpt><trkpt lat="43.054865" lon="11.4911333"><ele>532.75</ele><time>2026-04-18T14:10:56.768Z</time></trkpt><trkpt lat="43.05496" lon="11.4912917"><ele>527.5</ele><time>2026-04-18T14:10:57.771Z</time></trkpt><trkpt lat="43.0550517" lon="11.4914533"><ele>522.25</ele><time>2026-04-18T14:10:58.768Z</time></trkpt><trkpt lat="43.0551533" lon="11.4916033"><ele>517.0</ele><time>2026-04-18T14:10:59.771Z</time></trkpt><trkpt lat="43.0552367" lon="11.4917317"><ele>517.0</ele><time>2026-04-18T14:11:00.771Z</time></trkpt><trkpt lat="43.0553067" lon="11.491845"><ele>517.0</ele><time>2026-04-18T14:11:01.769Z</time></trkpt><trkpt lat="43.05537" lon="11.491925"><ele>517.0</ele><time>2026-04-18T14:11:02.772Z</time></trkpt><trkpt lat="43.0554317" lon="11.4919683"><ele>517.0</ele><time>2026-04-18T14:11:03.769Z</time></trkpt><trkpt lat="43.055525" lon="11.491945"><ele>517.0</ele><time>2026-04-18T14:11:05.774Z</time></trkpt><trkpt lat="43.05552" lon="11.491835"><ele>517.0</ele><time>2026-04-18T14:11:07.769Z</time></trkpt><trkpt lat="43.0553967" lon="11.49166"><ele>517.0</ele><time>2026-04-18T14:11:08.772Z</time></trkpt><trkpt lat="43.0553167" lon="11.491515"><ele>517.0</ele><time>2026-04-18T14:11:09.768Z</time></trkpt><trkpt lat="43.0552517" lon="11.4913567"><ele>517.0</ele><time>2026-04-18T14:11:10.768Z</time></trkpt><trkpt lat="43.0551833" lon="11.491205"><ele>517.0</ele><time>2026-04-18T14:11:11.771Z</time></trkpt><trkpt lat="43.0551133" lon="11.4910517"><ele>522.0</ele><time>2026-04-18T14:11:12.769Z</time></trkpt><trkpt lat="43.055035" lon="11.4908967"><ele>527.0</ele><time>2026-04-18T14:11:13.771Z</time></trkpt><trkpt lat="43.05494" lon="11.4907467"><ele>532.0</ele><time>2026-04-18T14:11:14.772Z</time></trkpt><trkpt lat="43.054845" lon="11.4906017"><ele>537.0</ele><time>2026-04-18T14:11:15.768Z</time></trkpt><trkpt lat="43.054745" lon="11.4904817"><ele>539.25</ele><time>2026-04-18T14:11:16.769Z</time></trkpt><trkpt lat="43.054645" lon="11.4903733"><ele>541.5</ele><time>2026-04-18T14:11:17.764Z</time></trkpt><trkpt lat="43.0545433" lon="11.4902717"><ele>543.75</ele><time>2026-04-18T14:11:18.768Z</time></trkpt><trkpt lat="43.05443" lon="11.49018"><ele>546.0</ele><time>2026-04-18T14:11:19.764Z</time></trkpt><trkpt lat="43.054325" lon="11.490095"><ele>546.0</ele><time>2026-04-18T14:11:20.769Z</time></trkpt><trkpt lat="43.0542433" lon="11.4899983"><ele>546.0</ele><time>2026-04-18T14:11:21.768Z</time></trkpt><trkpt lat="43.05418" lon="11.4898867"><ele>546.0</ele><time>2026-04-18T14:11:22.764Z</time></trkpt><trkpt lat="43.05415" lon="11.4897517"><ele>546.0</ele><time>2026-04-18T14:11:23.768Z</time></trkpt><trkpt lat="43.054145" lon="11.4896133"><ele>546.0</ele><time>2026-04-18T14:11:24.772Z</time></trkpt><trkpt lat="43.0541867" lon="11.48948"><ele>547.8</ele><time>2026-04-18T14:11:25.769Z</time></trkpt><trkpt lat="43.05425" lon="11.4893717"><ele>549.6</ele><time>2026-04-18T14:11:26.768Z</time></trkpt><trkpt lat="43.0543283" lon="11.4892783"><ele>551.4</ele><time>2026-04-18T14:11:27.768Z</time></trkpt><trkpt lat="43.0544367" lon="11.4892283"><ele>553.2</ele><time>2026-04-18T14:11:28.765Z</time></trkpt><trkpt lat="43.0545467" lon="11.4892083"><ele>555.0</ele><time>2026-04-18T14:11:29.768Z</time></trkpt><trkpt lat="43.0546533" lon="11.4892067"><ele>555.0</ele><time>2026-04-18T14:11:30.77Z</time></trkpt><trkpt lat="43.05474" lon="11.4891967"><ele>555.0</ele><time>2026-04-18T14:11:31.767Z</time></trkpt><trkpt lat="43.0548133" lon="11.4892"><ele>555.0</ele><time>2026-04-18T14:11:32.769Z</time></trkpt><trkpt lat="43.05492" lon="11.489215"><ele>555.0</ele><time>2026-04-18T14:11:34.771Z</time></trkpt><trkpt lat="43.0549833" lon="11.4892317"><ele>555.0</ele><time>2026-04-18T14:11:37.767Z</time></trkpt><trkpt lat="43.055055" lon="11.489235"><ele>555.0</ele><time>2026-04-18T14:11:40.764Z</time></trkpt><trkpt lat="43.0551333" lon="11.4892217"><ele>554.6</ele><time>2026-04-18T14:11:42.767Z</time></trkpt><trkpt lat="43.0552167" lon="11.4891233"><ele>554.2</ele><time>2026-04-18T14:11:44.773Z</time></trkpt><trkpt lat="43.0552167" lon="11.4889967"><ele>553.8</ele><time>2026-04-18T14:11:46.767Z</time></trkpt><trkpt lat="43.0551383" lon="11.4889717"><ele>553.4</ele><time>2026-04-18T14:11:49.767Z</time></trkpt><trkpt lat="43.055075" lon="11.4890317"><ele>553.0</ele><time>2026-04-18T14:11:52.767Z</time></trkpt><trkpt lat="43.0549883" lon="11.4890917"><ele>553.3333333333334</ele><time>2026-04-18T14:11:54.769Z</time></trkpt><trkpt lat="43.05492" lon="11.48911"><ele>553.6666666666667</ele><time>2026-04-18T14:11:55.764Z</time></trkpt><trkpt lat="43.0548367" lon="11.489115"><ele>554.0</ele><time>2026-04-18T14:11:56.773Z</time></trkpt><trkpt lat="43.0547483" lon="11.4891233"><ele>554.3333333333334</ele><time>2026-04-18T14:11:57.766Z</time></trkpt><trkpt lat="43.0546633" lon="11.4891317"><ele>554.6666666666666</ele><time>2026-04-18T14:11:58.768Z</time></trkpt><trkpt lat="43.0545867" lon="11.4891367"><ele>555.0</ele><time>2026-04-18T14:11:59.77Z</time></trkpt><trkpt lat="43.0545117" lon="11.489135"><ele>555.0</ele><time>2026-04-18T14:12:00.767Z</time></trkpt><trkpt lat="43.0544333" lon="11.4891333"><ele>555.0</ele><time>2026-04-18T14:12:01.77Z</time></trkpt><trkpt lat="43.0543567" lon="11.4891383"><ele>555.0</ele><time>2026-04-18T14:12:02.77Z</time></trkpt><trkpt lat="43.0542717" lon="11.4891467"><ele>555.0</ele><time>2026-04-18T14:12:03.77Z</time></trkpt><trkpt lat="43.0541833" lon="11.489155"><ele>555.0</ele><time>2026-04-18T14:12:04.768Z</time></trkpt><trkpt lat="43.0540833" lon="11.4891767"><ele>555.0</ele><time>2026-04-18T14:12:05.766Z</time></trkpt><trkpt lat="43.053985" lon="11.4892267"><ele>557.5</ele><time>2026-04-18T14:12:06.771Z</time></trkpt><trkpt lat="43.0538967" lon="11.489315"><ele>560.0</ele><time>2026-04-18T14:12:07.77Z</time></trkpt><trkpt lat="43.0538267" lon="11.489435"><ele>562.5</ele><time>2026-04-18T14:12:08.765Z</time></trkpt><trkpt lat="43.053775" lon="11.4895867"><ele>565.0</ele><time>2026-04-18T14:12:09.77Z</time></trkpt><trkpt lat="43.0537483" lon="11.48976"><ele>565.0</ele><time>2026-04-18T14:12:10.769Z</time></trkpt><trkpt lat="43.0537417" lon="11.4899467"><ele>565.0</ele><time>2026-04-18T14:12:11.767Z</time></trkpt><trkpt lat="43.0537417" lon="11.49013"><ele>565.0</ele><time>2026-04-18T14:12:12.771Z</time></trkpt><trkpt lat="43.0537383" lon="11.490295"><ele>565.0</ele><time>2026-04-18T14:12:13.764Z</time></trkpt><trkpt lat="43.0537383" lon="11.4904583"><ele>564.5</ele><time>2026-04-18T14:12:14.772Z</time></trkpt><trkpt lat="43.0537367" lon="11.4906233"><ele>564.0</ele><time>2026-04-18T14:12:15.77Z</time></trkpt><trkpt lat="43.0537333" lon="11.4907783"><ele>563.5</ele><time>2026-04-18T14:12:16.769Z</time></trkpt><trkpt lat="43.0537283" lon="11.49094"><ele>563.0</ele><time>2026-04-18T14:12:17.768Z</time></trkpt><trkpt lat="43.0537283" lon="11.4911067"><ele>560.4</ele><time>2026-04-18T14:12:18.771Z</time></trkpt><trkpt lat="43.0537267" lon="11.49127"><ele>557.8</ele><time>2026-04-18T14:12:19.767Z</time></trkpt><trkpt lat="43.0537233" lon="11.4914283"><ele>555.2</ele><time>2026-04-18T14:12:20.771Z</time></trkpt><trkpt lat="43.0537133" lon="11.491565"><ele>552.6</ele><time>2026-04-18T14:12:21.768Z</time></trkpt><trkpt lat="43.053705" lon="11.491695"><ele>550.0</ele><time>2026-04-18T14:12:22.765Z</time></trkpt><trkpt lat="43.0536767" lon="11.4918117"><ele>550.0</ele><time>2026-04-18T14:12:23.765Z</time></trkpt><trkpt lat="43.05362" lon="11.4919083"><ele>550.0</ele><time>2026-04-18T14:12:24.77Z</time></trkpt><trkpt lat="43.053565" lon="11.49199"><ele>550.0</ele><time>2026-04-18T14:12:25.757Z</time></trkpt><trkpt lat="43.053485" lon="11.4920467"><ele>550.0</ele><time>2026-04-18T14:12:26.759Z</time></trkpt><trkpt lat="43.05338" lon="11.4920267"><ele>550.0</ele><time>2026-04-18T14:12:27.768Z</time></trkpt><trkpt lat="43.05327" lon="11.4919683"><ele>551.4</ele><time>2026-04-18T14:12:28.768Z</time></trkpt><trkpt lat="43.0531683" lon="11.4919133"><ele>552.8</ele><time>2026-04-18T14:12:29.765Z</time></trkpt><trkpt lat="43.0530667" lon="11.4918583"><ele>554.2</ele><time>2026-04-18T14:12:30.764Z</time></trkpt><trkpt lat="43.0529633" lon="11.4918033"><ele>555.6</ele><time>2026-04-18T14:12:31.768Z</time></trkpt><trkpt lat="43.0528633" lon="11.4917567"><ele>557.0</ele><time>2026-04-18T14:12:32.771Z</time></trkpt><trkpt lat="43.05276" lon="11.4917367"><ele>557.0</ele><time>2026-04-18T14:12:33.764Z</time></trkpt><trkpt lat="43.0526633" lon="11.4917483"><ele>557.0</ele><time>2026-04-18T14:12:34.768Z</time></trkpt><trkpt lat="43.05257" lon="11.4918033"><ele>557.0</ele><time>2026-04-18T14:12:35.768Z</time></trkpt><trkpt lat="43.052495" lon="11.4918817"><ele>557.0</ele><time>2026-04-18T14:12:36.767Z</time></trkpt><trkpt lat="43.0524283" lon="11.4919617"><ele>557.0</ele><time>2026-04-18T14:12:37.768Z</time></trkpt><trkpt lat="43.0523783" lon="11.4920633"><ele>555.1666666666666</ele><time>2026-04-18T14:12:38.772Z</time></trkpt><trkpt lat="43.0523417" lon="11.49218"><ele>553.3333333333333</ele><time>2026-04-18T14:12:39.769Z</time></trkpt><trkpt lat="43.0523033" lon="11.49229"><ele>551.5</ele><time>2026-04-18T14:12:40.768Z</time></trkpt><trkpt lat="43.052255" lon="11.4923883"><ele>549.6666666666666</ele><time>2026-04-18T14:12:41.772Z</time></trkpt><trkpt lat="43.0522017" lon="11.4924717"><ele>547.8333333333334</ele><time>2026-04-18T14:12:42.765Z</time></trkpt><trkpt lat="43.0521333" lon="11.4924983"><ele>546.0</ele><time>2026-04-18T14:12:43.768Z</time></trkpt><trkpt lat="43.0520533" lon="11.492485"><ele>546.0</ele><time>2026-04-18T14:12:44.77Z</time></trkpt><trkpt lat="43.051975" lon="11.4924083"><ele>546.0</ele><time>2026-04-18T14:12:45.771Z</time></trkpt><trkpt lat="43.0519067" lon="11.4923167"><ele>546.0</ele><time>2026-04-18T14:12:46.769Z</time></trkpt><trkpt lat="43.0518467" lon="11.4922167"><ele>546.0</ele><time>2026-04-18T14:12:47.765Z</time></trkpt><trkpt lat="43.051795" lon="11.4921083"><ele>546.0</ele><time>2026-04-18T14:12:48.769Z</time></trkpt><trkpt lat="43.0517417" lon="11.4920033"><ele>547.8333333333334</ele><time>2026-04-18T14:12:49.77Z</time></trkpt><trkpt lat="43.0517" lon="11.49189"><ele>549.6666666666666</ele><time>2026-04-18T14:12:50.77Z</time></trkpt><trkpt lat="43.051655" lon="11.4917917"><ele>551.5</ele><time>2026-04-18T14:12:51.768Z</time></trkpt><trkpt lat="43.0516083" lon="11.4917183"><ele>553.3333333333333</ele><time>2026-04-18T14:12:52.765Z</time></trkpt><trkpt lat="43.0515433" lon="11.4916583"><ele>555.1666666666666</ele><time>2026-04-18T14:12:53.764Z</time></trkpt><trkpt lat="43.0514733" lon="11.491625"><ele>557.0</ele><time>2026-04-18T14:12:54.773Z</time></trkpt><trkpt lat="43.0513967" lon="11.4916233"><ele>559.75</ele><time>2026-04-18T14:12:55.769Z</time></trkpt><trkpt lat="43.0513233" lon="11.4916633"><ele>562.5</ele><time>2026-04-18T14:12:56.77Z</time></trkpt><trkpt lat="43.05127" lon="11.491755"><ele>565.25</ele><time>2026-04-18T14:12:57.772Z</time></trkpt><trkpt lat="43.0512367" lon="11.49191"><ele>568.0</ele><time>2026-04-18T14:12:58.768Z</time></trkpt><trkpt lat="43.0512483" lon="11.492145"><ele>568.0</ele><time>2026-04-18T14:12:59.771Z</time></trkpt><trkpt lat="43.0512583" lon="11.49246"><ele>568.0</ele><time>2026-04-18T14:13:00.77Z</time></trkpt><trkpt lat="43.0512783" lon="11.4928183"><ele>565.0</ele><time>2026-04-18T14:13:01.768Z</time></trkpt><trkpt lat="43.0512867" lon="11.493155"><ele>562.0</ele><time>2026-04-18T14:13:02.77Z</time></trkpt><trkpt lat="43.0512717" lon="11.49348"><ele>560.0</ele><time>2026-04-18T14:13:03.77Z</time></trkpt><trkpt lat="43.0512283" lon="11.4938267"><ele>558.0</ele><time>2026-04-18T14:13:04.762Z</time></trkpt><trkpt lat="43.0511583" lon="11.4941667"><ele>558.0</ele><time>2026-04-18T14:13:05.768Z</time></trkpt><trkpt lat="43.0510917" lon="11.4945167"><ele>558.0</ele><time>2026-04-18T14:13:06.77Z</time></trkpt><trkpt lat="43.0510417" lon="11.494875"><ele>552.5</ele><time>2026-04-18T14:13:07.766Z</time></trkpt><trkpt lat="43.0510167" lon="11.4952267"><ele>547.0</ele><time>2026-04-18T14:13:08.772Z</time></trkpt><trkpt lat="43.0510033" lon="11.495555"><ele>545.3333333333334</ele><time>2026-04-18T14:13:09.765Z</time></trkpt><trkpt lat="43.0509717" lon="11.4958583"><ele>543.6666666666666</ele><time>2026-04-18T14:13:10.769Z</time></trkpt><trkpt lat="43.05091" lon="11.4961533"><ele>542.0</ele><time>2026-04-18T14:13:11.769Z</time></trkpt><trkpt lat="43.05083" lon="11.4964233"><ele>539.6666666666666</ele><time>2026-04-18T14:13:12.77Z</time></trkpt><trkpt lat="43.0507417" lon="11.4966567"><ele>537.3333333333334</ele><time>2026-04-18T14:13:13.769Z</time></trkpt><trkpt lat="43.0506367" lon="11.4968483"><ele>535.0</ele><time>2026-04-18T14:13:14.77Z</time></trkpt><trkpt lat="43.0505183" lon="11.49698"><ele>535.0</ele><time>2026-04-18T14:13:15.768Z</time></trkpt><trkpt lat="43.050385" lon="11.497075"><ele>535.0</ele><time>2026-04-18T14:13:16.768Z</time></trkpt><trkpt lat="43.050235" lon="11.497125"><ele>535.0</ele><time>2026-04-18T14:13:17.769Z</time></trkpt><trkpt lat="43.0500733" lon="11.4971"><ele>527.5</ele><time>2026-04-18T14:13:18.772Z</time></trkpt><trkpt lat="43.0498917" lon="11.4969817"><ele>520.0</ele><time>2026-04-18T14:13:19.77Z</time></trkpt><trkpt lat="43.0496883" lon="11.4967633"><ele>520.0</ele><time>2026-04-18T14:13:20.772Z</time></trkpt><trkpt lat="43.04947" lon="11.496575"><ele>520.0</ele><time>2026-04-18T14:13:21.766Z</time></trkpt><trkpt lat="43.0492667" lon="11.4964"><ele>518.0</ele><time>2026-04-18T14:13:22.768Z</time></trkpt><trkpt lat="43.0490883" lon="11.4962467"><ele>516.0</ele><time>2026-04-18T14:13:23.768Z</time></trkpt><trkpt lat="43.0489417" lon="11.49609"><ele>514.0</ele><time>2026-04-18T14:13:24.771Z</time></trkpt><trkpt lat="43.048825" lon="11.4959033"><ele>514.0</ele><time>2026-04-18T14:13:25.766Z</time></trkpt><trkpt lat="43.0487317" lon="11.4956717"><ele>514.0</ele><time>2026-04-18T14:13:26.773Z</time></trkpt><trkpt lat="43.0486267" lon="11.4954417"><ele>514.0</ele><time>2026-04-18T14:13:27.771Z</time></trkpt><trkpt lat="43.0485" lon="11.4952517"><ele>515.6666666666667</ele><time>2026-04-18T14:13:28.762Z</time></trkpt><trkpt lat="43.0483833" lon="11.4950817"><ele>517.3333333333334</ele><time>2026-04-18T14:13:29.768Z</time></trkpt><trkpt lat="43.0483067" lon="11.4948817"><ele>519.0</ele><time>2026-04-18T14:13:30.771Z</time></trkpt><trkpt lat="43.0482633" lon="11.494645"><ele>521.6666666666666</ele><time>2026-04-18T14:13:31.76Z</time></trkpt><trkpt lat="43.0482583" lon="11.4943833"><ele>524.3333333333333</ele><time>2026-04-18T14:13:32.767Z</time></trkpt><trkpt lat="43.0483033" lon="11.4941433"><ele>527.0</ele><time>2026-04-18T14:13:33.77Z</time></trkpt><trkpt lat="43.0483617" lon="11.4939383"><ele>528.0</ele><time>2026-04-18T14:13:34.77Z</time></trkpt><trkpt lat="43.0483767" lon="11.4937533"><ele>529.0</ele><time>2026-04-18T14:13:35.768Z</time></trkpt><trkpt lat="43.0483433" lon="11.493605"><ele>530.0</ele><time>2026-04-18T14:13:36.766Z</time></trkpt><trkpt lat="43.0482667" lon="11.49351"><ele>531.0</ele><time>2026-04-18T14:13:37.769Z</time></trkpt><trkpt lat="43.04816" lon="11.4934933"><ele>531.0</ele><time>2026-04-18T14:13:38.773Z</time></trkpt><trkpt lat="43.0480267" lon="11.4935633"><ele>531.0</ele><time>2026-04-18T14:13:39.768Z</time></trkpt><trkpt lat="43.047905" lon="11.493705"><ele>531.0</ele><time>2026-04-18T14:13:40.769Z</time></trkpt><trkpt lat="43.0478" lon="11.4939"><ele>531.0</ele><time>2026-04-18T14:13:41.77Z</time></trkpt><trkpt lat="43.047715" lon="11.4941633"><ele>531.0</ele><time>2026-04-18T14:13:42.767Z</time></trkpt><trkpt lat="43.0476217" lon="11.49447"><ele>527.5</ele><time>2026-04-18T14:13:43.768Z</time></trkpt><trkpt lat="43.047515" lon="11.4947833"><ele>524.0</ele><time>2026-04-18T14:13:44.77Z</time></trkpt><trkpt lat="43.04741" lon="11.495085"><ele>524.0</ele><time>2026-04-18T14:13:45.77Z</time></trkpt><trkpt lat="43.0473167" lon="11.4953633"><ele>524.0</ele><time>2026-04-18T14:13:46.768Z</time></trkpt><trkpt lat="43.047215" lon="11.4956033"><ele>524.0</ele><time>2026-04-18T14:13:47.767Z</time></trkpt><trkpt lat="43.0470967" lon="11.4958033"><ele>521.0</ele><time>2026-04-18T14:13:48.769Z</time></trkpt><trkpt lat="43.0469433" lon="11.4959583"><ele>518.0</ele><time>2026-04-18T14:13:49.765Z</time></trkpt><trkpt lat="43.04675" lon="11.496045"><ele>515.0</ele><time>2026-04-18T14:13:50.772Z</time></trkpt><trkpt lat="43.0465233" lon="11.4960883"><ele>513.0</ele><time>2026-04-18T14:13:51.769Z</time></trkpt><trkpt lat="43.0462817" lon="11.496125"><ele>511.0</ele><time>2026-04-18T14:13:52.769Z</time></trkpt><trkpt lat="43.0460233" lon="11.4961567"><ele>509.0</ele><time>2026-04-18T14:13:53.771Z</time></trkpt><trkpt lat="43.045755" lon="11.4961883"><ele>507.0</ele><time>2026-04-18T14:13:54.767Z</time></trkpt><trkpt lat="43.0454833" lon="11.4962217"><ele>502.5</ele><time>2026-04-18T14:13:55.769Z</time></trkpt><trkpt lat="43.0452017" lon="11.496255"><ele>498.0</ele><time>2026-04-18T14:13:56.767Z</time></trkpt><trkpt lat="43.0449183" lon="11.4962917"><ele>497.5</ele><time>2026-04-18T14:13:57.766Z</time></trkpt><trkpt lat="43.0446383" lon="11.4963283"><ele>497.0</ele><time>2026-04-18T14:13:58.765Z</time></trkpt><trkpt lat="43.0443583" lon="11.4963667"><ele>499.0</ele><time>2026-04-18T14:13:59.769Z</time></trkpt><trkpt lat="43.0440867" lon="11.496405"><ele>501.0</ele><time>2026-04-18T14:14:00.77Z</time></trkpt><trkpt lat="43.0438217" lon="11.4964383"><ele>501.0</ele><time>2026-04-18T14:14:01.767Z</time></trkpt><trkpt lat="43.0435633" lon="11.4964817"><ele>501.0</ele><time>2026-04-18T14:14:02.772Z</time></trkpt><trkpt lat="43.0433067" lon="11.4965383"><ele>499.0</ele><time>2026-04-18T14:14:03.767Z</time></trkpt><trkpt lat="43.04305" lon="11.49662"><ele>497.0</ele><time>2026-04-18T14:14:04.764Z</time></trkpt><trkpt lat="43.0427933" lon="11.4967283"><ele>497.0</ele><time>2026-04-18T14:14:05.77Z</time></trkpt><trkpt lat="43.0425417" lon="11.496855"><ele>497.0</ele><time>2026-04-18T14:14:06.765Z</time></trkpt><trkpt lat="43.042305" lon="11.4970083"><ele>493.0</ele><time>2026-04-18T14:14:07.769Z</time></trkpt><trkpt lat="43.0420917" lon="11.4971917"><ele>489.0</ele><time>2026-04-18T14:14:08.768Z</time></trkpt><trkpt lat="43.041905" lon="11.49742"><ele>489.0</ele><time>2026-04-18T14:14:09.768Z</time></trkpt><trkpt lat="43.041735" lon="11.4976783"><ele>489.0</ele><time>2026-04-18T14:14:10.768Z</time></trkpt><trkpt lat="43.04158" lon="11.4979483"><ele>486.5</ele><time>2026-04-18T14:14:11.77Z</time></trkpt><trkpt lat="43.0414317" lon="11.49823"><ele>484.0</ele><time>2026-04-18T14:14:12.77Z</time></trkpt><trkpt lat="43.041285" lon="11.49851"><ele>484.0</ele><time>2026-04-18T14:14:13.769Z</time></trkpt><trkpt lat="43.0411317" lon="11.49879"><ele>484.0</ele><time>2026-04-18T14:14:14.769Z</time></trkpt><trkpt lat="43.04098" lon="11.4990733"><ele>484.0</ele><time>2026-04-18T14:14:15.77Z</time></trkpt><trkpt lat="43.0408283" lon="11.4993567"><ele>484.0</ele><time>2026-04-18T14:14:16.769Z</time></trkpt><trkpt lat="43.0406733" lon="11.49964"><ele>481.5</ele><time>2026-04-18T14:14:17.77Z</time></trkpt><trkpt lat="43.04052" lon="11.4999233"><ele>479.0</ele><time>2026-04-18T14:14:18.77Z</time></trkpt><trkpt lat="43.04037" lon="11.5002067"><ele>480.0</ele><time>2026-04-18T14:14:19.768Z</time></trkpt><trkpt lat="43.0402183" lon="11.5004883"><ele>481.0</ele><time>2026-04-18T14:14:20.773Z</time></trkpt><trkpt lat="43.0400667" lon="11.50077"><ele>480.5</ele><time>2026-04-18T14:14:21.766Z</time></trkpt><trkpt lat="43.0399183" lon="11.5010533"><ele>480.0</ele><time>2026-04-18T14:14:22.769Z</time></trkpt><trkpt lat="43.0397667" lon="11.50133"><ele>480.0</ele><time>2026-04-18T14:14:23.77Z</time></trkpt><trkpt lat="43.0396133" lon="11.5016017"><ele>480.0</ele><time>2026-04-18T14:14:24.77Z</time></trkpt><trkpt lat="43.0394633" lon="11.5018683"><ele>480.5</ele><time>2026-04-18T14:14:25.768Z</time></trkpt><trkpt lat="43.03931" lon="11.502125"><ele>481.0</ele><time>2026-04-18T14:14:26.769Z</time></trkpt><trkpt lat="43.0391433" lon="11.5023567"><ele>479.5</ele><time>2026-04-18T14:14:27.769Z</time></trkpt><trkpt lat="43.038945" lon="11.5025517"><ele>478.0</ele><time>2026-04-18T14:14:28.769Z</time></trkpt><trkpt lat="43.03873" lon="11.5027267"><ele>478.0</ele><time>2026-04-18T14:14:29.766Z</time></trkpt><trkpt lat="43.038505" lon="11.5028933"><ele>478.0</ele><time>2026-04-18T14:14:30.765Z</time></trkpt><trkpt lat="43.0382783" lon="11.5030667"><ele>475.5</ele><time>2026-04-18T14:14:31.77Z</time></trkpt><trkpt lat="43.038045" lon="11.5032433"><ele>473.0</ele><time>2026-04-18T14:14:32.771Z</time></trkpt><trkpt lat="43.037815" lon="11.503415"><ele>473.0</ele><time>2026-04-18T14:14:33.768Z</time></trkpt><trkpt lat="43.0375967" lon="11.50358"><ele>473.0</ele><time>2026-04-18T14:14:34.77Z</time></trkpt><trkpt lat="43.0373967" lon="11.5037267"><ele>475.3333333333333</ele><time>2026-04-18T14:14:35.769Z</time></trkpt><trkpt lat="43.0372083" lon="11.5038483"><ele>477.66666666666663</ele><time>2026-04-18T14:14:36.764Z</time></trkpt><trkpt lat="43.0370233" lon="11.5039333"><ele>480.0</ele><time>2026-04-18T14:14:37.77Z</time></trkpt><trkpt lat="43.0368367" lon="11.5039583"><ele>480.0</ele><time>2026-04-18T14:14:38.77Z</time></trkpt><trkpt lat="43.0366383" lon="11.5039317"><ele>480.0</ele><time>2026-04-18T14:14:39.77Z</time></trkpt><trkpt lat="43.0364467" lon="11.5038683"><ele>480.0</ele><time>2026-04-18T14:14:40.763Z</time></trkpt><trkpt lat="43.0362583" lon="11.5038083"><ele>478.66666666666663</ele><time>2026-04-18T14:14:41.768Z</time></trkpt><trkpt lat="43.0360817" lon="11.5037517"><ele>477.3333333333333</ele><time>2026-04-18T14:14:42.77Z</time></trkpt><trkpt lat="43.0359167" lon="11.5037183"><ele>476.0</ele><time>2026-04-18T14:14:43.769Z</time></trkpt><trkpt lat="43.035745" lon="11.5037467"><ele>472.3333333333333</ele><time>2026-04-18T14:14:44.772Z</time></trkpt><trkpt lat="43.0355817" lon="11.50384"><ele>468.66666666666663</ele><time>2026-04-18T14:14:45.769Z</time></trkpt><trkpt lat="43.035425" lon="11.5039967"><ele>465.0</ele><time>2026-04-18T14:14:46.768Z</time></trkpt><trkpt lat="43.0352667" lon="11.50418"><ele>465.0</ele><time>2026-04-18T14:14:47.77Z</time></trkpt><trkpt lat="43.035095" lon="11.5043633"><ele>465.0</ele><time>2026-04-18T14:14:48.771Z</time></trkpt><trkpt lat="43.034915" lon="11.5045467"><ele>465.0</ele><time>2026-04-18T14:14:49.77Z</time></trkpt><trkpt lat="43.0347333" lon="11.50473"><ele>464.66666666666663</ele><time>2026-04-18T14:14:50.77Z</time></trkpt><trkpt lat="43.0345517" lon="11.5049167"><ele>464.3333333333333</ele><time>2026-04-18T14:14:51.763Z</time></trkpt><trkpt lat="43.034375" lon="11.5050917"><ele>464.0</ele><time>2026-04-18T14:14:52.771Z</time></trkpt><trkpt lat="43.0342083" lon="11.5052633"><ele>461.66666666666663</ele><time>2026-04-18T14:14:53.769Z</time></trkpt><trkpt lat="43.0340617" lon="11.50546"><ele>459.33333333333337</ele><time>2026-04-18T14:14:54.769Z</time></trkpt><trkpt lat="43.03392" lon="11.5056767"><ele>457.0</ele><time>2026-04-18T14:14:55.77Z</time></trkpt><trkpt lat="43.033775" lon="11.50591"><ele>457.0</ele><time>2026-04-18T14:14:56.77Z</time></trkpt><trkpt lat="43.0336267" lon="11.5061533"><ele>457.0</ele><time>2026-04-18T14:14:57.769Z</time></trkpt><trkpt lat="43.033465" lon="11.506405"><ele>452.0</ele><time>2026-04-18T14:14:58.769Z</time></trkpt><trkpt lat="43.033305" lon="11.5066567"><ele>447.0</ele><time>2026-04-18T14:14:59.764Z</time></trkpt><trkpt lat="43.0331483" lon="11.5069067"><ele>450.0</ele><time>2026-04-18T14:15:00.77Z</time></trkpt><trkpt lat="43.033005" lon="11.507135"><ele>453.0</ele><time>2026-04-18T14:15:01.77Z</time></trkpt><trkpt lat="43.03288" lon="11.50732"><ele>456.0</ele><time>2026-04-18T14:15:02.771Z</time></trkpt><trkpt lat="43.0327567" lon="11.5074767"><ele>456.0</ele><time>2026-04-18T14:15:03.77Z</time></trkpt><trkpt lat="43.032605" lon="11.5075967"><ele>456.0</ele><time>2026-04-18T14:15:04.77Z</time></trkpt><trkpt lat="43.0324367" lon="11.507675"><ele>456.0</ele><time>2026-04-18T14:15:05.769Z</time></trkpt><trkpt lat="43.0322433" lon="11.5077"><ele>454.0</ele><time>2026-04-18T14:15:06.764Z</time></trkpt><trkpt lat="43.0320233" lon="11.50767"><ele>452.0</ele><time>2026-04-18T14:15:07.769Z</time></trkpt><trkpt lat="43.0317933" lon="11.507635"><ele>450.0</ele><time>2026-04-18T14:15:08.771Z</time></trkpt><trkpt lat="43.0315467" lon="11.5075867"><ele>448.0</ele><time>2026-04-18T14:15:09.764Z</time></trkpt><trkpt lat="43.0313117" lon="11.50755"><ele>448.0</ele><time>2026-04-18T14:15:10.768Z</time></trkpt><trkpt lat="43.0311" lon="11.5075117"><ele>448.0</ele><time>2026-04-18T14:15:11.767Z</time></trkpt><trkpt lat="43.0308983" lon="11.5074983"><ele>448.0</ele><time>2026-04-18T14:15:12.767Z</time></trkpt><trkpt lat="43.0307083" lon="11.5075183"><ele>445.33333333333337</ele><time>2026-04-18T14:15:13.768Z</time></trkpt><trkpt lat="43.03051" lon="11.5076"><ele>442.66666666666663</ele><time>2026-04-18T14:15:14.769Z</time></trkpt><trkpt lat="43.0303017" lon="11.50773"><ele>440.0</ele><time>2026-04-18T14:15:15.768Z</time></trkpt><trkpt lat="43.0300883" lon="11.5078967"><ele>439.0</ele><time>2026-04-18T14:15:16.767Z</time></trkpt><trkpt lat="43.02986" lon="11.5080867"><ele>438.0</ele><time>2026-04-18T14:15:17.768Z</time></trkpt><trkpt lat="43.02962" lon="11.5082733"><ele>438.0</ele><time>2026-04-18T14:15:18.763Z</time></trkpt><trkpt lat="43.029375" lon="11.5084667"><ele>438.0</ele><time>2026-04-18T14:15:19.768Z</time></trkpt><trkpt lat="43.0291233" lon="11.5086633"><ele>438.0</ele><time>2026-04-18T14:15:20.77Z</time></trkpt><trkpt lat="43.02887" lon="11.5088567"><ele>438.0</ele><time>2026-04-18T14:15:21.769Z</time></trkpt><trkpt lat="43.028625" lon="11.50904"><ele>438.0</ele><time>2026-04-18T14:15:22.769Z</time></trkpt><trkpt lat="43.0283983" lon="11.5092233"><ele>438.0</ele><time>2026-04-18T14:15:23.766Z</time></trkpt><trkpt lat="43.0281983" lon="11.50942"><ele>434.0</ele><time>2026-04-18T14:15:24.767Z</time></trkpt><trkpt lat="43.028025" lon="11.5096483"><ele>430.0</ele><time>2026-04-18T14:15:25.769Z</time></trkpt><trkpt lat="43.027855" lon="11.5098933"><ele>430.0</ele><time>2026-04-18T14:15:26.771Z</time></trkpt><trkpt lat="43.0276767" lon="11.51013"><ele>430.0</ele><time>2026-04-18T14:15:27.77Z</time></trkpt><trkpt lat="43.02749" lon="11.5103433"><ele>427.0</ele><time>2026-04-18T14:15:28.767Z</time></trkpt><trkpt lat="43.0273033" lon="11.51053"><ele>424.0</ele><time>2026-04-18T14:15:29.771Z</time></trkpt><trkpt lat="43.0271367" lon="11.5107167"><ele>421.0</ele><time>2026-04-18T14:15:30.764Z</time></trkpt><trkpt lat="43.02701" lon="11.510915"><ele>421.0</ele><time>2026-04-18T14:15:31.77Z</time></trkpt><trkpt lat="43.02692" lon="11.5111183"><ele>421.0</ele><time>2026-04-18T14:15:32.772Z</time></trkpt><trkpt lat="43.0268367" lon="11.5112933"><ele>421.0</ele><time>2026-04-18T14:15:33.765Z</time></trkpt><trkpt lat="43.026735" lon="11.511425"><ele>420.0</ele><time>2026-04-18T14:15:34.77Z</time></trkpt><trkpt lat="43.026585" lon="11.5115033"><ele>419.0</ele><time>2026-04-18T14:15:35.769Z</time></trkpt><trkpt lat="43.0263917" lon="11.511545"><ele>418.0</ele><time>2026-04-18T14:15:36.769Z</time></trkpt><trkpt lat="43.026185" lon="11.5115833"><ele>418.0</ele><time>2026-04-18T14:15:37.768Z</time></trkpt><trkpt lat="43.0259917" lon="11.51164"><ele>418.0</ele><time>2026-04-18T14:15:38.771Z</time></trkpt><trkpt lat="43.0258017" lon="11.5117317"><ele>418.0</ele><time>2026-04-18T14:15:39.769Z</time></trkpt><trkpt lat="43.0256333" lon="11.51187"><ele>417.0</ele><time>2026-04-18T14:15:40.767Z</time></trkpt><trkpt lat="43.0254733" lon="11.51204"><ele>416.0</ele><time>2026-04-18T14:15:41.769Z</time></trkpt><trkpt lat="43.0253283" lon="11.5122133"><ele>415.0</ele><time>2026-04-18T14:15:42.772Z</time></trkpt><trkpt lat="43.02519" lon="11.51237"><ele>415.0</ele><time>2026-04-18T14:15:43.769Z</time></trkpt><trkpt lat="43.0250317" lon="11.5125217"><ele>415.0</ele><time>2026-04-18T14:15:44.769Z</time></trkpt><trkpt lat="43.0248517" lon="11.5126733"><ele>415.0</ele><time>2026-04-18T14:15:45.768Z</time></trkpt><trkpt lat="43.0246517" lon="11.512815"><ele>412.5</ele><time>2026-04-18T14:15:46.77Z</time></trkpt><trkpt lat="43.0244317" lon="11.51295"><ele>410.0</ele><time>2026-04-18T14:15:47.77Z</time></trkpt><trkpt lat="43.0242" lon="11.5130867"><ele>404.5</ele><time>2026-04-18T14:15:48.765Z</time></trkpt><trkpt lat="43.023965" lon="11.513235"><ele>399.0</ele><time>2026-04-18T14:15:49.764Z</time></trkpt><trkpt lat="43.023735" lon="11.513385"><ele>399.0</ele><time>2026-04-18T14:15:50.77Z</time></trkpt><trkpt lat="43.0235183" lon="11.5135233"><ele>399.0</ele><time>2026-04-18T14:15:51.765Z</time></trkpt><trkpt lat="43.023315" lon="11.5136533"><ele>397.0</ele><time>2026-04-18T14:15:52.764Z</time></trkpt><trkpt lat="43.02313" lon="11.513785"><ele>395.0</ele><time>2026-04-18T14:15:53.769Z</time></trkpt><trkpt lat="43.0229633" lon="11.5139467"><ele>393.0</ele><time>2026-04-18T14:15:54.766Z</time></trkpt><trkpt lat="43.0228117" lon="11.514165"><ele>393.0</ele><time>2026-04-18T14:15:55.764Z</time></trkpt><trkpt lat="43.0226833" lon="11.5144317"><ele>393.0</ele><time>2026-04-18T14:15:56.769Z</time></trkpt><trkpt lat="43.02257" lon="11.51471"><ele>392.5</ele><time>2026-04-18T14:15:57.765Z</time></trkpt><trkpt lat="43.0224833" lon="11.5149933"><ele>392.0</ele><time>2026-04-18T14:15:58.764Z</time></trkpt><trkpt lat="43.0224317" lon="11.515305"><ele>390.5</ele><time>2026-04-18T14:15:59.77Z</time></trkpt><trkpt lat="43.022415" lon="11.5156383"><ele>389.0</ele><time>2026-04-18T14:16:00.766Z</time></trkpt><trkpt lat="43.0224067" lon="11.5159567"><ele>387.3333333333333</ele><time>2026-04-18T14:16:01.769Z</time></trkpt><trkpt lat="43.0224" lon="11.5162433"><ele>385.66666666666663</ele><time>2026-04-18T14:16:02.772Z</time></trkpt><trkpt lat="43.0223867" lon="11.5165"><ele>384.0</ele><time>2026-04-18T14:16:03.769Z</time></trkpt><trkpt lat="43.0223583" lon="11.5167217"><ele>384.0</ele><time>2026-04-18T14:16:04.767Z</time></trkpt><trkpt lat="43.0222917" lon="11.5169233"><ele>384.0</ele><time>2026-04-18T14:16:05.771Z</time></trkpt><trkpt lat="43.0221683" lon="11.5171033"><ele>384.0</ele><time>2026-04-18T14:16:06.77Z</time></trkpt><trkpt lat="43.02199" lon="11.5172617"><ele>381.6666666666667</ele><time>2026-04-18T14:16:07.77Z</time></trkpt><trkpt lat="43.0217867" lon="11.5173983"><ele>379.33333333333337</ele><time>2026-04-18T14:16:08.771Z</time></trkpt><trkpt lat="43.0216033" lon="11.5175417"><ele>377.0</ele><time>2026-04-18T14:16:09.769Z</time></trkpt><trkpt lat="43.0214367" lon="11.5176967"><ele>380.33333333333337</ele><time>2026-04-18T14:16:10.764Z</time></trkpt><trkpt lat="43.0212967" lon="11.51789"><ele>383.6666666666667</ele><time>2026-04-18T14:16:11.77Z</time></trkpt><trkpt lat="43.0211817" lon="11.518125"><ele>387.0</ele><time>2026-04-18T14:16:12.769Z</time></trkpt><trkpt lat="43.0210667" lon="11.518385"><ele>387.0</ele><time>2026-04-18T14:16:13.768Z</time></trkpt><trkpt lat="43.0209467" lon="11.5186567"><ele>387.0</ele><time>2026-04-18T14:16:14.769Z</time></trkpt><trkpt lat="43.0208167" lon="11.5189533"><ele>392.5</ele><time>2026-04-18T14:16:15.77Z</time></trkpt><trkpt lat="43.020695" lon="11.51925"><ele>398.0</ele><time>2026-04-18T14:16:16.768Z</time></trkpt><trkpt lat="43.0205717" lon="11.5195317"><ele>394.66666666666663</ele><time>2026-04-18T14:16:17.768Z</time></trkpt><trkpt lat="43.0204583" lon="11.5197933"><ele>391.33333333333337</ele><time>2026-04-18T14:16:18.765Z</time></trkpt><trkpt lat="43.0203483" lon="11.5200333"><ele>388.0</ele><time>2026-04-18T14:16:19.769Z</time></trkpt><trkpt lat="43.0202317" lon="11.5202533"><ele>386.33333333333337</ele><time>2026-04-18T14:16:20.766Z</time></trkpt><trkpt lat="43.02008" lon="11.520445"><ele>384.6666666666667</ele><time>2026-04-18T14:16:21.762Z</time></trkpt><trkpt lat="43.0198717" lon="11.5205817"><ele>383.0</ele><time>2026-04-18T14:16:22.763Z</time></trkpt><trkpt lat="43.0196567" lon="11.520705"><ele>383.0</ele><time>2026-04-18T14:16:23.762Z</time></trkpt><trkpt lat="43.01944" lon="11.5208267"><ele>383.0</ele><time>2026-04-18T14:16:24.766Z</time></trkpt><trkpt lat="43.0192167" lon="11.5209617"><ele>383.5</ele><time>2026-04-18T14:16:25.765Z</time></trkpt><trkpt lat="43.0189833" lon="11.5211"><ele>384.0</ele><time>2026-04-18T14:16:26.772Z</time></trkpt><trkpt lat="43.0187667" lon="11.52123"><ele>382.0</ele><time>2026-04-18T14:16:27.763Z</time></trkpt><trkpt lat="43.0185683" lon="11.521345"><ele>380.0</ele><time>2026-04-18T14:16:28.762Z</time></trkpt><trkpt lat="43.0183867" lon="11.521445"><ele>378.0</ele><time>2026-04-18T14:16:29.784Z</time></trkpt><trkpt lat="43.0182167" lon="11.52157"><ele>378.0</ele><time>2026-04-18T14:16:30.77Z</time></trkpt><trkpt lat="43.0180467" lon="11.5217583"><ele>378.0</ele><time>2026-04-18T14:16:31.768Z</time></trkpt><trkpt lat="43.0178683" lon="11.5219717"><ele>372.0</ele><time>2026-04-18T14:16:32.767Z</time></trkpt><trkpt lat="43.0176867" lon="11.52218"><ele>366.0</ele><time>2026-04-18T14:16:33.768Z</time></trkpt><trkpt lat="43.0175067" lon="11.5223633"><ele>368.0</ele><time>2026-04-18T14:16:34.765Z</time></trkpt><trkpt lat="43.0173183" lon="11.5225233"><ele>370.0</ele><time>2026-04-18T14:16:35.768Z</time></trkpt><trkpt lat="43.0171367" lon="11.5226583"><ele>372.0</ele><time>2026-04-18T14:16:36.767Z</time></trkpt><trkpt lat="43.0169567" lon="11.522795"><ele>374.3333333333333</ele><time>2026-04-18T14:16:37.776Z</time></trkpt><trkpt lat="43.016795" lon="11.522955"><ele>376.66666666666663</ele><time>2026-04-18T14:16:38.769Z</time></trkpt><trkpt lat="43.0166467" lon="11.52316"><ele>379.0</ele><time>2026-04-18T14:16:39.766Z</time></trkpt><trkpt lat="43.0164933" lon="11.5234067"><ele>379.0</ele><time>2026-04-18T14:16:40.767Z</time></trkpt><trkpt lat="43.016345" lon="11.52369"><ele>379.0</ele><time>2026-04-18T14:16:41.766Z</time></trkpt><trkpt lat="43.016205" lon="11.523975"><ele>375.66666666666663</ele><time>2026-04-18T14:16:42.769Z</time></trkpt><trkpt lat="43.016085" lon="11.5242367"><ele>372.3333333333333</ele><time>2026-04-18T14:16:43.767Z</time></trkpt><trkpt lat="43.0159833" lon="11.5244583"><ele>369.0</ele><time>2026-04-18T14:16:44.769Z</time></trkpt><trkpt lat="43.01589" lon="11.5246483"><ele>366.3333333333333</ele><time>2026-04-18T14:16:45.766Z</time></trkpt><trkpt lat="43.01579" lon="11.5248017"><ele>363.66666666666663</ele><time>2026-04-18T14:16:46.767Z</time></trkpt><trkpt lat="43.0156617" lon="11.5249117"><ele>361.0</ele><time>2026-04-18T14:16:47.766Z</time></trkpt><trkpt lat="43.0154967" lon="11.5250033"><ele>361.0</ele><time>2026-04-18T14:16:48.767Z</time></trkpt><trkpt lat="43.015305" lon="11.5250867"><ele>361.0</ele><time>2026-04-18T14:16:49.766Z</time></trkpt><trkpt lat="43.0151133" lon="11.5252117"><ele>361.0</ele><time>2026-04-18T14:16:50.766Z</time></trkpt><trkpt lat="43.0149183" lon="11.5253733"><ele>361.0</ele><time>2026-04-18T14:16:51.767Z</time></trkpt><trkpt lat="43.0147233" lon="11.5255617"><ele>361.0</ele><time>2026-04-18T14:16:52.762Z</time></trkpt><trkpt lat="43.0145583" lon="11.52578"><ele>361.0</ele><time>2026-04-18T14:16:53.766Z</time></trkpt><trkpt lat="43.0144233" lon="11.5260133"><ele>361.0</ele><time>2026-04-18T14:16:54.769Z</time></trkpt><trkpt lat="43.0143067" lon="11.5262333"><ele>361.0</ele><time>2026-04-18T14:16:55.767Z</time></trkpt><trkpt lat="43.014195" lon="11.5264167"><ele>357.25</ele><time>2026-04-18T14:16:56.769Z</time></trkpt><trkpt lat="43.0140767" lon="11.526555"><ele>353.5</ele><time>2026-04-18T14:16:57.767Z</time></trkpt><trkpt lat="43.0139483" lon="11.5266467"><ele>349.75</ele><time>2026-04-18T14:16:58.766Z</time></trkpt><trkpt lat="43.013815" lon="11.526705"><ele>346.0</ele><time>2026-04-18T14:16:59.762Z</time></trkpt><trkpt lat="43.01364" lon="11.5267033"><ele>346.0</ele><time>2026-04-18T14:17:00.764Z</time></trkpt><trkpt lat="43.013445" lon="11.5266933"><ele>346.0</ele><time>2026-04-18T14:17:01.769Z</time></trkpt><trkpt lat="43.0132167" lon="11.5267033"><ele>346.0</ele><time>2026-04-18T14:17:02.766Z</time></trkpt><trkpt lat="43.0129683" lon="11.526725"><ele>346.0</ele><time>2026-04-18T14:17:03.77Z</time></trkpt><trkpt lat="43.012705" lon="11.5267783"><ele>346.0</ele><time>2026-04-18T14:17:04.766Z</time></trkpt><trkpt lat="43.012445" lon="11.5268483"><ele>344.5</ele><time>2026-04-18T14:17:05.764Z</time></trkpt><trkpt lat="43.0121883" lon="11.526905"><ele>343.0</ele><time>2026-04-18T14:17:06.766Z</time></trkpt><trkpt lat="43.011925" lon="11.5269383"><ele>340.5</ele><time>2026-04-18T14:17:07.767Z</time></trkpt><trkpt lat="43.0116533" lon="11.5269433"><ele>338.0</ele><time>2026-04-18T14:17:08.769Z</time></trkpt><trkpt lat="43.0113767" lon="11.5269267"><ele>338.0</ele><time>2026-04-18T14:17:09.767Z</time></trkpt><trkpt lat="43.0110967" lon="11.526895"><ele>338.0</ele><time>2026-04-18T14:17:10.769Z</time></trkpt><trkpt lat="43.0108167" lon="11.5268567"><ele>336.0</ele><time>2026-04-18T14:17:11.771Z</time></trkpt><trkpt lat="43.0105383" lon="11.526815"><ele>334.0</ele><time>2026-04-18T14:17:12.767Z</time></trkpt><trkpt lat="43.01026" lon="11.5267767"><ele>333.0</ele><time>2026-04-18T14:17:13.769Z</time></trkpt><trkpt lat="43.0099817" lon="11.5267433"><ele>332.0</ele><time>2026-04-18T14:17:14.771Z</time></trkpt><trkpt lat="43.00971" lon="11.52671"><ele>332.0</ele><time>2026-04-18T14:17:15.769Z</time></trkpt><trkpt lat="43.0094417" lon="11.5266783"><ele>332.0</ele><time>2026-04-18T14:17:16.765Z</time></trkpt><trkpt lat="43.0091783" lon="11.526645"><ele>331.5</ele><time>2026-04-18T14:17:17.767Z</time></trkpt><trkpt lat="43.00892" lon="11.526615"><ele>331.0</ele><time>2026-04-18T14:17:18.769Z</time></trkpt><trkpt lat="43.008665" lon="11.526585"><ele>331.0</ele><time>2026-04-18T14:17:19.768Z</time></trkpt><trkpt lat="43.0084117" lon="11.526555"><ele>331.0</ele><time>2026-04-18T14:17:20.768Z</time></trkpt><trkpt lat="43.008155" lon="11.526525"><ele>330.0</ele><time>2026-04-18T14:17:21.769Z</time></trkpt><trkpt lat="43.0078983" lon="11.526495"><ele>329.0</ele><time>2026-04-18T14:17:22.765Z</time></trkpt><trkpt lat="43.0076383" lon="11.5264667"><ele>329.0</ele><time>2026-04-18T14:17:23.766Z</time></trkpt><trkpt lat="43.0073783" lon="11.5264367"><ele>329.0</ele><time>2026-04-18T14:17:24.77Z</time></trkpt><trkpt lat="43.0071183" lon="11.5263983"><ele>329.0</ele><time>2026-04-18T14:17:25.769Z</time></trkpt><trkpt lat="43.0068533" lon="11.526345"><ele>329.0</ele><time>2026-04-18T14:17:26.768Z</time></trkpt><trkpt lat="43.0065883" lon="11.5262817"><ele>327.5</ele><time>2026-04-18T14:17:27.768Z</time></trkpt><trkpt lat="43.00632" lon="11.5262067"><ele>326.0</ele><time>2026-04-18T14:17:28.765Z</time></trkpt><trkpt lat="43.0060533" lon="11.5261283"><ele>325.5</ele><time>2026-04-18T14:17:29.77Z</time></trkpt><trkpt lat="43.0057883" lon="11.52605"><ele>325.0</ele><time>2026-04-18T14:17:30.758Z</time></trkpt><trkpt lat="43.00552" lon="11.52597"><ele>325.0</ele><time>2026-04-18T14:17:31.756Z</time></trkpt><trkpt lat="43.0052517" lon="11.5258883"><ele>325.0</ele><time>2026-04-18T14:17:32.771Z</time></trkpt><trkpt lat="43.0049833" lon="11.5258067"><ele>324.5</ele><time>2026-04-18T14:17:33.769Z</time></trkpt><trkpt lat="43.0047167" lon="11.5257283"><ele>324.0</ele><time>2026-04-18T14:17:34.769Z</time></trkpt><trkpt lat="43.0044467" lon="11.5256517"><ele>324.0</ele><time>2026-04-18T14:17:35.769Z</time></trkpt><trkpt lat="43.0041767" lon="11.525575"><ele>324.0</ele><time>2026-04-18T14:17:36.769Z</time></trkpt><trkpt lat="43.0039083" lon="11.5254933"><ele>323.5</ele><time>2026-04-18T14:17:37.768Z</time></trkpt><trkpt lat="43.0036383" lon="11.52541"><ele>323.0</ele><time>2026-04-18T14:17:38.773Z</time></trkpt><trkpt lat="43.0033617" lon="11.52533"><ele>322.0</ele><time>2026-04-18T14:17:39.768Z</time></trkpt><trkpt lat="43.0030867" lon="11.5252483"><ele>321.0</ele><time>2026-04-18T14:17:40.765Z</time></trkpt><trkpt lat="43.0028017" lon="11.5251683"><ele>321.0</ele><time>2026-04-18T14:17:41.766Z</time></trkpt><trkpt lat="43.0025167" lon="11.5250883"><ele>321.0</ele><time>2026-04-18T14:17:42.77Z</time></trkpt><trkpt lat="43.0022333" lon="11.5250033"><ele>321.0</ele><time>2026-04-18T14:17:43.77Z</time></trkpt><trkpt lat="43.0019483" lon="11.5249083"><ele>321.0</ele><time>2026-04-18T14:17:44.768Z</time></trkpt><trkpt lat="43.0016617" lon="11.5248033"><ele>321.0</ele><time>2026-04-18T14:17:45.769Z</time></trkpt><trkpt lat="43.0013783" lon="11.5246883"><ele>321.0</ele><time>2026-04-18T14:17:46.767Z</time></trkpt><trkpt lat="43.0010933" lon="11.5245717"><ele>319.0</ele><time>2026-04-18T14:17:47.767Z</time></trkpt><trkpt lat="43.0008083" lon="11.5244567"><ele>317.0</ele><time>2026-04-18T14:17:48.768Z</time></trkpt><trkpt lat="43.0005233" lon="11.52434"><ele>317.0</ele><time>2026-04-18T14:17:49.766Z</time></trkpt><trkpt lat="43.00024" lon="11.5242167"><ele>317.0</ele><time>2026-04-18T14:17:50.77Z</time></trkpt><trkpt lat="42.9999583" lon="11.5240783"><ele>317.0</ele><time>2026-04-18T14:17:51.77Z</time></trkpt><trkpt lat="42.9996833" lon="11.523915"><ele>317.0</ele><time>2026-04-18T14:17:52.766Z</time></trkpt><trkpt lat="42.9994183" lon="11.5237317"><ele>316.5</ele><time>2026-04-18T14:17:53.764Z</time></trkpt><trkpt lat="42.9991633" lon="11.523555"><ele>316.0</ele><time>2026-04-18T14:17:54.772Z</time></trkpt><trkpt lat="42.998915" lon="11.5234067"><ele>316.0</ele><time>2026-04-18T14:17:55.769Z</time></trkpt><trkpt lat="42.9986833" lon="11.5232917"><ele>316.0</ele><time>2026-04-18T14:17:56.771Z</time></trkpt><trkpt lat="42.9984633" lon="11.5232033"><ele>316.66666666666663</ele><time>2026-04-18T14:17:57.771Z</time></trkpt><trkpt lat="42.99826" lon="11.5231"><ele>317.3333333333333</ele><time>2026-04-18T14:17:58.768Z</time></trkpt><trkpt lat="42.998075" lon="11.5229633"><ele>318.0</ele><time>2026-04-18T14:17:59.77Z</time></trkpt><trkpt lat="42.9979" lon="11.5227867"><ele>318.0</ele><time>2026-04-18T14:18:00.77Z</time></trkpt><trkpt lat="42.9977217" lon="11.5225983"><ele>318.0</ele><time>2026-04-18T14:18:01.768Z</time></trkpt><trkpt lat="42.9975367" lon="11.5224083"><ele>322.5</ele><time>2026-04-18T14:18:02.772Z</time></trkpt><trkpt lat="42.997345" lon="11.522215"><ele>327.0</ele><time>2026-04-18T14:18:03.758Z</time></trkpt><trkpt lat="42.9971533" lon="11.5220333"><ele>327.0</ele><time>2026-04-18T14:18:04.767Z</time></trkpt><trkpt lat="42.99697" lon="11.5218533"><ele>327.0</ele><time>2026-04-18T14:18:05.769Z</time></trkpt><trkpt lat="42.9967983" lon="11.5216783"><ele>327.0</ele><time>2026-04-18T14:18:06.769Z</time></trkpt><trkpt lat="42.9966433" lon="11.5215217"><ele>329.0</ele><time>2026-04-18T14:18:07.77Z</time></trkpt><trkpt lat="42.9964983" lon="11.5213667"><ele>331.0</ele><time>2026-04-18T14:18:08.77Z</time></trkpt><trkpt lat="42.996365" lon="11.5212067"><ele>333.0</ele><time>2026-04-18T14:18:09.768Z</time></trkpt><trkpt lat="42.99625" lon="11.5210333"><ele>333.0</ele><time>2026-04-18T14:18:10.769Z</time></trkpt><trkpt lat="42.9961517" lon="11.520845"><ele>333.0</ele><time>2026-04-18T14:18:11.768Z</time></trkpt><trkpt lat="42.9960583" lon="11.5206633"><ele>333.0</ele><time>2026-04-18T14:18:12.77Z</time></trkpt><trkpt lat="42.995965" lon="11.5204917"><ele>331.0</ele><time>2026-04-18T14:18:13.769Z</time></trkpt><trkpt lat="42.9958533" lon="11.5203433"><ele>329.0</ele><time>2026-04-18T14:18:14.772Z</time></trkpt><trkpt lat="42.99572" lon="11.5202133"><ele>327.0</ele><time>2026-04-18T14:18:15.762Z</time></trkpt><trkpt lat="42.9955683" lon="11.5201017"><ele>331.0</ele><time>2026-04-18T14:18:16.768Z</time></trkpt><trkpt lat="42.9954133" lon="11.5199983"><ele>335.0</ele><time>2026-04-18T14:18:17.77Z</time></trkpt><trkpt lat="42.995275" lon="11.5199033"><ele>339.0</ele><time>2026-04-18T14:18:18.769Z</time></trkpt><trkpt lat="42.9951567" lon="11.5198317"><ele>339.0</ele><time>2026-04-18T14:18:19.771Z</time></trkpt><trkpt lat="42.99506" lon="11.5197817"><ele>339.0</ele><time>2026-04-18T14:18:20.772Z</time></trkpt><trkpt lat="42.994975" lon="11.5197633"><ele>339.0</ele><time>2026-04-18T14:18:21.768Z</time></trkpt><trkpt lat="42.9949017" lon="11.51978"><ele>339.0</ele><time>2026-04-18T14:18:22.767Z</time></trkpt><trkpt lat="42.9948333" lon="11.5198033"><ele>339.0</ele><time>2026-04-18T14:18:23.767Z</time></trkpt><trkpt lat="42.9947567" lon="11.5198667"><ele>339.0</ele><time>2026-04-18T14:18:24.767Z</time></trkpt><trkpt lat="42.99467" lon="11.5199433"><ele>341.25</ele><time>2026-04-18T14:18:25.77Z</time></trkpt><trkpt lat="42.994565" lon="11.52006"><ele>343.5</ele><time>2026-04-18T14:18:26.773Z</time></trkpt><trkpt lat="42.9944583" lon="11.5202083"><ele>345.75</ele><time>2026-04-18T14:18:27.769Z</time></trkpt><trkpt lat="42.9943483" lon="11.5203517"><ele>348.0</ele><time>2026-04-18T14:18:28.77Z</time></trkpt><trkpt lat="42.994235" lon="11.5205067"><ele>350.0</ele><time>2026-04-18T14:18:29.769Z</time></trkpt><trkpt lat="42.99412" lon="11.520665"><ele>352.0</ele><time>2026-04-18T14:18:30.771Z</time></trkpt><trkpt lat="42.9940067" lon="11.5208283"><ele>354.0</ele><time>2026-04-18T14:18:31.769Z</time></trkpt><trkpt lat="42.9938983" lon="11.5209717"><ele>354.0</ele><time>2026-04-18T14:18:32.77Z</time></trkpt><trkpt lat="42.9937967" lon="11.5211133"><ele>354.0</ele><time>2026-04-18T14:18:33.77Z</time></trkpt><trkpt lat="42.993705" lon="11.5212833"><ele>354.0</ele><time>2026-04-18T14:18:34.77Z</time></trkpt><trkpt lat="42.9936183" lon="11.52148"><ele>358.0</ele><time>2026-04-18T14:18:35.769Z</time></trkpt><trkpt lat="42.993545" lon="11.521695"><ele>362.0</ele><time>2026-04-18T14:18:36.769Z</time></trkpt><trkpt lat="42.9934783" lon="11.5219283"><ele>366.0</ele><time>2026-04-18T14:18:37.771Z</time></trkpt><trkpt lat="42.9934183" lon="11.522185"><ele>365.3333333333333</ele><time>2026-04-18T14:18:38.771Z</time></trkpt><trkpt lat="42.9933517" lon="11.5224483"><ele>364.66666666666663</ele><time>2026-04-18T14:18:39.767Z</time></trkpt><trkpt lat="42.9932683" lon="11.52271"><ele>364.0</ele><time>2026-04-18T14:18:40.771Z</time></trkpt><trkpt lat="42.99318" lon="11.5229667"><ele>364.0</ele><time>2026-04-18T14:18:41.769Z</time></trkpt><trkpt lat="42.9930883" lon="11.52322"><ele>364.0</ele><time>2026-04-18T14:18:42.77Z</time></trkpt><trkpt lat="42.9929883" lon="11.52347"><ele>364.0</ele><time>2026-04-18T14:18:43.771Z</time></trkpt><trkpt lat="42.99287" lon="11.5237033"><ele>361.0</ele><time>2026-04-18T14:18:44.77Z</time></trkpt><trkpt lat="42.99273" lon="11.5239117"><ele>358.0</ele><time>2026-04-18T14:18:45.768Z</time></trkpt><trkpt lat="42.9925817" lon="11.5240933"><ele>355.0</ele><time>2026-04-18T14:18:46.769Z</time></trkpt><trkpt lat="42.992445" lon="11.5242433"><ele>355.0</ele><time>2026-04-18T14:18:47.77Z</time></trkpt><trkpt lat="42.99234" lon="11.524385"><ele>355.0</ele><time>2026-04-18T14:18:48.763Z</time></trkpt><trkpt lat="42.9922633" lon="11.52454"><ele>355.0</ele><time>2026-04-18T14:18:49.769Z</time></trkpt><trkpt lat="42.99223" lon="11.5247233"><ele>355.0</ele><time>2026-04-18T14:18:50.772Z</time></trkpt><trkpt lat="42.9922483" lon="11.5249283"><ele>357.66666666666663</ele><time>2026-04-18T14:18:51.768Z</time></trkpt><trkpt lat="42.99232" lon="11.5251417"><ele>360.3333333333333</ele><time>2026-04-18T14:18:52.767Z</time></trkpt><trkpt lat="42.99244" lon="11.525345"><ele>363.0</ele><time>2026-04-18T14:18:53.77Z</time></trkpt><trkpt lat="42.9925567" lon="11.5255317"><ele>367.0</ele><time>2026-04-18T14:18:54.771Z</time></trkpt><trkpt lat="42.99264" lon="11.5257167"><ele>371.0</ele><time>2026-04-18T14:18:55.77Z</time></trkpt><trkpt lat="42.9926783" lon="11.5259167"><ele>375.0</ele><time>2026-04-18T14:18:56.77Z</time></trkpt><trkpt lat="42.9926617" lon="11.52612"><ele>373.3333333333333</ele><time>2026-04-18T14:18:57.771Z</time></trkpt><trkpt lat="42.9925883" lon="11.5263133"><ele>371.66666666666663</ele><time>2026-04-18T14:18:58.767Z</time></trkpt><trkpt lat="42.9924633" lon="11.5264667"><ele>370.0</ele><time>2026-04-18T14:18:59.77Z</time></trkpt><trkpt lat="42.9923" lon="11.5266017"><ele>364.5</ele><time>2026-04-18T14:19:00.768Z</time></trkpt><trkpt lat="42.992055" lon="11.5266817"><ele>359.0</ele><time>2026-04-18T14:19:01.769Z</time></trkpt><trkpt lat="42.99178" lon="11.52674"><ele>357.0</ele><time>2026-04-18T14:19:02.77Z</time></trkpt><trkpt lat="42.9915383" lon="11.526835"><ele>355.0</ele><time>2026-04-18T14:19:03.77Z</time></trkpt><trkpt lat="42.9913267" lon="11.52695"><ele>356.0</ele><time>2026-04-18T14:19:04.772Z</time></trkpt><trkpt lat="42.9911383" lon="11.5270833"><ele>357.0</ele><time>2026-04-18T14:19:05.769Z</time></trkpt><trkpt lat="42.9909733" lon="11.527235"><ele>358.0</ele><time>2026-04-18T14:19:06.763Z</time></trkpt><trkpt lat="42.990835" lon="11.5274133"><ele>358.0</ele><time>2026-04-18T14:19:07.77Z</time></trkpt><trkpt lat="42.9907267" lon="11.5276317"><ele>358.0</ele><time>2026-04-18T14:19:08.771Z</time></trkpt><trkpt lat="42.9906383" lon="11.527865"><ele>358.0</ele><time>2026-04-18T14:19:09.769Z</time></trkpt><trkpt lat="42.9905533" lon="11.5280917"><ele>361.66666666666663</ele><time>2026-04-18T14:19:10.771Z</time></trkpt><trkpt lat="42.9904567" lon="11.528305"><ele>365.3333333333333</ele><time>2026-04-18T14:19:11.769Z</time></trkpt><trkpt lat="42.9903483" lon="11.5285067"><ele>369.0</ele><time>2026-04-18T14:19:12.77Z</time></trkpt><trkpt lat="42.990235" lon="11.528705"><ele>366.0</ele><time>2026-04-18T14:19:13.766Z</time></trkpt><trkpt lat="42.9901317" lon="11.528915"><ele>363.0</ele><time>2026-04-18T14:19:14.773Z</time></trkpt><trkpt lat="42.99005" lon="11.5291517"><ele>360.0</ele><time>2026-04-18T14:19:15.768Z</time></trkpt><trkpt lat="42.989985" lon="11.529395"><ele>361.0</ele><time>2026-04-18T14:19:16.771Z</time></trkpt><trkpt lat="42.9899367" lon="11.5296533"><ele>362.0</ele><time>2026-04-18T14:19:17.766Z</time></trkpt><trkpt lat="42.9899083" lon="11.529925"><ele>363.0</ele><time>2026-04-18T14:19:18.767Z</time></trkpt><trkpt lat="42.989895" lon="11.5301967"><ele>363.0</ele><time>2026-04-18T14:19:19.771Z</time></trkpt><trkpt lat="42.98988" lon="11.5304483"><ele>363.0</ele><time>2026-04-18T14:19:20.771Z</time></trkpt><trkpt lat="42.9898533" lon="11.53069"><ele>363.0</ele><time>2026-04-18T14:19:21.769Z</time></trkpt><trkpt lat="42.9898067" lon="11.5309283"><ele>363.0</ele><time>2026-04-18T14:19:22.769Z</time></trkpt><trkpt lat="42.98973" lon="11.5311533"><ele>363.0</ele><time>2026-04-18T14:19:23.77Z</time></trkpt><trkpt lat="42.989615" lon="11.5313617"><ele>363.0</ele><time>2026-04-18T14:19:24.77Z</time></trkpt><trkpt lat="42.9894917" lon="11.5315383"><ele>360.3333333333333</ele><time>2026-04-18T14:19:25.768Z</time></trkpt><trkpt lat="42.9893567" lon="11.5316767"><ele>357.66666666666663</ele><time>2026-04-18T14:19:26.768Z</time></trkpt><trkpt lat="42.9891917" lon="11.531785"><ele>355.0</ele><time>2026-04-18T14:19:27.764Z</time></trkpt><trkpt lat="42.9890067" lon="11.53189"><ele>355.0</ele><time>2026-04-18T14:19:28.766Z</time></trkpt><trkpt lat="42.9888233" lon="11.531985"><ele>355.0</ele><time>2026-04-18T14:19:29.768Z</time></trkpt><trkpt lat="42.9886517" lon="11.532065"><ele>355.0</ele><time>2026-04-18T14:19:30.765Z</time></trkpt><trkpt lat="42.9884967" lon="11.5321383"><ele>353.66666666666663</ele><time>2026-04-18T14:19:31.77Z</time></trkpt><trkpt lat="42.988355" lon="11.53224"><ele>352.3333333333333</ele><time>2026-04-18T14:19:32.77Z</time></trkpt><trkpt lat="42.9882217" lon="11.5323867"><ele>351.0</ele><time>2026-04-18T14:19:33.769Z</time></trkpt><trkpt lat="42.9880983" lon="11.5325717"><ele>351.0</ele><time>2026-04-18T14:19:34.769Z</time></trkpt><trkpt lat="42.9879833" lon="11.5327667"><ele>351.0</ele><time>2026-04-18T14:19:35.771Z</time></trkpt><trkpt lat="42.9878717" lon="11.5329517"><ele>351.0</ele><time>2026-04-18T14:19:36.767Z</time></trkpt><trkpt lat="42.9877683" lon="11.53312"><ele>351.0</ele><time>2026-04-18T14:19:37.77Z</time></trkpt><trkpt lat="42.9876717" lon="11.5332817"><ele>351.0</ele><time>2026-04-18T14:19:38.766Z</time></trkpt><trkpt lat="42.9876" lon="11.5334467"><ele>351.0</ele><time>2026-04-18T14:19:39.768Z</time></trkpt><trkpt lat="42.9875667" lon="11.5336467"><ele>351.0</ele><time>2026-04-18T14:19:40.769Z</time></trkpt><trkpt lat="42.9875717" lon="11.5338833"><ele>348.0</ele><time>2026-04-18T14:19:41.768Z</time></trkpt><trkpt lat="42.987605" lon="11.5341667"><ele>345.0</ele><time>2026-04-18T14:19:42.772Z</time></trkpt><trkpt lat="42.9876283" lon="11.53446"><ele>342.0</ele><time>2026-04-18T14:19:43.769Z</time></trkpt><trkpt lat="42.9876733" lon="11.53477"><ele>338.0</ele><time>2026-04-18T14:19:44.769Z</time></trkpt><trkpt lat="42.98773" lon="11.535075"><ele>334.0</ele><time>2026-04-18T14:19:45.769Z</time></trkpt><trkpt lat="42.987795" lon="11.535345"><ele>330.0</ele><time>2026-04-18T14:19:46.765Z</time></trkpt><trkpt lat="42.98785" lon="11.5355667"><ele>326.5</ele><time>2026-04-18T14:19:47.77Z</time></trkpt><trkpt lat="42.9878933" lon="11.535765"><ele>323.0</ele><time>2026-04-18T14:19:48.766Z</time></trkpt><trkpt lat="42.9879083" lon="11.5359517"><ele>319.5</ele><time>2026-04-18T14:19:49.77Z</time></trkpt><trkpt lat="42.9878817" lon="11.5361267"><ele>316.0</ele><time>2026-04-18T14:19:50.772Z</time></trkpt><trkpt lat="42.9878067" lon="11.5362833"><ele>317.0</ele><time>2026-04-18T14:19:51.769Z</time></trkpt><trkpt lat="42.9876683" lon="11.536405"><ele>318.0</ele><time>2026-04-18T14:19:52.77Z</time></trkpt><trkpt lat="42.9875083" lon="11.5365233"><ele>319.0</ele><time>2026-04-18T14:19:53.77Z</time></trkpt><trkpt lat="42.9873567" lon="11.5366417"><ele>319.0</ele><time>2026-04-18T14:19:54.769Z</time></trkpt><trkpt lat="42.9872133" lon="11.5367317"><ele>319.0</ele><time>2026-04-18T14:19:55.768Z</time></trkpt><trkpt lat="42.98709" lon="11.5367883"><ele>319.0</ele><time>2026-04-18T14:19:56.768Z</time></trkpt><trkpt lat="42.9869683" lon="11.5367717"><ele>319.0</ele><time>2026-04-18T14:19:57.77Z</time></trkpt><trkpt lat="42.9868433" lon="11.5367333"><ele>319.0</ele><time>2026-04-18T14:19:58.769Z</time></trkpt><trkpt lat="42.9867267" lon="11.5366667"><ele>319.0</ele><time>2026-04-18T14:19:59.769Z</time></trkpt><trkpt lat="42.9866133" lon="11.5366217"><ele>319.0</ele><time>2026-04-18T14:20:00.765Z</time></trkpt><trkpt lat="42.9864883" lon="11.5366483"><ele>319.0</ele><time>2026-04-18T14:20:01.769Z</time></trkpt><trkpt lat="42.9863633" lon="11.53676"><ele>318.3333333333333</ele><time>2026-04-18T14:20:02.773Z</time></trkpt><trkpt lat="42.9862233" lon="11.5369017"><ele>317.6666666666667</ele><time>2026-04-18T14:20:03.771Z</time></trkpt><trkpt lat="42.9860633" lon="11.5370283"><ele>317.0</ele><time>2026-04-18T14:20:04.77Z</time></trkpt><trkpt lat="42.9858917" lon="11.5371283"><ele>312.33333333333337</ele><time>2026-04-18T14:20:05.77Z</time></trkpt><trkpt lat="42.9857133" lon="11.5372517"><ele>307.6666666666667</ele><time>2026-04-18T14:20:06.768Z</time></trkpt><trkpt lat="42.9855333" lon="11.5374"><ele>303.0</ele><time>2026-04-18T14:20:07.77Z</time></trkpt><trkpt lat="42.9853483" lon="11.5375683"><ele>303.0</ele><time>2026-04-18T14:20:08.772Z</time></trkpt><trkpt lat="42.9851567" lon="11.53775"><ele>303.0</ele><time>2026-04-18T14:20:09.77Z</time></trkpt><trkpt lat="42.9849567" lon="11.537955"><ele>297.0</ele><time>2026-04-18T14:20:10.769Z</time></trkpt><trkpt lat="42.9847617" lon="11.5381533"><ele>291.0</ele><time>2026-04-18T14:20:11.769Z</time></trkpt><trkpt lat="42.9845783" lon="11.538335"><ele>291.0</ele><time>2026-04-18T14:20:12.769Z</time></trkpt><trkpt lat="42.9844017" lon="11.5385033"><ele>291.0</ele><time>2026-04-18T14:20:13.769Z</time></trkpt><trkpt lat="42.98423" lon="11.5386567"><ele>291.0</ele><time>2026-04-18T14:20:14.772Z</time></trkpt><trkpt lat="42.9840567" lon="11.538785"><ele>288.0</ele><time>2026-04-18T14:20:15.768Z</time></trkpt><trkpt lat="42.98388" lon="11.5388933"><ele>285.0</ele><time>2026-04-18T14:20:16.768Z</time></trkpt><trkpt lat="42.9837017" lon="11.5389833"><ele>282.0</ele><time>2026-04-18T14:20:17.77Z</time></trkpt><trkpt lat="42.9835317" lon="11.539065"><ele>282.0</ele><time>2026-04-18T14:20:18.77Z</time></trkpt><trkpt lat="42.98338" lon="11.5391883"><ele>282.0</ele><time>2026-04-18T14:20:19.766Z</time></trkpt><trkpt lat="42.9832417" lon="11.539365"><ele>282.0</ele><time>2026-04-18T14:20:20.771Z</time></trkpt><trkpt lat="42.9831017" lon="11.5395317"><ele>278.6666666666667</ele><time>2026-04-18T14:20:21.77Z</time></trkpt><trkpt lat="42.982945" lon="11.5396683"><ele>275.33333333333337</ele><time>2026-04-18T14:20:22.765Z</time></trkpt><trkpt lat="42.98278" lon="11.5397817"><ele>272.0</ele><time>2026-04-18T14:20:23.771Z</time></trkpt><trkpt lat="42.9826167" lon="11.53986"><ele>273.25</ele><time>2026-04-18T14:20:24.769Z</time></trkpt><trkpt lat="42.982465" lon="11.5399267"><ele>274.5</ele><time>2026-04-18T14:20:25.767Z</time></trkpt><trkpt lat="42.9823417" lon="11.5399883"><ele>275.75</ele><time>2026-04-18T14:20:26.768Z</time></trkpt><trkpt lat="42.9822517" lon="11.5400567"><ele>277.0</ele><time>2026-04-18T14:20:27.77Z</time></trkpt><trkpt lat="42.9821917" lon="11.5401583"><ele>277.0</ele><time>2026-04-18T14:20:28.766Z</time></trkpt><trkpt lat="42.9821583" lon="11.5402867"><ele>277.0</ele><time>2026-04-18T14:20:29.771Z</time></trkpt><trkpt lat="42.98217" lon="11.5404217"><ele>277.0</ele><time>2026-04-18T14:20:30.768Z</time></trkpt><trkpt lat="42.98224" lon="11.54056"><ele>277.0</ele><time>2026-04-18T14:20:31.769Z</time></trkpt><trkpt lat="42.9823567" lon="11.5406617"><ele>272.66666666666663</ele><time>2026-04-18T14:20:32.762Z</time></trkpt><trkpt lat="42.9825067" lon="11.5407033"><ele>268.3333333333333</ele><time>2026-04-18T14:20:33.768Z</time></trkpt><trkpt lat="42.9827183" lon="11.540655"><ele>264.0</ele><time>2026-04-18T14:20:34.765Z</time></trkpt><trkpt lat="42.982935" lon="11.54063"><ele>263.0</ele><time>2026-04-18T14:20:35.766Z</time></trkpt><trkpt lat="42.9831533" lon="11.5406167"><ele>262.0</ele><time>2026-04-18T14:20:36.774Z</time></trkpt><trkpt lat="42.983385" lon="11.5406067"><ele>259.5</ele><time>2026-04-18T14:20:37.771Z</time></trkpt><trkpt lat="42.9836183" lon="11.5405967"><ele>257.0</ele><time>2026-04-18T14:20:38.77Z</time></trkpt><trkpt lat="42.9838383" lon="11.5405983"><ele>257.0</ele><time>2026-04-18T14:20:39.769Z</time></trkpt><trkpt lat="42.9840317" lon="11.5406017"><ele>257.0</ele><time>2026-04-18T14:20:40.77Z</time></trkpt><trkpt lat="42.9841867" lon="11.5406117"><ele>257.0</ele><time>2026-04-18T14:20:41.766Z</time></trkpt><trkpt lat="42.98431" lon="11.5406183"><ele>255.8</ele><time>2026-04-18T14:20:42.77Z</time></trkpt><trkpt lat="42.984425" lon="11.54064"><ele>254.6</ele><time>2026-04-18T14:20:43.768Z</time></trkpt><trkpt lat="42.9845167" lon="11.5406867"><ele>253.40000000000003</ele><time>2026-04-18T14:20:44.773Z</time></trkpt><trkpt lat="42.9845767" lon="11.540765"><ele>252.20000000000002</ele><time>2026-04-18T14:20:45.767Z</time></trkpt><trkpt lat="42.984615" lon="11.54087"><ele>251.0</ele><time>2026-04-18T14:20:46.766Z</time></trkpt><trkpt lat="42.9846217" lon="11.5410083"><ele>251.0</ele><time>2026-04-18T14:20:47.769Z</time></trkpt><trkpt lat="42.984625" lon="11.5411533"><ele>251.0</ele><time>2026-04-18T14:20:48.766Z</time></trkpt><trkpt lat="42.9845083" lon="11.541395"><ele>251.0</ele><time>2026-04-18T14:20:49.769Z</time></trkpt><trkpt lat="42.9843517" lon="11.5416533"><ele>248.66666666666669</ele><time>2026-04-18T14:20:50.766Z</time></trkpt><trkpt lat="42.9842383" lon="11.5418967"><ele>246.33333333333331</ele><time>2026-04-18T14:20:51.77Z</time></trkpt><trkpt lat="42.984125" lon="11.5421267"><ele>244.0</ele><time>2026-04-18T14:20:52.767Z</time></trkpt><trkpt lat="42.9840383" lon="11.5423267"><ele>244.0</ele><time>2026-04-18T14:20:53.768Z</time></trkpt><trkpt lat="42.9839617" lon="11.542485"><ele>244.0</ele><time>2026-04-18T14:20:54.765Z</time></trkpt><trkpt lat="42.9838767" lon="11.5426083"><ele>244.0</ele><time>2026-04-18T14:20:55.77Z</time></trkpt><trkpt lat="42.98376" lon="11.5426817"><ele>244.0</ele><time>2026-04-18T14:20:56.767Z</time></trkpt><trkpt lat="42.9836267" lon="11.54271"><ele>244.0</ele><time>2026-04-18T14:20:57.766Z</time></trkpt><trkpt lat="42.9834617" lon="11.5426717"><ele>244.0</ele><time>2026-04-18T14:20:58.77Z</time></trkpt><trkpt lat="42.9832783" lon="11.5426"><ele>244.0</ele><time>2026-04-18T14:20:59.77Z</time></trkpt><trkpt lat="42.9831033" lon="11.5425317"><ele>243.0</ele><time>2026-04-18T14:21:00.767Z</time></trkpt><trkpt lat="42.9829433" lon="11.54248"><ele>242.0</ele><time>2026-04-18T14:21:01.771Z</time></trkpt><trkpt lat="42.982785" lon="11.5424583"><ele>241.0</ele><time>2026-04-18T14:21:02.768Z</time></trkpt><trkpt lat="42.98264" lon="11.5424733"><ele>241.33333333333331</ele><time>2026-04-18T14:21:03.77Z</time></trkpt><trkpt lat="42.9825033" lon="11.5425417"><ele>241.66666666666669</ele><time>2026-04-18T14:21:04.762Z</time></trkpt><trkpt lat="42.9823683" lon="11.5426817"><ele>242.0</ele><time>2026-04-18T14:21:05.771Z</time></trkpt><trkpt lat="42.9822717" lon="11.54287"><ele>237.33333333333334</ele><time>2026-04-18T14:21:06.772Z</time></trkpt><trkpt lat="42.98218" lon="11.543035"><ele>232.66666666666669</ele><time>2026-04-18T14:21:07.771Z</time></trkpt><trkpt lat="42.98207" lon="11.5431783"><ele>228.0</ele><time>2026-04-18T14:21:08.769Z</time></trkpt><trkpt lat="42.9819333" lon="11.5432933"><ele>228.0</ele><time>2026-04-18T14:21:09.765Z</time></trkpt><trkpt lat="42.9817683" lon="11.5433717"><ele>228.0</ele><time>2026-04-18T14:21:10.769Z</time></trkpt><trkpt lat="42.9816" lon="11.5434383"><ele>228.0</ele><time>2026-04-18T14:21:11.769Z</time></trkpt><trkpt lat="42.9814283" lon="11.5435233"><ele>229.33333333333331</ele><time>2026-04-18T14:21:12.764Z</time></trkpt><trkpt lat="42.9812683" lon="11.543655"><ele>230.66666666666666</ele><time>2026-04-18T14:21:13.77Z</time></trkpt><trkpt lat="42.9811367" lon="11.543815"><ele>232.0</ele><time>2026-04-18T14:21:14.772Z</time></trkpt><trkpt lat="42.9810283" lon="11.5439733"><ele>229.25</ele><time>2026-04-18T14:21:15.768Z</time></trkpt><trkpt lat="42.9809267" lon="11.5441067"><ele>226.5</ele><time>2026-04-18T14:21:16.77Z</time></trkpt><trkpt lat="42.98082" lon="11.54419"><ele>223.75</ele><time>2026-04-18T14:21:17.768Z</time></trkpt><trkpt lat="42.980695" lon="11.5442217"><ele>221.0</ele><time>2026-04-18T14:21:18.769Z</time></trkpt><trkpt lat="42.9805833" lon="11.5441917"><ele>221.0</ele><time>2026-04-18T14:21:19.766Z</time></trkpt><trkpt lat="42.9804817" lon="11.544155"><ele>221.0</ele><time>2026-04-18T14:21:20.765Z</time></trkpt><trkpt lat="42.9803783" lon="11.544155"><ele>221.0</ele><time>2026-04-18T14:21:21.769Z</time></trkpt><trkpt lat="42.9802617" lon="11.544245"><ele>221.0</ele><time>2026-04-18T14:21:22.77Z</time></trkpt><trkpt lat="42.9801667" lon="11.5444317"><ele>216.0</ele><time>2026-04-18T14:21:23.767Z</time></trkpt><trkpt lat="42.9800783" lon="11.5446333"><ele>211.0</ele><time>2026-04-18T14:21:24.766Z</time></trkpt><trkpt lat="42.9799933" lon="11.5447917"><ele>206.0</ele><time>2026-04-18T14:21:25.768Z</time></trkpt><trkpt lat="42.9798833" lon="11.5448983"><ele>206.0</ele><time>2026-04-18T14:21:26.768Z</time></trkpt><trkpt lat="42.979755" lon="11.5449617"><ele>206.0</ele><time>2026-04-18T14:21:27.771Z</time></trkpt><trkpt lat="42.97961" lon="11.544985"><ele>206.0</ele><time>2026-04-18T14:21:28.768Z</time></trkpt><trkpt lat="42.9794567" lon="11.544985"><ele>206.0</ele><time>2026-04-18T14:21:29.769Z</time></trkpt><trkpt lat="42.9793033" lon="11.5449817"><ele>206.0</ele><time>2026-04-18T14:21:30.766Z</time></trkpt><trkpt lat="42.9791633" lon="11.5449817"><ele>206.0</ele><time>2026-04-18T14:21:31.768Z</time></trkpt><trkpt lat="42.9790367" lon="11.5450083"><ele>206.0</ele><time>2026-04-18T14:21:32.768Z</time></trkpt><trkpt lat="42.97892" lon="11.545085"><ele>206.0</ele><time>2026-04-18T14:21:33.767Z</time></trkpt><trkpt lat="42.978815" lon="11.5452283"><ele>202.66666666666669</ele><time>2026-04-18T14:21:34.767Z</time></trkpt><trkpt lat="42.9787033" lon="11.5453883"><ele>199.33333333333331</ele><time>2026-04-18T14:21:35.769Z</time></trkpt><trkpt lat="42.97857" lon="11.5455433"><ele>196.0</ele><time>2026-04-18T14:21:36.766Z</time></trkpt><trkpt lat="42.9784267" lon="11.5456933"><ele>197.33333333333331</ele><time>2026-04-18T14:21:37.769Z</time></trkpt><trkpt lat="42.978285" lon="11.5458317"><ele>198.66666666666669</ele><time>2026-04-18T14:21:38.771Z</time></trkpt><trkpt lat="42.97815" lon="11.5459583"><ele>200.0</ele><time>2026-04-18T14:21:39.77Z</time></trkpt><trkpt lat="42.97802" lon="11.5460767"><ele>200.0</ele><time>2026-04-18T14:21:40.771Z</time></trkpt><trkpt lat="42.9779067" lon="11.54619"><ele>200.0</ele><time>2026-04-18T14:21:41.77Z</time></trkpt><trkpt lat="42.9778283" lon="11.5463017"><ele>200.0</ele><time>2026-04-18T14:21:42.769Z</time></trkpt><trkpt lat="42.9777817" lon="11.54642"><ele>200.0</ele><time>2026-04-18T14:21:43.769Z</time></trkpt><trkpt lat="42.9777667" lon="11.54655"><ele>200.0</ele><time>2026-04-18T14:21:44.771Z</time></trkpt><trkpt lat="42.977785" lon="11.5466767"><ele>198.0</ele><time>2026-04-18T14:21:45.768Z</time></trkpt><trkpt lat="42.9778317" lon="11.5467883"><ele>196.0</ele><time>2026-04-18T14:21:46.764Z</time></trkpt><trkpt lat="42.9779017" lon="11.5468683"><ele>194.0</ele><time>2026-04-18T14:21:47.766Z</time></trkpt><trkpt lat="42.9779783" lon="11.546925"><ele>192.0</ele><time>2026-04-18T14:21:48.77Z</time></trkpt><trkpt lat="42.97806" lon="11.5469417"><ele>190.0</ele><time>2026-04-18T14:21:49.769Z</time></trkpt><trkpt lat="42.9781633" lon="11.546925"><ele>190.0</ele><time>2026-04-18T14:21:50.766Z</time></trkpt><trkpt lat="42.97826" lon="11.5469417"><ele>190.0</ele><time>2026-04-18T14:21:51.766Z</time></trkpt><trkpt lat="42.978335" lon="11.5469933"><ele>190.0</ele><time>2026-04-18T14:21:52.768Z</time></trkpt><trkpt lat="42.97837" lon="11.5470667"><ele>190.0</ele><time>2026-04-18T14:21:53.765Z</time></trkpt><trkpt lat="42.9783917" lon="11.5471667"><ele>190.0</ele><time>2026-04-18T14:21:54.773Z</time></trkpt><trkpt lat="42.9783967" lon="11.5472617"><ele>190.0</ele><time>2026-04-18T14:21:55.77Z</time></trkpt><trkpt lat="42.9783183" lon="11.5473467"><ele>186.66666666666669</ele><time>2026-04-18T14:21:57.766Z</time></trkpt><trkpt lat="42.9781717" lon="11.54731"><ele>183.33333333333334</ele><time>2026-04-18T14:21:58.768Z</time></trkpt><trkpt lat="42.97799" lon="11.5472567"><ele>180.0</ele><time>2026-04-18T14:21:59.768Z</time></trkpt><trkpt lat="42.9778117" lon="11.5471467"><ele>180.75</ele><time>2026-04-18T14:22:00.769Z</time></trkpt><trkpt lat="42.97767" lon="11.547025"><ele>181.5</ele><time>2026-04-18T14:22:01.769Z</time></trkpt><trkpt lat="42.977565" lon="11.5469283"><ele>182.25</ele><time>2026-04-18T14:22:02.772Z</time></trkpt><trkpt lat="42.9774733" lon="11.546815"><ele>183.0</ele><time>2026-04-18T14:22:03.768Z</time></trkpt><trkpt lat="42.9773933" lon="11.5467117"><ele>183.0</ele><time>2026-04-18T14:22:04.765Z</time></trkpt><trkpt lat="42.9773267" lon="11.5466267"><ele>183.0</ele><time>2026-04-18T14:22:05.768Z</time></trkpt><trkpt lat="42.9772683" lon="11.54656"><ele>183.0</ele><time>2026-04-18T14:22:06.768Z</time></trkpt><trkpt lat="42.9772183" lon="11.5465067"><ele>183.0</ele><time>2026-04-18T14:22:07.767Z</time></trkpt><trkpt lat="42.9771533" lon="11.5465483"><ele>183.0</ele><time>2026-04-18T14:22:10.764Z</time></trkpt><trkpt lat="42.9772133" lon="11.5466917"><ele>183.0</ele><time>2026-04-18T14:22:12.767Z</time></trkpt><trkpt lat="42.97725" lon="11.5468217"><ele>183.0</ele><time>2026-04-18T14:22:14.763Z</time></trkpt><trkpt lat="42.977235" lon="11.5469417"><ele>183.0</ele><time>2026-04-18T14:22:16.766Z</time></trkpt><trkpt lat="42.97718" lon="11.54705"><ele>183.0</ele><time>2026-04-18T14:22:18.769Z</time></trkpt><trkpt lat="42.9770833" lon="11.5470967"><ele>183.0</ele><time>2026-04-18T14:22:20.768Z</time></trkpt><trkpt lat="42.97702" lon="11.5470767"><ele>183.0</ele><time>2026-04-18T14:22:21.77Z</time></trkpt><trkpt lat="42.9769083" lon="11.5469967"><ele>183.0</ele><time>2026-04-18T14:22:23.762Z</time></trkpt><trkpt lat="42.9768383" lon="11.5468867"><ele>183.0</ele><time>2026-04-18T14:22:24.766Z</time></trkpt><trkpt lat="42.9767567" lon="11.54675"><ele>183.0</ele><time>2026-04-18T14:22:25.767Z</time></trkpt><trkpt lat="42.9766883" lon="11.546655"><ele>183.0</ele><time>2026-04-18T14:22:26.768Z</time></trkpt><trkpt lat="42.9766233" lon="11.5465817"><ele>183.0</ele><time>2026-04-18T14:22:27.769Z</time></trkpt><trkpt lat="42.9765517" lon="11.5465367"><ele>179.75</ele><time>2026-04-18T14:22:28.765Z</time></trkpt><trkpt lat="42.9764733" lon="11.5465317"><ele>176.5</ele><time>2026-04-18T14:22:29.771Z</time></trkpt><trkpt lat="42.9763867" lon="11.5465667"><ele>173.25</ele><time>2026-04-18T14:22:30.768Z</time></trkpt><trkpt lat="42.9762567" lon="11.546755"><ele>170.0</ele><time>2026-04-18T14:22:31.769Z</time></trkpt><trkpt lat="42.9761633" lon="11.5468883"><ele>170.0</ele><time>2026-04-18T14:22:32.77Z</time></trkpt><trkpt lat="42.9760717" lon="11.5470217"><ele>170.0</ele><time>2026-04-18T14:22:33.759Z</time></trkpt><trkpt lat="42.9759833" lon="11.5471467"><ele>170.0</ele><time>2026-04-18T14:22:34.76Z</time></trkpt><trkpt lat="42.975885" lon="11.54728"><ele>170.0</ele><time>2026-04-18T14:22:35.758Z</time></trkpt><trkpt lat="42.97579" lon="11.547415"><ele>172.0</ele><time>2026-04-18T14:22:36.771Z</time></trkpt><trkpt lat="42.9757033" lon="11.5475317"><ele>174.0</ele><time>2026-04-18T14:22:37.769Z</time></trkpt><trkpt lat="42.9756333" lon="11.5476383"><ele>176.0</ele><time>2026-04-18T14:22:38.766Z</time></trkpt><trkpt lat="42.9755883" lon="11.5477483"><ele>178.0</ele><time>2026-04-18T14:22:39.768Z</time></trkpt><trkpt lat="42.975575" lon="11.54788"><ele>180.0</ele><time>2026-04-18T14:22:40.767Z</time></trkpt><trkpt lat="42.9756017" lon="11.5480033"><ele>182.5</ele><time>2026-04-18T14:22:41.771Z</time></trkpt><trkpt lat="42.97568" lon="11.5481317"><ele>185.0</ele><time>2026-04-18T14:22:42.77Z</time></trkpt><trkpt lat="42.9757683" lon="11.5482717"><ele>187.5</ele><time>2026-04-18T14:22:43.768Z</time></trkpt><trkpt lat="42.9758617" lon="11.5484333"><ele>190.0</ele><time>2026-04-18T14:22:44.772Z</time></trkpt><trkpt lat="42.9759533" lon="11.5486217"><ele>187.66666666666669</ele><time>2026-04-18T14:22:45.767Z</time></trkpt><trkpt lat="42.97605" lon="11.548795"><ele>185.33333333333334</ele><time>2026-04-18T14:22:46.771Z</time></trkpt><trkpt lat="42.976165" lon="11.5489283"><ele>183.0</ele><time>2026-04-18T14:22:47.766Z</time></trkpt><trkpt lat="42.9762833" lon="11.549045"><ele>183.0</ele><time>2026-04-18T14:22:48.766Z</time></trkpt><trkpt lat="42.97638" lon="11.54915"><ele>183.0</ele><time>2026-04-18T14:22:49.767Z</time></trkpt><trkpt lat="42.9764433" lon="11.5492783"><ele>183.0</ele><time>2026-04-18T14:22:50.767Z</time></trkpt><trkpt lat="42.9764583" lon="11.5494233"><ele>183.0</ele><time>2026-04-18T14:22:51.765Z</time></trkpt><trkpt lat="42.9764367" lon="11.5495767"><ele>185.5</ele><time>2026-04-18T14:22:52.768Z</time></trkpt><trkpt lat="42.9763733" lon="11.5497367"><ele>188.0</ele><time>2026-04-18T14:22:53.768Z</time></trkpt><trkpt lat="42.9762833" lon="11.5499033"><ele>190.5</ele><time>2026-04-18T14:22:54.769Z</time></trkpt><trkpt lat="42.9761883" lon="11.5500767"><ele>193.0</ele><time>2026-04-18T14:22:55.767Z</time></trkpt><trkpt lat="42.9761133" lon="11.5502617"><ele>194.0</ele><time>2026-04-18T14:22:56.769Z</time></trkpt><trkpt lat="42.9760567" lon="11.55046"><ele>195.0</ele><time>2026-04-18T14:22:57.769Z</time></trkpt><trkpt lat="42.976025" lon="11.550675"><ele>196.0</ele><time>2026-04-18T14:22:58.771Z</time></trkpt><trkpt lat="42.9759983" lon="11.5508883"><ele>196.0</ele><time>2026-04-18T14:22:59.768Z</time></trkpt><trkpt lat="42.975955" lon="11.5510983"><ele>196.0</ele><time>2026-04-18T14:23:00.77Z</time></trkpt><trkpt lat="42.975885" lon="11.5512817"><ele>196.0</ele><time>2026-04-18T14:23:01.767Z</time></trkpt><trkpt lat="42.97581" lon="11.551435"><ele>196.0</ele><time>2026-04-18T14:23:02.772Z</time></trkpt><trkpt lat="42.9757417" lon="11.5515783"><ele>200.75</ele><time>2026-04-18T14:23:03.764Z</time></trkpt><trkpt lat="42.9757067" lon="11.551725"><ele>205.5</ele><time>2026-04-18T14:23:04.768Z</time></trkpt><trkpt lat="42.9757017" lon="11.551875"><ele>210.25</ele><time>2026-04-18T14:23:05.766Z</time></trkpt><trkpt lat="42.9757533" lon="11.55201"><ele>215.0</ele><time>2026-04-18T14:23:06.769Z</time></trkpt><trkpt lat="42.975835" lon="11.5521417"><ele>215.66666666666669</ele><time>2026-04-18T14:23:07.77Z</time></trkpt><trkpt lat="42.9760017" lon="11.5522167"><ele>216.33333333333331</ele><time>2026-04-18T14:23:08.771Z</time></trkpt><trkpt lat="42.9762167" lon="11.5523"><ele>217.0</ele><time>2026-04-18T14:23:09.768Z</time></trkpt><trkpt lat="42.976415" lon="11.5523783"><ele>217.0</ele><time>2026-04-18T14:23:10.768Z</time></trkpt><trkpt lat="42.9766033" lon="11.5524533"><ele>217.0</ele><time>2026-04-18T14:23:11.769Z</time></trkpt><trkpt lat="42.9767867" lon="11.5524817"><ele>217.0</ele><time>2026-04-18T14:23:12.767Z</time></trkpt><trkpt lat="42.976955" lon="11.5524983"><ele>216.0</ele><time>2026-04-18T14:23:13.767Z</time></trkpt><trkpt lat="42.977095" lon="11.552525"><ele>215.0</ele><time>2026-04-18T14:23:14.766Z</time></trkpt><trkpt lat="42.9772083" lon="11.552605"><ele>214.0</ele><time>2026-04-18T14:23:15.769Z</time></trkpt><trkpt lat="42.9772983" lon="11.5527433"><ele>213.0</ele><time>2026-04-18T14:23:16.769Z</time></trkpt><trkpt lat="42.97736" lon="11.55291"><ele>217.25</ele><time>2026-04-18T14:23:17.767Z</time></trkpt><trkpt lat="42.9774367" lon="11.5530567"><ele>221.5</ele><time>2026-04-18T14:23:18.765Z</time></trkpt><trkpt lat="42.9775217" lon="11.55317"><ele>225.75</ele><time>2026-04-18T14:23:19.764Z</time></trkpt><trkpt lat="42.9776267" lon="11.5532417"><ele>230.0</ele><time>2026-04-18T14:23:20.766Z</time></trkpt><trkpt lat="42.9777583" lon="11.55324"><ele>230.33333333333334</ele><time>2026-04-18T14:23:21.768Z</time></trkpt><trkpt lat="42.9779183" lon="11.5532233"><ele>230.66666666666669</ele><time>2026-04-18T14:23:22.764Z</time></trkpt><trkpt lat="42.978095" lon="11.5531417"><ele>231.0</ele><time>2026-04-18T14:23:23.763Z</time></trkpt><trkpt lat="42.97826" lon="11.5530233"><ele>229.5</ele><time>2026-04-18T14:23:24.771Z</time></trkpt><trkpt lat="42.9783933" lon="11.55289"><ele>228.0</ele><time>2026-04-18T14:23:25.767Z</time></trkpt><trkpt lat="42.9785283" lon="11.5528033"><ele>226.5</ele><time>2026-04-18T14:23:26.771Z</time></trkpt><trkpt lat="42.978645" lon="11.5527817"><ele>225.0</ele><time>2026-04-18T14:23:27.764Z</time></trkpt><trkpt lat="42.9787483" lon="11.55284"><ele>225.0</ele><time>2026-04-18T14:23:28.77Z</time></trkpt><trkpt lat="42.978845" lon="11.552965"><ele>225.0</ele><time>2026-04-18T14:23:29.77Z</time></trkpt><trkpt lat="42.978915" lon="11.5531567"><ele>225.0</ele><time>2026-04-18T14:23:30.768Z</time></trkpt><trkpt lat="42.9789733" lon="11.5533983"><ele>225.0</ele><time>2026-04-18T14:23:31.771Z</time></trkpt><trkpt lat="42.9790133" lon="11.5536717"><ele>225.0</ele><time>2026-04-18T14:23:32.768Z</time></trkpt><trkpt lat="42.97903" lon="11.55398"><ele>225.0</ele><time>2026-04-18T14:23:33.766Z</time></trkpt><trkpt lat="42.979055" lon="11.5542967"><ele>227.0</ele><time>2026-04-18T14:23:34.768Z</time></trkpt><trkpt lat="42.97909" lon="11.5546"><ele>229.0</ele><time>2026-04-18T14:23:35.768Z</time></trkpt><trkpt lat="42.9791283" lon="11.554885"><ele>231.0</ele><time>2026-04-18T14:23:36.769Z</time></trkpt><trkpt lat="42.9791817" lon="11.55513"><ele>226.25</ele><time>2026-04-18T14:23:37.77Z</time></trkpt><trkpt lat="42.979235" lon="11.5553417"><ele>221.5</ele><time>2026-04-18T14:23:38.77Z</time></trkpt><trkpt lat="42.9792733" lon="11.555535"><ele>216.75</ele><time>2026-04-18T14:23:39.768Z</time></trkpt><trkpt lat="42.979275" lon="11.555715"><ele>212.0</ele><time>2026-04-18T14:23:40.769Z</time></trkpt><trkpt lat="42.9792283" lon="11.555885"><ele>218.33333333333334</ele><time>2026-04-18T14:23:41.77Z</time></trkpt><trkpt lat="42.97912" lon="11.556035"><ele>224.66666666666669</ele><time>2026-04-18T14:23:42.767Z</time></trkpt><trkpt lat="42.9789833" lon="11.5561617"><ele>231.0</ele><time>2026-04-18T14:23:43.769Z</time></trkpt><trkpt lat="42.9788417" lon="11.5562967"><ele>231.0</ele><time>2026-04-18T14:23:44.769Z</time></trkpt><trkpt lat="42.97871" lon="11.55646"><ele>231.0</ele><time>2026-04-18T14:23:45.77Z</time></trkpt><trkpt lat="42.9785983" lon="11.5566767"><ele>231.0</ele><time>2026-04-18T14:23:46.769Z</time></trkpt><trkpt lat="42.9784967" lon="11.5569267"><ele>230.33333333333331</ele><time>2026-04-18T14:23:47.766Z</time></trkpt><trkpt lat="42.9784" lon="11.5571817"><ele>229.66666666666666</ele><time>2026-04-18T14:23:48.766Z</time></trkpt><trkpt lat="42.9782933" lon="11.557435"><ele>229.0</ele><time>2026-04-18T14:23:49.77Z</time></trkpt><trkpt lat="42.978165" lon="11.5576633"><ele>233.33333333333331</ele><time>2026-04-18T14:23:50.77Z</time></trkpt><trkpt lat="42.9780283" lon="11.5578817"><ele>237.66666666666669</ele><time>2026-04-18T14:23:51.769Z</time></trkpt><trkpt lat="42.9779017" lon="11.5580817"><ele>242.0</ele><time>2026-04-18T14:23:52.765Z</time></trkpt><trkpt lat="42.977795" lon="11.5582467"><ele>242.0</ele><time>2026-04-18T14:23:53.769Z</time></trkpt><trkpt lat="42.9776917" lon="11.55838"><ele>242.0</ele><time>2026-04-18T14:23:54.765Z</time></trkpt><trkpt lat="42.97757" lon="11.5584483"><ele>242.0</ele><time>2026-04-18T14:23:55.77Z</time></trkpt><trkpt lat="42.9774283" lon="11.5584683"><ele>242.0</ele><time>2026-04-18T14:23:56.771Z</time></trkpt><trkpt lat="42.9772883" lon="11.5584133"><ele>244.75</ele><time>2026-04-18T14:23:57.77Z</time></trkpt><trkpt lat="42.9771467" lon="11.558375"><ele>247.5</ele><time>2026-04-18T14:23:58.763Z</time></trkpt><trkpt lat="42.977005" lon="11.5583767"><ele>250.25</ele><time>2026-04-18T14:23:59.77Z</time></trkpt><trkpt lat="42.9768683" lon="11.5584117"><ele>253.0</ele><time>2026-04-18T14:24:00.764Z</time></trkpt><trkpt lat="42.9767367" lon="11.5584983"><ele>256.66666666666663</ele><time>2026-04-18T14:24:01.77Z</time></trkpt><trkpt lat="42.9765817" lon="11.5585817"><ele>260.3333333333333</ele><time>2026-04-18T14:24:02.767Z</time></trkpt><trkpt lat="42.9764167" lon="11.5586417"><ele>264.0</ele><time>2026-04-18T14:24:03.766Z</time></trkpt><trkpt lat="42.97624" lon="11.5586633"><ele>264.0</ele><time>2026-04-18T14:24:04.766Z</time></trkpt><trkpt lat="42.9760567" lon="11.558635"><ele>264.0</ele><time>2026-04-18T14:24:05.769Z</time></trkpt><trkpt lat="42.9758767" lon="11.5586217"><ele>264.0</ele><time>2026-04-18T14:24:06.766Z</time></trkpt><trkpt lat="42.9757017" lon="11.5586217"><ele>262.6666666666667</ele><time>2026-04-18T14:24:07.766Z</time></trkpt><trkpt lat="42.9755317" lon="11.5586733"><ele>261.33333333333337</ele><time>2026-04-18T14:24:08.772Z</time></trkpt><trkpt lat="42.975385" lon="11.5587817"><ele>260.0</ele><time>2026-04-18T14:24:09.767Z</time></trkpt><trkpt lat="42.975265" lon="11.558885"><ele>260.0</ele><time>2026-04-18T14:24:10.768Z</time></trkpt><trkpt lat="42.975135" lon="11.5589383"><ele>260.0</ele><time>2026-04-18T14:24:11.77Z</time></trkpt><trkpt lat="42.9749933" lon="11.5589317"><ele>260.0</ele><time>2026-04-18T14:24:12.768Z</time></trkpt><trkpt lat="42.9748583" lon="11.5588533"><ele>260.0</ele><time>2026-04-18T14:24:13.767Z</time></trkpt><trkpt lat="42.9747467" lon="11.55876"><ele>261.2</ele><time>2026-04-18T14:24:14.768Z</time></trkpt><trkpt lat="42.9746333" lon="11.55871"><ele>262.4</ele><time>2026-04-18T14:24:15.766Z</time></trkpt><trkpt lat="42.9745333" lon="11.5587067"><ele>263.6</ele><time>2026-04-18T14:24:16.768Z</time></trkpt><trkpt lat="42.9744567" lon="11.5587717"><ele>264.8</ele><time>2026-04-18T14:24:17.77Z</time></trkpt><trkpt lat="42.9744017" lon="11.5588983"><ele>266.0</ele><time>2026-04-18T14:24:18.768Z</time></trkpt><trkpt lat="42.9743517" lon="11.55906"><ele>266.0</ele><time>2026-04-18T14:24:19.772Z</time></trkpt><trkpt lat="42.9742783" lon="11.5592"><ele>266.0</ele><time>2026-04-18T14:24:20.771Z</time></trkpt><trkpt lat="42.9741567" lon="11.5593283"><ele>266.0</ele><time>2026-04-18T14:24:21.765Z</time></trkpt><trkpt lat="42.97401" lon="11.5594333"><ele>266.0</ele><time>2026-04-18T14:24:22.769Z</time></trkpt><trkpt lat="42.9738483" lon="11.559545"><ele>269.0</ele><time>2026-04-18T14:24:23.764Z</time></trkpt><trkpt lat="42.9736833" lon="11.5597117"><ele>272.0</ele><time>2026-04-18T14:24:24.77Z</time></trkpt><trkpt lat="42.97354" lon="11.5598717"><ele>275.0</ele><time>2026-04-18T14:24:25.77Z</time></trkpt><trkpt lat="42.9734167" lon="11.56001"><ele>277.75</ele><time>2026-04-18T14:24:26.771Z</time></trkpt><trkpt lat="42.973315" lon="11.56013"><ele>280.5</ele><time>2026-04-18T14:24:27.769Z</time></trkpt><trkpt lat="42.9732483" lon="11.5602517"><ele>283.25</ele><time>2026-04-18T14:24:28.768Z</time></trkpt><trkpt lat="42.9732217" lon="11.560395"><ele>286.0</ele><time>2026-04-18T14:24:29.767Z</time></trkpt><trkpt lat="42.97323" lon="11.5605433"><ele>286.5</ele><time>2026-04-18T14:24:30.77Z</time></trkpt><trkpt lat="42.9732867" lon="11.5606633"><ele>287.0</ele><time>2026-04-18T14:24:31.77Z</time></trkpt><trkpt lat="42.9733983" lon="11.5607167"><ele>287.5</ele><time>2026-04-18T14:24:32.769Z</time></trkpt><trkpt lat="42.9735867" lon="11.5606783"><ele>288.0</ele><time>2026-04-18T14:24:33.767Z</time></trkpt><trkpt lat="42.973755" lon="11.560655"><ele>286.75</ele><time>2026-04-18T14:24:34.768Z</time></trkpt><trkpt lat="42.9739083" lon="11.56065"><ele>285.5</ele><time>2026-04-18T14:24:35.77Z</time></trkpt><trkpt lat="42.9740317" lon="11.560695"><ele>284.25</ele><time>2026-04-18T14:24:36.77Z</time></trkpt><trkpt lat="42.9741167" lon="11.560805"><ele>283.0</ele><time>2026-04-18T14:24:37.77Z</time></trkpt><trkpt lat="42.9741717" lon="11.5609567"><ele>282.0</ele><time>2026-04-18T14:24:38.773Z</time></trkpt><trkpt lat="42.974205" lon="11.5611383"><ele>281.0</ele><time>2026-04-18T14:24:39.768Z</time></trkpt><trkpt lat="42.9742217" lon="11.561375"><ele>280.0</ele><time>2026-04-18T14:24:40.764Z</time></trkpt><trkpt lat="42.9742367" lon="11.56162"><ele>280.0</ele><time>2026-04-18T14:24:41.77Z</time></trkpt><trkpt lat="42.97424" lon="11.5618583"><ele>280.0</ele><time>2026-04-18T14:24:42.772Z</time></trkpt><trkpt lat="42.9742367" lon="11.5620667"><ele>280.0</ele><time>2026-04-18T14:24:43.769Z</time></trkpt><trkpt lat="42.9742533" lon="11.5622567"><ele>283.0</ele><time>2026-04-18T14:24:44.77Z</time></trkpt><trkpt lat="42.97431" lon="11.562445"><ele>286.0</ele><time>2026-04-18T14:24:45.763Z</time></trkpt><trkpt lat="42.9744033" lon="11.5626217"><ele>289.0</ele><time>2026-04-18T14:24:46.765Z</time></trkpt><trkpt lat="42.974545" lon="11.56277"><ele>289.0</ele><time>2026-04-18T14:24:47.77Z</time></trkpt><trkpt lat="42.9747183" lon="11.5628583"><ele>289.0</ele><time>2026-04-18T14:24:48.77Z</time></trkpt><trkpt lat="42.9749067" lon="11.5628967"><ele>289.0</ele><time>2026-04-18T14:24:49.768Z</time></trkpt><trkpt lat="42.975095" lon="11.5628767"><ele>288.75</ele><time>2026-04-18T14:24:50.768Z</time></trkpt><trkpt lat="42.975265" lon="11.5628617"><ele>288.5</ele><time>2026-04-18T14:24:51.765Z</time></trkpt><trkpt lat="42.9754033" lon="11.5629067"><ele>288.25</ele><time>2026-04-18T14:24:52.77Z</time></trkpt><trkpt lat="42.9754933" lon="11.5630067"><ele>288.0</ele><time>2026-04-18T14:24:53.77Z</time></trkpt><trkpt lat="42.975525" lon="11.5631617"><ele>288.0</ele><time>2026-04-18T14:24:54.769Z</time></trkpt><trkpt lat="42.9754967" lon="11.563365"><ele>288.0</ele><time>2026-04-18T14:24:55.769Z</time></trkpt><trkpt lat="42.975435" lon="11.5635917"><ele>288.0</ele><time>2026-04-18T14:24:56.772Z</time></trkpt><trkpt lat="42.9753817" lon="11.5638117"><ele>285.3333333333333</ele><time>2026-04-18T14:24:57.769Z</time></trkpt><trkpt lat="42.9753333" lon="11.56403"><ele>282.66666666666663</ele><time>2026-04-18T14:24:58.77Z</time></trkpt><trkpt lat="42.9752667" lon="11.56423"><ele>280.0</ele><time>2026-04-18T14:24:59.767Z</time></trkpt><trkpt lat="42.9751817" lon="11.5644133"><ele>279.0</ele><time>2026-04-18T14:25:00.765Z</time></trkpt><trkpt lat="42.9750683" lon="11.5645783"><ele>278.0</ele><time>2026-04-18T14:25:01.768Z</time></trkpt><trkpt lat="42.9749283" lon="11.5647317"><ele>277.0</ele><time>2026-04-18T14:25:02.771Z</time></trkpt><trkpt lat="42.9747817" lon="11.5648833"><ele>282.0</ele><time>2026-04-18T14:25:03.769Z</time></trkpt><trkpt lat="42.9746333" lon="11.5650517"><ele>287.0</ele><time>2026-04-18T14:25:04.77Z</time></trkpt><trkpt lat="42.9745033" lon="11.5652533"><ele>292.0</ele><time>2026-04-18T14:25:05.771Z</time></trkpt><trkpt lat="42.9743933" lon="11.5654767"><ele>292.0</ele><time>2026-04-18T14:25:06.77Z</time></trkpt><trkpt lat="42.9743" lon="11.5657233"><ele>292.0</ele><time>2026-04-18T14:25:07.768Z</time></trkpt><trkpt lat="42.9742333" lon="11.5659917"><ele>292.0</ele><time>2026-04-18T14:25:08.772Z</time></trkpt><trkpt lat="42.974185" lon="11.5662367"><ele>296.0</ele><time>2026-04-18T14:25:09.767Z</time></trkpt><trkpt lat="42.974155" lon="11.56646"><ele>300.0</ele><time>2026-04-18T14:25:10.77Z</time></trkpt><trkpt lat="42.974135" lon="11.5666583"><ele>304.0</ele><time>2026-04-18T14:25:11.769Z</time></trkpt><trkpt lat="42.9740967" lon="11.5668333"><ele>308.0</ele><time>2026-04-18T14:25:12.77Z</time></trkpt><trkpt lat="42.97403" lon="11.5669917"><ele>306.6666666666667</ele><time>2026-04-18T14:25:13.769Z</time></trkpt><trkpt lat="42.9739017" lon="11.567095"><ele>305.3333333333333</ele><time>2026-04-18T14:25:14.771Z</time></trkpt><trkpt lat="42.9737417" lon="11.56719"><ele>304.0</ele><time>2026-04-18T14:25:15.77Z</time></trkpt><trkpt lat="42.9735567" lon="11.5672983"><ele>304.0</ele><time>2026-04-18T14:25:16.77Z</time></trkpt><trkpt lat="42.9733617" lon="11.5674217"><ele>304.0</ele><time>2026-04-18T14:25:17.769Z</time></trkpt><trkpt lat="42.9731667" lon="11.56754"><ele>304.0</ele><time>2026-04-18T14:25:18.769Z</time></trkpt><trkpt lat="42.972975" lon="11.56764"><ele>308.3333333333333</ele><time>2026-04-18T14:25:19.766Z</time></trkpt><trkpt lat="42.9728033" lon="11.567735"><ele>312.6666666666667</ele><time>2026-04-18T14:25:20.769Z</time></trkpt><trkpt lat="42.9726467" lon="11.567845"><ele>317.0</ele><time>2026-04-18T14:25:21.769Z</time></trkpt><trkpt lat="42.9725133" lon="11.5679967"><ele>318.6666666666667</ele><time>2026-04-18T14:25:22.765Z</time></trkpt><trkpt lat="42.9724117" lon="11.5682017"><ele>320.3333333333333</ele><time>2026-04-18T14:25:23.77Z</time></trkpt><trkpt lat="42.972355" lon="11.5684533"><ele>322.0</ele><time>2026-04-18T14:25:24.772Z</time></trkpt><trkpt lat="42.9723367" lon="11.568705"><ele>322.0</ele><time>2026-04-18T14:25:25.769Z</time></trkpt><trkpt lat="42.972295" lon="11.56895"><ele>322.0</ele><time>2026-04-18T14:25:26.771Z</time></trkpt><trkpt lat="42.9722183" lon="11.56919"><ele>322.0</ele><time>2026-04-18T14:25:27.77Z</time></trkpt><trkpt lat="42.9720917" lon="11.56941"><ele>321.66666666666663</ele><time>2026-04-18T14:25:28.771Z</time></trkpt><trkpt lat="42.971945" lon="11.5695917"><ele>321.3333333333333</ele><time>2026-04-18T14:25:29.77Z</time></trkpt><trkpt lat="42.971805" lon="11.5697533"><ele>321.0</ele><time>2026-04-18T14:25:30.77Z</time></trkpt><trkpt lat="42.9716783" lon="11.5699383"><ele>323.0</ele><time>2026-04-18T14:25:31.768Z</time></trkpt><trkpt lat="42.971575" lon="11.5701633"><ele>325.0</ele><time>2026-04-18T14:25:32.772Z</time></trkpt><trkpt lat="42.97149" lon="11.5704217"><ele>327.0</ele><time>2026-04-18T14:25:33.766Z</time></trkpt><trkpt lat="42.97141" lon="11.570695"><ele>328.3333333333333</ele><time>2026-04-18T14:25:34.771Z</time></trkpt><trkpt lat="42.971325" lon="11.57096"><ele>329.66666666666663</ele><time>2026-04-18T14:25:35.766Z</time></trkpt><trkpt lat="42.971245" lon="11.571225"><ele>331.0</ele><time>2026-04-18T14:25:36.77Z</time></trkpt><trkpt lat="42.9711717" lon="11.5714767"><ele>333.0</ele><time>2026-04-18T14:25:37.77Z</time></trkpt><trkpt lat="42.9711033" lon="11.5717233"><ele>335.0</ele><time>2026-04-18T14:25:38.771Z</time></trkpt><trkpt lat="42.9710433" lon="11.5719583"><ele>337.0</ele><time>2026-04-18T14:25:39.77Z</time></trkpt><trkpt lat="42.9710083" lon="11.5721817"><ele>338.75</ele><time>2026-04-18T14:25:40.77Z</time></trkpt><trkpt lat="42.97099" lon="11.5723917"><ele>340.5</ele><time>2026-04-18T14:25:41.769Z</time></trkpt><trkpt lat="42.9709833" lon="11.5725933"><ele>342.25</ele><time>2026-04-18T14:25:42.769Z</time></trkpt><trkpt lat="42.9709783" lon="11.5727833"><ele>344.0</ele><time>2026-04-18T14:25:43.769Z</time></trkpt><trkpt lat="42.9709733" lon="11.57296"><ele>345.5</ele><time>2026-04-18T14:25:44.773Z</time></trkpt><trkpt lat="42.970945" lon="11.57312"><ele>347.0</ele><time>2026-04-18T14:25:45.769Z</time></trkpt><trkpt lat="42.970895" lon="11.57326"><ele>348.5</ele><time>2026-04-18T14:25:46.769Z</time></trkpt><trkpt lat="42.970815" lon="11.5733683"><ele>350.0</ele><time>2026-04-18T14:25:47.77Z</time></trkpt><trkpt lat="42.9707083" lon="11.5734267"><ele>350.0</ele><time>2026-04-18T14:25:48.769Z</time></trkpt><trkpt lat="42.9706017" lon="11.573465"><ele>350.0</ele><time>2026-04-18T14:25:49.769Z</time></trkpt><trkpt lat="42.970505" lon="11.573495"><ele>350.0</ele><time>2026-04-18T14:25:50.77Z</time></trkpt><trkpt lat="42.970425" lon="11.5735283"><ele>350.0</ele><time>2026-04-18T14:25:51.768Z</time></trkpt><trkpt lat="42.9703617" lon="11.57356"><ele>350.0</ele><time>2026-04-18T14:25:52.768Z</time></trkpt><trkpt lat="42.970275" lon="11.5736017"><ele>350.0</ele><time>2026-04-18T14:25:54.77Z</time></trkpt><trkpt lat="42.97023" lon="11.5736717"><ele>350.0</ele><time>2026-04-18T14:26:10.771Z</time></trkpt><trkpt lat="42.970165" lon="11.5738367"><ele>350.0</ele><time>2026-04-18T14:26:12.769Z</time></trkpt><trkpt lat="42.970105" lon="11.5739267"><ele>350.0</ele><time>2026-04-18T14:26:13.77Z</time></trkpt><trkpt lat="42.970025" lon="11.5740083"><ele>350.0</ele><time>2026-04-18T14:26:14.772Z</time></trkpt><trkpt lat="42.969925" lon="11.5740767"><ele>352.0</ele><time>2026-04-18T14:26:15.767Z</time></trkpt><trkpt lat="42.9698017" lon="11.5741567"><ele>354.0</ele><time>2026-04-18T14:26:16.771Z</time></trkpt><trkpt lat="42.9696783" lon="11.5742367"><ele>356.0</ele><time>2026-04-18T14:26:17.77Z</time></trkpt><trkpt lat="42.96957" lon="11.5743083"><ele>358.0</ele><time>2026-04-18T14:26:18.772Z</time></trkpt><trkpt lat="42.9694883" lon="11.57438"><ele>358.0</ele><time>2026-04-18T14:26:19.769Z</time></trkpt><trkpt lat="42.9694267" lon="11.5744633"><ele>358.0</ele><time>2026-04-18T14:26:20.764Z</time></trkpt><trkpt lat="42.9693833" lon="11.574555"><ele>358.0</ele><time>2026-04-18T14:26:21.768Z</time></trkpt><trkpt lat="42.9693767" lon="11.5746483"><ele>358.0</ele><time>2026-04-18T14:26:22.768Z</time></trkpt><trkpt lat="42.969435" lon="11.574775"><ele>358.0</ele><time>2026-04-18T14:26:23.769Z</time></trkpt><trkpt lat="42.969535" lon="11.57487"><ele>361.0</ele><time>2026-04-18T14:26:24.768Z</time></trkpt><trkpt lat="42.9696617" lon="11.574945"><ele>364.0</ele><time>2026-04-18T14:26:25.767Z</time></trkpt><trkpt lat="42.9698067" lon="11.57502"><ele>367.0</ele><time>2026-04-18T14:26:26.773Z</time></trkpt><trkpt lat="42.9699483" lon="11.57509"><ele>370.0</ele><time>2026-04-18T14:26:27.769Z</time></trkpt><trkpt lat="42.9700883" lon="11.5751417"><ele>371.3333333333333</ele><time>2026-04-18T14:26:28.772Z</time></trkpt><trkpt lat="42.9702433" lon="11.57514"><ele>372.6666666666667</ele><time>2026-04-18T14:26:29.767Z</time></trkpt><trkpt lat="42.970405" lon="11.57509"><ele>374.0</ele><time>2026-04-18T14:26:30.771Z</time></trkpt><trkpt lat="42.9705667" lon="11.5749967"><ele>374.0</ele><time>2026-04-18T14:26:31.77Z</time></trkpt><trkpt lat="42.97071" lon="11.57493"><ele>374.0</ele><time>2026-04-18T14:26:32.771Z</time></trkpt><trkpt lat="42.9708467" lon="11.5748967"><ele>374.0</ele><time>2026-04-18T14:26:33.771Z</time></trkpt><trkpt lat="42.9709667" lon="11.57491"><ele>374.0</ele><time>2026-04-18T14:26:34.771Z</time></trkpt><trkpt lat="42.971075" lon="11.574965"><ele>372.6666666666667</ele><time>2026-04-18T14:26:35.767Z</time></trkpt><trkpt lat="42.9711683" lon="11.5750933"><ele>371.3333333333333</ele><time>2026-04-18T14:26:36.772Z</time></trkpt><trkpt lat="42.9712217" lon="11.5753133"><ele>370.0</ele><time>2026-04-18T14:26:37.77Z</time></trkpt><trkpt lat="42.9712733" lon="11.5755467"><ele>372.66666666666663</ele><time>2026-04-18T14:26:38.772Z</time></trkpt><trkpt lat="42.971335" lon="11.5757683"><ele>375.3333333333333</ele><time>2026-04-18T14:26:39.769Z</time></trkpt><trkpt lat="42.9714283" lon="11.5759567"><ele>378.0</ele><time>2026-04-18T14:26:40.77Z</time></trkpt><trkpt lat="42.971535" lon="11.5760967"><ele>378.75</ele><time>2026-04-18T14:26:41.768Z</time></trkpt><trkpt lat="42.9716283" lon="11.5762183"><ele>379.5</ele><time>2026-04-18T14:26:42.77Z</time></trkpt><trkpt lat="42.9717067" lon="11.5763467"><ele>380.25</ele><time>2026-04-18T14:26:43.77Z</time></trkpt><trkpt lat="42.9717467" lon="11.576485"><ele>381.0</ele><time>2026-04-18T14:26:44.772Z</time></trkpt><trkpt lat="42.9717583" lon="11.5766367"><ele>381.0</ele><time>2026-04-18T14:26:45.769Z</time></trkpt><trkpt lat="42.9717267" lon="11.5767917"><ele>381.0</ele><time>2026-04-18T14:26:46.771Z</time></trkpt><trkpt lat="42.971665" lon="11.5769033"><ele>381.0</ele><time>2026-04-18T14:26:47.77Z</time></trkpt><trkpt lat="42.9715867" lon="11.5769817"><ele>381.0</ele><time>2026-04-18T14:26:48.769Z</time></trkpt><trkpt lat="42.9714983" lon="11.5770433"><ele>381.0</ele><time>2026-04-18T14:26:49.77Z</time></trkpt><trkpt lat="42.9713667" lon="11.576955"><ele>383.0</ele><time>2026-04-18T14:26:50.77Z</time></trkpt><trkpt lat="42.9712367" lon="11.576885"><ele>385.0</ele><time>2026-04-18T14:26:51.769Z</time></trkpt><trkpt lat="42.9710667" lon="11.5767"><ele>387.0</ele><time>2026-04-18T14:26:52.764Z</time></trkpt><trkpt lat="42.97093" lon="11.57654"><ele>389.0</ele><time>2026-04-18T14:26:53.77Z</time></trkpt><trkpt lat="42.9708" lon="11.576395"><ele>391.0</ele><time>2026-04-18T14:26:54.771Z</time></trkpt><trkpt lat="42.9706767" lon="11.5763317"><ele>393.0</ele><time>2026-04-18T14:26:55.77Z</time></trkpt><trkpt lat="42.97056" lon="11.5763317"><ele>395.0</ele><time>2026-04-18T14:26:56.77Z</time></trkpt><trkpt lat="42.9704467" lon="11.5763883"><ele>395.0</ele><time>2026-04-18T14:26:57.771Z</time></trkpt><trkpt lat="42.9703383" lon="11.5765017"><ele>395.0</ele><time>2026-04-18T14:26:58.769Z</time></trkpt><trkpt lat="42.9702567" lon="11.576635"><ele>395.0</ele><time>2026-04-18T14:26:59.769Z</time></trkpt><trkpt lat="42.9702217" lon="11.5767933"><ele>395.0</ele><time>2026-04-18T14:27:00.771Z</time></trkpt><trkpt lat="42.9702333" lon="11.576955"><ele>397.25</ele><time>2026-04-18T14:27:01.77Z</time></trkpt><trkpt lat="42.97032" lon="11.5770983"><ele>399.5</ele><time>2026-04-18T14:27:02.772Z</time></trkpt><trkpt lat="42.9704383" lon="11.5771767"><ele>401.75</ele><time>2026-04-18T14:27:03.769Z</time></trkpt><trkpt lat="42.9705733" lon="11.5771833"><ele>404.0</ele><time>2026-04-18T14:27:04.77Z</time></trkpt><trkpt lat="42.9707333" lon="11.57712"><ele>402.0</ele><time>2026-04-18T14:27:05.771Z</time></trkpt><trkpt lat="42.9708833" lon="11.5771067"><ele>400.0</ele><time>2026-04-18T14:27:06.77Z</time></trkpt><trkpt lat="42.97103" lon="11.5771783"><ele>398.0</ele><time>2026-04-18T14:27:07.767Z</time></trkpt><trkpt lat="42.971155" lon="11.5773333"><ele>398.0</ele><time>2026-04-18T14:27:08.771Z</time></trkpt><trkpt lat="42.9712433" lon="11.577515"><ele>398.0</ele><time>2026-04-18T14:27:09.77Z</time></trkpt><trkpt lat="42.9713183" lon="11.577705"><ele>398.0</ele><time>2026-04-18T14:27:10.769Z</time></trkpt><trkpt lat="42.9714167" lon="11.577875"><ele>400.3333333333333</ele><time>2026-04-18T14:27:11.769Z</time></trkpt><trkpt lat="42.97154" lon="11.578005"><ele>402.66666666666663</ele><time>2026-04-18T14:27:12.77Z</time></trkpt><trkpt lat="42.97167" lon="11.5781133"><ele>405.0</ele><time>2026-04-18T14:27:13.769Z</time></trkpt><trkpt lat="42.971795" lon="11.5782433"><ele>405.0</ele><time>2026-04-18T14:27:14.771Z</time></trkpt><trkpt lat="42.9719033" lon="11.5784083"><ele>405.0</ele><time>2026-04-18T14:27:15.769Z</time></trkpt><trkpt lat="42.97201" lon="11.578575"><ele>405.0</ele><time>2026-04-18T14:27:16.764Z</time></trkpt><trkpt lat="42.9721433" lon="11.5787017"><ele>405.33333333333337</ele><time>2026-04-18T14:27:17.768Z</time></trkpt><trkpt lat="42.9723067" lon="11.57878"><ele>405.6666666666667</ele><time>2026-04-18T14:27:18.765Z</time></trkpt><trkpt lat="42.9724683" lon="11.5788333"><ele>406.0</ele><time>2026-04-18T14:27:19.769Z</time></trkpt><trkpt lat="42.972605" lon="11.5788883"><ele>406.0</ele><time>2026-04-18T14:27:20.77Z</time></trkpt><trkpt lat="42.972705" lon="11.5789717"><ele>406.0</ele><time>2026-04-18T14:27:21.771Z</time></trkpt><trkpt lat="42.9727567" lon="11.5790867"><ele>406.0</ele><time>2026-04-18T14:27:22.767Z</time></trkpt><trkpt lat="42.972765" lon="11.5792267"><ele>406.0</ele><time>2026-04-18T14:27:23.77Z</time></trkpt><trkpt lat="42.972725" lon="11.5793717"><ele>406.0</ele><time>2026-04-18T14:27:24.77Z</time></trkpt><trkpt lat="42.97266" lon="11.5794767"><ele>409.6666666666667</ele><time>2026-04-18T14:27:25.768Z</time></trkpt><trkpt lat="42.972595" lon="11.579545"><ele>413.33333333333337</ele><time>2026-04-18T14:27:26.772Z</time></trkpt><trkpt lat="42.97248" lon="11.5795317"><ele>417.0</ele><time>2026-04-18T14:27:27.766Z</time></trkpt><trkpt lat="42.9722017" lon="11.5793967"><ele>417.0</ele><time>2026-04-18T14:27:28.763Z</time></trkpt><trkpt lat="42.972005" lon="11.57938"><ele>417.0</ele><time>2026-04-18T14:27:29.77Z</time></trkpt><trkpt lat="42.9717517" lon="11.579365"><ele>420.0</ele><time>2026-04-18T14:27:30.771Z</time></trkpt><trkpt lat="42.971505" lon="11.5793983"><ele>423.0</ele><time>2026-04-18T14:27:31.772Z</time></trkpt><trkpt lat="42.971285" lon="11.5794567"><ele>426.66666666666663</ele><time>2026-04-18T14:27:32.772Z</time></trkpt><trkpt lat="42.971095" lon="11.5795483"><ele>430.3333333333333</ele><time>2026-04-18T14:27:33.771Z</time></trkpt><trkpt lat="42.970925" lon="11.5796667"><ele>434.0</ele><time>2026-04-18T14:27:34.77Z</time></trkpt><trkpt lat="42.970765" lon="11.57976"><ele>434.66666666666663</ele><time>2026-04-18T14:27:35.769Z</time></trkpt><trkpt lat="42.9706067" lon="11.579785"><ele>435.33333333333337</ele><time>2026-04-18T14:27:36.77Z</time></trkpt><trkpt lat="42.9704433" lon="11.5797517"><ele>436.0</ele><time>2026-04-18T14:27:37.761Z</time></trkpt><trkpt lat="42.9702883" lon="11.57971"><ele>436.0</ele><time>2026-04-18T14:27:38.761Z</time></trkpt><trkpt lat="42.9701333" lon="11.579705"><ele>436.0</ele><time>2026-04-18T14:27:39.768Z</time></trkpt><trkpt lat="42.96998" lon="11.5797717"><ele>436.0</ele><time>2026-04-18T14:27:40.77Z</time></trkpt><trkpt lat="42.9698267" lon="11.5799083"><ele>436.6666666666667</ele><time>2026-04-18T14:27:41.768Z</time></trkpt><trkpt lat="42.9696683" lon="11.5800783"><ele>437.33333333333337</ele><time>2026-04-18T14:27:42.768Z</time></trkpt><trkpt lat="42.9695067" lon="11.5802567"><ele>438.0</ele><time>2026-04-18T14:27:43.77Z</time></trkpt><trkpt lat="42.969345" lon="11.580435"><ele>441.33333333333337</ele><time>2026-04-18T14:27:44.773Z</time></trkpt><trkpt lat="42.9691867" lon="11.580605"><ele>444.6666666666667</ele><time>2026-04-18T14:27:45.77Z</time></trkpt><trkpt lat="42.9690383" lon="11.580755"><ele>448.0</ele><time>2026-04-18T14:27:46.77Z</time></trkpt><trkpt lat="42.9688983" lon="11.5808983"><ele>448.0</ele><time>2026-04-18T14:27:47.771Z</time></trkpt><trkpt lat="42.96877" lon="11.5810667"><ele>448.0</ele><time>2026-04-18T14:27:48.765Z</time></trkpt><trkpt lat="42.96867" lon="11.5812783"><ele>448.0</ele><time>2026-04-18T14:27:49.769Z</time></trkpt><trkpt lat="42.9686083" lon="11.58153"><ele>451.0</ele><time>2026-04-18T14:27:50.77Z</time></trkpt><trkpt lat="42.968585" lon="11.5818067"><ele>454.0</ele><time>2026-04-18T14:27:51.77Z</time></trkpt><trkpt lat="42.9685883" lon="11.5820783"><ele>457.0</ele><time>2026-04-18T14:27:52.764Z</time></trkpt><trkpt lat="42.968605" lon="11.5823333"><ele>459.25</ele><time>2026-04-18T14:27:53.77Z</time></trkpt><trkpt lat="42.968615" lon="11.5825483"><ele>461.5</ele><time>2026-04-18T14:27:54.771Z</time></trkpt><trkpt lat="42.9686" lon="11.5827367"><ele>463.75</ele><time>2026-04-18T14:27:55.77Z</time></trkpt><trkpt lat="42.9685533" lon="11.5828833"><ele>466.0</ele><time>2026-04-18T14:27:56.769Z</time></trkpt><trkpt lat="42.968485" lon="11.5829867"><ele>465.5</ele><time>2026-04-18T14:27:57.767Z</time></trkpt><trkpt lat="42.9683683" lon="11.5830283"><ele>465.0</ele><time>2026-04-18T14:27:58.768Z</time></trkpt><trkpt lat="42.968225" lon="11.5830633"><ele>464.5</ele><time>2026-04-18T14:27:59.771Z</time></trkpt><trkpt lat="42.9680483" lon="11.5830933"><ele>464.0</ele><time>2026-04-18T14:28:00.767Z</time></trkpt><trkpt lat="42.9679067" lon="11.5832017"><ele>464.0</ele><time>2026-04-18T14:28:01.77Z</time></trkpt><trkpt lat="42.9677983" lon="11.58334"><ele>464.0</ele><time>2026-04-18T14:28:02.767Z</time></trkpt><trkpt lat="42.9677267" lon="11.583505"><ele>464.0</ele><time>2026-04-18T14:28:03.77Z</time></trkpt><trkpt lat="42.9677" lon="11.5836917"><ele>464.0</ele><time>2026-04-18T14:28:04.768Z</time></trkpt><trkpt lat="42.9677283" lon="11.58387"><ele>467.0</ele><time>2026-04-18T14:28:05.766Z</time></trkpt><trkpt lat="42.9678433" lon="11.58403"><ele>470.0</ele><time>2026-04-18T14:28:06.773Z</time></trkpt><trkpt lat="42.9679833" lon="11.5841383"><ele>473.0</ele><time>2026-04-18T14:28:07.77Z</time></trkpt><trkpt lat="42.968115" lon="11.5841883"><ele>473.0</ele><time>2026-04-18T14:28:08.773Z</time></trkpt><trkpt lat="42.96828" lon="11.58413"><ele>473.0</ele><time>2026-04-18T14:28:09.769Z</time></trkpt><trkpt lat="42.9684467" lon="11.5840383"><ele>473.0</ele><time>2026-04-18T14:28:10.766Z</time></trkpt><trkpt lat="42.968595" lon="11.5838417"><ele>472.25</ele><time>2026-04-18T14:28:11.762Z</time></trkpt><trkpt lat="42.9687233" lon="11.583705"><ele>471.5</ele><time>2026-04-18T14:28:12.771Z</time></trkpt><trkpt lat="42.96884" lon="11.5836433"><ele>470.75</ele><time>2026-04-18T14:28:13.767Z</time></trkpt><trkpt lat="42.9689583" lon="11.58367"><ele>470.0</ele><time>2026-04-18T14:28:14.771Z</time></trkpt><trkpt lat="42.96906" lon="11.5837917"><ele>472.5</ele><time>2026-04-18T14:28:15.769Z</time></trkpt><trkpt lat="42.96917" lon="11.5838833"><ele>475.0</ele><time>2026-04-18T14:28:16.77Z</time></trkpt><trkpt lat="42.9692967" lon="11.5839233"><ele>477.5</ele><time>2026-04-18T14:28:17.767Z</time></trkpt><trkpt lat="42.969415" lon="11.583895"><ele>480.0</ele><time>2026-04-18T14:28:18.766Z</time></trkpt><trkpt lat="42.9695267" lon="11.5837667"><ele>480.66666666666663</ele><time>2026-04-18T14:28:19.765Z</time></trkpt><trkpt lat="42.9696433" lon="11.5835933"><ele>481.3333333333333</ele><time>2026-04-18T14:28:20.768Z</time></trkpt><trkpt lat="42.969735" lon="11.583425"><ele>482.0</ele><time>2026-04-18T14:28:21.769Z</time></trkpt><trkpt lat="42.9698383" lon="11.58327"><ele>482.0</ele><time>2026-04-18T14:28:22.768Z</time></trkpt><trkpt lat="42.9699517" lon="11.5831267"><ele>482.0</ele><time>2026-04-18T14:28:23.766Z</time></trkpt><trkpt lat="42.970085" lon="11.5830317"><ele>482.0</ele><time>2026-04-18T14:28:24.771Z</time></trkpt><trkpt lat="42.9702233" lon="11.58299"><ele>482.0</ele><time>2026-04-18T14:28:25.77Z</time></trkpt><trkpt lat="42.970375" lon="11.5830183"><ele>482.3333333333333</ele><time>2026-04-18T14:28:26.769Z</time></trkpt><trkpt lat="42.97053" lon="11.58314"><ele>482.66666666666663</ele><time>2026-04-18T14:28:27.765Z</time></trkpt><trkpt lat="42.970675" lon="11.5833"><ele>483.0</ele><time>2026-04-18T14:28:28.767Z</time></trkpt><trkpt lat="42.9707967" lon="11.58344"><ele>483.33333333333337</ele><time>2026-04-18T14:28:29.769Z</time></trkpt><trkpt lat="42.97087" lon="11.5836117"><ele>483.6666666666667</ele><time>2026-04-18T14:28:30.766Z</time></trkpt><trkpt lat="42.9709" lon="11.583805"><ele>484.0</ele><time>2026-04-18T14:28:31.77Z</time></trkpt><trkpt lat="42.9708783" lon="11.5840283"><ele>486.33333333333337</ele><time>2026-04-18T14:28:32.769Z</time></trkpt><trkpt lat="42.9708067" lon="11.5842617"><ele>488.66666666666663</ele><time>2026-04-18T14:28:33.77Z</time></trkpt><trkpt lat="42.9707617" lon="11.5844667"><ele>491.0</ele><time>2026-04-18T14:28:34.765Z</time></trkpt><trkpt lat="42.97076" lon="11.5846633"><ele>491.3333333333333</ele><time>2026-04-18T14:28:35.761Z</time></trkpt><trkpt lat="42.9708183" lon="11.5848433"><ele>491.66666666666663</ele><time>2026-04-18T14:28:36.766Z</time></trkpt><trkpt lat="42.9709417" lon="11.5850017"><ele>492.0</ele><time>2026-04-18T14:28:37.77Z</time></trkpt><trkpt lat="42.9710817" lon="11.5851483"><ele>492.0</ele><time>2026-04-18T14:28:38.77Z</time></trkpt><trkpt lat="42.97122" lon="11.5852967"><ele>492.0</ele><time>2026-04-18T14:28:39.77Z</time></trkpt><trkpt lat="42.9713383" lon="11.585455"><ele>492.0</ele><time>2026-04-18T14:28:40.765Z</time></trkpt><trkpt lat="42.9714433" lon="11.5856417"><ele>494.0</ele><time>2026-04-18T14:28:41.771Z</time></trkpt><trkpt lat="42.9715333" lon="11.5858583"><ele>496.0</ele><time>2026-04-18T14:28:42.766Z</time></trkpt><trkpt lat="42.9716233" lon="11.58609"><ele>498.0</ele><time>2026-04-18T14:28:43.764Z</time></trkpt><trkpt lat="42.9717133" lon="11.5863367"><ele>498.0</ele><time>2026-04-18T14:28:44.772Z</time></trkpt><trkpt lat="42.9718167" lon="11.58658"><ele>498.0</ele><time>2026-04-18T14:28:45.767Z</time></trkpt><trkpt lat="42.9719317" lon="11.5868"><ele>498.0</ele><time>2026-04-18T14:28:46.765Z</time></trkpt><trkpt lat="42.9720433" lon="11.58701"><ele>501.66666666666663</ele><time>2026-04-18T14:28:47.769Z</time></trkpt><trkpt lat="42.9721367" lon="11.5872233"><ele>505.3333333333333</ele><time>2026-04-18T14:28:48.769Z</time></trkpt><trkpt lat="42.9722133" lon="11.5874467"><ele>509.0</ele><time>2026-04-18T14:28:49.768Z</time></trkpt><trkpt lat="42.9722833" lon="11.587665"><ele>510.75</ele><time>2026-04-18T14:28:50.769Z</time></trkpt><trkpt lat="42.9723483" lon="11.5878617"><ele>512.5</ele><time>2026-04-18T14:28:51.764Z</time></trkpt><trkpt lat="42.9724217" lon="11.588035"><ele>514.25</ele><time>2026-04-18T14:28:52.764Z</time></trkpt><trkpt lat="42.972515" lon="11.5881783"><ele>516.0</ele><time>2026-04-18T14:28:53.766Z</time></trkpt><trkpt lat="42.97262" lon="11.588295"><ele>516.0</ele><time>2026-04-18T14:28:54.765Z</time></trkpt><trkpt lat="42.9727333" lon="11.5884033"><ele>516.0</ele><time>2026-04-18T14:28:55.768Z</time></trkpt><trkpt lat="42.9728383" lon="11.58851"><ele>516.0</ele><time>2026-04-18T14:28:56.771Z</time></trkpt><trkpt lat="42.9729333" lon="11.58863"><ele>516.0</ele><time>2026-04-18T14:28:57.765Z</time></trkpt><trkpt lat="42.97301" lon="11.5887733"><ele>518.25</ele><time>2026-04-18T14:28:58.768Z</time></trkpt><trkpt lat="42.9730717" lon="11.5889367"><ele>520.5</ele><time>2026-04-18T14:28:59.771Z</time></trkpt><trkpt lat="42.9731183" lon="11.5891"><ele>522.75</ele><time>2026-04-18T14:29:00.769Z</time></trkpt><trkpt lat="42.97316" lon="11.5892617"><ele>525.0</ele><time>2026-04-18T14:29:01.769Z</time></trkpt><trkpt lat="42.9732183" lon="11.589425"><ele>524.0</ele><time>2026-04-18T14:29:02.763Z</time></trkpt><trkpt lat="42.9732817" lon="11.58959"><ele>523.0</ele><time>2026-04-18T14:29:03.772Z</time></trkpt><trkpt lat="42.9733467" lon="11.5897567"><ele>522.0</ele><time>2026-04-18T14:29:04.767Z</time></trkpt><trkpt lat="42.9734083" lon="11.589935"><ele>521.0</ele><time>2026-04-18T14:29:05.77Z</time></trkpt><trkpt lat="42.97347" lon="11.590115"><ele>521.0</ele><time>2026-04-18T14:29:06.769Z</time></trkpt><trkpt lat="42.9735233" lon="11.5902983"><ele>521.0</ele><time>2026-04-18T14:29:07.769Z</time></trkpt><trkpt lat="42.9735783" lon="11.590485"><ele>521.0</ele><time>2026-04-18T14:29:08.773Z</time></trkpt><trkpt lat="42.9736283" lon="11.590675"><ele>521.0</ele><time>2026-04-18T14:29:09.766Z</time></trkpt><trkpt lat="42.9736817" lon="11.5908717"><ele>522.0</ele><time>2026-04-18T14:29:10.77Z</time></trkpt><trkpt lat="42.9737433" lon="11.591075"><ele>523.0</ele><time>2026-04-18T14:29:11.765Z</time></trkpt><trkpt lat="42.9738183" lon="11.5912817"><ele>524.0</ele><time>2026-04-18T14:29:12.768Z</time></trkpt><trkpt lat="42.9739167" lon="11.5914883"><ele>525.3333333333333</ele><time>2026-04-18T14:29:13.766Z</time></trkpt><trkpt lat="42.9740333" lon="11.5916917"><ele>526.6666666666666</ele><time>2026-04-18T14:29:14.77Z</time></trkpt><trkpt lat="42.9741517" lon="11.59189"><ele>528.0</ele><time>2026-04-18T14:29:15.766Z</time></trkpt><trkpt lat="42.97427" lon="11.5920683"><ele>528.0</ele><time>2026-04-18T14:29:16.77Z</time></trkpt><trkpt lat="42.974375" lon="11.592245"><ele>528.0</ele><time>2026-04-18T14:29:17.765Z</time></trkpt><trkpt lat="42.974465" lon="11.5924233"><ele>528.0</ele><time>2026-04-18T14:29:18.765Z</time></trkpt><trkpt lat="42.9745233" lon="11.5926217"><ele>529.6666666666666</ele><time>2026-04-18T14:29:19.765Z</time></trkpt><trkpt lat="42.97454" lon="11.59284"><ele>531.3333333333333</ele><time>2026-04-18T14:29:20.765Z</time></trkpt><trkpt lat="42.9745183" lon="11.5930667"><ele>533.0</ele><time>2026-04-18T14:29:21.765Z</time></trkpt><trkpt lat="42.9744917" lon="11.5932683"><ele>533.0</ele><time>2026-04-18T14:29:22.764Z</time></trkpt><trkpt lat="42.9744917" lon="11.5934483"><ele>533.0</ele><time>2026-04-18T14:29:23.766Z</time></trkpt><trkpt lat="42.9745283" lon="11.5935867"><ele>533.0</ele><time>2026-04-18T14:29:24.771Z</time></trkpt><trkpt lat="42.97459" lon="11.593665"><ele>533.0</ele><time>2026-04-18T14:29:25.767Z</time></trkpt><trkpt lat="42.9746733" lon="11.5936883"><ele>533.0</ele><time>2026-04-18T14:29:26.771Z</time></trkpt><trkpt lat="42.9747617" lon="11.5936967"><ele>535.0</ele><time>2026-04-18T14:29:27.77Z</time></trkpt><trkpt lat="42.974875" lon="11.5936967"><ele>537.0</ele><time>2026-04-18T14:29:28.769Z</time></trkpt><trkpt lat="42.9749967" lon="11.5937067"><ele>539.0</ele><time>2026-04-18T14:29:29.769Z</time></trkpt><trkpt lat="42.9751183" lon="11.593715"><ele>541.0</ele><time>2026-04-18T14:29:30.766Z</time></trkpt><trkpt lat="42.975235" lon="11.5937417"><ele>541.0</ele><time>2026-04-18T14:29:31.765Z</time></trkpt><trkpt lat="42.9753517" lon="11.593785"><ele>541.0</ele><time>2026-04-18T14:29:32.769Z</time></trkpt><trkpt lat="42.9754583" lon="11.59385"><ele>541.0</ele><time>2026-04-18T14:29:33.77Z</time></trkpt><trkpt lat="42.975545" lon="11.59395"><ele>541.0</ele><time>2026-04-18T14:29:34.766Z</time></trkpt><trkpt lat="42.97561" lon="11.5940867"><ele>541.0</ele><time>2026-04-18T14:29:35.769Z</time></trkpt><trkpt lat="42.9756483" lon="11.5942417"><ele>541.0</ele><time>2026-04-18T14:29:36.762Z</time></trkpt><trkpt lat="42.9756683" lon="11.5944367"><ele>541.0</ele><time>2026-04-18T14:29:37.77Z</time></trkpt><trkpt lat="42.97568" lon="11.5946617"><ele>541.0</ele><time>2026-04-18T14:29:38.773Z</time></trkpt><trkpt lat="42.9756833" lon="11.5949067"><ele>543.6666666666667</ele><time>2026-04-18T14:29:39.765Z</time></trkpt><trkpt lat="42.9756917" lon="11.5951567"><ele>546.3333333333334</ele><time>2026-04-18T14:29:40.769Z</time></trkpt><trkpt lat="42.9757217" lon="11.5954117"><ele>549.0</ele><time>2026-04-18T14:29:41.765Z</time></trkpt><trkpt lat="42.9757833" lon="11.595665"><ele>549.0</ele><time>2026-04-18T14:29:42.766Z</time></trkpt><trkpt lat="42.97587" lon="11.5959133"><ele>549.0</ele><time>2026-04-18T14:29:43.766Z</time></trkpt><trkpt lat="42.9759783" lon="11.596155"><ele>549.0</ele><time>2026-04-18T14:29:44.773Z</time></trkpt><trkpt lat="42.97609" lon="11.5963883"><ele>549.0</ele><time>2026-04-18T14:29:45.77Z</time></trkpt><trkpt lat="42.97621" lon="11.5966083"><ele>549.0</ele><time>2026-04-18T14:29:46.765Z</time></trkpt><trkpt lat="42.9763267" lon="11.596805"><ele>549.0</ele><time>2026-04-18T14:29:47.767Z</time></trkpt><trkpt lat="42.9764383" lon="11.5969767"><ele>548.6666666666666</ele><time>2026-04-18T14:29:48.77Z</time></trkpt><trkpt lat="42.9765533" lon="11.5971367"><ele>548.3333333333333</ele><time>2026-04-18T14:29:49.772Z</time></trkpt><trkpt lat="42.97668" lon="11.5972983"><ele>548.0</ele><time>2026-04-18T14:29:50.77Z</time></trkpt><trkpt lat="42.976825" lon="11.5974767"><ele>548.0</ele><time>2026-04-18T14:29:51.768Z</time></trkpt><trkpt lat="42.9769717" lon="11.5976717"><ele>548.0</ele><time>2026-04-18T14:29:52.766Z</time></trkpt><trkpt lat="42.9771" lon="11.597865"><ele>548.0</ele><time>2026-04-18T14:29:53.766Z</time></trkpt><trkpt lat="42.9772167" lon="11.5980383"><ele>548.3333333333333</ele><time>2026-04-18T14:29:54.771Z</time></trkpt><trkpt lat="42.9773367" lon="11.59821"><ele>548.6666666666666</ele><time>2026-04-18T14:29:55.768Z</time></trkpt><trkpt lat="42.9774483" lon="11.5983917"><ele>549.0</ele><time>2026-04-18T14:29:56.77Z</time></trkpt><trkpt lat="42.97755" lon="11.5985933"><ele>551.0</ele><time>2026-04-18T14:29:57.769Z</time></trkpt><trkpt lat="42.977635" lon="11.5988033"><ele>553.0</ele><time>2026-04-18T14:29:58.771Z</time></trkpt><trkpt lat="42.977695" lon="11.5989983"><ele>555.0</ele><time>2026-04-18T14:29:59.768Z</time></trkpt><trkpt lat="42.97773" lon="11.59914"><ele>557.0</ele><time>2026-04-18T14:30:00.77Z</time></trkpt><trkpt lat="42.9777483" lon="11.5992367"><ele>557.0</ele><time>2026-04-18T14:30:01.771Z</time></trkpt><trkpt lat="42.9777517" lon="11.5993717"><ele>557.0</ele><time>2026-04-18T14:30:03.77Z</time></trkpt><trkpt lat="42.97776" lon="11.5994767"><ele>557.0</ele><time>2026-04-18T14:30:06.769Z</time></trkpt><trkpt lat="42.9777283" lon="11.5995583"><ele>557.0</ele><time>2026-04-18T14:30:18.769Z</time></trkpt><trkpt lat="42.9776167" lon="11.5995683"><ele>557.0</ele><time>2026-04-18T14:30:20.768Z</time></trkpt><trkpt lat="42.977495" lon="11.5995517"><ele>559.6666666666666</ele><time>2026-04-18T14:30:21.771Z</time></trkpt><trkpt lat="42.97738" lon="11.59954"><ele>562.3333333333334</ele><time>2026-04-18T14:30:22.769Z</time></trkpt><trkpt lat="42.9772133" lon="11.5995167"><ele>565.0</ele><time>2026-04-18T14:30:23.769Z</time></trkpt><trkpt lat="42.9769967" lon="11.5994783"><ele>565.0</ele><time>2026-04-18T14:30:24.769Z</time></trkpt><trkpt lat="42.9767967" lon="11.5994533"><ele>565.0</ele><time>2026-04-18T14:30:25.77Z</time></trkpt><trkpt lat="42.9766" lon="11.5994317"><ele>565.0</ele><time>2026-04-18T14:30:26.773Z</time></trkpt><trkpt lat="42.9764033" lon="11.599385"><ele>567.0</ele><time>2026-04-18T14:30:27.771Z</time></trkpt><trkpt lat="42.9762133" lon="11.5992933"><ele>569.0</ele><time>2026-04-18T14:30:28.765Z</time></trkpt><trkpt lat="42.9760383" lon="11.5991483"><ele>571.0</ele><time>2026-04-18T14:30:29.766Z</time></trkpt><trkpt lat="42.9758867" lon="11.5989967"><ele>572.75</ele><time>2026-04-18T14:30:30.77Z</time></trkpt><trkpt lat="42.9757567" lon="11.5988633"><ele>574.5</ele><time>2026-04-18T14:30:31.77Z</time></trkpt><trkpt lat="42.9756367" lon="11.5987417"><ele>576.25</ele><time>2026-04-18T14:30:32.771Z</time></trkpt><trkpt lat="42.9755433" lon="11.598615"><ele>578.0</ele><time>2026-04-18T14:30:33.766Z</time></trkpt><trkpt lat="42.9754817" lon="11.598465"><ele>578.0</ele><time>2026-04-18T14:30:34.765Z</time></trkpt><trkpt lat="42.9754433" lon="11.5983183"><ele>578.0</ele><time>2026-04-18T14:30:35.769Z</time></trkpt><trkpt lat="42.9754167" lon="11.598155"><ele>578.0</ele><time>2026-04-18T14:30:36.774Z</time></trkpt><trkpt lat="42.9753933" lon="11.5980017"><ele>578.0</ele><time>2026-04-18T14:30:37.772Z</time></trkpt><trkpt lat="42.975365" lon="11.5978483"><ele>576.75</ele><time>2026-04-18T14:30:38.771Z</time></trkpt><trkpt lat="42.9753067" lon="11.5977017"><ele>575.5</ele><time>2026-04-18T14:30:39.765Z</time></trkpt><trkpt lat="42.9752117" lon="11.5976083"><ele>574.25</ele><time>2026-04-18T14:30:40.764Z</time></trkpt><trkpt lat="42.97511" lon="11.5976017"><ele>573.0</ele><time>2026-04-18T14:30:41.771Z</time></trkpt><trkpt lat="42.9750033" lon="11.59768"><ele>579.3333333333334</ele><time>2026-04-18T14:30:42.768Z</time></trkpt><trkpt lat="42.974945" lon="11.5978583"><ele>585.6666666666667</ele><time>2026-04-18T14:30:43.77Z</time></trkpt><trkpt lat="42.9749483" lon="11.5980783"><ele>592.0</ele><time>2026-04-18T14:30:44.773Z</time></trkpt><trkpt lat="42.9749917" lon="11.5983383"><ele>588.6666666666667</ele><time>2026-04-18T14:30:45.77Z</time></trkpt><trkpt lat="42.9750483" lon="11.598585"><ele>585.3333333333334</ele><time>2026-04-18T14:30:46.771Z</time></trkpt><trkpt lat="42.9751" lon="11.5988217"><ele>582.0</ele><time>2026-04-18T14:30:47.772Z</time></trkpt><trkpt lat="42.97514" lon="11.5990367"><ele>582.0</ele><time>2026-04-18T14:30:48.769Z</time></trkpt><trkpt lat="42.975155" lon="11.59925"><ele>582.0</ele><time>2026-04-18T14:30:49.765Z</time></trkpt><trkpt lat="42.97515" lon="11.5994683"><ele>582.0</ele><time>2026-04-18T14:30:50.771Z</time></trkpt><trkpt lat="42.975115" lon="11.5996667"><ele>583.5</ele><time>2026-04-18T14:30:51.769Z</time></trkpt><trkpt lat="42.9750567" lon="11.5998367"><ele>585.0</ele><time>2026-04-18T14:30:52.769Z</time></trkpt><trkpt lat="42.97498" lon="11.5999867"><ele>586.5</ele><time>2026-04-18T14:30:53.77Z</time></trkpt><trkpt lat="42.9748883" lon="11.6001133"><ele>588.0</ele><time>2026-04-18T14:30:54.771Z</time></trkpt><trkpt lat="42.97479" lon="11.600225"><ele>590.0</ele><time>2026-04-18T14:30:55.768Z</time></trkpt><trkpt lat="42.9746783" lon="11.6003333"><ele>592.0</ele><time>2026-04-18T14:30:56.772Z</time></trkpt><trkpt lat="42.97456" lon="11.60043"><ele>594.0</ele><time>2026-04-18T14:30:57.77Z</time></trkpt><trkpt lat="42.9744317" lon="11.6005117"><ele>596.0</ele><time>2026-04-18T14:30:58.765Z</time></trkpt><trkpt lat="42.9742933" lon="11.6005933"><ele>600.0</ele><time>2026-04-18T14:30:59.767Z</time></trkpt><trkpt lat="42.9741567" lon="11.6006817"><ele>604.0</ele><time>2026-04-18T14:31:00.771Z</time></trkpt><trkpt lat="42.9740217" lon="11.6007667"><ele>608.0</ele><time>2026-04-18T14:31:01.766Z</time></trkpt><trkpt lat="42.9738983" lon="11.6008717"><ele>612.0</ele><time>2026-04-18T14:31:02.77Z</time></trkpt><trkpt lat="42.973785" lon="11.60101"><ele>608.0</ele><time>2026-04-18T14:31:03.765Z</time></trkpt><trkpt lat="42.9736867" lon="11.601185"><ele>604.0</ele><time>2026-04-18T14:31:04.766Z</time></trkpt><trkpt lat="42.97359" lon="11.6013783"><ele>600.0</ele><time>2026-04-18T14:31:05.77Z</time></trkpt><trkpt lat="42.973495" lon="11.6015817"><ele>600.0</ele><time>2026-04-18T14:31:06.769Z</time></trkpt><trkpt lat="42.9733917" lon="11.6017867"><ele>600.0</ele><time>2026-04-18T14:31:07.769Z</time></trkpt><trkpt lat="42.9732567" lon="11.60197"><ele>600.0</ele><time>2026-04-18T14:31:08.773Z</time></trkpt><trkpt lat="42.9730933" lon="11.60212"><ele>606.6666666666666</ele><time>2026-04-18T14:31:09.769Z</time></trkpt><trkpt lat="42.9729083" lon="11.6022417"><ele>613.3333333333333</ele><time>2026-04-18T14:31:10.768Z</time></trkpt><trkpt lat="42.9727017" lon="11.6023417"><ele>620.0</ele><time>2026-04-18T14:31:11.769Z</time></trkpt><trkpt lat="42.9724883" lon="11.602395"><ele>623.3333333333333</ele><time>2026-04-18T14:31:12.766Z</time></trkpt><trkpt lat="42.9722917" lon="11.602415"><ele>626.6666666666666</ele><time>2026-04-18T14:31:13.772Z</time></trkpt><trkpt lat="42.97212" lon="11.6024083"><ele>630.0</ele><time>2026-04-18T14:31:14.772Z</time></trkpt><trkpt lat="42.9719667" lon="11.6024233"><ele>630.0</ele><time>2026-04-18T14:31:15.77Z</time></trkpt><trkpt lat="42.9718217" lon="11.6024933"><ele>630.0</ele><time>2026-04-18T14:31:16.77Z</time></trkpt><trkpt lat="42.9716883" lon="11.602625"><ele>630.0</ele><time>2026-04-18T14:31:17.77Z</time></trkpt><trkpt lat="42.9715867" lon="11.602815"><ele>632.6666666666666</ele><time>2026-04-18T14:31:18.766Z</time></trkpt><trkpt lat="42.971535" lon="11.6030517"><ele>635.3333333333333</ele><time>2026-04-18T14:31:19.771Z</time></trkpt><trkpt lat="42.97151" lon="11.6033367"><ele>638.0</ele><time>2026-04-18T14:31:20.773Z</time></trkpt><trkpt lat="42.9714517" lon="11.603585"><ele>635.6666666666666</ele><time>2026-04-18T14:31:21.77Z</time></trkpt><trkpt lat="42.9713483" lon="11.6038133"><ele>633.3333333333334</ele><time>2026-04-18T14:31:22.77Z</time></trkpt><trkpt lat="42.9711917" lon="11.6040233"><ele>631.0</ele><time>2026-04-18T14:31:23.765Z</time></trkpt><trkpt lat="42.9709883" lon="11.6042167"><ele>637.5</ele><time>2026-04-18T14:31:24.769Z</time></trkpt><trkpt lat="42.9707783" lon="11.6044217"><ele>644.0</ele><time>2026-04-18T14:31:25.768Z</time></trkpt><trkpt lat="42.9705633" lon="11.6046267"><ele>644.0</ele><time>2026-04-18T14:31:26.772Z</time></trkpt><trkpt lat="42.9703517" lon="11.6048383"><ele>644.0</ele><time>2026-04-18T14:31:27.772Z</time></trkpt><trkpt lat="42.9701367" lon="11.60505"><ele>651.0</ele><time>2026-04-18T14:31:28.765Z</time></trkpt><trkpt lat="42.9699133" lon="11.605265"><ele>658.0</ele><time>2026-04-18T14:31:29.77Z</time></trkpt><trkpt lat="42.969695" lon="11.6054617"><ele>658.0</ele><time>2026-04-18T14:31:30.769Z</time></trkpt><trkpt lat="42.9694933" lon="11.60564"><ele>658.0</ele><time>2026-04-18T14:31:31.769Z</time></trkpt><trkpt lat="42.9693117" lon="11.605815"><ele>658.6666666666667</ele><time>2026-04-18T14:31:32.771Z</time></trkpt><trkpt lat="42.9691533" lon="11.6060017"><ele>659.3333333333334</ele><time>2026-04-18T14:31:33.766Z</time></trkpt><trkpt lat="42.9690267" lon="11.60622"><ele>660.0</ele><time>2026-04-18T14:31:34.766Z</time></trkpt><trkpt lat="42.9689317" lon="11.60647"><ele>663.5</ele><time>2026-04-18T14:31:35.764Z</time></trkpt><trkpt lat="42.96888" lon="11.606765"><ele>667.0</ele><time>2026-04-18T14:31:36.767Z</time></trkpt><trkpt lat="42.9688667" lon="11.6070883"><ele>669.0</ele><time>2026-04-18T14:31:37.767Z</time></trkpt><trkpt lat="42.9688767" lon="11.6074333"><ele>671.0</ele><time>2026-04-18T14:31:38.763Z</time></trkpt><trkpt lat="42.9688867" lon="11.6077833"><ele>672.5</ele><time>2026-04-18T14:31:39.769Z</time></trkpt><trkpt lat="42.9688983" lon="11.608125"><ele>674.0</ele><time>2026-04-18T14:31:40.764Z</time></trkpt><trkpt lat="42.9689133" lon="11.6084633"><ele>674.0</ele><time>2026-04-18T14:31:41.771Z</time></trkpt><trkpt lat="42.968925" lon="11.6087767"><ele>674.0</ele><time>2026-04-18T14:31:42.769Z</time></trkpt><trkpt lat="42.9689333" lon="11.60909"><ele>674.0</ele><time>2026-04-18T14:31:43.769Z</time></trkpt><trkpt lat="42.96892" lon="11.6094033"><ele>674.0</ele><time>2026-04-18T14:31:44.771Z</time></trkpt><trkpt lat="42.96889" lon="11.6097217"><ele>675.5</ele><time>2026-04-18T14:31:45.765Z</time></trkpt><trkpt lat="42.968855" lon="11.6100333"><ele>677.0</ele><time>2026-04-18T14:31:46.765Z</time></trkpt><trkpt lat="42.9688117" lon="11.6103583"><ele>674.0</ele><time>2026-04-18T14:31:47.771Z</time></trkpt><trkpt lat="42.9687667" lon="11.61068"><ele>671.0</ele><time>2026-04-18T14:31:48.768Z</time></trkpt><trkpt lat="42.9687217" lon="11.6109983"><ele>669.0</ele><time>2026-04-18T14:31:49.771Z</time></trkpt><trkpt lat="42.9686733" lon="11.6113217"><ele>667.0</ele><time>2026-04-18T14:31:50.772Z</time></trkpt><trkpt lat="42.968625" lon="11.6116583"><ele>667.0</ele><time>2026-04-18T14:31:51.763Z</time></trkpt><trkpt lat="42.9685783" lon="11.6120017"><ele>667.0</ele><time>2026-04-18T14:31:52.77Z</time></trkpt><trkpt lat="42.9685367" lon="11.612345"><ele>667.0</ele><time>2026-04-18T14:31:53.769Z</time></trkpt><trkpt lat="42.9684933" lon="11.61267"><ele>667.0</ele><time>2026-04-18T14:31:54.767Z</time></trkpt><trkpt lat="42.9684633" lon="11.612975"><ele>667.6666666666667</ele><time>2026-04-18T14:31:55.767Z</time></trkpt><trkpt lat="42.9684483" lon="11.61326"><ele>668.3333333333334</ele><time>2026-04-18T14:31:56.773Z</time></trkpt><trkpt lat="42.9684333" lon="11.6135183"><ele>669.0</ele><time>2026-04-18T14:31:57.771Z</time></trkpt><trkpt lat="42.9684067" lon="11.6137517"><ele>670.3333333333334</ele><time>2026-04-18T14:31:58.765Z</time></trkpt><trkpt lat="42.9683483" lon="11.6139633"><ele>671.6666666666667</ele><time>2026-04-18T14:31:59.764Z</time></trkpt><trkpt lat="42.9682467" lon="11.6141283"><ele>673.0</ele><time>2026-04-18T14:32:00.77Z</time></trkpt><trkpt lat="42.9680883" lon="11.6142317"><ele>673.0</ele><time>2026-04-18T14:32:01.766Z</time></trkpt><trkpt lat="42.9679333" lon="11.6143467"><ele>673.0</ele><time>2026-04-18T14:32:02.77Z</time></trkpt><trkpt lat="42.9678" lon="11.6145067"><ele>673.0</ele><time>2026-04-18T14:32:03.768Z</time></trkpt><trkpt lat="42.96769" lon="11.6147067"><ele>672.6666666666667</ele><time>2026-04-18T14:32:04.765Z</time></trkpt><trkpt lat="42.967615" lon="11.61496"><ele>672.3333333333334</ele><time>2026-04-18T14:32:05.769Z</time></trkpt><trkpt lat="42.9675883" lon="11.61524"><ele>672.0</ele><time>2026-04-18T14:32:06.77Z</time></trkpt><trkpt lat="42.9676117" lon="11.6155433"><ele>672.0</ele><time>2026-04-18T14:32:07.766Z</time></trkpt><trkpt lat="42.96761" lon="11.6158233"><ele>672.0</ele><time>2026-04-18T14:32:08.771Z</time></trkpt><trkpt lat="42.9675783" lon="11.616095"><ele>672.0</ele><time>2026-04-18T14:32:09.769Z</time></trkpt><trkpt lat="42.9675083" lon="11.6163283"><ele>668.0</ele><time>2026-04-18T14:32:10.769Z</time></trkpt><trkpt lat="42.9673867" lon="11.616515"><ele>664.0</ele><time>2026-04-18T14:32:11.771Z</time></trkpt><trkpt lat="42.9672033" lon="11.616645"><ele>660.0</ele><time>2026-04-18T14:32:12.771Z</time></trkpt><trkpt lat="42.96699" lon="11.6166967"><ele>660.0</ele><time>2026-04-18T14:32:13.771Z</time></trkpt><trkpt lat="42.966775" lon="11.6167267"><ele>660.0</ele><time>2026-04-18T14:32:14.767Z</time></trkpt><trkpt lat="42.9665733" lon="11.6167883"><ele>660.0</ele><time>2026-04-18T14:32:15.77Z</time></trkpt><trkpt lat="42.9664033" lon="11.616915"><ele>658.6666666666666</ele><time>2026-04-18T14:32:16.765Z</time></trkpt><trkpt lat="42.96624" lon="11.6170767"><ele>657.3333333333333</ele><time>2026-04-18T14:32:17.769Z</time></trkpt><trkpt lat="42.96607" lon="11.6172267"><ele>656.0</ele><time>2026-04-18T14:32:18.773Z</time></trkpt><trkpt lat="42.9658783" lon="11.617335"><ele>658.0</ele><time>2026-04-18T14:32:19.769Z</time></trkpt><trkpt lat="42.9656517" lon="11.6173933"><ele>660.0</ele><time>2026-04-18T14:32:20.771Z</time></trkpt><trkpt lat="42.96541" lon="11.6174083"><ele>660.0</ele><time>2026-04-18T14:32:21.77Z</time></trkpt><trkpt lat="42.9651683" lon="11.6174467"><ele>660.0</ele><time>2026-04-18T14:32:22.77Z</time></trkpt><trkpt lat="42.9649367" lon="11.61751"><ele>660.3333333333334</ele><time>2026-04-18T14:32:23.769Z</time></trkpt><trkpt lat="42.9647183" lon="11.61757"><ele>660.6666666666667</ele><time>2026-04-18T14:32:24.769Z</time></trkpt><trkpt lat="42.96451" lon="11.6175933"><ele>661.0</ele><time>2026-04-18T14:32:25.77Z</time></trkpt><trkpt lat="42.9642933" lon="11.61757"><ele>660.6666666666667</ele><time>2026-04-18T14:32:26.771Z</time></trkpt><trkpt lat="42.9640917" lon="11.6175283"><ele>660.3333333333334</ele><time>2026-04-18T14:32:27.77Z</time></trkpt><trkpt lat="42.9639" lon="11.6175017"><ele>660.0</ele><time>2026-04-18T14:32:28.765Z</time></trkpt><trkpt lat="42.9637217" lon="11.6175217"><ele>660.0</ele><time>2026-04-18T14:32:29.769Z</time></trkpt><trkpt lat="42.9635533" lon="11.6175883"><ele>660.0</ele><time>2026-04-18T14:32:30.766Z</time></trkpt><trkpt lat="42.9633867" lon="11.6176967"><ele>660.0</ele><time>2026-04-18T14:32:31.769Z</time></trkpt><trkpt lat="42.9632183" lon="11.6178317"><ele>658.0</ele><time>2026-04-18T14:32:32.77Z</time></trkpt><trkpt lat="42.96305" lon="11.6179533"><ele>656.0</ele><time>2026-04-18T14:32:33.768Z</time></trkpt><trkpt lat="42.96287" lon="11.618045"><ele>654.0</ele><time>2026-04-18T14:32:34.769Z</time></trkpt><trkpt lat="42.962675" lon="11.6180967"><ele>654.0</ele><time>2026-04-18T14:32:35.769Z</time></trkpt><trkpt lat="42.96248" lon="11.6181217"><ele>654.0</ele><time>2026-04-18T14:32:36.772Z</time></trkpt><trkpt lat="42.9622933" lon="11.6181367"><ele>654.0</ele><time>2026-04-18T14:32:37.77Z</time></trkpt><trkpt lat="42.962115" lon="11.6181917"><ele>654.0</ele><time>2026-04-18T14:32:38.77Z</time></trkpt><trkpt lat="42.9619517" lon="11.618305"><ele>654.0</ele><time>2026-04-18T14:32:39.772Z</time></trkpt><trkpt lat="42.9618017" lon="11.618465"><ele>654.0</ele><time>2026-04-18T14:32:40.759Z</time></trkpt><trkpt lat="42.9616633" lon="11.6186517"><ele>653.0</ele><time>2026-04-18T14:32:41.761Z</time></trkpt><trkpt lat="42.96153" lon="11.6188467"><ele>652.0</ele><time>2026-04-18T14:32:42.77Z</time></trkpt><trkpt lat="42.9613967" lon="11.6190383"><ele>651.0</ele><time>2026-04-18T14:32:43.77Z</time></trkpt><trkpt lat="42.96126" lon="11.6192167"><ele>651.0</ele><time>2026-04-18T14:32:44.767Z</time></trkpt><trkpt lat="42.961115" lon="11.619375"><ele>651.0</ele><time>2026-04-18T14:32:45.769Z</time></trkpt><trkpt lat="42.9609517" lon="11.6195083"><ele>651.0</ele><time>2026-04-18T14:32:46.769Z</time></trkpt><trkpt lat="42.9607783" lon="11.6196167"><ele>650.3333333333334</ele><time>2026-04-18T14:32:47.77Z</time></trkpt><trkpt lat="42.960605" lon="11.6197017"><ele>649.6666666666667</ele><time>2026-04-18T14:32:48.769Z</time></trkpt><trkpt lat="42.9604417" lon="11.6198"><ele>649.0</ele><time>2026-04-18T14:32:49.77Z</time></trkpt><trkpt lat="42.960295" lon="11.6199317"><ele>649.0</ele><time>2026-04-18T14:32:50.773Z</time></trkpt><trkpt lat="42.9601633" lon="11.6201167"><ele>649.0</ele><time>2026-04-18T14:32:51.77Z</time></trkpt><trkpt lat="42.9600567" lon="11.6203433"><ele>649.0</ele><time>2026-04-18T14:32:52.77Z</time></trkpt><trkpt lat="42.95997" lon="11.6205933"><ele>649.0</ele><time>2026-04-18T14:32:53.771Z</time></trkpt><trkpt lat="42.9598867" lon="11.6208383"><ele>649.0</ele><time>2026-04-18T14:32:54.77Z</time></trkpt><trkpt lat="42.9597933" lon="11.6210633"><ele>649.0</ele><time>2026-04-18T14:32:55.77Z</time></trkpt><trkpt lat="42.95968" lon="11.6212583"><ele>647.0</ele><time>2026-04-18T14:32:56.774Z</time></trkpt><trkpt lat="42.9595467" lon="11.6213967"><ele>645.0</ele><time>2026-04-18T14:32:57.77Z</time></trkpt><trkpt lat="42.9593883" lon="11.6214733"><ele>643.0</ele><time>2026-04-18T14:32:58.765Z</time></trkpt><trkpt lat="42.95923" lon="11.62153"><ele>642.3333333333334</ele><time>2026-04-18T14:32:59.77Z</time></trkpt><trkpt lat="42.9590817" lon="11.6216183"><ele>641.6666666666666</ele><time>2026-04-18T14:33:00.77Z</time></trkpt><trkpt lat="42.958965" lon="11.621765"><ele>641.0</ele><time>2026-04-18T14:33:01.771Z</time></trkpt><trkpt lat="42.9588883" lon="11.6219717"><ele>638.3333333333333</ele><time>2026-04-18T14:33:02.772Z</time></trkpt><trkpt lat="42.9588317" lon="11.6222083"><ele>635.6666666666666</ele><time>2026-04-18T14:33:03.766Z</time></trkpt><trkpt lat="42.9587767" lon="11.622455"><ele>633.0</ele><time>2026-04-18T14:33:04.766Z</time></trkpt><trkpt lat="42.958705" lon="11.6226833"><ele>631.3333333333334</ele><time>2026-04-18T14:33:05.768Z</time></trkpt><trkpt lat="42.958605" lon="11.6228867"><ele>629.6666666666667</ele><time>2026-04-18T14:33:06.771Z</time></trkpt><trkpt lat="42.9584783" lon="11.6230533"><ele>628.0</ele><time>2026-04-18T14:33:07.77Z</time></trkpt><trkpt lat="42.958335" lon="11.6231933"><ele>628.0</ele><time>2026-04-18T14:33:08.772Z</time></trkpt><trkpt lat="42.9581833" lon="11.6233083"><ele>628.0</ele><time>2026-04-18T14:33:09.771Z</time></trkpt><trkpt lat="42.95804" lon="11.6234133"><ele>628.0</ele><time>2026-04-18T14:33:10.768Z</time></trkpt><trkpt lat="42.957915" lon="11.6235333"><ele>627.25</ele><time>2026-04-18T14:33:11.771Z</time></trkpt><trkpt lat="42.95783" lon="11.6236833"><ele>626.5</ele><time>2026-04-18T14:33:12.769Z</time></trkpt><trkpt lat="42.9577783" lon="11.6238633"><ele>625.75</ele><time>2026-04-18T14:33:13.772Z</time></trkpt><trkpt lat="42.9577583" lon="11.6240667"><ele>625.0</ele><time>2026-04-18T14:33:14.773Z</time></trkpt><trkpt lat="42.9577683" lon="11.6242883"><ele>621.6666666666667</ele><time>2026-04-18T14:33:15.77Z</time></trkpt><trkpt lat="42.95779" lon="11.6245233"><ele>618.3333333333334</ele><time>2026-04-18T14:33:16.77Z</time></trkpt><trkpt lat="42.9578067" lon="11.6247683"><ele>615.0</ele><time>2026-04-18T14:33:17.771Z</time></trkpt><trkpt lat="42.9578233" lon="11.6250233"><ele>615.0</ele><time>2026-04-18T14:33:18.769Z</time></trkpt><trkpt lat="42.9578283" lon="11.6252833"><ele>615.0</ele><time>2026-04-18T14:33:19.77Z</time></trkpt><trkpt lat="42.9578167" lon="11.6255383"><ele>615.0</ele><time>2026-04-18T14:33:20.77Z</time></trkpt><trkpt lat="42.9577733" lon="11.6257917"><ele>613.6666666666666</ele><time>2026-04-18T14:33:21.77Z</time></trkpt><trkpt lat="42.95771" lon="11.6260533"><ele>612.3333333333333</ele><time>2026-04-18T14:33:22.77Z</time></trkpt><trkpt lat="42.9576333" lon="11.626325"><ele>611.0</ele><time>2026-04-18T14:33:23.771Z</time></trkpt><trkpt lat="42.957555" lon="11.6266033"><ele>613.0</ele><time>2026-04-18T14:33:24.771Z</time></trkpt><trkpt lat="42.95748" lon="11.6268767"><ele>615.0</ele><time>2026-04-18T14:33:25.77Z</time></trkpt><trkpt lat="42.95742" lon="11.6271467"><ele>617.0</ele><time>2026-04-18T14:33:26.774Z</time></trkpt><trkpt lat="42.9573867" lon="11.627435"><ele>619.5</ele><time>2026-04-18T14:33:27.766Z</time></trkpt><trkpt lat="42.9573783" lon="11.6277383"><ele>622.0</ele><time>2026-04-18T14:33:28.767Z</time></trkpt><trkpt lat="42.9573867" lon="11.62806"><ele>622.5</ele><time>2026-04-18T14:33:29.769Z</time></trkpt><trkpt lat="42.9574033" lon="11.6283817"><ele>623.0</ele><time>2026-04-18T14:33:30.773Z</time></trkpt><trkpt lat="42.9574183" lon="11.6286833"><ele>623.0</ele><time>2026-04-18T14:33:31.766Z</time></trkpt><trkpt lat="42.9574167" lon="11.628965"><ele>623.0</ele><time>2026-04-18T14:33:32.774Z</time></trkpt><trkpt lat="42.957385" lon="11.6292117"><ele>623.0</ele><time>2026-04-18T14:33:33.769Z</time></trkpt><trkpt lat="42.9573167" lon="11.629445"><ele>620.3333333333333</ele><time>2026-04-18T14:33:34.77Z</time></trkpt><trkpt lat="42.9572067" lon="11.6296683"><ele>617.6666666666666</ele><time>2026-04-18T14:33:35.769Z</time></trkpt><trkpt lat="42.9570717" lon="11.6298917"><ele>615.0</ele><time>2026-04-18T14:33:36.765Z</time></trkpt><trkpt lat="42.956925" lon="11.6301167"><ele>615.3333333333334</ele><time>2026-04-18T14:33:37.761Z</time></trkpt><trkpt lat="42.956775" lon="11.6303367"><ele>615.6666666666667</ele><time>2026-04-18T14:33:38.769Z</time></trkpt><trkpt lat="42.9566167" lon="11.6305583"><ele>616.0</ele><time>2026-04-18T14:33:39.771Z</time></trkpt><trkpt lat="42.9564467" lon="11.63076"><ele>616.0</ele><time>2026-04-18T14:33:40.757Z</time></trkpt><trkpt lat="42.956265" lon="11.6309517"><ele>616.0</ele><time>2026-04-18T14:33:41.77Z</time></trkpt><trkpt lat="42.956085" lon="11.631125"><ele>617.0</ele><time>2026-04-18T14:33:42.771Z</time></trkpt><trkpt lat="42.9559133" lon="11.6312967"><ele>618.0</ele><time>2026-04-18T14:33:43.77Z</time></trkpt><trkpt lat="42.955755" lon="11.6315"><ele>619.0</ele><time>2026-04-18T14:33:44.774Z</time></trkpt><trkpt lat="42.9556183" lon="11.63174"><ele>619.0</ele><time>2026-04-18T14:33:45.77Z</time></trkpt><trkpt lat="42.9555167" lon="11.632025"><ele>619.0</ele><time>2026-04-18T14:33:46.77Z</time></trkpt><trkpt lat="42.95547" lon="11.632345"><ele>619.0</ele><time>2026-04-18T14:33:47.765Z</time></trkpt><trkpt lat="42.9554733" lon="11.6326767"><ele>619.0</ele><time>2026-04-18T14:33:48.77Z</time></trkpt><trkpt lat="42.955485" lon="11.6330233"><ele>621.0</ele><time>2026-04-18T14:33:49.767Z</time></trkpt><trkpt lat="42.9554883" lon="11.6333867"><ele>623.0</ele><time>2026-04-18T14:33:50.772Z</time></trkpt><trkpt lat="42.9554767" lon="11.63376"><ele>625.0</ele><time>2026-04-18T14:33:51.767Z</time></trkpt><trkpt lat="42.9554517" lon="11.6341367"><ele>627.0</ele><time>2026-04-18T14:33:52.764Z</time></trkpt><trkpt lat="42.9554167" lon="11.6344967"><ele>628.0</ele><time>2026-04-18T14:33:53.771Z</time></trkpt><trkpt lat="42.9553817" lon="11.6348083"><ele>629.0</ele><time>2026-04-18T14:33:54.773Z</time></trkpt><trkpt lat="42.9553433" lon="11.6350733"><ele>630.0</ele><time>2026-04-18T14:33:55.77Z</time></trkpt><trkpt lat="42.9552717" lon="11.6353133"><ele>630.0</ele><time>2026-04-18T14:33:56.773Z</time></trkpt><trkpt lat="42.9551633" lon="11.63555"><ele>630.0</ele><time>2026-04-18T14:33:57.766Z</time></trkpt><trkpt lat="42.9550167" lon="11.6357817"><ele>630.0</ele><time>2026-04-18T14:33:58.771Z</time></trkpt><trkpt lat="42.95485" lon="11.6359933"><ele>635.6666666666666</ele><time>2026-04-18T14:33:59.769Z</time></trkpt><trkpt lat="42.9546867" lon="11.6361917"><ele>641.3333333333333</ele><time>2026-04-18T14:34:00.771Z</time></trkpt><trkpt lat="42.9545583" lon="11.636385"><ele>647.0</ele><time>2026-04-18T14:34:01.773Z</time></trkpt><trkpt lat="42.9544533" lon="11.636585"><ele>647.0</ele><time>2026-04-18T14:34:02.768Z</time></trkpt><trkpt lat="42.954395" lon="11.6368333"><ele>647.0</ele><time>2026-04-18T14:34:03.766Z</time></trkpt><trkpt lat="42.954395" lon="11.6371083"><ele>647.0</ele><time>2026-04-18T14:34:04.767Z</time></trkpt><trkpt lat="42.95441" lon="11.6373683"><ele>648.6666666666666</ele><time>2026-04-18T14:34:05.77Z</time></trkpt><trkpt lat="42.9544433" lon="11.63761"><ele>650.3333333333334</ele><time>2026-04-18T14:34:06.771Z</time></trkpt><trkpt lat="42.954515" lon="11.6378517"><ele>652.0</ele><time>2026-04-18T14:34:07.769Z</time></trkpt><trkpt lat="42.9546367" lon="11.638085"><ele>654.0</ele><time>2026-04-18T14:34:08.769Z</time></trkpt><trkpt lat="42.954795" lon="11.638295"><ele>656.0</ele><time>2026-04-18T14:34:09.769Z</time></trkpt><trkpt lat="42.9549433" lon="11.63849"><ele>658.0</ele><time>2026-04-18T14:34:10.764Z</time></trkpt><trkpt lat="42.955055" lon="11.63869"><ele>658.0</ele><time>2026-04-18T14:34:11.767Z</time></trkpt><trkpt lat="42.955125" lon="11.638915"><ele>658.0</ele><time>2026-04-18T14:34:12.771Z</time></trkpt><trkpt lat="42.9551467" lon="11.6391467"><ele>658.0</ele><time>2026-04-18T14:34:13.768Z</time></trkpt><trkpt lat="42.9551017" lon="11.6393717"><ele>659.6666666666667</ele><time>2026-04-18T14:34:14.768Z</time></trkpt><trkpt lat="42.95501" lon="11.639585"><ele>661.3333333333334</ele><time>2026-04-18T14:34:15.765Z</time></trkpt><trkpt lat="42.9548667" lon="11.6397933"><ele>663.0</ele><time>2026-04-18T14:34:16.769Z</time></trkpt><trkpt lat="42.9547033" lon="11.6399867"><ele>663.0</ele><time>2026-04-18T14:34:17.764Z</time></trkpt><trkpt lat="42.95449" lon="11.6401183"><ele>663.0</ele><time>2026-04-18T14:34:18.77Z</time></trkpt><trkpt lat="42.9542617" lon="11.6402233"><ele>664.5</ele><time>2026-04-18T14:34:19.767Z</time></trkpt><trkpt lat="42.9540167" lon="11.6402833"><ele>666.0</ele><time>2026-04-18T14:34:20.766Z</time></trkpt><trkpt lat="42.95375" lon="11.6403183"><ele>666.0</ele><time>2026-04-18T14:34:21.769Z</time></trkpt><trkpt lat="42.9534917" lon="11.6403517"><ele>666.0</ele><time>2026-04-18T14:34:22.765Z</time></trkpt><trkpt lat="42.95325" lon="11.6403867"><ele>670.3333333333334</ele><time>2026-04-18T14:34:23.767Z</time></trkpt><trkpt lat="42.9530467" lon="11.6404217"><ele>674.6666666666667</ele><time>2026-04-18T14:34:24.769Z</time></trkpt><trkpt lat="42.9528683" lon="11.6404917"><ele>679.0</ele><time>2026-04-18T14:34:25.77Z</time></trkpt><trkpt lat="42.952725" lon="11.6406267"><ele>679.0</ele><time>2026-04-18T14:34:26.773Z</time></trkpt><trkpt lat="42.95262" lon="11.6408083"><ele>679.0</ele><time>2026-04-18T14:34:27.766Z</time></trkpt><trkpt lat="42.9525433" lon="11.6410133"><ele>679.0</ele><time>2026-04-18T14:34:28.771Z</time></trkpt><trkpt lat="42.9525417" lon="11.6412783"><ele>680.0</ele><time>2026-04-18T14:34:29.766Z</time></trkpt><trkpt lat="42.9525983" lon="11.641595"><ele>681.0</ele><time>2026-04-18T14:34:30.767Z</time></trkpt><trkpt lat="42.9526417" lon="11.6418883"><ele>682.0</ele><time>2026-04-18T14:34:31.769Z</time></trkpt><trkpt lat="42.95265" lon="11.6421467"><ele>683.0</ele><time>2026-04-18T14:34:32.769Z</time></trkpt><trkpt lat="42.952635" lon="11.6423967"><ele>684.0</ele><time>2026-04-18T14:34:33.768Z</time></trkpt><trkpt lat="42.9525767" lon="11.64264"><ele>690.6666666666666</ele><time>2026-04-18T14:34:34.771Z</time></trkpt><trkpt lat="42.9524783" lon="11.642885"><ele>697.3333333333333</ele><time>2026-04-18T14:34:35.764Z</time></trkpt><trkpt lat="42.952385" lon="11.6431483"><ele>704.0</ele><time>2026-04-18T14:34:36.773Z</time></trkpt><trkpt lat="42.95229" lon="11.6434167"><ele>703.3333333333333</ele><time>2026-04-18T14:34:37.77Z</time></trkpt><trkpt lat="42.9521667" lon="11.6436717"><ele>702.6666666666666</ele><time>2026-04-18T14:34:38.769Z</time></trkpt><trkpt lat="42.95202" lon="11.6439017"><ele>702.0</ele><time>2026-04-18T14:34:39.77Z</time></trkpt><trkpt lat="42.951865" lon="11.6441033"><ele>702.0</ele><time>2026-04-18T14:34:40.764Z</time></trkpt><trkpt lat="42.9517183" lon="11.6442617"><ele>702.0</ele><time>2026-04-18T14:34:41.769Z</time></trkpt><trkpt lat="42.951565" lon="11.644345"><ele>702.0</ele><time>2026-04-18T14:34:42.766Z</time></trkpt><trkpt lat="42.9514083" lon="11.6443483"><ele>706.6666666666666</ele><time>2026-04-18T14:34:43.77Z</time></trkpt><trkpt lat="42.951265" lon="11.64428"><ele>711.3333333333333</ele><time>2026-04-18T14:34:44.771Z</time></trkpt><trkpt lat="42.95113" lon="11.644195"><ele>716.0</ele><time>2026-04-18T14:34:45.771Z</time></trkpt><trkpt lat="42.95101" lon="11.6440217"><ele>716.0</ele><time>2026-04-18T14:34:46.768Z</time></trkpt><trkpt lat="42.9509017" lon="11.6437717"><ele>716.0</ele><time>2026-04-18T14:34:47.768Z</time></trkpt><trkpt lat="42.9507883" lon="11.6435133"><ele>716.0</ele><time>2026-04-18T14:34:48.77Z</time></trkpt><trkpt lat="42.9506817" lon="11.6432617"><ele>719.6666666666666</ele><time>2026-04-18T14:34:49.765Z</time></trkpt><trkpt lat="42.95059" lon="11.642985"><ele>723.3333333333334</ele><time>2026-04-18T14:34:50.768Z</time></trkpt><trkpt lat="42.95053" lon="11.6427033"><ele>727.0</ele><time>2026-04-18T14:34:51.764Z</time></trkpt><trkpt lat="42.9505217" lon="11.6423983"><ele>727.0</ele><time>2026-04-18T14:34:52.764Z</time></trkpt><trkpt lat="42.9505317" lon="11.6421"><ele>727.0</ele><time>2026-04-18T14:34:53.765Z</time></trkpt><trkpt lat="42.95055" lon="11.64183"><ele>727.0</ele><time>2026-04-18T14:34:54.772Z</time></trkpt><trkpt lat="42.9505467" lon="11.6415967"><ele>727.3333333333334</ele><time>2026-04-18T14:34:55.769Z</time></trkpt><trkpt lat="42.9505117" lon="11.641385"><ele>727.6666666666666</ele><time>2026-04-18T14:34:56.769Z</time></trkpt><trkpt lat="42.9504433" lon="11.6411917"><ele>728.0</ele><time>2026-04-18T14:34:57.771Z</time></trkpt><trkpt lat="42.9503283" lon="11.6410467"><ele>728.6666666666666</ele><time>2026-04-18T14:34:58.764Z</time></trkpt><trkpt lat="42.9501667" lon="11.64095"><ele>729.3333333333334</ele><time>2026-04-18T14:34:59.768Z</time></trkpt><trkpt lat="42.9499967" lon="11.640925"><ele>730.0</ele><time>2026-04-18T14:35:00.771Z</time></trkpt><trkpt lat="42.949835" lon="11.6409333"><ele>732.5</ele><time>2026-04-18T14:35:01.771Z</time></trkpt><trkpt lat="42.94968" lon="11.6409483"><ele>735.0</ele><time>2026-04-18T14:35:02.771Z</time></trkpt><trkpt lat="42.9495383" lon="11.6409767"><ele>737.5</ele><time>2026-04-18T14:35:03.77Z</time></trkpt><trkpt lat="42.9494167" lon="11.641005"><ele>740.0</ele><time>2026-04-18T14:35:04.768Z</time></trkpt><trkpt lat="42.9493117" lon="11.6410417"><ele>740.0</ele><time>2026-04-18T14:35:05.772Z</time></trkpt><trkpt lat="42.9492167" lon="11.6410867"><ele>740.0</ele><time>2026-04-18T14:35:06.77Z</time></trkpt><trkpt lat="42.9491383" lon="11.64114"><ele>740.0</ele><time>2026-04-18T14:35:07.767Z</time></trkpt><trkpt lat="42.9490783" lon="11.641185"><ele>740.0</ele><time>2026-04-18T14:35:08.768Z</time></trkpt><trkpt lat="42.94902" lon="11.6412317"><ele>740.0</ele><time>2026-04-18T14:35:10.768Z</time></trkpt><trkpt lat="42.948965" lon="11.6413167"><ele>740.0</ele><time>2026-04-18T14:35:35.77Z</time></trkpt><trkpt lat="42.948925" lon="11.641405"><ele>742.75</ele><time>2026-04-18T14:35:36.765Z</time></trkpt><trkpt lat="42.9488767" lon="11.6415183"><ele>745.5</ele><time>2026-04-18T14:35:37.766Z</time></trkpt><trkpt lat="42.94883" lon="11.641655"><ele>748.25</ele><time>2026-04-18T14:35:38.771Z</time></trkpt><trkpt lat="42.9487883" lon="11.64181"><ele>751.0</ele><time>2026-04-18T14:35:39.767Z</time></trkpt><trkpt lat="42.9487667" lon="11.6419867"><ele>752.0</ele><time>2026-04-18T14:35:40.766Z</time></trkpt><trkpt lat="42.9487683" lon="11.6421833"><ele>753.0</ele><time>2026-04-18T14:35:41.764Z</time></trkpt><trkpt lat="42.9487967" lon="11.642395"><ele>754.0</ele><time>2026-04-18T14:35:42.772Z</time></trkpt><trkpt lat="42.9488483" lon="11.6426167"><ele>756.3333333333334</ele><time>2026-04-18T14:35:43.77Z</time></trkpt><trkpt lat="42.9489083" lon="11.6428417"><ele>758.6666666666666</ele><time>2026-04-18T14:35:44.772Z</time></trkpt><trkpt lat="42.94897" lon="11.6430617"><ele>761.0</ele><time>2026-04-18T14:35:45.77Z</time></trkpt><trkpt lat="42.9490183" lon="11.6432767"><ele>761.0</ele><time>2026-04-18T14:35:46.77Z</time></trkpt><trkpt lat="42.949035" lon="11.64349"><ele>761.0</ele><time>2026-04-18T14:35:47.771Z</time></trkpt><trkpt lat="42.9490083" lon="11.6436983"><ele>761.0</ele><time>2026-04-18T14:35:48.769Z</time></trkpt><trkpt lat="42.94894" lon="11.6439083"><ele>761.3333333333333</ele><time>2026-04-18T14:35:49.767Z</time></trkpt><trkpt lat="42.9488367" lon="11.6441217"><ele>761.6666666666666</ele><time>2026-04-18T14:35:50.771Z</time></trkpt><trkpt lat="42.94872" lon="11.64435"><ele>762.0</ele><time>2026-04-18T14:35:51.768Z</time></trkpt><trkpt lat="42.9486217" lon="11.6445983"><ele>762.3333333333334</ele><time>2026-04-18T14:35:52.771Z</time></trkpt><trkpt lat="42.948535" lon="11.64487"><ele>762.6666666666667</ele><time>2026-04-18T14:35:53.768Z</time></trkpt><trkpt lat="42.9484433" lon="11.64514"><ele>763.0</ele><time>2026-04-18T14:35:54.767Z</time></trkpt><trkpt lat="42.9483317" lon="11.6454133"><ele>766.3333333333334</ele><time>2026-04-18T14:35:55.769Z</time></trkpt><trkpt lat="42.94822" lon="11.645685"><ele>769.6666666666667</ele><time>2026-04-18T14:35:56.768Z</time></trkpt><trkpt lat="42.94811" lon="11.645945"><ele>773.0</ele><time>2026-04-18T14:35:57.77Z</time></trkpt><trkpt lat="42.9480083" lon="11.64619"><ele>773.0</ele><time>2026-04-18T14:35:58.77Z</time></trkpt><trkpt lat="42.9479183" lon="11.646405"><ele>773.0</ele><time>2026-04-18T14:35:59.769Z</time></trkpt><trkpt lat="42.9478567" lon="11.6466017"><ele>773.0</ele><time>2026-04-18T14:36:00.767Z</time></trkpt><trkpt lat="42.9478183" lon="11.6468"><ele>772.6666666666667</ele><time>2026-04-18T14:36:01.766Z</time></trkpt><trkpt lat="42.9478233" lon="11.6470033"><ele>772.3333333333333</ele><time>2026-04-18T14:36:02.772Z</time></trkpt><trkpt lat="42.9478733" lon="11.6472267"><ele>772.0</ele><time>2026-04-18T14:36:03.768Z</time></trkpt><trkpt lat="42.9479517" lon="11.647455"><ele>772.0</ele><time>2026-04-18T14:36:04.765Z</time></trkpt><trkpt lat="42.94801" lon="11.6477"><ele>772.0</ele><time>2026-04-18T14:36:05.771Z</time></trkpt><trkpt lat="42.948025" lon="11.647955"><ele>772.0</ele><time>2026-04-18T14:36:06.77Z</time></trkpt><trkpt lat="42.9479933" lon="11.648205"><ele>772.0</ele><time>2026-04-18T14:36:07.769Z</time></trkpt><trkpt lat="42.9479283" lon="11.6484367"><ele>772.0</ele><time>2026-04-18T14:36:08.764Z</time></trkpt><trkpt lat="42.9478717" lon="11.6486583"><ele>772.0</ele><time>2026-04-18T14:36:09.77Z</time></trkpt><trkpt lat="42.9478467" lon="11.6488933"><ele>772.3333333333333</ele><time>2026-04-18T14:36:10.767Z</time></trkpt><trkpt lat="42.9478717" lon="11.6491517"><ele>772.6666666666667</ele><time>2026-04-18T14:36:11.769Z</time></trkpt><trkpt lat="42.9479483" lon="11.649415"><ele>773.0</ele><time>2026-04-18T14:36:12.77Z</time></trkpt><trkpt lat="42.9480483" lon="11.6496833"><ele>777.5</ele><time>2026-04-18T14:36:13.769Z</time></trkpt><trkpt lat="42.9481517" lon="11.6499533"><ele>782.0</ele><time>2026-04-18T14:36:14.772Z</time></trkpt><trkpt lat="42.9482283" lon="11.6502467"><ele>782.5</ele><time>2026-04-18T14:36:15.769Z</time></trkpt><trkpt lat="42.9482883" lon="11.6505517"><ele>783.0</ele><time>2026-04-18T14:36:16.765Z</time></trkpt><trkpt lat="42.9483367" lon="11.650875"><ele>782.0</ele><time>2026-04-18T14:36:17.764Z</time></trkpt><trkpt lat="42.948375" lon="11.651215"><ele>781.0</ele><time>2026-04-18T14:36:18.77Z</time></trkpt><trkpt lat="42.9484383" lon="11.65189"><ele>772.0</ele><time>2026-04-18T14:36:20.768Z</time></trkpt><trkpt lat="42.9484767" lon="11.6522233"><ele>763.0</ele><time>2026-04-18T14:36:21.767Z</time></trkpt><trkpt lat="42.9485117" lon="11.6525417"><ele>762.0</ele><time>2026-04-18T14:36:22.767Z</time></trkpt><trkpt lat="42.9485467" lon="11.6528383"><ele>761.0</ele><time>2026-04-18T14:36:23.767Z</time></trkpt><trkpt lat="42.9485733" lon="11.65311"><ele>760.0</ele><time>2026-04-18T14:36:24.772Z</time></trkpt><trkpt lat="42.9485733" lon="11.653365"><ele>760.0</ele><time>2026-04-18T14:36:25.78Z</time></trkpt><trkpt lat="42.9485383" lon="11.65361"><ele>760.0</ele><time>2026-04-18T14:36:26.77Z</time></trkpt><trkpt lat="42.9484683" lon="11.6538483"><ele>760.0</ele><time>2026-04-18T14:36:27.778Z</time></trkpt><trkpt lat="42.9483867" lon="11.6540833"><ele>763.3333333333334</ele><time>2026-04-18T14:36:28.77Z</time></trkpt><trkpt lat="42.9483233" lon="11.6543183"><ele>766.6666666666667</ele><time>2026-04-18T14:36:29.766Z</time></trkpt><trkpt lat="42.94829" lon="11.6545617"><ele>770.0</ele><time>2026-04-18T14:36:30.767Z</time></trkpt><trkpt lat="42.948285" lon="11.65482"><ele>770.0</ele><time>2026-04-18T14:36:31.766Z</time></trkpt><trkpt lat="42.94831" lon="11.6550967"><ele>770.0</ele><time>2026-04-18T14:36:32.769Z</time></trkpt><trkpt lat="42.9483433" lon="11.655385"><ele>770.0</ele><time>2026-04-18T14:36:33.765Z</time></trkpt><trkpt lat="42.9483817" lon="11.6556633"><ele>765.0</ele><time>2026-04-18T14:36:34.765Z</time></trkpt><trkpt lat="42.9484067" lon="11.6559267"><ele>760.0</ele><time>2026-04-18T14:36:35.767Z</time></trkpt><trkpt lat="42.9484117" lon="11.6561733"><ele>755.0</ele><time>2026-04-18T14:36:36.767Z</time></trkpt><trkpt lat="42.9483867" lon="11.6564117"><ele>756.0</ele><time>2026-04-18T14:36:37.768Z</time></trkpt><trkpt lat="42.948335" lon="11.6566683"><ele>757.0</ele><time>2026-04-18T14:36:38.769Z</time></trkpt><trkpt lat="42.9482683" lon="11.6569433"><ele>758.0</ele><time>2026-04-18T14:36:39.77Z</time></trkpt><trkpt lat="42.9481933" lon="11.65723"><ele>758.0</ele><time>2026-04-18T14:36:40.77Z</time></trkpt><trkpt lat="42.9481167" lon="11.6575317"><ele>758.0</ele><time>2026-04-18T14:36:41.77Z</time></trkpt><trkpt lat="42.9480267" lon="11.6578483"><ele>755.5</ele><time>2026-04-18T14:36:42.77Z</time></trkpt><trkpt lat="42.947935" lon="11.6581783"><ele>753.0</ele><time>2026-04-18T14:36:43.769Z</time></trkpt><trkpt lat="42.9478367" lon="11.658535"><ele>750.5</ele><time>2026-04-18T14:36:44.773Z</time></trkpt><trkpt lat="42.94773" lon="11.6588883"><ele>748.0</ele><time>2026-04-18T14:36:45.77Z</time></trkpt><trkpt lat="42.9476217" lon="11.659225"><ele>749.5</ele><time>2026-04-18T14:36:46.77Z</time></trkpt><trkpt lat="42.947525" lon="11.6595333"><ele>751.0</ele><time>2026-04-18T14:36:47.77Z</time></trkpt><trkpt lat="42.947435" lon="11.6598233"><ele>751.0</ele><time>2026-04-18T14:36:48.771Z</time></trkpt><trkpt lat="42.947355" lon="11.6601"><ele>751.0</ele><time>2026-04-18T14:36:49.768Z</time></trkpt><trkpt lat="42.947285" lon="11.6603633"><ele>751.0</ele><time>2026-04-18T14:36:50.769Z</time></trkpt><trkpt lat="42.9472233" lon="11.6606033"><ele>749.3333333333334</ele><time>2026-04-18T14:36:51.767Z</time></trkpt><trkpt lat="42.9471567" lon="11.6608333"><ele>747.6666666666666</ele><time>2026-04-18T14:36:52.767Z</time></trkpt><trkpt lat="42.947095" lon="11.6610633"><ele>746.0</ele><time>2026-04-18T14:36:53.769Z</time></trkpt><trkpt lat="42.9470567" lon="11.6613"><ele>745.6666666666666</ele><time>2026-04-18T14:36:54.769Z</time></trkpt><trkpt lat="42.9470533" lon="11.6615367"><ele>745.3333333333334</ele><time>2026-04-18T14:36:55.767Z</time></trkpt><trkpt lat="42.9470883" lon="11.6617767"><ele>745.0</ele><time>2026-04-18T14:36:56.768Z</time></trkpt><trkpt lat="42.947155" lon="11.6620183"><ele>745.0</ele><time>2026-04-18T14:36:57.769Z</time></trkpt><trkpt lat="42.9472433" lon="11.6622617"><ele>745.0</ele><time>2026-04-18T14:36:58.765Z</time></trkpt><trkpt lat="42.9473383" lon="11.6625117"><ele>745.0</ele><time>2026-04-18T14:36:59.77Z</time></trkpt><trkpt lat="42.9474317" lon="11.6627633"><ele>747.6666666666667</ele><time>2026-04-18T14:37:00.768Z</time></trkpt><trkpt lat="42.9475217" lon="11.6630167"><ele>750.3333333333334</ele><time>2026-04-18T14:37:01.769Z</time></trkpt><trkpt lat="42.9476133" lon="11.66327"><ele>753.0</ele><time>2026-04-18T14:37:02.768Z</time></trkpt><trkpt lat="42.9477" lon="11.6635033"><ele>747.6666666666666</ele><time>2026-04-18T14:37:03.768Z</time></trkpt><trkpt lat="42.9477833" lon="11.6637233"><ele>742.3333333333333</ele><time>2026-04-18T14:37:04.769Z</time></trkpt><trkpt lat="42.9478567" lon="11.66393"><ele>737.0</ele><time>2026-04-18T14:37:05.768Z</time></trkpt><trkpt lat="42.9479267" lon="11.664115"><ele>737.0</ele><time>2026-04-18T14:37:06.77Z</time></trkpt><trkpt lat="42.9479883" lon="11.66428"><ele>737.0</ele><time>2026-04-18T14:37:07.765Z</time></trkpt><trkpt lat="42.9480367" lon="11.6644367"><ele>737.0</ele><time>2026-04-18T14:37:08.762Z</time></trkpt><trkpt lat="42.948075" lon="11.6645617"><ele>737.0</ele><time>2026-04-18T14:37:09.767Z</time></trkpt><trkpt lat="42.9481067" lon="11.6646517"><ele>737.0</ele><time>2026-04-18T14:37:10.764Z</time></trkpt><trkpt lat="42.9481517" lon="11.6647383"><ele>737.8333333333333</ele><time>2026-04-18T14:37:12.765Z</time></trkpt><trkpt lat="42.9482033" lon="11.6648367"><ele>738.6666666666666</ele><time>2026-04-18T14:37:23.768Z</time></trkpt><trkpt lat="42.9482767" lon="11.6648683"><ele>739.5</ele><time>2026-04-18T14:37:25.768Z</time></trkpt><trkpt lat="42.9483483" lon="11.6648"><ele>740.3333333333334</ele><time>2026-04-18T14:37:27.769Z</time></trkpt><trkpt lat="42.9483483" lon="11.6647083"><ele>741.1666666666667</ele><time>2026-04-18T14:37:29.766Z</time></trkpt><trkpt lat="42.94836" lon="11.6646233"><ele>742.0</ele><time>2026-04-18T14:37:31.768Z</time></trkpt><trkpt lat="42.9484627" lon="11.664631"><ele>727.0</ele><time>2026-04-18T14:50:14.807Z</time></trkpt></trkseg><trkseg><trkpt lat="42.9483226" lon="11.6652009"><ele>737.0</ele><time>2026-04-18T15:04:20.663Z</time></trkpt><trkpt lat="42.9483817" lon="11.6650447"><ele>732.0</ele><time>2026-04-18T15:04:21.684Z</time></trkpt><trkpt lat="42.9483926" lon="11.6646925"><ele>727.0</ele><time>2026-04-18T15:04:32.816Z</time></trkpt><trkpt lat="42.9483943" lon="11.6646"><ele>727.6666666666667</ele><time>2026-04-18T15:05:28.852Z</time></trkpt><trkpt lat="42.9485446" lon="11.6642677"><ele>728.3333333333334</ele><time>2026-04-18T15:05:32.771Z</time></trkpt><trkpt lat="42.9486155" lon="11.6640878"><ele>729.0</ele><time>2026-04-18T15:05:33.768Z</time></trkpt><trkpt lat="42.94867" lon="11.6639496"><ele>729.0</ele><time>2026-04-18T15:05:34.769Z</time></trkpt><trkpt lat="42.9487211" lon="11.6638211"><ele>729.0</ele><time>2026-04-18T15:05:35.768Z</time></trkpt><trkpt lat="42.948772" lon="11.6636887"><ele>729.0</ele><time>2026-04-18T15:05:36.759Z</time></trkpt><trkpt lat="42.9488273" lon="11.6635474"><ele>729.0</ele><time>2026-04-18T15:05:37.758Z</time></trkpt><trkpt lat="42.9488874" lon="11.6634006"><ele>729.0</ele><time>2026-04-18T15:05:38.772Z</time></trkpt><trkpt lat="42.9489515" lon="11.66325"><ele>729.0</ele><time>2026-04-18T15:05:39.77Z</time></trkpt><trkpt lat="42.9490167" lon="11.6630974"><ele>729.0</ele><time>2026-04-18T15:05:40.766Z</time></trkpt><trkpt lat="42.949084" lon="11.6629475"><ele>729.0</ele><time>2026-04-18T15:05:41.766Z</time></trkpt><trkpt lat="42.9491599" lon="11.6628075"><ele>724.5</ele><time>2026-04-18T15:05:42.769Z</time></trkpt><trkpt lat="42.9492557" lon="11.6626977"><ele>720.0</ele><time>2026-04-18T15:05:43.77Z</time></trkpt><trkpt lat="42.9493626" lon="11.6626229"><ele>715.5</ele><time>2026-04-18T15:05:44.772Z</time></trkpt><trkpt lat="42.9494827" lon="11.6625936"><ele>711.0</ele><time>2026-04-18T15:05:45.77Z</time></trkpt><trkpt lat="42.9496041" lon="11.6626172"><ele>711.0</ele><time>2026-04-18T15:05:46.769Z</time></trkpt><trkpt lat="42.9497246" lon="11.662702"><ele>711.0</ele><time>2026-04-18T15:05:47.77Z</time></trkpt><trkpt lat="42.9498173" lon="11.6628511"><ele>711.0</ele><time>2026-04-18T15:05:48.771Z</time></trkpt><trkpt lat="42.9498738" lon="11.6630525"><ele>711.0</ele><time>2026-04-18T15:05:49.77Z</time></trkpt><trkpt lat="42.9498928" lon="11.6632966"><ele>711.0</ele><time>2026-04-18T15:05:50.769Z</time></trkpt><trkpt lat="42.949891" lon="11.663552"><ele>711.0</ele><time>2026-04-18T15:05:51.77Z</time></trkpt><trkpt lat="42.9498753" lon="11.6638056"><ele>711.0</ele><time>2026-04-18T15:05:52.768Z</time></trkpt><trkpt lat="42.9498494" lon="11.6640506"><ele>710.0</ele><time>2026-04-18T15:05:53.77Z</time></trkpt><trkpt lat="42.9498261" lon="11.6642884"><ele>709.0</ele><time>2026-04-18T15:05:54.771Z</time></trkpt><trkpt lat="42.949805" lon="11.664521"><ele>708.0</ele><time>2026-04-18T15:05:55.77Z</time></trkpt><trkpt lat="42.9497927" lon="11.6647592"><ele>708.0</ele><time>2026-04-18T15:05:56.771Z</time></trkpt><trkpt lat="42.9498085" lon="11.664998"><ele>708.0</ele><time>2026-04-18T15:05:57.767Z</time></trkpt><trkpt lat="42.9498525" lon="11.6652329"><ele>708.0</ele><time>2026-04-18T15:05:58.766Z</time></trkpt><trkpt lat="42.9499134" lon="11.6654645"><ele>709.3333333333334</ele><time>2026-04-18T15:05:59.768Z</time></trkpt><trkpt lat="42.9499818" lon="11.6656972"><ele>710.6666666666667</ele><time>2026-04-18T15:06:00.769Z</time></trkpt><trkpt lat="42.9500537" lon="11.665928"><ele>712.0</ele><time>2026-04-18T15:06:01.767Z</time></trkpt><trkpt lat="42.9501312" lon="11.6661671"><ele>708.0</ele><time>2026-04-18T15:06:02.768Z</time></trkpt><trkpt lat="42.9502341" lon="11.6663976"><ele>704.0</ele><time>2026-04-18T15:06:03.768Z</time></trkpt><trkpt lat="42.9503578" lon="11.666614"><ele>700.0</ele><time>2026-04-18T15:06:04.77Z</time></trkpt><trkpt lat="42.9504993" lon="11.6668008"><ele>700.6666666666667</ele><time>2026-04-18T15:06:05.769Z</time></trkpt><trkpt lat="42.950659" lon="11.6669614"><ele>701.3333333333334</ele><time>2026-04-18T15:06:06.771Z</time></trkpt><trkpt lat="42.9508234" lon="11.6671153"><ele>702.0</ele><time>2026-04-18T15:06:07.77Z</time></trkpt><trkpt lat="42.9509932" lon="11.6672499"><ele>697.0</ele><time>2026-04-18T15:06:08.762Z</time></trkpt><trkpt lat="42.9511638" lon="11.6673706"><ele>692.0</ele><time>2026-04-18T15:06:09.771Z</time></trkpt><trkpt lat="42.951342" lon="11.6674663"><ele>687.0</ele><time>2026-04-18T15:06:10.771Z</time></trkpt><trkpt lat="42.9515284" lon="11.6675341"><ele>683.3333333333334</ele><time>2026-04-18T15:06:11.769Z</time></trkpt><trkpt lat="42.9517295" lon="11.667561"><ele>679.6666666666667</ele><time>2026-04-18T15:06:12.774Z</time></trkpt><trkpt lat="42.9519384" lon="11.6675507"><ele>676.0</ele><time>2026-04-18T15:06:13.77Z</time></trkpt><trkpt lat="42.9521514" lon="11.6675137"><ele>676.0</ele><time>2026-04-18T15:06:14.772Z</time></trkpt><trkpt lat="42.9523627" lon="11.6674728"><ele>676.0</ele><time>2026-04-18T15:06:15.773Z</time></trkpt><trkpt lat="42.9525756" lon="11.6674228"><ele>676.0</ele><time>2026-04-18T15:06:16.771Z</time></trkpt><trkpt lat="42.9527929" lon="11.6673737"><ele>667.5</ele><time>2026-04-18T15:06:17.773Z</time></trkpt><trkpt lat="42.9530165" lon="11.6673216"><ele>659.0</ele><time>2026-04-18T15:06:18.769Z</time></trkpt><trkpt lat="42.9532412" lon="11.6672692"><ele>652.6666666666666</ele><time>2026-04-18T15:06:19.77Z</time></trkpt><trkpt lat="42.9534614" lon="11.6672183"><ele>646.3333333333334</ele><time>2026-04-18T15:06:20.764Z</time></trkpt><trkpt lat="42.9536779" lon="11.6671753"><ele>640.0</ele><time>2026-04-18T15:06:21.772Z</time></trkpt><trkpt lat="42.9538793" lon="11.6671409"><ele>640.0</ele><time>2026-04-18T15:06:22.765Z</time></trkpt><trkpt lat="42.9540654" lon="11.6671281"><ele>640.0</ele><time>2026-04-18T15:06:23.77Z</time></trkpt><trkpt lat="42.9542474" lon="11.6671487"><ele>640.0</ele><time>2026-04-18T15:06:24.77Z</time></trkpt><trkpt lat="42.9544215" lon="11.6672109"><ele>634.6666666666667</ele><time>2026-04-18T15:06:25.769Z</time></trkpt><trkpt lat="42.9545878" lon="11.6673181"><ele>629.3333333333334</ele><time>2026-04-18T15:06:26.775Z</time></trkpt><trkpt lat="42.9547462" lon="11.6674695"><ele>624.0</ele><time>2026-04-18T15:06:27.768Z</time></trkpt><trkpt lat="42.9548956" lon="11.6676543"><ele>621.0</ele><time>2026-04-18T15:06:28.767Z</time></trkpt><trkpt lat="42.9550404" lon="11.667855"><ele>618.0</ele><time>2026-04-18T15:06:29.77Z</time></trkpt><trkpt lat="42.9551841" lon="11.668057"><ele>615.0</ele><time>2026-04-18T15:06:30.769Z</time></trkpt><trkpt lat="42.9553238" lon="11.6682586"><ele>615.0</ele><time>2026-04-18T15:06:31.77Z</time></trkpt><trkpt lat="42.9554584" lon="11.6684552"><ele>615.0</ele><time>2026-04-18T15:06:32.775Z</time></trkpt><trkpt lat="42.9555807" lon="11.6686543"><ele>615.0</ele><time>2026-04-18T15:06:33.771Z</time></trkpt><trkpt lat="42.9556828" lon="11.6688637"><ele>615.0</ele><time>2026-04-18T15:06:34.77Z</time></trkpt><trkpt lat="42.9557632" lon="11.6690864"><ele>615.0</ele><time>2026-04-18T15:06:35.772Z</time></trkpt><trkpt lat="42.9558169" lon="11.6693287"><ele>615.0</ele><time>2026-04-18T15:06:36.774Z</time></trkpt><trkpt lat="42.9558396" lon="11.6696024"><ele>614.3333333333334</ele><time>2026-04-18T15:06:37.771Z</time></trkpt><trkpt lat="42.9558421" lon="11.6698933"><ele>613.6666666666667</ele><time>2026-04-18T15:06:38.772Z</time></trkpt><trkpt lat="42.9558418" lon="11.6701856"><ele>613.0</ele><time>2026-04-18T15:06:39.77Z</time></trkpt><trkpt lat="42.9558446" lon="11.6704797"><ele>612.0</ele><time>2026-04-18T15:06:40.77Z</time></trkpt><trkpt lat="42.9558473" lon="11.6707665"><ele>611.0</ele><time>2026-04-18T15:06:41.771Z</time></trkpt><trkpt lat="42.9558542" lon="11.6710377"><ele>610.0</ele><time>2026-04-18T15:06:42.761Z</time></trkpt><trkpt lat="42.9558682" lon="11.6712874"><ele>604.3333333333334</ele><time>2026-04-18T15:06:43.768Z</time></trkpt><trkpt lat="42.9559078" lon="11.6715161"><ele>598.6666666666666</ele><time>2026-04-18T15:06:44.773Z</time></trkpt><trkpt lat="42.9559773" lon="11.6717384"><ele>593.0</ele><time>2026-04-18T15:06:45.771Z</time></trkpt><trkpt lat="42.9560813" lon="11.6719414"><ele>590.0</ele><time>2026-04-18T15:06:46.769Z</time></trkpt><trkpt lat="42.9562199" lon="11.6721042"><ele>587.0</ele><time>2026-04-18T15:06:47.769Z</time></trkpt><trkpt lat="42.9563834" lon="11.6722281"><ele>584.0</ele><time>2026-04-18T15:06:48.771Z</time></trkpt><trkpt lat="42.9565662" lon="11.6723081"><ele>581.6666666666666</ele><time>2026-04-18T15:06:49.772Z</time></trkpt><trkpt lat="42.9567713" lon="11.6723404"><ele>579.3333333333334</ele><time>2026-04-18T15:06:50.774Z</time></trkpt><trkpt lat="42.956987" lon="11.6723341"><ele>577.0</ele><time>2026-04-18T15:06:51.77Z</time></trkpt><trkpt lat="42.9572124" lon="11.6723047"><ele>577.0</ele><time>2026-04-18T15:06:52.77Z</time></trkpt><trkpt lat="42.9574428" lon="11.6722637"><ele>577.0</ele><time>2026-04-18T15:06:53.763Z</time></trkpt><trkpt lat="42.9576733" lon="11.6722029"><ele>572.0</ele><time>2026-04-18T15:06:54.771Z</time></trkpt><trkpt lat="42.9578961" lon="11.6721033"><ele>567.0</ele><time>2026-04-18T15:06:55.772Z</time></trkpt><trkpt lat="42.9581118" lon="11.6719686"><ele>569.0</ele><time>2026-04-18T15:06:56.776Z</time></trkpt><trkpt lat="42.958329" lon="11.6718181"><ele>571.0</ele><time>2026-04-18T15:06:57.773Z</time></trkpt><trkpt lat="42.9585523" lon="11.6716649"><ele>566.5</ele><time>2026-04-18T15:06:58.765Z</time></trkpt><trkpt lat="42.9587858" lon="11.6715092"><ele>562.0</ele><time>2026-04-18T15:06:59.766Z</time></trkpt><trkpt lat="42.9590121" lon="11.6713554"><ele>556.0</ele><time>2026-04-18T15:07:00.77Z</time></trkpt><trkpt lat="42.9592259" lon="11.6712098"><ele>550.0</ele><time>2026-04-18T15:07:01.772Z</time></trkpt><trkpt lat="42.9594235" lon="11.6710736"><ele>550.0</ele><time>2026-04-18T15:07:02.772Z</time></trkpt><trkpt lat="42.959606" lon="11.6709459"><ele>550.0</ele><time>2026-04-18T15:07:03.77Z</time></trkpt><trkpt lat="42.9597834" lon="11.6708308"><ele>550.0</ele><time>2026-04-18T15:07:04.768Z</time></trkpt><trkpt lat="42.9599598" lon="11.6707425"><ele>547.0</ele><time>2026-04-18T15:07:05.771Z</time></trkpt><trkpt lat="42.9601448" lon="11.6707026"><ele>544.0</ele><time>2026-04-18T15:07:06.769Z</time></trkpt><trkpt lat="42.9603338" lon="11.6707068"><ele>541.0</ele><time>2026-04-18T15:07:07.77Z</time></trkpt><trkpt lat="42.9605243" lon="11.6707559"><ele>541.0</ele><time>2026-04-18T15:07:08.774Z</time></trkpt><trkpt lat="42.9607167" lon="11.6708413"><ele>541.0</ele><time>2026-04-18T15:07:09.76Z</time></trkpt><trkpt lat="42.9609122" lon="11.6709476"><ele>541.0</ele><time>2026-04-18T15:07:10.76Z</time></trkpt><trkpt lat="42.9611148" lon="11.6710578"><ele>537.6666666666667</ele><time>2026-04-18T15:07:11.769Z</time></trkpt><trkpt lat="42.9613184" lon="11.671168"><ele>534.3333333333334</ele><time>2026-04-18T15:07:12.766Z</time></trkpt><trkpt lat="42.9615206" lon="11.6712736"><ele>531.0</ele><time>2026-04-18T15:07:13.762Z</time></trkpt><trkpt lat="42.9617183" lon="11.6713747"><ele>529.0</ele><time>2026-04-18T15:07:14.77Z</time></trkpt><trkpt lat="42.9619088" lon="11.6714729"><ele>527.0</ele><time>2026-04-18T15:07:15.772Z</time></trkpt><trkpt lat="42.9620945" lon="11.6715666"><ele>525.0</ele><time>2026-04-18T15:07:16.769Z</time></trkpt><trkpt lat="42.9622656" lon="11.671655"><ele>525.0</ele><time>2026-04-18T15:07:17.771Z</time></trkpt><trkpt lat="42.9624276" lon="11.6717283"><ele>525.0</ele><time>2026-04-18T15:07:18.773Z</time></trkpt><trkpt lat="42.9625868" lon="11.6717662"><ele>525.0</ele><time>2026-04-18T15:07:19.772Z</time></trkpt><trkpt lat="42.9627484" lon="11.6717575"><ele>521.6666666666666</ele><time>2026-04-18T15:07:20.772Z</time></trkpt><trkpt lat="42.9629084" lon="11.6716959"><ele>518.3333333333333</ele><time>2026-04-18T15:07:21.772Z</time></trkpt><trkpt lat="42.9630577" lon="11.6715828"><ele>515.0</ele><time>2026-04-18T15:07:22.771Z</time></trkpt><trkpt lat="42.9631924" lon="11.6714386"><ele>515.0</ele><time>2026-04-18T15:07:23.773Z</time></trkpt><trkpt lat="42.9633233" lon="11.67129"><ele>515.0</ele><time>2026-04-18T15:07:24.772Z</time></trkpt><trkpt lat="42.96347" lon="11.671185"><ele>515.0</ele><time>2026-04-18T15:07:25.769Z</time></trkpt><trkpt lat="42.96362" lon="11.6711267"><ele>511.0</ele><time>2026-04-18T15:07:26.773Z</time></trkpt><trkpt lat="42.96378" lon="11.6711267"><ele>507.0</ele><time>2026-04-18T15:07:27.77Z</time></trkpt><trkpt lat="42.9639417" lon="11.6711883"><ele>503.0</ele><time>2026-04-18T15:07:28.77Z</time></trkpt><trkpt lat="42.964105" lon="11.6713033"><ele>500.3333333333333</ele><time>2026-04-18T15:07:29.769Z</time></trkpt><trkpt lat="42.964255" lon="11.6714417"><ele>497.66666666666663</ele><time>2026-04-18T15:07:30.767Z</time></trkpt><trkpt lat="42.964385" lon="11.671595"><ele>495.0</ele><time>2026-04-18T15:07:31.769Z</time></trkpt><trkpt lat="42.9644883" lon="11.6717817"><ele>493.0</ele><time>2026-04-18T15:07:32.772Z</time></trkpt><trkpt lat="42.9645617" lon="11.67199"><ele>491.0</ele><time>2026-04-18T15:07:33.765Z</time></trkpt><trkpt lat="42.9645933" lon="11.6722333"><ele>489.0</ele><time>2026-04-18T15:07:34.772Z</time></trkpt><trkpt lat="42.9646" lon="11.6724883"><ele>489.0</ele><time>2026-04-18T15:07:35.77Z</time></trkpt><trkpt lat="42.9645983" lon="11.6727483"><ele>489.0</ele><time>2026-04-18T15:07:36.771Z</time></trkpt><trkpt lat="42.964595" lon="11.673015"><ele>489.0</ele><time>2026-04-18T15:07:37.769Z</time></trkpt><trkpt lat="42.96459" lon="11.67329"><ele>487.66666666666663</ele><time>2026-04-18T15:07:38.773Z</time></trkpt><trkpt lat="42.96459" lon="11.6735633"><ele>486.3333333333333</ele><time>2026-04-18T15:07:39.772Z</time></trkpt><trkpt lat="42.964595" lon="11.6738183"><ele>485.0</ele><time>2026-04-18T15:07:40.772Z</time></trkpt><trkpt lat="42.964615" lon="11.674065"><ele>484.66666666666663</ele><time>2026-04-18T15:07:41.772Z</time></trkpt><trkpt lat="42.9646533" lon="11.6742967"><ele>484.33333333333337</ele><time>2026-04-18T15:07:42.771Z</time></trkpt><trkpt lat="42.9647183" lon="11.6745217"><ele>484.0</ele><time>2026-04-18T15:07:43.773Z</time></trkpt><trkpt lat="42.96481" lon="11.6747317"><ele>482.0</ele><time>2026-04-18T15:07:44.774Z</time></trkpt><trkpt lat="42.9649267" lon="11.67492"><ele>480.0</ele><time>2026-04-18T15:07:45.771Z</time></trkpt><trkpt lat="42.96507" lon="11.67509"><ele>478.0</ele><time>2026-04-18T15:07:46.771Z</time></trkpt><trkpt lat="42.965235" lon="11.6752267"><ele>472.6666666666667</ele><time>2026-04-18T15:07:47.773Z</time></trkpt><trkpt lat="42.965415" lon="11.6753233"><ele>467.33333333333337</ele><time>2026-04-18T15:07:48.771Z</time></trkpt><trkpt lat="42.9656033" lon="11.6753667"><ele>462.0</ele><time>2026-04-18T15:07:49.771Z</time></trkpt><trkpt lat="42.9657983" lon="11.6753667"><ele>460.33333333333337</ele><time>2026-04-18T15:07:50.775Z</time></trkpt><trkpt lat="42.9659917" lon="11.6753067"><ele>458.6666666666667</ele><time>2026-04-18T15:07:51.774Z</time></trkpt><trkpt lat="42.9661817" lon="11.675185"><ele>457.0</ele><time>2026-04-18T15:07:52.772Z</time></trkpt><trkpt lat="42.9663633" lon="11.675045"><ele>457.0</ele><time>2026-04-18T15:07:53.774Z</time></trkpt><trkpt lat="42.9665367" lon="11.6749117"><ele>457.0</ele><time>2026-04-18T15:07:54.771Z</time></trkpt><trkpt lat="42.9666917" lon="11.6747867"><ele>457.0</ele><time>2026-04-18T15:07:55.771Z</time></trkpt><trkpt lat="42.9668433" lon="11.6746483"><ele>456.6666666666667</ele><time>2026-04-18T15:07:56.774Z</time></trkpt><trkpt lat="42.9669833" lon="11.6744883"><ele>456.33333333333337</ele><time>2026-04-18T15:07:57.773Z</time></trkpt><trkpt lat="42.9671033" lon="11.6742967"><ele>456.0</ele><time>2026-04-18T15:07:58.772Z</time></trkpt><trkpt lat="42.9672033" lon="11.67407"><ele>456.0</ele><time>2026-04-18T15:07:59.773Z</time></trkpt><trkpt lat="42.9672833" lon="11.6738217"><ele>456.0</ele><time>2026-04-18T15:08:00.772Z</time></trkpt><trkpt lat="42.9673617" lon="11.673575"><ele>456.0</ele><time>2026-04-18T15:08:01.771Z</time></trkpt><trkpt lat="42.9674317" lon="11.6733333"><ele>455.66666666666663</ele><time>2026-04-18T15:08:02.773Z</time></trkpt><trkpt lat="42.9675167" lon="11.6731133"><ele>455.3333333333333</ele><time>2026-04-18T15:08:03.771Z</time></trkpt><trkpt lat="42.9676267" lon="11.6729217"><ele>455.0</ele><time>2026-04-18T15:08:04.771Z</time></trkpt><trkpt lat="42.9677667" lon="11.6727667"><ele>450.3333333333333</ele><time>2026-04-18T15:08:05.771Z</time></trkpt><trkpt lat="42.9679383" lon="11.6726433"><ele>445.66666666666663</ele><time>2026-04-18T15:08:06.771Z</time></trkpt><trkpt lat="42.968125" lon="11.6725417"><ele>441.0</ele><time>2026-04-18T15:08:07.769Z</time></trkpt><trkpt lat="42.9683133" lon="11.6724517"><ele>437.33333333333337</ele><time>2026-04-18T15:08:08.771Z</time></trkpt><trkpt lat="42.968505" lon="11.672385"><ele>433.6666666666667</ele><time>2026-04-18T15:08:09.768Z</time></trkpt><trkpt lat="42.9686933" lon="11.6723617"><ele>430.0</ele><time>2026-04-18T15:08:10.766Z</time></trkpt><trkpt lat="42.968885" lon="11.6723867"><ele>430.0</ele><time>2026-04-18T15:08:11.773Z</time></trkpt><trkpt lat="42.96908" lon="11.6724533"><ele>430.0</ele><time>2026-04-18T15:08:12.77Z</time></trkpt><trkpt lat="42.96927" lon="11.6725483"><ele>430.0</ele><time>2026-04-18T15:08:13.769Z</time></trkpt><trkpt lat="42.9694433" lon="11.67267"><ele>426.0</ele><time>2026-04-18T15:08:14.772Z</time></trkpt><trkpt lat="42.9696067" lon="11.67279"><ele>422.0</ele><time>2026-04-18T15:08:15.772Z</time></trkpt><trkpt lat="42.9697667" lon="11.672885"><ele>418.0</ele><time>2026-04-18T15:08:16.771Z</time></trkpt><trkpt lat="42.9699317" lon="11.67293"><ele>414.0</ele><time>2026-04-18T15:08:17.771Z</time></trkpt><trkpt lat="42.9701033" lon="11.67291"><ele>410.0</ele><time>2026-04-18T15:08:18.772Z</time></trkpt><trkpt lat="42.9702717" lon="11.6728267"><ele>406.0</ele><time>2026-04-18T15:08:19.77Z</time></trkpt><trkpt lat="42.9704317" lon="11.672685"><ele>406.0</ele><time>2026-04-18T15:08:20.771Z</time></trkpt><trkpt lat="42.970555" lon="11.672485"><ele>406.0</ele><time>2026-04-18T15:08:21.77Z</time></trkpt><trkpt lat="42.97065" lon="11.6722467"><ele>406.0</ele><time>2026-04-18T15:08:22.773Z</time></trkpt><trkpt lat="42.9707383" lon="11.6720017"><ele>405.6666666666667</ele><time>2026-04-18T15:08:23.771Z</time></trkpt><trkpt lat="42.9708267" lon="11.6717633"><ele>405.33333333333337</ele><time>2026-04-18T15:08:24.771Z</time></trkpt><trkpt lat="42.9709183" lon="11.6715483"><ele>405.0</ele><time>2026-04-18T15:08:25.773Z</time></trkpt><trkpt lat="42.971025" lon="11.6713667"><ele>402.0</ele><time>2026-04-18T15:08:26.775Z</time></trkpt><trkpt lat="42.9711517" lon="11.6712183"><ele>399.0</ele><time>2026-04-18T15:08:27.772Z</time></trkpt><trkpt lat="42.9712967" lon="11.6711117"><ele>396.0</ele><time>2026-04-18T15:08:28.772Z</time></trkpt><trkpt lat="42.9714483" lon="11.6710383"><ele>396.0</ele><time>2026-04-18T15:08:29.77Z</time></trkpt><trkpt lat="42.9716" lon="11.6709983"><ele>396.0</ele><time>2026-04-18T15:08:30.77Z</time></trkpt><trkpt lat="42.97175" lon="11.6710017"><ele>396.0</ele><time>2026-04-18T15:08:31.773Z</time></trkpt><trkpt lat="42.9718967" lon="11.671045"><ele>395.66666666666663</ele><time>2026-04-18T15:08:32.769Z</time></trkpt><trkpt lat="42.9720333" lon="11.6711267"><ele>395.3333333333333</ele><time>2026-04-18T15:08:33.772Z</time></trkpt><trkpt lat="42.9721633" lon="11.6712383"><ele>395.0</ele><time>2026-04-18T15:08:34.772Z</time></trkpt><trkpt lat="42.9722733" lon="11.6713767"><ele>395.0</ele><time>2026-04-18T15:08:35.773Z</time></trkpt><trkpt lat="42.9723633" lon="11.671535"><ele>395.0</ele><time>2026-04-18T15:08:36.767Z</time></trkpt><trkpt lat="42.9724333" lon="11.6717117"><ele>395.0</ele><time>2026-04-18T15:08:37.772Z</time></trkpt><trkpt lat="42.972485" lon="11.6719183"><ele>394.0</ele><time>2026-04-18T15:08:38.773Z</time></trkpt><trkpt lat="42.97253" lon="11.6721517"><ele>393.0</ele><time>2026-04-18T15:08:39.775Z</time></trkpt><trkpt lat="42.9725733" lon="11.672395"><ele>392.0</ele><time>2026-04-18T15:08:40.769Z</time></trkpt><trkpt lat="42.9726167" lon="11.6726433"><ele>390.66666666666663</ele><time>2026-04-18T15:08:41.773Z</time></trkpt><trkpt lat="42.972665" lon="11.6728933"><ele>389.33333333333337</ele><time>2026-04-18T15:08:42.767Z</time></trkpt><trkpt lat="42.9727167" lon="11.67314"><ele>388.0</ele><time>2026-04-18T15:08:43.77Z</time></trkpt><trkpt lat="42.9727833" lon="11.6733817"><ele>386.33333333333337</ele><time>2026-04-18T15:08:44.769Z</time></trkpt><trkpt lat="42.97287" lon="11.6736117"><ele>384.6666666666667</ele><time>2026-04-18T15:08:45.772Z</time></trkpt><trkpt lat="42.972985" lon="11.6738217"><ele>383.0</ele><time>2026-04-18T15:08:46.772Z</time></trkpt><trkpt lat="42.9731283" lon="11.6739983"><ele>383.0</ele><time>2026-04-18T15:08:47.771Z</time></trkpt><trkpt lat="42.9732933" lon="11.6741583"><ele>383.0</ele><time>2026-04-18T15:08:48.771Z</time></trkpt><trkpt lat="42.9734733" lon="11.6743067"><ele>383.0</ele><time>2026-04-18T15:08:49.773Z</time></trkpt><trkpt lat="42.97366" lon="11.67445"><ele>381.6666666666667</ele><time>2026-04-18T15:08:50.771Z</time></trkpt><trkpt lat="42.9738467" lon="11.6746033"><ele>380.3333333333333</ele><time>2026-04-18T15:08:51.772Z</time></trkpt><trkpt lat="42.9740333" lon="11.674765"><ele>379.0</ele><time>2026-04-18T15:08:52.773Z</time></trkpt><trkpt lat="42.9742167" lon="11.6749267"><ele>378.66666666666663</ele><time>2026-04-18T15:08:53.773Z</time></trkpt><trkpt lat="42.974405" lon="11.675085"><ele>378.3333333333333</ele><time>2026-04-18T15:08:54.771Z</time></trkpt><trkpt lat="42.97459" lon="11.6752433"><ele>378.0</ele><time>2026-04-18T15:08:55.773Z</time></trkpt><trkpt lat="42.9747733" lon="11.675405"><ele>377.0</ele><time>2026-04-18T15:08:56.775Z</time></trkpt><trkpt lat="42.974955" lon="11.6755633"><ele>376.0</ele><time>2026-04-18T15:08:57.774Z</time></trkpt><trkpt lat="42.9751383" lon="11.6757183"><ele>375.0</ele><time>2026-04-18T15:08:58.77Z</time></trkpt><trkpt lat="42.9753167" lon="11.67587"><ele>375.0</ele><time>2026-04-18T15:08:59.771Z</time></trkpt><trkpt lat="42.97549" lon="11.6760117"><ele>375.0</ele><time>2026-04-18T15:09:00.773Z</time></trkpt><trkpt lat="42.9756517" lon="11.676155"><ele>375.0</ele><time>2026-04-18T15:09:01.774Z</time></trkpt><trkpt lat="42.9758067" lon="11.6763033"><ele>374.3333333333333</ele><time>2026-04-18T15:09:02.774Z</time></trkpt><trkpt lat="42.9759433" lon="11.67647"><ele>373.66666666666663</ele><time>2026-04-18T15:09:03.773Z</time></trkpt><trkpt lat="42.9760667" lon="11.6766617"><ele>373.0</ele><time>2026-04-18T15:09:04.771Z</time></trkpt><trkpt lat="42.976175" lon="11.676875"><ele>372.3333333333333</ele><time>2026-04-18T15:09:05.772Z</time></trkpt><trkpt lat="42.97628" lon="11.6771033"><ele>371.6666666666667</ele><time>2026-04-18T15:09:06.774Z</time></trkpt><trkpt lat="42.9763783" lon="11.6773483"><ele>371.0</ele><time>2026-04-18T15:09:07.772Z</time></trkpt><trkpt lat="42.9764767" lon="11.6776"><ele>370.6666666666667</ele><time>2026-04-18T15:09:08.775Z</time></trkpt><trkpt lat="42.97657" lon="11.677855"><ele>370.3333333333333</ele><time>2026-04-18T15:09:09.773Z</time></trkpt><trkpt lat="42.9766633" lon="11.6781167"><ele>370.0</ele><time>2026-04-18T15:09:10.773Z</time></trkpt><trkpt lat="42.9767617" lon="11.6783683"><ele>369.66666666666663</ele><time>2026-04-18T15:09:11.772Z</time></trkpt><trkpt lat="42.9768517" lon="11.6786283"><ele>369.3333333333333</ele><time>2026-04-18T15:09:12.762Z</time></trkpt><trkpt lat="42.9769383" lon="11.678895"><ele>369.0</ele><time>2026-04-18T15:09:13.774Z</time></trkpt><trkpt lat="42.977025" lon="11.6791717"><ele>367.0</ele><time>2026-04-18T15:09:14.776Z</time></trkpt><trkpt lat="42.97711" lon="11.679455"><ele>365.0</ele><time>2026-04-18T15:09:15.773Z</time></trkpt><trkpt lat="42.9771933" lon="11.679745"><ele>365.0</ele><time>2026-04-18T15:09:16.774Z</time></trkpt><trkpt lat="42.97728" lon="11.68004"><ele>365.0</ele><time>2026-04-18T15:09:17.774Z</time></trkpt><trkpt lat="42.9773667" lon="11.6803333"><ele>363.0</ele><time>2026-04-18T15:09:18.772Z</time></trkpt><trkpt lat="42.9774533" lon="11.6806267"><ele>361.0</ele><time>2026-04-18T15:09:19.773Z</time></trkpt><trkpt lat="42.9775417" lon="11.6809183"><ele>359.5</ele><time>2026-04-18T15:09:20.775Z</time></trkpt><trkpt lat="42.9776283" lon="11.6812067"><ele>358.0</ele><time>2026-04-18T15:09:21.773Z</time></trkpt><trkpt lat="42.9777167" lon="11.681495"><ele>358.0</ele><time>2026-04-18T15:09:22.774Z</time></trkpt><trkpt lat="42.977805" lon="11.68178"><ele>358.0</ele><time>2026-04-18T15:09:23.772Z</time></trkpt><trkpt lat="42.97789" lon="11.6820667"><ele>357.0</ele><time>2026-04-18T15:09:24.773Z</time></trkpt><trkpt lat="42.9779733" lon="11.682345"><ele>356.0</ele><time>2026-04-18T15:09:25.771Z</time></trkpt><trkpt lat="42.9780533" lon="11.6826183"><ele>355.0</ele><time>2026-04-18T15:09:26.775Z</time></trkpt><trkpt lat="42.97814" lon="11.6828967"><ele>353.5</ele><time>2026-04-18T15:09:27.771Z</time></trkpt><trkpt lat="42.9782283" lon="11.68318"><ele>352.0</ele><time>2026-04-18T15:09:28.767Z</time></trkpt><trkpt lat="42.9783183" lon="11.6834717"><ele>352.0</ele><time>2026-04-18T15:09:29.767Z</time></trkpt><trkpt lat="42.9784083" lon="11.6837633"><ele>352.0</ele><time>2026-04-18T15:09:30.772Z</time></trkpt><trkpt lat="42.9784933" lon="11.6840417"><ele>352.0</ele><time>2026-04-18T15:09:31.768Z</time></trkpt><trkpt lat="42.97858" lon="11.6843183"><ele>352.0</ele><time>2026-04-18T15:09:32.774Z</time></trkpt><trkpt lat="42.9786667" lon="11.68461"><ele>350.5</ele><time>2026-04-18T15:09:33.767Z</time></trkpt><trkpt lat="42.9787533" lon="11.6849183"><ele>349.0</ele><time>2026-04-18T15:09:34.772Z</time></trkpt><trkpt lat="42.9788383" lon="11.68523"><ele>347.5</ele><time>2026-04-18T15:09:35.771Z</time></trkpt><trkpt lat="42.9789217" lon="11.68554"><ele>346.0</ele><time>2026-04-18T15:09:36.772Z</time></trkpt><trkpt lat="42.979005" lon="11.68585"><ele>344.5</ele><time>2026-04-18T15:09:37.77Z</time></trkpt><trkpt lat="42.97909" lon="11.6861617"><ele>343.0</ele><time>2026-04-18T15:09:38.772Z</time></trkpt><trkpt lat="42.97918" lon="11.68648"><ele>343.0</ele><time>2026-04-18T15:09:39.771Z</time></trkpt><trkpt lat="42.9792717" lon="11.6868017"><ele>343.0</ele><time>2026-04-18T15:09:40.769Z</time></trkpt><trkpt lat="42.9793617" lon="11.687125"><ele>343.0</ele><time>2026-04-18T15:09:41.771Z</time></trkpt><trkpt lat="42.9794517" lon="11.687445"><ele>343.0</ele><time>2026-04-18T15:09:42.772Z</time></trkpt><trkpt lat="42.9795417" lon="11.6877617"><ele>342.0</ele><time>2026-04-18T15:09:43.769Z</time></trkpt><trkpt lat="42.97963" lon="11.6880767"><ele>341.0</ele><time>2026-04-18T15:09:44.772Z</time></trkpt><trkpt lat="42.9797183" lon="11.68839"><ele>340.5</ele><time>2026-04-18T15:09:45.774Z</time></trkpt><trkpt lat="42.979805" lon="11.6887033"><ele>340.0</ele><time>2026-04-18T15:09:46.772Z</time></trkpt><trkpt lat="42.9798867" lon="11.6890183"><ele>340.0</ele><time>2026-04-18T15:09:47.771Z</time></trkpt><trkpt lat="42.9799717" lon="11.6893317"><ele>340.0</ele><time>2026-04-18T15:09:48.773Z</time></trkpt><trkpt lat="42.9800567" lon="11.68964"><ele>340.5</ele><time>2026-04-18T15:09:49.772Z</time></trkpt><trkpt lat="42.98014" lon="11.6899433"><ele>341.0</ele><time>2026-04-18T15:09:50.774Z</time></trkpt><trkpt lat="42.980225" lon="11.6902467"><ele>340.0</ele><time>2026-04-18T15:09:51.772Z</time></trkpt><trkpt lat="42.9803067" lon="11.69055"><ele>339.0</ele><time>2026-04-18T15:09:52.77Z</time></trkpt><trkpt lat="42.98039" lon="11.6908467"><ele>337.5</ele><time>2026-04-18T15:09:53.775Z</time></trkpt><trkpt lat="42.98047" lon="11.6911417"><ele>336.0</ele><time>2026-04-18T15:09:54.774Z</time></trkpt><trkpt lat="42.9805517" lon="11.691435"><ele>336.0</ele><time>2026-04-18T15:09:55.773Z</time></trkpt><trkpt lat="42.98063" lon="11.6917233"><ele>336.0</ele><time>2026-04-18T15:09:56.774Z</time></trkpt><trkpt lat="42.980705" lon="11.6920067"><ele>336.0</ele><time>2026-04-18T15:09:57.774Z</time></trkpt><trkpt lat="42.98078" lon="11.6922867"><ele>336.3333333333333</ele><time>2026-04-18T15:09:58.771Z</time></trkpt><trkpt lat="42.980855" lon="11.6925633"><ele>336.66666666666663</ele><time>2026-04-18T15:09:59.773Z</time></trkpt><trkpt lat="42.98093" lon="11.692835"><ele>337.0</ele><time>2026-04-18T15:10:00.774Z</time></trkpt><trkpt lat="42.981005" lon="11.6931067"><ele>336.3333333333333</ele><time>2026-04-18T15:10:01.773Z</time></trkpt><trkpt lat="42.98108" lon="11.6933717"><ele>335.6666666666667</ele><time>2026-04-18T15:10:02.775Z</time></trkpt><trkpt lat="42.9811533" lon="11.6936417"><ele>335.0</ele><time>2026-04-18T15:10:03.774Z</time></trkpt><trkpt lat="42.9812267" lon="11.6939133"><ele>333.6666666666667</ele><time>2026-04-18T15:10:04.771Z</time></trkpt><trkpt lat="42.9813033" lon="11.6941817"><ele>332.3333333333333</ele><time>2026-04-18T15:10:05.772Z</time></trkpt><trkpt lat="42.9813933" lon="11.6944483"><ele>331.0</ele><time>2026-04-18T15:10:06.775Z</time></trkpt><trkpt lat="42.9815" lon="11.6947083"><ele>329.3333333333333</ele><time>2026-04-18T15:10:07.771Z</time></trkpt><trkpt lat="42.9816233" lon="11.694955"><ele>327.6666666666667</ele><time>2026-04-18T15:10:08.775Z</time></trkpt><trkpt lat="42.981765" lon="11.6951867"><ele>326.0</ele><time>2026-04-18T15:10:09.772Z</time></trkpt><trkpt lat="42.9819183" lon="11.6954067"><ele>325.0</ele><time>2026-04-18T15:10:10.771Z</time></trkpt><trkpt lat="42.982085" lon="11.6956033"><ele>324.0</ele><time>2026-04-18T15:10:11.774Z</time></trkpt><trkpt lat="42.9822667" lon="11.6957783"><ele>323.0</ele><time>2026-04-18T15:10:12.773Z</time></trkpt><trkpt lat="42.9824583" lon="11.6959317"><ele>321.5</ele><time>2026-04-18T15:10:13.772Z</time></trkpt><trkpt lat="42.9826633" lon="11.696065"><ele>320.0</ele><time>2026-04-18T15:10:14.776Z</time></trkpt><trkpt lat="42.9828767" lon="11.69617"><ele>320.0</ele><time>2026-04-18T15:10:15.772Z</time></trkpt><trkpt lat="42.9830867" lon="11.6962433"><ele>320.0</ele><time>2026-04-18T15:10:16.772Z</time></trkpt><trkpt lat="42.98329" lon="11.6962883"><ele>320.0</ele><time>2026-04-18T15:10:17.769Z</time></trkpt><trkpt lat="42.9834783" lon="11.6963117"><ele>319.6666666666667</ele><time>2026-04-18T15:10:18.773Z</time></trkpt><trkpt lat="42.9836567" lon="11.696315"><ele>319.3333333333333</ele><time>2026-04-18T15:10:19.772Z</time></trkpt><trkpt lat="42.983835" lon="11.6962967"><ele>319.0</ele><time>2026-04-18T15:10:20.773Z</time></trkpt><trkpt lat="42.9840033" lon="11.696255"><ele>319.0</ele><time>2026-04-18T15:10:21.774Z</time></trkpt><trkpt lat="42.9841633" lon="11.6962"><ele>319.0</ele><time>2026-04-18T15:10:22.77Z</time></trkpt><trkpt lat="42.9843167" lon="11.696145"><ele>319.0</ele><time>2026-04-18T15:10:23.77Z</time></trkpt><trkpt lat="42.9844583" lon="11.6960933"><ele>319.0</ele><time>2026-04-18T15:10:24.775Z</time></trkpt><trkpt lat="42.9845983" lon="11.69604"><ele>319.0</ele><time>2026-04-18T15:10:25.773Z</time></trkpt><trkpt lat="42.98473" lon="11.69599"><ele>319.0</ele><time>2026-04-18T15:10:26.773Z</time></trkpt><trkpt lat="42.9848533" lon="11.6959467"><ele>319.0</ele><time>2026-04-18T15:10:27.772Z</time></trkpt><trkpt lat="42.984965" lon="11.6959033"><ele>319.2</ele><time>2026-04-18T15:10:28.773Z</time></trkpt><trkpt lat="42.9850667" lon="11.69587"><ele>319.4</ele><time>2026-04-18T15:10:29.773Z</time></trkpt><trkpt lat="42.9851633" lon="11.6958617"><ele>319.6</ele><time>2026-04-18T15:10:30.772Z</time></trkpt><trkpt lat="42.9852517" lon="11.6958733"><ele>319.8</ele><time>2026-04-18T15:10:31.774Z</time></trkpt><trkpt lat="42.9853233" lon="11.6958967"><ele>320.0</ele><time>2026-04-18T15:10:32.773Z</time></trkpt><trkpt lat="42.9854317" lon="11.69595"><ele>320.0</ele><time>2026-04-18T15:10:34.771Z</time></trkpt><trkpt lat="42.98552" lon="11.69598"><ele>320.0</ele><time>2026-04-18T15:10:36.773Z</time></trkpt><trkpt lat="42.9856417" lon="11.6959333"><ele>320.0</ele><time>2026-04-18T15:10:38.776Z</time></trkpt><trkpt lat="42.985725" lon="11.69587"><ele>320.0</ele><time>2026-04-18T15:10:39.77Z</time></trkpt><trkpt lat="42.985815" lon="11.6957683"><ele>320.0</ele><time>2026-04-18T15:10:40.771Z</time></trkpt><trkpt lat="42.985915" lon="11.6956383"><ele>320.6666666666667</ele><time>2026-04-18T15:10:41.773Z</time></trkpt><trkpt lat="42.9860183" lon="11.695485"><ele>321.3333333333333</ele><time>2026-04-18T15:10:42.773Z</time></trkpt><trkpt lat="42.98614" lon="11.6953133"><ele>322.0</ele><time>2026-04-18T15:10:43.77Z</time></trkpt><trkpt lat="42.9862667" lon="11.6951233"><ele>322.0</ele><time>2026-04-18T15:10:44.774Z</time></trkpt><trkpt lat="42.9864033" lon="11.6949217"><ele>322.0</ele><time>2026-04-18T15:10:45.772Z</time></trkpt><trkpt lat="42.9865483" lon="11.69471"><ele>322.0</ele><time>2026-04-18T15:10:46.772Z</time></trkpt><trkpt lat="42.9866983" lon="11.6944933"><ele>322.66666666666663</ele><time>2026-04-18T15:10:47.77Z</time></trkpt><trkpt lat="42.9868483" lon="11.6942717"><ele>323.3333333333333</ele><time>2026-04-18T15:10:48.771Z</time></trkpt><trkpt lat="42.987" lon="11.6940483"><ele>324.0</ele><time>2026-04-18T15:10:49.773Z</time></trkpt><trkpt lat="42.9871533" lon="11.693825"><ele>324.0</ele><time>2026-04-18T15:10:50.773Z</time></trkpt><trkpt lat="42.9873083" lon="11.6936033"><ele>324.0</ele><time>2026-04-18T15:10:51.771Z</time></trkpt><trkpt lat="42.9874633" lon="11.6933783"><ele>325.0</ele><time>2026-04-18T15:10:52.77Z</time></trkpt><trkpt lat="42.9876233" lon="11.6931583"><ele>326.0</ele><time>2026-04-18T15:10:53.77Z</time></trkpt><trkpt lat="42.98778" lon="11.692935"><ele>321.5</ele><time>2026-04-18T15:10:54.774Z</time></trkpt><trkpt lat="42.98794" lon="11.6927117"><ele>317.0</ele><time>2026-04-18T15:10:55.771Z</time></trkpt><trkpt lat="42.9881" lon="11.6924867"><ele>317.0</ele><time>2026-04-18T15:10:56.774Z</time></trkpt><trkpt lat="42.9882567" lon="11.6922583"><ele>317.0</ele><time>2026-04-18T15:10:57.771Z</time></trkpt><trkpt lat="42.988415" lon="11.6920283"><ele>317.5</ele><time>2026-04-18T15:10:58.769Z</time></trkpt><trkpt lat="42.9885733" lon="11.6918"><ele>318.0</ele><time>2026-04-18T15:10:59.771Z</time></trkpt><trkpt lat="42.98873" lon="11.6915717"><ele>318.0</ele><time>2026-04-18T15:11:00.772Z</time></trkpt><trkpt lat="42.98889" lon="11.6913467"><ele>318.0</ele><time>2026-04-18T15:11:01.774Z</time></trkpt><trkpt lat="42.98905" lon="11.6911233"><ele>316.0</ele><time>2026-04-18T15:11:02.773Z</time></trkpt><trkpt lat="42.9892133" lon="11.6909"><ele>314.0</ele><time>2026-04-18T15:11:03.77Z</time></trkpt><trkpt lat="42.9893733" lon="11.6906717"><ele>314.0</ele><time>2026-04-18T15:11:04.772Z</time></trkpt><trkpt lat="42.9895333" lon="11.690445"><ele>314.0</ele><time>2026-04-18T15:11:05.771Z</time></trkpt><trkpt lat="42.9896917" lon="11.690215"><ele>312.6666666666667</ele><time>2026-04-18T15:11:06.769Z</time></trkpt><trkpt lat="42.9898517" lon="11.6899883"><ele>311.3333333333333</ele><time>2026-04-18T15:11:07.774Z</time></trkpt><trkpt lat="42.9900033" lon="11.6897767"><ele>310.0</ele><time>2026-04-18T15:11:08.775Z</time></trkpt><trkpt lat="42.9901433" lon="11.6895817"><ele>309.66666666666663</ele><time>2026-04-18T15:11:09.772Z</time></trkpt><trkpt lat="42.990275" lon="11.689405"><ele>309.3333333333333</ele><time>2026-04-18T15:11:10.771Z</time></trkpt><trkpt lat="42.9903967" lon="11.6892317"><ele>309.0</ele><time>2026-04-18T15:11:11.77Z</time></trkpt><trkpt lat="42.9905083" lon="11.6890667"><ele>309.0</ele><time>2026-04-18T15:11:12.773Z</time></trkpt><trkpt lat="42.9906017" lon="11.6888883"><ele>309.0</ele><time>2026-04-18T15:11:13.773Z</time></trkpt><trkpt lat="42.9906683" lon="11.6886867"><ele>309.0</ele><time>2026-04-18T15:11:14.776Z</time></trkpt><trkpt lat="42.9906983" lon="11.68846"><ele>308.3333333333333</ele><time>2026-04-18T15:11:15.772Z</time></trkpt><trkpt lat="42.9907033" lon="11.68822"><ele>307.66666666666663</ele><time>2026-04-18T15:11:16.771Z</time></trkpt><trkpt lat="42.9907033" lon="11.6879867"><ele>307.0</ele><time>2026-04-18T15:11:17.772Z</time></trkpt><trkpt lat="42.99072" lon="11.68777"><ele>307.3333333333333</ele><time>2026-04-18T15:11:18.771Z</time></trkpt><trkpt lat="42.9907617" lon="11.6875633"><ele>307.6666666666667</ele><time>2026-04-18T15:11:19.766Z</time></trkpt><trkpt lat="42.9908267" lon="11.6873667"><ele>308.0</ele><time>2026-04-18T15:11:20.77Z</time></trkpt><trkpt lat="42.99092" lon="11.687205"><ele>307.33333333333337</ele><time>2026-04-18T15:11:21.769Z</time></trkpt><trkpt lat="42.9910567" lon="11.6871"><ele>306.6666666666667</ele><time>2026-04-18T15:11:22.769Z</time></trkpt><trkpt lat="42.9912367" lon="11.6870433"><ele>306.0</ele><time>2026-04-18T15:11:23.766Z</time></trkpt><trkpt lat="42.99143" lon="11.6870017"><ele>306.0</ele><time>2026-04-18T15:11:24.775Z</time></trkpt><trkpt lat="42.991645" lon="11.6869567"><ele>306.0</ele><time>2026-04-18T15:11:25.769Z</time></trkpt><trkpt lat="42.9918767" lon="11.6869167"><ele>308.5</ele><time>2026-04-18T15:11:26.772Z</time></trkpt><trkpt lat="42.9921117" lon="11.6868667"><ele>311.0</ele><time>2026-04-18T15:11:27.768Z</time></trkpt><trkpt lat="42.9923483" lon="11.686815"><ele>309.5</ele><time>2026-04-18T15:11:28.763Z</time></trkpt><trkpt lat="42.99258" lon="11.6867567"><ele>308.0</ele><time>2026-04-18T15:11:29.77Z</time></trkpt><trkpt lat="42.9928083" lon="11.6867033"><ele>308.0</ele><time>2026-04-18T15:11:30.769Z</time></trkpt><trkpt lat="42.99303" lon="11.686655"><ele>308.0</ele><time>2026-04-18T15:11:31.769Z</time></trkpt><trkpt lat="42.993245" lon="11.6865933"><ele>308.0</ele><time>2026-04-18T15:11:32.768Z</time></trkpt><trkpt lat="42.9934533" lon="11.6865067"><ele>307.0</ele><time>2026-04-18T15:11:33.768Z</time></trkpt><trkpt lat="42.99366" lon="11.686395"><ele>306.0</ele><time>2026-04-18T15:11:34.771Z</time></trkpt><trkpt lat="42.9938617" lon="11.686255"><ele>305.0</ele><time>2026-04-18T15:11:35.771Z</time></trkpt><trkpt lat="42.9940617" lon="11.6861033"><ele>304.5</ele><time>2026-04-18T15:11:36.771Z</time></trkpt><trkpt lat="42.99426" lon="11.68595"><ele>304.0</ele><time>2026-04-18T15:11:37.773Z</time></trkpt><trkpt lat="42.9944667" lon="11.6857933"><ele>304.0</ele><time>2026-04-18T15:11:38.772Z</time></trkpt><trkpt lat="42.9946733" lon="11.6856333"><ele>304.0</ele><time>2026-04-18T15:11:39.771Z</time></trkpt><trkpt lat="42.99488" lon="11.6854767"><ele>304.5</ele><time>2026-04-18T15:11:40.772Z</time></trkpt><trkpt lat="42.9950883" lon="11.6853183"><ele>305.0</ele><time>2026-04-18T15:11:41.772Z</time></trkpt><trkpt lat="42.9952983" lon="11.6851667"><ele>305.0</ele><time>2026-04-18T15:11:42.772Z</time></trkpt><trkpt lat="42.9955033" lon="11.6850183"><ele>305.0</ele><time>2026-04-18T15:11:43.77Z</time></trkpt><trkpt lat="42.9956933" lon="11.6848783"><ele>305.0</ele><time>2026-04-18T15:11:44.775Z</time></trkpt><trkpt lat="42.9958717" lon="11.6847517"><ele>305.6666666666667</ele><time>2026-04-18T15:11:45.774Z</time></trkpt><trkpt lat="42.9960433" lon="11.6846117"><ele>306.3333333333333</ele><time>2026-04-18T15:11:46.771Z</time></trkpt><trkpt lat="42.996205" lon="11.68446"><ele>307.0</ele><time>2026-04-18T15:11:47.771Z</time></trkpt><trkpt lat="42.996345" lon="11.6842883"><ele>307.0</ele><time>2026-04-18T15:11:48.771Z</time></trkpt><trkpt lat="42.9964567" lon="11.684095"><ele>307.0</ele><time>2026-04-18T15:11:49.772Z</time></trkpt><trkpt lat="42.9965483" lon="11.6838983"><ele>307.0</ele><time>2026-04-18T15:11:50.772Z</time></trkpt><trkpt lat="42.9966533" lon="11.683725"><ele>308.0</ele><time>2026-04-18T15:11:51.765Z</time></trkpt><trkpt lat="42.9967817" lon="11.6835833"><ele>309.0</ele><time>2026-04-18T15:11:52.767Z</time></trkpt><trkpt lat="42.9969317" lon="11.6834983"><ele>310.0</ele><time>2026-04-18T15:11:53.771Z</time></trkpt><trkpt lat="42.9971017" lon="11.683475"><ele>310.0</ele><time>2026-04-18T15:11:54.775Z</time></trkpt><trkpt lat="42.9972783" lon="11.6834917"><ele>310.0</ele><time>2026-04-18T15:11:55.773Z</time></trkpt><trkpt lat="42.997465" lon="11.6835217"><ele>310.0</ele><time>2026-04-18T15:11:56.776Z</time></trkpt><trkpt lat="42.997655" lon="11.68355"><ele>310.3333333333333</ele><time>2026-04-18T15:11:57.773Z</time></trkpt><trkpt lat="42.9978433" lon="11.683575"><ele>310.6666666666667</ele><time>2026-04-18T15:11:58.773Z</time></trkpt><trkpt lat="42.9980183" lon="11.6835917"><ele>311.0</ele><time>2026-04-18T15:11:59.773Z</time></trkpt><trkpt lat="42.9981833" lon="11.6836"><ele>311.6666666666667</ele><time>2026-04-18T15:12:00.774Z</time></trkpt><trkpt lat="42.998345" lon="11.683605"><ele>312.3333333333333</ele><time>2026-04-18T15:12:01.772Z</time></trkpt><trkpt lat="42.998505" lon="11.6836083"><ele>313.0</ele><time>2026-04-18T15:12:02.773Z</time></trkpt><trkpt lat="42.9986717" lon="11.683615"><ele>313.0</ele><time>2026-04-18T15:12:03.772Z</time></trkpt><trkpt lat="42.99884" lon="11.6836217"><ele>313.0</ele><time>2026-04-18T15:12:04.774Z</time></trkpt><trkpt lat="42.999005" lon="11.6836267"><ele>313.0</ele><time>2026-04-18T15:12:05.772Z</time></trkpt><trkpt lat="42.9991633" lon="11.6836317"><ele>313.5</ele><time>2026-04-18T15:12:06.77Z</time></trkpt><trkpt lat="42.9993117" lon="11.683635"><ele>314.0</ele><time>2026-04-18T15:12:07.771Z</time></trkpt><trkpt lat="42.9994567" lon="11.68364"><ele>314.5</ele><time>2026-04-18T15:12:08.772Z</time></trkpt><trkpt lat="42.9995883" lon="11.68364"><ele>315.0</ele><time>2026-04-18T15:12:09.769Z</time></trkpt><trkpt lat="42.999715" lon="11.6836283"><ele>316.5</ele><time>2026-04-18T15:12:10.771Z</time></trkpt><trkpt lat="42.9998417" lon="11.6835833"><ele>318.0</ele><time>2026-04-18T15:12:11.773Z</time></trkpt><trkpt lat="42.999965" lon="11.68351"><ele>319.5</ele><time>2026-04-18T15:12:12.771Z</time></trkpt><trkpt lat="43.0000883" lon="11.6834183"><ele>321.0</ele><time>2026-04-18T15:12:13.768Z</time></trkpt><trkpt lat="43.00021" lon="11.6833083"><ele>321.0</ele><time>2026-04-18T15:12:14.772Z</time></trkpt><trkpt lat="43.0003267" lon="11.6831883"><ele>321.0</ele><time>2026-04-18T15:12:15.769Z</time></trkpt><trkpt lat="43.0004417" lon="11.6830817"><ele>321.0</ele><time>2026-04-18T15:12:16.772Z</time></trkpt><trkpt lat="43.000555" lon="11.6829883"><ele>321.0</ele><time>2026-04-18T15:12:17.772Z</time></trkpt><trkpt lat="43.0006667" lon="11.68288"><ele>321.0</ele><time>2026-04-18T15:12:18.768Z</time></trkpt><trkpt lat="43.0007833" lon="11.6827733"><ele>321.0</ele><time>2026-04-18T15:12:19.771Z</time></trkpt><trkpt lat="43.0009083" lon="11.68266"><ele>321.0</ele><time>2026-04-18T15:12:20.77Z</time></trkpt><trkpt lat="43.0010317" lon="11.6825433"><ele>321.0</ele><time>2026-04-18T15:12:21.769Z</time></trkpt><trkpt lat="43.0011583" lon="11.6824267"><ele>320.25</ele><time>2026-04-18T15:12:22.767Z</time></trkpt><trkpt lat="43.0012817" lon="11.6823083"><ele>319.5</ele><time>2026-04-18T15:12:23.767Z</time></trkpt><trkpt lat="43.0013933" lon="11.682185"><ele>318.75</ele><time>2026-04-18T15:12:24.775Z</time></trkpt><trkpt lat="43.0015" lon="11.6820517"><ele>318.0</ele><time>2026-04-18T15:12:25.771Z</time></trkpt><trkpt lat="43.0016" lon="11.68191"><ele>315.0</ele><time>2026-04-18T15:12:26.775Z</time></trkpt><trkpt lat="43.0016967" lon="11.681755"><ele>312.0</ele><time>2026-04-18T15:12:27.77Z</time></trkpt><trkpt lat="43.0017883" lon="11.6815817"><ele>309.0</ele><time>2026-04-18T15:12:28.77Z</time></trkpt><trkpt lat="43.001875" lon="11.6813833"><ele>309.0</ele><time>2026-04-18T15:12:29.77Z</time></trkpt><trkpt lat="43.0019583" lon="11.6811667"><ele>309.0</ele><time>2026-04-18T15:12:30.771Z</time></trkpt><trkpt lat="43.002045" lon="11.6809333"><ele>309.0</ele><time>2026-04-18T15:12:31.773Z</time></trkpt><trkpt lat="43.0021367" lon="11.6806883"><ele>309.0</ele><time>2026-04-18T15:12:32.774Z</time></trkpt><trkpt lat="43.0022283" lon="11.6804383"><ele>309.0</ele><time>2026-04-18T15:12:33.77Z</time></trkpt><trkpt lat="43.0023283" lon="11.68019"><ele>309.0</ele><time>2026-04-18T15:12:34.771Z</time></trkpt><trkpt lat="43.00244" lon="11.6799367"><ele>308.5</ele><time>2026-04-18T15:12:35.771Z</time></trkpt><trkpt lat="43.002555" lon="11.6796783"><ele>308.0</ele><time>2026-04-18T15:12:36.771Z</time></trkpt><trkpt lat="43.0026783" lon="11.6794133"><ele>308.0</ele><time>2026-04-18T15:12:37.772Z</time></trkpt><trkpt lat="43.0028033" lon="11.6791417"><ele>308.0</ele><time>2026-04-18T15:12:38.773Z</time></trkpt><trkpt lat="43.0029317" lon="11.6788633"><ele>308.5</ele><time>2026-04-18T15:12:39.771Z</time></trkpt><trkpt lat="43.0030633" lon="11.6785767"><ele>309.0</ele><time>2026-04-18T15:12:40.77Z</time></trkpt><trkpt lat="43.00319" lon="11.6782817"><ele>309.0</ele><time>2026-04-18T15:12:41.774Z</time></trkpt><trkpt lat="43.0033117" lon="11.6779767"><ele>309.0</ele><time>2026-04-18T15:12:42.771Z</time></trkpt><trkpt lat="43.0034283" lon="11.677665"><ele>309.5</ele><time>2026-04-18T15:12:43.772Z</time></trkpt><trkpt lat="43.003535" lon="11.6773483"><ele>310.0</ele><time>2026-04-18T15:12:44.773Z</time></trkpt><trkpt lat="43.0036283" lon="11.6770267"><ele>311.0</ele><time>2026-04-18T15:12:45.772Z</time></trkpt><trkpt lat="43.0037133" lon="11.6767033"><ele>312.0</ele><time>2026-04-18T15:12:46.772Z</time></trkpt><trkpt lat="43.0037917" lon="11.6763783"><ele>311.5</ele><time>2026-04-18T15:12:47.772Z</time></trkpt><trkpt lat="43.003865" lon="11.6760533"><ele>311.0</ele><time>2026-04-18T15:12:48.772Z</time></trkpt><trkpt lat="43.0039333" lon="11.6757333"><ele>311.0</ele><time>2026-04-18T15:12:49.773Z</time></trkpt><trkpt lat="43.0039933" lon="11.6754267"><ele>311.0</ele><time>2026-04-18T15:12:50.773Z</time></trkpt><trkpt lat="43.00406" lon="11.6751383"><ele>311.33333333333337</ele><time>2026-04-18T15:12:51.772Z</time></trkpt><trkpt lat="43.00415" lon="11.6748633"><ele>311.6666666666667</ele><time>2026-04-18T15:12:52.771Z</time></trkpt><trkpt lat="43.0042633" lon="11.6746017"><ele>312.0</ele><time>2026-04-18T15:12:53.771Z</time></trkpt><trkpt lat="43.0043933" lon="11.67436"><ele>313.3333333333333</ele><time>2026-04-18T15:12:54.775Z</time></trkpt><trkpt lat="43.00454" lon="11.6741467"><ele>314.66666666666663</ele><time>2026-04-18T15:12:55.771Z</time></trkpt><trkpt lat="43.0046917" lon="11.673955"><ele>316.0</ele><time>2026-04-18T15:12:56.773Z</time></trkpt><trkpt lat="43.0048467" lon="11.6737583"><ele>316.5</ele><time>2026-04-18T15:12:57.771Z</time></trkpt><trkpt lat="43.0049983" lon="11.673535"><ele>317.0</ele><time>2026-04-18T15:12:58.771Z</time></trkpt><trkpt lat="43.0051533" lon="11.6732933"><ele>317.0</ele><time>2026-04-18T15:12:59.772Z</time></trkpt><trkpt lat="43.0053167" lon="11.6730483"><ele>317.0</ele><time>2026-04-18T15:13:00.772Z</time></trkpt><trkpt lat="43.0054883" lon="11.6728133"><ele>315.5</ele><time>2026-04-18T15:13:01.771Z</time></trkpt><trkpt lat="43.00567" lon="11.6725867"><ele>314.0</ele><time>2026-04-18T15:13:02.775Z</time></trkpt><trkpt lat="43.00587" lon="11.672375"><ele>314.0</ele><time>2026-04-18T15:13:03.77Z</time></trkpt><trkpt lat="43.0060767" lon="11.6721767"><ele>314.0</ele><time>2026-04-18T15:13:04.772Z</time></trkpt><trkpt lat="43.0062867" lon="11.6719833"><ele>315.5</ele><time>2026-04-18T15:13:05.77Z</time></trkpt><trkpt lat="43.0064883" lon="11.67179"><ele>317.0</ele><time>2026-04-18T15:13:06.77Z</time></trkpt><trkpt lat="43.0066833" lon="11.6715883"><ele>319.0</ele><time>2026-04-18T15:13:07.771Z</time></trkpt><trkpt lat="43.006875" lon="11.67138"><ele>321.0</ele><time>2026-04-18T15:13:08.776Z</time></trkpt><trkpt lat="43.0070633" lon="11.6711683"><ele>322.0</ele><time>2026-04-18T15:13:09.772Z</time></trkpt><trkpt lat="43.00724" lon="11.670965"><ele>323.0</ele><time>2026-04-18T15:13:10.771Z</time></trkpt><trkpt lat="43.0074" lon="11.6707667"><ele>324.0</ele><time>2026-04-18T15:13:11.772Z</time></trkpt><trkpt lat="43.00754" lon="11.6705533"><ele>325.0</ele><time>2026-04-18T15:13:12.77Z</time></trkpt><trkpt lat="43.00766" lon="11.670315"><ele>326.0</ele><time>2026-04-18T15:13:13.772Z</time></trkpt><trkpt lat="43.0077583" lon="11.6700467"><ele>327.0</ele><time>2026-04-18T15:13:14.774Z</time></trkpt><trkpt lat="43.0078367" lon="11.669755"><ele>327.5</ele><time>2026-04-18T15:13:15.761Z</time></trkpt><trkpt lat="43.007915" lon="11.6694583"><ele>328.0</ele><time>2026-04-18T15:13:16.762Z</time></trkpt><trkpt lat="43.008015" lon="11.6691783"><ele>328.0</ele><time>2026-04-18T15:13:17.77Z</time></trkpt><trkpt lat="43.0081517" lon="11.6689283"><ele>328.0</ele><time>2026-04-18T15:13:18.77Z</time></trkpt><trkpt lat="43.0083183" lon="11.6686983"><ele>320.0</ele><time>2026-04-18T15:13:19.771Z</time></trkpt><trkpt lat="43.0084983" lon="11.6684717"><ele>312.0</ele><time>2026-04-18T15:13:20.773Z</time></trkpt><trkpt lat="43.0086867" lon="11.6682383"><ele>312.0</ele><time>2026-04-18T15:13:21.771Z</time></trkpt><trkpt lat="43.0088733" lon="11.6680017"><ele>312.0</ele><time>2026-04-18T15:13:22.769Z</time></trkpt><trkpt lat="43.0090633" lon="11.6677617"><ele>309.5</ele><time>2026-04-18T15:13:23.771Z</time></trkpt><trkpt lat="43.0092567" lon="11.6675167"><ele>307.0</ele><time>2026-04-18T15:13:24.774Z</time></trkpt><trkpt lat="43.009445" lon="11.66727"><ele>307.0</ele><time>2026-04-18T15:13:25.774Z</time></trkpt><trkpt lat="43.0096317" lon="11.6670217"><ele>307.0</ele><time>2026-04-18T15:13:26.773Z</time></trkpt><trkpt lat="43.009815" lon="11.6667667"><ele>307.0</ele><time>2026-04-18T15:13:27.771Z</time></trkpt><trkpt lat="43.009995" lon="11.6665017"><ele>307.0</ele><time>2026-04-18T15:13:28.772Z</time></trkpt><trkpt lat="43.0101767" lon="11.6662283"><ele>309.0</ele><time>2026-04-18T15:13:29.77Z</time></trkpt><trkpt lat="43.0103567" lon="11.6659517"><ele>311.0</ele><time>2026-04-18T15:13:30.768Z</time></trkpt><trkpt lat="43.0105383" lon="11.66568"><ele>311.0</ele><time>2026-04-18T15:13:31.772Z</time></trkpt><trkpt lat="43.0107233" lon="11.6654117"><ele>311.0</ele><time>2026-04-18T15:13:32.774Z</time></trkpt><trkpt lat="43.0109117" lon="11.6651433"><ele>309.5</ele><time>2026-04-18T15:13:33.772Z</time></trkpt><trkpt lat="43.0111" lon="11.6648733"><ele>308.0</ele><time>2026-04-18T15:13:34.772Z</time></trkpt><trkpt lat="43.0112867" lon="11.6646033"><ele>309.0</ele><time>2026-04-18T15:13:35.771Z</time></trkpt><trkpt lat="43.01147" lon="11.6643317"><ele>310.0</ele><time>2026-04-18T15:13:36.772Z</time></trkpt><trkpt lat="43.011655" lon="11.6640617"><ele>309.5</ele><time>2026-04-18T15:13:37.773Z</time></trkpt><trkpt lat="43.0118433" lon="11.6637983"><ele>309.0</ele><time>2026-04-18T15:13:38.775Z</time></trkpt><trkpt lat="43.0120333" lon="11.6635383"><ele>309.0</ele><time>2026-04-18T15:13:39.772Z</time></trkpt><trkpt lat="43.0122217" lon="11.6632767"><ele>309.0</ele><time>2026-04-18T15:13:40.771Z</time></trkpt><trkpt lat="43.0124033" lon="11.663005"><ele>306.5</ele><time>2026-04-18T15:13:41.772Z</time></trkpt><trkpt lat="43.0125817" lon="11.6627283"><ele>304.0</ele><time>2026-04-18T15:13:42.771Z</time></trkpt><trkpt lat="43.0127617" lon="11.662455"><ele>304.0</ele><time>2026-04-18T15:13:43.771Z</time></trkpt><trkpt lat="43.0129567" lon="11.6622"><ele>304.0</ele><time>2026-04-18T15:13:44.774Z</time></trkpt><trkpt lat="43.01317" lon="11.6619733"><ele>304.5</ele><time>2026-04-18T15:13:45.765Z</time></trkpt><trkpt lat="43.0133867" lon="11.6617567"><ele>305.0</ele><time>2026-04-18T15:13:46.773Z</time></trkpt><trkpt lat="43.0136033" lon="11.6615433"><ele>305.0</ele><time>2026-04-18T15:13:47.773Z</time></trkpt><trkpt lat="43.013815" lon="11.6613267"><ele>305.0</ele><time>2026-04-18T15:13:48.772Z</time></trkpt><trkpt lat="43.014025" lon="11.6611067"><ele>307.5</ele><time>2026-04-18T15:13:49.773Z</time></trkpt><trkpt lat="43.0142267" lon="11.66088"><ele>310.0</ele><time>2026-04-18T15:13:50.775Z</time></trkpt><trkpt lat="43.0144183" lon="11.6606433"><ele>310.0</ele><time>2026-04-18T15:13:51.772Z</time></trkpt><trkpt lat="43.0146017" lon="11.6603933"><ele>310.0</ele><time>2026-04-18T15:13:52.772Z</time></trkpt><trkpt lat="43.01478" lon="11.6601333"><ele>310.5</ele><time>2026-04-18T15:13:53.774Z</time></trkpt><trkpt lat="43.01495" lon="11.6598583"><ele>311.0</ele><time>2026-04-18T15:13:54.772Z</time></trkpt><trkpt lat="43.0151033" lon="11.6595667"><ele>310.5</ele><time>2026-04-18T15:13:55.772Z</time></trkpt><trkpt lat="43.0152467" lon="11.6592533"><ele>310.0</ele><time>2026-04-18T15:13:56.774Z</time></trkpt><trkpt lat="43.0153833" lon="11.6589267"><ele>309.0</ele><time>2026-04-18T15:13:57.774Z</time></trkpt><trkpt lat="43.0155233" lon="11.658605"><ele>308.0</ele><time>2026-04-18T15:13:58.772Z</time></trkpt><trkpt lat="43.015665" lon="11.65829"><ele>308.0</ele><time>2026-04-18T15:13:59.772Z</time></trkpt><trkpt lat="43.0158083" lon="11.65798"><ele>308.0</ele><time>2026-04-18T15:14:00.772Z</time></trkpt><trkpt lat="43.0159533" lon="11.657675"><ele>304.5</ele><time>2026-04-18T15:14:01.771Z</time></trkpt><trkpt lat="43.0161033" lon="11.6573717"><ele>301.0</ele><time>2026-04-18T15:14:02.775Z</time></trkpt><trkpt lat="43.0162683" lon="11.6570883"><ele>300.5</ele><time>2026-04-18T15:14:03.773Z</time></trkpt><trkpt lat="43.01645" lon="11.6568267"><ele>300.0</ele><time>2026-04-18T15:14:04.772Z</time></trkpt><trkpt lat="43.0166433" lon="11.6565783"><ele>299.0</ele><time>2026-04-18T15:14:05.772Z</time></trkpt><trkpt lat="43.0168383" lon="11.656335"><ele>298.0</ele><time>2026-04-18T15:14:06.771Z</time></trkpt><trkpt lat="43.0170317" lon="11.6560817"><ele>297.5</ele><time>2026-04-18T15:14:07.773Z</time></trkpt><trkpt lat="43.0172167" lon="11.655815"><ele>297.0</ele><time>2026-04-18T15:14:08.773Z</time></trkpt><trkpt lat="43.017395" lon="11.655535"><ele>294.5</ele><time>2026-04-18T15:14:09.771Z</time></trkpt><trkpt lat="43.01756" lon="11.6552467"><ele>292.0</ele><time>2026-04-18T15:14:10.771Z</time></trkpt><trkpt lat="43.01772" lon="11.6549567"><ele>292.0</ele><time>2026-04-18T15:14:11.771Z</time></trkpt><trkpt lat="43.0178767" lon="11.65467"><ele>292.0</ele><time>2026-04-18T15:14:12.772Z</time></trkpt><trkpt lat="43.0180317" lon="11.6543917"><ele>291.5</ele><time>2026-04-18T15:14:13.769Z</time></trkpt><trkpt lat="43.01818" lon="11.6541133"><ele>291.0</ele><time>2026-04-18T15:14:14.774Z</time></trkpt><trkpt lat="43.0183233" lon="11.653825"><ele>290.5</ele><time>2026-04-18T15:14:15.771Z</time></trkpt><trkpt lat="43.0184567" lon="11.65352"><ele>290.0</ele><time>2026-04-18T15:14:16.773Z</time></trkpt><trkpt lat="43.0185817" lon="11.6532033"><ele>290.0</ele><time>2026-04-18T15:14:17.772Z</time></trkpt><trkpt lat="43.018705" lon="11.6528783"><ele>290.0</ele><time>2026-04-18T15:14:18.772Z</time></trkpt><trkpt lat="43.0188233" lon="11.6525517"><ele>289.5</ele><time>2026-04-18T15:14:19.772Z</time></trkpt><trkpt lat="43.0189483" lon="11.652225"><ele>289.0</ele><time>2026-04-18T15:14:20.775Z</time></trkpt><trkpt lat="43.0190767" lon="11.65191"><ele>288.0</ele><time>2026-04-18T15:14:21.771Z</time></trkpt><trkpt lat="43.019205" lon="11.6516133"><ele>287.0</ele><time>2026-04-18T15:14:22.773Z</time></trkpt><trkpt lat="43.01934" lon="11.651345"><ele>286.5</ele><time>2026-04-18T15:14:23.769Z</time></trkpt><trkpt lat="43.0194933" lon="11.6511067"><ele>286.0</ele><time>2026-04-18T15:14:24.771Z</time></trkpt><trkpt lat="43.0196733" lon="11.65089"><ele>286.0</ele><time>2026-04-18T15:14:25.771Z</time></trkpt><trkpt lat="43.0198617" lon="11.6507"><ele>286.0</ele><time>2026-04-18T15:14:26.775Z</time></trkpt><trkpt lat="43.0200467" lon="11.6505167"><ele>284.66666666666663</ele><time>2026-04-18T15:14:27.773Z</time></trkpt><trkpt lat="43.020215" lon="11.6503383"><ele>283.3333333333333</ele><time>2026-04-18T15:14:28.773Z</time></trkpt><trkpt lat="43.020355" lon="11.650145"><ele>282.0</ele><time>2026-04-18T15:14:29.772Z</time></trkpt><trkpt lat="43.0204633" lon="11.6499183"><ele>281.0</ele><time>2026-04-18T15:14:30.773Z</time></trkpt><trkpt lat="43.020535" lon="11.649655"><ele>280.0</ele><time>2026-04-18T15:14:31.771Z</time></trkpt><trkpt lat="43.02058" lon="11.6493617"><ele>279.0</ele><time>2026-04-18T15:14:32.773Z</time></trkpt><trkpt lat="43.0205917" lon="11.6490467"><ele>278.5</ele><time>2026-04-18T15:14:33.773Z</time></trkpt><trkpt lat="43.020575" lon="11.6487083"><ele>278.0</ele><time>2026-04-18T15:14:34.772Z</time></trkpt><trkpt lat="43.0205367" lon="11.6483483"><ele>278.0</ele><time>2026-04-18T15:14:35.773Z</time></trkpt><trkpt lat="43.0204817" lon="11.6479567"><ele>278.0</ele><time>2026-04-18T15:14:36.771Z</time></trkpt><trkpt lat="43.0204167" lon="11.64754"><ele>277.0</ele><time>2026-04-18T15:14:37.773Z</time></trkpt><trkpt lat="43.020345" lon="11.6471067"><ele>276.0</ele><time>2026-04-18T15:14:38.774Z</time></trkpt><trkpt lat="43.02027" lon="11.6466683"><ele>274.0</ele><time>2026-04-18T15:14:39.773Z</time></trkpt><trkpt lat="43.0202033" lon="11.6462283"><ele>272.0</ele><time>2026-04-18T15:14:40.773Z</time></trkpt><trkpt lat="43.02014" lon="11.645785"><ele>270.0</ele><time>2026-04-18T15:14:41.774Z</time></trkpt><trkpt lat="43.0200767" lon="11.6453367"><ele>268.0</ele><time>2026-04-18T15:14:42.77Z</time></trkpt><trkpt lat="43.020005" lon="11.6448567"><ele>268.0</ele><time>2026-04-18T15:14:43.77Z</time></trkpt><trkpt lat="43.0199367" lon="11.6443567"><ele>268.0</ele><time>2026-04-18T15:14:44.773Z</time></trkpt><trkpt lat="43.019885" lon="11.6438717"><ele>268.5</ele><time>2026-04-18T15:14:45.77Z</time></trkpt><trkpt lat="43.0198417" lon="11.64344"><ele>269.0</ele><time>2026-04-18T15:14:46.771Z</time></trkpt><trkpt lat="43.01982" lon="11.6430883"><ele>269.6666666666667</ele><time>2026-04-18T15:14:47.77Z</time></trkpt><trkpt lat="43.01982" lon="11.6427783"><ele>270.3333333333333</ele><time>2026-04-18T15:14:48.772Z</time></trkpt><trkpt lat="43.0198533" lon="11.6424933"><ele>271.0</ele><time>2026-04-18T15:14:49.772Z</time></trkpt><trkpt lat="43.0199383" lon="11.642245"><ele>270.66666666666663</ele><time>2026-04-18T15:14:50.775Z</time></trkpt><trkpt lat="43.0200683" lon="11.6420217"><ele>270.3333333333333</ele><time>2026-04-18T15:14:51.771Z</time></trkpt><trkpt lat="43.0202117" lon="11.641795"><ele>270.0</ele><time>2026-04-18T15:14:52.771Z</time></trkpt><trkpt lat="43.0203683" lon="11.6415533"><ele>271.5</ele><time>2026-04-18T15:14:53.772Z</time></trkpt><trkpt lat="43.0205333" lon="11.6412917"><ele>273.0</ele><time>2026-04-18T15:14:54.771Z</time></trkpt><trkpt lat="43.020705" lon="11.6410267"><ele>277.0</ele><time>2026-04-18T15:14:55.773Z</time></trkpt><trkpt lat="43.02088" lon="11.6407533"><ele>281.0</ele><time>2026-04-18T15:14:56.775Z</time></trkpt><trkpt lat="43.021045" lon="11.6404733"><ele>282.5</ele><time>2026-04-18T15:14:57.772Z</time></trkpt><trkpt lat="43.02119" lon="11.64018"><ele>284.0</ele><time>2026-04-18T15:14:58.772Z</time></trkpt><trkpt lat="43.0213083" lon="11.6398733"><ele>284.0</ele><time>2026-04-18T15:14:59.773Z</time></trkpt><trkpt lat="43.0213967" lon="11.6395683"><ele>284.0</ele><time>2026-04-18T15:15:00.77Z</time></trkpt><trkpt lat="43.02146" lon="11.6392633"><ele>284.5</ele><time>2026-04-18T15:15:01.771Z</time></trkpt><trkpt lat="43.0215167" lon="11.6389533"><ele>285.0</ele><time>2026-04-18T15:15:02.774Z</time></trkpt><trkpt lat="43.0215683" lon="11.6386433"><ele>285.3333333333333</ele><time>2026-04-18T15:15:03.773Z</time></trkpt><trkpt lat="43.02162" lon="11.6383517"><ele>285.66666666666663</ele><time>2026-04-18T15:15:04.769Z</time></trkpt><trkpt lat="43.0216667" lon="11.6380617"><ele>286.0</ele><time>2026-04-18T15:15:05.772Z</time></trkpt><trkpt lat="43.0217117" lon="11.6377767"><ele>286.0</ele><time>2026-04-18T15:15:06.773Z</time></trkpt><trkpt lat="43.0217567" lon="11.6375067"><ele>286.0</ele><time>2026-04-18T15:15:07.772Z</time></trkpt><trkpt lat="43.021795" lon="11.6372467"><ele>286.0</ele><time>2026-04-18T15:15:08.774Z</time></trkpt><trkpt lat="43.0218333" lon="11.6370033"><ele>286.3333333333333</ele><time>2026-04-18T15:15:09.772Z</time></trkpt><trkpt lat="43.0218717" lon="11.636775"><ele>286.6666666666667</ele><time>2026-04-18T15:15:10.773Z</time></trkpt><trkpt lat="43.02191" lon="11.6365583"><ele>287.0</ele><time>2026-04-18T15:15:11.772Z</time></trkpt><trkpt lat="43.021945" lon="11.6363417"><ele>286.0</ele><time>2026-04-18T15:15:12.772Z</time></trkpt><trkpt lat="43.0219783" lon="11.63613"><ele>285.0</ele><time>2026-04-18T15:15:13.772Z</time></trkpt><trkpt lat="43.0220133" lon="11.635915"><ele>284.0</ele><time>2026-04-18T15:15:14.774Z</time></trkpt><trkpt lat="43.0220483" lon="11.6356883"><ele>284.0</ele><time>2026-04-18T15:15:15.772Z</time></trkpt><trkpt lat="43.0220833" lon="11.6354483"><ele>284.0</ele><time>2026-04-18T15:15:16.773Z</time></trkpt><trkpt lat="43.0221167" lon="11.635195"><ele>284.0</ele><time>2026-04-18T15:15:17.773Z</time></trkpt><trkpt lat="43.0221917" lon="11.634665"><ele>282.33333333333337</ele><time>2026-04-18T15:15:19.772Z</time></trkpt><trkpt lat="43.0222283" lon="11.6343933"><ele>280.6666666666667</ele><time>2026-04-18T15:15:20.772Z</time></trkpt><trkpt lat="43.0222667" lon="11.6341233"><ele>279.0</ele><time>2026-04-18T15:15:21.77Z</time></trkpt><trkpt lat="43.0223017" lon="11.6338617"><ele>277.6666666666667</ele><time>2026-04-18T15:15:22.771Z</time></trkpt><trkpt lat="43.0223333" lon="11.6336167"><ele>276.33333333333337</ele><time>2026-04-18T15:15:23.77Z</time></trkpt><trkpt lat="43.0223683" lon="11.6333883"><ele>275.0</ele><time>2026-04-18T15:15:24.774Z</time></trkpt><trkpt lat="43.0224183" lon="11.6331767"><ele>273.6666666666667</ele><time>2026-04-18T15:15:25.775Z</time></trkpt><trkpt lat="43.0224917" lon="11.6329867"><ele>272.3333333333333</ele><time>2026-04-18T15:15:26.771Z</time></trkpt><trkpt lat="43.0225917" lon="11.6328167"><ele>271.0</ele><time>2026-04-18T15:15:27.774Z</time></trkpt><trkpt lat="43.02271" lon="11.6326767"><ele>270.3333333333333</ele><time>2026-04-18T15:15:28.77Z</time></trkpt><trkpt lat="43.0228483" lon="11.632575"><ele>269.6666666666667</ele><time>2026-04-18T15:15:29.774Z</time></trkpt><trkpt lat="43.0230083" lon="11.6325217"><ele>269.0</ele><time>2026-04-18T15:15:30.772Z</time></trkpt><trkpt lat="43.0231817" lon="11.6324733"><ele>268.6666666666667</ele><time>2026-04-18T15:15:31.772Z</time></trkpt><trkpt lat="43.023355" lon="11.6323817"><ele>268.3333333333333</ele><time>2026-04-18T15:15:32.775Z</time></trkpt><trkpt lat="43.0235367" lon="11.6322483"><ele>268.0</ele><time>2026-04-18T15:15:33.772Z</time></trkpt><trkpt lat="43.0237167" lon="11.63209"><ele>267.3333333333333</ele><time>2026-04-18T15:15:34.772Z</time></trkpt><trkpt lat="43.0239033" lon="11.63192"><ele>266.6666666666667</ele><time>2026-04-18T15:15:35.772Z</time></trkpt><trkpt lat="43.0240867" lon="11.63175"><ele>266.0</ele><time>2026-04-18T15:15:36.772Z</time></trkpt><trkpt lat="43.0242583" lon="11.63159"><ele>265.33333333333337</ele><time>2026-04-18T15:15:37.771Z</time></trkpt><trkpt lat="43.0244217" lon="11.63144"><ele>264.6666666666667</ele><time>2026-04-18T15:15:38.775Z</time></trkpt><trkpt lat="43.0245583" lon="11.6312817"><ele>264.0</ele><time>2026-04-18T15:15:39.771Z</time></trkpt><trkpt lat="43.024675" lon="11.631105"><ele>263.3333333333333</ele><time>2026-04-18T15:15:40.774Z</time></trkpt><trkpt lat="43.02475" lon="11.6309083"><ele>262.66666666666663</ele><time>2026-04-18T15:15:41.772Z</time></trkpt><trkpt lat="43.0247783" lon="11.6306883"><ele>262.0</ele><time>2026-04-18T15:15:42.771Z</time></trkpt><trkpt lat="43.0247817" lon="11.6304283"><ele>263.0</ele><time>2026-04-18T15:15:43.772Z</time></trkpt><trkpt lat="43.0248167" lon="11.630175"><ele>264.0</ele><time>2026-04-18T15:15:44.773Z</time></trkpt><trkpt lat="43.0248833" lon="11.6299217"><ele>265.0</ele><time>2026-04-18T15:15:45.774Z</time></trkpt><trkpt lat="43.0249733" lon="11.6296583"><ele>267.0</ele><time>2026-04-18T15:15:46.775Z</time></trkpt><trkpt lat="43.025085" lon="11.6293967"><ele>269.0</ele><time>2026-04-18T15:15:47.771Z</time></trkpt><trkpt lat="43.0252067" lon="11.62914"><ele>271.0</ele><time>2026-04-18T15:15:48.77Z</time></trkpt><trkpt lat="43.0253283" lon="11.6288867"><ele>273.66666666666663</ele><time>2026-04-18T15:15:49.774Z</time></trkpt><trkpt lat="43.0254433" lon="11.62864"><ele>276.3333333333333</ele><time>2026-04-18T15:15:50.772Z</time></trkpt><trkpt lat="43.0255517" lon="11.6284167"><ele>279.0</ele><time>2026-04-18T15:15:51.774Z</time></trkpt><trkpt lat="43.02566" lon="11.6282183"><ele>279.0</ele><time>2026-04-18T15:15:52.77Z</time></trkpt><trkpt lat="43.025785" lon="11.6280467"><ele>279.0</ele><time>2026-04-18T15:15:53.773Z</time></trkpt><trkpt lat="43.0259317" lon="11.6279167"><ele>279.0</ele><time>2026-04-18T15:15:54.774Z</time></trkpt><trkpt lat="43.02612" lon="11.6278433"><ele>280.5</ele><time>2026-04-18T15:15:55.771Z</time></trkpt><trkpt lat="43.02634" lon="11.6278083"><ele>282.0</ele><time>2026-04-18T15:15:56.775Z</time></trkpt><trkpt lat="43.0265733" lon="11.6277867"><ele>281.0</ele><time>2026-04-18T15:15:57.773Z</time></trkpt><trkpt lat="43.0267933" lon="11.6277617"><ele>280.0</ele><time>2026-04-18T15:15:58.77Z</time></trkpt><trkpt lat="43.0269933" lon="11.627745"><ele>279.0</ele><time>2026-04-18T15:15:59.774Z</time></trkpt><trkpt lat="43.0271683" lon="11.6277067"><ele>279.0</ele><time>2026-04-18T15:16:00.772Z</time></trkpt><trkpt lat="43.0273233" lon="11.627635"><ele>279.0</ele><time>2026-04-18T15:16:01.772Z</time></trkpt><trkpt lat="43.02745" lon="11.6275067"><ele>279.0</ele><time>2026-04-18T15:16:02.771Z</time></trkpt><trkpt lat="43.0275567" lon="11.62733"><ele>276.6666666666667</ele><time>2026-04-18T15:16:03.772Z</time></trkpt><trkpt lat="43.02764" lon="11.62712"><ele>274.33333333333337</ele><time>2026-04-18T15:16:04.774Z</time></trkpt><trkpt lat="43.0276983" lon="11.6269017"><ele>272.0</ele><time>2026-04-18T15:16:05.772Z</time></trkpt><trkpt lat="43.0277183" lon="11.6266867"><ele>272.0</ele><time>2026-04-18T15:16:06.773Z</time></trkpt><trkpt lat="43.0277067" lon="11.6264683"><ele>272.0</ele><time>2026-04-18T15:16:07.772Z</time></trkpt><trkpt lat="43.02769" lon="11.626275"><ele>272.0</ele><time>2026-04-18T15:16:08.774Z</time></trkpt><trkpt lat="43.0276933" lon="11.6261033"><ele>272.0</ele><time>2026-04-18T15:16:09.77Z</time></trkpt><trkpt lat="43.027735" lon="11.6259533"><ele>269.75</ele><time>2026-04-18T15:16:10.773Z</time></trkpt><trkpt lat="43.0278183" lon="11.6258117"><ele>267.5</ele><time>2026-04-18T15:16:11.773Z</time></trkpt><trkpt lat="43.027925" lon="11.6256833"><ele>265.25</ele><time>2026-04-18T15:16:12.769Z</time></trkpt><trkpt lat="43.02803" lon="11.62556"><ele>263.0</ele><time>2026-04-18T15:16:13.772Z</time></trkpt><trkpt lat="43.028135" lon="11.6254467"><ele>263.0</ele><time>2026-04-18T15:16:14.77Z</time></trkpt><trkpt lat="43.02824" lon="11.6253617"><ele>263.0</ele><time>2026-04-18T15:16:15.772Z</time></trkpt><trkpt lat="43.0283483" lon="11.6253167"><ele>263.0</ele><time>2026-04-18T15:16:16.77Z</time></trkpt><trkpt lat="43.0284667" lon="11.625325"><ele>263.0</ele><time>2026-04-18T15:16:17.774Z</time></trkpt><trkpt lat="43.0285817" lon="11.6254017"><ele>262.0</ele><time>2026-04-18T15:16:18.772Z</time></trkpt><trkpt lat="43.0286817" lon="11.6255467"><ele>261.0</ele><time>2026-04-18T15:16:19.768Z</time></trkpt><trkpt lat="43.0288033" lon="11.625695"><ele>260.0</ele><time>2026-04-18T15:16:20.763Z</time></trkpt><trkpt lat="43.02895" lon="11.6258167"><ele>260.0</ele><time>2026-04-18T15:16:21.773Z</time></trkpt><trkpt lat="43.0291183" lon="11.6258933"><ele>260.0</ele><time>2026-04-18T15:16:22.771Z</time></trkpt><trkpt lat="43.0292817" lon="11.6259517"><ele>260.0</ele><time>2026-04-18T15:16:23.774Z</time></trkpt><trkpt lat="43.0294433" lon="11.6260067"><ele>258.6666666666667</ele><time>2026-04-18T15:16:24.772Z</time></trkpt><trkpt lat="43.0296017" lon="11.626095"><ele>257.3333333333333</ele><time>2026-04-18T15:16:25.769Z</time></trkpt><trkpt lat="43.0297617" lon="11.6262033"><ele>256.0</ele><time>2026-04-18T15:16:26.769Z</time></trkpt><trkpt lat="43.0299367" lon="11.6263183"><ele>257.0</ele><time>2026-04-18T15:16:27.769Z</time></trkpt><trkpt lat="43.03013" lon="11.626415"><ele>258.0</ele><time>2026-04-18T15:16:28.768Z</time></trkpt><trkpt lat="43.0303417" lon="11.6264867"><ele>259.0</ele><time>2026-04-18T15:16:29.77Z</time></trkpt><trkpt lat="43.0305583" lon="11.6265367"><ele>259.0</ele><time>2026-04-18T15:16:30.773Z</time></trkpt><trkpt lat="43.0307767" lon="11.62658"><ele>259.0</ele><time>2026-04-18T15:16:31.77Z</time></trkpt><trkpt lat="43.0309867" lon="11.6266317"><ele>259.0</ele><time>2026-04-18T15:16:32.774Z</time></trkpt><trkpt lat="43.0311733" lon="11.626685"><ele>260.0</ele><time>2026-04-18T15:16:33.771Z</time></trkpt><trkpt lat="43.0313367" lon="11.6267367"><ele>261.0</ele><time>2026-04-18T15:16:34.772Z</time></trkpt><trkpt lat="43.031495" lon="11.62679"><ele>262.0</ele><time>2026-04-18T15:16:35.771Z</time></trkpt><trkpt lat="43.031655" lon="11.6268417"><ele>262.0</ele><time>2026-04-18T15:16:36.777Z</time></trkpt><trkpt lat="43.0318233" lon="11.6268933"><ele>262.0</ele><time>2026-04-18T15:16:37.771Z</time></trkpt><trkpt lat="43.0319917" lon="11.6269417"><ele>262.0</ele><time>2026-04-18T15:16:38.775Z</time></trkpt><trkpt lat="43.0321667" lon="11.6270017"><ele>260.3333333333333</ele><time>2026-04-18T15:16:39.771Z</time></trkpt><trkpt lat="43.03234" lon="11.6270583"><ele>258.6666666666667</ele><time>2026-04-18T15:16:40.773Z</time></trkpt><trkpt lat="43.0324983" lon="11.6271117"><ele>257.0</ele><time>2026-04-18T15:16:41.771Z</time></trkpt><trkpt lat="43.032655" lon="11.6271617"><ele>257.0</ele><time>2026-04-18T15:16:42.772Z</time></trkpt><trkpt lat="43.032815" lon="11.6272117"><ele>257.0</ele><time>2026-04-18T15:16:43.772Z</time></trkpt><trkpt lat="43.0329683" lon="11.6272617"><ele>257.0</ele><time>2026-04-18T15:16:44.776Z</time></trkpt><trkpt lat="43.0331117" lon="11.627305"><ele>257.0</ele><time>2026-04-18T15:16:45.771Z</time></trkpt><trkpt lat="43.03324" lon="11.62735"><ele>257.0</ele><time>2026-04-18T15:16:46.772Z</time></trkpt><trkpt lat="43.0333483" lon="11.6274117"><ele>257.0</ele><time>2026-04-18T15:16:47.775Z</time></trkpt><trkpt lat="43.0334417" lon="11.6275083"><ele>257.0</ele><time>2026-04-18T15:16:48.773Z</time></trkpt><trkpt lat="43.0335083" lon="11.6276433"><ele>257.33333333333337</ele><time>2026-04-18T15:16:49.773Z</time></trkpt><trkpt lat="43.0335417" lon="11.6277967"><ele>257.6666666666667</ele><time>2026-04-18T15:16:50.773Z</time></trkpt><trkpt lat="43.033525" lon="11.6280433"><ele>258.0</ele><time>2026-04-18T15:16:51.774Z</time></trkpt><trkpt lat="43.0334933" lon="11.6283217"><ele>258.0</ele><time>2026-04-18T15:16:52.77Z</time></trkpt><trkpt lat="43.0334617" lon="11.628605"><ele>258.0</ele><time>2026-04-18T15:16:53.772Z</time></trkpt><trkpt lat="43.0334333" lon="11.6289067"><ele>258.0</ele><time>2026-04-18T15:16:54.773Z</time></trkpt><trkpt lat="43.0334083" lon="11.629215"><ele>258.0</ele><time>2026-04-18T15:16:55.772Z</time></trkpt><trkpt lat="43.0333883" lon="11.62954"><ele>258.0</ele><time>2026-04-18T15:16:56.771Z</time></trkpt><trkpt lat="43.0333733" lon="11.629875"><ele>258.0</ele><time>2026-04-18T15:16:57.773Z</time></trkpt><trkpt lat="43.0333733" lon="11.630225"><ele>258.0</ele><time>2026-04-18T15:16:58.771Z</time></trkpt><trkpt lat="43.0333933" lon="11.6305867"><ele>258.5</ele><time>2026-04-18T15:16:59.772Z</time></trkpt><trkpt lat="43.033425" lon="11.6309533"><ele>259.0</ele><time>2026-04-18T15:17:00.773Z</time></trkpt><trkpt lat="43.033455" lon="11.6313267"><ele>259.5</ele><time>2026-04-18T15:17:01.771Z</time></trkpt><trkpt lat="43.03349" lon="11.6317"><ele>260.0</ele><time>2026-04-18T15:17:02.774Z</time></trkpt><trkpt lat="43.033525" lon="11.63207"><ele>258.5</ele><time>2026-04-18T15:17:03.769Z</time></trkpt><trkpt lat="43.03356" lon="11.6324283"><ele>257.0</ele><time>2026-04-18T15:17:04.771Z</time></trkpt><trkpt lat="43.0335933" lon="11.6327733"><ele>256.5</ele><time>2026-04-18T15:17:05.772Z</time></trkpt><trkpt lat="43.0336183" lon="11.6331117"><ele>256.0</ele><time>2026-04-18T15:17:06.772Z</time></trkpt><trkpt lat="43.0336267" lon="11.6334483"><ele>256.0</ele><time>2026-04-18T15:17:07.772Z</time></trkpt><trkpt lat="43.03362" lon="11.633785"><ele>256.0</ele><time>2026-04-18T15:17:08.772Z</time></trkpt><trkpt lat="43.0336" lon="11.6341233"><ele>256.0</ele><time>2026-04-18T15:17:09.773Z</time></trkpt><trkpt lat="43.03357" lon="11.6344583"><ele>256.0</ele><time>2026-04-18T15:17:10.772Z</time></trkpt><trkpt lat="43.0335333" lon="11.6347933"><ele>257.0</ele><time>2026-04-18T15:17:11.773Z</time></trkpt><trkpt lat="43.0334983" lon="11.6351217"><ele>258.0</ele><time>2026-04-18T15:17:12.768Z</time></trkpt><trkpt lat="43.033475" lon="11.6354567"><ele>259.0</ele><time>2026-04-18T15:17:13.772Z</time></trkpt><trkpt lat="43.0334667" lon="11.6357983"><ele>260.0</ele><time>2026-04-18T15:17:14.773Z</time></trkpt><trkpt lat="43.0334733" lon="11.6361433"><ele>260.0</ele><time>2026-04-18T15:17:15.772Z</time></trkpt><trkpt lat="43.0334867" lon="11.6364917"><ele>260.0</ele><time>2026-04-18T15:17:16.771Z</time></trkpt><trkpt lat="43.0335067" lon="11.63685"><ele>261.0</ele><time>2026-04-18T15:17:17.771Z</time></trkpt><trkpt lat="43.0335267" lon="11.6372133"><ele>262.0</ele><time>2026-04-18T15:17:18.771Z</time></trkpt><trkpt lat="43.0335483" lon="11.637575"><ele>261.5</ele><time>2026-04-18T15:17:19.774Z</time></trkpt><trkpt lat="43.0335783" lon="11.63793"><ele>261.0</ele><time>2026-04-18T15:17:20.774Z</time></trkpt><trkpt lat="43.0336183" lon="11.6382883"><ele>260.5</ele><time>2026-04-18T15:17:21.774Z</time></trkpt><trkpt lat="43.0336667" lon="11.638645"><ele>260.0</ele><time>2026-04-18T15:17:22.773Z</time></trkpt><trkpt lat="43.0337267" lon="11.6389983"><ele>260.0</ele><time>2026-04-18T15:17:23.773Z</time></trkpt><trkpt lat="43.03379" lon="11.6393517"><ele>260.0</ele><time>2026-04-18T15:17:24.775Z</time></trkpt><trkpt lat="43.033855" lon="11.6397067"><ele>260.0</ele><time>2026-04-18T15:17:25.773Z</time></trkpt><trkpt lat="43.0339233" lon="11.6400633"><ele>260.0</ele><time>2026-04-18T15:17:26.77Z</time></trkpt><trkpt lat="43.03399" lon="11.6404117"><ele>260.0</ele><time>2026-04-18T15:17:27.77Z</time></trkpt><trkpt lat="43.0340583" lon="11.6407567"><ele>260.0</ele><time>2026-04-18T15:17:28.77Z</time></trkpt><trkpt lat="43.034125" lon="11.6411067"><ele>261.0</ele><time>2026-04-18T15:17:29.773Z</time></trkpt><trkpt lat="43.03419" lon="11.64145"><ele>262.0</ele><time>2026-04-18T15:17:30.771Z</time></trkpt><trkpt lat="43.0342517" lon="11.64178"><ele>262.5</ele><time>2026-04-18T15:17:31.772Z</time></trkpt><trkpt lat="43.0343117" lon="11.64211"><ele>263.0</ele><time>2026-04-18T15:17:32.774Z</time></trkpt><trkpt lat="43.034375" lon="11.6424433"><ele>263.0</ele><time>2026-04-18T15:17:33.771Z</time></trkpt><trkpt lat="43.0344383" lon="11.64278"><ele>263.0</ele><time>2026-04-18T15:17:34.772Z</time></trkpt><trkpt lat="43.0345067" lon="11.6431183"><ele>262.5</ele><time>2026-04-18T15:17:35.772Z</time></trkpt><trkpt lat="43.034575" lon="11.6434567"><ele>262.0</ele><time>2026-04-18T15:17:36.772Z</time></trkpt><trkpt lat="43.034645" lon="11.6438"><ele>262.0</ele><time>2026-04-18T15:17:37.774Z</time></trkpt><trkpt lat="43.0347133" lon="11.6441383"><ele>262.0</ele><time>2026-04-18T15:17:38.772Z</time></trkpt><trkpt lat="43.0347767" lon="11.6444717"><ele>262.0</ele><time>2026-04-18T15:17:39.771Z</time></trkpt><trkpt lat="43.03483" lon="11.6448"><ele>262.0</ele><time>2026-04-18T15:17:40.771Z</time></trkpt><trkpt lat="43.03486" lon="11.6451333"><ele>263.5</ele><time>2026-04-18T15:17:41.772Z</time></trkpt><trkpt lat="43.034855" lon="11.6454733"><ele>265.0</ele><time>2026-04-18T15:17:42.771Z</time></trkpt><trkpt lat="43.034825" lon="11.645825"><ele>265.5</ele><time>2026-04-18T15:17:43.771Z</time></trkpt><trkpt lat="43.034785" lon="11.6461817"><ele>266.0</ele><time>2026-04-18T15:17:44.764Z</time></trkpt><trkpt lat="43.0347383" lon="11.646545"><ele>266.0</ele><time>2026-04-18T15:17:45.772Z</time></trkpt><trkpt lat="43.03469" lon="11.6469067"><ele>266.0</ele><time>2026-04-18T15:17:46.772Z</time></trkpt><trkpt lat="43.0346383" lon="11.6472683"><ele>266.0</ele><time>2026-04-18T15:17:47.773Z</time></trkpt><trkpt lat="43.0345917" lon="11.6476317"><ele>266.0</ele><time>2026-04-18T15:17:48.768Z</time></trkpt><trkpt lat="43.0345433" lon="11.6479917"><ele>266.5</ele><time>2026-04-18T15:17:49.774Z</time></trkpt><trkpt lat="43.034495" lon="11.648355"><ele>267.0</ele><time>2026-04-18T15:17:50.774Z</time></trkpt><trkpt lat="43.0344483" lon="11.6487117"><ele>268.0</ele><time>2026-04-18T15:17:51.773Z</time></trkpt><trkpt lat="43.0344033" lon="11.6490633"><ele>269.0</ele><time>2026-04-18T15:17:52.771Z</time></trkpt><trkpt lat="43.0343583" lon="11.649415"><ele>268.5</ele><time>2026-04-18T15:17:53.773Z</time></trkpt><trkpt lat="43.034315" lon="11.64977"><ele>268.0</ele><time>2026-04-18T15:17:54.774Z</time></trkpt><trkpt lat="43.0342717" lon="11.6501183"><ele>268.0</ele><time>2026-04-18T15:17:55.771Z</time></trkpt><trkpt lat="43.03423" lon="11.65047"><ele>268.0</ele><time>2026-04-18T15:17:56.771Z</time></trkpt><trkpt lat="43.0341883" lon="11.6508217"><ele>268.0</ele><time>2026-04-18T15:17:57.773Z</time></trkpt><trkpt lat="43.034145" lon="11.651175"><ele>268.0</ele><time>2026-04-18T15:17:58.771Z</time></trkpt><trkpt lat="43.0340983" lon="11.6515283"><ele>268.0</ele><time>2026-04-18T15:17:59.773Z</time></trkpt><trkpt lat="43.0340533" lon="11.65188"><ele>268.0</ele><time>2026-04-18T15:18:00.771Z</time></trkpt><trkpt lat="43.0340117" lon="11.6522317"><ele>269.5</ele><time>2026-04-18T15:18:01.773Z</time></trkpt><trkpt lat="43.0339733" lon="11.6525833"><ele>271.0</ele><time>2026-04-18T15:18:02.771Z</time></trkpt><trkpt lat="43.0339333" lon="11.652935"><ele>271.5</ele><time>2026-04-18T15:18:03.771Z</time></trkpt><trkpt lat="43.03389" lon="11.6532883"><ele>272.0</ele><time>2026-04-18T15:18:04.771Z</time></trkpt><trkpt lat="43.0338433" lon="11.6536433"><ele>272.0</ele><time>2026-04-18T15:18:05.77Z</time></trkpt><trkpt lat="43.0337967" lon="11.6539983"><ele>272.0</ele><time>2026-04-18T15:18:06.771Z</time></trkpt><trkpt lat="43.0337483" lon="11.6543533"><ele>272.0</ele><time>2026-04-18T15:18:07.774Z</time></trkpt><trkpt lat="43.0337033" lon="11.65471"><ele>272.0</ele><time>2026-04-18T15:18:08.773Z</time></trkpt><trkpt lat="43.0336617" lon="11.6550683"><ele>273.0</ele><time>2026-04-18T15:18:09.771Z</time></trkpt><trkpt lat="43.0336167" lon="11.6554267"><ele>274.0</ele><time>2026-04-18T15:18:10.771Z</time></trkpt><trkpt lat="43.0335733" lon="11.6557833"><ele>275.5</ele><time>2026-04-18T15:18:11.772Z</time></trkpt><trkpt lat="43.0335317" lon="11.65614"><ele>277.0</ele><time>2026-04-18T15:18:12.773Z</time></trkpt><trkpt lat="43.03349" lon="11.6565"><ele>277.0</ele><time>2026-04-18T15:18:13.773Z</time></trkpt><trkpt lat="43.0334467" lon="11.6568567"><ele>277.0</ele><time>2026-04-18T15:18:14.77Z</time></trkpt><trkpt lat="43.0334017" lon="11.65721"><ele>277.5</ele><time>2026-04-18T15:18:15.775Z</time></trkpt><trkpt lat="43.0333583" lon="11.65756"><ele>278.0</ele><time>2026-04-18T15:18:16.772Z</time></trkpt><trkpt lat="43.0333133" lon="11.6579117"><ele>276.5</ele><time>2026-04-18T15:18:17.772Z</time></trkpt><trkpt lat="43.0332667" lon="11.6582633"><ele>275.0</ele><time>2026-04-18T15:18:18.772Z</time></trkpt><trkpt lat="43.0332217" lon="11.6586133"><ele>276.0</ele><time>2026-04-18T15:18:19.771Z</time></trkpt><trkpt lat="43.0331767" lon="11.6589683"><ele>277.0</ele><time>2026-04-18T15:18:20.763Z</time></trkpt><trkpt lat="43.0331317" lon="11.6593283"><ele>276.5</ele><time>2026-04-18T15:18:21.762Z</time></trkpt><trkpt lat="43.0330883" lon="11.65969"><ele>276.0</ele><time>2026-04-18T15:18:22.773Z</time></trkpt><trkpt lat="43.0330433" lon="11.66005"><ele>276.5</ele><time>2026-04-18T15:18:23.772Z</time></trkpt><trkpt lat="43.0329983" lon="11.66041"><ele>277.0</ele><time>2026-04-18T15:18:24.771Z</time></trkpt><trkpt lat="43.032955" lon="11.6607667"><ele>277.0</ele><time>2026-04-18T15:18:25.773Z</time></trkpt><trkpt lat="43.0329117" lon="11.66112"><ele>277.0</ele><time>2026-04-18T15:18:26.773Z</time></trkpt><trkpt lat="43.0328717" lon="11.6614717"><ele>277.0</ele><time>2026-04-18T15:18:27.772Z</time></trkpt><trkpt lat="43.03283" lon="11.6618233"><ele>277.0</ele><time>2026-04-18T15:18:28.772Z</time></trkpt><trkpt lat="43.032785" lon="11.6621767"><ele>277.0</ele><time>2026-04-18T15:18:29.772Z</time></trkpt><trkpt lat="43.03274" lon="11.66253"><ele>277.0</ele><time>2026-04-18T15:18:30.771Z</time></trkpt><trkpt lat="43.032695" lon="11.6628783"><ele>278.0</ele><time>2026-04-18T15:18:31.772Z</time></trkpt><trkpt lat="43.0326517" lon="11.6632183"><ele>279.0</ele><time>2026-04-18T15:18:32.771Z</time></trkpt><trkpt lat="43.0326083" lon="11.66355"><ele>280.5</ele><time>2026-04-18T15:18:33.772Z</time></trkpt><trkpt lat="43.0325683" lon="11.66387"><ele>282.0</ele><time>2026-04-18T15:18:34.771Z</time></trkpt><trkpt lat="43.03253" lon="11.6641733"><ele>282.3333333333333</ele><time>2026-04-18T15:18:35.772Z</time></trkpt><trkpt lat="43.0324933" lon="11.6644667"><ele>282.66666666666663</ele><time>2026-04-18T15:18:36.771Z</time></trkpt><trkpt lat="43.032465" lon="11.6647383"><ele>283.0</ele><time>2026-04-18T15:18:37.77Z</time></trkpt><trkpt lat="43.03244" lon="11.6649783"><ele>281.3333333333333</ele><time>2026-04-18T15:18:38.773Z</time></trkpt><trkpt lat="43.032415" lon="11.6652"><ele>279.6666666666667</ele><time>2026-04-18T15:18:39.769Z</time></trkpt><trkpt lat="43.0323917" lon="11.66541"><ele>278.0</ele><time>2026-04-18T15:18:40.771Z</time></trkpt><trkpt lat="43.03237" lon="11.6656067"><ele>278.0</ele><time>2026-04-18T15:18:41.773Z</time></trkpt><trkpt lat="43.0323467" lon="11.6658"><ele>278.0</ele><time>2026-04-18T15:18:42.771Z</time></trkpt><trkpt lat="43.0323217" lon="11.66598"><ele>278.0</ele><time>2026-04-18T15:18:43.773Z</time></trkpt><trkpt lat="43.0322917" lon="11.66616"><ele>278.0</ele><time>2026-04-18T15:18:44.774Z</time></trkpt><trkpt lat="43.0322617" lon="11.6663433"><ele>278.5</ele><time>2026-04-18T15:18:45.771Z</time></trkpt><trkpt lat="43.03223" lon="11.6665217"><ele>279.0</ele><time>2026-04-18T15:18:46.774Z</time></trkpt><trkpt lat="43.0321967" lon="11.6667"><ele>279.5</ele><time>2026-04-18T15:18:47.771Z</time></trkpt><trkpt lat="43.032165" lon="11.66688"><ele>280.0</ele><time>2026-04-18T15:18:48.772Z</time></trkpt><trkpt lat="43.032135" lon="11.6670567"><ele>281.25</ele><time>2026-04-18T15:18:49.77Z</time></trkpt><trkpt lat="43.0321067" lon="11.66723"><ele>282.5</ele><time>2026-04-18T15:18:50.774Z</time></trkpt><trkpt lat="43.0320767" lon="11.6674017"><ele>283.75</ele><time>2026-04-18T15:18:51.772Z</time></trkpt><trkpt lat="43.0320483" lon="11.667575"><ele>285.0</ele><time>2026-04-18T15:18:52.771Z</time></trkpt><trkpt lat="43.0320217" lon="11.667745"><ele>284.5</ele><time>2026-04-18T15:18:53.773Z</time></trkpt><trkpt lat="43.0319933" lon="11.6679167"><ele>284.0</ele><time>2026-04-18T15:18:54.771Z</time></trkpt><trkpt lat="43.0319667" lon="11.66808"><ele>283.5</ele><time>2026-04-18T15:18:55.774Z</time></trkpt><trkpt lat="43.0319417" lon="11.6682383"><ele>283.0</ele><time>2026-04-18T15:18:56.774Z</time></trkpt><trkpt lat="43.031915" lon="11.6683933"><ele>283.0</ele><time>2026-04-18T15:18:57.771Z</time></trkpt><trkpt lat="43.0318883" lon="11.6685567"><ele>283.0</ele><time>2026-04-18T15:18:58.771Z</time></trkpt><trkpt lat="43.03186" lon="11.66872"><ele>283.0</ele><time>2026-04-18T15:18:59.771Z</time></trkpt><trkpt lat="43.0318267" lon="11.6688817"><ele>283.0</ele><time>2026-04-18T15:19:00.771Z</time></trkpt><trkpt lat="43.0317983" lon="11.6690483"><ele>283.0</ele><time>2026-04-18T15:19:01.773Z</time></trkpt><trkpt lat="43.0317717" lon="11.6692183"><ele>283.0</ele><time>2026-04-18T15:19:02.773Z</time></trkpt><trkpt lat="43.0317433" lon="11.6693983"><ele>283.0</ele><time>2026-04-18T15:19:03.771Z</time></trkpt><trkpt lat="43.031715" lon="11.6695817"><ele>283.0</ele><time>2026-04-18T15:19:04.773Z</time></trkpt><trkpt lat="43.0316833" lon="11.66977"><ele>283.0</ele><time>2026-04-18T15:19:05.774Z</time></trkpt><trkpt lat="43.0316467" lon="11.66998"><ele>283.0</ele><time>2026-04-18T15:19:06.771Z</time></trkpt><trkpt lat="43.0316067" lon="11.6702117"><ele>283.0</ele><time>2026-04-18T15:19:07.773Z</time></trkpt><trkpt lat="43.0315667" lon="11.6704567"><ele>281.66666666666663</ele><time>2026-04-18T15:19:08.771Z</time></trkpt><trkpt lat="43.0315217" lon="11.6707117"><ele>280.3333333333333</ele><time>2026-04-18T15:19:09.772Z</time></trkpt><trkpt lat="43.0314767" lon="11.6709733"><ele>279.0</ele><time>2026-04-18T15:19:10.772Z</time></trkpt><trkpt lat="43.0314283" lon="11.6712467"><ele>279.0</ele><time>2026-04-18T15:19:11.771Z</time></trkpt><trkpt lat="43.0313783" lon="11.6715233"><ele>279.0</ele><time>2026-04-18T15:19:12.77Z</time></trkpt><trkpt lat="43.03133" lon="11.6717983"><ele>279.0</ele><time>2026-04-18T15:19:13.772Z</time></trkpt><trkpt lat="43.0312817" lon="11.6720733"><ele>278.3333333333333</ele><time>2026-04-18T15:19:14.772Z</time></trkpt><trkpt lat="43.031235" lon="11.6723467"><ele>277.66666666666663</ele><time>2026-04-18T15:19:15.771Z</time></trkpt><trkpt lat="43.0311883" lon="11.6726167"><ele>277.0</ele><time>2026-04-18T15:19:16.77Z</time></trkpt><trkpt lat="43.0311417" lon="11.672885"><ele>276.66666666666663</ele><time>2026-04-18T15:19:17.771Z</time></trkpt><trkpt lat="43.031095" lon="11.67315"><ele>276.3333333333333</ele><time>2026-04-18T15:19:18.769Z</time></trkpt><trkpt lat="43.031055" lon="11.67341"><ele>276.0</ele><time>2026-04-18T15:19:19.77Z</time></trkpt><trkpt lat="43.031015" lon="11.673665"><ele>276.0</ele><time>2026-04-18T15:19:20.771Z</time></trkpt><trkpt lat="43.0309733" lon="11.6739167"><ele>276.0</ele><time>2026-04-18T15:19:21.771Z</time></trkpt><trkpt lat="43.0309233" lon="11.674165"><ele>276.0</ele><time>2026-04-18T15:19:22.771Z</time></trkpt><trkpt lat="43.0308567" lon="11.67442"><ele>276.3333333333333</ele><time>2026-04-18T15:19:23.772Z</time></trkpt><trkpt lat="43.0307767" lon="11.6746783"><ele>276.66666666666663</ele><time>2026-04-18T15:19:24.771Z</time></trkpt><trkpt lat="43.0306883" lon="11.6749333"><ele>277.0</ele><time>2026-04-18T15:19:25.771Z</time></trkpt><trkpt lat="43.0305933" lon="11.6751933"><ele>276.66666666666663</ele><time>2026-04-18T15:19:26.774Z</time></trkpt><trkpt lat="43.03049" lon="11.6754533"><ele>276.3333333333333</ele><time>2026-04-18T15:19:27.772Z</time></trkpt><trkpt lat="43.0303867" lon="11.6757133"><ele>276.0</ele><time>2026-04-18T15:19:28.77Z</time></trkpt><trkpt lat="43.030285" lon="11.675975"><ele>276.5</ele><time>2026-04-18T15:19:29.772Z</time></trkpt><trkpt lat="43.030185" lon="11.6762567"><ele>277.0</ele><time>2026-04-18T15:19:30.773Z</time></trkpt><trkpt lat="43.0300933" lon="11.6765683"><ele>277.0</ele><time>2026-04-18T15:19:31.773Z</time></trkpt><trkpt lat="43.0300133" lon="11.676905"><ele>277.0</ele><time>2026-04-18T15:19:32.773Z</time></trkpt><trkpt lat="43.0299333" lon="11.677275"><ele>276.5</ele><time>2026-04-18T15:19:33.771Z</time></trkpt><trkpt lat="43.0298467" lon="11.6776967"><ele>276.0</ele><time>2026-04-18T15:19:34.773Z</time></trkpt><trkpt lat="43.0297583" lon="11.6781717"><ele>276.5</ele><time>2026-04-18T15:19:35.772Z</time></trkpt><trkpt lat="43.0296667" lon="11.6786333"><ele>277.0</ele><time>2026-04-18T15:19:36.772Z</time></trkpt><trkpt lat="43.0295833" lon="11.6790483"><ele>277.0</ele><time>2026-04-18T15:19:37.771Z</time></trkpt><trkpt lat="43.0295067" lon="11.67943"><ele>277.0</ele><time>2026-04-18T15:19:38.774Z</time></trkpt><trkpt lat="43.029435" lon="11.6797817"><ele>277.0</ele><time>2026-04-18T15:19:39.771Z</time></trkpt><trkpt lat="43.0293667" lon="11.6801017"><ele>277.0</ele><time>2026-04-18T15:19:40.769Z</time></trkpt><trkpt lat="43.0293" lon="11.6804067"><ele>277.0</ele><time>2026-04-18T15:19:41.772Z</time></trkpt><trkpt lat="43.029235" lon="11.6807117"><ele>277.0</ele><time>2026-04-18T15:19:42.773Z</time></trkpt><trkpt lat="43.02917" lon="11.68102"><ele>278.0</ele><time>2026-04-18T15:19:43.771Z</time></trkpt><trkpt lat="43.0291067" lon="11.68133"><ele>279.0</ele><time>2026-04-18T15:19:44.773Z</time></trkpt><trkpt lat="43.0290433" lon="11.68164"><ele>279.5</ele><time>2026-04-18T15:19:45.773Z</time></trkpt><trkpt lat="43.02898" lon="11.68195"><ele>280.0</ele><time>2026-04-18T15:19:46.772Z</time></trkpt><trkpt lat="43.028915" lon="11.68227"><ele>280.0</ele><time>2026-04-18T15:19:47.772Z</time></trkpt><trkpt lat="43.02885" lon="11.68259"><ele>280.0</ele><time>2026-04-18T15:19:48.771Z</time></trkpt><trkpt lat="43.0287883" lon="11.6829067"><ele>280.5</ele><time>2026-04-18T15:19:49.772Z</time></trkpt><trkpt lat="43.0287267" lon="11.6832233"><ele>281.0</ele><time>2026-04-18T15:19:50.771Z</time></trkpt><trkpt lat="43.0286633" lon="11.683545"><ele>281.5</ele><time>2026-04-18T15:19:51.771Z</time></trkpt><trkpt lat="43.0285967" lon="11.6838683"><ele>282.0</ele><time>2026-04-18T15:19:52.773Z</time></trkpt><trkpt lat="43.02853" lon="11.684195"><ele>282.5</ele><time>2026-04-18T15:19:53.77Z</time></trkpt><trkpt lat="43.028465" lon="11.6845217"><ele>283.0</ele><time>2026-04-18T15:19:54.771Z</time></trkpt><trkpt lat="43.0284" lon="11.68485"><ele>283.0</ele><time>2026-04-18T15:19:55.774Z</time></trkpt><trkpt lat="43.0283333" lon="11.6851717"><ele>283.0</ele><time>2026-04-18T15:19:56.773Z</time></trkpt><trkpt lat="43.02827" lon="11.6854917"><ele>281.5</ele><time>2026-04-18T15:19:57.772Z</time></trkpt><trkpt lat="43.0282067" lon="11.6858033"><ele>280.0</ele><time>2026-04-18T15:19:58.772Z</time></trkpt><trkpt lat="43.028145" lon="11.6861067"><ele>280.0</ele><time>2026-04-18T15:19:59.771Z</time></trkpt><trkpt lat="43.0280867" lon="11.6864067"><ele>280.0</ele><time>2026-04-18T15:20:00.772Z</time></trkpt><trkpt lat="43.0280333" lon="11.6866933"><ele>280.0</ele><time>2026-04-18T15:20:01.771Z</time></trkpt><trkpt lat="43.027975" lon="11.6869783"><ele>280.3333333333333</ele><time>2026-04-18T15:20:02.772Z</time></trkpt><trkpt lat="43.027915" lon="11.687265"><ele>280.6666666666667</ele><time>2026-04-18T15:20:03.771Z</time></trkpt><trkpt lat="43.0278567" lon="11.687545"><ele>281.0</ele><time>2026-04-18T15:20:04.771Z</time></trkpt><trkpt lat="43.0278017" lon="11.687825"><ele>281.0</ele><time>2026-04-18T15:20:05.772Z</time></trkpt><trkpt lat="43.027745" lon="11.6881067"><ele>281.0</ele><time>2026-04-18T15:20:06.773Z</time></trkpt><trkpt lat="43.02769" lon="11.6883833"><ele>281.0</ele><time>2026-04-18T15:20:07.772Z</time></trkpt><trkpt lat="43.0276333" lon="11.688655"><ele>280.6666666666667</ele><time>2026-04-18T15:20:08.771Z</time></trkpt><trkpt lat="43.0275683" lon="11.6889267"><ele>280.3333333333333</ele><time>2026-04-18T15:20:09.774Z</time></trkpt><trkpt lat="43.02749" lon="11.6891933"><ele>280.0</ele><time>2026-04-18T15:20:10.772Z</time></trkpt><trkpt lat="43.02741" lon="11.6894367"><ele>280.0</ele><time>2026-04-18T15:20:11.77Z</time></trkpt><trkpt lat="43.0273333" lon="11.6896567"><ele>280.0</ele><time>2026-04-18T15:20:12.772Z</time></trkpt><trkpt lat="43.0272583" lon="11.6898583"><ele>280.0</ele><time>2026-04-18T15:20:13.771Z</time></trkpt><trkpt lat="43.0271917" lon="11.6900417"><ele>280.0</ele><time>2026-04-18T15:20:14.772Z</time></trkpt><trkpt lat="43.027125" lon="11.6902117"><ele>280.0</ele><time>2026-04-18T15:20:15.771Z</time></trkpt><trkpt lat="43.027065" lon="11.6903717"><ele>280.0</ele><time>2026-04-18T15:20:16.77Z</time></trkpt><trkpt lat="43.0270117" lon="11.6905217"><ele>280.0</ele><time>2026-04-18T15:20:17.771Z</time></trkpt><trkpt lat="43.02696" lon="11.6906617"><ele>280.16666666666663</ele><time>2026-04-18T15:20:18.773Z</time></trkpt><trkpt lat="43.02691" lon="11.6907867"><ele>280.3333333333333</ele><time>2026-04-18T15:20:19.771Z</time></trkpt><trkpt lat="43.0268633" lon="11.6908983"><ele>280.5</ele><time>2026-04-18T15:20:20.772Z</time></trkpt><trkpt lat="43.0268217" lon="11.6909983"><ele>280.6666666666667</ele><time>2026-04-18T15:20:21.772Z</time></trkpt><trkpt lat="43.0267817" lon="11.6911033"><ele>280.83333333333337</ele><time>2026-04-18T15:20:22.772Z</time></trkpt><trkpt lat="43.0267483" lon="11.6911967"><ele>281.0</ele><time>2026-04-18T15:20:23.769Z</time></trkpt><trkpt lat="43.026715" lon="11.69128"><ele>281.33333333333337</ele><time>2026-04-18T15:20:24.773Z</time></trkpt><trkpt lat="43.0266833" lon="11.6913583"><ele>281.6666666666667</ele><time>2026-04-18T15:20:25.772Z</time></trkpt><trkpt lat="43.0266267" lon="11.6914633"><ele>282.0</ele><time>2026-04-18T15:20:27.773Z</time></trkpt><trkpt lat="43.0265933" lon="11.6915517"><ele>282.3333333333333</ele><time>2026-04-18T15:20:30.772Z</time></trkpt><trkpt lat="43.0266383" lon="11.6916283"><ele>282.66666666666663</ele><time>2026-04-18T15:20:33.772Z</time></trkpt><trkpt lat="43.0267333" lon="11.6916283"><ele>283.0</ele><time>2026-04-18T15:20:35.771Z</time></trkpt><trkpt lat="43.0268083" lon="11.691605"><ele>283.0</ele><time>2026-04-18T15:20:36.772Z</time></trkpt><trkpt lat="43.0269067" lon="11.6915733"><ele>283.0</ele><time>2026-04-18T15:20:37.774Z</time></trkpt><trkpt lat="43.0270217" lon="11.6915483"><ele>283.0</ele><time>2026-04-18T15:20:38.774Z</time></trkpt><trkpt lat="43.02715" lon="11.6915233"><ele>283.0</ele><time>2026-04-18T15:20:39.774Z</time></trkpt><trkpt lat="43.027295" lon="11.691495"><ele>283.0</ele><time>2026-04-18T15:20:40.77Z</time></trkpt><trkpt lat="43.0274567" lon="11.6914333"><ele>283.0</ele><time>2026-04-18T15:20:41.772Z</time></trkpt><trkpt lat="43.02762" lon="11.6913333"><ele>283.0</ele><time>2026-04-18T15:20:42.773Z</time></trkpt><trkpt lat="43.027765" lon="11.6911617"><ele>283.5</ele><time>2026-04-18T15:20:43.77Z</time></trkpt><trkpt lat="43.0279033" lon="11.6909433"><ele>284.0</ele><time>2026-04-18T15:20:44.775Z</time></trkpt><trkpt lat="43.0280567" lon="11.6906867"><ele>284.0</ele><time>2026-04-18T15:20:45.772Z</time></trkpt><trkpt lat="43.0282317" lon="11.6904117"><ele>284.0</ele><time>2026-04-18T15:20:46.772Z</time></trkpt><trkpt lat="43.0284333" lon="11.690155"><ele>282.5</ele><time>2026-04-18T15:20:47.77Z</time></trkpt><trkpt lat="43.0286533" lon="11.68992"><ele>281.0</ele><time>2026-04-18T15:20:48.772Z</time></trkpt><trkpt lat="43.0288883" lon="11.689685"><ele>281.0</ele><time>2026-04-18T15:20:49.773Z</time></trkpt><trkpt lat="43.0291283" lon="11.68945"><ele>281.0</ele><time>2026-04-18T15:20:50.771Z</time></trkpt><trkpt lat="43.029365" lon="11.6892117"><ele>283.0</ele><time>2026-04-18T15:20:51.771Z</time></trkpt><trkpt lat="43.0295983" lon="11.688975"><ele>285.0</ele><time>2026-04-18T15:20:52.772Z</time></trkpt><trkpt lat="43.029825" lon="11.6887417"><ele>286.5</ele><time>2026-04-18T15:20:53.772Z</time></trkpt><trkpt lat="43.0300417" lon="11.68852"><ele>288.0</ele><time>2026-04-18T15:20:54.772Z</time></trkpt><trkpt lat="43.03024" lon="11.68832"><ele>288.0</ele><time>2026-04-18T15:20:55.772Z</time></trkpt><trkpt lat="43.0304233" lon="11.6881333"><ele>288.0</ele><time>2026-04-18T15:20:56.772Z</time></trkpt><trkpt lat="43.030595" lon="11.687955"><ele>288.0</ele><time>2026-04-18T15:20:57.772Z</time></trkpt><trkpt lat="43.0307733" lon="11.6877967"><ele>287.6666666666667</ele><time>2026-04-18T15:20:58.771Z</time></trkpt><trkpt lat="43.0309617" lon="11.6876817"><ele>287.33333333333337</ele><time>2026-04-18T15:20:59.772Z</time></trkpt><trkpt lat="43.0311583" lon="11.687625"><ele>287.0</ele><time>2026-04-18T15:21:00.772Z</time></trkpt><trkpt lat="43.0313733" lon="11.6876433"><ele>287.0</ele><time>2026-04-18T15:21:01.773Z</time></trkpt><trkpt lat="43.031595" lon="11.687725"><ele>287.0</ele><time>2026-04-18T15:21:02.771Z</time></trkpt><trkpt lat="43.0318133" lon="11.687815"><ele>288.6666666666667</ele><time>2026-04-18T15:21:03.771Z</time></trkpt><trkpt lat="43.032025" lon="11.6879"><ele>290.3333333333333</ele><time>2026-04-18T15:21:04.772Z</time></trkpt><trkpt lat="43.03224" lon="11.68799"><ele>292.0</ele><time>2026-04-18T15:21:05.771Z</time></trkpt><trkpt lat="43.03244" lon="11.6880733"><ele>292.3333333333333</ele><time>2026-04-18T15:21:06.775Z</time></trkpt><trkpt lat="43.0326267" lon="11.688145"><ele>292.6666666666667</ele><time>2026-04-18T15:21:07.773Z</time></trkpt><trkpt lat="43.032805" lon="11.6882"><ele>293.0</ele><time>2026-04-18T15:21:08.772Z</time></trkpt><trkpt lat="43.0329867" lon="11.688235"><ele>293.0</ele><time>2026-04-18T15:21:09.772Z</time></trkpt><trkpt lat="43.03318" lon="11.6882333"><ele>293.0</ele><time>2026-04-18T15:21:10.772Z</time></trkpt><trkpt lat="43.03339" lon="11.6882133"><ele>293.0</ele><time>2026-04-18T15:21:11.77Z</time></trkpt><trkpt lat="43.0336017" lon="11.6881817"><ele>294.0</ele><time>2026-04-18T15:21:12.771Z</time></trkpt><trkpt lat="43.0338183" lon="11.6881383"><ele>295.0</ele><time>2026-04-18T15:21:13.774Z</time></trkpt><trkpt lat="43.0340367" lon="11.6880633"><ele>296.0</ele><time>2026-04-18T15:21:14.774Z</time></trkpt><trkpt lat="43.034255" lon="11.6879533"><ele>297.0</ele><time>2026-04-18T15:21:15.771Z</time></trkpt><trkpt lat="43.0344683" lon="11.6878217"><ele>298.0</ele><time>2026-04-18T15:21:16.773Z</time></trkpt><trkpt lat="43.0346817" lon="11.6876817"><ele>298.0</ele><time>2026-04-18T15:21:17.771Z</time></trkpt><trkpt lat="43.034905" lon="11.6875383"><ele>298.0</ele><time>2026-04-18T15:21:18.772Z</time></trkpt><trkpt lat="43.03514" lon="11.6873967"><ele>297.0</ele><time>2026-04-18T15:21:19.768Z</time></trkpt><trkpt lat="43.0353783" lon="11.68725"><ele>296.0</ele><time>2026-04-18T15:21:20.77Z</time></trkpt><trkpt lat="43.0356217" lon="11.6870983"><ele>296.5</ele><time>2026-04-18T15:21:21.769Z</time></trkpt><trkpt lat="43.0358667" lon="11.686945"><ele>297.0</ele><time>2026-04-18T15:21:22.769Z</time></trkpt><trkpt lat="43.0361133" lon="11.68679"><ele>295.0</ele><time>2026-04-18T15:21:23.77Z</time></trkpt><trkpt lat="43.036355" lon="11.6866333"><ele>293.0</ele><time>2026-04-18T15:21:24.769Z</time></trkpt><trkpt lat="43.036595" lon="11.6864783"><ele>292.0</ele><time>2026-04-18T15:21:25.769Z</time></trkpt><trkpt lat="43.0368433" lon="11.6863233"><ele>291.0</ele><time>2026-04-18T15:21:26.772Z</time></trkpt><trkpt lat="43.0370933" lon="11.68617"><ele>291.0</ele><time>2026-04-18T15:21:27.77Z</time></trkpt><trkpt lat="43.03734" lon="11.6860183"><ele>291.0</ele><time>2026-04-18T15:21:28.771Z</time></trkpt><trkpt lat="43.0375833" lon="11.6858633"><ele>291.0</ele><time>2026-04-18T15:21:29.769Z</time></trkpt><trkpt lat="43.0378267" lon="11.68572"><ele>291.0</ele><time>2026-04-18T15:21:30.769Z</time></trkpt><trkpt lat="43.0380667" lon="11.6855667"><ele>292.5</ele><time>2026-04-18T15:21:31.769Z</time></trkpt><trkpt lat="43.038305" lon="11.6854167"><ele>294.0</ele><time>2026-04-18T15:21:32.77Z</time></trkpt><trkpt lat="43.0385417" lon="11.68527"><ele>295.0</ele><time>2026-04-18T15:21:33.77Z</time></trkpt><trkpt lat="43.0387667" lon="11.68513"><ele>296.0</ele><time>2026-04-18T15:21:34.768Z</time></trkpt><trkpt lat="43.038975" lon="11.6850083"><ele>296.0</ele><time>2026-04-18T15:21:35.773Z</time></trkpt><trkpt lat="43.039175" lon="11.6849033"><ele>296.0</ele><time>2026-04-18T15:21:36.771Z</time></trkpt><trkpt lat="43.0393833" lon="11.6848267"><ele>296.0</ele><time>2026-04-18T15:21:37.773Z</time></trkpt><trkpt lat="43.0395917" lon="11.6847833"><ele>296.0</ele><time>2026-04-18T15:21:38.773Z</time></trkpt><trkpt lat="43.0398083" lon="11.6847717"><ele>296.0</ele><time>2026-04-18T15:21:39.77Z</time></trkpt><trkpt lat="43.0400267" lon="11.6847817"><ele>296.0</ele><time>2026-04-18T15:21:40.772Z</time></trkpt><trkpt lat="43.04025" lon="11.684805"><ele>296.0</ele><time>2026-04-18T15:21:41.774Z</time></trkpt><trkpt lat="43.0404783" lon="11.68483"><ele>296.0</ele><time>2026-04-18T15:21:42.771Z</time></trkpt><trkpt lat="43.0407067" lon="11.6848583"><ele>294.0</ele><time>2026-04-18T15:21:43.77Z</time></trkpt><trkpt lat="43.040935" lon="11.6848983"><ele>292.0</ele><time>2026-04-18T15:21:44.773Z</time></trkpt><trkpt lat="43.0411567" lon="11.68496"><ele>292.0</ele><time>2026-04-18T15:21:45.765Z</time></trkpt><trkpt lat="43.0413683" lon="11.6850383"><ele>292.0</ele><time>2026-04-18T15:21:46.773Z</time></trkpt><trkpt lat="43.0415683" lon="11.6851233"><ele>292.0</ele><time>2026-04-18T15:21:47.77Z</time></trkpt><trkpt lat="43.0417633" lon="11.6852117"><ele>291.66666666666663</ele><time>2026-04-18T15:21:48.769Z</time></trkpt><trkpt lat="43.0419617" lon="11.6853033"><ele>291.3333333333333</ele><time>2026-04-18T15:21:49.769Z</time></trkpt><trkpt lat="43.042165" lon="11.6853983"><ele>291.0</ele><time>2026-04-18T15:21:50.769Z</time></trkpt><trkpt lat="43.042375" lon="11.6855017"><ele>291.0</ele><time>2026-04-18T15:21:51.771Z</time></trkpt><trkpt lat="43.0425817" lon="11.6856"><ele>291.0</ele><time>2026-04-18T15:21:52.768Z</time></trkpt><trkpt lat="43.042795" lon="11.6856983"><ele>291.0</ele><time>2026-04-18T15:21:53.77Z</time></trkpt><trkpt lat="43.0430083" lon="11.6857867"><ele>291.0</ele><time>2026-04-18T15:21:54.771Z</time></trkpt><trkpt lat="43.043215" lon="11.6858767"><ele>291.0</ele><time>2026-04-18T15:21:55.77Z</time></trkpt><trkpt lat="43.04341" lon="11.68597"><ele>291.0</ele><time>2026-04-18T15:21:56.769Z</time></trkpt><trkpt lat="43.0435883" lon="11.686055"><ele>292.6666666666667</ele><time>2026-04-18T15:21:57.77Z</time></trkpt><trkpt lat="43.0437483" lon="11.6861117"><ele>294.33333333333337</ele><time>2026-04-18T15:21:58.771Z</time></trkpt><trkpt lat="43.0439" lon="11.68614"><ele>296.0</ele><time>2026-04-18T15:21:59.769Z</time></trkpt><trkpt lat="43.0440467" lon="11.6861183"><ele>295.25</ele><time>2026-04-18T15:22:00.77Z</time></trkpt><trkpt lat="43.04418" lon="11.68606"><ele>294.5</ele><time>2026-04-18T15:22:01.772Z</time></trkpt><trkpt lat="43.0442967" lon="11.685965"><ele>293.75</ele><time>2026-04-18T15:22:02.771Z</time></trkpt><trkpt lat="43.0443983" lon="11.6858533"><ele>293.0</ele><time>2026-04-18T15:22:03.769Z</time></trkpt><trkpt lat="43.0444933" lon="11.68574"><ele>293.0</ele><time>2026-04-18T15:22:04.771Z</time></trkpt><trkpt lat="43.04458" lon="11.6856267"><ele>293.0</ele><time>2026-04-18T15:22:05.768Z</time></trkpt><trkpt lat="43.0446683" lon="11.6855167"><ele>293.0</ele><time>2026-04-18T15:22:06.77Z</time></trkpt><trkpt lat="43.0447633" lon="11.685405"><ele>293.0</ele><time>2026-04-18T15:22:07.771Z</time></trkpt><trkpt lat="43.0448583" lon="11.6852933"><ele>293.0</ele><time>2026-04-18T15:22:08.771Z</time></trkpt><trkpt lat="43.044955" lon="11.685175"><ele>293.0</ele><time>2026-04-18T15:22:09.773Z</time></trkpt><trkpt lat="43.0450517" lon="11.6850533"><ele>293.0</ele><time>2026-04-18T15:22:10.769Z</time></trkpt><trkpt lat="43.0451533" lon="11.6849333"><ele>293.0</ele><time>2026-04-18T15:22:11.77Z</time></trkpt><trkpt lat="43.04527" lon="11.6848267"><ele>293.0</ele><time>2026-04-18T15:22:12.773Z</time></trkpt><trkpt lat="43.0454017" lon="11.6847383"><ele>293.0</ele><time>2026-04-18T15:22:13.771Z</time></trkpt><trkpt lat="43.0455533" lon="11.6846883"><ele>293.0</ele><time>2026-04-18T15:22:14.771Z</time></trkpt><trkpt lat="43.0457183" lon="11.6846917"><ele>293.33333333333337</ele><time>2026-04-18T15:22:15.771Z</time></trkpt><trkpt lat="43.0458867" lon="11.6847583"><ele>293.6666666666667</ele><time>2026-04-18T15:22:16.772Z</time></trkpt><trkpt lat="43.0460467" lon="11.6848667"><ele>294.0</ele><time>2026-04-18T15:22:17.77Z</time></trkpt><trkpt lat="43.0462117" lon="11.685"><ele>294.0</ele><time>2026-04-18T15:22:18.772Z</time></trkpt><trkpt lat="43.046385" lon="11.6851567"><ele>294.0</ele><time>2026-04-18T15:22:19.77Z</time></trkpt><trkpt lat="43.0465733" lon="11.6853317"><ele>294.0</ele><time>2026-04-18T15:22:20.77Z</time></trkpt><trkpt lat="43.0467683" lon="11.6855233"><ele>293.5</ele><time>2026-04-18T15:22:21.77Z</time></trkpt><trkpt lat="43.0469683" lon="11.6857217"><ele>293.0</ele><time>2026-04-18T15:22:22.766Z</time></trkpt><trkpt lat="43.0471717" lon="11.68592"><ele>293.0</ele><time>2026-04-18T15:22:23.77Z</time></trkpt><trkpt lat="43.04738" lon="11.6861117"><ele>293.0</ele><time>2026-04-18T15:22:24.773Z</time></trkpt><trkpt lat="43.0475867" lon="11.6862867"><ele>293.5</ele><time>2026-04-18T15:22:25.774Z</time></trkpt><trkpt lat="43.0478033" lon="11.6864433"><ele>294.0</ele><time>2026-04-18T15:22:26.77Z</time></trkpt><trkpt lat="43.0480367" lon="11.6865817"><ele>294.0</ele><time>2026-04-18T15:22:27.772Z</time></trkpt><trkpt lat="43.0482917" lon="11.686695"><ele>294.0</ele><time>2026-04-18T15:22:28.771Z</time></trkpt><trkpt lat="43.04856" lon="11.6867817"><ele>295.0</ele><time>2026-04-18T15:22:29.772Z</time></trkpt><trkpt lat="43.048835" lon="11.6868517"><ele>296.0</ele><time>2026-04-18T15:22:30.769Z</time></trkpt><trkpt lat="43.04911" lon="11.6869183"><ele>297.0</ele><time>2026-04-18T15:22:31.771Z</time></trkpt><trkpt lat="43.0493833" lon="11.686985"><ele>298.0</ele><time>2026-04-18T15:22:32.771Z</time></trkpt><trkpt lat="43.0496667" lon="11.68706"><ele>299.5</ele><time>2026-04-18T15:22:33.772Z</time></trkpt><trkpt lat="43.0499633" lon="11.6871383"><ele>301.0</ele><time>2026-04-18T15:22:34.772Z</time></trkpt><trkpt lat="43.050275" lon="11.6872283"><ele>301.0</ele><time>2026-04-18T15:22:35.771Z</time></trkpt><trkpt lat="43.0505867" lon="11.68733"><ele>301.0</ele><time>2026-04-18T15:22:36.771Z</time></trkpt><trkpt lat="43.0509033" lon="11.6874317"><ele>302.0</ele><time>2026-04-18T15:22:37.77Z</time></trkpt><trkpt lat="43.0512383" lon="11.6875267"><ele>303.0</ele><time>2026-04-18T15:22:38.773Z</time></trkpt><trkpt lat="43.0515817" lon="11.6876167"><ele>302.5</ele><time>2026-04-18T15:22:39.769Z</time></trkpt><trkpt lat="43.0519133" lon="11.6877033"><ele>302.0</ele><time>2026-04-18T15:22:40.769Z</time></trkpt><trkpt lat="43.0522333" lon="11.687795"><ele>303.5</ele><time>2026-04-18T15:22:41.769Z</time></trkpt><trkpt lat="43.0525233" lon="11.6878767"><ele>305.0</ele><time>2026-04-18T15:22:42.771Z</time></trkpt><trkpt lat="43.0527917" lon="11.6879567"><ele>305.0</ele><time>2026-04-18T15:22:43.768Z</time></trkpt><trkpt lat="43.0530383" lon="11.68803"><ele>305.0</ele><time>2026-04-18T15:22:44.77Z</time></trkpt><trkpt lat="43.053265" lon="11.6880767"><ele>307.0</ele><time>2026-04-18T15:22:45.769Z</time></trkpt><trkpt lat="43.05349" lon="11.68809"><ele>309.0</ele><time>2026-04-18T15:22:46.771Z</time></trkpt><trkpt lat="43.0537183" lon="11.6880517"><ele>309.0</ele><time>2026-04-18T15:22:47.768Z</time></trkpt><trkpt lat="43.053945" lon="11.687955"><ele>309.0</ele><time>2026-04-18T15:22:48.771Z</time></trkpt><trkpt lat="43.0541683" lon="11.687815"><ele>311.0</ele><time>2026-04-18T15:22:49.775Z</time></trkpt><trkpt lat="43.0544017" lon="11.6876533"><ele>313.0</ele><time>2026-04-18T15:22:50.773Z</time></trkpt><trkpt lat="43.0546383" lon="11.6874867"><ele>313.0</ele><time>2026-04-18T15:22:51.772Z</time></trkpt><trkpt lat="43.0548883" lon="11.6873333"><ele>313.0</ele><time>2026-04-18T15:22:52.771Z</time></trkpt><trkpt lat="43.0551417" lon="11.687185"><ele>315.0</ele><time>2026-04-18T15:22:53.77Z</time></trkpt><trkpt lat="43.055385" lon="11.68704"><ele>317.0</ele><time>2026-04-18T15:22:54.775Z</time></trkpt><trkpt lat="43.0556133" lon="11.6869067"><ele>321.0</ele><time>2026-04-18T15:22:55.77Z</time></trkpt><trkpt lat="43.0558167" lon="11.6867583"><ele>325.0</ele><time>2026-04-18T15:22:56.773Z</time></trkpt><trkpt lat="43.0560133" lon="11.6865717"><ele>325.0</ele><time>2026-04-18T15:22:57.769Z</time></trkpt><trkpt lat="43.0561933" lon="11.6863517"><ele>325.0</ele><time>2026-04-18T15:22:58.771Z</time></trkpt><trkpt lat="43.05637" lon="11.6861117"><ele>325.5</ele><time>2026-04-18T15:22:59.77Z</time></trkpt><trkpt lat="43.0565417" lon="11.6858717"><ele>326.0</ele><time>2026-04-18T15:23:00.769Z</time></trkpt><trkpt lat="43.0566983" lon="11.6856367"><ele>328.33333333333337</ele><time>2026-04-18T15:23:01.773Z</time></trkpt><trkpt lat="43.0568333" lon="11.685395"><ele>330.6666666666667</ele><time>2026-04-18T15:23:02.772Z</time></trkpt><trkpt lat="43.0569383" lon="11.685125"><ele>333.0</ele><time>2026-04-18T15:23:03.771Z</time></trkpt><trkpt lat="43.0570283" lon="11.6848367"><ele>333.0</ele><time>2026-04-18T15:23:04.773Z</time></trkpt><trkpt lat="43.0571033" lon="11.6845433"><ele>333.0</ele><time>2026-04-18T15:23:05.773Z</time></trkpt><trkpt lat="43.0571817" lon="11.684265"><ele>333.0</ele><time>2026-04-18T15:23:06.772Z</time></trkpt><trkpt lat="43.0572683" lon="11.6840067"><ele>333.0</ele><time>2026-04-18T15:23:07.774Z</time></trkpt><trkpt lat="43.0573733" lon="11.683755"><ele>333.0</ele><time>2026-04-18T15:23:08.771Z</time></trkpt><trkpt lat="43.0574883" lon="11.6835167"><ele>333.0</ele><time>2026-04-18T15:23:09.771Z</time></trkpt><trkpt lat="43.0576033" lon="11.6832967"><ele>334.0</ele><time>2026-04-18T15:23:10.77Z</time></trkpt><trkpt lat="43.0577467" lon="11.6831117"><ele>335.0</ele><time>2026-04-18T15:23:11.772Z</time></trkpt><trkpt lat="43.057925" lon="11.6829633"><ele>336.0</ele><time>2026-04-18T15:23:12.77Z</time></trkpt><trkpt lat="43.0581267" lon="11.68286"><ele>336.0</ele><time>2026-04-18T15:23:13.774Z</time></trkpt><trkpt lat="43.0583533" lon="11.6827967"><ele>336.0</ele><time>2026-04-18T15:23:14.772Z</time></trkpt><trkpt lat="43.0586" lon="11.6827633"><ele>336.0</ele><time>2026-04-18T15:23:15.773Z</time></trkpt><trkpt lat="43.05886" lon="11.68274"><ele>336.0</ele><time>2026-04-18T15:23:16.77Z</time></trkpt><trkpt lat="43.059125" lon="11.6827167"><ele>332.0</ele><time>2026-04-18T15:23:17.771Z</time></trkpt><trkpt lat="43.0593817" lon="11.68269"><ele>328.0</ele><time>2026-04-18T15:23:18.766Z</time></trkpt><trkpt lat="43.0596283" lon="11.682665"><ele>328.0</ele><time>2026-04-18T15:23:19.769Z</time></trkpt><trkpt lat="43.0598633" lon="11.682635"><ele>328.0</ele><time>2026-04-18T15:23:20.765Z</time></trkpt><trkpt lat="43.06009" lon="11.6826017"><ele>323.0</ele><time>2026-04-18T15:23:21.769Z</time></trkpt><trkpt lat="43.0603183" lon="11.6825633"><ele>318.0</ele><time>2026-04-18T15:23:22.766Z</time></trkpt><trkpt lat="43.0605567" lon="11.682505"><ele>315.5</ele><time>2026-04-18T15:23:23.759Z</time></trkpt><trkpt lat="43.0607933" lon="11.6824083"><ele>313.0</ele><time>2026-04-18T15:23:24.762Z</time></trkpt><trkpt lat="43.061025" lon="11.6822733"><ele>313.0</ele><time>2026-04-18T15:23:25.771Z</time></trkpt><trkpt lat="43.0612567" lon="11.682105"><ele>313.0</ele><time>2026-04-18T15:23:26.774Z</time></trkpt><trkpt lat="43.0614933" lon="11.68192"><ele>313.5</ele><time>2026-04-18T15:23:27.771Z</time></trkpt><trkpt lat="43.061725" lon="11.6817317"><ele>314.0</ele><time>2026-04-18T15:23:28.764Z</time></trkpt><trkpt lat="43.0619433" lon="11.6815533"><ele>314.0</ele><time>2026-04-18T15:23:29.77Z</time></trkpt><trkpt lat="43.0621517" lon="11.6813883"><ele>314.0</ele><time>2026-04-18T15:23:30.772Z</time></trkpt><trkpt lat="43.0623567" lon="11.6812483"><ele>314.33333333333337</ele><time>2026-04-18T15:23:31.77Z</time></trkpt><trkpt lat="43.0625617" lon="11.6811367"><ele>314.6666666666667</ele><time>2026-04-18T15:23:32.773Z</time></trkpt><trkpt lat="43.0627733" lon="11.681065"><ele>315.0</ele><time>2026-04-18T15:23:33.771Z</time></trkpt><trkpt lat="43.0629967" lon="11.68105"><ele>316.0</ele><time>2026-04-18T15:23:34.771Z</time></trkpt><trkpt lat="43.0632367" lon="11.6811017"><ele>317.0</ele><time>2026-04-18T15:23:35.772Z</time></trkpt><trkpt lat="43.0634767" lon="11.68116"><ele>317.0</ele><time>2026-04-18T15:23:36.768Z</time></trkpt><trkpt lat="43.0637183" lon="11.6812233"><ele>317.0</ele><time>2026-04-18T15:23:37.772Z</time></trkpt><trkpt lat="43.0639667" lon="11.6812717"><ele>317.0</ele><time>2026-04-18T15:23:38.774Z</time></trkpt><trkpt lat="43.06422" lon="11.681285"><ele>317.0</ele><time>2026-04-18T15:23:39.771Z</time></trkpt><trkpt lat="43.06448" lon="11.6812733"><ele>317.0</ele><time>2026-04-18T15:23:40.772Z</time></trkpt><trkpt lat="43.06474" lon="11.6812383"><ele>317.0</ele><time>2026-04-18T15:23:41.773Z</time></trkpt><trkpt lat="43.0649983" lon="11.6812017"><ele>318.5</ele><time>2026-04-18T15:23:42.77Z</time></trkpt><trkpt lat="43.065255" lon="11.681165"><ele>320.0</ele><time>2026-04-18T15:23:43.771Z</time></trkpt><trkpt lat="43.0654983" lon="11.6811383"><ele>320.0</ele><time>2026-04-18T15:23:44.775Z</time></trkpt><trkpt lat="43.0657183" lon="11.6811233"><ele>320.0</ele><time>2026-04-18T15:23:45.771Z</time></trkpt><trkpt lat="43.0658917" lon="11.681105"><ele>320.0</ele><time>2026-04-18T15:23:46.773Z</time></trkpt><trkpt lat="43.066025" lon="11.6810633"><ele>320.75</ele><time>2026-04-18T15:23:47.772Z</time></trkpt><trkpt lat="43.06613" lon="11.6809733"><ele>321.5</ele><time>2026-04-18T15:23:48.771Z</time></trkpt><trkpt lat="43.0662067" lon="11.6808317"><ele>322.25</ele><time>2026-04-18T15:23:49.771Z</time></trkpt><trkpt lat="43.0662383" lon="11.6806367"><ele>323.0</ele><time>2026-04-18T15:23:50.775Z</time></trkpt><trkpt lat="43.06622" lon="11.6803783"><ele>324.5</ele><time>2026-04-18T15:23:51.772Z</time></trkpt><trkpt lat="43.0661517" lon="11.6800867"><ele>326.0</ele><time>2026-04-18T15:23:52.772Z</time></trkpt><trkpt lat="43.0660683" lon="11.6797967"><ele>326.0</ele><time>2026-04-18T15:23:53.77Z</time></trkpt><trkpt lat="43.0659717" lon="11.6795383"><ele>326.0</ele><time>2026-04-18T15:23:54.771Z</time></trkpt><trkpt lat="43.0658717" lon="11.6792983"><ele>326.0</ele><time>2026-04-18T15:23:55.772Z</time></trkpt><trkpt lat="43.0657933" lon="11.67908"><ele>323.33333333333337</ele><time>2026-04-18T15:23:56.773Z</time></trkpt><trkpt lat="43.065755" lon="11.6788583"><ele>320.6666666666667</ele><time>2026-04-18T15:23:57.771Z</time></trkpt><trkpt lat="43.0657533" lon="11.678635"><ele>318.0</ele><time>2026-04-18T15:23:58.773Z</time></trkpt><trkpt lat="43.0658133" lon="11.6784217"><ele>323.3333333333333</ele><time>2026-04-18T15:23:59.772Z</time></trkpt><trkpt lat="43.0659067" lon="11.6782267"><ele>328.66666666666663</ele><time>2026-04-18T15:24:00.772Z</time></trkpt><trkpt lat="43.066015" lon="11.6780667"><ele>334.0</ele><time>2026-04-18T15:24:01.771Z</time></trkpt><trkpt lat="43.06614" lon="11.6779633"><ele>334.0</ele><time>2026-04-18T15:24:02.771Z</time></trkpt><trkpt lat="43.0662867" lon="11.67791"><ele>334.0</ele><time>2026-04-18T15:24:03.769Z</time></trkpt><trkpt lat="43.066455" lon="11.6779183"><ele>334.0</ele><time>2026-04-18T15:24:04.771Z</time></trkpt><trkpt lat="43.0666083" lon="11.67799"><ele>337.0</ele><time>2026-04-18T15:24:05.77Z</time></trkpt><trkpt lat="43.0667683" lon="11.6781367"><ele>340.0</ele><time>2026-04-18T15:24:06.77Z</time></trkpt><trkpt lat="43.0669317" lon="11.678265"><ele>343.0</ele><time>2026-04-18T15:24:07.772Z</time></trkpt><trkpt lat="43.06712" lon="11.67839"><ele>343.0</ele><time>2026-04-18T15:24:08.772Z</time></trkpt><trkpt lat="43.0673217" lon="11.6785"><ele>343.0</ele><time>2026-04-18T15:24:09.773Z</time></trkpt><trkpt lat="43.0675183" lon="11.67858"><ele>343.0</ele><time>2026-04-18T15:24:10.77Z</time></trkpt><trkpt lat="43.0677133" lon="11.67863"><ele>344.0</ele><time>2026-04-18T15:24:11.772Z</time></trkpt><trkpt lat="43.0679083" lon="11.6786233"><ele>345.0</ele><time>2026-04-18T15:24:12.764Z</time></trkpt><trkpt lat="43.0680867" lon="11.6785683"><ele>346.0</ele><time>2026-04-18T15:24:13.772Z</time></trkpt><trkpt lat="43.0682267" lon="11.6785033"><ele>348.0</ele><time>2026-04-18T15:24:14.774Z</time></trkpt><trkpt lat="43.0683567" lon="11.6784633"><ele>350.0</ele><time>2026-04-18T15:24:15.771Z</time></trkpt><trkpt lat="43.0684567" lon="11.6784717"><ele>352.0</ele><time>2026-04-18T15:24:16.77Z</time></trkpt><trkpt lat="43.068535" lon="11.67855"><ele>354.0</ele><time>2026-04-18T15:24:17.772Z</time></trkpt><trkpt lat="43.0685683" lon="11.6787067"><ele>355.75</ele><time>2026-04-18T15:24:18.771Z</time></trkpt><trkpt lat="43.068565" lon="11.6788783"><ele>357.5</ele><time>2026-04-18T15:24:19.772Z</time></trkpt><trkpt lat="43.068525" lon="11.67909"><ele>359.25</ele><time>2026-04-18T15:24:20.773Z</time></trkpt><trkpt lat="43.0684883" lon="11.679305"><ele>361.0</ele><time>2026-04-18T15:24:21.77Z</time></trkpt><trkpt lat="43.0684683" lon="11.679515"><ele>361.25</ele><time>2026-04-18T15:24:22.77Z</time></trkpt><trkpt lat="43.0684833" lon="11.6797133"><ele>361.5</ele><time>2026-04-18T15:24:23.772Z</time></trkpt><trkpt lat="43.0685417" lon="11.6798867"><ele>361.75</ele><time>2026-04-18T15:24:24.771Z</time></trkpt><trkpt lat="43.0686433" lon="11.680005"><ele>362.0</ele><time>2026-04-18T15:24:25.77Z</time></trkpt><trkpt lat="43.0687517" lon="11.6800517"><ele>362.0</ele><time>2026-04-18T15:24:26.774Z</time></trkpt><trkpt lat="43.068885" lon="11.679985"><ele>362.0</ele><time>2026-04-18T15:24:27.77Z</time></trkpt><trkpt lat="43.0689917" lon="11.6798183"><ele>362.0</ele><time>2026-04-18T15:24:28.773Z</time></trkpt><trkpt lat="43.0690567" lon="11.6796217"><ele>361.6666666666667</ele><time>2026-04-18T15:24:29.77Z</time></trkpt><trkpt lat="43.0691033" lon="11.6794217"><ele>361.3333333333333</ele><time>2026-04-18T15:24:30.772Z</time></trkpt><trkpt lat="43.0691533" lon="11.67922"><ele>361.0</ele><time>2026-04-18T15:24:31.771Z</time></trkpt><trkpt lat="43.0692383" lon="11.67905"><ele>364.3333333333333</ele><time>2026-04-18T15:24:32.775Z</time></trkpt><trkpt lat="43.0693633" lon="11.678915"><ele>367.6666666666667</ele><time>2026-04-18T15:24:33.772Z</time></trkpt><trkpt lat="43.06952" lon="11.6788217"><ele>371.0</ele><time>2026-04-18T15:24:34.77Z</time></trkpt><trkpt lat="43.0697133" lon="11.6787883"><ele>371.0</ele><time>2026-04-18T15:24:35.77Z</time></trkpt><trkpt lat="43.0699333" lon="11.6787817"><ele>371.0</ele><time>2026-04-18T15:24:36.771Z</time></trkpt><trkpt lat="43.0701583" lon="11.6787633"><ele>371.0</ele><time>2026-04-18T15:24:37.774Z</time></trkpt><trkpt lat="43.0704017" lon="11.67874"><ele>375.5</ele><time>2026-04-18T15:24:38.775Z</time></trkpt><trkpt lat="43.0706567" lon="11.6787133"><ele>380.0</ele><time>2026-04-18T15:24:39.773Z</time></trkpt><trkpt lat="43.0709133" lon="11.678685"><ele>383.5</ele><time>2026-04-18T15:24:40.768Z</time></trkpt><trkpt lat="43.071165" lon="11.6786567"><ele>387.0</ele><time>2026-04-18T15:24:41.771Z</time></trkpt><trkpt lat="43.07141" lon="11.678635"><ele>386.33333333333337</ele><time>2026-04-18T15:24:42.772Z</time></trkpt><trkpt lat="43.0716333" lon="11.6786117"><ele>385.6666666666667</ele><time>2026-04-18T15:24:43.772Z</time></trkpt><trkpt lat="43.0718317" lon="11.678595"><ele>385.0</ele><time>2026-04-18T15:24:44.772Z</time></trkpt><trkpt lat="43.0719917" lon="11.6785767"><ele>385.0</ele><time>2026-04-18T15:24:45.771Z</time></trkpt><trkpt lat="43.0721317" lon="11.6785783"><ele>385.0</ele><time>2026-04-18T15:24:46.772Z</time></trkpt><trkpt lat="43.07223" lon="11.6786267"><ele>385.0</ele><time>2026-04-18T15:24:47.772Z</time></trkpt><trkpt lat="43.072305" lon="11.6787183"><ele>385.0</ele><time>2026-04-18T15:24:48.77Z</time></trkpt><trkpt lat="43.0723033" lon="11.6788933"><ele>388.33333333333337</ele><time>2026-04-18T15:24:49.773Z</time></trkpt><trkpt lat="43.0722583" lon="11.6790883"><ele>391.66666666666663</ele><time>2026-04-18T15:24:50.775Z</time></trkpt><trkpt lat="43.0721833" lon="11.6793117"><ele>395.0</ele><time>2026-04-18T15:24:51.773Z</time></trkpt><trkpt lat="43.0721" lon="11.6795367"><ele>396.0</ele><time>2026-04-18T15:24:52.773Z</time></trkpt><trkpt lat="43.0720317" lon="11.6797367"><ele>397.0</ele><time>2026-04-18T15:24:53.772Z</time></trkpt><trkpt lat="43.0719917" lon="11.6799133"><ele>398.0</ele><time>2026-04-18T15:24:54.773Z</time></trkpt><trkpt lat="43.0719983" lon="11.68007"><ele>399.0</ele><time>2026-04-18T15:24:55.771Z</time></trkpt><trkpt lat="43.072045" lon="11.680185"><ele>399.0</ele><time>2026-04-18T15:24:56.775Z</time></trkpt><trkpt lat="43.0721317" lon="11.6802517"><ele>399.0</ele><time>2026-04-18T15:24:57.771Z</time></trkpt><trkpt lat="43.0722167" lon="11.6802933"><ele>399.0</ele><time>2026-04-18T15:24:58.77Z</time></trkpt><trkpt lat="43.0723283" lon="11.6802567"><ele>399.0</ele><time>2026-04-18T15:24:59.771Z</time></trkpt><trkpt lat="43.0724317" lon="11.6801483"><ele>399.0</ele><time>2026-04-18T15:25:00.771Z</time></trkpt><trkpt lat="43.072545" lon="11.67994"><ele>401.0</ele><time>2026-04-18T15:25:01.771Z</time></trkpt><trkpt lat="43.0726267" lon="11.67975"><ele>403.0</ele><time>2026-04-18T15:25:02.774Z</time></trkpt><trkpt lat="43.0726983" lon="11.6795217"><ele>405.0</ele><time>2026-04-18T15:25:03.771Z</time></trkpt><trkpt lat="43.0727683" lon="11.6793483"><ele>405.0</ele><time>2026-04-18T15:25:04.771Z</time></trkpt><trkpt lat="43.0728367" lon="11.6791983"><ele>405.0</ele><time>2026-04-18T15:25:05.774Z</time></trkpt><trkpt lat="43.072905" lon="11.6790567"><ele>405.0</ele><time>2026-04-18T15:25:06.771Z</time></trkpt><trkpt lat="43.0729783" lon="11.6789183"><ele>405.0</ele><time>2026-04-18T15:25:07.772Z</time></trkpt><trkpt lat="43.07307" lon="11.6787883"><ele>405.0</ele><time>2026-04-18T15:25:08.774Z</time></trkpt><trkpt lat="43.0731767" lon="11.67866"><ele>405.0</ele><time>2026-04-18T15:25:09.772Z</time></trkpt><trkpt lat="43.0732933" lon="11.67853"><ele>405.0</ele><time>2026-04-18T15:25:10.772Z</time></trkpt><trkpt lat="43.073405" lon="11.6783883"><ele>405.0</ele><time>2026-04-18T15:25:11.771Z</time></trkpt><trkpt lat="43.0735067" lon="11.67824"><ele>405.75</ele><time>2026-04-18T15:25:12.772Z</time></trkpt><trkpt lat="43.0735933" lon="11.6780833"><ele>406.5</ele><time>2026-04-18T15:25:13.773Z</time></trkpt><trkpt lat="43.07367" lon="11.6779267"><ele>407.25</ele><time>2026-04-18T15:25:14.775Z</time></trkpt><trkpt lat="43.0737383" lon="11.6777683"><ele>408.0</ele><time>2026-04-18T15:25:15.772Z</time></trkpt><trkpt lat="43.0738017" lon="11.677625"><ele>408.0</ele><time>2026-04-18T15:25:16.772Z</time></trkpt><trkpt lat="43.0738583" lon="11.6774817"><ele>408.0</ele><time>2026-04-18T15:25:17.77Z</time></trkpt><trkpt lat="43.0739117" lon="11.677335"><ele>408.0</ele><time>2026-04-18T15:25:18.774Z</time></trkpt><trkpt lat="43.0739667" lon="11.6771867"><ele>408.0</ele><time>2026-04-18T15:25:19.773Z</time></trkpt><trkpt lat="43.0740167" lon="11.6770383"><ele>407.25</ele><time>2026-04-18T15:25:20.772Z</time></trkpt><trkpt lat="43.0740583" lon="11.6768917"><ele>406.5</ele><time>2026-04-18T15:25:21.773Z</time></trkpt><trkpt lat="43.0740967" lon="11.676745"><ele>405.75</ele><time>2026-04-18T15:25:22.767Z</time></trkpt><trkpt lat="43.0741367" lon="11.6765933"><ele>405.0</ele><time>2026-04-18T15:25:23.77Z</time></trkpt><trkpt lat="43.074175" lon="11.6764383"><ele>410.75</ele><time>2026-04-18T15:25:24.774Z</time></trkpt><trkpt lat="43.0742233" lon="11.6762883"><ele>416.5</ele><time>2026-04-18T15:25:25.772Z</time></trkpt><trkpt lat="43.0742717" lon="11.67615"><ele>422.25</ele><time>2026-04-18T15:25:26.775Z</time></trkpt><trkpt lat="43.074325" lon="11.67602"><ele>428.0</ele><time>2026-04-18T15:25:27.77Z</time></trkpt><trkpt lat="43.0743867" lon="11.6758917"><ele>428.0</ele><time>2026-04-18T15:25:28.77Z</time></trkpt><trkpt lat="43.07445" lon="11.675765"><ele>427.99999999999994</ele><time>2026-04-18T15:25:29.772Z</time></trkpt><trkpt lat="43.07451" lon="11.6756417"><ele>427.99999999999994</ele><time>2026-04-18T15:25:30.77Z</time></trkpt><trkpt lat="43.07457" lon="11.675525"><ele>428.0</ele><time>2026-04-18T15:25:31.773Z</time></trkpt><trkpt lat="43.07464" lon="11.675405"><ele>428.0</ele><time>2026-04-18T15:25:32.77Z</time></trkpt><trkpt lat="43.0747183" lon="11.6753"><ele>429.0</ele><time>2026-04-18T15:25:33.768Z</time></trkpt><trkpt lat="43.0748033" lon="11.6752117"><ele>429.99999999999994</ele><time>2026-04-18T15:25:34.77Z</time></trkpt><trkpt lat="43.0748967" lon="11.6751383"><ele>430.99999999999994</ele><time>2026-04-18T15:25:35.774Z</time></trkpt><trkpt lat="43.0750033" lon="11.67509"><ele>432.0</ele><time>2026-04-18T15:25:36.775Z</time></trkpt><trkpt lat="43.0751083" lon="11.67504"><ele>433.0</ele><time>2026-04-18T15:25:37.772Z</time></trkpt><trkpt lat="43.0752067" lon="11.6749917"><ele>433.00000000000006</ele><time>2026-04-18T15:25:38.774Z</time></trkpt><trkpt lat="43.0753017" lon="11.6749417"><ele>433.0</ele><time>2026-04-18T15:25:39.772Z</time></trkpt><trkpt lat="43.07539" lon="11.674885"><ele>433.0</ele><time>2026-04-18T15:25:40.771Z</time></trkpt><trkpt lat="43.0754667" lon="11.674825"><ele>433.0</ele><time>2026-04-18T15:25:41.773Z</time></trkpt><trkpt lat="43.0755333" lon="11.674765"><ele>433.00000000000006</ele><time>2026-04-18T15:25:42.773Z</time></trkpt><trkpt lat="43.075595" lon="11.674705"><ele>433.0</ele><time>2026-04-18T15:25:43.769Z</time></trkpt><trkpt lat="43.0756567" lon="11.6746483"><ele>433.00000000000006</ele><time>2026-04-18T15:25:44.772Z</time></trkpt><trkpt lat="43.0757133" lon="11.6746033"><ele>433.0</ele><time>2026-04-18T15:25:45.772Z</time></trkpt><trkpt lat="43.0758183" lon="11.6745117"><ele>433.0</ele><time>2026-04-18T15:25:47.771Z</time></trkpt><trkpt lat="43.0758783" lon="11.6744717"><ele>433.0</ele><time>2026-04-18T15:25:48.774Z</time></trkpt><trkpt lat="43.0759417" lon="11.67442"><ele>433.00000000000006</ele><time>2026-04-18T15:25:49.769Z</time></trkpt><trkpt lat="43.076015" lon="11.6743617"><ele>433.0</ele><time>2026-04-18T15:25:50.775Z</time></trkpt><trkpt lat="43.0760867" lon="11.674305"><ele>433.79999999999995</ele><time>2026-04-18T15:25:51.772Z</time></trkpt><trkpt lat="43.0761617" lon="11.6742417"><ele>434.59999999999997</ele><time>2026-04-18T15:25:52.771Z</time></trkpt><trkpt lat="43.0762417" lon="11.6741767"><ele>435.40000000000003</ele><time>2026-04-18T15:25:53.772Z</time></trkpt><trkpt lat="43.0763183" lon="11.6740967"><ele>436.20000000000005</ele><time>2026-04-18T15:25:54.774Z</time></trkpt><trkpt lat="43.076395" lon="11.6740067"><ele>437.0</ele><time>2026-04-18T15:25:55.771Z</time></trkpt><trkpt lat="43.0764717" lon="11.6739017"><ele>437.0</ele><time>2026-04-18T15:25:56.773Z</time></trkpt><trkpt lat="43.07654" lon="11.6737817"><ele>437.00000000000006</ele><time>2026-04-18T15:25:57.773Z</time></trkpt><trkpt lat="43.0765967" lon="11.6736633"><ele>437.00000000000006</ele><time>2026-04-18T15:25:58.772Z</time></trkpt><trkpt lat="43.0766483" lon="11.6735583"><ele>437.0</ele><time>2026-04-18T15:25:59.772Z</time></trkpt><trkpt lat="43.0766967" lon="11.67346"><ele>437.0</ele><time>2026-04-18T15:26:00.772Z</time></trkpt><trkpt lat="43.076735" lon="11.6733717"><ele>438.8</ele><time>2026-04-18T15:26:01.772Z</time></trkpt><trkpt lat="43.076805" lon="11.6732483"><ele>440.6</ele><time>2026-04-18T15:26:03.771Z</time></trkpt><trkpt lat="43.076885" lon="11.6732083"><ele>442.40000000000003</ele><time>2026-04-18T15:26:05.772Z</time></trkpt><trkpt lat="43.0769633" lon="11.6732983"><ele>444.20000000000005</ele><time>2026-04-18T15:26:07.772Z</time></trkpt><trkpt lat="43.0769717" lon="11.6734967"><ele>446.0</ele><time>2026-04-18T15:26:09.77Z</time></trkpt><trkpt lat="43.0769783" lon="11.673605"><ele>447.20000000000005</ele><time>2026-04-18T15:26:10.772Z</time></trkpt><trkpt lat="43.07698" lon="11.673755"><ele>448.40000000000003</ele><time>2026-04-18T15:26:11.773Z</time></trkpt><trkpt lat="43.0769917" lon="11.67389"><ele>449.6</ele><time>2026-04-18T15:26:12.771Z</time></trkpt><trkpt lat="43.0769983" lon="11.6740317"><ele>450.8</ele><time>2026-04-18T15:26:13.772Z</time></trkpt><trkpt lat="43.0769933" lon="11.674165"><ele>452.0</ele><time>2026-04-18T15:26:14.774Z</time></trkpt><trkpt lat="43.0769733" lon="11.6742883"><ele>451.99999999999994</ele><time>2026-04-18T15:26:15.77Z</time></trkpt><trkpt lat="43.0769467" lon="11.6743983"><ele>452.0</ele><time>2026-04-18T15:26:16.769Z</time></trkpt><trkpt lat="43.0769233" lon="11.67451"><ele>452.0</ele><time>2026-04-18T15:26:17.773Z</time></trkpt><trkpt lat="43.0768917" lon="11.6746283"><ele>452.0</ele><time>2026-04-18T15:26:18.775Z</time></trkpt><trkpt lat="43.07685" lon="11.67474"><ele>451.99999999999994</ele><time>2026-04-18T15:26:19.77Z</time></trkpt><trkpt lat="43.076815" lon="11.6748367"><ele>452.0</ele><time>2026-04-18T15:26:20.772Z</time></trkpt><trkpt lat="43.0767617" lon="11.6749833"><ele>453.8</ele><time>2026-04-18T15:26:22.769Z</time></trkpt><trkpt lat="43.0767233" lon="11.6751417"><ele>455.6</ele><time>2026-04-18T15:26:24.771Z</time></trkpt><trkpt lat="43.0766783" lon="11.675305"><ele>457.40000000000003</ele><time>2026-04-18T15:26:26.773Z</time></trkpt><trkpt lat="43.076655" lon="11.675465"><ele>459.20000000000005</ele><time>2026-04-18T15:26:28.772Z</time></trkpt><trkpt lat="43.0766283" lon="11.6755517"><ele>461.0</ele><time>2026-04-18T15:26:29.772Z</time></trkpt><trkpt lat="43.0766083" lon="11.675645"><ele>461.16666666666663</ele><time>2026-04-18T15:26:30.771Z</time></trkpt><trkpt lat="43.076585" lon="11.6757383"><ele>461.3333333333333</ele><time>2026-04-18T15:26:31.768Z</time></trkpt><trkpt lat="43.076565" lon="11.6758383"><ele>461.5</ele><time>2026-04-18T15:26:32.772Z</time></trkpt><trkpt lat="43.07654" lon="11.67594"><ele>461.66666666666663</ele><time>2026-04-18T15:26:33.773Z</time></trkpt><trkpt lat="43.0765017" lon="11.6760483"><ele>461.8333333333333</ele><time>2026-04-18T15:26:34.773Z</time></trkpt><trkpt lat="43.0764717" lon="11.6761533"><ele>462.0</ele><time>2026-04-18T15:26:35.772Z</time></trkpt><trkpt lat="43.0764417" lon="11.6762533"><ele>462.0</ele><time>2026-04-18T15:26:36.774Z</time></trkpt><trkpt lat="43.076405" lon="11.6763517"><ele>462.0</ele><time>2026-04-18T15:26:37.772Z</time></trkpt><trkpt lat="43.07637" lon="11.6764467"><ele>462.0</ele><time>2026-04-18T15:26:38.774Z</time></trkpt><trkpt lat="43.0763417" lon="11.6765367"><ele>462.0</ele><time>2026-04-18T15:26:39.771Z</time></trkpt><trkpt lat="43.0763067" lon="11.6766283"><ele>462.0</ele><time>2026-04-18T15:26:40.764Z</time></trkpt><trkpt lat="43.0762733" lon="11.6767183"><ele>462.0</ele><time>2026-04-18T15:26:41.771Z</time></trkpt><trkpt lat="43.0762433" lon="11.6768067"><ele>462.0</ele><time>2026-04-18T15:26:42.771Z</time></trkpt><trkpt lat="43.0762133" lon="11.6769"><ele>462.0</ele><time>2026-04-18T15:26:43.772Z</time></trkpt><trkpt lat="43.0761833" lon="11.6769983"><ele>462.0</ele><time>2026-04-18T15:26:44.773Z</time></trkpt><trkpt lat="43.0761567" lon="11.677105"><ele>462.0</ele><time>2026-04-18T15:26:45.771Z</time></trkpt><trkpt lat="43.07613" lon="11.67721"><ele>462.0</ele><time>2026-04-18T15:26:46.773Z</time></trkpt><trkpt lat="43.076105" lon="11.67732"><ele>462.0</ele><time>2026-04-18T15:26:47.772Z</time></trkpt><trkpt lat="43.0760833" lon="11.6774383"><ele>463.6</ele><time>2026-04-18T15:26:48.773Z</time></trkpt><trkpt lat="43.0760617" lon="11.677555"><ele>465.20000000000005</ele><time>2026-04-18T15:26:49.773Z</time></trkpt><trkpt lat="43.07604" lon="11.677675"><ele>466.8</ele><time>2026-04-18T15:26:50.773Z</time></trkpt><trkpt lat="43.0760217" lon="11.6777917"><ele>468.4</ele><time>2026-04-18T15:26:51.772Z</time></trkpt><trkpt lat="43.076005" lon="11.6779167"><ele>470.0</ele><time>2026-04-18T15:26:52.773Z</time></trkpt><trkpt lat="43.0759883" lon="11.6780433"><ele>471.4</ele><time>2026-04-18T15:26:53.771Z</time></trkpt><trkpt lat="43.075975" lon="11.6781733"><ele>472.8</ele><time>2026-04-18T15:26:54.77Z</time></trkpt><trkpt lat="43.0759583" lon="11.6783017"><ele>474.20000000000005</ele><time>2026-04-18T15:26:55.772Z</time></trkpt><trkpt lat="43.0759533" lon="11.6784333"><ele>475.6</ele><time>2026-04-18T15:26:56.771Z</time></trkpt><trkpt lat="43.0759467" lon="11.6785683"><ele>477.0</ele><time>2026-04-18T15:26:57.772Z</time></trkpt><trkpt lat="43.0759517" lon="11.6786933"><ele>477.3333333333333</ele><time>2026-04-18T15:26:58.77Z</time></trkpt><trkpt lat="43.0759567" lon="11.67881"><ele>477.66666666666663</ele><time>2026-04-18T15:26:59.772Z</time></trkpt><trkpt lat="43.0759617" lon="11.6789133"><ele>478.0</ele><time>2026-04-18T15:27:00.77Z</time></trkpt><trkpt lat="43.0759683" lon="11.6790083"><ele>478.3333333333333</ele><time>2026-04-18T15:27:01.771Z</time></trkpt><trkpt lat="43.0760017" lon="11.6791767"><ele>478.66666666666663</ele><time>2026-04-18T15:27:03.771Z</time></trkpt><trkpt lat="43.07602" lon="11.6792683"><ele>479.0</ele><time>2026-04-18T15:27:04.766Z</time></trkpt><trkpt lat="43.0760383" lon="11.6793567"><ele>478.79999999999995</ele><time>2026-04-18T15:27:05.774Z</time></trkpt><trkpt lat="43.0760533" lon="11.679445"><ele>478.59999999999997</ele><time>2026-04-18T15:27:06.774Z</time></trkpt><trkpt lat="43.076065" lon="11.6795317"><ele>478.4</ele><time>2026-04-18T15:27:07.773Z</time></trkpt><trkpt lat="43.0760717" lon="11.6796717"><ele>478.2</ele><time>2026-04-18T15:27:09.771Z</time></trkpt><trkpt lat="43.0760717" lon="11.6798183"><ele>478.0</ele><time>2026-04-18T15:27:11.77Z</time></trkpt><trkpt lat="43.076055" lon="11.6799883"><ele>478.0</ele><time>2026-04-18T15:27:13.773Z</time></trkpt><trkpt lat="43.0760467" lon="11.680135"><ele>477.99999999999994</ele><time>2026-04-18T15:27:15.771Z</time></trkpt><trkpt lat="43.0760233" lon="11.6802733"><ele>477.99999999999994</ele><time>2026-04-18T15:27:17.77Z</time></trkpt><trkpt lat="43.076" lon="11.680395"><ele>478.0</ele><time>2026-04-18T15:27:19.772Z</time></trkpt><trkpt lat="43.0759733" lon="11.6805417"><ele>478.0</ele><time>2026-04-18T15:27:21.773Z</time></trkpt><trkpt lat="43.0759667" lon="11.6806317"><ele>478.00000000000006</ele><time>2026-04-18T15:27:22.771Z</time></trkpt><trkpt lat="43.0759667" lon="11.6807383"><ele>478.0</ele><time>2026-04-18T15:27:23.772Z</time></trkpt><trkpt lat="43.0759767" lon="11.6808517"><ele>478.0</ele><time>2026-04-18T15:27:24.77Z</time></trkpt><trkpt lat="43.075995" lon="11.6809667"><ele>478.0</ele><time>2026-04-18T15:27:25.774Z</time></trkpt><trkpt lat="43.076015" lon="11.6810717"><ele>478.00000000000006</ele><time>2026-04-18T15:27:26.773Z</time></trkpt><trkpt lat="43.07603" lon="11.6811567"><ele>478.0</ele><time>2026-04-18T15:27:27.772Z</time></trkpt><trkpt lat="43.076055" lon="11.6812683"><ele>477.0</ele><time>2026-04-18T15:27:29.772Z</time></trkpt><trkpt lat="43.0760833" lon="11.6813617"><ele>475.99999999999994</ele><time>2026-04-18T15:27:31.771Z</time></trkpt><trkpt lat="43.0761117" lon="11.68147"><ele>474.99999999999994</ele><time>2026-04-18T15:27:33.77Z</time></trkpt><trkpt lat="43.07615" lon="11.6815883"><ele>474.0</ele><time>2026-04-18T15:27:35.771Z</time></trkpt><trkpt lat="43.0762" lon="11.6816983"><ele>473.0</ele><time>2026-04-18T15:27:37.772Z</time></trkpt><trkpt lat="43.076275" lon="11.6817967"><ele>473.0</ele><time>2026-04-18T15:27:39.771Z</time></trkpt><trkpt lat="43.0763717" lon="11.6818467"><ele>472.99999999999994</ele><time>2026-04-18T15:27:41.772Z</time></trkpt><trkpt lat="43.0764833" lon="11.6818617"><ele>472.99999999999994</ele><time>2026-04-18T15:27:43.771Z</time></trkpt><trkpt lat="43.07659" lon="11.6818567"><ele>473.0</ele><time>2026-04-18T15:27:45.771Z</time></trkpt><trkpt lat="43.076705" lon="11.6818433"><ele>473.0</ele><time>2026-04-18T15:27:47.772Z</time></trkpt><trkpt lat="43.0768217" lon="11.6818183"><ele>475.0</ele><time>2026-04-18T15:27:49.767Z</time></trkpt><trkpt lat="43.0769417" lon="11.68177"><ele>476.99999999999994</ele><time>2026-04-18T15:27:51.772Z</time></trkpt><trkpt lat="43.0770067" lon="11.6817267"><ele>478.99999999999994</ele><time>2026-04-18T15:27:52.769Z</time></trkpt><trkpt lat="43.0770717" lon="11.6816"><ele>481.0</ele><time>2026-04-18T15:27:54.771Z</time></trkpt><trkpt lat="43.0770783" lon="11.6814583"><ele>483.0</ele><time>2026-04-18T15:27:56.774Z</time></trkpt><trkpt lat="43.077095" lon="11.6813517"><ele>483.0</ele><time>2026-04-18T15:27:58.766Z</time></trkpt><trkpt lat="43.07711" lon="11.6812517"><ele>483.0</ele><time>2026-04-18T15:28:00.77Z</time></trkpt><trkpt lat="43.0771233" lon="11.6811517"><ele>483.0</ele><time>2026-04-18T15:28:02.773Z</time></trkpt><trkpt lat="43.0771467" lon="11.68104"><ele>483.0</ele><time>2026-04-18T15:28:05.77Z</time></trkpt><trkpt lat="43.0771633" lon="11.6809533"><ele>483.0</ele><time>2026-04-18T15:28:08.775Z</time></trkpt><trkpt lat="43.07718" lon="11.6808683"><ele>483.0</ele><time>2026-04-18T15:28:10.77Z</time></trkpt><trkpt lat="43.0771933" lon="11.680765"><ele>483.0</ele><time>2026-04-18T15:28:13.77Z</time></trkpt><trkpt lat="43.077225" lon="11.68065"><ele>485.0</ele><time>2026-04-18T15:28:16.769Z</time></trkpt><trkpt lat="43.07724" lon="11.6805283"><ele>486.99999999999994</ele><time>2026-04-18T15:28:19.771Z</time></trkpt><trkpt lat="43.07726" lon="11.6804067"><ele>488.99999999999994</ele><time>2026-04-18T15:28:21.767Z</time></trkpt><trkpt lat="43.0772967" lon="11.6802433"><ele>491.0</ele><time>2026-04-18T15:28:23.771Z</time></trkpt><trkpt lat="43.0773217" lon="11.68015"><ele>493.0</ele><time>2026-04-18T15:28:24.771Z</time></trkpt><trkpt lat="43.077345" lon="11.6800583"><ele>493.50000000000006</ele><time>2026-04-18T15:28:25.771Z</time></trkpt><trkpt lat="43.0773667" lon="11.6799667"><ele>494.0</ele><time>2026-04-18T15:28:26.759Z</time></trkpt><trkpt lat="43.0773933" lon="11.679875"><ele>494.5</ele><time>2026-04-18T15:28:27.76Z</time></trkpt><trkpt lat="43.07742" lon="11.6797867"><ele>495.0</ele><time>2026-04-18T15:28:28.768Z</time></trkpt><trkpt lat="43.077445" lon="11.6797067"><ele>495.50000000000006</ele><time>2026-04-18T15:28:29.772Z</time></trkpt><trkpt lat="43.0774833" lon="11.6795483"><ele>496.0</ele><time>2026-04-18T15:28:31.771Z</time></trkpt><trkpt lat="43.0775" lon="11.6794633"><ele>495.1666666666667</ele><time>2026-04-18T15:28:32.771Z</time></trkpt><trkpt lat="43.077515" lon="11.6793783"><ele>494.33333333333337</ele><time>2026-04-18T15:28:33.769Z</time></trkpt><trkpt lat="43.0775233" lon="11.6792917"><ele>493.5</ele><time>2026-04-18T15:28:34.77Z</time></trkpt><trkpt lat="43.0775283" lon="11.679205"><ele>492.66666666666663</ele><time>2026-04-18T15:28:35.77Z</time></trkpt><trkpt lat="43.07753" lon="11.6790383"><ele>491.8333333333333</ele><time>2026-04-18T15:28:37.771Z</time></trkpt><trkpt lat="43.0775483" lon="11.6788933"><ele>491.0</ele><time>2026-04-18T15:28:39.772Z</time></trkpt><trkpt lat="43.077615" lon="11.678805"><ele>491.0</ele><time>2026-04-18T15:28:41.769Z</time></trkpt><trkpt lat="43.0777133" lon="11.6787917"><ele>491.0</ele><time>2026-04-18T15:28:43.771Z</time></trkpt><trkpt lat="43.0778033" lon="11.67875"><ele>491.0</ele><time>2026-04-18T15:28:45.771Z</time></trkpt><trkpt lat="43.0778967" lon="11.6786533"><ele>491.0</ele><time>2026-04-18T15:28:47.772Z</time></trkpt><trkpt lat="43.0779483" lon="11.67852"><ele>491.0</ele><time>2026-04-18T15:28:49.77Z</time></trkpt><trkpt lat="43.0779883" lon="11.6783917"><ele>490.99999999999994</ele><time>2026-04-18T15:28:51.771Z</time></trkpt><trkpt lat="43.0780217" lon="11.6782583"><ele>491.0</ele><time>2026-04-18T15:28:53.771Z</time></trkpt><trkpt lat="43.0780517" lon="11.6781567"><ele>491.0</ele><time>2026-04-18T15:28:55.771Z</time></trkpt><trkpt lat="43.0780883" lon="11.67808"><ele>491.0</ele><time>2026-04-18T15:28:57.77Z</time></trkpt><trkpt lat="43.0781333" lon="11.678"><ele>490.99999999999994</ele><time>2026-04-18T15:29:00.769Z</time></trkpt><trkpt lat="43.078125" lon="11.6778883"><ele>491.0</ele><time>2026-04-18T15:29:04.766Z</time></trkpt><trkpt lat="43.0780533" lon="11.6778117"><ele>490.8</ele><time>2026-04-18T15:29:06.77Z</time></trkpt><trkpt lat="43.0779483" lon="11.6777283"><ele>490.6</ele><time>2026-04-18T15:29:08.772Z</time></trkpt><trkpt lat="43.0778683" lon="11.6776433"><ele>490.4</ele><time>2026-04-18T15:29:10.77Z</time></trkpt><trkpt lat="43.0778033" lon="11.6775917"><ele>490.2</ele><time>2026-04-18T15:29:12.76Z</time></trkpt><trkpt lat="43.0777267" lon="11.6775433"><ele>490.0</ele><time>2026-04-18T15:29:15.769Z</time></trkpt><trkpt lat="43.0776783" lon="11.6774767"><ele>490.0</ele><time>2026-04-18T15:29:17.772Z</time></trkpt><trkpt lat="43.077665" lon="11.677325"><ele>490.0</ele><time>2026-04-18T15:29:19.768Z</time></trkpt><trkpt lat="43.0776783" lon="11.6772217"><ele>490.0</ele><time>2026-04-18T15:29:20.77Z</time></trkpt><trkpt lat="43.077695" lon="11.6771267"><ele>490.0</ele><time>2026-04-18T15:29:21.77Z</time></trkpt><trkpt lat="43.07772" lon="11.67698"><ele>490.0</ele><time>2026-04-18T15:29:23.77Z</time></trkpt><trkpt lat="43.0777633" lon="11.67687"><ele>489.83333333333337</ele><time>2026-04-18T15:29:25.761Z</time></trkpt><trkpt lat="43.0778267" lon="11.67672"><ele>489.6666666666667</ele><time>2026-04-18T15:29:27.77Z</time></trkpt><trkpt lat="43.0778717" lon="11.6766483"><ele>489.5</ele><time>2026-04-18T15:29:28.763Z</time></trkpt><trkpt lat="43.077915" lon="11.6765717"><ele>489.33333333333337</ele><time>2026-04-18T15:29:29.772Z</time></trkpt><trkpt lat="43.07796" lon="11.67649"><ele>489.1666666666667</ele><time>2026-04-18T15:29:30.772Z</time></trkpt><trkpt lat="43.0780067" lon="11.67642"><ele>489.0</ele><time>2026-04-18T15:29:31.77Z</time></trkpt><trkpt lat="43.0780533" lon="11.6763183"><ele>489.0</ele><time>2026-04-18T15:29:33.771Z</time></trkpt><trkpt lat="43.07812" lon="11.67623"><ele>489.0</ele><time>2026-04-18T15:29:36.769Z</time></trkpt><trkpt lat="43.07817" lon="11.67613"><ele>489.0</ele><time>2026-04-18T15:29:39.772Z</time></trkpt><trkpt lat="43.0782383" lon="11.6760283"><ele>489.0</ele><time>2026-04-18T15:29:41.77Z</time></trkpt><trkpt lat="43.0783133" lon="11.6759"><ele>489.0</ele><time>2026-04-18T15:29:43.772Z</time></trkpt><trkpt lat="43.078375" lon="11.67579"><ele>489.0</ele><time>2026-04-18T15:29:45.772Z</time></trkpt><trkpt lat="43.078435" lon="11.6756867"><ele>489.0</ele><time>2026-04-18T15:29:47.771Z</time></trkpt><trkpt lat="43.07852" lon="11.6755733"><ele>489.0</ele><time>2026-04-18T15:29:49.771Z</time></trkpt><trkpt lat="43.078575" lon="11.675495"><ele>489.0</ele><time>2026-04-18T15:29:50.772Z</time></trkpt><trkpt lat="43.078635" lon="11.6754067"><ele>489.0</ele><time>2026-04-18T15:29:51.77Z</time></trkpt><trkpt lat="43.0786967" lon="11.67531"><ele>488.79999999999995</ele><time>2026-04-18T15:29:52.772Z</time></trkpt><trkpt lat="43.07877" lon="11.6752033"><ele>488.59999999999997</ele><time>2026-04-18T15:29:53.771Z</time></trkpt><trkpt lat="43.0788467" lon="11.675095"><ele>488.4</ele><time>2026-04-18T15:29:54.774Z</time></trkpt><trkpt lat="43.0789183" lon="11.6749867"><ele>488.2</ele><time>2026-04-18T15:29:55.771Z</time></trkpt><trkpt lat="43.078985" lon="11.6748833"><ele>488.0</ele><time>2026-04-18T15:29:56.771Z</time></trkpt><trkpt lat="43.0790417" lon="11.6747867"><ele>488.0</ele><time>2026-04-18T15:29:57.771Z</time></trkpt><trkpt lat="43.0790967" lon="11.6746833"><ele>487.99999999999994</ele><time>2026-04-18T15:29:58.769Z</time></trkpt><trkpt lat="43.0791533" lon="11.6745867"><ele>487.99999999999994</ele><time>2026-04-18T15:29:59.769Z</time></trkpt><trkpt lat="43.079205" lon="11.6744833"><ele>488.0</ele><time>2026-04-18T15:30:00.769Z</time></trkpt><trkpt lat="43.0792567" lon="11.6743833"><ele>488.0</ele><time>2026-04-18T15:30:01.77Z</time></trkpt><trkpt lat="43.0793117" lon="11.6742867"><ele>487.66666666666663</ele><time>2026-04-18T15:30:02.773Z</time></trkpt><trkpt lat="43.0793733" lon="11.67419"><ele>487.3333333333333</ele><time>2026-04-18T15:30:03.769Z</time></trkpt><trkpt lat="43.079425" lon="11.674095"><ele>487.0</ele><time>2026-04-18T15:30:04.769Z</time></trkpt><trkpt lat="43.0794733" lon="11.6739933"><ele>486.66666666666663</ele><time>2026-04-18T15:30:05.771Z</time></trkpt><trkpt lat="43.0795183" lon="11.6738933"><ele>486.3333333333333</ele><time>2026-04-18T15:30:06.771Z</time></trkpt><trkpt lat="43.079565" lon="11.6737867"><ele>486.0</ele><time>2026-04-18T15:30:07.77Z</time></trkpt><trkpt lat="43.0796133" lon="11.6736817"><ele>486.0</ele><time>2026-04-18T15:30:08.768Z</time></trkpt><trkpt lat="43.0796667" lon="11.67358"><ele>486.0</ele><time>2026-04-18T15:30:09.769Z</time></trkpt><trkpt lat="43.0797217" lon="11.6734817"><ele>486.0</ele><time>2026-04-18T15:30:10.768Z</time></trkpt><trkpt lat="43.07978" lon="11.6733933"><ele>486.0</ele><time>2026-04-18T15:30:11.77Z</time></trkpt><trkpt lat="43.0798483" lon="11.673305"><ele>486.0</ele><time>2026-04-18T15:30:12.771Z</time></trkpt><trkpt lat="43.0799167" lon="11.6732167"><ele>485.5</ele><time>2026-04-18T15:30:13.767Z</time></trkpt><trkpt lat="43.0799783" lon="11.67312"><ele>485.0</ele><time>2026-04-18T15:30:14.771Z</time></trkpt><trkpt lat="43.080035" lon="11.6730317"><ele>484.5</ele><time>2026-04-18T15:30:15.773Z</time></trkpt><trkpt lat="43.0800983" lon="11.6729433"><ele>484.0</ele><time>2026-04-18T15:30:16.769Z</time></trkpt><trkpt lat="43.0801533" lon="11.6728533"><ele>483.5</ele><time>2026-04-18T15:30:17.77Z</time></trkpt><trkpt lat="43.0802067" lon="11.6727717"><ele>483.0</ele><time>2026-04-18T15:30:18.769Z</time></trkpt><trkpt lat="43.0802617" lon="11.6727"><ele>483.0</ele><time>2026-04-18T15:30:19.769Z</time></trkpt><trkpt lat="43.0803167" lon="11.6726233"><ele>482.99999999999994</ele><time>2026-04-18T15:30:20.771Z</time></trkpt><trkpt lat="43.080375" lon="11.67254"><ele>482.99999999999994</ele><time>2026-04-18T15:30:21.77Z</time></trkpt><trkpt lat="43.0804467" lon="11.6724483"><ele>483.0</ele><time>2026-04-18T15:30:22.771Z</time></trkpt><trkpt lat="43.0805217" lon="11.6723567"><ele>483.0</ele><time>2026-04-18T15:30:23.77Z</time></trkpt><trkpt lat="43.0805983" lon="11.6722567"><ele>483.0</ele><time>2026-04-18T15:30:24.77Z</time></trkpt><trkpt lat="43.0806767" lon="11.67216"><ele>482.99999999999994</ele><time>2026-04-18T15:30:25.77Z</time></trkpt><trkpt lat="43.0807517" lon="11.67207"><ele>482.99999999999994</ele><time>2026-04-18T15:30:26.773Z</time></trkpt><trkpt lat="43.08082" lon="11.671985"><ele>483.0</ele><time>2026-04-18T15:30:27.768Z</time></trkpt><trkpt lat="43.0808917" lon="11.6719"><ele>483.0</ele><time>2026-04-18T15:30:28.766Z</time></trkpt><trkpt lat="43.08097" lon="11.67182"><ele>482.59999999999997</ele><time>2026-04-18T15:30:29.768Z</time></trkpt><trkpt lat="43.0810533" lon="11.67175"><ele>482.19999999999993</ele><time>2026-04-18T15:30:30.769Z</time></trkpt><trkpt lat="43.0811383" lon="11.6716867"><ele>481.8</ele><time>2026-04-18T15:30:31.769Z</time></trkpt><trkpt lat="43.0812217" lon="11.671635"><ele>481.4</ele><time>2026-04-18T15:30:32.77Z</time></trkpt><trkpt lat="43.08131" lon="11.671595"><ele>481.0</ele><time>2026-04-18T15:30:33.77Z</time></trkpt><trkpt lat="43.0814017" lon="11.671565"><ele>481.00000000000006</ele><time>2026-04-18T15:30:34.767Z</time></trkpt><trkpt lat="43.0814917" lon="11.6715367"><ele>481.0</ele><time>2026-04-18T15:30:35.772Z</time></trkpt><trkpt lat="43.081575" lon="11.6715117"><ele>481.0</ele><time>2026-04-18T15:30:36.772Z</time></trkpt><trkpt lat="43.0816567" lon="11.67149"><ele>481.0</ele><time>2026-04-18T15:30:37.771Z</time></trkpt><trkpt lat="43.0817367" lon="11.67147"><ele>481.00000000000006</ele><time>2026-04-18T15:30:38.773Z</time></trkpt><trkpt lat="43.0818183" lon="11.67145"><ele>481.0</ele><time>2026-04-18T15:30:39.769Z</time></trkpt><trkpt lat="43.0819" lon="11.67143"><ele>480.33333333333337</ele><time>2026-04-18T15:30:40.764Z</time></trkpt><trkpt lat="43.08198" lon="11.671405"><ele>479.6666666666667</ele><time>2026-04-18T15:30:41.772Z</time></trkpt><trkpt lat="43.0820633" lon="11.6713783"><ele>479.0</ele><time>2026-04-18T15:30:42.77Z</time></trkpt><trkpt lat="43.0821483" lon="11.671355"><ele>478.33333333333337</ele><time>2026-04-18T15:30:43.771Z</time></trkpt><trkpt lat="43.0822333" lon="11.67134"><ele>477.6666666666667</ele><time>2026-04-18T15:30:44.773Z</time></trkpt><trkpt lat="43.0823167" lon="11.6713433"><ele>477.0</ele><time>2026-04-18T15:30:45.773Z</time></trkpt><trkpt lat="43.0823917" lon="11.6713483"><ele>476.8333333333333</ele><time>2026-04-18T15:30:46.77Z</time></trkpt><trkpt lat="43.0824633" lon="11.6713417"><ele>476.66666666666663</ele><time>2026-04-18T15:30:47.772Z</time></trkpt><trkpt lat="43.0825333" lon="11.6713067"><ele>476.5</ele><time>2026-04-18T15:30:48.772Z</time></trkpt><trkpt lat="43.082595" lon="11.67124"><ele>476.3333333333333</ele><time>2026-04-18T15:30:49.772Z</time></trkpt><trkpt lat="43.0826317" lon="11.6711467"><ele>476.16666666666663</ele><time>2026-04-18T15:30:50.773Z</time></trkpt><trkpt lat="43.0826433" lon="11.6710317"><ele>476.0</ele><time>2026-04-18T15:30:51.77Z</time></trkpt><trkpt lat="43.0826517" lon="11.6708967"><ele>476.0</ele><time>2026-04-18T15:30:52.774Z</time></trkpt><trkpt lat="43.0826867" lon="11.6707517"><ele>476.0</ele><time>2026-04-18T15:30:53.771Z</time></trkpt><trkpt lat="43.08274" lon="11.67059"><ele>476.0</ele><time>2026-04-18T15:30:54.77Z</time></trkpt><trkpt lat="43.0828183" lon="11.6703867"><ele>476.0</ele><time>2026-04-18T15:30:55.772Z</time></trkpt><trkpt lat="43.0829117" lon="11.6701683"><ele>475.66666666666663</ele><time>2026-04-18T15:30:56.77Z</time></trkpt><trkpt lat="43.0830083" lon="11.66994"><ele>475.33333333333337</ele><time>2026-04-18T15:30:57.768Z</time></trkpt><trkpt lat="43.0831" lon="11.6696983"><ele>475.0</ele><time>2026-04-18T15:30:58.764Z</time></trkpt><trkpt lat="43.083195" lon="11.6694517"><ele>473.0</ele><time>2026-04-18T15:30:59.769Z</time></trkpt><trkpt lat="43.0832817" lon="11.669215"><ele>471.0</ele><time>2026-04-18T15:31:00.771Z</time></trkpt><trkpt lat="43.0833633" lon="11.6689833"><ele>469.0</ele><time>2026-04-18T15:31:01.771Z</time></trkpt><trkpt lat="43.08344" lon="11.6687717"><ele>468.6666666666667</ele><time>2026-04-18T15:31:02.771Z</time></trkpt><trkpt lat="43.0835183" lon="11.6685533"><ele>468.33333333333337</ele><time>2026-04-18T15:31:03.771Z</time></trkpt><trkpt lat="43.0835933" lon="11.668325"><ele>468.0</ele><time>2026-04-18T15:31:04.769Z</time></trkpt><trkpt lat="43.0836633" lon="11.6680833"><ele>468.0</ele><time>2026-04-18T15:31:05.772Z</time></trkpt><trkpt lat="43.0837367" lon="11.6678367"><ele>468.0</ele><time>2026-04-18T15:31:06.766Z</time></trkpt><trkpt lat="43.0838133" lon="11.6675967"><ele>468.0</ele><time>2026-04-18T15:31:07.771Z</time></trkpt><trkpt lat="43.08389" lon="11.6673583"><ele>468.0</ele><time>2026-04-18T15:31:08.769Z</time></trkpt><trkpt lat="43.0839617" lon="11.6671267"><ele>468.0</ele><time>2026-04-18T15:31:09.77Z</time></trkpt><trkpt lat="43.084035" lon="11.6669017"><ele>468.0</ele><time>2026-04-18T15:31:10.765Z</time></trkpt><trkpt lat="43.084115" lon="11.6666933"><ele>466.33333333333337</ele><time>2026-04-18T15:31:11.769Z</time></trkpt><trkpt lat="43.0842083" lon="11.6664817"><ele>464.6666666666667</ele><time>2026-04-18T15:31:12.771Z</time></trkpt><trkpt lat="43.084305" lon="11.6662817"><ele>463.0</ele><time>2026-04-18T15:31:13.77Z</time></trkpt><trkpt lat="43.0844" lon="11.6661017"><ele>462.75</ele><time>2026-04-18T15:31:14.771Z</time></trkpt><trkpt lat="43.0844917" lon="11.6659217"><ele>462.5</ele><time>2026-04-18T15:31:15.772Z</time></trkpt><trkpt lat="43.08457" lon="11.6657483"><ele>462.25</ele><time>2026-04-18T15:31:16.771Z</time></trkpt><trkpt lat="43.0846467" lon="11.6655917"><ele>462.0</ele><time>2026-04-18T15:31:17.77Z</time></trkpt><trkpt lat="43.0847217" lon="11.6654433"><ele>462.0</ele><time>2026-04-18T15:31:18.771Z</time></trkpt><trkpt lat="43.0847933" lon="11.6652967"><ele>462.0</ele><time>2026-04-18T15:31:19.771Z</time></trkpt><trkpt lat="43.0848683" lon="11.66514"><ele>462.0</ele><time>2026-04-18T15:31:20.771Z</time></trkpt><trkpt lat="43.084945" lon="11.6649783"><ele>462.0</ele><time>2026-04-18T15:31:21.772Z</time></trkpt><trkpt lat="43.0850217" lon="11.6648183"><ele>460.66666666666663</ele><time>2026-04-18T15:31:22.769Z</time></trkpt><trkpt lat="43.08509" lon="11.664635"><ele>459.3333333333333</ele><time>2026-04-18T15:31:23.77Z</time></trkpt><trkpt lat="43.0851533" lon="11.664415"><ele>458.0</ele><time>2026-04-18T15:31:24.771Z</time></trkpt><trkpt lat="43.0852183" lon="11.6641683"><ele>458.0</ele><time>2026-04-18T15:31:25.768Z</time></trkpt><trkpt lat="43.0852883" lon="11.6638917"><ele>458.0</ele><time>2026-04-18T15:31:26.774Z</time></trkpt><trkpt lat="43.085365" lon="11.6635883"><ele>458.0</ele><time>2026-04-18T15:31:27.769Z</time></trkpt><trkpt lat="43.0854383" lon="11.66327"><ele>457.0</ele><time>2026-04-18T15:31:28.765Z</time></trkpt><trkpt lat="43.0855183" lon="11.66294"><ele>456.0</ele><time>2026-04-18T15:31:29.769Z</time></trkpt><trkpt lat="43.0856133" lon="11.66261"><ele>454.0</ele><time>2026-04-18T15:31:30.77Z</time></trkpt><trkpt lat="43.0857267" lon="11.6622783"><ele>452.0</ele><time>2026-04-18T15:31:31.77Z</time></trkpt><trkpt lat="43.0858517" lon="11.6619333"><ele>450.0</ele><time>2026-04-18T15:31:32.771Z</time></trkpt><trkpt lat="43.0859783" lon="11.66158"><ele>448.0</ele><time>2026-04-18T15:31:33.765Z</time></trkpt><trkpt lat="43.086105" lon="11.6612383"><ele>445.0</ele><time>2026-04-18T15:31:34.764Z</time></trkpt><trkpt lat="43.08623" lon="11.6609217"><ele>442.0</ele><time>2026-04-18T15:31:35.769Z</time></trkpt><trkpt lat="43.0863483" lon="11.6606367"><ele>442.0</ele><time>2026-04-18T15:31:36.771Z</time></trkpt><trkpt lat="43.0864517" lon="11.6603933"><ele>442.0</ele><time>2026-04-18T15:31:37.77Z</time></trkpt><trkpt lat="43.0865517" lon="11.6601867"><ele>442.0</ele><time>2026-04-18T15:31:38.769Z</time></trkpt><trkpt lat="43.0866583" lon="11.6600233"><ele>441.0</ele><time>2026-04-18T15:31:39.772Z</time></trkpt><trkpt lat="43.086785" lon="11.6598983"><ele>440.0</ele><time>2026-04-18T15:31:40.77Z</time></trkpt><trkpt lat="43.0869317" lon="11.6598233"><ele>439.0</ele><time>2026-04-18T15:31:41.772Z</time></trkpt><trkpt lat="43.0871117" lon="11.6598183"><ele>439.0</ele><time>2026-04-18T15:31:42.77Z</time></trkpt><trkpt lat="43.087335" lon="11.6598617"><ele>439.0</ele><time>2026-04-18T15:31:43.769Z</time></trkpt><trkpt lat="43.08756" lon="11.6599017"><ele>438.33333333333337</ele><time>2026-04-18T15:31:44.772Z</time></trkpt><trkpt lat="43.08778" lon="11.65994"><ele>437.66666666666663</ele><time>2026-04-18T15:31:45.773Z</time></trkpt><trkpt lat="43.08798" lon="11.6599783"><ele>437.0</ele><time>2026-04-18T15:31:46.772Z</time></trkpt><trkpt lat="43.0881617" lon="11.6599933"><ele>435.66666666666663</ele><time>2026-04-18T15:31:47.772Z</time></trkpt><trkpt lat="43.0883217" lon="11.6599733"><ele>434.33333333333337</ele><time>2026-04-18T15:31:48.769Z</time></trkpt><trkpt lat="43.08845" lon="11.6598867"><ele>433.0</ele><time>2026-04-18T15:31:49.77Z</time></trkpt><trkpt lat="43.0885617" lon="11.6597533"><ele>433.0</ele><time>2026-04-18T15:31:50.773Z</time></trkpt><trkpt lat="43.0886267" lon="11.6595617"><ele>433.0</ele><time>2026-04-18T15:31:51.77Z</time></trkpt><trkpt lat="43.08865" lon="11.6593583"><ele>433.0</ele><time>2026-04-18T15:31:52.77Z</time></trkpt><trkpt lat="43.0886267" lon="11.6591467"><ele>431.33333333333337</ele><time>2026-04-18T15:31:53.771Z</time></trkpt><trkpt lat="43.0885633" lon="11.6589217"><ele>429.66666666666663</ele><time>2026-04-18T15:31:54.767Z</time></trkpt><trkpt lat="43.088525" lon="11.658695"><ele>428.0</ele><time>2026-04-18T15:31:55.769Z</time></trkpt><trkpt lat="43.0885333" lon="11.65848"><ele>426.66666666666663</ele><time>2026-04-18T15:31:56.771Z</time></trkpt><trkpt lat="43.0886067" lon="11.6582917"><ele>425.33333333333337</ele><time>2026-04-18T15:31:57.77Z</time></trkpt><trkpt lat="43.0887433" lon="11.6581133"><ele>424.0</ele><time>2026-04-18T15:31:58.767Z</time></trkpt><trkpt lat="43.0889133" lon="11.65791"><ele>422.33333333333337</ele><time>2026-04-18T15:31:59.766Z</time></trkpt><trkpt lat="43.089075" lon="11.6577"><ele>420.66666666666663</ele><time>2026-04-18T15:32:00.772Z</time></trkpt><trkpt lat="43.089235" lon="11.65751"><ele>419.0</ele><time>2026-04-18T15:32:01.772Z</time></trkpt><trkpt lat="43.089395" lon="11.657335"><ele>419.0</ele><time>2026-04-18T15:32:02.77Z</time></trkpt><trkpt lat="43.08957" lon="11.6571933"><ele>419.0</ele><time>2026-04-18T15:32:03.77Z</time></trkpt><trkpt lat="43.0897667" lon="11.6571"><ele>419.0</ele><time>2026-04-18T15:32:04.769Z</time></trkpt><trkpt lat="43.0899467" lon="11.6570283"><ele>418.3333333333333</ele><time>2026-04-18T15:32:05.771Z</time></trkpt><trkpt lat="43.0900967" lon="11.6569283"><ele>417.66666666666663</ele><time>2026-04-18T15:32:06.772Z</time></trkpt><trkpt lat="43.0902333" lon="11.6567783"><ele>417.0</ele><time>2026-04-18T15:32:07.771Z</time></trkpt><trkpt lat="43.090335" lon="11.65658"><ele>417.0</ele><time>2026-04-18T15:32:08.772Z</time></trkpt><trkpt lat="43.09041" lon="11.65636"><ele>417.0</ele><time>2026-04-18T15:32:09.768Z</time></trkpt><trkpt lat="43.0904" lon="11.6561183"><ele>417.0</ele><time>2026-04-18T15:32:10.767Z</time></trkpt><trkpt lat="43.0903717" lon="11.655855"><ele>415.66666666666663</ele><time>2026-04-18T15:32:11.769Z</time></trkpt><trkpt lat="43.090375" lon="11.6555967"><ele>414.3333333333333</ele><time>2026-04-18T15:32:12.773Z</time></trkpt><trkpt lat="43.0904067" lon="11.6553433"><ele>413.0</ele><time>2026-04-18T15:32:13.769Z</time></trkpt><trkpt lat="43.0904767" lon="11.6551267"><ele>413.0</ele><time>2026-04-18T15:32:14.772Z</time></trkpt><trkpt lat="43.0905817" lon="11.6549233"><ele>413.0</ele><time>2026-04-18T15:32:15.768Z</time></trkpt><trkpt lat="43.0907267" lon="11.6547483"><ele>413.0</ele><time>2026-04-18T15:32:16.766Z</time></trkpt><trkpt lat="43.0909083" lon="11.6545933"><ele>408.5</ele><time>2026-04-18T15:32:17.76Z</time></trkpt><trkpt lat="43.0911067" lon="11.6544383"><ele>404.0</ele><time>2026-04-18T15:32:18.772Z</time></trkpt><trkpt lat="43.0913" lon="11.6542833"><ele>404.0</ele><time>2026-04-18T15:32:19.766Z</time></trkpt><trkpt lat="43.09148" lon="11.6541433"><ele>404.0</ele><time>2026-04-18T15:32:20.769Z</time></trkpt><trkpt lat="43.0916667" lon="11.6540467"><ele>404.0</ele><time>2026-04-18T15:32:21.767Z</time></trkpt><trkpt lat="43.09186" lon="11.65399"><ele>404.0</ele><time>2026-04-18T15:32:22.765Z</time></trkpt><trkpt lat="43.0920617" lon="11.6540133"><ele>404.0</ele><time>2026-04-18T15:32:23.766Z</time></trkpt><trkpt lat="43.0922617" lon="11.6540867"><ele>404.0</ele><time>2026-04-18T15:32:24.77Z</time></trkpt><trkpt lat="43.0924333" lon="11.654225"><ele>404.0</ele><time>2026-04-18T15:32:25.767Z</time></trkpt><trkpt lat="43.0925883" lon="11.654305"><ele>404.0</ele><time>2026-04-18T15:32:26.766Z</time></trkpt><trkpt lat="43.0927233" lon="11.65433"><ele>404.0</ele><time>2026-04-18T15:32:27.768Z</time></trkpt><trkpt lat="43.0928367" lon="11.6542883"><ele>404.0</ele><time>2026-04-18T15:32:28.765Z</time></trkpt><trkpt lat="43.0929233" lon="11.6541933"><ele>404.0</ele><time>2026-04-18T15:32:29.768Z</time></trkpt><trkpt lat="43.0929533" lon="11.6540483"><ele>404.0</ele><time>2026-04-18T15:32:30.77Z</time></trkpt><trkpt lat="43.0929217" lon="11.65389"><ele>404.0</ele><time>2026-04-18T15:32:31.766Z</time></trkpt><trkpt lat="43.0928383" lon="11.6537583"><ele>404.0</ele><time>2026-04-18T15:32:32.766Z</time></trkpt><trkpt lat="43.0926833" lon="11.6536883"><ele>404.0</ele><time>2026-04-18T15:32:33.771Z</time></trkpt><trkpt lat="43.0924867" lon="11.65365"><ele>404.0</ele><time>2026-04-18T15:32:34.77Z</time></trkpt><trkpt lat="43.09227" lon="11.6536117"><ele>404.0</ele><time>2026-04-18T15:32:35.768Z</time></trkpt><trkpt lat="43.0920433" lon="11.6535317"><ele>402.0</ele><time>2026-04-18T15:32:36.772Z</time></trkpt><trkpt lat="43.0918217" lon="11.65345"><ele>400.0</ele><time>2026-04-18T15:32:37.765Z</time></trkpt><trkpt lat="43.09161" lon="11.65339"><ele>398.0</ele><time>2026-04-18T15:32:38.771Z</time></trkpt><trkpt lat="43.0913917" lon="11.65338"><ele>396.0</ele><time>2026-04-18T15:32:39.769Z</time></trkpt><trkpt lat="43.0911717" lon="11.6534067"><ele>394.0</ele><time>2026-04-18T15:32:40.767Z</time></trkpt><trkpt lat="43.090955" lon="11.6534383"><ele>392.0</ele><time>2026-04-18T15:32:41.766Z</time></trkpt><trkpt lat="43.0907383" lon="11.6534667"><ele>389.66666666666663</ele><time>2026-04-18T15:32:42.766Z</time></trkpt><trkpt lat="43.0905367" lon="11.6534883"><ele>387.33333333333337</ele><time>2026-04-18T15:32:43.77Z</time></trkpt><trkpt lat="43.0903467" lon="11.65353"><ele>385.0</ele><time>2026-04-18T15:32:44.771Z</time></trkpt><trkpt lat="43.090165" lon="11.6536083"><ele>387.0</ele><time>2026-04-18T15:32:45.769Z</time></trkpt><trkpt lat="43.0899967" lon="11.6537283"><ele>389.0</ele><time>2026-04-18T15:32:46.77Z</time></trkpt><trkpt lat="43.0898267" lon="11.6538417"><ele>391.0</ele><time>2026-04-18T15:32:47.766Z</time></trkpt><trkpt lat="43.089645" lon="11.6539267"><ele>391.0</ele><time>2026-04-18T15:32:48.765Z</time></trkpt><trkpt lat="43.089455" lon="11.653975"><ele>391.0</ele><time>2026-04-18T15:32:49.767Z</time></trkpt><trkpt lat="43.0892733" lon="11.6539667"><ele>391.0</ele><time>2026-04-18T15:32:50.772Z</time></trkpt><trkpt lat="43.0891017" lon="11.6538983"><ele>389.0</ele><time>2026-04-18T15:32:51.768Z</time></trkpt><trkpt lat="43.0889433" lon="11.653795"><ele>387.0</ele><time>2026-04-18T15:32:52.769Z</time></trkpt><trkpt lat="43.0888083" lon="11.6536333"><ele>385.0</ele><time>2026-04-18T15:32:53.772Z</time></trkpt><trkpt lat="43.08874" lon="11.6533883"><ele>384.0</ele><time>2026-04-18T15:32:54.77Z</time></trkpt><trkpt lat="43.0887333" lon="11.6530817"><ele>383.0</ele><time>2026-04-18T15:32:55.772Z</time></trkpt><trkpt lat="43.0887367" lon="11.65279"><ele>382.0</ele><time>2026-04-18T15:32:56.771Z</time></trkpt><trkpt lat="43.0887367" lon="11.6525267"><ele>380.66666666666663</ele><time>2026-04-18T15:32:57.772Z</time></trkpt><trkpt lat="43.0887017" lon="11.6523067"><ele>379.3333333333333</ele><time>2026-04-18T15:32:58.77Z</time></trkpt><trkpt lat="43.0886133" lon="11.6521467"><ele>378.0</ele><time>2026-04-18T15:32:59.77Z</time></trkpt><trkpt lat="43.0884817" lon="11.652035"><ele>378.0</ele><time>2026-04-18T15:33:00.773Z</time></trkpt><trkpt lat="43.0883133" lon="11.651985"><ele>378.0</ele><time>2026-04-18T15:33:01.772Z</time></trkpt><trkpt lat="43.0881167" lon="11.6519983"><ele>378.0</ele><time>2026-04-18T15:33:02.774Z</time></trkpt><trkpt lat="43.0878933" lon="11.65208"><ele>376.0</ele><time>2026-04-18T15:33:03.772Z</time></trkpt><trkpt lat="43.0876833" lon="11.65219"><ele>374.0</ele><time>2026-04-18T15:33:04.769Z</time></trkpt><trkpt lat="43.08747" lon="11.6522983"><ele>371.6666666666667</ele><time>2026-04-18T15:33:05.773Z</time></trkpt><trkpt lat="43.087265" lon="11.65235"><ele>369.3333333333333</ele><time>2026-04-18T15:33:06.77Z</time></trkpt><trkpt lat="43.0870633" lon="11.65234"><ele>367.0</ele><time>2026-04-18T15:33:07.768Z</time></trkpt><trkpt lat="43.0868533" lon="11.6522567"><ele>367.0</ele><time>2026-04-18T15:33:08.774Z</time></trkpt><trkpt lat="43.0866383" lon="11.65211"><ele>367.0</ele><time>2026-04-18T15:33:09.771Z</time></trkpt><trkpt lat="43.0864233" lon="11.6519433"><ele>368.0</ele><time>2026-04-18T15:33:10.773Z</time></trkpt><trkpt lat="43.0862017" lon="11.6517783"><ele>369.0</ele><time>2026-04-18T15:33:11.771Z</time></trkpt><trkpt lat="43.085975" lon="11.6515967"><ele>366.5</ele><time>2026-04-18T15:33:12.772Z</time></trkpt><trkpt lat="43.0857467" lon="11.6513983"><ele>364.0</ele><time>2026-04-18T15:33:13.77Z</time></trkpt><trkpt lat="43.085515" lon="11.6511933"><ele>366.5</ele><time>2026-04-18T15:33:14.774Z</time></trkpt><trkpt lat="43.08528" lon="11.6509833"><ele>369.0</ele><time>2026-04-18T15:33:15.769Z</time></trkpt><trkpt lat="43.0850433" lon="11.65077"><ele>363.0</ele><time>2026-04-18T15:33:16.773Z</time></trkpt><trkpt lat="43.0848117" lon="11.650555"><ele>357.0</ele><time>2026-04-18T15:33:17.77Z</time></trkpt><trkpt lat="43.0845883" lon="11.65033"><ele>361.0</ele><time>2026-04-18T15:33:18.772Z</time></trkpt><trkpt lat="43.0843917" lon="11.6500883"><ele>365.0</ele><time>2026-04-18T15:33:19.773Z</time></trkpt><trkpt lat="43.084215" lon="11.6498283"><ele>364.5</ele><time>2026-04-18T15:33:20.775Z</time></trkpt><trkpt lat="43.08405" lon="11.64956"><ele>364.0</ele><time>2026-04-18T15:33:21.772Z</time></trkpt><trkpt lat="43.0838867" lon="11.649275"><ele>364.0</ele><time>2026-04-18T15:33:22.772Z</time></trkpt><trkpt lat="43.08372" lon="11.6489817"><ele>364.0</ele><time>2026-04-18T15:33:23.77Z</time></trkpt><trkpt lat="43.083545" lon="11.6486833"><ele>363.5</ele><time>2026-04-18T15:33:24.773Z</time></trkpt><trkpt lat="43.08336" lon="11.6483883"><ele>363.0</ele><time>2026-04-18T15:33:25.772Z</time></trkpt><trkpt lat="43.0831717" lon="11.6480867"><ele>367.0</ele><time>2026-04-18T15:33:26.773Z</time></trkpt><trkpt lat="43.0829917" lon="11.6477717"><ele>371.0</ele><time>2026-04-18T15:33:27.772Z</time></trkpt><trkpt lat="43.082815" lon="11.647455"><ele>371.0</ele><time>2026-04-18T15:33:28.772Z</time></trkpt><trkpt lat="43.0826367" lon="11.6471433"><ele>371.0</ele><time>2026-04-18T15:33:29.761Z</time></trkpt><trkpt lat="43.0824667" lon="11.64684"><ele>369.5</ele><time>2026-04-18T15:33:30.762Z</time></trkpt><trkpt lat="43.082305" lon="11.6465617"><ele>368.0</ele><time>2026-04-18T15:33:31.771Z</time></trkpt><trkpt lat="43.0821567" lon="11.6463"><ele>368.6666666666667</ele><time>2026-04-18T15:33:32.773Z</time></trkpt><trkpt lat="43.0820217" lon="11.646055"><ele>369.3333333333333</ele><time>2026-04-18T15:33:33.772Z</time></trkpt><trkpt lat="43.0819083" lon="11.6458183"><ele>370.0</ele><time>2026-04-18T15:33:34.771Z</time></trkpt><trkpt lat="43.0818133" lon="11.6455667"><ele>370.0</ele><time>2026-04-18T15:33:35.769Z</time></trkpt><trkpt lat="43.0817383" lon="11.6453117"><ele>370.0</ele><time>2026-04-18T15:33:36.772Z</time></trkpt><trkpt lat="43.0816833" lon="11.6450433"><ele>370.0</ele><time>2026-04-18T15:33:37.769Z</time></trkpt><trkpt lat="43.0816467" lon="11.6447583"><ele>370.66666666666663</ele><time>2026-04-18T15:33:38.773Z</time></trkpt><trkpt lat="43.08163" lon="11.644465"><ele>371.3333333333333</ele><time>2026-04-18T15:33:39.77Z</time></trkpt><trkpt lat="43.0816267" lon="11.6441667"><ele>372.0</ele><time>2026-04-18T15:33:40.769Z</time></trkpt><trkpt lat="43.0816317" lon="11.64384"><ele>372.0</ele><time>2026-04-18T15:33:41.77Z</time></trkpt><trkpt lat="43.0816467" lon="11.6434817"><ele>372.0</ele><time>2026-04-18T15:33:42.773Z</time></trkpt><trkpt lat="43.0816683" lon="11.6431117"><ele>371.5</ele><time>2026-04-18T15:33:43.77Z</time></trkpt><trkpt lat="43.0816917" lon="11.6427417"><ele>371.0</ele><time>2026-04-18T15:33:44.774Z</time></trkpt><trkpt lat="43.0817067" lon="11.6423867"><ele>371.0</ele><time>2026-04-18T15:33:45.771Z</time></trkpt><trkpt lat="43.081725" lon="11.6420533"><ele>371.0</ele><time>2026-04-18T15:33:46.771Z</time></trkpt><trkpt lat="43.08176" lon="11.6417467"><ele>370.0</ele><time>2026-04-18T15:33:47.772Z</time></trkpt><trkpt lat="43.081825" lon="11.6414517"><ele>369.0</ele><time>2026-04-18T15:33:48.771Z</time></trkpt><trkpt lat="43.0819333" lon="11.64117"><ele>369.5</ele><time>2026-04-18T15:33:49.771Z</time></trkpt><trkpt lat="43.0820833" lon="11.6409017"><ele>370.0</ele><time>2026-04-18T15:33:50.773Z</time></trkpt><trkpt lat="43.0822633" lon="11.640645"><ele>367.0</ele><time>2026-04-18T15:33:51.769Z</time></trkpt><trkpt lat="43.0824433" lon="11.6403817"><ele>364.0</ele><time>2026-04-18T15:33:52.766Z</time></trkpt><trkpt lat="43.08261" lon="11.6401017"><ele>363.5</ele><time>2026-04-18T15:33:53.772Z</time></trkpt><trkpt lat="43.08275" lon="11.6398033"><ele>363.0</ele><time>2026-04-18T15:33:54.772Z</time></trkpt><trkpt lat="43.0828633" lon="11.6395033"><ele>362.3333333333333</ele><time>2026-04-18T15:33:55.771Z</time></trkpt><trkpt lat="43.0829567" lon="11.6392217"><ele>361.66666666666663</ele><time>2026-04-18T15:33:56.774Z</time></trkpt><trkpt lat="43.0830383" lon="11.63896"><ele>361.0</ele><time>2026-04-18T15:33:57.77Z</time></trkpt><trkpt lat="43.0831133" lon="11.6387233"><ele>359.66666666666663</ele><time>2026-04-18T15:33:58.771Z</time></trkpt><trkpt lat="43.0831833" lon="11.6385017"><ele>358.3333333333333</ele><time>2026-04-18T15:33:59.77Z</time></trkpt><trkpt lat="43.08325" lon="11.6382967"><ele>357.0</ele><time>2026-04-18T15:34:00.774Z</time></trkpt><trkpt lat="43.0833083" lon="11.6381"><ele>355.75</ele><time>2026-04-18T15:34:01.771Z</time></trkpt><trkpt lat="43.083355" lon="11.6379083"><ele>354.5</ele><time>2026-04-18T15:34:02.774Z</time></trkpt><trkpt lat="43.0833917" lon="11.6377233"><ele>353.25</ele><time>2026-04-18T15:34:03.771Z</time></trkpt><trkpt lat="43.08342" lon="11.6375383"><ele>352.0</ele><time>2026-04-18T15:34:04.77Z</time></trkpt><trkpt lat="43.0834367" lon="11.6373333"><ele>352.0</ele><time>2026-04-18T15:34:05.767Z</time></trkpt><trkpt lat="43.0834417" lon="11.6370967"><ele>352.0</ele><time>2026-04-18T15:34:06.773Z</time></trkpt><trkpt lat="43.083445" lon="11.6368233"><ele>352.0</ele><time>2026-04-18T15:34:07.773Z</time></trkpt><trkpt lat="43.0834533" lon="11.6365183"><ele>350.5</ele><time>2026-04-18T15:34:08.775Z</time></trkpt><trkpt lat="43.08346" lon="11.636175"><ele>349.0</ele><time>2026-04-18T15:34:09.77Z</time></trkpt><trkpt lat="43.0834667" lon="11.6358083"><ele>349.0</ele><time>2026-04-18T15:34:10.769Z</time></trkpt><trkpt lat="43.0834783" lon="11.6354233"><ele>349.0</ele><time>2026-04-18T15:34:11.77Z</time></trkpt><trkpt lat="43.0834967" lon="11.6350383"><ele>349.0</ele><time>2026-04-18T15:34:12.772Z</time></trkpt><trkpt lat="43.0835267" lon="11.6346467"><ele>349.0</ele><time>2026-04-18T15:34:13.77Z</time></trkpt><trkpt lat="43.0835683" lon="11.6342417"><ele>351.0</ele><time>2026-04-18T15:34:14.771Z</time></trkpt><trkpt lat="43.083625" lon="11.6338417"><ele>353.0</ele><time>2026-04-18T15:34:15.771Z</time></trkpt><trkpt lat="43.08368" lon="11.6334583"><ele>354.5</ele><time>2026-04-18T15:34:16.769Z</time></trkpt><trkpt lat="43.08373" lon="11.633075"><ele>356.0</ele><time>2026-04-18T15:34:17.771Z</time></trkpt><trkpt lat="43.0837667" lon="11.6326867"><ele>356.0</ele><time>2026-04-18T15:34:18.772Z</time></trkpt><trkpt lat="43.08379" lon="11.63229"><ele>356.0</ele><time>2026-04-18T15:34:19.771Z</time></trkpt><trkpt lat="43.0838033" lon="11.6319067"><ele>350.5</ele><time>2026-04-18T15:34:20.773Z</time></trkpt><trkpt lat="43.0838167" lon="11.6315383"><ele>345.0</ele><time>2026-04-18T15:34:21.771Z</time></trkpt><trkpt lat="43.0838333" lon="11.6311917"><ele>343.0</ele><time>2026-04-18T15:34:22.77Z</time></trkpt><trkpt lat="43.0838483" lon="11.630875"><ele>341.0</ele><time>2026-04-18T15:34:23.769Z</time></trkpt><trkpt lat="43.083855" lon="11.6305817"><ele>339.0</ele><time>2026-04-18T15:34:24.769Z</time></trkpt><trkpt lat="43.0838383" lon="11.6303067"><ele>339.0</ele><time>2026-04-18T15:34:25.768Z</time></trkpt><trkpt lat="43.08379" lon="11.63005"><ele>339.0</ele><time>2026-04-18T15:34:26.772Z</time></trkpt><trkpt lat="43.0837067" lon="11.6298117"><ele>339.0</ele><time>2026-04-18T15:34:27.77Z</time></trkpt><trkpt lat="43.0835867" lon="11.6295967"><ele>339.6666666666667</ele><time>2026-04-18T15:34:28.768Z</time></trkpt><trkpt lat="43.0834267" lon="11.6294167"><ele>340.33333333333337</ele><time>2026-04-18T15:34:29.767Z</time></trkpt><trkpt lat="43.0832333" lon="11.6293033"><ele>341.0</ele><time>2026-04-18T15:34:30.77Z</time></trkpt><trkpt lat="43.08302" lon="11.6292317"><ele>338.0</ele><time>2026-04-18T15:34:31.766Z</time></trkpt><trkpt lat="43.0827867" lon="11.6291967"><ele>335.0</ele><time>2026-04-18T15:34:32.766Z</time></trkpt><trkpt lat="43.0825467" lon="11.6291717"><ele>336.0</ele><time>2026-04-18T15:34:33.77Z</time></trkpt><trkpt lat="43.0822967" lon="11.629145"><ele>337.0</ele><time>2026-04-18T15:34:34.771Z</time></trkpt><trkpt lat="43.0820367" lon="11.6291317"><ele>337.0</ele><time>2026-04-18T15:34:35.769Z</time></trkpt><trkpt lat="43.0817733" lon="11.6291183"><ele>337.0</ele><time>2026-04-18T15:34:36.772Z</time></trkpt><trkpt lat="43.0815117" lon="11.6290917"><ele>340.0</ele><time>2026-04-18T15:34:37.77Z</time></trkpt><trkpt lat="43.081245" lon="11.62903"><ele>343.0</ele><time>2026-04-18T15:34:38.773Z</time></trkpt><trkpt lat="43.080995" lon="11.62893"><ele>343.0</ele><time>2026-04-18T15:34:39.769Z</time></trkpt><trkpt lat="43.0807733" lon="11.6287933"><ele>343.0</ele><time>2026-04-18T15:34:40.765Z</time></trkpt><trkpt lat="43.0805717" lon="11.628665"><ele>343.0</ele><time>2026-04-18T15:34:41.771Z</time></trkpt><trkpt lat="43.08037" lon="11.6285833"><ele>343.0</ele><time>2026-04-18T15:34:42.771Z</time></trkpt><trkpt lat="43.08015" lon="11.6285533"><ele>343.0</ele><time>2026-04-18T15:34:43.766Z</time></trkpt><trkpt lat="43.0799233" lon="11.6285717"><ele>343.0</ele><time>2026-04-18T15:34:44.771Z</time></trkpt><trkpt lat="43.0796867" lon="11.6286067"><ele>343.0</ele><time>2026-04-18T15:34:45.773Z</time></trkpt><trkpt lat="43.0794417" lon="11.6286567"><ele>342.5</ele><time>2026-04-18T15:34:46.771Z</time></trkpt><trkpt lat="43.0791883" lon="11.6287183"><ele>342.0</ele><time>2026-04-18T15:34:47.765Z</time></trkpt><trkpt lat="43.0789283" lon="11.628755"><ele>342.0</ele><time>2026-04-18T15:34:48.772Z</time></trkpt><trkpt lat="43.078675" lon="11.6287517"><ele>342.0</ele><time>2026-04-18T15:34:49.771Z</time></trkpt><trkpt lat="43.0784283" lon="11.62872"><ele>344.0</ele><time>2026-04-18T15:34:50.774Z</time></trkpt><trkpt lat="43.0781783" lon="11.6286317"><ele>346.0</ele><time>2026-04-18T15:34:51.771Z</time></trkpt><trkpt lat="43.0779233" lon="11.628515"><ele>346.0</ele><time>2026-04-18T15:34:52.766Z</time></trkpt><trkpt lat="43.077665" lon="11.6283917"><ele>346.0</ele><time>2026-04-18T15:34:53.77Z</time></trkpt><trkpt lat="43.0774017" lon="11.6282717"><ele>345.0</ele><time>2026-04-18T15:34:54.773Z</time></trkpt><trkpt lat="43.07714" lon="11.62815"><ele>344.0</ele><time>2026-04-18T15:34:55.773Z</time></trkpt><trkpt lat="43.0768767" lon="11.62803"><ele>344.0</ele><time>2026-04-18T15:34:56.774Z</time></trkpt><trkpt lat="43.0766133" lon="11.6279083"><ele>344.0</ele><time>2026-04-18T15:34:57.77Z</time></trkpt><trkpt lat="43.0763483" lon="11.62779"><ele>346.5</ele><time>2026-04-18T15:34:58.77Z</time></trkpt><trkpt lat="43.0760867" lon="11.62767"><ele>349.0</ele><time>2026-04-18T15:34:59.771Z</time></trkpt><trkpt lat="43.0758267" lon="11.6275583"><ele>352.0</ele><time>2026-04-18T15:35:00.771Z</time></trkpt><trkpt lat="43.0755717" lon="11.627455"><ele>355.0</ele><time>2026-04-18T15:35:01.773Z</time></trkpt><trkpt lat="43.075325" lon="11.6273533"><ele>355.0</ele><time>2026-04-18T15:35:02.774Z</time></trkpt><trkpt lat="43.075095" lon="11.627255"><ele>355.0</ele><time>2026-04-18T15:35:03.773Z</time></trkpt><trkpt lat="43.074885" lon="11.6271467"><ele>354.66666666666663</ele><time>2026-04-18T15:35:04.771Z</time></trkpt><trkpt lat="43.0746967" lon="11.6270117"><ele>354.3333333333333</ele><time>2026-04-18T15:35:05.769Z</time></trkpt><trkpt lat="43.074525" lon="11.6268367"><ele>354.0</ele><time>2026-04-18T15:35:06.769Z</time></trkpt><trkpt lat="43.07437" lon="11.6266183"><ele>354.0</ele><time>2026-04-18T15:35:07.771Z</time></trkpt><trkpt lat="43.0742267" lon="11.6263683"><ele>354.0</ele><time>2026-04-18T15:35:08.773Z</time></trkpt><trkpt lat="43.0740867" lon="11.6261167"><ele>353.6666666666667</ele><time>2026-04-18T15:35:09.769Z</time></trkpt><trkpt lat="43.0739517" lon="11.625875"><ele>353.33333333333337</ele><time>2026-04-18T15:35:10.773Z</time></trkpt><trkpt lat="43.0738233" lon="11.6256483"><ele>353.0</ele><time>2026-04-18T15:35:11.77Z</time></trkpt><trkpt lat="43.0737017" lon="11.62544"><ele>355.6666666666667</ele><time>2026-04-18T15:35:12.772Z</time></trkpt><trkpt lat="43.073585" lon="11.6252383"><ele>358.3333333333333</ele><time>2026-04-18T15:35:13.771Z</time></trkpt><trkpt lat="43.073475" lon="11.6250383"><ele>361.0</ele><time>2026-04-18T15:35:14.774Z</time></trkpt><trkpt lat="43.073375" lon="11.6248233"><ele>361.0</ele><time>2026-04-18T15:35:15.772Z</time></trkpt><trkpt lat="43.0732883" lon="11.6245767"><ele>361.0</ele><time>2026-04-18T15:35:16.772Z</time></trkpt><trkpt lat="43.0732133" lon="11.6243"><ele>361.0</ele><time>2026-04-18T15:35:17.77Z</time></trkpt><trkpt lat="43.0731617" lon="11.6240067"><ele>360.5</ele><time>2026-04-18T15:35:18.772Z</time></trkpt><trkpt lat="43.07314" lon="11.6236867"><ele>360.0</ele><time>2026-04-18T15:35:19.773Z</time></trkpt><trkpt lat="43.0731517" lon="11.6233533"><ele>360.0</ele><time>2026-04-18T15:35:20.772Z</time></trkpt><trkpt lat="43.0731867" lon="11.6230083"><ele>360.0</ele><time>2026-04-18T15:35:21.771Z</time></trkpt><trkpt lat="43.07325" lon="11.6226583"><ele>361.0</ele><time>2026-04-18T15:35:22.769Z</time></trkpt><trkpt lat="43.073335" lon="11.62231"><ele>362.0</ele><time>2026-04-18T15:35:23.771Z</time></trkpt><trkpt lat="43.0734133" lon="11.6219717"><ele>363.0</ele><time>2026-04-18T15:35:24.774Z</time></trkpt><trkpt lat="43.0734667" lon="11.6216333"><ele>364.0</ele><time>2026-04-18T15:35:25.772Z</time></trkpt><trkpt lat="43.073485" lon="11.621295"><ele>365.5</ele><time>2026-04-18T15:35:26.774Z</time></trkpt><trkpt lat="43.0734567" lon="11.6209483"><ele>367.0</ele><time>2026-04-18T15:35:27.772Z</time></trkpt><trkpt lat="43.0733883" lon="11.6206083"><ele>367.5</ele><time>2026-04-18T15:35:28.771Z</time></trkpt><trkpt lat="43.0732783" lon="11.6202883"><ele>368.0</ele><time>2026-04-18T15:35:29.772Z</time></trkpt><trkpt lat="43.0731317" lon="11.619995"><ele>368.5</ele><time>2026-04-18T15:35:30.774Z</time></trkpt><trkpt lat="43.0729367" lon="11.6197417"><ele>369.0</ele><time>2026-04-18T15:35:31.769Z</time></trkpt><trkpt lat="43.0727117" lon="11.61953"><ele>367.5</ele><time>2026-04-18T15:35:32.772Z</time></trkpt><trkpt lat="43.0724633" lon="11.61936"><ele>366.0</ele><time>2026-04-18T15:35:33.774Z</time></trkpt><trkpt lat="43.0722033" lon="11.6191983"><ele>366.0</ele><time>2026-04-18T15:35:34.77Z</time></trkpt><trkpt lat="43.0719317" lon="11.6190317"><ele>366.0</ele><time>2026-04-18T15:35:35.771Z</time></trkpt><trkpt lat="43.0716483" lon="11.61886"><ele>368.5</ele><time>2026-04-18T15:35:36.773Z</time></trkpt><trkpt lat="43.0713667" lon="11.61869"><ele>371.0</ele><time>2026-04-18T15:35:37.772Z</time></trkpt><trkpt lat="43.0711017" lon="11.6185267"><ele>371.0</ele><time>2026-04-18T15:35:38.774Z</time></trkpt><trkpt lat="43.0708583" lon="11.6183617"><ele>371.0</ele><time>2026-04-18T15:35:39.771Z</time></trkpt><trkpt lat="43.0706383" lon="11.6181833"><ele>374.5</ele><time>2026-04-18T15:35:40.769Z</time></trkpt><trkpt lat="43.0704367" lon="11.61796"><ele>378.0</ele><time>2026-04-18T15:35:41.772Z</time></trkpt><trkpt lat="43.07026" lon="11.617695"><ele>378.5</ele><time>2026-04-18T15:35:42.774Z</time></trkpt><trkpt lat="43.070125" lon="11.61738"><ele>379.0</ele><time>2026-04-18T15:35:43.769Z</time></trkpt><trkpt lat="43.070015" lon="11.61703"><ele>379.5</ele><time>2026-04-18T15:35:44.774Z</time></trkpt><trkpt lat="43.0699233" lon="11.61669"><ele>380.0</ele><time>2026-04-18T15:35:45.771Z</time></trkpt><trkpt lat="43.069825" lon="11.6163667"><ele>382.0</ele><time>2026-04-18T15:35:46.772Z</time></trkpt><trkpt lat="43.069705" lon="11.6160683"><ele>384.0</ele><time>2026-04-18T15:35:47.77Z</time></trkpt><trkpt lat="43.0695483" lon="11.6158"><ele>384.0</ele><time>2026-04-18T15:35:48.772Z</time></trkpt><trkpt lat="43.0693567" lon="11.6155733"><ele>384.0</ele><time>2026-04-18T15:35:49.772Z</time></trkpt><trkpt lat="43.0691333" lon="11.6153917"><ele>388.5</ele><time>2026-04-18T15:35:50.774Z</time></trkpt><trkpt lat="43.06889" lon="11.6152667"><ele>393.0</ele><time>2026-04-18T15:35:51.773Z</time></trkpt><trkpt lat="43.0686283" lon="11.615155"><ele>393.0</ele><time>2026-04-18T15:35:52.771Z</time></trkpt><trkpt lat="43.068355" lon="11.6150517"><ele>393.0</ele><time>2026-04-18T15:35:53.77Z</time></trkpt><trkpt lat="43.0680783" lon="11.61495"><ele>394.5</ele><time>2026-04-18T15:35:54.772Z</time></trkpt><trkpt lat="43.0677967" lon="11.6148483"><ele>396.0</ele><time>2026-04-18T15:35:55.772Z</time></trkpt><trkpt lat="43.0675133" lon="11.6147433"><ele>396.5</ele><time>2026-04-18T15:35:56.774Z</time></trkpt><trkpt lat="43.067235" lon="11.61464"><ele>397.0</ele><time>2026-04-18T15:35:57.772Z</time></trkpt><trkpt lat="43.0669683" lon="11.61454"><ele>396.0</ele><time>2026-04-18T15:35:58.772Z</time></trkpt><trkpt lat="43.06672" lon="11.6144367"><ele>395.0</ele><time>2026-04-18T15:35:59.77Z</time></trkpt><trkpt lat="43.06649" lon="11.6142983"><ele>397.5</ele><time>2026-04-18T15:36:00.775Z</time></trkpt><trkpt lat="43.06629" lon="11.6141083"><ele>400.0</ele><time>2026-04-18T15:36:01.772Z</time></trkpt><trkpt lat="43.0661183" lon="11.6138683"><ele>400.0</ele><time>2026-04-18T15:36:02.774Z</time></trkpt><trkpt lat="43.0659767" lon="11.6135883"><ele>400.0</ele><time>2026-04-18T15:36:03.771Z</time></trkpt><trkpt lat="43.0658567" lon="11.6132933"><ele>399.6666666666667</ele><time>2026-04-18T15:36:04.771Z</time></trkpt><trkpt lat="43.0657583" lon="11.6130067"><ele>399.33333333333337</ele><time>2026-04-18T15:36:05.77Z</time></trkpt><trkpt lat="43.06567" lon="11.6127617"><ele>399.0</ele><time>2026-04-18T15:36:06.769Z</time></trkpt><trkpt lat="43.06559" lon="11.6125417"><ele>399.0</ele><time>2026-04-18T15:36:07.772Z</time></trkpt><trkpt lat="43.0655117" lon="11.6123317"><ele>399.0</ele><time>2026-04-18T15:36:08.772Z</time></trkpt><trkpt lat="43.0654267" lon="11.6121117"><ele>399.0</ele><time>2026-04-18T15:36:09.772Z</time></trkpt><trkpt lat="43.06534" lon="11.6118783"><ele>400.33333333333337</ele><time>2026-04-18T15:36:10.772Z</time></trkpt><trkpt lat="43.0652517" lon="11.6116333"><ele>401.6666666666667</ele><time>2026-04-18T15:36:11.771Z</time></trkpt><trkpt lat="43.0651483" lon="11.611395"><ele>403.0</ele><time>2026-04-18T15:36:12.771Z</time></trkpt><trkpt lat="43.0650267" lon="11.611175"><ele>402.0</ele><time>2026-04-18T15:36:13.77Z</time></trkpt><trkpt lat="43.0648817" lon="11.6109717"><ele>401.0</ele><time>2026-04-18T15:36:14.775Z</time></trkpt><trkpt lat="43.0647167" lon="11.6107917"><ele>400.0</ele><time>2026-04-18T15:36:15.771Z</time></trkpt><trkpt lat="43.0645317" lon="11.6106233"><ele>400.0</ele><time>2026-04-18T15:36:16.769Z</time></trkpt><trkpt lat="43.0643367" lon="11.61047"><ele>400.0</ele><time>2026-04-18T15:36:17.772Z</time></trkpt><trkpt lat="43.064135" lon="11.6103317"><ele>407.5</ele><time>2026-04-18T15:36:18.769Z</time></trkpt><trkpt lat="43.0639283" lon="11.6101967"><ele>415.0</ele><time>2026-04-18T15:36:19.77Z</time></trkpt><trkpt lat="43.0637233" lon="11.6100683"><ele>415.0</ele><time>2026-04-18T15:36:20.772Z</time></trkpt><trkpt lat="43.0635217" lon="11.6099383"><ele>415.0</ele><time>2026-04-18T15:36:21.771Z</time></trkpt><trkpt lat="43.0633233" lon="11.6098067"><ele>415.0</ele><time>2026-04-18T15:36:22.768Z</time></trkpt><trkpt lat="43.063135" lon="11.6096633"><ele>414.6666666666667</ele><time>2026-04-18T15:36:23.768Z</time></trkpt><trkpt lat="43.062955" lon="11.609505"><ele>414.33333333333337</ele><time>2026-04-18T15:36:24.772Z</time></trkpt><trkpt lat="43.0627867" lon="11.6093233"><ele>414.0</ele><time>2026-04-18T15:36:25.768Z</time></trkpt><trkpt lat="43.0626267" lon="11.6091317"><ele>414.0</ele><time>2026-04-18T15:36:26.77Z</time></trkpt><trkpt lat="43.0624683" lon="11.608935"><ele>414.0</ele><time>2026-04-18T15:36:27.771Z</time></trkpt><trkpt lat="43.0623167" lon="11.6087317"><ele>414.0</ele><time>2026-04-18T15:36:28.767Z</time></trkpt><trkpt lat="43.0621683" lon="11.6085283"><ele>411.0</ele><time>2026-04-18T15:36:29.785Z</time></trkpt><trkpt lat="43.0620267" lon="11.60833"><ele>408.0</ele><time>2026-04-18T15:36:30.774Z</time></trkpt><trkpt lat="43.0618933" lon="11.6081433"><ele>405.0</ele><time>2026-04-18T15:36:31.769Z</time></trkpt><trkpt lat="43.061765" lon="11.607965"><ele>404.66666666666663</ele><time>2026-04-18T15:36:32.766Z</time></trkpt><trkpt lat="43.06165" lon="11.6077917"><ele>404.3333333333333</ele><time>2026-04-18T15:36:33.771Z</time></trkpt><trkpt lat="43.0615467" lon="11.60763"><ele>404.0</ele><time>2026-04-18T15:36:34.767Z</time></trkpt><trkpt lat="43.0614533" lon="11.6074717"><ele>403.25</ele><time>2026-04-18T15:36:35.766Z</time></trkpt><trkpt lat="43.061365" lon="11.6073133"><ele>402.5</ele><time>2026-04-18T15:36:36.77Z</time></trkpt><trkpt lat="43.0612833" lon="11.607155"><ele>401.75</ele><time>2026-04-18T15:36:37.769Z</time></trkpt><trkpt lat="43.0612067" lon="11.6070033"><ele>401.0</ele><time>2026-04-18T15:36:38.77Z</time></trkpt><trkpt lat="43.0611317" lon="11.6068617"><ele>401.0</ele><time>2026-04-18T15:36:39.77Z</time></trkpt><trkpt lat="43.0610667" lon="11.6067217"><ele>401.0</ele><time>2026-04-18T15:36:40.768Z</time></trkpt><trkpt lat="43.0610117" lon="11.606585"><ele>401.0</ele><time>2026-04-18T15:36:41.768Z</time></trkpt><trkpt lat="43.060955" lon="11.6064517"><ele>401.0</ele><time>2026-04-18T15:36:42.766Z</time></trkpt><trkpt lat="43.0609067" lon="11.6063283"><ele>401.0</ele><time>2026-04-18T15:36:43.767Z</time></trkpt><trkpt lat="43.0608533" lon="11.60622"><ele>401.0</ele><time>2026-04-18T15:36:44.772Z</time></trkpt><trkpt lat="43.0608083" lon="11.6061183"><ele>401.0</ele><time>2026-04-18T15:36:45.768Z</time></trkpt><trkpt lat="43.06078" lon="11.606005"><ele>401.0</ele><time>2026-04-18T15:36:46.768Z</time></trkpt><trkpt lat="43.0607767" lon="11.6058717"><ele>401.0</ele><time>2026-04-18T15:36:47.769Z</time></trkpt><trkpt lat="43.060785" lon="11.6057417"><ele>401.5</ele><time>2026-04-18T15:36:48.768Z</time></trkpt><trkpt lat="43.0608417" lon="11.6055817"><ele>402.0</ele><time>2026-04-18T15:36:49.768Z</time></trkpt><trkpt lat="43.0609" lon="11.6053967"><ele>402.5</ele><time>2026-04-18T15:36:50.77Z</time></trkpt><trkpt lat="43.0609433" lon="11.6051917"><ele>403.0</ele><time>2026-04-18T15:36:51.769Z</time></trkpt><trkpt lat="43.0609583" lon="11.60498"><ele>405.0</ele><time>2026-04-18T15:36:52.768Z</time></trkpt><trkpt lat="43.0609567" lon="11.6047533"><ele>407.0</ele><time>2026-04-18T15:36:53.768Z</time></trkpt><trkpt lat="43.060945" lon="11.6045167"><ele>409.0</ele><time>2026-04-18T15:36:54.769Z</time></trkpt><trkpt lat="43.0609383" lon="11.6042733"><ele>409.0</ele><time>2026-04-18T15:36:55.769Z</time></trkpt><trkpt lat="43.0609417" lon="11.60404"><ele>409.0</ele><time>2026-04-18T15:36:56.771Z</time></trkpt><trkpt lat="43.0609433" lon="11.6038183"><ele>409.0</ele><time>2026-04-18T15:36:57.769Z</time></trkpt><trkpt lat="43.0609517" lon="11.603605"><ele>408.6666666666667</ele><time>2026-04-18T15:36:58.763Z</time></trkpt><trkpt lat="43.0609583" lon="11.6033833"><ele>408.33333333333337</ele><time>2026-04-18T15:36:59.766Z</time></trkpt><trkpt lat="43.0609567" lon="11.6031583"><ele>408.0</ele><time>2026-04-18T15:37:00.772Z</time></trkpt><trkpt lat="43.060945" lon="11.6029317"><ele>405.66666666666663</ele><time>2026-04-18T15:37:01.769Z</time></trkpt><trkpt lat="43.060925" lon="11.602705"><ele>403.3333333333333</ele><time>2026-04-18T15:37:02.771Z</time></trkpt><trkpt lat="43.0608983" lon="11.60249"><ele>401.0</ele><time>2026-04-18T15:37:03.769Z</time></trkpt><trkpt lat="43.0608633" lon="11.6022933"><ele>401.0</ele><time>2026-04-18T15:37:04.766Z</time></trkpt><trkpt lat="43.060815" lon="11.6021233"><ele>401.0</ele><time>2026-04-18T15:37:05.77Z</time></trkpt><trkpt lat="43.06076" lon="11.6019867"><ele>401.0</ele><time>2026-04-18T15:37:06.773Z</time></trkpt><trkpt lat="43.0607017" lon="11.6018683"><ele>401.0</ele><time>2026-04-18T15:37:07.769Z</time></trkpt><trkpt lat="43.0606833" lon="11.6017583"><ele>401.0</ele><time>2026-04-18T15:37:08.773Z</time></trkpt><trkpt lat="43.0606817" lon="11.6016517"><ele>400.20000000000005</ele><time>2026-04-18T15:37:09.771Z</time></trkpt><trkpt lat="43.0606833" lon="11.6015433"><ele>399.40000000000003</ele><time>2026-04-18T15:37:10.77Z</time></trkpt><trkpt lat="43.0607167" lon="11.60144"><ele>398.6</ele><time>2026-04-18T15:37:11.771Z</time></trkpt><trkpt lat="43.0607667" lon="11.601325"><ele>397.8</ele><time>2026-04-18T15:37:12.771Z</time></trkpt><trkpt lat="43.0608533" lon="11.601195"><ele>397.0</ele><time>2026-04-18T15:37:13.769Z</time></trkpt><trkpt lat="43.060965" lon="11.6010167"><ele>392.6666666666667</ele><time>2026-04-18T15:37:14.771Z</time></trkpt><trkpt lat="43.06107" lon="11.6008067"><ele>388.33333333333337</ele><time>2026-04-18T15:37:15.773Z</time></trkpt><trkpt lat="43.0611833" lon="11.6005433"><ele>384.0</ele><time>2026-04-18T15:37:16.772Z</time></trkpt><trkpt lat="43.06129" lon="11.6002967"><ele>381.3333333333333</ele><time>2026-04-18T15:37:17.77Z</time></trkpt><trkpt lat="43.0613933" lon="11.6000717"><ele>378.66666666666663</ele><time>2026-04-18T15:37:18.772Z</time></trkpt><trkpt lat="43.0614817" lon="11.5998617"><ele>376.0</ele><time>2026-04-18T15:37:19.771Z</time></trkpt><trkpt lat="43.0615467" lon="11.59965"><ele>374.0</ele><time>2026-04-18T15:37:20.774Z</time></trkpt><trkpt lat="43.0615967" lon="11.5994217"><ele>372.0</ele><time>2026-04-18T15:37:21.769Z</time></trkpt><trkpt lat="43.0616283" lon="11.599185"><ele>370.0</ele><time>2026-04-18T15:37:22.771Z</time></trkpt><trkpt lat="43.061655" lon="11.59894"><ele>375.0</ele><time>2026-04-18T15:37:23.768Z</time></trkpt><trkpt lat="43.0616767" lon="11.5986967"><ele>380.0</ele><time>2026-04-18T15:37:24.768Z</time></trkpt><trkpt lat="43.0616983" lon="11.5984533"><ele>385.0</ele><time>2026-04-18T15:37:25.768Z</time></trkpt><trkpt lat="43.061745" lon="11.5982233"><ele>385.33333333333337</ele><time>2026-04-18T15:37:26.773Z</time></trkpt><trkpt lat="43.0618233" lon="11.5980067"><ele>385.66666666666663</ele><time>2026-04-18T15:37:27.77Z</time></trkpt><trkpt lat="43.0619267" lon="11.597825"><ele>386.0</ele><time>2026-04-18T15:37:28.763Z</time></trkpt><trkpt lat="43.0620667" lon="11.5976867"><ele>386.0</ele><time>2026-04-18T15:37:29.769Z</time></trkpt><trkpt lat="43.0622133" lon="11.597565"><ele>386.0</ele><time>2026-04-18T15:37:30.767Z</time></trkpt><trkpt lat="43.0623567" lon="11.5974483"><ele>386.0</ele><time>2026-04-18T15:37:31.772Z</time></trkpt><trkpt lat="43.0624933" lon="11.5973367"><ele>386.0</ele><time>2026-04-18T15:37:32.769Z</time></trkpt><trkpt lat="43.0626283" lon="11.59723"><ele>386.0</ele><time>2026-04-18T15:37:33.769Z</time></trkpt><trkpt lat="43.0627633" lon="11.5971233"><ele>386.0</ele><time>2026-04-18T15:37:34.767Z</time></trkpt><trkpt lat="43.0629" lon="11.5970133"><ele>382.66666666666663</ele><time>2026-04-18T15:37:35.768Z</time></trkpt><trkpt lat="43.063035" lon="11.5969017"><ele>379.3333333333333</ele><time>2026-04-18T15:37:36.765Z</time></trkpt><trkpt lat="43.0631717" lon="11.596785"><ele>376.0</ele><time>2026-04-18T15:37:37.768Z</time></trkpt><trkpt lat="43.0633067" lon="11.596655"><ele>376.0</ele><time>2026-04-18T15:37:38.769Z</time></trkpt><trkpt lat="43.0634433" lon="11.5965083"><ele>376.0</ele><time>2026-04-18T15:37:39.77Z</time></trkpt><trkpt lat="43.0635833" lon="11.5963383"><ele>376.0</ele><time>2026-04-18T15:37:40.77Z</time></trkpt><trkpt lat="43.0637233" lon="11.5961433"><ele>373.0</ele><time>2026-04-18T15:37:41.769Z</time></trkpt><trkpt lat="43.0638617" lon="11.595945"><ele>370.0</ele><time>2026-04-18T15:37:42.769Z</time></trkpt><trkpt lat="43.0639967" lon="11.5957567"><ele>367.0</ele><time>2026-04-18T15:37:43.77Z</time></trkpt><trkpt lat="43.0641267" lon="11.5955767"><ele>367.0</ele><time>2026-04-18T15:37:44.772Z</time></trkpt><trkpt lat="43.0642383" lon="11.5953883"><ele>367.0</ele><time>2026-04-18T15:37:45.769Z</time></trkpt><trkpt lat="43.0643283" lon="11.59518"><ele>367.0</ele><time>2026-04-18T15:37:46.77Z</time></trkpt><trkpt lat="43.0643933" lon="11.59495"><ele>365.3333333333333</ele><time>2026-04-18T15:37:47.769Z</time></trkpt><trkpt lat="43.0644433" lon="11.5947017"><ele>363.6666666666667</ele><time>2026-04-18T15:37:48.768Z</time></trkpt><trkpt lat="43.06448" lon="11.59444"><ele>362.0</ele><time>2026-04-18T15:37:49.769Z</time></trkpt><trkpt lat="43.0645167" lon="11.594165"><ele>359.6666666666667</ele><time>2026-04-18T15:37:50.771Z</time></trkpt><trkpt lat="43.064545" lon="11.5938933"><ele>357.3333333333333</ele><time>2026-04-18T15:37:51.77Z</time></trkpt><trkpt lat="43.0645783" lon="11.5936183"><ele>355.0</ele><time>2026-04-18T15:37:52.771Z</time></trkpt><trkpt lat="43.0646317" lon="11.593345"><ele>352.66666666666663</ele><time>2026-04-18T15:37:53.772Z</time></trkpt><trkpt lat="43.0647" lon="11.5930783"><ele>350.3333333333333</ele><time>2026-04-18T15:37:54.769Z</time></trkpt><trkpt lat="43.06477" lon="11.5928167"><ele>348.0</ele><time>2026-04-18T15:37:55.77Z</time></trkpt><trkpt lat="43.0648267" lon="11.5925567"><ele>345.6666666666667</ele><time>2026-04-18T15:37:56.773Z</time></trkpt><trkpt lat="43.0648567" lon="11.5922817"><ele>343.33333333333337</ele><time>2026-04-18T15:37:57.771Z</time></trkpt><trkpt lat="43.0648567" lon="11.592005"><ele>341.0</ele><time>2026-04-18T15:37:58.77Z</time></trkpt><trkpt lat="43.06484" lon="11.59173"><ele>339.0</ele><time>2026-04-18T15:37:59.77Z</time></trkpt><trkpt lat="43.0648317" lon="11.5914683"><ele>337.0</ele><time>2026-04-18T15:38:00.766Z</time></trkpt><trkpt lat="43.0648483" lon="11.59122"><ele>335.0</ele><time>2026-04-18T15:38:01.772Z</time></trkpt><trkpt lat="43.0648933" lon="11.5909867"><ele>336.33333333333337</ele><time>2026-04-18T15:38:02.771Z</time></trkpt><trkpt lat="43.0649783" lon="11.5907767"><ele>337.6666666666667</ele><time>2026-04-18T15:38:03.771Z</time></trkpt><trkpt lat="43.0650983" lon="11.5905933"><ele>339.0</ele><time>2026-04-18T15:38:04.77Z</time></trkpt><trkpt lat="43.0652533" lon="11.59043"><ele>336.3333333333333</ele><time>2026-04-18T15:38:05.77Z</time></trkpt><trkpt lat="43.065425" lon="11.5902933"><ele>333.66666666666663</ele><time>2026-04-18T15:38:06.774Z</time></trkpt><trkpt lat="43.065595" lon="11.5901967"><ele>331.0</ele><time>2026-04-18T15:38:07.771Z</time></trkpt><trkpt lat="43.0657683" lon="11.5901433"><ele>331.3333333333333</ele><time>2026-04-18T15:38:08.77Z</time></trkpt><trkpt lat="43.06595" lon="11.5901483"><ele>331.6666666666667</ele><time>2026-04-18T15:38:09.769Z</time></trkpt><trkpt lat="43.06611" lon="11.5901817"><ele>332.0</ele><time>2026-04-18T15:38:10.765Z</time></trkpt><trkpt lat="43.0662567" lon="11.59021"><ele>332.0</ele><time>2026-04-18T15:38:11.771Z</time></trkpt><trkpt lat="43.0664033" lon="11.59019"><ele>332.0</ele><time>2026-04-18T15:38:12.769Z</time></trkpt><trkpt lat="43.0665367" lon="11.590115"><ele>332.0</ele><time>2026-04-18T15:38:13.773Z</time></trkpt><trkpt lat="43.06663" lon="11.5899667"><ele>332.0</ele><time>2026-04-18T15:38:14.775Z</time></trkpt><trkpt lat="43.0667167" lon="11.5897617"><ele>329.0</ele><time>2026-04-18T15:38:15.771Z</time></trkpt><trkpt lat="43.066765" lon="11.58947"><ele>326.0</ele><time>2026-04-18T15:38:16.772Z</time></trkpt><trkpt lat="43.066825" lon="11.5891917"><ele>323.0</ele><time>2026-04-18T15:38:17.771Z</time></trkpt><trkpt lat="43.06691" lon="11.5889033"><ele>322.0</ele><time>2026-04-18T15:38:18.772Z</time></trkpt><trkpt lat="43.0670167" lon="11.5886167"><ele>321.0</ele><time>2026-04-18T15:38:19.772Z</time></trkpt><trkpt lat="43.0671467" lon="11.5883317"><ele>321.0</ele><time>2026-04-18T15:38:20.774Z</time></trkpt><trkpt lat="43.0672883" lon="11.5880517"><ele>321.0</ele><time>2026-04-18T15:38:21.769Z</time></trkpt><trkpt lat="43.0674317" lon="11.587775"><ele>319.0</ele><time>2026-04-18T15:38:22.768Z</time></trkpt><trkpt lat="43.0675717" lon="11.587515"><ele>317.0</ele><time>2026-04-18T15:38:23.769Z</time></trkpt><trkpt lat="43.0677033" lon="11.5872717"><ele>317.0</ele><time>2026-04-18T15:38:24.771Z</time></trkpt><trkpt lat="43.0678167" lon="11.5870383"><ele>317.0</ele><time>2026-04-18T15:38:25.771Z</time></trkpt><trkpt lat="43.067905" lon="11.5868017"><ele>317.0</ele><time>2026-04-18T15:38:26.774Z</time></trkpt><trkpt lat="43.0679633" lon="11.586535"><ele>316.33333333333337</ele><time>2026-04-18T15:38:27.771Z</time></trkpt><trkpt lat="43.0679933" lon="11.5862417"><ele>315.6666666666667</ele><time>2026-04-18T15:38:28.767Z</time></trkpt><trkpt lat="43.0680133" lon="11.58593"><ele>315.0</ele><time>2026-04-18T15:38:29.768Z</time></trkpt><trkpt lat="43.0680283" lon="11.5856233"><ele>309.6666666666667</ele><time>2026-04-18T15:38:30.771Z</time></trkpt><trkpt lat="43.0680383" lon="11.585345"><ele>304.33333333333337</ele><time>2026-04-18T15:38:31.766Z</time></trkpt><trkpt lat="43.06805" lon="11.5850967"><ele>299.0</ele><time>2026-04-18T15:38:32.759Z</time></trkpt><trkpt lat="43.0680667" lon="11.5848717"><ele>299.0</ele><time>2026-04-18T15:38:33.762Z</time></trkpt><trkpt lat="43.0681" lon="11.584665"><ele>299.0</ele><time>2026-04-18T15:38:34.769Z</time></trkpt><trkpt lat="43.0681567" lon="11.5844733"><ele>299.0</ele><time>2026-04-18T15:38:35.772Z</time></trkpt><trkpt lat="43.06825" lon="11.5843133"><ele>299.5</ele><time>2026-04-18T15:38:36.766Z</time></trkpt><trkpt lat="43.0683683" lon="11.584195"><ele>300.0</ele><time>2026-04-18T15:38:37.772Z</time></trkpt><trkpt lat="43.0684917" lon="11.5841233"><ele>300.5</ele><time>2026-04-18T15:38:38.773Z</time></trkpt><trkpt lat="43.0686233" lon="11.5841033"><ele>301.0</ele><time>2026-04-18T15:38:39.77Z</time></trkpt><trkpt lat="43.0687733" lon="11.5841467"><ele>301.0</ele><time>2026-04-18T15:38:40.765Z</time></trkpt><trkpt lat="43.0689317" lon="11.5842567"><ele>301.0</ele><time>2026-04-18T15:38:41.766Z</time></trkpt><trkpt lat="43.0691017" lon="11.5843967"><ele>301.0</ele><time>2026-04-18T15:38:42.774Z</time></trkpt><trkpt lat="43.0692883" lon="11.5845483"><ele>301.5</ele><time>2026-04-18T15:38:43.769Z</time></trkpt><trkpt lat="43.0694917" lon="11.58471"><ele>302.0</ele><time>2026-04-18T15:38:44.771Z</time></trkpt><trkpt lat="43.0696867" lon="11.58487"><ele>302.0</ele><time>2026-04-18T15:38:45.77Z</time></trkpt><trkpt lat="43.0698683" lon="11.5850167"><ele>302.0</ele><time>2026-04-18T15:38:46.769Z</time></trkpt><trkpt lat="43.07003" lon="11.5851383"><ele>302.0</ele><time>2026-04-18T15:38:47.77Z</time></trkpt><trkpt lat="43.0701683" lon="11.5852267"><ele>300.0</ele><time>2026-04-18T15:38:48.771Z</time></trkpt><trkpt lat="43.0703" lon="11.58527"><ele>298.0</ele><time>2026-04-18T15:38:49.772Z</time></trkpt><trkpt lat="43.0704283" lon="11.58525"><ele>296.0</ele><time>2026-04-18T15:38:50.773Z</time></trkpt><trkpt lat="43.07054" lon="11.585145"><ele>294.0</ele><time>2026-04-18T15:38:51.769Z</time></trkpt><trkpt lat="43.070635" lon="11.5849683"><ele>294.0</ele><time>2026-04-18T15:38:52.771Z</time></trkpt><trkpt lat="43.0707133" lon="11.5847183"><ele>294.0</ele><time>2026-04-18T15:38:53.772Z</time></trkpt><trkpt lat="43.070795" lon="11.584445"><ele>294.0</ele><time>2026-04-18T15:38:54.77Z</time></trkpt><trkpt lat="43.0708867" lon="11.5841567"><ele>292.0</ele><time>2026-04-18T15:38:55.769Z</time></trkpt><trkpt lat="43.0709817" lon="11.58388"><ele>290.0</ele><time>2026-04-18T15:38:56.773Z</time></trkpt><trkpt lat="43.0710733" lon="11.5836167"><ele>288.0</ele><time>2026-04-18T15:38:57.771Z</time></trkpt><trkpt lat="43.0711517" lon="11.5833683"><ele>287.0</ele><time>2026-04-18T15:38:58.771Z</time></trkpt><trkpt lat="43.0712067" lon="11.5831083"><ele>286.0</ele><time>2026-04-18T15:38:59.772Z</time></trkpt><trkpt lat="43.0712367" lon="11.5828367"><ele>285.0</ele><time>2026-04-18T15:39:00.77Z</time></trkpt><trkpt lat="43.0712267" lon="11.5825633"><ele>284.3333333333333</ele><time>2026-04-18T15:39:01.771Z</time></trkpt><trkpt lat="43.0711683" lon="11.5822917"><ele>283.66666666666663</ele><time>2026-04-18T15:39:02.773Z</time></trkpt><trkpt lat="43.07107" lon="11.58203"><ele>283.0</ele><time>2026-04-18T15:39:03.772Z</time></trkpt><trkpt lat="43.070955" lon="11.5817983"><ele>281.0</ele><time>2026-04-18T15:39:04.771Z</time></trkpt><trkpt lat="43.0708433" lon="11.5815933"><ele>279.0</ele><time>2026-04-18T15:39:05.771Z</time></trkpt><trkpt lat="43.0707583" lon="11.5814133"><ele>277.0</ele><time>2026-04-18T15:39:06.775Z</time></trkpt><trkpt lat="43.07071" lon="11.5812567"><ele>276.2</ele><time>2026-04-18T15:39:07.77Z</time></trkpt><trkpt lat="43.0707083" lon="11.58112"><ele>275.4</ele><time>2026-04-18T15:39:08.773Z</time></trkpt><trkpt lat="43.0707467" lon="11.58102"><ele>274.6</ele><time>2026-04-18T15:39:09.769Z</time></trkpt><trkpt lat="43.07083" lon="11.5809583"><ele>273.8</ele><time>2026-04-18T15:39:10.766Z</time></trkpt><trkpt lat="43.0709467" lon="11.58096"><ele>273.0</ele><time>2026-04-18T15:39:11.771Z</time></trkpt><trkpt lat="43.0710617" lon="11.581045"><ele>273.6666666666667</ele><time>2026-04-18T15:39:12.767Z</time></trkpt><trkpt lat="43.0711733" lon="11.5812283"><ele>274.33333333333337</ele><time>2026-04-18T15:39:13.77Z</time></trkpt><trkpt lat="43.0713033" lon="11.5813817"><ele>275.0</ele><time>2026-04-18T15:39:14.773Z</time></trkpt><trkpt lat="43.0714617" lon="11.581495"><ele>272.6666666666667</ele><time>2026-04-18T15:39:15.769Z</time></trkpt><trkpt lat="43.0716217" lon="11.5816033"><ele>270.3333333333333</ele><time>2026-04-18T15:39:16.771Z</time></trkpt><trkpt lat="43.071755" lon="11.5817167"><ele>268.0</ele><time>2026-04-18T15:39:17.772Z</time></trkpt><trkpt lat="43.071865" lon="11.5818267"><ele>268.0</ele><time>2026-04-18T15:39:18.766Z</time></trkpt><trkpt lat="43.0719617" lon="11.5819217"><ele>268.0</ele><time>2026-04-18T15:39:19.768Z</time></trkpt><trkpt lat="43.0720533" lon="11.5819567"><ele>268.0</ele><time>2026-04-18T15:39:20.77Z</time></trkpt><trkpt lat="43.07215" lon="11.581945"><ele>268.0</ele><time>2026-04-18T15:39:21.77Z</time></trkpt><trkpt lat="43.072235" lon="11.58187"><ele>268.0</ele><time>2026-04-18T15:39:22.77Z</time></trkpt><trkpt lat="43.0722717" lon="11.5817583"><ele>268.0</ele><time>2026-04-18T15:39:23.765Z</time></trkpt><trkpt lat="43.0722733" lon="11.581615"><ele>268.0</ele><time>2026-04-18T15:39:24.77Z</time></trkpt><trkpt lat="43.0722517" lon="11.58146"><ele>268.0</ele><time>2026-04-18T15:39:25.769Z</time></trkpt><trkpt lat="43.0722267" lon="11.5812883"><ele>268.0</ele><time>2026-04-18T15:39:26.77Z</time></trkpt><trkpt lat="43.072155" lon="11.5810317"><ele>266.3333333333333</ele><time>2026-04-18T15:39:27.771Z</time></trkpt><trkpt lat="43.0721483" lon="11.5808117"><ele>264.6666666666667</ele><time>2026-04-18T15:39:28.767Z</time></trkpt><trkpt lat="43.072185" lon="11.5805883"><ele>263.0</ele><time>2026-04-18T15:39:29.769Z</time></trkpt><trkpt lat="43.07223" lon="11.580365"><ele>262.33333333333337</ele><time>2026-04-18T15:39:30.769Z</time></trkpt><trkpt lat="43.0723183" lon="11.58015"><ele>261.6666666666667</ele><time>2026-04-18T15:39:31.767Z</time></trkpt><trkpt lat="43.07245" lon="11.5799483"><ele>261.0</ele><time>2026-04-18T15:39:32.772Z</time></trkpt><trkpt lat="43.0725883" lon="11.5797367"><ele>257.0</ele><time>2026-04-18T15:39:33.769Z</time></trkpt><trkpt lat="43.0727367" lon="11.5794867"><ele>253.0</ele><time>2026-04-18T15:39:34.771Z</time></trkpt><trkpt lat="43.0728783" lon="11.5792233"><ele>253.0</ele><time>2026-04-18T15:39:35.769Z</time></trkpt><trkpt lat="43.0730367" lon="11.5789617"><ele>253.0</ele><time>2026-04-18T15:39:36.767Z</time></trkpt><trkpt lat="43.073195" lon="11.5787183"><ele>252.33333333333331</ele><time>2026-04-18T15:39:37.766Z</time></trkpt><trkpt lat="43.0733417" lon="11.578485"><ele>251.66666666666669</ele><time>2026-04-18T15:39:38.773Z</time></trkpt><trkpt lat="43.073475" lon="11.57826"><ele>251.0</ele><time>2026-04-18T15:39:39.769Z</time></trkpt><trkpt lat="43.0735883" lon="11.57801"><ele>250.0</ele><time>2026-04-18T15:39:40.768Z</time></trkpt><trkpt lat="43.0736583" lon="11.5777217"><ele>249.0</ele><time>2026-04-18T15:39:41.772Z</time></trkpt><trkpt lat="43.0737" lon="11.577405"><ele>249.0</ele><time>2026-04-18T15:39:42.772Z</time></trkpt><trkpt lat="43.0736883" lon="11.57707"><ele>249.0</ele><time>2026-04-18T15:39:43.772Z</time></trkpt><trkpt lat="43.0736383" lon="11.5767267"><ele>249.5</ele><time>2026-04-18T15:39:44.773Z</time></trkpt><trkpt lat="43.0736133" lon="11.576385"><ele>250.0</ele><time>2026-04-18T15:39:45.769Z</time></trkpt><trkpt lat="43.0736267" lon="11.576045"><ele>251.0</ele><time>2026-04-18T15:39:46.772Z</time></trkpt><trkpt lat="43.0736567" lon="11.5757133"><ele>252.0</ele><time>2026-04-18T15:39:47.771Z</time></trkpt><trkpt lat="43.073695" lon="11.5754167"><ele>252.66666666666669</ele><time>2026-04-18T15:39:48.766Z</time></trkpt><trkpt lat="43.07375" lon="11.5751433"><ele>253.33333333333334</ele><time>2026-04-18T15:39:49.77Z</time></trkpt><trkpt lat="43.0738383" lon="11.5748817"><ele>254.0</ele><time>2026-04-18T15:39:50.77Z</time></trkpt><trkpt lat="43.073955" lon="11.5746317"><ele>255.33333333333334</ele><time>2026-04-18T15:39:51.77Z</time></trkpt><trkpt lat="43.0740817" lon="11.5743967"><ele>256.6666666666667</ele><time>2026-04-18T15:39:52.765Z</time></trkpt><trkpt lat="43.0742033" lon="11.5741883"><ele>258.0</ele><time>2026-04-18T15:39:53.77Z</time></trkpt><trkpt lat="43.0743217" lon="11.5740167"><ele>258.0</ele><time>2026-04-18T15:39:54.773Z</time></trkpt><trkpt lat="43.0744517" lon="11.573895"><ele>258.0</ele><time>2026-04-18T15:39:55.769Z</time></trkpt><trkpt lat="43.07461" lon="11.5738267"><ele>258.0</ele><time>2026-04-18T15:39:56.77Z</time></trkpt><trkpt lat="43.074805" lon="11.5738333"><ele>258.3333333333333</ele><time>2026-04-18T15:39:57.768Z</time></trkpt><trkpt lat="43.0750067" lon="11.573835"><ele>258.66666666666663</ele><time>2026-04-18T15:39:58.769Z</time></trkpt><trkpt lat="43.0751867" lon="11.5738033"><ele>259.0</ele><time>2026-04-18T15:39:59.77Z</time></trkpt><trkpt lat="43.0753233" lon="11.57373"><ele>261.0</ele><time>2026-04-18T15:40:00.772Z</time></trkpt><trkpt lat="43.075415" lon="11.5736133"><ele>263.0</ele><time>2026-04-18T15:40:01.772Z</time></trkpt><trkpt lat="43.0754467" lon="11.5734683"><ele>265.0</ele><time>2026-04-18T15:40:02.775Z</time></trkpt><trkpt lat="43.0754233" lon="11.5733067"><ele>267.0</ele><time>2026-04-18T15:40:03.768Z</time></trkpt><trkpt lat="43.0753717" lon="11.5731467"><ele>267.0</ele><time>2026-04-18T15:40:04.771Z</time></trkpt><trkpt lat="43.0753533" lon="11.5729967"><ele>267.0</ele><time>2026-04-18T15:40:05.772Z</time></trkpt><trkpt lat="43.07538" lon="11.572855"><ele>267.0</ele><time>2026-04-18T15:40:06.771Z</time></trkpt><trkpt lat="43.07545" lon="11.5727617"><ele>267.0</ele><time>2026-04-18T15:40:07.771Z</time></trkpt><trkpt lat="43.0755583" lon="11.572745"><ele>267.0</ele><time>2026-04-18T15:40:08.775Z</time></trkpt><trkpt lat="43.0757133" lon="11.5728183"><ele>269.6666666666667</ele><time>2026-04-18T15:40:09.769Z</time></trkpt><trkpt lat="43.0758817" lon="11.5730017"><ele>272.33333333333337</ele><time>2026-04-18T15:40:10.766Z</time></trkpt><trkpt lat="43.0760333" lon="11.5731817"><ele>275.0</ele><time>2026-04-18T15:40:11.77Z</time></trkpt><trkpt lat="43.0761683" lon="11.5733"><ele>275.0</ele><time>2026-04-18T15:40:12.772Z</time></trkpt><trkpt lat="43.0762917" lon="11.57335"><ele>275.0</ele><time>2026-04-18T15:40:13.771Z</time></trkpt><trkpt lat="43.0764183" lon="11.5733483"><ele>275.0</ele><time>2026-04-18T15:40:14.772Z</time></trkpt><trkpt lat="43.07652" lon="11.5732817"><ele>275.0</ele><time>2026-04-18T15:40:15.77Z</time></trkpt><trkpt lat="43.0765733" lon="11.57316"><ele>275.0</ele><time>2026-04-18T15:40:16.771Z</time></trkpt><trkpt lat="43.076585" lon="11.5730267"><ele>275.0</ele><time>2026-04-18T15:40:17.77Z</time></trkpt><trkpt lat="43.0765367" lon="11.572885"><ele>275.0</ele><time>2026-04-18T15:40:18.77Z</time></trkpt><trkpt lat="43.076405" lon="11.5727483"><ele>275.0</ele><time>2026-04-18T15:40:19.771Z</time></trkpt><trkpt lat="43.07624" lon="11.572645"><ele>278.33333333333337</ele><time>2026-04-18T15:40:20.774Z</time></trkpt><trkpt lat="43.0760883" lon="11.5725333"><ele>281.6666666666667</ele><time>2026-04-18T15:40:21.773Z</time></trkpt><trkpt lat="43.0759617" lon="11.5723667"><ele>285.0</ele><time>2026-04-18T15:40:22.763Z</time></trkpt><trkpt lat="43.0758767" lon="11.572175"><ele>284.3333333333333</ele><time>2026-04-18T15:40:23.769Z</time></trkpt><trkpt lat="43.0758317" lon="11.571955"><ele>283.66666666666663</ele><time>2026-04-18T15:40:24.774Z</time></trkpt><trkpt lat="43.0757667" lon="11.5717433"><ele>283.0</ele><time>2026-04-18T15:40:25.77Z</time></trkpt><trkpt lat="43.0756567" lon="11.5715417"><ele>283.0</ele><time>2026-04-18T15:40:26.771Z</time></trkpt><trkpt lat="43.0755317" lon="11.5713367"><ele>283.0</ele><time>2026-04-18T15:40:27.771Z</time></trkpt><trkpt lat="43.07542" lon="11.5711317"><ele>283.0</ele><time>2026-04-18T15:40:28.766Z</time></trkpt><trkpt lat="43.075345" lon="11.570945"><ele>285.25</ele><time>2026-04-18T15:40:29.772Z</time></trkpt><trkpt lat="43.0753033" lon="11.5707733"><ele>287.5</ele><time>2026-04-18T15:40:30.772Z</time></trkpt><trkpt lat="43.0752967" lon="11.57061"><ele>289.75</ele><time>2026-04-18T15:40:31.771Z</time></trkpt><trkpt lat="43.075335" lon="11.5704683"><ele>292.0</ele><time>2026-04-18T15:40:32.774Z</time></trkpt><trkpt lat="43.0754167" lon="11.5703767"><ele>292.0</ele><time>2026-04-18T15:40:33.771Z</time></trkpt><trkpt lat="43.0755383" lon="11.5703417"><ele>292.0</ele><time>2026-04-18T15:40:34.769Z</time></trkpt><trkpt lat="43.0756583" lon="11.5703667"><ele>292.0</ele><time>2026-04-18T15:40:35.772Z</time></trkpt><trkpt lat="43.0758033" lon="11.5705367"><ele>292.0</ele><time>2026-04-18T15:40:36.77Z</time></trkpt><trkpt lat="43.0759683" lon="11.5707933"><ele>293.66666666666663</ele><time>2026-04-18T15:40:37.766Z</time></trkpt><trkpt lat="43.0761183" lon="11.5709783"><ele>295.3333333333333</ele><time>2026-04-18T15:40:38.773Z</time></trkpt><trkpt lat="43.07625" lon="11.57114"><ele>297.0</ele><time>2026-04-18T15:40:39.77Z</time></trkpt><trkpt lat="43.0763867" lon="11.5712483"><ele>297.0</ele><time>2026-04-18T15:40:40.769Z</time></trkpt><trkpt lat="43.0765317" lon="11.5712967"><ele>297.0</ele><time>2026-04-18T15:40:41.77Z</time></trkpt><trkpt lat="43.0766833" lon="11.5713"><ele>297.0</ele><time>2026-04-18T15:40:42.772Z</time></trkpt><trkpt lat="43.076835" lon="11.5712317"><ele>304.0</ele><time>2026-04-18T15:40:43.77Z</time></trkpt><trkpt lat="43.0769883" lon="11.5710983"><ele>311.0</ele><time>2026-04-18T15:40:44.775Z</time></trkpt><trkpt lat="43.0771433" lon="11.570935"><ele>318.0</ele><time>2026-04-18T15:40:45.77Z</time></trkpt><trkpt lat="43.0773083" lon="11.5707733"><ele>318.0</ele><time>2026-04-18T15:40:46.772Z</time></trkpt><trkpt lat="43.077495" lon="11.5706333"><ele>318.0</ele><time>2026-04-18T15:40:47.77Z</time></trkpt><trkpt lat="43.0776933" lon="11.5705017"><ele>318.0</ele><time>2026-04-18T15:40:48.767Z</time></trkpt><trkpt lat="43.0778917" lon="11.5703717"><ele>322.3333333333333</ele><time>2026-04-18T15:40:49.767Z</time></trkpt><trkpt lat="43.0780917" lon="11.5702467"><ele>326.66666666666663</ele><time>2026-04-18T15:40:50.771Z</time></trkpt><trkpt lat="43.07828" lon="11.5701283"><ele>331.0</ele><time>2026-04-18T15:40:51.768Z</time></trkpt><trkpt lat="43.07846" lon="11.570025"><ele>331.3333333333333</ele><time>2026-04-18T15:40:52.766Z</time></trkpt><trkpt lat="43.0786333" lon="11.56995"><ele>331.6666666666667</ele><time>2026-04-18T15:40:53.769Z</time></trkpt><trkpt lat="43.078815" lon="11.5699133"><ele>332.0</ele><time>2026-04-18T15:40:54.77Z</time></trkpt><trkpt lat="43.0790017" lon="11.56992"><ele>331.6666666666667</ele><time>2026-04-18T15:40:55.765Z</time></trkpt><trkpt lat="43.0792033" lon="11.5699633"><ele>331.3333333333333</ele><time>2026-04-18T15:40:56.767Z</time></trkpt><trkpt lat="43.0794117" lon="11.5700133"><ele>331.0</ele><time>2026-04-18T15:40:57.77Z</time></trkpt><trkpt lat="43.0796217" lon="11.5700683"><ele>331.0</ele><time>2026-04-18T15:40:58.766Z</time></trkpt><trkpt lat="43.07983" lon="11.5701267"><ele>331.0</ele><time>2026-04-18T15:40:59.772Z</time></trkpt><trkpt lat="43.080025" lon="11.57019"><ele>331.0</ele><time>2026-04-18T15:41:00.766Z</time></trkpt><trkpt lat="43.080215" lon="11.5702483"><ele>330.0</ele><time>2026-04-18T15:41:01.77Z</time></trkpt><trkpt lat="43.0803983" lon="11.5702867"><ele>329.0</ele><time>2026-04-18T15:41:02.766Z</time></trkpt><trkpt lat="43.0805817" lon="11.5702867"><ele>328.0</ele><time>2026-04-18T15:41:03.767Z</time></trkpt><trkpt lat="43.08076" lon="11.5702517"><ele>329.3333333333333</ele><time>2026-04-18T15:41:04.764Z</time></trkpt><trkpt lat="43.0809183" lon="11.5701667"><ele>330.6666666666667</ele><time>2026-04-18T15:41:05.769Z</time></trkpt><trkpt lat="43.0810467" lon="11.570025"><ele>332.0</ele><time>2026-04-18T15:41:06.766Z</time></trkpt><trkpt lat="43.0811433" lon="11.56983"><ele>332.0</ele><time>2026-04-18T15:41:07.769Z</time></trkpt><trkpt lat="43.0812367" lon="11.5696117"><ele>332.0</ele><time>2026-04-18T15:41:08.772Z</time></trkpt><trkpt lat="43.08133" lon="11.569375"><ele>332.0</ele><time>2026-04-18T15:41:09.77Z</time></trkpt><trkpt lat="43.0814167" lon="11.5691233"><ele>328.33333333333337</ele><time>2026-04-18T15:41:10.77Z</time></trkpt><trkpt lat="43.0814967" lon="11.5688533"><ele>324.6666666666667</ele><time>2026-04-18T15:41:11.767Z</time></trkpt><trkpt lat="43.0815617" lon="11.56857"><ele>321.0</ele><time>2026-04-18T15:41:12.77Z</time></trkpt><trkpt lat="43.0815983" lon="11.5682767"><ele>323.3333333333333</ele><time>2026-04-18T15:41:13.769Z</time></trkpt><trkpt lat="43.0816117" lon="11.567985"><ele>325.66666666666663</ele><time>2026-04-18T15:41:14.772Z</time></trkpt><trkpt lat="43.0816267" lon="11.5677067"><ele>328.0</ele><time>2026-04-18T15:41:15.772Z</time></trkpt><trkpt lat="43.0816517" lon="11.567435"><ele>328.0</ele><time>2026-04-18T15:41:16.77Z</time></trkpt><trkpt lat="43.0817017" lon="11.5671667"><ele>328.0</ele><time>2026-04-18T15:41:17.768Z</time></trkpt><trkpt lat="43.0817683" lon="11.56691"><ele>328.0</ele><time>2026-04-18T15:41:18.769Z</time></trkpt><trkpt lat="43.0819633" lon="11.5664367"><ele>325.0</ele><time>2026-04-18T15:41:20.767Z</time></trkpt><trkpt lat="43.0821033" lon="11.5662167"><ele>322.0</ele><time>2026-04-18T15:41:21.768Z</time></trkpt><trkpt lat="43.0822533" lon="11.56599"><ele>319.0</ele><time>2026-04-18T15:41:22.769Z</time></trkpt><trkpt lat="43.08241" lon="11.5657567"><ele>317.0</ele><time>2026-04-18T15:41:23.77Z</time></trkpt><trkpt lat="43.082565" lon="11.5655217"><ele>315.0</ele><time>2026-04-18T15:41:24.771Z</time></trkpt><trkpt lat="43.0827083" lon="11.5652733"><ele>311.0</ele><time>2026-04-18T15:41:25.771Z</time></trkpt><trkpt lat="43.0828383" lon="11.565005"><ele>307.0</ele><time>2026-04-18T15:41:26.772Z</time></trkpt><trkpt lat="43.082955" lon="11.56471"><ele>304.0</ele><time>2026-04-18T15:41:27.77Z</time></trkpt><trkpt lat="43.08307" lon="11.5644033"><ele>301.0</ele><time>2026-04-18T15:41:28.772Z</time></trkpt><trkpt lat="43.08319" lon="11.5640967"><ele>301.0</ele><time>2026-04-18T15:41:29.766Z</time></trkpt><trkpt lat="43.0833167" lon="11.5638117"><ele>301.0</ele><time>2026-04-18T15:41:30.771Z</time></trkpt><trkpt lat="43.083445" lon="11.5635567"><ele>301.0</ele><time>2026-04-18T15:41:31.771Z</time></trkpt><trkpt lat="43.0835817" lon="11.563335"><ele>301.0</ele><time>2026-04-18T15:41:32.771Z</time></trkpt><trkpt lat="43.083735" lon="11.5631467"><ele>301.0</ele><time>2026-04-18T15:41:33.767Z</time></trkpt><trkpt lat="43.0839117" lon="11.5629967"><ele>300.66666666666663</ele><time>2026-04-18T15:41:34.766Z</time></trkpt><trkpt lat="43.0841017" lon="11.56289"><ele>300.3333333333333</ele><time>2026-04-18T15:41:35.767Z</time></trkpt><trkpt lat="43.0843" lon="11.5628233"><ele>300.0</ele><time>2026-04-18T15:41:36.771Z</time></trkpt><trkpt lat="43.0845183" lon="11.5628117"><ele>300.3333333333333</ele><time>2026-04-18T15:41:37.772Z</time></trkpt><trkpt lat="43.0847183" lon="11.5628033"><ele>300.66666666666663</ele><time>2026-04-18T15:41:38.767Z</time></trkpt><trkpt lat="43.0848883" lon="11.5627617"><ele>301.0</ele><time>2026-04-18T15:41:39.766Z</time></trkpt><trkpt lat="43.0850183" lon="11.5626717"><ele>301.0</ele><time>2026-04-18T15:41:40.765Z</time></trkpt><trkpt lat="43.0851233" lon="11.5625317"><ele>301.0</ele><time>2026-04-18T15:41:41.771Z</time></trkpt><trkpt lat="43.0851767" lon="11.5623383"><ele>301.0</ele><time>2026-04-18T15:41:42.767Z</time></trkpt><trkpt lat="43.08516" lon="11.5621167"><ele>300.0</ele><time>2026-04-18T15:41:43.771Z</time></trkpt><trkpt lat="43.0851083" lon="11.56189"><ele>299.0</ele><time>2026-04-18T15:41:44.774Z</time></trkpt><trkpt lat="43.0850183" lon="11.5616833"><ele>298.0</ele><time>2026-04-18T15:41:45.769Z</time></trkpt><trkpt lat="43.0849317" lon="11.5614933"><ele>298.25</ele><time>2026-04-18T15:41:46.771Z</time></trkpt><trkpt lat="43.0848717" lon="11.5613233"><ele>298.5</ele><time>2026-04-18T15:41:47.771Z</time></trkpt><trkpt lat="43.084845" lon="11.56117"><ele>298.75</ele><time>2026-04-18T15:41:48.77Z</time></trkpt><trkpt lat="43.0848533" lon="11.561035"><ele>299.0</ele><time>2026-04-18T15:41:49.771Z</time></trkpt><trkpt lat="43.0849217" lon="11.56092"><ele>297.0</ele><time>2026-04-18T15:41:50.77Z</time></trkpt><trkpt lat="43.08502" lon="11.560825"><ele>295.0</ele><time>2026-04-18T15:41:51.772Z</time></trkpt><trkpt lat="43.085105" lon="11.5607117"><ele>293.0</ele><time>2026-04-18T15:41:52.765Z</time></trkpt><trkpt lat="43.0851467" lon="11.56057"><ele>291.0</ele><time>2026-04-18T15:41:53.766Z</time></trkpt><trkpt lat="43.0851383" lon="11.560425"><ele>290.25</ele><time>2026-04-18T15:41:54.775Z</time></trkpt><trkpt lat="43.085075" lon="11.5602917"><ele>289.5</ele><time>2026-04-18T15:41:55.767Z</time></trkpt><trkpt lat="43.0849783" lon="11.5601783"><ele>288.75</ele><time>2026-04-18T15:41:56.773Z</time></trkpt><trkpt lat="43.084885" lon="11.56007"><ele>288.0</ele><time>2026-04-18T15:41:57.767Z</time></trkpt><trkpt lat="43.0848267" lon="11.5599433"><ele>288.0</ele><time>2026-04-18T15:41:58.772Z</time></trkpt><trkpt lat="43.0848067" lon="11.5597883"><ele>288.0</ele><time>2026-04-18T15:41:59.771Z</time></trkpt><trkpt lat="43.084835" lon="11.5596267"><ele>288.0</ele><time>2026-04-18T15:42:00.771Z</time></trkpt><trkpt lat="43.0848533" lon="11.559475"><ele>288.0</ele><time>2026-04-18T15:42:01.766Z</time></trkpt><trkpt lat="43.084835" lon="11.5593417"><ele>288.0</ele><time>2026-04-18T15:42:02.772Z</time></trkpt><trkpt lat="43.084775" lon="11.5592267"><ele>286.6</ele><time>2026-04-18T15:42:03.772Z</time></trkpt><trkpt lat="43.0846917" lon="11.55916"><ele>285.20000000000005</ele><time>2026-04-18T15:42:04.77Z</time></trkpt><trkpt lat="43.0845817" lon="11.5591117"><ele>283.8</ele><time>2026-04-18T15:42:05.772Z</time></trkpt><trkpt lat="43.0844783" lon="11.559035"><ele>282.40000000000003</ele><time>2026-04-18T15:42:06.771Z</time></trkpt><trkpt lat="43.084405" lon="11.5589217"><ele>281.0</ele><time>2026-04-18T15:42:07.772Z</time></trkpt><trkpt lat="43.0843633" lon="11.5587717"><ele>280.0</ele><time>2026-04-18T15:42:08.773Z</time></trkpt><trkpt lat="43.0843533" lon="11.5585833"><ele>279.0</ele><time>2026-04-18T15:42:09.772Z</time></trkpt><trkpt lat="43.08439" lon="11.5583517"><ele>278.0</ele><time>2026-04-18T15:42:10.77Z</time></trkpt><trkpt lat="43.0844633" lon="11.55811"><ele>278.0</ele><time>2026-04-18T15:42:11.771Z</time></trkpt><trkpt lat="43.08452" lon="11.5578767"><ele>278.0</ele><time>2026-04-18T15:42:12.773Z</time></trkpt><trkpt lat="43.0845583" lon="11.5576517"><ele>278.0</ele><time>2026-04-18T15:42:13.769Z</time></trkpt><trkpt lat="43.0845733" lon="11.55742"><ele>276.33333333333337</ele><time>2026-04-18T15:42:14.775Z</time></trkpt><trkpt lat="43.0845733" lon="11.55719"><ele>274.6666666666667</ele><time>2026-04-18T15:42:15.77Z</time></trkpt><trkpt lat="43.0845367" lon="11.5569717"><ele>273.0</ele><time>2026-04-18T15:42:16.768Z</time></trkpt><trkpt lat="43.08447" lon="11.55678"><ele>270.3333333333333</ele><time>2026-04-18T15:42:17.771Z</time></trkpt><trkpt lat="43.0843733" lon="11.5566117"><ele>267.66666666666663</ele><time>2026-04-18T15:42:18.769Z</time></trkpt><trkpt lat="43.08424" lon="11.556475"><ele>265.0</ele><time>2026-04-18T15:42:19.769Z</time></trkpt><trkpt lat="43.0840867" lon="11.5563733"><ele>261.66666666666663</ele><time>2026-04-18T15:42:20.773Z</time></trkpt><trkpt lat="43.0839283" lon="11.556295"><ele>258.3333333333333</ele><time>2026-04-18T15:42:21.77Z</time></trkpt><trkpt lat="43.0837817" lon="11.5562433"><ele>255.0</ele><time>2026-04-18T15:42:22.77Z</time></trkpt><trkpt lat="43.0836567" lon="11.5561783"><ele>255.0</ele><time>2026-04-18T15:42:23.77Z</time></trkpt><trkpt lat="43.083555" lon="11.5560683"><ele>255.0</ele><time>2026-04-18T15:42:24.765Z</time></trkpt><trkpt lat="43.0834917" lon="11.5559083"><ele>255.0</ele><time>2026-04-18T15:42:25.774Z</time></trkpt><trkpt lat="43.0834717" lon="11.5556867"><ele>255.0</ele><time>2026-04-18T15:42:26.775Z</time></trkpt><trkpt lat="43.08349" lon="11.5554417"><ele>253.66666666666669</ele><time>2026-04-18T15:42:27.773Z</time></trkpt><trkpt lat="43.0835283" lon="11.5551983"><ele>252.33333333333334</ele><time>2026-04-18T15:42:28.771Z</time></trkpt><trkpt lat="43.08356" lon="11.5549633"><ele>251.0</ele><time>2026-04-18T15:42:29.768Z</time></trkpt><trkpt lat="43.0836" lon="11.5547233"><ele>249.33333333333334</ele><time>2026-04-18T15:42:30.771Z</time></trkpt><trkpt lat="43.083635" lon="11.5544867"><ele>247.66666666666669</ele><time>2026-04-18T15:42:31.772Z</time></trkpt><trkpt lat="43.0836667" lon="11.5542617"><ele>246.0</ele><time>2026-04-18T15:42:32.774Z</time></trkpt><trkpt lat="43.0836983" lon="11.5540517"><ele>246.0</ele><time>2026-04-18T15:42:33.771Z</time></trkpt><trkpt lat="43.083735" lon="11.55385"><ele>246.0</ele><time>2026-04-18T15:42:34.77Z</time></trkpt><trkpt lat="43.0837683" lon="11.5536467"><ele>246.0</ele><time>2026-04-18T15:42:35.771Z</time></trkpt><trkpt lat="43.0838017" lon="11.5534483"><ele>245.25</ele><time>2026-04-18T15:42:36.771Z</time></trkpt><trkpt lat="43.0838367" lon="11.5532533"><ele>244.5</ele><time>2026-04-18T15:42:37.77Z</time></trkpt><trkpt lat="43.0838767" lon="11.5530533"><ele>243.75</ele><time>2026-04-18T15:42:38.775Z</time></trkpt><trkpt lat="43.0839267" lon="11.55286"><ele>243.0</ele><time>2026-04-18T15:42:39.768Z</time></trkpt><trkpt lat="43.0839867" lon="11.552675"><ele>242.75</ele><time>2026-04-18T15:42:40.768Z</time></trkpt><trkpt lat="43.0840517" lon="11.5525033"><ele>242.5</ele><time>2026-04-18T15:42:41.773Z</time></trkpt><trkpt lat="43.0841167" lon="11.5523417"><ele>242.25</ele><time>2026-04-18T15:42:42.772Z</time></trkpt><trkpt lat="43.0841817" lon="11.5521933"><ele>242.0</ele><time>2026-04-18T15:42:43.771Z</time></trkpt><trkpt lat="43.0842517" lon="11.55206"><ele>243.0</ele><time>2026-04-18T15:42:44.773Z</time></trkpt><trkpt lat="43.08433" lon="11.55194"><ele>244.0</ele><time>2026-04-18T15:42:45.77Z</time></trkpt><trkpt lat="43.084415" lon="11.551825"><ele>245.0</ele><time>2026-04-18T15:42:46.772Z</time></trkpt><trkpt lat="43.084495" lon="11.5517117"><ele>246.0</ele><time>2026-04-18T15:42:47.77Z</time></trkpt><trkpt lat="43.0845717" lon="11.5515967"><ele>246.0</ele><time>2026-04-18T15:42:48.77Z</time></trkpt><trkpt lat="43.0846417" lon="11.5514867"><ele>246.00000000000003</ele><time>2026-04-18T15:42:49.77Z</time></trkpt><trkpt lat="43.084715" lon="11.5513817"><ele>246.00000000000003</ele><time>2026-04-18T15:42:50.773Z</time></trkpt><trkpt lat="43.0847867" lon="11.5512817"><ele>246.0</ele><time>2026-04-18T15:42:51.772Z</time></trkpt><trkpt lat="43.084855" lon="11.5511833"><ele>246.0</ele><time>2026-04-18T15:42:52.766Z</time></trkpt><trkpt lat="43.084915" lon="11.55109"><ele>246.4</ele><time>2026-04-18T15:42:53.77Z</time></trkpt><trkpt lat="43.084965" lon="11.5510017"><ele>246.8</ele><time>2026-04-18T15:42:54.768Z</time></trkpt><trkpt lat="43.0850083" lon="11.550925"><ele>247.20000000000002</ele><time>2026-04-18T15:42:55.771Z</time></trkpt><trkpt lat="43.0850517" lon="11.55086"><ele>247.60000000000002</ele><time>2026-04-18T15:42:56.773Z</time></trkpt><trkpt lat="43.0851317" lon="11.550745"><ele>248.0</ele><time>2026-04-18T15:42:58.765Z</time></trkpt><trkpt lat="43.0852167" lon="11.5506083"><ele>248.0</ele><time>2026-04-18T15:43:00.772Z</time></trkpt><trkpt lat="43.0852567" lon="11.5505317"><ele>248.00000000000003</ele><time>2026-04-18T15:43:01.771Z</time></trkpt><trkpt lat="43.08531" lon="11.55046"><ele>248.0</ele><time>2026-04-18T15:43:02.772Z</time></trkpt><trkpt lat="43.085355" lon="11.55039"><ele>248.0</ele><time>2026-04-18T15:43:03.766Z</time></trkpt><trkpt lat="43.0854" lon="11.5503167"><ele>248.00000000000003</ele><time>2026-04-18T15:43:04.765Z</time></trkpt><trkpt lat="43.08545" lon="11.55024"><ele>248.0</ele><time>2026-04-18T15:43:05.766Z</time></trkpt><trkpt lat="43.085495" lon="11.5501617"><ele>248.0</ele><time>2026-04-18T15:43:06.771Z</time></trkpt><trkpt lat="43.085535" lon="11.550085"><ele>248.2857142857143</ele><time>2026-04-18T15:43:07.768Z</time></trkpt><trkpt lat="43.0855767" lon="11.5500117"><ele>248.5714285714286</ele><time>2026-04-18T15:43:08.771Z</time></trkpt><trkpt lat="43.0856183" lon="11.5499467"><ele>248.85714285714286</ele><time>2026-04-18T15:43:09.772Z</time></trkpt><trkpt lat="43.0856667" lon="11.5498867"><ele>249.14285714285717</ele><time>2026-04-18T15:43:10.766Z</time></trkpt><trkpt lat="43.0857117" lon="11.5498133"><ele>249.42857142857144</ele><time>2026-04-18T15:43:11.772Z</time></trkpt><trkpt lat="43.08576" lon="11.5497433"><ele>249.71428571428572</ele><time>2026-04-18T15:43:12.767Z</time></trkpt><trkpt lat="43.0858083" lon="11.549675"><ele>250.0</ele><time>2026-04-18T15:43:13.771Z</time></trkpt><trkpt lat="43.0858833" lon="11.549575"><ele>251.33333333333331</ele><time>2026-04-18T15:43:15.772Z</time></trkpt><trkpt lat="43.0859283" lon="11.5495033"><ele>252.66666666666666</ele><time>2026-04-18T15:43:17.77Z</time></trkpt><trkpt lat="43.0859933" lon="11.5494483"><ele>254.0</ele><time>2026-04-18T15:43:19.767Z</time></trkpt><trkpt lat="43.0860867" lon="11.5494117"><ele>255.33333333333331</ele><time>2026-04-18T15:43:21.77Z</time></trkpt><trkpt lat="43.086155" lon="11.549405"><ele>256.6666666666667</ele><time>2026-04-18T15:43:22.77Z</time></trkpt><trkpt lat="43.0862333" lon="11.5493967"><ele>258.0</ele><time>2026-04-18T15:43:23.77Z</time></trkpt><trkpt lat="43.0863083" lon="11.54939"><ele>258.0</ele><time>2026-04-18T15:43:24.766Z</time></trkpt><trkpt lat="43.0863917" lon="11.54938"><ele>258.0</ele><time>2026-04-18T15:43:25.767Z</time></trkpt><trkpt lat="43.086485" lon="11.5493783"><ele>258.0</ele><time>2026-04-18T15:43:26.77Z</time></trkpt><trkpt lat="43.086585" lon="11.549375"><ele>258.0</ele><time>2026-04-18T15:43:27.768Z</time></trkpt><trkpt lat="43.0866867" lon="11.5493717"><ele>258.0</ele><time>2026-04-18T15:43:28.766Z</time></trkpt><trkpt lat="43.0867817" lon="11.5493717"><ele>258.4</ele><time>2026-04-18T15:43:29.771Z</time></trkpt><trkpt lat="43.086875" lon="11.549365"><ele>258.8</ele><time>2026-04-18T15:43:30.767Z</time></trkpt><trkpt lat="43.08698" lon="11.5493633"><ele>259.2</ele><time>2026-04-18T15:43:31.771Z</time></trkpt><trkpt lat="43.08708" lon="11.5493683"><ele>259.6</ele><time>2026-04-18T15:43:32.774Z</time></trkpt><trkpt lat="43.0871817" lon="11.5493767"><ele>260.0</ele><time>2026-04-18T15:43:33.77Z</time></trkpt><trkpt lat="43.0872867" lon="11.5493967"><ele>260.0</ele><time>2026-04-18T15:43:34.771Z</time></trkpt><trkpt lat="43.0873983" lon="11.5494317"><ele>260.0</ele><time>2026-04-18T15:43:35.76Z</time></trkpt><trkpt lat="43.087505" lon="11.5494983"><ele>260.0</ele><time>2026-04-18T15:43:36.76Z</time></trkpt><trkpt lat="43.0876183" lon="11.5495933"><ele>260.0</ele><time>2026-04-18T15:43:37.769Z</time></trkpt><trkpt lat="43.0877367" lon="11.54971"><ele>258.33333333333337</ele><time>2026-04-18T15:43:38.772Z</time></trkpt><trkpt lat="43.0878533" lon="11.54984"><ele>256.6666666666667</ele><time>2026-04-18T15:43:39.77Z</time></trkpt><trkpt lat="43.0879617" lon="11.5499717"><ele>255.0</ele><time>2026-04-18T15:43:40.77Z</time></trkpt><trkpt lat="43.08809" lon="11.5501117"><ele>255.0</ele><time>2026-04-18T15:43:41.773Z</time></trkpt><trkpt lat="43.0882167" lon="11.5502617"><ele>255.0</ele><time>2026-04-18T15:43:42.771Z</time></trkpt><trkpt lat="43.0883417" lon="11.550415"><ele>255.0</ele><time>2026-04-18T15:43:43.771Z</time></trkpt><trkpt lat="43.0884667" lon="11.55057"><ele>255.0</ele><time>2026-04-18T15:43:44.775Z</time></trkpt><trkpt lat="43.08859" lon="11.550735"><ele>255.0</ele><time>2026-04-18T15:43:45.771Z</time></trkpt><trkpt lat="43.0887183" lon="11.5509033"><ele>255.0</ele><time>2026-04-18T15:43:46.771Z</time></trkpt><trkpt lat="43.08885" lon="11.5510783"><ele>255.0</ele><time>2026-04-18T15:43:47.771Z</time></trkpt><trkpt lat="43.0889867" lon="11.5512517"><ele>255.0</ele><time>2026-04-18T15:43:48.77Z</time></trkpt><trkpt lat="43.0891267" lon="11.5514133"><ele>255.0</ele><time>2026-04-18T15:43:49.77Z</time></trkpt><trkpt lat="43.0892783" lon="11.55156"><ele>255.0</ele><time>2026-04-18T15:43:50.773Z</time></trkpt><trkpt lat="43.0894317" lon="11.551695"><ele>255.0</ele><time>2026-04-18T15:43:51.773Z</time></trkpt><trkpt lat="43.08958" lon="11.5518317"><ele>255.0</ele><time>2026-04-18T15:43:52.771Z</time></trkpt><trkpt lat="43.0897167" lon="11.552"><ele>255.33333333333331</ele><time>2026-04-18T15:43:53.772Z</time></trkpt><trkpt lat="43.0898333" lon="11.5522133"><ele>255.66666666666666</ele><time>2026-04-18T15:43:54.771Z</time></trkpt><trkpt lat="43.0899217" lon="11.5524683"><ele>256.0</ele><time>2026-04-18T15:43:55.77Z</time></trkpt><trkpt lat="43.0899867" lon="11.5527217"><ele>255.0</ele><time>2026-04-18T15:43:56.775Z</time></trkpt><trkpt lat="43.0900417" lon="11.55297"><ele>254.0</ele><time>2026-04-18T15:43:57.771Z</time></trkpt><trkpt lat="43.0901117" lon="11.5532083"><ele>253.0</ele><time>2026-04-18T15:43:58.77Z</time></trkpt><trkpt lat="43.0901967" lon="11.5534583"><ele>253.0</ele><time>2026-04-18T15:43:59.771Z</time></trkpt><trkpt lat="43.0902983" lon="11.5537017"><ele>253.0</ele><time>2026-04-18T15:44:00.771Z</time></trkpt><trkpt lat="43.0904083" lon="11.5539383"><ele>253.0</ele><time>2026-04-18T15:44:01.772Z</time></trkpt><trkpt lat="43.0905217" lon="11.5541867"><ele>252.33333333333331</ele><time>2026-04-18T15:44:02.77Z</time></trkpt><trkpt lat="43.0906383" lon="11.5544417"><ele>251.66666666666669</ele><time>2026-04-18T15:44:03.77Z</time></trkpt><trkpt lat="43.0907617" lon="11.55469"><ele>251.0</ele><time>2026-04-18T15:44:04.77Z</time></trkpt><trkpt lat="43.0908883" lon="11.5549267"><ele>251.0</ele><time>2026-04-18T15:44:05.77Z</time></trkpt><trkpt lat="43.0910167" lon="11.5551583"><ele>251.0</ele><time>2026-04-18T15:44:06.771Z</time></trkpt><trkpt lat="43.091155" lon="11.5553717"><ele>251.0</ele><time>2026-04-18T15:44:07.771Z</time></trkpt><trkpt lat="43.0912917" lon="11.555565"><ele>251.66666666666669</ele><time>2026-04-18T15:44:08.771Z</time></trkpt><trkpt lat="43.09143" lon="11.5557417"><ele>252.33333333333331</ele><time>2026-04-18T15:44:09.771Z</time></trkpt><trkpt lat="43.09157" lon="11.5559167"><ele>253.0</ele><time>2026-04-18T15:44:10.769Z</time></trkpt><trkpt lat="43.0917117" lon="11.5560917"><ele>251.66666666666666</ele><time>2026-04-18T15:44:11.773Z</time></trkpt><trkpt lat="43.0918533" lon="11.556265"><ele>250.33333333333331</ele><time>2026-04-18T15:44:12.772Z</time></trkpt><trkpt lat="43.0920083" lon="11.5564417"><ele>249.0</ele><time>2026-04-18T15:44:13.771Z</time></trkpt><trkpt lat="43.0921783" lon="11.5566217"><ele>249.0</ele><time>2026-04-18T15:44:14.774Z</time></trkpt><trkpt lat="43.0923633" lon="11.5568183"><ele>249.0</ele><time>2026-04-18T15:44:15.77Z</time></trkpt><trkpt lat="43.09255" lon="11.5570233"><ele>249.0</ele><time>2026-04-18T15:44:16.765Z</time></trkpt><trkpt lat="43.0927267" lon="11.55723"><ele>249.0</ele><time>2026-04-18T15:44:17.77Z</time></trkpt><trkpt lat="43.092895" lon="11.5574217"><ele>249.0</ele><time>2026-04-18T15:44:18.768Z</time></trkpt><trkpt lat="43.0930617" lon="11.5576033"><ele>249.0</ele><time>2026-04-18T15:44:19.772Z</time></trkpt><trkpt lat="43.0932317" lon="11.5577783"><ele>249.0</ele><time>2026-04-18T15:44:20.774Z</time></trkpt><trkpt lat="43.09341" lon="11.5579533"><ele>249.33333333333331</ele><time>2026-04-18T15:44:21.769Z</time></trkpt><trkpt lat="43.0935883" lon="11.5581317"><ele>249.66666666666666</ele><time>2026-04-18T15:44:22.771Z</time></trkpt><trkpt lat="43.093765" lon="11.5583233"><ele>250.0</ele><time>2026-04-18T15:44:23.761Z</time></trkpt><trkpt lat="43.093935" lon="11.5585233"><ele>251.0</ele><time>2026-04-18T15:44:24.774Z</time></trkpt><trkpt lat="43.0940983" lon="11.558735"><ele>252.0</ele><time>2026-04-18T15:44:25.771Z</time></trkpt><trkpt lat="43.0942567" lon="11.558955"><ele>252.0</ele><time>2026-04-18T15:44:26.771Z</time></trkpt><trkpt lat="43.094415" lon="11.5591783"><ele>252.0</ele><time>2026-04-18T15:44:27.771Z</time></trkpt><trkpt lat="43.0945733" lon="11.5594017"><ele>251.0</ele><time>2026-04-18T15:44:28.769Z</time></trkpt><trkpt lat="43.0947367" lon="11.5596283"><ele>250.0</ele><time>2026-04-18T15:44:29.769Z</time></trkpt><trkpt lat="43.0949017" lon="11.5598583"><ele>251.5</ele><time>2026-04-18T15:44:30.772Z</time></trkpt><trkpt lat="43.095065" lon="11.56009"><ele>253.0</ele><time>2026-04-18T15:44:31.766Z</time></trkpt><trkpt lat="43.0952333" lon="11.5603233"><ele>251.5</ele><time>2026-04-18T15:44:32.771Z</time></trkpt><trkpt lat="43.09541" lon="11.5605483"><ele>250.0</ele><time>2026-04-18T15:44:33.77Z</time></trkpt><trkpt lat="43.095595" lon="11.5607617"><ele>254.5</ele><time>2026-04-18T15:44:34.771Z</time></trkpt><trkpt lat="43.095785" lon="11.56096"><ele>259.0</ele><time>2026-04-18T15:44:35.77Z</time></trkpt><trkpt lat="43.0959817" lon="11.5611483"><ele>254.5</ele><time>2026-04-18T15:44:36.77Z</time></trkpt><trkpt lat="43.0961833" lon="11.561325"><ele>250.0</ele><time>2026-04-18T15:44:37.77Z</time></trkpt><trkpt lat="43.0963983" lon="11.561485"><ele>254.5</ele><time>2026-04-18T15:44:38.771Z</time></trkpt><trkpt lat="43.09662" lon="11.561645"><ele>259.0</ele><time>2026-04-18T15:44:39.77Z</time></trkpt><trkpt lat="43.09685" lon="11.561805"><ele>259.0</ele><time>2026-04-18T15:44:40.769Z</time></trkpt><trkpt lat="43.09708" lon="11.5619533"><ele>259.0</ele><time>2026-04-18T15:44:41.77Z</time></trkpt><trkpt lat="43.0972983" lon="11.5620917"><ele>256.0</ele><time>2026-04-18T15:44:42.771Z</time></trkpt><trkpt lat="43.0975067" lon="11.5622267"><ele>253.0</ele><time>2026-04-18T15:44:43.769Z</time></trkpt><trkpt lat="43.097705" lon="11.5623567"><ele>253.0</ele><time>2026-04-18T15:44:44.771Z</time></trkpt><trkpt lat="43.0979017" lon="11.5624833"><ele>253.0</ele><time>2026-04-18T15:44:45.771Z</time></trkpt><trkpt lat="43.098095" lon="11.5626133"><ele>253.0</ele><time>2026-04-18T15:44:46.768Z</time></trkpt><trkpt lat="43.09829" lon="11.5627417"><ele>252.66666666666666</ele><time>2026-04-18T15:44:47.772Z</time></trkpt><trkpt lat="43.0984817" lon="11.5628617"><ele>252.33333333333331</ele><time>2026-04-18T15:44:48.768Z</time></trkpt><trkpt lat="43.09867" lon="11.562975"><ele>252.0</ele><time>2026-04-18T15:44:49.77Z</time></trkpt><trkpt lat="43.098865" lon="11.56308"><ele>252.0</ele><time>2026-04-18T15:44:50.772Z</time></trkpt><trkpt lat="43.0990767" lon="11.5631767"><ele>252.0</ele><time>2026-04-18T15:44:51.77Z</time></trkpt><trkpt lat="43.0993017" lon="11.5632667"><ele>254.0</ele><time>2026-04-18T15:44:52.77Z</time></trkpt><trkpt lat="43.0995417" lon="11.56336"><ele>256.0</ele><time>2026-04-18T15:44:53.77Z</time></trkpt><trkpt lat="43.09979" lon="11.563465"><ele>256.5</ele><time>2026-04-18T15:44:54.772Z</time></trkpt><trkpt lat="43.1000367" lon="11.5635667"><ele>257.0</ele><time>2026-04-18T15:44:55.771Z</time></trkpt><trkpt lat="43.1002867" lon="11.5636633"><ele>255.5</ele><time>2026-04-18T15:44:56.776Z</time></trkpt><trkpt lat="43.1005417" lon="11.56376"><ele>254.0</ele><time>2026-04-18T15:44:57.771Z</time></trkpt><trkpt lat="43.1008017" lon="11.5638517"><ele>254.0</ele><time>2026-04-18T15:44:58.77Z</time></trkpt><trkpt lat="43.10106" lon="11.5639583"><ele>254.0</ele><time>2026-04-18T15:44:59.769Z</time></trkpt><trkpt lat="43.1013133" lon="11.5641017"><ele>254.0</ele><time>2026-04-18T15:45:00.771Z</time></trkpt><trkpt lat="43.1015567" lon="11.5642833"><ele>254.0</ele><time>2026-04-18T15:45:01.772Z</time></trkpt><trkpt lat="43.1017833" lon="11.5644967"><ele>253.0</ele><time>2026-04-18T15:45:02.774Z</time></trkpt><trkpt lat="43.1020017" lon="11.5647483"><ele>252.0</ele><time>2026-04-18T15:45:03.769Z</time></trkpt><trkpt lat="43.10221" lon="11.5650183"><ele>252.0</ele><time>2026-04-18T15:45:04.771Z</time></trkpt><trkpt lat="43.1024117" lon="11.5652983"><ele>252.0</ele><time>2026-04-18T15:45:05.769Z</time></trkpt><trkpt lat="43.1026167" lon="11.5655917"><ele>252.0</ele><time>2026-04-18T15:45:06.77Z</time></trkpt><trkpt lat="43.1028233" lon="11.5658683"><ele>252.0</ele><time>2026-04-18T15:45:07.768Z</time></trkpt><trkpt lat="43.1030467" lon="11.566115"><ele>252.0</ele><time>2026-04-18T15:45:08.773Z</time></trkpt><trkpt lat="43.1032867" lon="11.566315"><ele>252.0</ele><time>2026-04-18T15:45:09.769Z</time></trkpt><trkpt lat="43.103545" lon="11.5664717"><ele>252.0</ele><time>2026-04-18T15:45:10.769Z</time></trkpt><trkpt lat="43.1038133" lon="11.5666133"><ele>252.0</ele><time>2026-04-18T15:45:11.771Z</time></trkpt><trkpt lat="43.1040883" lon="11.5667433"><ele>253.0</ele><time>2026-04-18T15:45:12.774Z</time></trkpt><trkpt lat="43.10437" lon="11.56688"><ele>254.0</ele><time>2026-04-18T15:45:13.771Z</time></trkpt><trkpt lat="43.1046517" lon="11.5670167"><ele>254.0</ele><time>2026-04-18T15:45:14.771Z</time></trkpt><trkpt lat="43.104935" lon="11.5671517"><ele>254.0</ele><time>2026-04-18T15:45:15.77Z</time></trkpt><trkpt lat="43.1052217" lon="11.5672783"><ele>254.0</ele><time>2026-04-18T15:45:16.769Z</time></trkpt><trkpt lat="43.10551" lon="11.5674117"><ele>254.0</ele><time>2026-04-18T15:45:17.771Z</time></trkpt><trkpt lat="43.1058" lon="11.5675467"><ele>254.5</ele><time>2026-04-18T15:45:18.769Z</time></trkpt><trkpt lat="43.1060867" lon="11.5676867"><ele>255.0</ele><time>2026-04-18T15:45:19.771Z</time></trkpt><trkpt lat="43.1063767" lon="11.5678267"><ele>254.0</ele><time>2026-04-18T15:45:20.772Z</time></trkpt><trkpt lat="43.10667" lon="11.5679617"><ele>253.0</ele><time>2026-04-18T15:45:21.769Z</time></trkpt><trkpt lat="43.1069633" lon="11.568095"><ele>253.0</ele><time>2026-04-18T15:45:22.771Z</time></trkpt><trkpt lat="43.1072583" lon="11.5682317"><ele>253.0</ele><time>2026-04-18T15:45:23.769Z</time></trkpt><trkpt lat="43.1075517" lon="11.5683717"><ele>253.5</ele><time>2026-04-18T15:45:24.767Z</time></trkpt><trkpt lat="43.107845" lon="11.5685117"><ele>254.0</ele><time>2026-04-18T15:45:25.77Z</time></trkpt><trkpt lat="43.1081433" lon="11.568655"><ele>252.0</ele><time>2026-04-18T15:45:26.771Z</time></trkpt><trkpt lat="43.1084417" lon="11.5687917"><ele>250.0</ele><time>2026-04-18T15:45:27.77Z</time></trkpt><trkpt lat="43.1087417" lon="11.56894"><ele>250.0</ele><time>2026-04-18T15:45:28.769Z</time></trkpt><trkpt lat="43.1090417" lon="11.5690867"><ele>250.0</ele><time>2026-04-18T15:45:29.769Z</time></trkpt><trkpt lat="43.1093417" lon="11.569235"><ele>250.5</ele><time>2026-04-18T15:45:30.765Z</time></trkpt><trkpt lat="43.1096433" lon="11.5693867"><ele>251.0</ele><time>2026-04-18T15:45:31.771Z</time></trkpt><trkpt lat="43.1099433" lon="11.569535"><ele>251.5</ele><time>2026-04-18T15:45:32.773Z</time></trkpt><trkpt lat="43.11024" lon="11.5696767"><ele>252.0</ele><time>2026-04-18T15:45:33.768Z</time></trkpt><trkpt lat="43.11053" lon="11.569815"><ele>254.5</ele><time>2026-04-18T15:45:34.77Z</time></trkpt><trkpt lat="43.1108083" lon="11.56995"><ele>257.0</ele><time>2026-04-18T15:45:35.766Z</time></trkpt><trkpt lat="43.1110817" lon="11.5700817"><ele>257.0</ele><time>2026-04-18T15:45:36.766Z</time></trkpt><trkpt lat="43.11135" lon="11.5701967"><ele>257.0</ele><time>2026-04-18T15:45:37.769Z</time></trkpt><trkpt lat="43.11162" lon="11.5703017"><ele>257.0</ele><time>2026-04-18T15:45:38.772Z</time></trkpt><trkpt lat="43.111885" lon="11.5703917"><ele>257.0</ele><time>2026-04-18T15:45:39.771Z</time></trkpt><trkpt lat="43.112165" lon="11.5704617"><ele>258.5</ele><time>2026-04-18T15:45:40.77Z</time></trkpt><trkpt lat="43.1124467" lon="11.57053"><ele>260.0</ele><time>2026-04-18T15:45:41.77Z</time></trkpt><trkpt lat="43.1127333" lon="11.5706017"><ele>260.0</ele><time>2026-04-18T15:45:42.771Z</time></trkpt><trkpt lat="43.1130267" lon="11.5706767"><ele>260.0</ele><time>2026-04-18T15:45:43.769Z</time></trkpt><trkpt lat="43.11332" lon="11.5707467"><ele>261.0</ele><time>2026-04-18T15:45:44.773Z</time></trkpt><trkpt lat="43.1136167" lon="11.570815"><ele>262.0</ele><time>2026-04-18T15:45:45.77Z</time></trkpt><trkpt lat="43.1139167" lon="11.570885"><ele>264.5</ele><time>2026-04-18T15:45:46.769Z</time></trkpt><trkpt lat="43.1142183" lon="11.570965"><ele>267.0</ele><time>2026-04-18T15:45:47.767Z</time></trkpt><trkpt lat="43.11452" lon="11.5710617"><ele>267.0</ele><time>2026-04-18T15:45:48.77Z</time></trkpt><trkpt lat="43.11482" lon="11.5711733"><ele>267.0</ele><time>2026-04-18T15:45:49.766Z</time></trkpt><trkpt lat="43.11511" lon="11.5713"><ele>265.0</ele><time>2026-04-18T15:45:50.77Z</time></trkpt><trkpt lat="43.1153883" lon="11.571425"><ele>263.0</ele><time>2026-04-18T15:45:51.771Z</time></trkpt><trkpt lat="43.115655" lon="11.57153"><ele>264.5</ele><time>2026-04-18T15:45:52.767Z</time></trkpt><trkpt lat="43.1159083" lon="11.5715917"><ele>266.0</ele><time>2026-04-18T15:45:53.77Z</time></trkpt><trkpt lat="43.116165" lon="11.5715967"><ele>266.0</ele><time>2026-04-18T15:45:54.775Z</time></trkpt><trkpt lat="43.1164267" lon="11.5715617"><ele>266.0</ele><time>2026-04-18T15:45:55.769Z</time></trkpt><trkpt lat="43.1166933" lon="11.5715117"><ele>265.5</ele><time>2026-04-18T15:45:56.773Z</time></trkpt><trkpt lat="43.116955" lon="11.5714633"><ele>265.0</ele><time>2026-04-18T15:45:57.77Z</time></trkpt><trkpt lat="43.1172" lon="11.571425"><ele>264.0</ele><time>2026-04-18T15:45:58.769Z</time></trkpt><trkpt lat="43.11743" lon="11.57142"><ele>263.0</ele><time>2026-04-18T15:45:59.763Z</time></trkpt><trkpt lat="43.1176617" lon="11.5714683"><ele>263.0</ele><time>2026-04-18T15:46:00.768Z</time></trkpt><trkpt lat="43.1179017" lon="11.5715633"><ele>263.0</ele><time>2026-04-18T15:46:01.766Z</time></trkpt><trkpt lat="43.118145" lon="11.5717067"><ele>262.5</ele><time>2026-04-18T15:46:02.771Z</time></trkpt><trkpt lat="43.1183933" lon="11.5718783"><ele>262.0</ele><time>2026-04-18T15:46:03.771Z</time></trkpt><trkpt lat="43.118645" lon="11.57206"><ele>261.0</ele><time>2026-04-18T15:46:04.77Z</time></trkpt><trkpt lat="43.1189017" lon="11.5722483"><ele>260.0</ele><time>2026-04-18T15:46:05.769Z</time></trkpt><trkpt lat="43.1191583" lon="11.5724417"><ele>260.0</ele><time>2026-04-18T15:46:06.771Z</time></trkpt><trkpt lat="43.1194117" lon="11.5726467"><ele>260.0</ele><time>2026-04-18T15:46:07.77Z</time></trkpt><trkpt lat="43.11966" lon="11.5728717"><ele>260.5</ele><time>2026-04-18T15:46:08.772Z</time></trkpt><trkpt lat="43.1199033" lon="11.5731083"><ele>261.0</ele><time>2026-04-18T15:46:09.77Z</time></trkpt><trkpt lat="43.1201433" lon="11.5733517"><ele>261.0</ele><time>2026-04-18T15:46:10.771Z</time></trkpt><trkpt lat="43.1203833" lon="11.5736"><ele>261.0</ele><time>2026-04-18T15:46:11.769Z</time></trkpt><trkpt lat="43.1206267" lon="11.57385"><ele>262.0</ele><time>2026-04-18T15:46:12.766Z</time></trkpt><trkpt lat="43.1208717" lon="11.5740917"><ele>263.0</ele><time>2026-04-18T15:46:13.769Z</time></trkpt><trkpt lat="43.12113" lon="11.574305"><ele>263.0</ele><time>2026-04-18T15:46:14.773Z</time></trkpt><trkpt lat="43.121395" lon="11.57448"><ele>263.0</ele><time>2026-04-18T15:46:15.771Z</time></trkpt><trkpt lat="43.12166" lon="11.5746267"><ele>262.5</ele><time>2026-04-18T15:46:16.769Z</time></trkpt><trkpt lat="43.1219083" lon="11.57476"><ele>262.0</ele><time>2026-04-18T15:46:17.769Z</time></trkpt><trkpt lat="43.1221433" lon="11.5748883"><ele>262.0</ele><time>2026-04-18T15:46:18.768Z</time></trkpt><trkpt lat="43.1223667" lon="11.5750067"><ele>262.0</ele><time>2026-04-18T15:46:19.769Z</time></trkpt><trkpt lat="43.1225883" lon="11.57509"><ele>264.0</ele><time>2026-04-18T15:46:20.769Z</time></trkpt><trkpt lat="43.1228167" lon="11.5751533"><ele>266.0</ele><time>2026-04-18T15:46:21.77Z</time></trkpt><trkpt lat="43.1230467" lon="11.5751917"><ele>266.5</ele><time>2026-04-18T15:46:22.765Z</time></trkpt><trkpt lat="43.12328" lon="11.5752233"><ele>267.0</ele><time>2026-04-18T15:46:23.766Z</time></trkpt><trkpt lat="43.1235167" lon="11.57524"><ele>267.0</ele><time>2026-04-18T15:46:24.772Z</time></trkpt><trkpt lat="43.1237567" lon="11.5752567"><ele>267.0</ele><time>2026-04-18T15:46:25.769Z</time></trkpt><trkpt lat="43.1239933" lon="11.5752683"><ele>269.5</ele><time>2026-04-18T15:46:26.772Z</time></trkpt><trkpt lat="43.1242333" lon="11.5752783"><ele>272.0</ele><time>2026-04-18T15:46:27.771Z</time></trkpt><trkpt lat="43.1244717" lon="11.5752817"><ele>272.0</ele><time>2026-04-18T15:46:28.764Z</time></trkpt><trkpt lat="43.1247067" lon="11.5752733"><ele>272.0</ele><time>2026-04-18T15:46:29.769Z</time></trkpt><trkpt lat="43.124945" lon="11.57525"><ele>271.5</ele><time>2026-04-18T15:46:30.771Z</time></trkpt><trkpt lat="43.125185" lon="11.5752133"><ele>271.0</ele><time>2026-04-18T15:46:31.769Z</time></trkpt><trkpt lat="43.1254317" lon="11.5751733"><ele>271.0</ele><time>2026-04-18T15:46:32.773Z</time></trkpt><trkpt lat="43.1256833" lon="11.5751283"><ele>271.0</ele><time>2026-04-18T15:46:33.77Z</time></trkpt><trkpt lat="43.1259417" lon="11.5750783"><ele>268.0</ele><time>2026-04-18T15:46:34.768Z</time></trkpt><trkpt lat="43.1262083" lon="11.57503"><ele>265.0</ele><time>2026-04-18T15:46:35.769Z</time></trkpt><trkpt lat="43.1264817" lon="11.5749833"><ele>263.5</ele><time>2026-04-18T15:46:36.767Z</time></trkpt><trkpt lat="43.1267383" lon="11.574945"><ele>262.0</ele><time>2026-04-18T15:46:37.77Z</time></trkpt><trkpt lat="43.12698" lon="11.574915"><ele>262.0</ele><time>2026-04-18T15:46:38.772Z</time></trkpt><trkpt lat="43.127215" lon="11.5748883"><ele>262.0</ele><time>2026-04-18T15:46:39.771Z</time></trkpt><trkpt lat="43.1274483" lon="11.5748533"><ele>263.0</ele><time>2026-04-18T15:46:40.77Z</time></trkpt><trkpt lat="43.1276867" lon="11.5748167"><ele>264.0</ele><time>2026-04-18T15:46:41.77Z</time></trkpt><trkpt lat="43.12793" lon="11.5747783"><ele>264.0</ele><time>2026-04-18T15:46:42.769Z</time></trkpt><trkpt lat="43.1281767" lon="11.5747417"><ele>264.0</ele><time>2026-04-18T15:46:43.77Z</time></trkpt><trkpt lat="43.12843" lon="11.5747183"><ele>262.5</ele><time>2026-04-18T15:46:44.771Z</time></trkpt><trkpt lat="43.1286917" lon="11.5747133"><ele>261.0</ele><time>2026-04-18T15:46:45.768Z</time></trkpt><trkpt lat="43.128965" lon="11.574725"><ele>260.5</ele><time>2026-04-18T15:46:46.77Z</time></trkpt><trkpt lat="43.1292467" lon="11.5747517"><ele>260.0</ele><time>2026-04-18T15:46:47.77Z</time></trkpt><trkpt lat="43.1295283" lon="11.5747933"><ele>260.0</ele><time>2026-04-18T15:46:48.766Z</time></trkpt><trkpt lat="43.1298167" lon="11.5748533"><ele>260.0</ele><time>2026-04-18T15:46:49.77Z</time></trkpt><trkpt lat="43.130105" lon="11.5749283"><ele>260.0</ele><time>2026-04-18T15:46:50.77Z</time></trkpt><trkpt lat="43.1303983" lon="11.5750083"><ele>260.0</ele><time>2026-04-18T15:46:51.769Z</time></trkpt><trkpt lat="43.1306933" lon="11.5750867"><ele>260.5</ele><time>2026-04-18T15:46:52.77Z</time></trkpt><trkpt lat="43.1309933" lon="11.5751633"><ele>261.0</ele><time>2026-04-18T15:46:53.77Z</time></trkpt><trkpt lat="43.1312917" lon="11.5752433"><ele>262.0</ele><time>2026-04-18T15:46:54.774Z</time></trkpt><trkpt lat="43.1315867" lon="11.57532"><ele>263.0</ele><time>2026-04-18T15:46:55.768Z</time></trkpt><trkpt lat="43.1318783" lon="11.5753967"><ele>263.0</ele><time>2026-04-18T15:46:56.773Z</time></trkpt><trkpt lat="43.1321583" lon="11.575475"><ele>263.0</ele><time>2026-04-18T15:46:57.771Z</time></trkpt><trkpt lat="43.1324367" lon="11.57556"><ele>264.0</ele><time>2026-04-18T15:46:58.769Z</time></trkpt><trkpt lat="43.1327117" lon="11.5756467"><ele>265.0</ele><time>2026-04-18T15:46:59.77Z</time></trkpt><trkpt lat="43.13297" lon="11.5757317"><ele>265.0</ele><time>2026-04-18T15:47:00.772Z</time></trkpt><trkpt lat="43.1332233" lon="11.575815"><ele>265.0</ele><time>2026-04-18T15:47:01.763Z</time></trkpt><trkpt lat="43.1334667" lon="11.575895"><ele>265.0</ele><time>2026-04-18T15:47:02.771Z</time></trkpt><trkpt lat="43.133705" lon="11.575975"><ele>265.0</ele><time>2026-04-18T15:47:03.77Z</time></trkpt><trkpt lat="43.1339267" lon="11.57605"><ele>265.3333333333333</ele><time>2026-04-18T15:47:04.769Z</time></trkpt><trkpt lat="43.1341383" lon="11.5761217"><ele>265.6666666666667</ele><time>2026-04-18T15:47:05.77Z</time></trkpt><trkpt lat="43.134345" lon="11.5761883"><ele>266.0</ele><time>2026-04-18T15:47:06.773Z</time></trkpt><trkpt lat="43.1345567" lon="11.5762567"><ele>264.5</ele><time>2026-04-18T15:47:07.768Z</time></trkpt><trkpt lat="43.1347717" lon="11.5763417"><ele>263.0</ele><time>2026-04-18T15:47:08.772Z</time></trkpt><trkpt lat="43.1349867" lon="11.5764583"><ele>263.0</ele><time>2026-04-18T15:47:09.771Z</time></trkpt><trkpt lat="43.1352017" lon="11.5766117"><ele>263.0</ele><time>2026-04-18T15:47:10.766Z</time></trkpt><trkpt lat="43.1354183" lon="11.576785"><ele>263.0</ele><time>2026-04-18T15:47:11.769Z</time></trkpt><trkpt lat="43.1356417" lon="11.5769733"><ele>263.0</ele><time>2026-04-18T15:47:12.772Z</time></trkpt><trkpt lat="43.135865" lon="11.5771783"><ele>262.5</ele><time>2026-04-18T15:47:13.771Z</time></trkpt><trkpt lat="43.13609" lon="11.57739"><ele>262.0</ele><time>2026-04-18T15:47:14.771Z</time></trkpt><trkpt lat="43.1363183" lon="11.577605"><ele>262.0</ele><time>2026-04-18T15:47:15.768Z</time></trkpt><trkpt lat="43.1365517" lon="11.5778217"><ele>262.0</ele><time>2026-04-18T15:47:16.766Z</time></trkpt><trkpt lat="43.1367867" lon="11.578035"><ele>263.0</ele><time>2026-04-18T15:47:17.766Z</time></trkpt><trkpt lat="43.13702" lon="11.5782483"><ele>264.0</ele><time>2026-04-18T15:47:18.768Z</time></trkpt><trkpt lat="43.1372567" lon="11.5784617"><ele>264.5</ele><time>2026-04-18T15:47:19.767Z</time></trkpt><trkpt lat="43.1375" lon="11.578675"><ele>265.0</ele><time>2026-04-18T15:47:20.771Z</time></trkpt><trkpt lat="43.1377367" lon="11.578885"><ele>265.0</ele><time>2026-04-18T15:47:21.767Z</time></trkpt><trkpt lat="43.13797" lon="11.5790983"><ele>265.0</ele><time>2026-04-18T15:47:22.766Z</time></trkpt><trkpt lat="43.138195" lon="11.5793067"><ele>266.0</ele><time>2026-04-18T15:47:23.767Z</time></trkpt><trkpt lat="43.13842" lon="11.5795083"><ele>267.0</ele><time>2026-04-18T15:47:24.771Z</time></trkpt><trkpt lat="43.1386567" lon="11.579685"><ele>267.0</ele><time>2026-04-18T15:47:25.771Z</time></trkpt><trkpt lat="43.1389" lon="11.5798467"><ele>267.0</ele><time>2026-04-18T15:47:26.772Z</time></trkpt><trkpt lat="43.1391483" lon="11.5800017"><ele>267.0</ele><time>2026-04-18T15:47:27.771Z</time></trkpt><trkpt lat="43.1394" lon="11.5801533"><ele>267.0</ele><time>2026-04-18T15:47:28.772Z</time></trkpt><trkpt lat="43.1396567" lon="11.5803083"><ele>267.0</ele><time>2026-04-18T15:47:29.766Z</time></trkpt><trkpt lat="43.139915" lon="11.5804633"><ele>267.0</ele><time>2026-04-18T15:47:30.767Z</time></trkpt><trkpt lat="43.1401767" lon="11.58062"><ele>267.0</ele><time>2026-04-18T15:47:31.77Z</time></trkpt><trkpt lat="43.14044" lon="11.5807733"><ele>267.0</ele><time>2026-04-18T15:47:32.772Z</time></trkpt><trkpt lat="43.1407" lon="11.5809333"><ele>268.5</ele><time>2026-04-18T15:47:33.771Z</time></trkpt><trkpt lat="43.1409633" lon="11.58109"><ele>270.0</ele><time>2026-04-18T15:47:34.766Z</time></trkpt><trkpt lat="43.1412183" lon="11.581245"><ele>271.0</ele><time>2026-04-18T15:47:35.77Z</time></trkpt><trkpt lat="43.1414717" lon="11.5813983"><ele>272.0</ele><time>2026-04-18T15:47:36.771Z</time></trkpt><trkpt lat="43.141725" lon="11.5815433"><ele>272.0</ele><time>2026-04-18T15:47:37.771Z</time></trkpt><trkpt lat="43.1419833" lon="11.5816583"><ele>272.0</ele><time>2026-04-18T15:47:38.773Z</time></trkpt><trkpt lat="43.14225" lon="11.5817417"><ele>275.5</ele><time>2026-04-18T15:47:39.769Z</time></trkpt><trkpt lat="43.1425167" lon="11.5818067"><ele>279.0</ele><time>2026-04-18T15:47:40.768Z</time></trkpt><trkpt lat="43.1427917" lon="11.58188"><ele>279.0</ele><time>2026-04-18T15:47:41.767Z</time></trkpt><trkpt lat="43.1430683" lon="11.5819683"><ele>279.0</ele><time>2026-04-18T15:47:42.771Z</time></trkpt><trkpt lat="43.1433417" lon="11.58208"><ele>274.5</ele><time>2026-04-18T15:47:43.769Z</time></trkpt><trkpt lat="43.1436067" lon="11.5822167"><ele>270.0</ele><time>2026-04-18T15:47:44.771Z</time></trkpt><trkpt lat="43.1438733" lon="11.58237"><ele>270.5</ele><time>2026-04-18T15:47:45.766Z</time></trkpt><trkpt lat="43.14414" lon="11.5825283"><ele>271.0</ele><time>2026-04-18T15:47:46.769Z</time></trkpt><trkpt lat="43.1444033" lon="11.5826867"><ele>271.0</ele><time>2026-04-18T15:47:47.771Z</time></trkpt><trkpt lat="43.1446533" lon="11.582835"><ele>271.0</ele><time>2026-04-18T15:47:48.767Z</time></trkpt><trkpt lat="43.144895" lon="11.5829783"><ele>269.5</ele><time>2026-04-18T15:47:49.766Z</time></trkpt><trkpt lat="43.1451417" lon="11.58311"><ele>268.0</ele><time>2026-04-18T15:47:50.773Z</time></trkpt><trkpt lat="43.1454" lon="11.583215"><ele>268.0</ele><time>2026-04-18T15:47:51.771Z</time></trkpt><trkpt lat="43.145665" lon="11.583295"><ele>268.0</ele><time>2026-04-18T15:47:52.769Z</time></trkpt><trkpt lat="43.1459417" lon="11.583355"><ele>269.5</ele><time>2026-04-18T15:47:53.769Z</time></trkpt><trkpt lat="43.1462217" lon="11.583405"><ele>271.0</ele><time>2026-04-18T15:47:54.77Z</time></trkpt><trkpt lat="43.1465083" lon="11.58345"><ele>270.5</ele><time>2026-04-18T15:47:55.771Z</time></trkpt><trkpt lat="43.1467917" lon="11.5835"><ele>270.0</ele><time>2026-04-18T15:47:56.775Z</time></trkpt><trkpt lat="43.1470767" lon="11.5835467"><ele>270.0</ele><time>2026-04-18T15:47:57.77Z</time></trkpt><trkpt lat="43.14736" lon="11.5835933"><ele>270.0</ele><time>2026-04-18T15:47:58.77Z</time></trkpt><trkpt lat="43.147635" lon="11.58364"><ele>269.0</ele><time>2026-04-18T15:47:59.771Z</time></trkpt><trkpt lat="43.1478967" lon="11.583685"><ele>268.0</ele><time>2026-04-18T15:48:00.766Z</time></trkpt><trkpt lat="43.1481367" lon="11.5837117"><ele>268.3333333333333</ele><time>2026-04-18T15:48:01.767Z</time></trkpt><trkpt lat="43.1483667" lon="11.5837117"><ele>268.6666666666667</ele><time>2026-04-18T15:48:02.773Z</time></trkpt><trkpt lat="43.14858" lon="11.5836667"><ele>269.0</ele><time>2026-04-18T15:48:03.77Z</time></trkpt><trkpt lat="43.148775" lon="11.5835933"><ele>269.6666666666667</ele><time>2026-04-18T15:48:04.77Z</time></trkpt><trkpt lat="43.148945" lon="11.5835083"><ele>270.3333333333333</ele><time>2026-04-18T15:48:05.769Z</time></trkpt><trkpt lat="43.149105" lon="11.5834483"><ele>271.0</ele><time>2026-04-18T15:48:06.772Z</time></trkpt><trkpt lat="43.1492567" lon="11.58344"><ele>271.0</ele><time>2026-04-18T15:48:07.77Z</time></trkpt><trkpt lat="43.1494133" lon="11.5834917"><ele>271.0</ele><time>2026-04-18T15:48:08.774Z</time></trkpt><trkpt lat="43.1495667" lon="11.58359"><ele>271.0</ele><time>2026-04-18T15:48:09.77Z</time></trkpt><trkpt lat="43.1497183" lon="11.583735"><ele>270.66666666666663</ele><time>2026-04-18T15:48:10.765Z</time></trkpt><trkpt lat="43.1498633" lon="11.5839317"><ele>270.3333333333333</ele><time>2026-04-18T15:48:11.77Z</time></trkpt><trkpt lat="43.1499983" lon="11.5841567"><ele>270.0</ele><time>2026-04-18T15:48:12.771Z</time></trkpt><trkpt lat="43.1501167" lon="11.5844117"><ele>270.6666666666667</ele><time>2026-04-18T15:48:13.77Z</time></trkpt><trkpt lat="43.1502167" lon="11.5846633"><ele>271.33333333333337</ele><time>2026-04-18T15:48:14.773Z</time></trkpt><trkpt lat="43.1502917" lon="11.5849267"><ele>272.0</ele><time>2026-04-18T15:48:15.769Z</time></trkpt><trkpt lat="43.15037" lon="11.585185"><ele>271.33333333333337</ele><time>2026-04-18T15:48:16.769Z</time></trkpt><trkpt lat="43.1504483" lon="11.585435"><ele>270.6666666666667</ele><time>2026-04-18T15:48:17.769Z</time></trkpt><trkpt lat="43.1505283" lon="11.58567"><ele>270.0</ele><time>2026-04-18T15:48:18.762Z</time></trkpt><trkpt lat="43.1506067" lon="11.5858833"><ele>270.0</ele><time>2026-04-18T15:48:19.776Z</time></trkpt><trkpt lat="43.1506817" lon="11.5860817"><ele>270.0</ele><time>2026-04-18T15:48:20.771Z</time></trkpt><trkpt lat="43.1507533" lon="11.58626"><ele>270.0</ele><time>2026-04-18T15:48:21.769Z</time></trkpt><trkpt lat="43.150815" lon="11.5864333"><ele>270.25</ele><time>2026-04-18T15:48:22.767Z</time></trkpt><trkpt lat="43.150875" lon="11.5865967"><ele>270.5</ele><time>2026-04-18T15:48:23.767Z</time></trkpt><trkpt lat="43.1509333" lon="11.586755"><ele>270.75</ele><time>2026-04-18T15:48:24.774Z</time></trkpt><trkpt lat="43.1509983" lon="11.5869083"><ele>271.0</ele><time>2026-04-18T15:48:25.771Z</time></trkpt><trkpt lat="43.1510683" lon="11.5870667"><ele>271.0</ele><time>2026-04-18T15:48:26.773Z</time></trkpt><trkpt lat="43.151135" lon="11.587225"><ele>271.0</ele><time>2026-04-18T15:48:27.767Z</time></trkpt><trkpt lat="43.1512033" lon="11.5873833"><ele>271.0</ele><time>2026-04-18T15:48:28.77Z</time></trkpt><trkpt lat="43.1512717" lon="11.5875383"><ele>271.0</ele><time>2026-04-18T15:48:29.769Z</time></trkpt><trkpt lat="43.1513383" lon="11.5876883"><ele>271.0</ele><time>2026-04-18T15:48:30.77Z</time></trkpt><trkpt lat="43.1514017" lon="11.5878367"><ele>271.0</ele><time>2026-04-18T15:48:31.769Z</time></trkpt><trkpt lat="43.1514633" lon="11.5879783"><ele>271.0</ele><time>2026-04-18T15:48:32.771Z</time></trkpt><trkpt lat="43.151525" lon="11.5881167"><ele>271.0</ele><time>2026-04-18T15:48:33.77Z</time></trkpt><trkpt lat="43.151585" lon="11.5882533"><ele>272.0</ele><time>2026-04-18T15:48:34.769Z</time></trkpt><trkpt lat="43.1516433" lon="11.5883833"><ele>273.0</ele><time>2026-04-18T15:48:35.771Z</time></trkpt><trkpt lat="43.1516983" lon="11.5885117"><ele>274.0</ele><time>2026-04-18T15:48:36.769Z</time></trkpt><trkpt lat="43.151745" lon="11.5886283"><ele>275.0</ele><time>2026-04-18T15:48:37.765Z</time></trkpt><trkpt lat="43.1517817" lon="11.5887333"><ele>276.0</ele><time>2026-04-18T15:48:38.771Z</time></trkpt><trkpt lat="43.1518067" lon="11.5888233"><ele>276.1666666666667</ele><time>2026-04-18T15:48:39.762Z</time></trkpt><trkpt lat="43.15182" lon="11.5889083"><ele>276.3333333333333</ele><time>2026-04-18T15:48:40.762Z</time></trkpt><trkpt lat="43.151865" lon="11.58906"><ele>276.5</ele><time>2026-04-18T15:48:42.769Z</time></trkpt><trkpt lat="43.1519" lon="11.589155"><ele>276.66666666666663</ele><time>2026-04-18T15:48:43.769Z</time></trkpt><trkpt lat="43.1519317" lon="11.5892583"><ele>276.8333333333333</ele><time>2026-04-18T15:48:44.769Z</time></trkpt><trkpt lat="43.1519517" lon="11.5893833"><ele>277.0</ele><time>2026-04-18T15:48:45.771Z</time></trkpt><trkpt lat="43.1519467" lon="11.5895367"><ele>278.25</ele><time>2026-04-18T15:48:46.77Z</time></trkpt><trkpt lat="43.1519117" lon="11.5897133"><ele>279.5</ele><time>2026-04-18T15:48:47.77Z</time></trkpt><trkpt lat="43.1518767" lon="11.5898967"><ele>280.75</ele><time>2026-04-18T15:48:48.77Z</time></trkpt><trkpt lat="43.15185" lon="11.59009"><ele>282.0</ele><time>2026-04-18T15:48:49.769Z</time></trkpt><trkpt lat="43.1518467" lon="11.590275"><ele>281.25</ele><time>2026-04-18T15:48:50.771Z</time></trkpt><trkpt lat="43.1518667" lon="11.59045"><ele>280.5</ele><time>2026-04-18T15:48:51.77Z</time></trkpt><trkpt lat="43.151905" lon="11.59061"><ele>279.75</ele><time>2026-04-18T15:48:52.771Z</time></trkpt><trkpt lat="43.1519717" lon="11.59075"><ele>279.0</ele><time>2026-04-18T15:48:53.77Z</time></trkpt><trkpt lat="43.1520667" lon="11.5908583"><ele>279.0</ele><time>2026-04-18T15:48:54.77Z</time></trkpt><trkpt lat="43.1521883" lon="11.590935"><ele>279.0</ele><time>2026-04-18T15:48:55.77Z</time></trkpt><trkpt lat="43.152335" lon="11.5909917"><ele>279.0</ele><time>2026-04-18T15:48:56.769Z</time></trkpt><trkpt lat="43.15249" lon="11.5910283"><ele>279.0</ele><time>2026-04-18T15:48:57.765Z</time></trkpt><trkpt lat="43.1526633" lon="11.5910467"><ele>286.3333333333333</ele><time>2026-04-18T15:48:58.769Z</time></trkpt><trkpt lat="43.152845" lon="11.591065"><ele>293.66666666666663</ele><time>2026-04-18T15:48:59.771Z</time></trkpt><trkpt lat="43.1530267" lon="11.5910817"><ele>301.0</ele><time>2026-04-18T15:49:00.769Z</time></trkpt><trkpt lat="43.1532017" lon="11.5911067"><ele>302.5</ele><time>2026-04-18T15:49:01.765Z</time></trkpt><trkpt lat="43.1533617" lon="11.5911367"><ele>304.0</ele><time>2026-04-18T15:49:02.772Z</time></trkpt><trkpt lat="43.1535067" lon="11.591155"><ele>305.5</ele><time>2026-04-18T15:49:03.771Z</time></trkpt><trkpt lat="43.1536417" lon="11.5911667"><ele>307.0</ele><time>2026-04-18T15:49:04.77Z</time></trkpt><trkpt lat="43.1537517" lon="11.5911583"><ele>307.0</ele><time>2026-04-18T15:49:05.759Z</time></trkpt><trkpt lat="43.153835" lon="11.5911133"><ele>307.0</ele><time>2026-04-18T15:49:06.77Z</time></trkpt><trkpt lat="43.1539117" lon="11.5910667"><ele>307.0</ele><time>2026-04-18T15:49:07.769Z</time></trkpt><trkpt lat="43.1539783" lon="11.5910133"><ele>307.0</ele><time>2026-04-18T15:49:08.766Z</time></trkpt><trkpt lat="43.154015" lon="11.5909167"><ele>307.0</ele><time>2026-04-18T15:49:09.767Z</time></trkpt><trkpt lat="43.1540383" lon="11.5908017"><ele>307.0</ele><time>2026-04-18T15:49:10.767Z</time></trkpt><trkpt lat="43.1540117" lon="11.59068"><ele>307.0</ele><time>2026-04-18T15:49:11.765Z</time></trkpt><trkpt lat="43.153965" lon="11.5905167"><ele>307.0</ele><time>2026-04-18T15:49:12.77Z</time></trkpt><trkpt lat="43.1539167" lon="11.590375"><ele>307.0</ele><time>2026-04-18T15:49:13.767Z</time></trkpt><trkpt lat="43.1537967" lon="11.590205"><ele>307.0</ele><time>2026-04-18T15:49:14.774Z</time></trkpt><trkpt lat="43.1536683" lon="11.5900583"><ele>306.8333333333333</ele><time>2026-04-18T15:49:15.769Z</time></trkpt><trkpt lat="43.1535883" lon="11.5899283"><ele>306.66666666666663</ele><time>2026-04-18T15:49:16.764Z</time></trkpt><trkpt lat="43.1535417" lon="11.5898383"><ele>306.5</ele><time>2026-04-18T15:49:17.766Z</time></trkpt><trkpt lat="43.1535017" lon="11.58975"><ele>306.3333333333333</ele><time>2026-04-18T15:49:18.771Z</time></trkpt><trkpt lat="43.153485" lon="11.5896533"><ele>306.1666666666667</ele><time>2026-04-18T15:49:19.766Z</time></trkpt><trkpt lat="43.1534867" lon="11.5895533"><ele>306.0</ele><time>2026-04-18T15:49:20.769Z</time></trkpt><trkpt lat="43.1535433" lon="11.5894167"><ele>306.0</ele><time>2026-04-18T15:49:22.765Z</time></trkpt><trkpt lat="43.1536583" lon="11.5893683"><ele>306.0</ele><time>2026-04-18T15:49:24.772Z</time></trkpt><trkpt lat="43.1537483" lon="11.58939"><ele>306.0</ele><time>2026-04-18T15:49:25.771Z</time></trkpt><trkpt lat="43.1538233" lon="11.5893867"><ele>306.0</ele><time>2026-04-18T15:49:26.765Z</time></trkpt><trkpt lat="43.15389" lon="11.5893767"><ele>306.0</ele><time>2026-04-18T15:49:27.766Z</time></trkpt><trkpt lat="43.1539567" lon="11.5893617"><ele>306.0</ele><time>2026-04-18T15:49:28.764Z</time></trkpt><trkpt lat="43.1540233" lon="11.58934"><ele>308.0</ele><time>2026-04-18T15:49:29.77Z</time></trkpt><trkpt lat="43.15409" lon="11.5893033"><ele>310.0</ele><time>2026-04-18T15:49:30.77Z</time></trkpt><trkpt lat="43.1541583" lon="11.5892633"><ele>312.0</ele><time>2026-04-18T15:49:31.768Z</time></trkpt><trkpt lat="43.1542267" lon="11.5892217"><ele>314.0</ele><time>2026-04-18T15:49:32.77Z</time></trkpt><trkpt lat="43.1543017" lon="11.5891833"><ele>316.0</ele><time>2026-04-18T15:49:33.764Z</time></trkpt><trkpt lat="43.154375" lon="11.5891483"><ele>318.0</ele><time>2026-04-18T15:49:34.763Z</time></trkpt><trkpt lat="43.1544433" lon="11.58911"><ele>318.0</ele><time>2026-04-18T15:49:35.767Z</time></trkpt><trkpt lat="43.154505" lon="11.58907"><ele>318.0</ele><time>2026-04-18T15:49:36.768Z</time></trkpt><trkpt lat="43.1546133" lon="11.5890183"><ele>318.0</ele><time>2026-04-18T15:49:38.766Z</time></trkpt><trkpt lat="43.1547" lon="11.5890067"><ele>318.0</ele><time>2026-04-18T15:49:40.763Z</time></trkpt><trkpt lat="43.15477" lon="11.5889933"><ele>318.0</ele><time>2026-04-18T15:49:42.764Z</time></trkpt><trkpt lat="43.154835" lon="11.588945"><ele>318.0</ele><time>2026-04-18T15:49:45.769Z</time></trkpt><trkpt lat="43.1549167" lon="11.58889"><ele>318.2</ele><time>2026-04-18T15:49:48.767Z</time></trkpt><trkpt lat="43.1549833" lon="11.58884"><ele>318.4</ele><time>2026-04-18T15:49:50.77Z</time></trkpt><trkpt lat="43.1550417" lon="11.5887433"><ele>318.59999999999997</ele><time>2026-04-18T15:49:52.769Z</time></trkpt><trkpt lat="43.1551183" lon="11.5886183"><ele>318.8</ele><time>2026-04-18T15:49:54.772Z</time></trkpt><trkpt lat="43.1551867" lon="11.5885083"><ele>319.0</ele><time>2026-04-18T15:49:56.774Z</time></trkpt><trkpt lat="43.1552517" lon="11.5884083"><ele>319.0</ele><time>2026-04-18T15:49:58.77Z</time></trkpt><trkpt lat="43.15534" lon="11.58826"><ele>319.0</ele><time>2026-04-18T15:50:00.771Z</time></trkpt><trkpt lat="43.1553967" lon="11.5881683"><ele>319.0</ele><time>2026-04-18T15:50:01.77Z</time></trkpt><trkpt lat="43.155455" lon="11.58807"><ele>319.0</ele><time>2026-04-18T15:50:02.771Z</time></trkpt><trkpt lat="43.155515" lon="11.5879667"><ele>319.0</ele><time>2026-04-18T15:50:03.769Z</time></trkpt><trkpt lat="43.1555933" lon="11.5878583"><ele>318.5</ele><time>2026-04-18T15:50:04.769Z</time></trkpt><trkpt lat="43.1556867" lon="11.5877633"><ele>318.0</ele><time>2026-04-18T15:50:05.769Z</time></trkpt><trkpt lat="43.1557933" lon="11.58768"><ele>317.5</ele><time>2026-04-18T15:50:06.767Z</time></trkpt><trkpt lat="43.1559" lon="11.5876117"><ele>317.0</ele><time>2026-04-18T15:50:07.769Z</time></trkpt><trkpt lat="43.15603" lon="11.587565"><ele>317.0</ele><time>2026-04-18T15:50:08.771Z</time></trkpt><trkpt lat="43.156165" lon="11.58754"><ele>317.0</ele><time>2026-04-18T15:50:09.769Z</time></trkpt><trkpt lat="43.1563067" lon="11.5875283"><ele>317.0</ele><time>2026-04-18T15:50:10.77Z</time></trkpt><trkpt lat="43.1564533" lon="11.587545"><ele>317.0</ele><time>2026-04-18T15:50:11.769Z</time></trkpt><trkpt lat="43.15661" lon="11.5875783"><ele>318.0</ele><time>2026-04-18T15:50:12.772Z</time></trkpt><trkpt lat="43.1567733" lon="11.58763"><ele>319.0</ele><time>2026-04-18T15:50:13.765Z</time></trkpt><trkpt lat="43.156935" lon="11.5876817"><ele>320.0</ele><time>2026-04-18T15:50:14.769Z</time></trkpt><trkpt lat="43.1570983" lon="11.5877383"><ele>320.0</ele><time>2026-04-18T15:50:15.765Z</time></trkpt><trkpt lat="43.1572683" lon="11.5878183"><ele>320.0</ele><time>2026-04-18T15:50:16.767Z</time></trkpt><trkpt lat="43.157435" lon="11.5879133"><ele>320.0</ele><time>2026-04-18T15:50:17.766Z</time></trkpt><trkpt lat="43.1575983" lon="11.5879967"><ele>321.6666666666667</ele><time>2026-04-18T15:50:18.769Z</time></trkpt><trkpt lat="43.15776" lon="11.5880583"><ele>323.3333333333333</ele><time>2026-04-18T15:50:19.77Z</time></trkpt><trkpt lat="43.1579083" lon="11.5881067"><ele>325.0</ele><time>2026-04-18T15:50:20.771Z</time></trkpt><trkpt lat="43.1580617" lon="11.588135"><ele>324.66666666666663</ele><time>2026-04-18T15:50:21.77Z</time></trkpt><trkpt lat="43.1582267" lon="11.5881317"><ele>324.3333333333333</ele><time>2026-04-18T15:50:22.763Z</time></trkpt><trkpt lat="43.1584067" lon="11.5880967"><ele>324.0</ele><time>2026-04-18T15:50:23.768Z</time></trkpt><trkpt lat="43.1585883" lon="11.5880433"><ele>324.0</ele><time>2026-04-18T15:50:24.77Z</time></trkpt><trkpt lat="43.1587583" lon="11.5879633"><ele>324.0</ele><time>2026-04-18T15:50:25.766Z</time></trkpt><trkpt lat="43.1589" lon="11.5878567"><ele>324.0</ele><time>2026-04-18T15:50:26.769Z</time></trkpt><trkpt lat="43.1590183" lon="11.5876817"><ele>324.3333333333333</ele><time>2026-04-18T15:50:27.77Z</time></trkpt><trkpt lat="43.1591267" lon="11.58749"><ele>324.66666666666663</ele><time>2026-04-18T15:50:28.767Z</time></trkpt><trkpt lat="43.1592333" lon="11.5872983"><ele>325.0</ele><time>2026-04-18T15:50:29.77Z</time></trkpt><trkpt lat="43.15936" lon="11.5871233"><ele>322.66666666666663</ele><time>2026-04-18T15:50:30.768Z</time></trkpt><trkpt lat="43.15945" lon="11.5868733"><ele>320.3333333333333</ele><time>2026-04-18T15:50:31.765Z</time></trkpt><trkpt lat="43.159585" lon="11.5866983"><ele>318.0</ele><time>2026-04-18T15:50:32.772Z</time></trkpt><trkpt lat="43.1596967" lon="11.58652"><ele>318.0</ele><time>2026-04-18T15:50:33.768Z</time></trkpt><trkpt lat="43.15982" lon="11.5863617"><ele>318.0</ele><time>2026-04-18T15:50:34.768Z</time></trkpt><trkpt lat="43.1599633" lon="11.5862333"><ele>318.0</ele><time>2026-04-18T15:50:35.766Z</time></trkpt><trkpt lat="43.160115" lon="11.586145"><ele>319.3333333333333</ele><time>2026-04-18T15:50:36.772Z</time></trkpt><trkpt lat="43.1602767" lon="11.5860367"><ele>320.66666666666663</ele><time>2026-04-18T15:50:37.77Z</time></trkpt><trkpt lat="43.16045" lon="11.5859483"><ele>322.0</ele><time>2026-04-18T15:50:38.772Z</time></trkpt><trkpt lat="43.1606267" lon="11.585875"><ele>324.0</ele><time>2026-04-18T15:50:39.772Z</time></trkpt><trkpt lat="43.160805" lon="11.58581"><ele>326.0</ele><time>2026-04-18T15:50:40.77Z</time></trkpt><trkpt lat="43.1609917" lon="11.585775"><ele>328.0</ele><time>2026-04-18T15:50:41.769Z</time></trkpt><trkpt lat="43.1611783" lon="11.585745"><ele>328.0</ele><time>2026-04-18T15:50:42.769Z</time></trkpt><trkpt lat="43.1613617" lon="11.58573"><ele>328.0</ele><time>2026-04-18T15:50:43.772Z</time></trkpt><trkpt lat="43.16153" lon="11.585695"><ele>328.0</ele><time>2026-04-18T15:50:44.771Z</time></trkpt><trkpt lat="43.1616917" lon="11.5856317"><ele>331.66666666666663</ele><time>2026-04-18T15:50:45.769Z</time></trkpt><trkpt lat="43.1618317" lon="11.5855317"><ele>335.3333333333333</ele><time>2026-04-18T15:50:46.765Z</time></trkpt><trkpt lat="43.1619733" lon="11.5854233"><ele>339.0</ele><time>2026-04-18T15:50:47.767Z</time></trkpt><trkpt lat="43.1621267" lon="11.5853233"><ele>339.0</ele><time>2026-04-18T15:50:48.766Z</time></trkpt><trkpt lat="43.1622883" lon="11.5852367"><ele>339.0</ele><time>2026-04-18T15:50:49.766Z</time></trkpt><trkpt lat="43.16246" lon="11.5851583"><ele>339.0</ele><time>2026-04-18T15:50:50.769Z</time></trkpt><trkpt lat="43.162645" lon="11.5850983"><ele>340.6666666666667</ele><time>2026-04-18T15:50:51.772Z</time></trkpt><trkpt lat="43.162835" lon="11.5850517"><ele>342.33333333333337</ele><time>2026-04-18T15:50:52.771Z</time></trkpt><trkpt lat="43.163035" lon="11.585025"><ele>344.0</ele><time>2026-04-18T15:50:53.77Z</time></trkpt><trkpt lat="43.1632417" lon="11.5850133"><ele>345.33333333333337</ele><time>2026-04-18T15:50:54.77Z</time></trkpt><trkpt lat="43.1634483" lon="11.585005"><ele>346.6666666666667</ele><time>2026-04-18T15:50:55.769Z</time></trkpt><trkpt lat="43.16366" lon="11.585"><ele>348.0</ele><time>2026-04-18T15:50:56.772Z</time></trkpt><trkpt lat="43.16387" lon="11.584995"><ele>348.3333333333333</ele><time>2026-04-18T15:50:57.77Z</time></trkpt><trkpt lat="43.1640683" lon="11.5849967"><ele>348.66666666666663</ele><time>2026-04-18T15:50:58.762Z</time></trkpt><trkpt lat="43.16426" lon="11.5849717"><ele>349.0</ele><time>2026-04-18T15:50:59.769Z</time></trkpt><trkpt lat="43.164445" lon="11.5849083"><ele>349.0</ele><time>2026-04-18T15:51:00.77Z</time></trkpt><trkpt lat="43.1646033" lon="11.5848317"><ele>349.0</ele><time>2026-04-18T15:51:01.769Z</time></trkpt><trkpt lat="43.1647467" lon="11.58479"><ele>349.0</ele><time>2026-04-18T15:51:02.772Z</time></trkpt><trkpt lat="43.1648867" lon="11.5847983"><ele>347.66666666666663</ele><time>2026-04-18T15:51:03.769Z</time></trkpt><trkpt lat="43.1650233" lon="11.5848683"><ele>346.3333333333333</ele><time>2026-04-18T15:51:04.764Z</time></trkpt><trkpt lat="43.1651717" lon="11.5849717"><ele>345.0</ele><time>2026-04-18T15:51:05.769Z</time></trkpt><trkpt lat="43.16533" lon="11.5850733"><ele>345.0</ele><time>2026-04-18T15:51:06.769Z</time></trkpt><trkpt lat="43.1654967" lon="11.5851383"><ele>345.0</ele><time>2026-04-18T15:51:07.769Z</time></trkpt><trkpt lat="43.1656733" lon="11.585165"><ele>345.0</ele><time>2026-04-18T15:51:08.771Z</time></trkpt><trkpt lat="43.1658617" lon="11.5851633"><ele>346.3333333333333</ele><time>2026-04-18T15:51:09.768Z</time></trkpt><trkpt lat="43.16606" lon="11.58514"><ele>347.66666666666663</ele><time>2026-04-18T15:51:10.769Z</time></trkpt><trkpt lat="43.1662567" lon="11.5851067"><ele>349.0</ele><time>2026-04-18T15:51:11.768Z</time></trkpt><trkpt lat="43.1664417" lon="11.58507"><ele>348.66666666666663</ele><time>2026-04-18T15:51:12.764Z</time></trkpt><trkpt lat="43.16661" lon="11.585035"><ele>348.3333333333333</ele><time>2026-04-18T15:51:13.77Z</time></trkpt><trkpt lat="43.16677" lon="11.585015"><ele>348.0</ele><time>2026-04-18T15:51:14.766Z</time></trkpt><trkpt lat="43.166935" lon="11.5850167"><ele>348.0</ele><time>2026-04-18T15:51:15.771Z</time></trkpt><trkpt lat="43.1671017" lon="11.585055"><ele>348.0</ele><time>2026-04-18T15:51:16.768Z</time></trkpt><trkpt lat="43.1672617" lon="11.5851283"><ele>348.0</ele><time>2026-04-18T15:51:17.769Z</time></trkpt><trkpt lat="43.1674167" lon="11.5852517"><ele>347.3333333333333</ele><time>2026-04-18T15:51:18.766Z</time></trkpt><trkpt lat="43.1675583" lon="11.585415"><ele>346.66666666666663</ele><time>2026-04-18T15:51:19.769Z</time></trkpt><trkpt lat="43.1676917" lon="11.5855883"><ele>346.0</ele><time>2026-04-18T15:51:20.77Z</time></trkpt><trkpt lat="43.16782" lon="11.5857567"><ele>346.0</ele><time>2026-04-18T15:51:21.768Z</time></trkpt><trkpt lat="43.1679483" lon="11.5858983"><ele>346.0</ele><time>2026-04-18T15:51:22.765Z</time></trkpt><trkpt lat="43.1680883" lon="11.585985"><ele>346.0</ele><time>2026-04-18T15:51:23.766Z</time></trkpt><trkpt lat="43.1682383" lon="11.5860017"><ele>349.0</ele><time>2026-04-18T15:51:24.772Z</time></trkpt><trkpt lat="43.1684083" lon="11.585975"><ele>352.0</ele><time>2026-04-18T15:51:25.77Z</time></trkpt><trkpt lat="43.1685917" lon="11.58593"><ele>355.0</ele><time>2026-04-18T15:51:26.771Z</time></trkpt><trkpt lat="43.1687917" lon="11.5858783"><ele>355.0</ele><time>2026-04-18T15:51:27.772Z</time></trkpt><trkpt lat="43.169" lon="11.5858267"><ele>355.0</ele><time>2026-04-18T15:51:28.768Z</time></trkpt><trkpt lat="43.1692033" lon="11.5857767"><ele>355.0</ele><time>2026-04-18T15:51:29.769Z</time></trkpt><trkpt lat="43.1694083" lon="11.5857383"><ele>354.66666666666663</ele><time>2026-04-18T15:51:30.769Z</time></trkpt><trkpt lat="43.1696117" lon="11.5857133"><ele>354.3333333333333</ele><time>2026-04-18T15:51:31.767Z</time></trkpt><trkpt lat="43.1698183" lon="11.5857083"><ele>354.0</ele><time>2026-04-18T15:51:32.774Z</time></trkpt><trkpt lat="43.17002" lon="11.5857283"><ele>354.0</ele><time>2026-04-18T15:51:33.769Z</time></trkpt><trkpt lat="43.1702183" lon="11.58577"><ele>354.0</ele><time>2026-04-18T15:51:34.765Z</time></trkpt><trkpt lat="43.17042" lon="11.5858217"><ele>354.0</ele><time>2026-04-18T15:51:35.766Z</time></trkpt><trkpt lat="43.1706233" lon="11.5858483"><ele>356.0</ele><time>2026-04-18T15:51:36.769Z</time></trkpt><trkpt lat="43.17082" lon="11.585825"><ele>358.0</ele><time>2026-04-18T15:51:37.77Z</time></trkpt><trkpt lat="43.171015" lon="11.58577"><ele>360.0</ele><time>2026-04-18T15:51:38.771Z</time></trkpt><trkpt lat="43.17122" lon="11.5857183"><ele>360.0</ele><time>2026-04-18T15:51:39.77Z</time></trkpt><trkpt lat="43.1714283" lon="11.5856867"><ele>360.0</ele><time>2026-04-18T15:51:40.77Z</time></trkpt><trkpt lat="43.1716433" lon="11.5856733"><ele>360.0</ele><time>2026-04-18T15:51:41.77Z</time></trkpt><trkpt lat="43.171855" lon="11.585665"><ele>359.6666666666667</ele><time>2026-04-18T15:51:42.77Z</time></trkpt><trkpt lat="43.172055" lon="11.58565"><ele>359.33333333333337</ele><time>2026-04-18T15:51:43.769Z</time></trkpt><trkpt lat="43.17225" lon="11.5856083"><ele>359.0</ele><time>2026-04-18T15:51:44.773Z</time></trkpt><trkpt lat="43.1724417" lon="11.5855167"><ele>357.6666666666667</ele><time>2026-04-18T15:51:45.77Z</time></trkpt><trkpt lat="43.1726283" lon="11.5853717"><ele>356.3333333333333</ele><time>2026-04-18T15:51:46.77Z</time></trkpt><trkpt lat="43.1728067" lon="11.5851883"><ele>355.0</ele><time>2026-04-18T15:51:47.77Z</time></trkpt><trkpt lat="43.172985" lon="11.5849833"><ele>355.0</ele><time>2026-04-18T15:51:48.765Z</time></trkpt><trkpt lat="43.173175" lon="11.5847683"><ele>355.0</ele><time>2026-04-18T15:51:49.768Z</time></trkpt><trkpt lat="43.173375" lon="11.58455"><ele>356.5</ele><time>2026-04-18T15:51:50.769Z</time></trkpt><trkpt lat="43.173575" lon="11.58433"><ele>358.0</ele><time>2026-04-18T15:51:51.77Z</time></trkpt><trkpt lat="43.1737767" lon="11.58411"><ele>358.0</ele><time>2026-04-18T15:51:52.77Z</time></trkpt><trkpt lat="43.173975" lon="11.583895"><ele>358.0</ele><time>2026-04-18T15:51:53.77Z</time></trkpt><trkpt lat="43.1741667" lon="11.583695"><ele>359.66666666666663</ele><time>2026-04-18T15:51:54.771Z</time></trkpt><trkpt lat="43.1743533" lon="11.58352"><ele>361.3333333333333</ele><time>2026-04-18T15:51:55.772Z</time></trkpt><trkpt lat="43.1745383" lon="11.58337"><ele>363.0</ele><time>2026-04-18T15:51:56.771Z</time></trkpt><trkpt lat="43.17473" lon="11.5832433"><ele>362.0</ele><time>2026-04-18T15:51:57.769Z</time></trkpt><trkpt lat="43.17494" lon="11.5831467"><ele>361.0</ele><time>2026-04-18T15:51:58.769Z</time></trkpt><trkpt lat="43.1751517" lon="11.58306"><ele>360.0</ele><time>2026-04-18T15:51:59.766Z</time></trkpt><trkpt lat="43.1753733" lon="11.58298"><ele>360.0</ele><time>2026-04-18T15:52:00.774Z</time></trkpt><trkpt lat="43.1755967" lon="11.5829267"><ele>360.0</ele><time>2026-04-18T15:52:01.769Z</time></trkpt><trkpt lat="43.1758283" lon="11.58292"><ele>360.0</ele><time>2026-04-18T15:52:02.771Z</time></trkpt><trkpt lat="43.176075" lon="11.5829433"><ele>360.0</ele><time>2026-04-18T15:52:03.771Z</time></trkpt><trkpt lat="43.176325" lon="11.5829783"><ele>361.0</ele><time>2026-04-18T15:52:04.771Z</time></trkpt><trkpt lat="43.17658" lon="11.5830133"><ele>362.0</ele><time>2026-04-18T15:52:05.77Z</time></trkpt><trkpt lat="43.176845" lon="11.583065"><ele>362.0</ele><time>2026-04-18T15:52:06.77Z</time></trkpt><trkpt lat="43.177105" lon="11.5831433"><ele>362.0</ele><time>2026-04-18T15:52:07.769Z</time></trkpt><trkpt lat="43.1773717" lon="11.583245"><ele>364.0</ele><time>2026-04-18T15:52:08.772Z</time></trkpt><trkpt lat="43.17763" lon="11.5833517"><ele>366.0</ele><time>2026-04-18T15:52:09.77Z</time></trkpt><trkpt lat="43.17788" lon="11.5834517"><ele>366.0</ele><time>2026-04-18T15:52:10.77Z</time></trkpt><trkpt lat="43.1781217" lon="11.58353"><ele>366.0</ele><time>2026-04-18T15:52:11.771Z</time></trkpt><trkpt lat="43.1783583" lon="11.5835817"><ele>367.0</ele><time>2026-04-18T15:52:12.769Z</time></trkpt><trkpt lat="43.1785783" lon="11.5836283"><ele>368.0</ele><time>2026-04-18T15:52:13.769Z</time></trkpt><trkpt lat="43.1787833" lon="11.5836733"><ele>369.0</ele><time>2026-04-18T15:52:14.773Z</time></trkpt><trkpt lat="43.1789767" lon="11.5837233"><ele>368.3333333333333</ele><time>2026-04-18T15:52:15.766Z</time></trkpt><trkpt lat="43.1791633" lon="11.5837617"><ele>367.66666666666663</ele><time>2026-04-18T15:52:16.771Z</time></trkpt><trkpt lat="43.17934" lon="11.583785"><ele>367.0</ele><time>2026-04-18T15:52:17.766Z</time></trkpt><trkpt lat="43.1795283" lon="11.583775"><ele>367.0</ele><time>2026-04-18T15:52:18.767Z</time></trkpt><trkpt lat="43.17973" lon="11.5837333"><ele>367.0</ele><time>2026-04-18T15:52:19.769Z</time></trkpt><trkpt lat="43.1799433" lon="11.5836633"><ele>367.0</ele><time>2026-04-18T15:52:20.769Z</time></trkpt><trkpt lat="43.1801667" lon="11.58357"><ele>370.0</ele><time>2026-04-18T15:52:21.77Z</time></trkpt><trkpt lat="43.180395" lon="11.5834567"><ele>373.0</ele><time>2026-04-18T15:52:22.77Z</time></trkpt><trkpt lat="43.1806283" lon="11.5833283"><ele>370.0</ele><time>2026-04-18T15:52:23.767Z</time></trkpt><trkpt lat="43.1808733" lon="11.583195"><ele>367.0</ele><time>2026-04-18T15:52:24.77Z</time></trkpt><trkpt lat="43.181125" lon="11.5830567"><ele>367.0</ele><time>2026-04-18T15:52:25.771Z</time></trkpt><trkpt lat="43.181385" lon="11.5829117"><ele>367.0</ele><time>2026-04-18T15:52:26.772Z</time></trkpt><trkpt lat="43.1816433" lon="11.58275"><ele>366.5</ele><time>2026-04-18T15:52:27.765Z</time></trkpt><trkpt lat="43.181895" lon="11.582585"><ele>366.0</ele><time>2026-04-18T15:52:28.764Z</time></trkpt><trkpt lat="43.1821383" lon="11.5824333"><ele>367.0</ele><time>2026-04-18T15:52:29.766Z</time></trkpt><trkpt lat="43.18236" lon="11.582305"><ele>368.0</ele><time>2026-04-18T15:52:30.767Z</time></trkpt><trkpt lat="43.18255" lon="11.5821867"><ele>369.0</ele><time>2026-04-18T15:52:31.769Z</time></trkpt><trkpt lat="43.1827067" lon="11.58206"><ele>369.3333333333333</ele><time>2026-04-18T15:52:32.774Z</time></trkpt><trkpt lat="43.18284" lon="11.581915"><ele>369.66666666666663</ele><time>2026-04-18T15:52:33.77Z</time></trkpt><trkpt lat="43.1829517" lon="11.5817467"><ele>370.0</ele><time>2026-04-18T15:52:34.766Z</time></trkpt><trkpt lat="43.18303" lon="11.5815317"><ele>370.0</ele><time>2026-04-18T15:52:35.766Z</time></trkpt><trkpt lat="43.18306" lon="11.58127"><ele>370.0</ele><time>2026-04-18T15:52:36.77Z</time></trkpt><trkpt lat="43.1830517" lon="11.5809883"><ele>370.0</ele><time>2026-04-18T15:52:37.767Z</time></trkpt><trkpt lat="43.1830133" lon="11.5806983"><ele>367.66666666666663</ele><time>2026-04-18T15:52:38.773Z</time></trkpt><trkpt lat="43.182965" lon="11.580425"><ele>365.3333333333333</ele><time>2026-04-18T15:52:39.77Z</time></trkpt><trkpt lat="43.182885" lon="11.58017"><ele>363.0</ele><time>2026-04-18T15:52:40.769Z</time></trkpt><trkpt lat="43.1827667" lon="11.579945"><ele>362.6666666666667</ele><time>2026-04-18T15:52:41.769Z</time></trkpt><trkpt lat="43.1826533" lon="11.5797433"><ele>362.33333333333337</ele><time>2026-04-18T15:52:42.77Z</time></trkpt><trkpt lat="43.18257" lon="11.5795267"><ele>362.0</ele><time>2026-04-18T15:52:43.769Z</time></trkpt><trkpt lat="43.1825283" lon="11.579285"><ele>361.6666666666667</ele><time>2026-04-18T15:52:44.774Z</time></trkpt><trkpt lat="43.1825267" lon="11.5790433"><ele>361.3333333333333</ele><time>2026-04-18T15:52:45.77Z</time></trkpt><trkpt lat="43.182555" lon="11.5788117"><ele>361.0</ele><time>2026-04-18T15:52:46.77Z</time></trkpt><trkpt lat="43.1826383" lon="11.5785917"><ele>358.66666666666663</ele><time>2026-04-18T15:52:47.766Z</time></trkpt><trkpt lat="43.182765" lon="11.5783883"><ele>356.3333333333333</ele><time>2026-04-18T15:52:48.77Z</time></trkpt><trkpt lat="43.1829033" lon="11.5781883"><ele>354.0</ele><time>2026-04-18T15:52:49.77Z</time></trkpt><trkpt lat="43.1830383" lon="11.578025"><ele>354.0</ele><time>2026-04-18T15:52:50.771Z</time></trkpt><trkpt lat="43.1831583" lon="11.5779117"><ele>354.0</ele><time>2026-04-18T15:52:51.769Z</time></trkpt><trkpt lat="43.18326" lon="11.5778617"><ele>354.0</ele><time>2026-04-18T15:52:52.766Z</time></trkpt><trkpt lat="43.1833417" lon="11.5778583"><ele>354.0</ele><time>2026-04-18T15:52:53.771Z</time></trkpt><trkpt lat="43.1834217" lon="11.57789"><ele>354.0</ele><time>2026-04-18T15:52:54.77Z</time></trkpt><trkpt lat="43.183515" lon="11.5779517"><ele>355.5</ele><time>2026-04-18T15:52:55.769Z</time></trkpt><trkpt lat="43.1836367" lon="11.5780167"><ele>357.0</ele><time>2026-04-18T15:52:56.769Z</time></trkpt><trkpt lat="43.1837767" lon="11.5780817"><ele>358.5</ele><time>2026-04-18T15:52:57.767Z</time></trkpt><trkpt lat="43.183925" lon="11.5781483"><ele>360.0</ele><time>2026-04-18T15:52:58.766Z</time></trkpt><trkpt lat="43.1840667" lon="11.5782133"><ele>360.0</ele><time>2026-04-18T15:52:59.769Z</time></trkpt><trkpt lat="43.1841983" lon="11.5782783"><ele>360.0</ele><time>2026-04-18T15:53:00.766Z</time></trkpt><trkpt lat="43.184315" lon="11.5783667"><ele>360.0</ele><time>2026-04-18T15:53:01.766Z</time></trkpt><trkpt lat="43.184405" lon="11.5784883"><ele>360.0</ele><time>2026-04-18T15:53:02.772Z</time></trkpt><trkpt lat="43.1844583" lon="11.5786417"><ele>361.25</ele><time>2026-04-18T15:53:03.77Z</time></trkpt><trkpt lat="43.1844783" lon="11.5788233"><ele>362.5</ele><time>2026-04-18T15:53:04.765Z</time></trkpt><trkpt lat="43.1844717" lon="11.5790117"><ele>363.75</ele><time>2026-04-18T15:53:05.771Z</time></trkpt><trkpt lat="43.184455" lon="11.579205"><ele>365.0</ele><time>2026-04-18T15:53:06.769Z</time></trkpt><trkpt lat="43.18444" lon="11.5793833"><ele>366.75</ele><time>2026-04-18T15:53:07.768Z</time></trkpt><trkpt lat="43.1844367" lon="11.5795333"><ele>368.5</ele><time>2026-04-18T15:53:08.773Z</time></trkpt><trkpt lat="43.184455" lon="11.5796767"><ele>370.25</ele><time>2026-04-18T15:53:09.77Z</time></trkpt><trkpt lat="43.1844967" lon="11.5798267"><ele>372.0</ele><time>2026-04-18T15:53:10.771Z</time></trkpt><trkpt lat="43.184565" lon="11.5799917"><ele>372.0</ele><time>2026-04-18T15:53:11.771Z</time></trkpt><trkpt lat="43.18465" lon="11.5801683"><ele>372.0</ele><time>2026-04-18T15:53:12.77Z</time></trkpt><trkpt lat="43.1847483" lon="11.580355"><ele>372.0</ele><time>2026-04-18T15:53:13.771Z</time></trkpt><trkpt lat="43.1848783" lon="11.5805167"><ele>368.6666666666667</ele><time>2026-04-18T15:53:14.771Z</time></trkpt><trkpt lat="43.1850383" lon="11.5806517"><ele>365.33333333333337</ele><time>2026-04-18T15:53:15.769Z</time></trkpt><trkpt lat="43.18522" lon="11.5807617"><ele>362.0</ele><time>2026-04-18T15:53:16.771Z</time></trkpt><trkpt lat="43.1853967" lon="11.5808983"><ele>362.0</ele><time>2026-04-18T15:53:17.766Z</time></trkpt><trkpt lat="43.1855533" lon="11.5810733"><ele>362.0</ele><time>2026-04-18T15:53:18.771Z</time></trkpt><trkpt lat="43.1857" lon="11.581255"><ele>362.0</ele><time>2026-04-18T15:53:19.77Z</time></trkpt><trkpt lat="43.1858633" lon="11.5814167"><ele>360.0</ele><time>2026-04-18T15:53:20.77Z</time></trkpt><trkpt lat="43.186045" lon="11.58155"><ele>358.0</ele><time>2026-04-18T15:53:21.766Z</time></trkpt><trkpt lat="43.18623" lon="11.5816617"><ele>356.0</ele><time>2026-04-18T15:53:22.765Z</time></trkpt><trkpt lat="43.1863883" lon="11.58175"><ele>354.0</ele><time>2026-04-18T15:53:23.768Z</time></trkpt><trkpt lat="43.18652" lon="11.58184"><ele>352.0</ele><time>2026-04-18T15:53:24.774Z</time></trkpt><trkpt lat="43.18662" lon="11.5819433"><ele>350.0</ele><time>2026-04-18T15:53:25.769Z</time></trkpt><trkpt lat="43.1866967" lon="11.5821033"><ele>348.0</ele><time>2026-04-18T15:53:26.772Z</time></trkpt><trkpt lat="43.18675" lon="11.5822917"><ele>348.0</ele><time>2026-04-18T15:53:27.769Z</time></trkpt><trkpt lat="43.1867783" lon="11.58253"><ele>348.0</ele><time>2026-04-18T15:53:28.767Z</time></trkpt><trkpt lat="43.1868183" lon="11.5827667"><ele>348.0</ele><time>2026-04-18T15:53:29.769Z</time></trkpt><trkpt lat="43.186885" lon="11.5829917"><ele>347.3333333333333</ele><time>2026-04-18T15:53:30.766Z</time></trkpt><trkpt lat="43.1869767" lon="11.583185"><ele>346.66666666666663</ele><time>2026-04-18T15:53:31.769Z</time></trkpt><trkpt lat="43.187095" lon="11.5833367"><ele>346.0</ele><time>2026-04-18T15:53:32.773Z</time></trkpt><trkpt lat="43.1872383" lon="11.5834467"><ele>343.3333333333333</ele><time>2026-04-18T15:53:33.77Z</time></trkpt><trkpt lat="43.1874033" lon="11.5834983"><ele>340.6666666666667</ele><time>2026-04-18T15:53:34.769Z</time></trkpt><trkpt lat="43.1875783" lon="11.583505"><ele>338.0</ele><time>2026-04-18T15:53:35.77Z</time></trkpt><trkpt lat="43.1877683" lon="11.5835"><ele>338.0</ele><time>2026-04-18T15:53:36.769Z</time></trkpt><trkpt lat="43.187945" lon="11.58351"><ele>338.0</ele><time>2026-04-18T15:53:37.766Z</time></trkpt><trkpt lat="43.188105" lon="11.58356"><ele>338.0</ele><time>2026-04-18T15:53:38.771Z</time></trkpt><trkpt lat="43.1882583" lon="11.583645"><ele>338.0</ele><time>2026-04-18T15:53:39.765Z</time></trkpt><trkpt lat="43.1884183" lon="11.583765"><ele>338.0</ele><time>2026-04-18T15:53:40.77Z</time></trkpt><trkpt lat="43.18858" lon="11.5839183"><ele>338.0</ele><time>2026-04-18T15:53:41.772Z</time></trkpt><trkpt lat="43.1887383" lon="11.5840867"><ele>338.0</ele><time>2026-04-18T15:53:42.77Z</time></trkpt><trkpt lat="43.1889067" lon="11.5842733"><ele>338.0</ele><time>2026-04-18T15:53:43.76Z</time></trkpt><trkpt lat="43.18908" lon="11.5844767"><ele>338.0</ele><time>2026-04-18T15:53:44.762Z</time></trkpt><trkpt lat="43.189265" lon="11.58469"><ele>336.5</ele><time>2026-04-18T15:53:45.77Z</time></trkpt><trkpt lat="43.1894517" lon="11.5849117"><ele>335.0</ele><time>2026-04-18T15:53:46.772Z</time></trkpt><trkpt lat="43.18964" lon="11.5851467"><ele>336.5</ele><time>2026-04-18T15:53:47.769Z</time></trkpt><trkpt lat="43.1898317" lon="11.58539"><ele>338.0</ele><time>2026-04-18T15:53:48.771Z</time></trkpt><trkpt lat="43.1900233" lon="11.585635"><ele>338.0</ele><time>2026-04-18T15:53:49.77Z</time></trkpt><trkpt lat="43.190205" lon="11.5858717"><ele>338.0</ele><time>2026-04-18T15:53:50.772Z</time></trkpt><trkpt lat="43.1903733" lon="11.5860933"><ele>338.6666666666667</ele><time>2026-04-18T15:53:51.768Z</time></trkpt><trkpt lat="43.1905367" lon="11.586295"><ele>339.3333333333333</ele><time>2026-04-18T15:53:52.77Z</time></trkpt><trkpt lat="43.1907" lon="11.5864567"><ele>340.0</ele><time>2026-04-18T15:53:53.766Z</time></trkpt><trkpt lat="43.1908717" lon="11.5865717"><ele>340.0</ele><time>2026-04-18T15:53:54.774Z</time></trkpt><trkpt lat="43.1910617" lon="11.58665"><ele>340.0</ele><time>2026-04-18T15:53:55.769Z</time></trkpt><trkpt lat="43.1912617" lon="11.58669"><ele>340.0</ele><time>2026-04-18T15:53:56.772Z</time></trkpt><trkpt lat="43.1914617" lon="11.5866917"><ele>340.0</ele><time>2026-04-18T15:53:57.771Z</time></trkpt><trkpt lat="43.1916583" lon="11.5866617"><ele>340.0</ele><time>2026-04-18T15:53:58.77Z</time></trkpt><trkpt lat="43.1918433" lon="11.5865983"><ele>340.0</ele><time>2026-04-18T15:53:59.77Z</time></trkpt><trkpt lat="43.1920167" lon="11.5864933"><ele>340.0</ele><time>2026-04-18T15:54:00.77Z</time></trkpt><trkpt lat="43.1921783" lon="11.5863517"><ele>340.0</ele><time>2026-04-18T15:54:01.767Z</time></trkpt><trkpt lat="43.1923183" lon="11.58617"><ele>340.0</ele><time>2026-04-18T15:54:02.773Z</time></trkpt><trkpt lat="43.1924383" lon="11.58594"><ele>339.3333333333333</ele><time>2026-04-18T15:54:03.769Z</time></trkpt><trkpt lat="43.192565" lon="11.5856933"><ele>338.6666666666667</ele><time>2026-04-18T15:54:04.77Z</time></trkpt><trkpt lat="43.1926933" lon="11.58544"><ele>338.0</ele><time>2026-04-18T15:54:05.766Z</time></trkpt><trkpt lat="43.1928333" lon="11.5851933"><ele>336.0</ele><time>2026-04-18T15:54:06.769Z</time></trkpt><trkpt lat="43.1929717" lon="11.58495"><ele>334.0</ele><time>2026-04-18T15:54:07.769Z</time></trkpt><trkpt lat="43.193105" lon="11.5847083"><ele>332.0</ele><time>2026-04-18T15:54:08.771Z</time></trkpt><trkpt lat="43.1932433" lon="11.58448"><ele>332.0</ele><time>2026-04-18T15:54:09.77Z</time></trkpt><trkpt lat="43.1933733" lon="11.584245"><ele>332.0</ele><time>2026-04-18T15:54:10.769Z</time></trkpt><trkpt lat="43.1935033" lon="11.5840067"><ele>332.0</ele><time>2026-04-18T15:54:11.766Z</time></trkpt><trkpt lat="43.1936383" lon="11.58376"><ele>332.33333333333337</ele><time>2026-04-18T15:54:12.768Z</time></trkpt><trkpt lat="43.1937683" lon="11.58352"><ele>332.6666666666667</ele><time>2026-04-18T15:54:13.767Z</time></trkpt><trkpt lat="43.19389" lon="11.58329"><ele>333.0</ele><time>2026-04-18T15:54:14.771Z</time></trkpt><trkpt lat="43.19401" lon="11.5830767"><ele>333.0</ele><time>2026-04-18T15:54:15.768Z</time></trkpt><trkpt lat="43.1941383" lon="11.5829"><ele>333.0</ele><time>2026-04-18T15:54:16.769Z</time></trkpt><trkpt lat="43.1942767" lon="11.582755"><ele>333.0</ele><time>2026-04-18T15:54:17.77Z</time></trkpt><trkpt lat="43.1944333" lon="11.5826783"><ele>333.3333333333333</ele><time>2026-04-18T15:54:18.769Z</time></trkpt><trkpt lat="43.1946033" lon="11.5826917"><ele>333.66666666666663</ele><time>2026-04-18T15:54:19.769Z</time></trkpt><trkpt lat="43.1947567" lon="11.582785"><ele>334.0</ele><time>2026-04-18T15:54:20.774Z</time></trkpt><trkpt lat="43.194905" lon="11.5829683"><ele>333.3333333333333</ele><time>2026-04-18T15:54:21.771Z</time></trkpt><trkpt lat="43.1950217" lon="11.5831783"><ele>332.6666666666667</ele><time>2026-04-18T15:54:22.769Z</time></trkpt><trkpt lat="43.195135" lon="11.5833783"><ele>332.0</ele><time>2026-04-18T15:54:23.766Z</time></trkpt><trkpt lat="43.1952467" lon="11.5835767"><ele>330.6666666666667</ele><time>2026-04-18T15:54:24.77Z</time></trkpt><trkpt lat="43.1953567" lon="11.5837583"><ele>329.3333333333333</ele><time>2026-04-18T15:54:25.77Z</time></trkpt><trkpt lat="43.1954683" lon="11.583935"><ele>328.0</ele><time>2026-04-18T15:54:26.773Z</time></trkpt><trkpt lat="43.1955767" lon="11.5841117"><ele>327.66666666666663</ele><time>2026-04-18T15:54:27.767Z</time></trkpt><trkpt lat="43.1956883" lon="11.5842883"><ele>327.3333333333333</ele><time>2026-04-18T15:54:28.77Z</time></trkpt><trkpt lat="43.1957983" lon="11.5844583"><ele>327.0</ele><time>2026-04-18T15:54:29.77Z</time></trkpt><trkpt lat="43.1959083" lon="11.5846367"><ele>327.0</ele><time>2026-04-18T15:54:30.769Z</time></trkpt><trkpt lat="43.1960217" lon="11.58481"><ele>327.0</ele><time>2026-04-18T15:54:31.771Z</time></trkpt><trkpt lat="43.1961367" lon="11.5849817"><ele>327.0</ele><time>2026-04-18T15:54:32.772Z</time></trkpt><trkpt lat="43.1962533" lon="11.5851517"><ele>327.0</ele><time>2026-04-18T15:54:33.769Z</time></trkpt><trkpt lat="43.1963733" lon="11.5853167"><ele>327.0</ele><time>2026-04-18T15:54:34.771Z</time></trkpt><trkpt lat="43.1964967" lon="11.5854833"><ele>327.0</ele><time>2026-04-18T15:54:35.769Z</time></trkpt><trkpt lat="43.1966267" lon="11.58565"><ele>327.0</ele><time>2026-04-18T15:54:36.769Z</time></trkpt><trkpt lat="43.19676" lon="11.5858233"><ele>327.0</ele><time>2026-04-18T15:54:37.769Z</time></trkpt><trkpt lat="43.1968967" lon="11.5860017"><ele>327.0</ele><time>2026-04-18T15:54:38.773Z</time></trkpt><trkpt lat="43.197035" lon="11.5861817"><ele>327.0</ele><time>2026-04-18T15:54:39.766Z</time></trkpt><trkpt lat="43.1971733" lon="11.5863633"><ele>327.0</ele><time>2026-04-18T15:54:40.77Z</time></trkpt><trkpt lat="43.1973167" lon="11.5865433"><ele>327.0</ele><time>2026-04-18T15:54:41.769Z</time></trkpt><trkpt lat="43.1974567" lon="11.586725"><ele>327.3333333333333</ele><time>2026-04-18T15:54:42.766Z</time></trkpt><trkpt lat="43.1975983" lon="11.5869067"><ele>327.66666666666663</ele><time>2026-04-18T15:54:43.772Z</time></trkpt><trkpt lat="43.19774" lon="11.5870917"><ele>328.0</ele><time>2026-04-18T15:54:44.772Z</time></trkpt><trkpt lat="43.197885" lon="11.587275"><ele>327.66666666666663</ele><time>2026-04-18T15:54:45.771Z</time></trkpt><trkpt lat="43.1980317" lon="11.5874617"><ele>327.3333333333333</ele><time>2026-04-18T15:54:46.769Z</time></trkpt><trkpt lat="43.1981783" lon="11.58765"><ele>327.0</ele><time>2026-04-18T15:54:47.769Z</time></trkpt><trkpt lat="43.1983267" lon="11.5878333"><ele>329.6666666666667</ele><time>2026-04-18T15:54:48.763Z</time></trkpt><trkpt lat="43.19847" lon="11.5880183"><ele>332.33333333333337</ele><time>2026-04-18T15:54:49.771Z</time></trkpt><trkpt lat="43.1986117" lon="11.588205"><ele>335.0</ele><time>2026-04-18T15:54:50.771Z</time></trkpt><trkpt lat="43.19875" lon="11.5884017"><ele>335.0</ele><time>2026-04-18T15:54:51.767Z</time></trkpt><trkpt lat="43.19888" lon="11.5886033"><ele>335.0</ele><time>2026-04-18T15:54:52.772Z</time></trkpt><trkpt lat="43.1990033" lon="11.5887983"><ele>335.0</ele><time>2026-04-18T15:54:53.77Z</time></trkpt><trkpt lat="43.19912" lon="11.5889833"><ele>334.0</ele><time>2026-04-18T15:54:54.772Z</time></trkpt><trkpt lat="43.1992217" lon="11.5891683"><ele>333.0</ele><time>2026-04-18T15:54:55.77Z</time></trkpt><trkpt lat="43.1993167" lon="11.5893517"><ele>332.0</ele><time>2026-04-18T15:54:56.773Z</time></trkpt><trkpt lat="43.1994033" lon="11.5895333"><ele>332.0</ele><time>2026-04-18T15:54:57.771Z</time></trkpt><trkpt lat="43.1994867" lon="11.5897067"><ele>332.0</ele><time>2026-04-18T15:54:58.77Z</time></trkpt><trkpt lat="43.1995833" lon="11.58986"><ele>332.0</ele><time>2026-04-18T15:54:59.771Z</time></trkpt><trkpt lat="43.1996983" lon="11.5899933"><ele>332.0</ele><time>2026-04-18T15:55:00.77Z</time></trkpt><trkpt lat="43.1998267" lon="11.5901"><ele>332.0</ele><time>2026-04-18T15:55:01.77Z</time></trkpt><trkpt lat="43.1999667" lon="11.5901867"><ele>332.0</ele><time>2026-04-18T15:55:02.772Z</time></trkpt><trkpt lat="43.2001117" lon="11.5902633"><ele>329.5</ele><time>2026-04-18T15:55:03.77Z</time></trkpt><trkpt lat="43.2002517" lon="11.5903467"><ele>327.0</ele><time>2026-04-18T15:55:04.772Z</time></trkpt><trkpt lat="43.2003767" lon="11.5904433"><ele>324.5</ele><time>2026-04-18T15:55:05.769Z</time></trkpt><trkpt lat="43.2004833" lon="11.5905683"><ele>322.0</ele><time>2026-04-18T15:55:06.768Z</time></trkpt><trkpt lat="43.200565" lon="11.59072"><ele>322.0</ele><time>2026-04-18T15:55:07.77Z</time></trkpt><trkpt lat="43.2006067" lon="11.59089"><ele>322.0</ele><time>2026-04-18T15:55:08.772Z</time></trkpt><trkpt lat="43.2006117" lon="11.591075"><ele>322.0</ele><time>2026-04-18T15:55:09.769Z</time></trkpt><trkpt lat="43.2006" lon="11.5912833"><ele>322.0</ele><time>2026-04-18T15:55:10.769Z</time></trkpt><trkpt lat="43.200595" lon="11.591505"><ele>320.0</ele><time>2026-04-18T15:55:11.771Z</time></trkpt><trkpt lat="43.200605" lon="11.5917383"><ele>318.0</ele><time>2026-04-18T15:55:12.77Z</time></trkpt><trkpt lat="43.20063" lon="11.5919717"><ele>316.0</ele><time>2026-04-18T15:55:13.771Z</time></trkpt><trkpt lat="43.200665" lon="11.5922117"><ele>316.0</ele><time>2026-04-18T15:55:14.773Z</time></trkpt><trkpt lat="43.20071" lon="11.5924483"><ele>316.0</ele><time>2026-04-18T15:55:15.77Z</time></trkpt><trkpt lat="43.2007683" lon="11.592685"><ele>316.0</ele><time>2026-04-18T15:55:16.771Z</time></trkpt><trkpt lat="43.2008467" lon="11.5929133"><ele>316.0</ele><time>2026-04-18T15:55:17.769Z</time></trkpt><trkpt lat="43.2009367" lon="11.5931333"><ele>316.0</ele><time>2026-04-18T15:55:18.77Z</time></trkpt><trkpt lat="43.2010233" lon="11.5933417"><ele>316.0</ele><time>2026-04-18T15:55:19.77Z</time></trkpt><trkpt lat="43.2010967" lon="11.5935467"><ele>317.66666666666663</ele><time>2026-04-18T15:55:20.771Z</time></trkpt><trkpt lat="43.2011533" lon="11.5937717"><ele>319.3333333333333</ele><time>2026-04-18T15:55:21.769Z</time></trkpt><trkpt lat="43.2011967" lon="11.594015"><ele>321.0</ele><time>2026-04-18T15:55:22.771Z</time></trkpt><trkpt lat="43.2012383" lon="11.5942633"><ele>323.0</ele><time>2026-04-18T15:55:23.769Z</time></trkpt><trkpt lat="43.2012867" lon="11.59452"><ele>325.0</ele><time>2026-04-18T15:55:24.771Z</time></trkpt><trkpt lat="43.20134" lon="11.5947767"><ele>327.0</ele><time>2026-04-18T15:55:25.77Z</time></trkpt><trkpt lat="43.201405" lon="11.5950317"><ele>327.0</ele><time>2026-04-18T15:55:26.773Z</time></trkpt><trkpt lat="43.201485" lon="11.5952767"><ele>327.0</ele><time>2026-04-18T15:55:27.769Z</time></trkpt><trkpt lat="43.201575" lon="11.59551"><ele>327.0</ele><time>2026-04-18T15:55:28.767Z</time></trkpt><trkpt lat="43.2016517" lon="11.595745"><ele>324.6666666666667</ele><time>2026-04-18T15:55:29.772Z</time></trkpt><trkpt lat="43.2017017" lon="11.5959867"><ele>322.33333333333337</ele><time>2026-04-18T15:55:30.772Z</time></trkpt><trkpt lat="43.2017333" lon="11.5962267"><ele>320.0</ele><time>2026-04-18T15:55:31.769Z</time></trkpt><trkpt lat="43.2017783" lon="11.5964533"><ele>320.0</ele><time>2026-04-18T15:55:32.771Z</time></trkpt><trkpt lat="43.2018517" lon="11.596675"><ele>320.0</ele><time>2026-04-18T15:55:33.769Z</time></trkpt><trkpt lat="43.2019467" lon="11.596895"><ele>320.0</ele><time>2026-04-18T15:55:34.769Z</time></trkpt><trkpt lat="43.2020467" lon="11.597115"><ele>321.0</ele><time>2026-04-18T15:55:35.77Z</time></trkpt><trkpt lat="43.2021333" lon="11.5973433"><ele>322.0</ele><time>2026-04-18T15:55:36.769Z</time></trkpt><trkpt lat="43.2022117" lon="11.5975667"><ele>323.0</ele><time>2026-04-18T15:55:37.769Z</time></trkpt><trkpt lat="43.2022917" lon="11.5977867"><ele>320.0</ele><time>2026-04-18T15:55:38.773Z</time></trkpt><trkpt lat="43.2023867" lon="11.597985"><ele>317.0</ele><time>2026-04-18T15:55:39.766Z</time></trkpt><trkpt lat="43.2024967" lon="11.5981567"><ele>314.0</ele><time>2026-04-18T15:55:40.771Z</time></trkpt><trkpt lat="43.2026117" lon="11.5982983"><ele>314.0</ele><time>2026-04-18T15:55:41.769Z</time></trkpt><trkpt lat="43.2027267" lon="11.598425"><ele>314.0</ele><time>2026-04-18T15:55:42.77Z</time></trkpt><trkpt lat="43.2028633" lon="11.5985083"><ele>314.0</ele><time>2026-04-18T15:55:43.769Z</time></trkpt><trkpt lat="43.2030267" lon="11.5985517"><ele>309.0</ele><time>2026-04-18T15:55:44.773Z</time></trkpt><trkpt lat="43.2031983" lon="11.5985683"><ele>304.0</ele><time>2026-04-18T15:55:45.769Z</time></trkpt><trkpt lat="43.20337" lon="11.598585"><ele>299.0</ele><time>2026-04-18T15:55:46.77Z</time></trkpt><trkpt lat="43.2035483" lon="11.5986367"><ele>301.33333333333337</ele><time>2026-04-18T15:55:47.768Z</time></trkpt><trkpt lat="43.203725" lon="11.598735"><ele>303.6666666666667</ele><time>2026-04-18T15:55:48.772Z</time></trkpt><trkpt lat="43.2038967" lon="11.5988617"><ele>306.0</ele><time>2026-04-18T15:55:49.769Z</time></trkpt><trkpt lat="43.204055" lon="11.5989983"><ele>306.0</ele><time>2026-04-18T15:55:50.773Z</time></trkpt><trkpt lat="43.2042117" lon="11.599115"><ele>306.0</ele><time>2026-04-18T15:55:51.771Z</time></trkpt><trkpt lat="43.2043733" lon="11.5991883"><ele>306.0</ele><time>2026-04-18T15:55:52.77Z</time></trkpt><trkpt lat="43.2045317" lon="11.5992083"><ele>306.0</ele><time>2026-04-18T15:55:53.771Z</time></trkpt><trkpt lat="43.204685" lon="11.5991933"><ele>306.0</ele><time>2026-04-18T15:55:54.771Z</time></trkpt><trkpt lat="43.204835" lon="11.5991917"><ele>306.0</ele><time>2026-04-18T15:55:55.769Z</time></trkpt><trkpt lat="43.204985" lon="11.599235"><ele>305.5</ele><time>2026-04-18T15:55:56.774Z</time></trkpt><trkpt lat="43.2051217" lon="11.5993233"><ele>305.0</ele><time>2026-04-18T15:55:57.768Z</time></trkpt><trkpt lat="43.2052367" lon="11.59944"><ele>304.5</ele><time>2026-04-18T15:55:58.77Z</time></trkpt><trkpt lat="43.2053217" lon="11.5995533"><ele>304.0</ele><time>2026-04-18T15:55:59.769Z</time></trkpt><trkpt lat="43.20539" lon="11.5996183"><ele>304.0</ele><time>2026-04-18T15:56:00.771Z</time></trkpt><trkpt lat="43.2054633" lon="11.5996517"><ele>304.0</ele><time>2026-04-18T15:56:01.769Z</time></trkpt><trkpt lat="43.2055283" lon="11.5996417"><ele>304.0</ele><time>2026-04-18T15:56:02.773Z</time></trkpt><trkpt lat="43.2056067" lon="11.59954"><ele>304.0</ele><time>2026-04-18T15:56:04.771Z</time></trkpt><trkpt lat="43.2055983" lon="11.5993233"><ele>304.0</ele><time>2026-04-18T15:56:06.771Z</time></trkpt><trkpt lat="43.2055333" lon="11.5991417"><ele>300.66666666666663</ele><time>2026-04-18T15:56:07.769Z</time></trkpt><trkpt lat="43.2054467" lon="11.598955"><ele>297.3333333333333</ele><time>2026-04-18T15:56:08.77Z</time></trkpt><trkpt lat="43.2053633" lon="11.5987833"><ele>294.0</ele><time>2026-04-18T15:56:09.77Z</time></trkpt><trkpt lat="43.205285" lon="11.59861"><ele>290.75</ele><time>2026-04-18T15:56:10.769Z</time></trkpt><trkpt lat="43.2052317" lon="11.5984333"><ele>287.5</ele><time>2026-04-18T15:56:11.771Z</time></trkpt><trkpt lat="43.2052183" lon="11.5982583"><ele>284.25</ele><time>2026-04-18T15:56:12.766Z</time></trkpt><trkpt lat="43.2052467" lon="11.5980817"><ele>281.0</ele><time>2026-04-18T15:56:13.77Z</time></trkpt><trkpt lat="43.2053333" lon="11.5979333"><ele>277.6666666666667</ele><time>2026-04-18T15:56:14.774Z</time></trkpt><trkpt lat="43.2054717" lon="11.59781"><ele>274.3333333333333</ele><time>2026-04-18T15:56:15.771Z</time></trkpt><trkpt lat="43.20562" lon="11.5976767"><ele>271.0</ele><time>2026-04-18T15:56:16.769Z</time></trkpt><trkpt lat="43.205775" lon="11.5975067"><ele>271.0</ele><time>2026-04-18T15:56:17.771Z</time></trkpt><trkpt lat="43.2059283" lon="11.59731"><ele>271.0</ele><time>2026-04-18T15:56:18.768Z</time></trkpt><trkpt lat="43.206085" lon="11.5971"><ele>271.0</ele><time>2026-04-18T15:56:19.765Z</time></trkpt><trkpt lat="43.20624" lon="11.59689"><ele>268.0</ele><time>2026-04-18T15:56:20.77Z</time></trkpt><trkpt lat="43.2063917" lon="11.5966933"><ele>265.0</ele><time>2026-04-18T15:56:21.769Z</time></trkpt><trkpt lat="43.206535" lon="11.596505"><ele>262.0</ele><time>2026-04-18T15:56:22.769Z</time></trkpt><trkpt lat="43.2066733" lon="11.5963283"><ele>261.3333333333333</ele><time>2026-04-18T15:56:23.769Z</time></trkpt><trkpt lat="43.2068067" lon="11.5961433"><ele>260.6666666666667</ele><time>2026-04-18T15:56:24.779Z</time></trkpt><trkpt lat="43.2069367" lon="11.5959317"><ele>260.0</ele><time>2026-04-18T15:56:25.77Z</time></trkpt><trkpt lat="43.207065" lon="11.5957033"><ele>260.0</ele><time>2026-04-18T15:56:26.773Z</time></trkpt><trkpt lat="43.2071883" lon="11.5954517"><ele>260.0</ele><time>2026-04-18T15:56:27.768Z</time></trkpt><trkpt lat="43.2073333" lon="11.595205"><ele>260.5</ele><time>2026-04-18T15:56:28.767Z</time></trkpt><trkpt lat="43.2074817" lon="11.5949517"><ele>261.0</ele><time>2026-04-18T15:56:29.769Z</time></trkpt><trkpt lat="43.207625" lon="11.594685"><ele>257.5</ele><time>2026-04-18T15:56:30.769Z</time></trkpt><trkpt lat="43.207745" lon="11.5943983"><ele>254.0</ele><time>2026-04-18T15:56:31.769Z</time></trkpt><trkpt lat="43.2078533" lon="11.5940917"><ele>254.0</ele><time>2026-04-18T15:56:32.77Z</time></trkpt><trkpt lat="43.2079483" lon="11.5937667"><ele>254.0</ele><time>2026-04-18T15:56:33.768Z</time></trkpt><trkpt lat="43.20804" lon="11.5934367"><ele>254.5</ele><time>2026-04-18T15:56:34.769Z</time></trkpt><trkpt lat="43.208135" lon="11.593105"><ele>255.0</ele><time>2026-04-18T15:56:35.765Z</time></trkpt><trkpt lat="43.2082417" lon="11.5927833"><ele>255.0</ele><time>2026-04-18T15:56:36.768Z</time></trkpt><trkpt lat="43.2083533" lon="11.5924633"><ele>255.0</ele><time>2026-04-18T15:56:37.768Z</time></trkpt><trkpt lat="43.20847" lon="11.5921483"><ele>253.0</ele><time>2026-04-18T15:56:38.77Z</time></trkpt><trkpt lat="43.2086" lon="11.591835"><ele>251.0</ele><time>2026-04-18T15:56:39.768Z</time></trkpt><trkpt lat="43.208735" lon="11.59153"><ele>251.0</ele><time>2026-04-18T15:56:40.764Z</time></trkpt><trkpt lat="43.2088733" lon="11.5912233"><ele>251.0</ele><time>2026-04-18T15:56:41.769Z</time></trkpt><trkpt lat="43.209015" lon="11.590935"><ele>250.5</ele><time>2026-04-18T15:56:42.767Z</time></trkpt><trkpt lat="43.2091583" lon="11.5906733"><ele>250.0</ele><time>2026-04-18T15:56:43.77Z</time></trkpt><trkpt lat="43.2093067" lon="11.5904333"><ele>250.0</ele><time>2026-04-18T15:56:44.773Z</time></trkpt><trkpt lat="43.2094667" lon="11.59021"><ele>250.0</ele><time>2026-04-18T15:56:45.772Z</time></trkpt><trkpt lat="43.20964" lon="11.590005"><ele>250.0</ele><time>2026-04-18T15:56:46.77Z</time></trkpt><trkpt lat="43.2098217" lon="11.58981"><ele>250.0</ele><time>2026-04-18T15:56:47.77Z</time></trkpt><trkpt lat="43.210015" lon="11.5896217"><ele>248.5</ele><time>2026-04-18T15:56:48.769Z</time></trkpt><trkpt lat="43.2102117" lon="11.58943"><ele>247.0</ele><time>2026-04-18T15:56:49.769Z</time></trkpt><trkpt lat="43.2104067" lon="11.5892333"><ele>247.0</ele><time>2026-04-18T15:56:50.772Z</time></trkpt><trkpt lat="43.2105917" lon="11.5890483"><ele>247.0</ele><time>2026-04-18T15:56:51.77Z</time></trkpt><trkpt lat="43.210775" lon="11.5888767"><ele>245.0</ele><time>2026-04-18T15:56:52.77Z</time></trkpt><trkpt lat="43.2109683" lon="11.5887317"><ele>243.0</ele><time>2026-04-18T15:56:53.766Z</time></trkpt><trkpt lat="43.21118" lon="11.5886167"><ele>241.0</ele><time>2026-04-18T15:56:54.771Z</time></trkpt><trkpt lat="43.21141" lon="11.58853"><ele>239.0</ele><time>2026-04-18T15:56:55.768Z</time></trkpt><trkpt lat="43.211645" lon="11.5884617"><ele>237.0</ele><time>2026-04-18T15:56:56.773Z</time></trkpt><trkpt lat="43.2118717" lon="11.5884033"><ele>237.0</ele><time>2026-04-18T15:56:57.769Z</time></trkpt><trkpt lat="43.2120783" lon="11.5883467"><ele>237.0</ele><time>2026-04-18T15:56:58.77Z</time></trkpt><trkpt lat="43.21226" lon="11.588285"><ele>237.0</ele><time>2026-04-18T15:56:59.768Z</time></trkpt><trkpt lat="43.2124217" lon="11.5881967"><ele>236.33333333333331</ele><time>2026-04-18T15:57:00.769Z</time></trkpt><trkpt lat="43.2125717" lon="11.5880533"><ele>235.66666666666666</ele><time>2026-04-18T15:57:01.769Z</time></trkpt><trkpt lat="43.2127117" lon="11.5878683"><ele>235.0</ele><time>2026-04-18T15:57:02.771Z</time></trkpt><trkpt lat="43.21285" lon="11.5876683"><ele>235.0</ele><time>2026-04-18T15:57:03.77Z</time></trkpt><trkpt lat="43.212985" lon="11.5874767"><ele>235.0</ele><time>2026-04-18T15:57:04.769Z</time></trkpt><trkpt lat="43.213135" lon="11.587305"><ele>235.0</ele><time>2026-04-18T15:57:05.769Z</time></trkpt><trkpt lat="43.2132967" lon="11.58715"><ele>233.66666666666666</ele><time>2026-04-18T15:57:06.77Z</time></trkpt><trkpt lat="43.2134567" lon="11.58702"><ele>232.33333333333331</ele><time>2026-04-18T15:57:07.768Z</time></trkpt><trkpt lat="43.2136033" lon="11.58689"><ele>231.0</ele><time>2026-04-18T15:57:08.772Z</time></trkpt><trkpt lat="43.2137333" lon="11.58673"><ele>231.0</ele><time>2026-04-18T15:57:09.769Z</time></trkpt><trkpt lat="43.21384" lon="11.5865383"><ele>231.0</ele><time>2026-04-18T15:57:10.772Z</time></trkpt><trkpt lat="43.21393" lon="11.5863117"><ele>231.0</ele><time>2026-04-18T15:57:11.769Z</time></trkpt><trkpt lat="43.2140117" lon="11.5860733"><ele>226.0</ele><time>2026-04-18T15:57:12.768Z</time></trkpt><trkpt lat="43.2140933" lon="11.5858417"><ele>221.0</ele><time>2026-04-18T15:57:13.769Z</time></trkpt><trkpt lat="43.214165" lon="11.585615"><ele>216.0</ele><time>2026-04-18T15:57:14.771Z</time></trkpt><trkpt lat="43.21422" lon="11.5853717"><ele>215.66666666666669</ele><time>2026-04-18T15:57:15.772Z</time></trkpt><trkpt lat="43.2142467" lon="11.5851083"><ele>215.33333333333334</ele><time>2026-04-18T15:57:16.768Z</time></trkpt><trkpt lat="43.21425" lon="11.5848267"><ele>215.0</ele><time>2026-04-18T15:57:17.769Z</time></trkpt><trkpt lat="43.2142367" lon="11.5845233"><ele>212.5</ele><time>2026-04-18T15:57:18.768Z</time></trkpt><trkpt lat="43.2142233" lon="11.58421"><ele>210.0</ele><time>2026-04-18T15:57:19.769Z</time></trkpt><trkpt lat="43.2142233" lon="11.5838883"><ele>210.66666666666669</ele><time>2026-04-18T15:57:20.773Z</time></trkpt><trkpt lat="43.2142517" lon="11.5835833"><ele>211.33333333333334</ele><time>2026-04-18T15:57:21.768Z</time></trkpt><trkpt lat="43.2142983" lon="11.5832883"><ele>212.0</ele><time>2026-04-18T15:57:22.77Z</time></trkpt><trkpt lat="43.214355" lon="11.582985"><ele>211.5</ele><time>2026-04-18T15:57:23.768Z</time></trkpt><trkpt lat="43.214425" lon="11.5826683"><ele>211.0</ele><time>2026-04-18T15:57:24.769Z</time></trkpt><trkpt lat="43.2144883" lon="11.582335"><ele>210.0</ele><time>2026-04-18T15:57:25.768Z</time></trkpt><trkpt lat="43.2145483" lon="11.5819933"><ele>209.0</ele><time>2026-04-18T15:57:26.772Z</time></trkpt><trkpt lat="43.2146033" lon="11.5816433"><ele>209.0</ele><time>2026-04-18T15:57:27.77Z</time></trkpt><trkpt lat="43.21465" lon="11.5812883"><ele>209.0</ele><time>2026-04-18T15:57:28.77Z</time></trkpt><trkpt lat="43.2146883" lon="11.5809283"><ele>209.0</ele><time>2026-04-18T15:57:29.766Z</time></trkpt><trkpt lat="43.2147217" lon="11.5805683"><ele>209.0</ele><time>2026-04-18T15:57:30.772Z</time></trkpt><trkpt lat="43.2147517" lon="11.5802167"><ele>208.5</ele><time>2026-04-18T15:57:31.77Z</time></trkpt><trkpt lat="43.214775" lon="11.5798833"><ele>208.0</ele><time>2026-04-18T15:57:32.773Z</time></trkpt><trkpt lat="43.21479" lon="11.5795717"><ele>207.33333333333331</ele><time>2026-04-18T15:57:33.769Z</time></trkpt><trkpt lat="43.214805" lon="11.5792817"><ele>206.66666666666669</ele><time>2026-04-18T15:57:34.769Z</time></trkpt><trkpt lat="43.2148283" lon="11.5790167"><ele>206.0</ele><time>2026-04-18T15:57:35.768Z</time></trkpt><trkpt lat="43.21488" lon="11.5787733"><ele>200.66666666666669</ele><time>2026-04-18T15:57:36.772Z</time></trkpt><trkpt lat="43.2149583" lon="11.5785617"><ele>195.33333333333334</ele><time>2026-04-18T15:57:37.767Z</time></trkpt><trkpt lat="43.21507" lon="11.5783983"><ele>190.0</ele><time>2026-04-18T15:57:38.771Z</time></trkpt><trkpt lat="43.21521" lon="11.5782767"><ele>190.0</ele><time>2026-04-18T15:57:39.769Z</time></trkpt><trkpt lat="43.2153783" lon="11.578195"><ele>190.0</ele><time>2026-04-18T15:57:40.77Z</time></trkpt><trkpt lat="43.21555" lon="11.5780933"><ele>190.0</ele><time>2026-04-18T15:57:41.769Z</time></trkpt><trkpt lat="43.2157183" lon="11.5779417"><ele>189.66666666666669</ele><time>2026-04-18T15:57:42.769Z</time></trkpt><trkpt lat="43.2158667" lon="11.5777483"><ele>189.33333333333334</ele><time>2026-04-18T15:57:43.769Z</time></trkpt><trkpt lat="43.2160083" lon="11.5775417"><ele>189.0</ele><time>2026-04-18T15:57:44.773Z</time></trkpt><trkpt lat="43.2161617" lon="11.5773467"><ele>189.0</ele><time>2026-04-18T15:57:45.768Z</time></trkpt><trkpt lat="43.2163367" lon="11.57718"><ele>189.0</ele><time>2026-04-18T15:57:46.77Z</time></trkpt><trkpt lat="43.2165267" lon="11.5770317"><ele>189.0</ele><time>2026-04-18T15:57:47.767Z</time></trkpt><trkpt lat="43.21673" lon="11.5769167"><ele>190.0</ele><time>2026-04-18T15:57:48.774Z</time></trkpt><trkpt lat="43.2169417" lon="11.5768367"><ele>191.0</ele><time>2026-04-18T15:57:49.768Z</time></trkpt><trkpt lat="43.2171583" lon="11.5767883"><ele>192.0</ele><time>2026-04-18T15:57:50.772Z</time></trkpt><trkpt lat="43.2173833" lon="11.576755"><ele>193.0</ele><time>2026-04-18T15:57:51.766Z</time></trkpt><trkpt lat="43.2176133" lon="11.5767333"><ele>194.0</ele><time>2026-04-18T15:57:52.767Z</time></trkpt><trkpt lat="43.2178433" lon="11.5767183"><ele>194.0</ele><time>2026-04-18T15:57:53.766Z</time></trkpt><trkpt lat="43.2180833" lon="11.5767083"><ele>194.0</ele><time>2026-04-18T15:57:54.773Z</time></trkpt><trkpt lat="43.2183167" lon="11.5767"><ele>194.5</ele><time>2026-04-18T15:57:55.769Z</time></trkpt><trkpt lat="43.2185517" lon="11.5766683"><ele>195.0</ele><time>2026-04-18T15:57:56.771Z</time></trkpt><trkpt lat="43.2187883" lon="11.5766133"><ele>196.0</ele><time>2026-04-18T15:57:57.771Z</time></trkpt><trkpt lat="43.219025" lon="11.5765417"><ele>197.0</ele><time>2026-04-18T15:57:58.771Z</time></trkpt><trkpt lat="43.2192517" lon="11.57647"><ele>197.0</ele><time>2026-04-18T15:57:59.771Z</time></trkpt><trkpt lat="43.2194683" lon="11.5764117"><ele>197.0</ele><time>2026-04-18T15:58:00.769Z</time></trkpt><trkpt lat="43.2196733" lon="11.5763567"><ele>197.0</ele><time>2026-04-18T15:58:01.769Z</time></trkpt><trkpt lat="43.2198683" lon="11.5762967"><ele>197.0</ele><time>2026-04-18T15:58:02.772Z</time></trkpt><trkpt lat="43.2200567" lon="11.5762117"><ele>197.0</ele><time>2026-04-18T15:58:03.767Z</time></trkpt><trkpt lat="43.2202267" lon="11.57609"><ele>197.0</ele><time>2026-04-18T15:58:04.769Z</time></trkpt><trkpt lat="43.2203633" lon="11.575935"><ele>198.5</ele><time>2026-04-18T15:58:05.771Z</time></trkpt><trkpt lat="43.220475" lon="11.5757767"><ele>200.0</ele><time>2026-04-18T15:58:06.77Z</time></trkpt><trkpt lat="43.2205633" lon="11.57564"><ele>201.5</ele><time>2026-04-18T15:58:07.766Z</time></trkpt><trkpt lat="43.2206317" lon="11.5755283"><ele>203.0</ele><time>2026-04-18T15:58:08.773Z</time></trkpt><trkpt lat="43.22068" lon="11.575455"><ele>203.00000000000003</ele><time>2026-04-18T15:58:09.772Z</time></trkpt><trkpt lat="43.2207417" lon="11.575365"><ele>203.0</ele><time>2026-04-18T15:58:11.768Z</time></trkpt><trkpt lat="43.2207767" lon="11.5752867"><ele>203.0</ele><time>2026-04-18T15:58:14.772Z</time></trkpt><trkpt lat="43.2208167" lon="11.5751883"><ele>203.0</ele><time>2026-04-18T15:58:18.769Z</time></trkpt><trkpt lat="43.220895" lon="11.5750983"><ele>203.00000000000003</ele><time>2026-04-18T15:58:42.768Z</time></trkpt><trkpt lat="43.2209417" lon="11.5750333"><ele>203.0</ele><time>2026-04-18T15:58:43.768Z</time></trkpt><trkpt lat="43.2210067" lon="11.5749433"><ele>200.5</ele><time>2026-04-18T15:58:44.772Z</time></trkpt><trkpt lat="43.2210783" lon="11.574835"><ele>198.0</ele><time>2026-04-18T15:58:45.769Z</time></trkpt><trkpt lat="43.22115" lon="11.5747067"><ele>195.5</ele><time>2026-04-18T15:58:46.769Z</time></trkpt><trkpt lat="43.221225" lon="11.5745767"><ele>193.0</ele><time>2026-04-18T15:58:47.759Z</time></trkpt><trkpt lat="43.2213133" lon="11.57444"><ele>193.66666666666666</ele><time>2026-04-18T15:58:48.763Z</time></trkpt><trkpt lat="43.2214117" lon="11.5742933"><ele>194.33333333333331</ele><time>2026-04-18T15:58:49.764Z</time></trkpt><trkpt lat="43.2215117" lon="11.5741383"><ele>195.0</ele><time>2026-04-18T15:58:50.766Z</time></trkpt><trkpt lat="43.2216167" lon="11.57398"><ele>195.0</ele><time>2026-04-18T15:58:51.768Z</time></trkpt><trkpt lat="43.2217217" lon="11.57382"><ele>195.0</ele><time>2026-04-18T15:58:52.769Z</time></trkpt><trkpt lat="43.2218283" lon="11.5736617"><ele>195.0</ele><time>2026-04-18T15:58:53.767Z</time></trkpt><trkpt lat="43.2219367" lon="11.5734917"><ele>192.33333333333334</ele><time>2026-04-18T15:58:54.771Z</time></trkpt><trkpt lat="43.2220433" lon="11.5733217"><ele>189.66666666666669</ele><time>2026-04-18T15:58:55.77Z</time></trkpt><trkpt lat="43.2221567" lon="11.5731667"><ele>187.0</ele><time>2026-04-18T15:58:56.77Z</time></trkpt><trkpt lat="43.2222817" lon="11.57303"><ele>186.33333333333334</ele><time>2026-04-18T15:58:57.768Z</time></trkpt><trkpt lat="43.2224317" lon="11.572925"><ele>185.66666666666666</ele><time>2026-04-18T15:58:58.77Z</time></trkpt><trkpt lat="43.2225917" lon="11.5728383"><ele>185.0</ele><time>2026-04-18T15:58:59.769Z</time></trkpt><trkpt lat="43.222755" lon="11.5727567"><ele>185.0</ele><time>2026-04-18T15:59:00.77Z</time></trkpt><trkpt lat="43.2229117" lon="11.5726667"><ele>185.0</ele><time>2026-04-18T15:59:01.769Z</time></trkpt><trkpt lat="43.223055" lon="11.5725533"><ele>185.0</ele><time>2026-04-18T15:59:02.773Z</time></trkpt><trkpt lat="43.2231783" lon="11.5723967"><ele>185.66666666666666</ele><time>2026-04-18T15:59:03.77Z</time></trkpt><trkpt lat="43.2232817" lon="11.5722167"><ele>186.33333333333334</ele><time>2026-04-18T15:59:04.77Z</time></trkpt><trkpt lat="43.2233483" lon="11.572005"><ele>187.0</ele><time>2026-04-18T15:59:05.77Z</time></trkpt><trkpt lat="43.223385" lon="11.5717817"><ele>187.33333333333334</ele><time>2026-04-18T15:59:06.767Z</time></trkpt><trkpt lat="43.2234083" lon="11.5715617"><ele>187.66666666666666</ele><time>2026-04-18T15:59:07.767Z</time></trkpt><trkpt lat="43.2234333" lon="11.57134"><ele>188.0</ele><time>2026-04-18T15:59:08.772Z</time></trkpt><trkpt lat="43.2234583" lon="11.5711083"><ele>187.33333333333331</ele><time>2026-04-18T15:59:09.769Z</time></trkpt><trkpt lat="43.2234817" lon="11.5708683"><ele>186.66666666666666</ele><time>2026-04-18T15:59:10.77Z</time></trkpt><trkpt lat="43.2235033" lon="11.5706233"><ele>186.0</ele><time>2026-04-18T15:59:11.77Z</time></trkpt><trkpt lat="43.2235233" lon="11.5703683"><ele>186.33333333333334</ele><time>2026-04-18T15:59:12.769Z</time></trkpt><trkpt lat="43.2235483" lon="11.5701133"><ele>186.66666666666669</ele><time>2026-04-18T15:59:13.768Z</time></trkpt><trkpt lat="43.2235867" lon="11.56986"><ele>187.0</ele><time>2026-04-18T15:59:14.771Z</time></trkpt><trkpt lat="43.22364" lon="11.5696083"><ele>186.33333333333334</ele><time>2026-04-18T15:59:15.768Z</time></trkpt><trkpt lat="43.22371" lon="11.569355"><ele>185.66666666666666</ele><time>2026-04-18T15:59:16.768Z</time></trkpt><trkpt lat="43.2237883" lon="11.5691033"><ele>185.0</ele><time>2026-04-18T15:59:17.767Z</time></trkpt><trkpt lat="43.2238733" lon="11.56885"><ele>184.33333333333331</ele><time>2026-04-18T15:59:18.771Z</time></trkpt><trkpt lat="43.2239583" lon="11.56859"><ele>183.66666666666666</ele><time>2026-04-18T15:59:19.772Z</time></trkpt><trkpt lat="43.224045" lon="11.5683317"><ele>183.0</ele><time>2026-04-18T15:59:20.772Z</time></trkpt><trkpt lat="43.2241267" lon="11.56808"><ele>184.66666666666666</ele><time>2026-04-18T15:59:21.766Z</time></trkpt><trkpt lat="43.22421" lon="11.56784"><ele>186.33333333333331</ele><time>2026-04-18T15:59:22.767Z</time></trkpt><trkpt lat="43.2243067" lon="11.5676117"><ele>188.0</ele><time>2026-04-18T15:59:23.767Z</time></trkpt><trkpt lat="43.2244217" lon="11.5673917"><ele>188.0</ele><time>2026-04-18T15:59:24.771Z</time></trkpt><trkpt lat="43.2245533" lon="11.5671833"><ele>188.0</ele><time>2026-04-18T15:59:25.768Z</time></trkpt><trkpt lat="43.2246867" lon="11.5669717"><ele>188.0</ele><time>2026-04-18T15:59:26.773Z</time></trkpt><trkpt lat="43.2248267" lon="11.5667533"><ele>187.0</ele><time>2026-04-18T15:59:27.772Z</time></trkpt><trkpt lat="43.224975" lon="11.5665333"><ele>186.0</ele><time>2026-04-18T15:59:28.771Z</time></trkpt><trkpt lat="43.225125" lon="11.566315"><ele>185.0</ele><time>2026-04-18T15:59:29.77Z</time></trkpt><trkpt lat="43.2252783" lon="11.566095"><ele>185.0</ele><time>2026-04-18T15:59:30.77Z</time></trkpt><trkpt lat="43.22543" lon="11.5658767"><ele>185.0</ele><time>2026-04-18T15:59:31.769Z</time></trkpt><trkpt lat="43.2255867" lon="11.5656633"><ele>185.0</ele><time>2026-04-18T15:59:32.772Z</time></trkpt><trkpt lat="43.225735" lon="11.565455"><ele>186.33333333333331</ele><time>2026-04-18T15:59:33.769Z</time></trkpt><trkpt lat="43.2258767" lon="11.565255"><ele>187.66666666666666</ele><time>2026-04-18T15:59:34.767Z</time></trkpt><trkpt lat="43.2260167" lon="11.5650667"><ele>189.0</ele><time>2026-04-18T15:59:35.772Z</time></trkpt><trkpt lat="43.2261617" lon="11.5648883"><ele>189.0</ele><time>2026-04-18T15:59:36.773Z</time></trkpt><trkpt lat="43.2263183" lon="11.5647233"><ele>189.0</ele><time>2026-04-18T15:59:37.77Z</time></trkpt><trkpt lat="43.226485" lon="11.56457"><ele>189.0</ele><time>2026-04-18T15:59:38.77Z</time></trkpt><trkpt lat="43.2266583" lon="11.5644233"><ele>189.0</ele><time>2026-04-18T15:59:39.771Z</time></trkpt><trkpt lat="43.2268383" lon="11.5642833"><ele>189.0</ele><time>2026-04-18T15:59:40.767Z</time></trkpt><trkpt lat="43.2270217" lon="11.5641417"><ele>189.0</ele><time>2026-04-18T15:59:41.769Z</time></trkpt><trkpt lat="43.2272" lon="11.56399"><ele>188.33333333333334</ele><time>2026-04-18T15:59:42.77Z</time></trkpt><trkpt lat="43.2273733" lon="11.5638183"><ele>187.66666666666669</ele><time>2026-04-18T15:59:43.771Z</time></trkpt><trkpt lat="43.2275433" lon="11.56363"><ele>187.0</ele><time>2026-04-18T15:59:44.772Z</time></trkpt><trkpt lat="43.2277067" lon="11.5634267"><ele>187.0</ele><time>2026-04-18T15:59:45.771Z</time></trkpt><trkpt lat="43.22786" lon="11.5632117"><ele>187.0</ele><time>2026-04-18T15:59:46.767Z</time></trkpt><trkpt lat="43.2280083" lon="11.5629917"><ele>187.0</ele><time>2026-04-18T15:59:47.766Z</time></trkpt><trkpt lat="43.22815" lon="11.562775"><ele>189.0</ele><time>2026-04-18T15:59:48.773Z</time></trkpt><trkpt lat="43.22829" lon="11.562555"><ele>191.0</ele><time>2026-04-18T15:59:49.77Z</time></trkpt><trkpt lat="43.2284233" lon="11.56234"><ele>193.0</ele><time>2026-04-18T15:59:50.773Z</time></trkpt><trkpt lat="43.2285533" lon="11.56214"><ele>189.66666666666666</ele><time>2026-04-18T15:59:51.771Z</time></trkpt><trkpt lat="43.2286867" lon="11.5619583"><ele>186.33333333333331</ele><time>2026-04-18T15:59:52.772Z</time></trkpt><trkpt lat="43.2288267" lon="11.561795"><ele>183.0</ele><time>2026-04-18T15:59:53.768Z</time></trkpt><trkpt lat="43.2289667" lon="11.5616333"><ele>182.66666666666666</ele><time>2026-04-18T15:59:54.767Z</time></trkpt><trkpt lat="43.229105" lon="11.5614733"><ele>182.33333333333331</ele><time>2026-04-18T15:59:55.771Z</time></trkpt><trkpt lat="43.2292433" lon="11.5613117"><ele>182.0</ele><time>2026-04-18T15:59:56.774Z</time></trkpt><trkpt lat="43.229375" lon="11.56117"><ele>182.0</ele><time>2026-04-18T15:59:57.769Z</time></trkpt><trkpt lat="43.2295" lon="11.5610367"><ele>182.0</ele><time>2026-04-18T15:59:58.77Z</time></trkpt><trkpt lat="43.2296267" lon="11.560935"><ele>182.0</ele><time>2026-04-18T15:59:59.765Z</time></trkpt><trkpt lat="43.229755" lon="11.5608717"><ele>182.0</ele><time>2026-04-18T16:00:00.768Z</time></trkpt><trkpt lat="43.2298967" lon="11.5608467"><ele>185.0</ele><time>2026-04-18T16:00:01.763Z</time></trkpt><trkpt lat="43.2300433" lon="11.5608383"><ele>188.0</ele><time>2026-04-18T16:00:02.768Z</time></trkpt><trkpt lat="43.2301967" lon="11.5608167"><ele>191.0</ele><time>2026-04-18T16:00:03.768Z</time></trkpt><trkpt lat="43.2303517" lon="11.560785"><ele>191.0</ele><time>2026-04-18T16:00:04.766Z</time></trkpt><trkpt lat="43.2305" lon="11.56074"><ele>191.0</ele><time>2026-04-18T16:00:05.764Z</time></trkpt><trkpt lat="43.2306467" lon="11.5606917"><ele>191.0</ele><time>2026-04-18T16:00:06.768Z</time></trkpt><trkpt lat="43.2307817" lon="11.5606333"><ele>191.0</ele><time>2026-04-18T16:00:07.768Z</time></trkpt><trkpt lat="43.230905" lon="11.56057"><ele>189.5</ele><time>2026-04-18T16:00:08.768Z</time></trkpt><trkpt lat="43.2310283" lon="11.5604967"><ele>188.0</ele><time>2026-04-18T16:00:09.766Z</time></trkpt><trkpt lat="43.2311483" lon="11.560425"><ele>186.5</ele><time>2026-04-18T16:00:10.765Z</time></trkpt><trkpt lat="43.2312583" lon="11.5603483"><ele>185.0</ele><time>2026-04-18T16:00:11.768Z</time></trkpt><trkpt lat="43.23137" lon="11.5602617"><ele>188.25</ele><time>2026-04-18T16:00:12.77Z</time></trkpt><trkpt lat="43.2314817" lon="11.5601783"><ele>191.5</ele><time>2026-04-18T16:00:13.767Z</time></trkpt><trkpt lat="43.2315867" lon="11.5600933"><ele>194.75</ele><time>2026-04-18T16:00:14.767Z</time></trkpt><trkpt lat="43.2316833" lon="11.5600117"><ele>198.0</ele><time>2026-04-18T16:00:15.77Z</time></trkpt><trkpt lat="43.231775" lon="11.5599367"><ele>198.0</ele><time>2026-04-18T16:00:16.771Z</time></trkpt><trkpt lat="43.2318667" lon="11.55986"><ele>198.0</ele><time>2026-04-18T16:00:17.77Z</time></trkpt><trkpt lat="43.231955" lon="11.5597833"><ele>198.0</ele><time>2026-04-18T16:00:18.77Z</time></trkpt><trkpt lat="43.23204" lon="11.5597083"><ele>198.0</ele><time>2026-04-18T16:00:19.765Z</time></trkpt><trkpt lat="43.2321267" lon="11.5596433"><ele>198.0</ele><time>2026-04-18T16:00:20.772Z</time></trkpt><trkpt lat="43.2322167" lon="11.55959"><ele>198.0</ele><time>2026-04-18T16:00:21.767Z</time></trkpt><trkpt lat="43.2323033" lon="11.5595483"><ele>198.0</ele><time>2026-04-18T16:00:22.766Z</time></trkpt><trkpt lat="43.2323883" lon="11.559525"><ele>198.0</ele><time>2026-04-18T16:00:23.771Z</time></trkpt><trkpt lat="43.2324717" lon="11.5595183"><ele>198.0</ele><time>2026-04-18T16:00:24.766Z</time></trkpt><trkpt lat="43.2325533" lon="11.5595183"><ele>198.0</ele><time>2026-04-18T16:00:25.769Z</time></trkpt><trkpt lat="43.2326317" lon="11.55953"><ele>198.0</ele><time>2026-04-18T16:00:26.771Z</time></trkpt><trkpt lat="43.232705" lon="11.5595433"><ele>199.5</ele><time>2026-04-18T16:00:27.77Z</time></trkpt><trkpt lat="43.232775" lon="11.5595567"><ele>201.0</ele><time>2026-04-18T16:00:28.765Z</time></trkpt><trkpt lat="43.2328983" lon="11.5595933"><ele>202.5</ele><time>2026-04-18T16:00:30.772Z</time></trkpt><trkpt lat="43.2329583" lon="11.559625"><ele>204.0</ele><time>2026-04-18T16:00:31.77Z</time></trkpt><trkpt lat="43.2330167" lon="11.55967"><ele>205.5</ele><time>2026-04-18T16:00:32.769Z</time></trkpt><trkpt lat="43.2330683" lon="11.5597333"><ele>207.0</ele><time>2026-04-18T16:00:33.765Z</time></trkpt><trkpt lat="43.2331283" lon="11.5597983"><ele>206.00000000000003</ele><time>2026-04-18T16:00:34.763Z</time></trkpt><trkpt lat="43.2331933" lon="11.5598683"><ele>205.0</ele><time>2026-04-18T16:00:35.771Z</time></trkpt><trkpt lat="43.2332567" lon="11.55994"><ele>204.0</ele><time>2026-04-18T16:00:36.773Z</time></trkpt><trkpt lat="43.2333167" lon="11.5600067"><ele>203.0</ele><time>2026-04-18T16:00:37.77Z</time></trkpt><trkpt lat="43.2333667" lon="11.56007"><ele>202.0</ele><time>2026-04-18T16:00:38.77Z</time></trkpt><trkpt lat="43.233415" lon="11.560135"><ele>201.00000000000003</ele><time>2026-04-18T16:00:39.77Z</time></trkpt><trkpt lat="43.2334667" lon="11.5602033"><ele>200.0</ele><time>2026-04-18T16:00:40.768Z</time></trkpt><trkpt lat="43.2335183" lon="11.56027"><ele>200.0</ele><time>2026-04-18T16:00:41.771Z</time></trkpt><trkpt lat="43.23357" lon="11.5603267"><ele>200.0</ele><time>2026-04-18T16:00:42.773Z</time></trkpt><trkpt lat="43.2336233" lon="11.5603983"><ele>205.0</ele><time>2026-04-18T16:00:44.773Z</time></trkpt><trkpt lat="43.23374" lon="11.560365"><ele>200.0</ele><time>2026-04-18T16:02:12.771Z</time></trkpt></trkseg><trkseg><trkpt lat="43.23364" lon="11.560355"><ele>201.0</ele><time>2026-04-18T16:32:47.767Z</time></trkpt><trkpt lat="43.233745" lon="11.5604167"><ele>202.0</ele><time>2026-04-18T16:37:49.769Z</time></trkpt><trkpt lat="43.2338133" lon="11.5605483"><ele>203.0</ele><time>2026-04-18T16:37:54.761Z</time></trkpt><trkpt lat="43.2338633" lon="11.5606283"><ele>204.0</ele><time>2026-04-18T16:37:56.771Z</time></trkpt><trkpt lat="43.23393" lon="11.5606867"><ele>205.0</ele><time>2026-04-18T16:37:59.764Z</time></trkpt><trkpt lat="43.2340283" lon="11.5606"><ele>205.0</ele><time>2026-04-18T16:38:27.759Z</time></trkpt><trkpt lat="43.23402" lon="11.5605083"><ele>205.0</ele><time>2026-04-18T16:38:28.766Z</time></trkpt><trkpt lat="43.234005" lon="11.5603933"><ele>205.0</ele><time>2026-04-18T16:38:29.771Z</time></trkpt><trkpt lat="43.2339867" lon="11.5602633"><ele>205.0</ele><time>2026-04-18T16:38:30.771Z</time></trkpt><trkpt lat="43.23397" lon="11.5600883"><ele>205.0</ele><time>2026-04-18T16:38:31.769Z</time></trkpt><trkpt lat="43.2339483" lon="11.5598867"><ele>203.33333333333331</ele><time>2026-04-18T16:38:32.771Z</time></trkpt><trkpt lat="43.233925" lon="11.55967"><ele>201.66666666666669</ele><time>2026-04-18T16:38:33.771Z</time></trkpt><trkpt lat="43.233895" lon="11.5594767"><ele>200.0</ele><time>2026-04-18T16:38:34.768Z</time></trkpt><trkpt lat="43.2338583" lon="11.559275"><ele>198.0</ele><time>2026-04-18T16:38:35.765Z</time></trkpt><trkpt lat="43.2338267" lon="11.5590933"><ele>196.0</ele><time>2026-04-18T16:38:36.766Z</time></trkpt><trkpt lat="43.2338083" lon="11.55892"><ele>194.0</ele><time>2026-04-18T16:38:37.772Z</time></trkpt><trkpt lat="43.2338033" lon="11.5587467"><ele>192.0</ele><time>2026-04-18T16:38:38.77Z</time></trkpt><trkpt lat="43.233815" lon="11.5585683"><ele>189.75</ele><time>2026-04-18T16:38:39.77Z</time></trkpt><trkpt lat="43.2338517" lon="11.5584033"><ele>187.5</ele><time>2026-04-18T16:38:40.769Z</time></trkpt><trkpt lat="43.23391" lon="11.558245"><ele>185.25</ele><time>2026-04-18T16:38:41.769Z</time></trkpt><trkpt lat="43.2339983" lon="11.5580917"><ele>183.0</ele><time>2026-04-18T16:38:42.765Z</time></trkpt><trkpt lat="43.2341" lon="11.5579417"><ele>181.5</ele><time>2026-04-18T16:38:43.771Z</time></trkpt><trkpt lat="43.2342083" lon="11.5577967"><ele>180.0</ele><time>2026-04-18T16:38:44.771Z</time></trkpt><trkpt lat="43.2343117" lon="11.5576567"><ele>178.5</ele><time>2026-04-18T16:38:45.768Z</time></trkpt><trkpt lat="43.2344083" lon="11.557525"><ele>177.0</ele><time>2026-04-18T16:38:46.772Z</time></trkpt><trkpt lat="43.2345" lon="11.5574083"><ele>177.0</ele><time>2026-04-18T16:38:47.765Z</time></trkpt><trkpt lat="43.2345817" lon="11.5573017"><ele>177.0</ele><time>2026-04-18T16:38:48.767Z</time></trkpt><trkpt lat="43.2346583" lon="11.5572033"><ele>177.0</ele><time>2026-04-18T16:38:49.771Z</time></trkpt><trkpt lat="43.2347383" lon="11.5571183"><ele>177.0</ele><time>2026-04-18T16:38:50.77Z</time></trkpt><trkpt lat="43.234825" lon="11.5570417"><ele>177.0</ele><time>2026-04-18T16:38:51.769Z</time></trkpt><trkpt lat="43.2349183" lon="11.556985"><ele>176.8</ele><time>2026-04-18T16:38:52.769Z</time></trkpt><trkpt lat="43.23501" lon="11.5569333"><ele>176.6</ele><time>2026-04-18T16:38:53.769Z</time></trkpt><trkpt lat="43.2351067" lon="11.556885"><ele>176.4</ele><time>2026-04-18T16:38:54.769Z</time></trkpt><trkpt lat="43.2352083" lon="11.5568383"><ele>176.20000000000002</ele><time>2026-04-18T16:38:55.767Z</time></trkpt><trkpt lat="43.235305" lon="11.5567917"><ele>176.0</ele><time>2026-04-18T16:38:56.771Z</time></trkpt><trkpt lat="43.2353867" lon="11.5567417"><ele>176.0</ele><time>2026-04-18T16:38:57.77Z</time></trkpt><trkpt lat="43.2354633" lon="11.5566967"><ele>176.0</ele><time>2026-04-18T16:38:58.769Z</time></trkpt><trkpt lat="43.2355333" lon="11.5566433"><ele>176.0</ele><time>2026-04-18T16:38:59.768Z</time></trkpt><trkpt lat="43.2356" lon="11.556595"><ele>176.0</ele><time>2026-04-18T16:39:00.77Z</time></trkpt><trkpt lat="43.23571" lon="11.556525"><ele>176.0</ele><time>2026-04-18T16:39:02.771Z</time></trkpt><trkpt lat="43.235815" lon="11.556485"><ele>176.20000000000002</ele><time>2026-04-18T16:39:04.772Z</time></trkpt><trkpt lat="43.2359367" lon="11.5564783"><ele>176.4</ele><time>2026-04-18T16:39:06.772Z</time></trkpt><trkpt lat="43.23606" lon="11.55654"><ele>176.6</ele><time>2026-04-18T16:39:08.77Z</time></trkpt><trkpt lat="43.2361233" lon="11.55661"><ele>176.8</ele><time>2026-04-18T16:39:09.772Z</time></trkpt><trkpt lat="43.23618" lon="11.5567083"><ele>177.0</ele><time>2026-04-18T16:39:10.769Z</time></trkpt><trkpt lat="43.2362367" lon="11.556825"><ele>177.0</ele><time>2026-04-18T16:39:11.77Z</time></trkpt><trkpt lat="43.2362933" lon="11.5569483"><ele>177.0</ele><time>2026-04-18T16:39:12.769Z</time></trkpt><trkpt lat="43.2363583" lon="11.55706"><ele>177.0</ele><time>2026-04-18T16:39:13.768Z</time></trkpt><trkpt lat="43.2364417" lon="11.5571567"><ele>177.0</ele><time>2026-04-18T16:39:14.771Z</time></trkpt><trkpt lat="43.23654" lon="11.5572183"><ele>177.0</ele><time>2026-04-18T16:39:15.773Z</time></trkpt><trkpt lat="43.2366417" lon="11.557245"><ele>177.8</ele><time>2026-04-18T16:39:16.768Z</time></trkpt><trkpt lat="43.23674" lon="11.5572617"><ele>178.6</ele><time>2026-04-18T16:39:17.769Z</time></trkpt><trkpt lat="43.236825" lon="11.5572717"><ele>179.4</ele><time>2026-04-18T16:39:18.771Z</time></trkpt><trkpt lat="43.2368983" lon="11.5572667"><ele>180.20000000000002</ele><time>2026-04-18T16:39:19.769Z</time></trkpt><trkpt lat="43.236965" lon="11.5572417"><ele>181.0</ele><time>2026-04-18T16:39:20.77Z</time></trkpt><trkpt lat="43.2370433" lon="11.557105"><ele>179.83333333333334</ele><time>2026-04-18T16:39:22.765Z</time></trkpt><trkpt lat="43.2370633" lon="11.5569883"><ele>178.66666666666669</ele><time>2026-04-18T16:39:23.771Z</time></trkpt><trkpt lat="43.2370667" lon="11.556865"><ele>177.5</ele><time>2026-04-18T16:39:24.771Z</time></trkpt><trkpt lat="43.2370783" lon="11.55675"><ele>176.33333333333334</ele><time>2026-04-18T16:39:25.767Z</time></trkpt><trkpt lat="43.2370917" lon="11.5566383"><ele>175.16666666666666</ele><time>2026-04-18T16:39:26.773Z</time></trkpt><trkpt lat="43.237105" lon="11.55653"><ele>174.0</ele><time>2026-04-18T16:39:27.768Z</time></trkpt><trkpt lat="43.23713" lon="11.5564333"><ele>174.0</ele><time>2026-04-18T16:39:28.767Z</time></trkpt><trkpt lat="43.237165" lon="11.5563433"><ele>174.0</ele><time>2026-04-18T16:39:29.771Z</time></trkpt><trkpt lat="43.237205" lon="11.5562617"><ele>174.0</ele><time>2026-04-18T16:39:30.766Z</time></trkpt><trkpt lat="43.2372433" lon="11.556185"><ele>174.0</ele><time>2026-04-18T16:39:31.771Z</time></trkpt><trkpt lat="43.23729" lon="11.5561167"><ele>174.0</ele><time>2026-04-18T16:39:32.772Z</time></trkpt><trkpt lat="43.2373417" lon="11.55605"><ele>174.0</ele><time>2026-04-18T16:39:33.77Z</time></trkpt><trkpt lat="43.2373983" lon="11.5559767"><ele>174.0</ele><time>2026-04-18T16:39:34.772Z</time></trkpt><trkpt lat="43.2374517" lon="11.5559017"><ele>174.33333333333334</ele><time>2026-04-18T16:39:35.77Z</time></trkpt><trkpt lat="43.237495" lon="11.5558333"><ele>174.66666666666666</ele><time>2026-04-18T16:39:36.77Z</time></trkpt><trkpt lat="43.237575" lon="11.55573"><ele>175.0</ele><time>2026-04-18T16:39:38.773Z</time></trkpt><trkpt lat="43.2376567" lon="11.5556067"><ele>175.33333333333331</ele><time>2026-04-18T16:39:40.768Z</time></trkpt><trkpt lat="43.2377083" lon="11.555545"><ele>175.66666666666666</ele><time>2026-04-18T16:39:41.767Z</time></trkpt><trkpt lat="43.2377617" lon="11.5554817"><ele>176.0</ele><time>2026-04-18T16:39:42.77Z</time></trkpt><trkpt lat="43.2378217" lon="11.555435"><ele>176.0</ele><time>2026-04-18T16:39:43.77Z</time></trkpt><trkpt lat="43.2378883" lon="11.5554"><ele>176.0</ele><time>2026-04-18T16:39:44.766Z</time></trkpt><trkpt lat="43.2379583" lon="11.5553583"><ele>176.0</ele><time>2026-04-18T16:39:45.769Z</time></trkpt><trkpt lat="43.2380317" lon="11.5553117"><ele>176.0</ele><time>2026-04-18T16:39:46.772Z</time></trkpt><trkpt lat="43.238115" lon="11.5552667"><ele>176.0</ele><time>2026-04-18T16:39:47.77Z</time></trkpt><trkpt lat="43.2382033" lon="11.5552217"><ele>176.0</ele><time>2026-04-18T16:39:48.769Z</time></trkpt><trkpt lat="43.2382933" lon="11.5551733"><ele>176.33333333333331</ele><time>2026-04-18T16:39:49.77Z</time></trkpt><trkpt lat="43.238385" lon="11.55512"><ele>176.66666666666666</ele><time>2026-04-18T16:39:50.769Z</time></trkpt><trkpt lat="43.238475" lon="11.5550667"><ele>177.0</ele><time>2026-04-18T16:39:51.771Z</time></trkpt><trkpt lat="43.2385567" lon="11.5550233"><ele>177.33333333333334</ele><time>2026-04-18T16:39:52.771Z</time></trkpt><trkpt lat="43.238625" lon="11.554985"><ele>177.66666666666669</ele><time>2026-04-18T16:39:53.77Z</time></trkpt><trkpt lat="43.238685" lon="11.554955"><ele>178.0</ele><time>2026-04-18T16:39:54.77Z</time></trkpt><trkpt lat="43.238805" lon="11.5549333"><ele>178.0</ele><time>2026-04-18T16:39:56.773Z</time></trkpt><trkpt lat="43.2389167" lon="11.5549383"><ele>178.0</ele><time>2026-04-18T16:39:58.77Z</time></trkpt><trkpt lat="43.2390283" lon="11.5548767"><ele>178.0</ele><time>2026-04-18T16:40:00.771Z</time></trkpt><trkpt lat="43.2390983" lon="11.554745"><ele>178.0</ele><time>2026-04-18T16:40:02.771Z</time></trkpt><trkpt lat="43.2391817" lon="11.5546167"><ele>177.66666666666669</ele><time>2026-04-18T16:40:04.771Z</time></trkpt><trkpt lat="43.239235" lon="11.5545667"><ele>177.33333333333334</ele><time>2026-04-18T16:40:05.772Z</time></trkpt><trkpt lat="43.2393017" lon="11.5545217"><ele>177.0</ele><time>2026-04-18T16:40:06.771Z</time></trkpt><trkpt lat="43.2393683" lon="11.5544667"><ele>176.66666666666666</ele><time>2026-04-18T16:40:07.772Z</time></trkpt><trkpt lat="43.2394417" lon="11.5543983"><ele>176.33333333333331</ele><time>2026-04-18T16:40:08.774Z</time></trkpt><trkpt lat="43.2395283" lon="11.5543117"><ele>176.0</ele><time>2026-04-18T16:40:09.771Z</time></trkpt><trkpt lat="43.2396167" lon="11.554215"><ele>175.5</ele><time>2026-04-18T16:40:10.772Z</time></trkpt><trkpt lat="43.2396983" lon="11.55411"><ele>175.0</ele><time>2026-04-18T16:40:11.769Z</time></trkpt><trkpt lat="43.2397817" lon="11.5540033"><ele>174.5</ele><time>2026-04-18T16:40:12.77Z</time></trkpt><trkpt lat="43.239865" lon="11.55389"><ele>174.0</ele><time>2026-04-18T16:40:13.771Z</time></trkpt><trkpt lat="43.2399483" lon="11.55376"><ele>173.66666666666666</ele><time>2026-04-18T16:40:14.773Z</time></trkpt><trkpt lat="43.2400333" lon="11.5536133"><ele>173.33333333333331</ele><time>2026-04-18T16:40:15.77Z</time></trkpt><trkpt lat="43.2401267" lon="11.553455"><ele>173.0</ele><time>2026-04-18T16:40:16.771Z</time></trkpt><trkpt lat="43.2402333" lon="11.553275"><ele>173.0</ele><time>2026-04-18T16:40:17.77Z</time></trkpt><trkpt lat="43.2403417" lon="11.553095"><ele>173.0</ele><time>2026-04-18T16:40:18.769Z</time></trkpt><trkpt lat="43.2404433" lon="11.5529367"><ele>173.0</ele><time>2026-04-18T16:40:19.771Z</time></trkpt><trkpt lat="43.2405283" lon="11.5528083"><ele>172.75</ele><time>2026-04-18T16:40:20.771Z</time></trkpt><trkpt lat="43.2406" lon="11.55268"><ele>172.5</ele><time>2026-04-18T16:40:21.77Z</time></trkpt><trkpt lat="43.2406567" lon="11.5525517"><ele>172.25</ele><time>2026-04-18T16:40:22.771Z</time></trkpt><trkpt lat="43.2407083" lon="11.5524183"><ele>172.0</ele><time>2026-04-18T16:40:23.771Z</time></trkpt><trkpt lat="43.2407617" lon="11.5522783"><ele>173.75</ele><time>2026-04-18T16:40:24.771Z</time></trkpt><trkpt lat="43.2408167" lon="11.5521417"><ele>175.5</ele><time>2026-04-18T16:40:25.771Z</time></trkpt><trkpt lat="43.24086" lon="11.5519933"><ele>177.25</ele><time>2026-04-18T16:40:26.771Z</time></trkpt><trkpt lat="43.2408817" lon="11.5518383"><ele>179.0</ele><time>2026-04-18T16:40:27.77Z</time></trkpt><trkpt lat="43.2408633" lon="11.5516917"><ele>179.0</ele><time>2026-04-18T16:40:28.765Z</time></trkpt><trkpt lat="43.2408117" lon="11.5515633"><ele>179.0</ele><time>2026-04-18T16:40:29.768Z</time></trkpt><trkpt lat="43.2407167" lon="11.55143"><ele>179.0</ele><time>2026-04-18T16:40:30.767Z</time></trkpt><trkpt lat="43.2405983" lon="11.55129"><ele>179.0</ele><time>2026-04-18T16:40:31.769Z</time></trkpt><trkpt lat="43.2404833" lon="11.5511383"><ele>177.0</ele><time>2026-04-18T16:40:32.762Z</time></trkpt><trkpt lat="43.240355" lon="11.5509733"><ele>175.0</ele><time>2026-04-18T16:40:33.762Z</time></trkpt><trkpt lat="43.24022" lon="11.5507933"><ele>173.0</ele><time>2026-04-18T16:40:34.77Z</time></trkpt><trkpt lat="43.2400817" lon="11.5506"><ele>173.0</ele><time>2026-04-18T16:40:35.772Z</time></trkpt><trkpt lat="43.2399383" lon="11.5504083"><ele>173.0</ele><time>2026-04-18T16:40:36.771Z</time></trkpt><trkpt lat="43.2397983" lon="11.5502167"><ele>173.0</ele><time>2026-04-18T16:40:37.771Z</time></trkpt><trkpt lat="43.2396617" lon="11.5500233"><ele>173.66666666666666</ele><time>2026-04-18T16:40:38.773Z</time></trkpt><trkpt lat="43.23952" lon="11.549845"><ele>174.33333333333334</ele><time>2026-04-18T16:40:39.771Z</time></trkpt><trkpt lat="43.2393767" lon="11.5496867"><ele>175.0</ele><time>2026-04-18T16:40:40.771Z</time></trkpt><trkpt lat="43.2392367" lon="11.5495417"><ele>175.33333333333334</ele><time>2026-04-18T16:40:41.77Z</time></trkpt><trkpt lat="43.239095" lon="11.54941"><ele>175.66666666666666</ele><time>2026-04-18T16:40:42.771Z</time></trkpt><trkpt lat="43.2389483" lon="11.5492917"><ele>176.0</ele><time>2026-04-18T16:40:43.772Z</time></trkpt><trkpt lat="43.238795" lon="11.5491833"><ele>176.0</ele><time>2026-04-18T16:40:44.772Z</time></trkpt><trkpt lat="43.23864" lon="11.5490733"><ele>176.0</ele><time>2026-04-18T16:40:45.772Z</time></trkpt><trkpt lat="43.23848" lon="11.5489583"><ele>176.0</ele><time>2026-04-18T16:40:46.769Z</time></trkpt><trkpt lat="43.23832" lon="11.5488267"><ele>176.0</ele><time>2026-04-18T16:40:47.768Z</time></trkpt><trkpt lat="43.2381633" lon="11.5486867"><ele>176.0</ele><time>2026-04-18T16:40:48.77Z</time></trkpt><trkpt lat="43.2380067" lon="11.5485317"><ele>176.0</ele><time>2026-04-18T16:40:49.77Z</time></trkpt><trkpt lat="43.2378433" lon="11.5483617"><ele>176.0</ele><time>2026-04-18T16:40:50.774Z</time></trkpt><trkpt lat="43.237685" lon="11.5481883"><ele>176.0</ele><time>2026-04-18T16:40:51.772Z</time></trkpt><trkpt lat="43.237525" lon="11.54801"><ele>176.0</ele><time>2026-04-18T16:40:52.768Z</time></trkpt><trkpt lat="43.2373617" lon="11.547825"><ele>175.33333333333331</ele><time>2026-04-18T16:40:53.772Z</time></trkpt><trkpt lat="43.237195" lon="11.54764"><ele>174.66666666666666</ele><time>2026-04-18T16:40:54.773Z</time></trkpt><trkpt lat="43.2370233" lon="11.5474467"><ele>174.0</ele><time>2026-04-18T16:40:55.771Z</time></trkpt><trkpt lat="43.2368567" lon="11.5472533"><ele>174.0</ele><time>2026-04-18T16:40:56.77Z</time></trkpt><trkpt lat="43.2366983" lon="11.5470517"><ele>174.0</ele><time>2026-04-18T16:40:57.772Z</time></trkpt><trkpt lat="43.2365467" lon="11.546835"><ele>174.0</ele><time>2026-04-18T16:40:58.769Z</time></trkpt><trkpt lat="43.2364017" lon="11.5466183"><ele>173.66666666666666</ele><time>2026-04-18T16:40:59.772Z</time></trkpt><trkpt lat="43.2362567" lon="11.5463933"><ele>173.33333333333331</ele><time>2026-04-18T16:41:00.771Z</time></trkpt><trkpt lat="43.236125" lon="11.5461517"><ele>173.0</ele><time>2026-04-18T16:41:01.772Z</time></trkpt><trkpt lat="43.23601" lon="11.5458917"><ele>174.0</ele><time>2026-04-18T16:41:02.775Z</time></trkpt><trkpt lat="43.2359083" lon="11.5456183"><ele>175.0</ele><time>2026-04-18T16:41:03.771Z</time></trkpt><trkpt lat="43.2358233" lon="11.5453367"><ele>176.0</ele><time>2026-04-18T16:41:04.766Z</time></trkpt><trkpt lat="43.235765" lon="11.5450533"><ele>176.0</ele><time>2026-04-18T16:41:05.769Z</time></trkpt><trkpt lat="43.2357333" lon="11.544745"><ele>176.0</ele><time>2026-04-18T16:41:06.773Z</time></trkpt><trkpt lat="43.2357267" lon="11.5444267"><ele>176.5</ele><time>2026-04-18T16:41:07.771Z</time></trkpt><trkpt lat="43.2357333" lon="11.5441"><ele>177.0</ele><time>2026-04-18T16:41:08.77Z</time></trkpt><trkpt lat="43.2357483" lon="11.5437617"><ele>177.5</ele><time>2026-04-18T16:41:09.771Z</time></trkpt><trkpt lat="43.235765" lon="11.5434217"><ele>178.0</ele><time>2026-04-18T16:41:10.771Z</time></trkpt><trkpt lat="43.2357817" lon="11.5430733"><ele>178.5</ele><time>2026-04-18T16:41:11.768Z</time></trkpt><trkpt lat="43.2357983" lon="11.5427183"><ele>179.0</ele><time>2026-04-18T16:41:12.772Z</time></trkpt><trkpt lat="43.235815" lon="11.5423617"><ele>179.0</ele><time>2026-04-18T16:41:13.768Z</time></trkpt><trkpt lat="43.235835" lon="11.5420117"><ele>179.0</ele><time>2026-04-18T16:41:14.771Z</time></trkpt><trkpt lat="43.2358533" lon="11.541665"><ele>179.0</ele><time>2026-04-18T16:41:15.771Z</time></trkpt><trkpt lat="43.235865" lon="11.5413217"><ele>179.0</ele><time>2026-04-18T16:41:16.764Z</time></trkpt><trkpt lat="43.23588" lon="11.5409917"><ele>177.66666666666666</ele><time>2026-04-18T16:41:17.77Z</time></trkpt><trkpt lat="43.2359017" lon="11.54068"><ele>176.33333333333334</ele><time>2026-04-18T16:41:18.768Z</time></trkpt><trkpt lat="43.2359217" lon="11.5403817"><ele>175.0</ele><time>2026-04-18T16:41:19.77Z</time></trkpt><trkpt lat="43.2359317" lon="11.540105"><ele>175.0</ele><time>2026-04-18T16:41:20.773Z</time></trkpt><trkpt lat="43.2359217" lon="11.5398417"><ele>175.0</ele><time>2026-04-18T16:41:21.771Z</time></trkpt><trkpt lat="43.2358767" lon="11.5395883"><ele>175.0</ele><time>2026-04-18T16:41:22.768Z</time></trkpt><trkpt lat="43.235785" lon="11.5393367"><ele>175.5</ele><time>2026-04-18T16:41:23.768Z</time></trkpt><trkpt lat="43.2356567" lon="11.53909"><ele>176.0</ele><time>2026-04-18T16:41:24.77Z</time></trkpt><trkpt lat="43.2355167" lon="11.5388417"><ele>175.0</ele><time>2026-04-18T16:41:25.768Z</time></trkpt><trkpt lat="43.2353717" lon="11.5385817"><ele>174.0</ele><time>2026-04-18T16:41:26.773Z</time></trkpt><trkpt lat="43.23522" lon="11.538315"><ele>174.0</ele><time>2026-04-18T16:41:27.769Z</time></trkpt><trkpt lat="43.2350667" lon="11.5380433"><ele>174.0</ele><time>2026-04-18T16:41:28.769Z</time></trkpt><trkpt lat="43.2349133" lon="11.5377683"><ele>173.0</ele><time>2026-04-18T16:41:29.77Z</time></trkpt><trkpt lat="43.2347583" lon="11.5374867"><ele>172.0</ele><time>2026-04-18T16:41:30.769Z</time></trkpt><trkpt lat="43.2346" lon="11.5371983"><ele>172.0</ele><time>2026-04-18T16:41:31.768Z</time></trkpt><trkpt lat="43.234445" lon="11.53691"><ele>172.0</ele><time>2026-04-18T16:41:32.77Z</time></trkpt><trkpt lat="43.2342917" lon="11.5366217"><ele>172.0</ele><time>2026-04-18T16:41:33.768Z</time></trkpt><trkpt lat="43.23414" lon="11.5363317"><ele>172.0</ele><time>2026-04-18T16:41:34.768Z</time></trkpt><trkpt lat="43.2339917" lon="11.5360483"><ele>170.5</ele><time>2026-04-18T16:41:35.77Z</time></trkpt><trkpt lat="43.2338433" lon="11.53577"><ele>169.0</ele><time>2026-04-18T16:41:36.77Z</time></trkpt><trkpt lat="43.2336867" lon="11.5355083"><ele>171.5</ele><time>2026-04-18T16:41:37.77Z</time></trkpt><trkpt lat="43.2335083" lon="11.5352733"><ele>174.0</ele><time>2026-04-18T16:41:38.769Z</time></trkpt><trkpt lat="43.2333017" lon="11.5350783"><ele>172.0</ele><time>2026-04-18T16:41:39.772Z</time></trkpt><trkpt lat="43.2330783" lon="11.5349067"><ele>170.0</ele><time>2026-04-18T16:41:40.766Z</time></trkpt><trkpt lat="43.23285" lon="11.5347433"><ele>170.0</ele><time>2026-04-18T16:41:41.772Z</time></trkpt><trkpt lat="43.23263" lon="11.5345833"><ele>170.0</ele><time>2026-04-18T16:41:42.771Z</time></trkpt><trkpt lat="43.2324283" lon="11.5344233"><ele>169.33333333333331</ele><time>2026-04-18T16:41:43.769Z</time></trkpt><trkpt lat="43.23225" lon="11.5342417"><ele>168.66666666666666</ele><time>2026-04-18T16:41:44.774Z</time></trkpt><trkpt lat="43.232105" lon="11.5340317"><ele>168.0</ele><time>2026-04-18T16:41:45.771Z</time></trkpt><trkpt lat="43.231995" lon="11.5337733"><ele>169.0</ele><time>2026-04-18T16:41:46.771Z</time></trkpt><trkpt lat="43.2319183" lon="11.5334733"><ele>170.0</ele><time>2026-04-18T16:41:47.77Z</time></trkpt><trkpt lat="43.231855" lon="11.53315"><ele>170.0</ele><time>2026-04-18T16:41:48.773Z</time></trkpt><trkpt lat="43.2317933" lon="11.5328133"><ele>170.0</ele><time>2026-04-18T16:41:49.77Z</time></trkpt><trkpt lat="43.2317267" lon="11.5324633"><ele>170.0</ele><time>2026-04-18T16:41:50.771Z</time></trkpt><trkpt lat="43.2316533" lon="11.532105"><ele>170.0</ele><time>2026-04-18T16:41:51.771Z</time></trkpt><trkpt lat="43.23159" lon="11.53176"><ele>170.0</ele><time>2026-04-18T16:41:52.77Z</time></trkpt><trkpt lat="43.23153" lon="11.5314383"><ele>170.0</ele><time>2026-04-18T16:41:53.769Z</time></trkpt><trkpt lat="43.2314683" lon="11.531135"><ele>169.66666666666666</ele><time>2026-04-18T16:41:54.771Z</time></trkpt><trkpt lat="43.23139" lon="11.5308483"><ele>169.33333333333334</ele><time>2026-04-18T16:41:55.771Z</time></trkpt><trkpt lat="43.2312833" lon="11.5305783"><ele>169.0</ele><time>2026-04-18T16:41:56.773Z</time></trkpt><trkpt lat="43.2311433" lon="11.5303317"><ele>170.5</ele><time>2026-04-18T16:41:57.773Z</time></trkpt><trkpt lat="43.23097" lon="11.5301033"><ele>172.0</ele><time>2026-04-18T16:41:58.77Z</time></trkpt><trkpt lat="43.23079" lon="11.5298783"><ele>171.0</ele><time>2026-04-18T16:41:59.772Z</time></trkpt><trkpt lat="43.23061" lon="11.529645"><ele>170.0</ele><time>2026-04-18T16:42:00.772Z</time></trkpt><trkpt lat="43.230425" lon="11.5294067"><ele>173.0</ele><time>2026-04-18T16:42:01.771Z</time></trkpt><trkpt lat="43.2302417" lon="11.529175"><ele>176.0</ele><time>2026-04-18T16:42:02.776Z</time></trkpt><trkpt lat="43.2300633" lon="11.5289533"><ele>176.0</ele><time>2026-04-18T16:42:03.771Z</time></trkpt><trkpt lat="43.2299033" lon="11.5287467"><ele>176.0</ele><time>2026-04-18T16:42:04.771Z</time></trkpt><trkpt lat="43.2297767" lon="11.5285533"><ele>176.0</ele><time>2026-04-18T16:42:05.771Z</time></trkpt><trkpt lat="43.2296933" lon="11.5283717"><ele>175.5</ele><time>2026-04-18T16:42:06.771Z</time></trkpt><trkpt lat="43.2296417" lon="11.5281817"><ele>175.0</ele><time>2026-04-18T16:42:07.768Z</time></trkpt><trkpt lat="43.2296533" lon="11.528005"><ele>174.5</ele><time>2026-04-18T16:42:08.771Z</time></trkpt><trkpt lat="43.229705" lon="11.527825"><ele>174.0</ele><time>2026-04-18T16:42:09.769Z</time></trkpt><trkpt lat="43.2297983" lon="11.5276683"><ele>178.33333333333334</ele><time>2026-04-18T16:42:10.772Z</time></trkpt><trkpt lat="43.2299217" lon="11.52757"><ele>182.66666666666669</ele><time>2026-04-18T16:42:11.772Z</time></trkpt><trkpt lat="43.2300767" lon="11.5275517"><ele>187.0</ele><time>2026-04-18T16:42:12.766Z</time></trkpt><trkpt lat="43.230235" lon="11.527595"><ele>187.0</ele><time>2026-04-18T16:42:13.771Z</time></trkpt><trkpt lat="43.2304117" lon="11.5277167"><ele>187.0</ele><time>2026-04-18T16:42:14.771Z</time></trkpt><trkpt lat="43.230595" lon="11.5278917"><ele>187.0</ele><time>2026-04-18T16:42:15.77Z</time></trkpt><trkpt lat="43.2307733" lon="11.5280533"><ele>189.33333333333334</ele><time>2026-04-18T16:42:16.77Z</time></trkpt><trkpt lat="43.2309467" lon="11.5282083"><ele>191.66666666666669</ele><time>2026-04-18T16:42:17.773Z</time></trkpt><trkpt lat="43.23112" lon="11.5283317"><ele>194.0</ele><time>2026-04-18T16:42:18.772Z</time></trkpt><trkpt lat="43.2313067" lon="11.5284083"><ele>197.0</ele><time>2026-04-18T16:42:19.772Z</time></trkpt><trkpt lat="43.2315133" lon="11.5284333"><ele>200.0</ele><time>2026-04-18T16:42:20.773Z</time></trkpt><trkpt lat="43.2317217" lon="11.5284267"><ele>203.0</ele><time>2026-04-18T16:42:21.771Z</time></trkpt><trkpt lat="43.2319333" lon="11.5284083"><ele>203.0</ele><time>2026-04-18T16:42:22.769Z</time></trkpt><trkpt lat="43.2321267" lon="11.528395"><ele>203.0</ele><time>2026-04-18T16:42:23.769Z</time></trkpt><trkpt lat="43.2322983" lon="11.5283767"><ele>203.0</ele><time>2026-04-18T16:42:24.771Z</time></trkpt><trkpt lat="43.2324517" lon="11.5283217"><ele>204.33333333333334</ele><time>2026-04-18T16:42:25.771Z</time></trkpt><trkpt lat="43.2325883" lon="11.5282233"><ele>205.66666666666669</ele><time>2026-04-18T16:42:26.773Z</time></trkpt><trkpt lat="43.2326867" lon="11.528065"><ele>207.0</ele><time>2026-04-18T16:42:27.772Z</time></trkpt><trkpt lat="43.2327283" lon="11.5278567"><ele>208.33333333333331</ele><time>2026-04-18T16:42:28.773Z</time></trkpt><trkpt lat="43.2327317" lon="11.52762"><ele>209.66666666666666</ele><time>2026-04-18T16:42:29.772Z</time></trkpt><trkpt lat="43.2327017" lon="11.5273517"><ele>211.0</ele><time>2026-04-18T16:42:30.765Z</time></trkpt><trkpt lat="43.2326667" lon="11.527075"><ele>213.66666666666666</ele><time>2026-04-18T16:42:31.77Z</time></trkpt><trkpt lat="43.2326483" lon="11.5268333"><ele>216.33333333333331</ele><time>2026-04-18T16:42:32.772Z</time></trkpt><trkpt lat="43.232655" lon="11.526595"><ele>219.0</ele><time>2026-04-18T16:42:33.773Z</time></trkpt><trkpt lat="43.2327017" lon="11.5263567"><ele>221.66666666666669</ele><time>2026-04-18T16:42:34.765Z</time></trkpt><trkpt lat="43.2327883" lon="11.5261283"><ele>224.33333333333334</ele><time>2026-04-18T16:42:35.767Z</time></trkpt><trkpt lat="43.2328983" lon="11.5258983"><ele>227.0</ele><time>2026-04-18T16:42:36.772Z</time></trkpt><trkpt lat="43.2330233" lon="11.52566"><ele>227.66666666666669</ele><time>2026-04-18T16:42:37.771Z</time></trkpt><trkpt lat="43.2331467" lon="11.5254217"><ele>228.33333333333331</ele><time>2026-04-18T16:42:38.773Z</time></trkpt><trkpt lat="43.2332717" lon="11.5252083"><ele>229.0</ele><time>2026-04-18T16:42:39.772Z</time></trkpt><trkpt lat="43.233405" lon="11.5250333"><ele>229.0</ele><time>2026-04-18T16:42:40.771Z</time></trkpt><trkpt lat="43.2335517" lon="11.5248733"><ele>229.0</ele><time>2026-04-18T16:42:41.772Z</time></trkpt><trkpt lat="43.23373" lon="11.524745"><ele>229.0</ele><time>2026-04-18T16:42:42.772Z</time></trkpt><trkpt lat="43.2339167" lon="11.5246117"><ele>233.66666666666666</ele><time>2026-04-18T16:42:43.771Z</time></trkpt><trkpt lat="43.2341067" lon="11.5244783"><ele>238.33333333333331</ele><time>2026-04-18T16:42:44.77Z</time></trkpt><trkpt lat="43.2342983" lon="11.5243533"><ele>243.0</ele><time>2026-04-18T16:42:45.771Z</time></trkpt><trkpt lat="43.234475" lon="11.5242217"><ele>243.0</ele><time>2026-04-18T16:42:46.772Z</time></trkpt><trkpt lat="43.23463" lon="11.52408"><ele>243.0</ele><time>2026-04-18T16:42:47.771Z</time></trkpt><trkpt lat="43.2347583" lon="11.523925"><ele>243.0</ele><time>2026-04-18T16:42:48.771Z</time></trkpt><trkpt lat="43.2348467" lon="11.5237567"><ele>242.66666666666669</ele><time>2026-04-18T16:42:49.771Z</time></trkpt><trkpt lat="43.2349033" lon="11.5235633"><ele>242.33333333333334</ele><time>2026-04-18T16:42:50.775Z</time></trkpt><trkpt lat="43.234915" lon="11.5233483"><ele>242.0</ele><time>2026-04-18T16:42:51.77Z</time></trkpt><trkpt lat="43.2348717" lon="11.5231067"><ele>247.66666666666669</ele><time>2026-04-18T16:42:52.771Z</time></trkpt><trkpt lat="43.2348017" lon="11.5228383"><ele>253.33333333333331</ele><time>2026-04-18T16:42:53.77Z</time></trkpt><trkpt lat="43.2347433" lon="11.522575"><ele>259.0</ele><time>2026-04-18T16:42:54.77Z</time></trkpt><trkpt lat="43.2346867" lon="11.5223167"><ele>259.0</ele><time>2026-04-18T16:42:55.771Z</time></trkpt><trkpt lat="43.2346267" lon="11.5220733"><ele>259.0</ele><time>2026-04-18T16:42:56.773Z</time></trkpt><trkpt lat="43.234535" lon="11.521855"><ele>259.0</ele><time>2026-04-18T16:42:57.771Z</time></trkpt><trkpt lat="43.2344" lon="11.5216567"><ele>257.0</ele><time>2026-04-18T16:42:58.772Z</time></trkpt><trkpt lat="43.2342367" lon="11.5214567"><ele>255.0</ele><time>2026-04-18T16:42:59.771Z</time></trkpt><trkpt lat="43.2340567" lon="11.5212467"><ele>252.33333333333331</ele><time>2026-04-18T16:43:00.769Z</time></trkpt><trkpt lat="43.23389" lon="11.5210433"><ele>249.66666666666666</ele><time>2026-04-18T16:43:01.769Z</time></trkpt><trkpt lat="43.23375" lon="11.52081"><ele>247.0</ele><time>2026-04-18T16:43:02.773Z</time></trkpt><trkpt lat="43.2336367" lon="11.5205417"><ele>248.0</ele><time>2026-04-18T16:43:03.771Z</time></trkpt><trkpt lat="43.2335383" lon="11.520255"><ele>249.0</ele><time>2026-04-18T16:43:04.771Z</time></trkpt><trkpt lat="43.2334583" lon="11.5199833"><ele>250.0</ele><time>2026-04-18T16:43:05.771Z</time></trkpt><trkpt lat="43.23341" lon="11.519735"><ele>253.0</ele><time>2026-04-18T16:43:06.77Z</time></trkpt><trkpt lat="43.2333917" lon="11.5194783"><ele>256.0</ele><time>2026-04-18T16:43:07.766Z</time></trkpt><trkpt lat="43.233415" lon="11.5192167"><ele>259.0</ele><time>2026-04-18T16:43:08.773Z</time></trkpt><trkpt lat="43.2334533" lon="11.5189267"><ele>261.0</ele><time>2026-04-18T16:43:09.77Z</time></trkpt><trkpt lat="43.233485" lon="11.5186233"><ele>263.0</ele><time>2026-04-18T16:43:10.771Z</time></trkpt><trkpt lat="43.23353" lon="11.5183183"><ele>263.0</ele><time>2026-04-18T16:43:11.773Z</time></trkpt><trkpt lat="43.2335917" lon="11.5180017"><ele>263.0</ele><time>2026-04-18T16:43:12.773Z</time></trkpt><trkpt lat="43.2336733" lon="11.5176883"><ele>261.0</ele><time>2026-04-18T16:43:13.77Z</time></trkpt><trkpt lat="43.23375" lon="11.5173933"><ele>259.0</ele><time>2026-04-18T16:43:14.775Z</time></trkpt><trkpt lat="43.233815" lon="11.517115"><ele>257.0</ele><time>2026-04-18T16:43:15.77Z</time></trkpt><trkpt lat="43.2338533" lon="11.5168283"><ele>257.0</ele><time>2026-04-18T16:43:16.772Z</time></trkpt><trkpt lat="43.2338733" lon="11.5165317"><ele>257.0</ele><time>2026-04-18T16:43:17.77Z</time></trkpt><trkpt lat="43.2338633" lon="11.51624"><ele>257.0</ele><time>2026-04-18T16:43:18.768Z</time></trkpt><trkpt lat="43.2338517" lon="11.5159733"><ele>257.0</ele><time>2026-04-18T16:43:19.771Z</time></trkpt><trkpt lat="43.233865" lon="11.5157133"><ele>257.0</ele><time>2026-04-18T16:43:20.776Z</time></trkpt><trkpt lat="43.2339083" lon="11.5154483"><ele>257.0</ele><time>2026-04-18T16:43:21.771Z</time></trkpt><trkpt lat="43.233965" lon="11.5151867"><ele>261.6666666666667</ele><time>2026-04-18T16:43:22.768Z</time></trkpt><trkpt lat="43.2340233" lon="11.51495"><ele>266.3333333333333</ele><time>2026-04-18T16:43:23.768Z</time></trkpt><trkpt lat="43.2340917" lon="11.5147567"><ele>271.0</ele><time>2026-04-18T16:43:24.769Z</time></trkpt><trkpt lat="43.2341717" lon="11.514605"><ele>269.0</ele><time>2026-04-18T16:43:25.771Z</time></trkpt><trkpt lat="43.2342683" lon="11.5144967"><ele>267.0</ele><time>2026-04-18T16:43:26.774Z</time></trkpt><trkpt lat="43.2343967" lon="11.5144367"><ele>265.0</ele><time>2026-04-18T16:43:27.771Z</time></trkpt><trkpt lat="43.2345567" lon="11.514425"><ele>263.0</ele><time>2026-04-18T16:43:28.771Z</time></trkpt><trkpt lat="43.2347433" lon="11.5144317"><ele>264.33333333333337</ele><time>2026-04-18T16:43:29.771Z</time></trkpt><trkpt lat="43.2349317" lon="11.5143983"><ele>265.6666666666667</ele><time>2026-04-18T16:43:30.775Z</time></trkpt><trkpt lat="43.2351267" lon="11.51431"><ele>267.0</ele><time>2026-04-18T16:43:31.764Z</time></trkpt><trkpt lat="43.2353117" lon="11.5141633"><ele>267.0</ele><time>2026-04-18T16:43:32.774Z</time></trkpt><trkpt lat="43.23546" lon="11.5139633"><ele>267.0</ele><time>2026-04-18T16:43:33.772Z</time></trkpt><trkpt lat="43.2356067" lon="11.51375"><ele>267.0</ele><time>2026-04-18T16:43:34.771Z</time></trkpt><trkpt lat="43.2357533" lon="11.5135267"><ele>268.0</ele><time>2026-04-18T16:43:35.769Z</time></trkpt><trkpt lat="43.2358867" lon="11.5132783"><ele>269.0</ele><time>2026-04-18T16:43:36.771Z</time></trkpt><trkpt lat="43.2359917" lon="11.513"><ele>265.0</ele><time>2026-04-18T16:43:37.771Z</time></trkpt><trkpt lat="43.2360783" lon="11.5126983"><ele>261.0</ele><time>2026-04-18T16:43:38.773Z</time></trkpt><trkpt lat="43.2361617" lon="11.5123933"><ele>261.0</ele><time>2026-04-18T16:43:39.771Z</time></trkpt><trkpt lat="43.2362617" lon="11.5121017"><ele>261.0</ele><time>2026-04-18T16:43:40.774Z</time></trkpt><trkpt lat="43.2363867" lon="11.5118233"><ele>262.0</ele><time>2026-04-18T16:43:41.77Z</time></trkpt><trkpt lat="43.236535" lon="11.5115633"><ele>263.0</ele><time>2026-04-18T16:43:42.772Z</time></trkpt><trkpt lat="43.2367" lon="11.5113"><ele>263.0</ele><time>2026-04-18T16:43:43.771Z</time></trkpt><trkpt lat="43.2368733" lon="11.5110433"><ele>263.0</ele><time>2026-04-18T16:43:44.773Z</time></trkpt><trkpt lat="43.2370483" lon="11.5107867"><ele>263.0</ele><time>2026-04-18T16:43:45.772Z</time></trkpt><trkpt lat="43.2372117" lon="11.5105533"><ele>263.0</ele><time>2026-04-18T16:43:46.769Z</time></trkpt><trkpt lat="43.2373417" lon="11.5103583"><ele>263.0</ele><time>2026-04-18T16:43:47.771Z</time></trkpt><trkpt lat="43.23744" lon="11.5101767"><ele>266.33333333333337</ele><time>2026-04-18T16:43:48.772Z</time></trkpt><trkpt lat="43.2375067" lon="11.509985"><ele>269.6666666666667</ele><time>2026-04-18T16:43:49.769Z</time></trkpt><trkpt lat="43.2375383" lon="11.5097583"><ele>273.0</ele><time>2026-04-18T16:43:50.771Z</time></trkpt><trkpt lat="43.23754" lon="11.5095"><ele>275.0</ele><time>2026-04-18T16:43:51.768Z</time></trkpt><trkpt lat="43.2375217" lon="11.50922"><ele>277.0</ele><time>2026-04-18T16:43:52.768Z</time></trkpt><trkpt lat="43.2375" lon="11.5089467"><ele>279.0</ele><time>2026-04-18T16:43:53.771Z</time></trkpt><trkpt lat="43.2374567" lon="11.5086767"><ele>281.6666666666667</ele><time>2026-04-18T16:43:54.771Z</time></trkpt><trkpt lat="43.2373783" lon="11.5084267"><ele>284.33333333333337</ele><time>2026-04-18T16:43:55.77Z</time></trkpt><trkpt lat="43.2372533" lon="11.5082333"><ele>287.0</ele><time>2026-04-18T16:43:56.77Z</time></trkpt><trkpt lat="43.2371233" lon="11.508085"><ele>282.25</ele><time>2026-04-18T16:43:57.773Z</time></trkpt><trkpt lat="43.2370283" lon="11.5079367"><ele>277.5</ele><time>2026-04-18T16:43:58.769Z</time></trkpt><trkpt lat="43.2369783" lon="11.5077617"><ele>272.75</ele><time>2026-04-18T16:43:59.773Z</time></trkpt><trkpt lat="43.2369783" lon="11.5075717"><ele>268.0</ele><time>2026-04-18T16:44:00.773Z</time></trkpt><trkpt lat="43.237035" lon="11.5073783"><ele>268.0</ele><time>2026-04-18T16:44:01.768Z</time></trkpt><trkpt lat="43.237165" lon="11.50719"><ele>268.0</ele><time>2026-04-18T16:44:02.773Z</time></trkpt><trkpt lat="43.2373617" lon="11.5070333"><ele>268.0</ele><time>2026-04-18T16:44:03.768Z</time></trkpt><trkpt lat="43.23754" lon="11.5068717"><ele>273.0</ele><time>2026-04-18T16:44:04.769Z</time></trkpt><trkpt lat="43.2376967" lon="11.5066833"><ele>278.0</ele><time>2026-04-18T16:44:05.771Z</time></trkpt><trkpt lat="43.237815" lon="11.506475"><ele>283.0</ele><time>2026-04-18T16:44:06.773Z</time></trkpt><trkpt lat="43.2378983" lon="11.5062533"><ele>281.0</ele><time>2026-04-18T16:44:07.771Z</time></trkpt><trkpt lat="43.2379217" lon="11.50601"><ele>279.0</ele><time>2026-04-18T16:44:08.774Z</time></trkpt><trkpt lat="43.2378867" lon="11.5057583"><ele>277.0</ele><time>2026-04-18T16:44:09.77Z</time></trkpt><trkpt lat="43.2377933" lon="11.5054967"><ele>278.0</ele><time>2026-04-18T16:44:10.772Z</time></trkpt><trkpt lat="43.2376417" lon="11.50523"><ele>279.0</ele><time>2026-04-18T16:44:11.771Z</time></trkpt><trkpt lat="43.23749" lon="11.504955"><ele>279.0</ele><time>2026-04-18T16:44:12.769Z</time></trkpt><trkpt lat="43.237345" lon="11.50467"><ele>279.0</ele><time>2026-04-18T16:44:13.771Z</time></trkpt><trkpt lat="43.2372067" lon="11.50438"><ele>278.0</ele><time>2026-04-18T16:44:14.773Z</time></trkpt><trkpt lat="43.2370617" lon="11.5041"><ele>277.0</ele><time>2026-04-18T16:44:15.772Z</time></trkpt><trkpt lat="43.2369033" lon="11.50384"><ele>281.5</ele><time>2026-04-18T16:44:16.767Z</time></trkpt><trkpt lat="43.2367283" lon="11.503605"><ele>286.0</ele><time>2026-04-18T16:44:17.769Z</time></trkpt><trkpt lat="43.2365433" lon="11.503415"><ele>282.66666666666663</ele><time>2026-04-18T16:44:18.772Z</time></trkpt><trkpt lat="43.23638" lon="11.5032433"><ele>279.3333333333333</ele><time>2026-04-18T16:44:19.771Z</time></trkpt><trkpt lat="43.236255" lon="11.503085"><ele>276.0</ele><time>2026-04-18T16:44:20.773Z</time></trkpt><trkpt lat="43.23617" lon="11.50291"><ele>276.0</ele><time>2026-04-18T16:44:21.772Z</time></trkpt><trkpt lat="43.236125" lon="11.5027133"><ele>276.0</ele><time>2026-04-18T16:44:22.772Z</time></trkpt><trkpt lat="43.2361333" lon="11.502495"><ele>276.0</ele><time>2026-04-18T16:44:23.77Z</time></trkpt><trkpt lat="43.236185" lon="11.502275"><ele>277.6666666666667</ele><time>2026-04-18T16:44:24.772Z</time></trkpt><trkpt lat="43.2363033" lon="11.5020567"><ele>279.33333333333337</ele><time>2026-04-18T16:44:25.772Z</time></trkpt><trkpt lat="43.2364433" lon="11.501825"><ele>281.0</ele><time>2026-04-18T16:44:26.77Z</time></trkpt><trkpt lat="43.2365567" lon="11.50156"><ele>281.0</ele><time>2026-04-18T16:44:27.773Z</time></trkpt><trkpt lat="43.2366367" lon="11.5012617"><ele>281.0</ele><time>2026-04-18T16:44:28.771Z</time></trkpt><trkpt lat="43.2366733" lon="11.50095"><ele>279.33333333333337</ele><time>2026-04-18T16:44:29.77Z</time></trkpt><trkpt lat="43.23668" lon="11.5006517"><ele>277.6666666666667</ele><time>2026-04-18T16:44:30.771Z</time></trkpt><trkpt lat="43.2367017" lon="11.5003833"><ele>276.0</ele><time>2026-04-18T16:44:31.769Z</time></trkpt><trkpt lat="43.236735" lon="11.5001317"><ele>274.3333333333333</ele><time>2026-04-18T16:44:32.774Z</time></trkpt><trkpt lat="43.236795" lon="11.4998883"><ele>272.66666666666663</ele><time>2026-04-18T16:44:33.77Z</time></trkpt><trkpt lat="43.2368617" lon="11.4996367"><ele>271.0</ele><time>2026-04-18T16:44:34.766Z</time></trkpt><trkpt lat="43.23692" lon="11.4993983"><ele>270.3333333333333</ele><time>2026-04-18T16:44:35.771Z</time></trkpt><trkpt lat="43.2369533" lon="11.499165"><ele>269.6666666666667</ele><time>2026-04-18T16:44:36.77Z</time></trkpt><trkpt lat="43.2369583" lon="11.4989317"><ele>269.0</ele><time>2026-04-18T16:44:37.768Z</time></trkpt><trkpt lat="43.23692" lon="11.498705"><ele>268.6666666666667</ele><time>2026-04-18T16:44:38.773Z</time></trkpt><trkpt lat="43.2368283" lon="11.4984933"><ele>268.3333333333333</ele><time>2026-04-18T16:44:39.77Z</time></trkpt><trkpt lat="43.2366933" lon="11.4983067"><ele>268.0</ele><time>2026-04-18T16:44:40.766Z</time></trkpt><trkpt lat="43.23656" lon="11.4981267"><ele>263.5</ele><time>2026-04-18T16:44:41.771Z</time></trkpt><trkpt lat="43.236445" lon="11.4979617"><ele>259.0</ele><time>2026-04-18T16:44:42.771Z</time></trkpt><trkpt lat="43.23636" lon="11.4978167"><ele>254.5</ele><time>2026-04-18T16:44:43.771Z</time></trkpt><trkpt lat="43.2363167" lon="11.4976717"><ele>250.0</ele><time>2026-04-18T16:44:44.766Z</time></trkpt><trkpt lat="43.23632" lon="11.49752"><ele>250.0</ele><time>2026-04-18T16:44:45.768Z</time></trkpt><trkpt lat="43.2363683" lon="11.4973833"><ele>250.0</ele><time>2026-04-18T16:44:46.772Z</time></trkpt><trkpt lat="43.236495" lon="11.4973"><ele>250.0</ele><time>2026-04-18T16:44:47.765Z</time></trkpt><trkpt lat="43.2366717" lon="11.4972583"><ele>250.0</ele><time>2026-04-18T16:44:48.771Z</time></trkpt><trkpt lat="43.236865" lon="11.49721"><ele>249.66666666666666</ele><time>2026-04-18T16:44:49.77Z</time></trkpt><trkpt lat="43.2370517" lon="11.4971383"><ele>249.33333333333331</ele><time>2026-04-18T16:44:50.773Z</time></trkpt><trkpt lat="43.2372417" lon="11.497015"><ele>249.0</ele><time>2026-04-18T16:44:51.771Z</time></trkpt><trkpt lat="43.2374017" lon="11.4968317"><ele>251.0</ele><time>2026-04-18T16:44:52.772Z</time></trkpt><trkpt lat="43.2375533" lon="11.4966283"><ele>253.0</ele><time>2026-04-18T16:44:53.771Z</time></trkpt><trkpt lat="43.2377183" lon="11.4964367"><ele>255.0</ele><time>2026-04-18T16:44:54.771Z</time></trkpt><trkpt lat="43.237895" lon="11.4962533"><ele>250.5</ele><time>2026-04-18T16:44:55.772Z</time></trkpt><trkpt lat="43.2380833" lon="11.4960767"><ele>246.0</ele><time>2026-04-18T16:44:56.768Z</time></trkpt><trkpt lat="43.23827" lon="11.4959083"><ele>246.0</ele><time>2026-04-18T16:44:57.769Z</time></trkpt><trkpt lat="43.2384433" lon="11.4957517"><ele>246.0</ele><time>2026-04-18T16:44:58.77Z</time></trkpt><trkpt lat="43.2386017" lon="11.4956167"><ele>246.0</ele><time>2026-04-18T16:44:59.767Z</time></trkpt><trkpt lat="43.238735" lon="11.495485"><ele>243.0</ele><time>2026-04-18T16:45:00.768Z</time></trkpt><trkpt lat="43.23885" lon="11.4953433"><ele>240.0</ele><time>2026-04-18T16:45:01.771Z</time></trkpt><trkpt lat="43.2389083" lon="11.495175"><ele>237.0</ele><time>2026-04-18T16:45:02.771Z</time></trkpt><trkpt lat="43.238915" lon="11.4949717"><ele>234.0</ele><time>2026-04-18T16:45:03.772Z</time></trkpt><trkpt lat="43.2388667" lon="11.4947167"><ele>233.0</ele><time>2026-04-18T16:45:04.77Z</time></trkpt><trkpt lat="43.238775" lon="11.49442"><ele>232.0</ele><time>2026-04-18T16:45:05.771Z</time></trkpt><trkpt lat="43.2386933" lon="11.4941167"><ele>232.0</ele><time>2026-04-18T16:45:06.771Z</time></trkpt><trkpt lat="43.2386167" lon="11.4938"><ele>232.0</ele><time>2026-04-18T16:45:07.771Z</time></trkpt><trkpt lat="43.2385417" lon="11.4934717"><ele>234.0</ele><time>2026-04-18T16:45:08.772Z</time></trkpt><trkpt lat="43.23846" lon="11.493135"><ele>236.0</ele><time>2026-04-18T16:45:09.77Z</time></trkpt><trkpt lat="43.23838" lon="11.492795"><ele>238.5</ele><time>2026-04-18T16:45:10.768Z</time></trkpt><trkpt lat="43.2383067" lon="11.49247"><ele>241.0</ele><time>2026-04-18T16:45:11.771Z</time></trkpt><trkpt lat="43.2382383" lon="11.492195"><ele>240.66666666666666</ele><time>2026-04-18T16:45:12.773Z</time></trkpt><trkpt lat="43.23815" lon="11.491945"><ele>240.33333333333331</ele><time>2026-04-18T16:45:13.771Z</time></trkpt><trkpt lat="43.23803" lon="11.4917117"><ele>240.0</ele><time>2026-04-18T16:45:14.775Z</time></trkpt><trkpt lat="43.2378767" lon="11.4914917"><ele>240.0</ele><time>2026-04-18T16:45:15.772Z</time></trkpt><trkpt lat="43.23771" lon="11.491275"><ele>240.0</ele><time>2026-04-18T16:45:16.772Z</time></trkpt><trkpt lat="43.2375383" lon="11.4910483"><ele>239.0</ele><time>2026-04-18T16:45:17.771Z</time></trkpt><trkpt lat="43.2373683" lon="11.49081"><ele>238.0</ele><time>2026-04-18T16:45:18.771Z</time></trkpt><trkpt lat="43.2371983" lon="11.490575"><ele>240.0</ele><time>2026-04-18T16:45:19.772Z</time></trkpt><trkpt lat="43.2370383" lon="11.49035"><ele>242.0</ele><time>2026-04-18T16:45:20.775Z</time></trkpt><trkpt lat="43.2368917" lon="11.49014"><ele>244.0</ele><time>2026-04-18T16:45:21.771Z</time></trkpt><trkpt lat="43.23677" lon="11.4899333"><ele>244.0</ele><time>2026-04-18T16:45:22.77Z</time></trkpt><trkpt lat="43.2366683" lon="11.4896967"><ele>244.0</ele><time>2026-04-18T16:45:23.772Z</time></trkpt><trkpt lat="43.236605" lon="11.4894283"><ele>244.0</ele><time>2026-04-18T16:45:24.768Z</time></trkpt><trkpt lat="43.2365767" lon="11.4891417"><ele>244.0</ele><time>2026-04-18T16:45:25.772Z</time></trkpt><trkpt lat="43.2366017" lon="11.4888517"><ele>244.0</ele><time>2026-04-18T16:45:26.772Z</time></trkpt><trkpt lat="43.236655" lon="11.4885717"><ele>244.0</ele><time>2026-04-18T16:45:27.772Z</time></trkpt><trkpt lat="43.2367183" lon="11.4883217"><ele>244.0</ele><time>2026-04-18T16:45:28.77Z</time></trkpt><trkpt lat="43.23676" lon="11.4880767"><ele>244.0</ele><time>2026-04-18T16:45:29.771Z</time></trkpt><trkpt lat="43.236775" lon="11.487815"><ele>244.0</ele><time>2026-04-18T16:45:30.771Z</time></trkpt><trkpt lat="43.23675" lon="11.487545"><ele>245.0</ele><time>2026-04-18T16:45:31.773Z</time></trkpt><trkpt lat="43.2366733" lon="11.4872733"><ele>246.0</ele><time>2026-04-18T16:45:32.774Z</time></trkpt><trkpt lat="43.23656" lon="11.48701"><ele>247.0</ele><time>2026-04-18T16:45:33.77Z</time></trkpt><trkpt lat="43.2364333" lon="11.4867467"><ele>247.5</ele><time>2026-04-18T16:45:34.765Z</time></trkpt><trkpt lat="43.2362917" lon="11.4864883"><ele>248.0</ele><time>2026-04-18T16:45:35.767Z</time></trkpt><trkpt lat="43.236165" lon="11.48623"><ele>248.0</ele><time>2026-04-18T16:45:36.763Z</time></trkpt><trkpt lat="43.2360583" lon="11.4859633"><ele>248.0</ele><time>2026-04-18T16:45:37.762Z</time></trkpt><trkpt lat="43.2359767" lon="11.485665"><ele>248.0</ele><time>2026-04-18T16:45:38.773Z</time></trkpt><trkpt lat="43.235925" lon="11.4853483"><ele>248.0</ele><time>2026-04-18T16:45:39.766Z</time></trkpt><trkpt lat="43.23589" lon="11.4850317"><ele>248.0</ele><time>2026-04-18T16:45:40.771Z</time></trkpt><trkpt lat="43.2358517" lon="11.4847383"><ele>248.0</ele><time>2026-04-18T16:45:41.767Z</time></trkpt><trkpt lat="43.2357967" lon="11.4844833"><ele>248.0</ele><time>2026-04-18T16:45:42.771Z</time></trkpt><trkpt lat="43.2357033" lon="11.4842583"><ele>244.33333333333334</ele><time>2026-04-18T16:45:43.77Z</time></trkpt><trkpt lat="43.2355867" lon="11.48405"><ele>240.66666666666669</ele><time>2026-04-18T16:45:44.772Z</time></trkpt><trkpt lat="43.2354767" lon="11.4838367"><ele>237.0</ele><time>2026-04-18T16:45:45.771Z</time></trkpt><trkpt lat="43.2353933" lon="11.48358"><ele>235.66666666666669</ele><time>2026-04-18T16:45:46.772Z</time></trkpt><trkpt lat="43.2353683" lon="11.4832933"><ele>234.33333333333334</ele><time>2026-04-18T16:45:47.771Z</time></trkpt><trkpt lat="43.2353767" lon="11.4829917"><ele>233.0</ele><time>2026-04-18T16:45:48.768Z</time></trkpt><trkpt lat="43.2354233" lon="11.4826717"><ele>233.0</ele><time>2026-04-18T16:45:49.771Z</time></trkpt><trkpt lat="43.2354983" lon="11.482365"><ele>233.0</ele><time>2026-04-18T16:45:50.773Z</time></trkpt><trkpt lat="43.235595" lon="11.4820667"><ele>237.33333333333334</ele><time>2026-04-18T16:45:51.77Z</time></trkpt><trkpt lat="43.2356983" lon="11.48179"><ele>241.66666666666669</ele><time>2026-04-18T16:45:52.769Z</time></trkpt><trkpt lat="43.2358017" lon="11.4815417"><ele>246.0</ele><time>2026-04-18T16:45:53.771Z</time></trkpt><trkpt lat="43.2358817" lon="11.4813267"><ele>247.75</ele><time>2026-04-18T16:45:54.768Z</time></trkpt><trkpt lat="43.23593" lon="11.4811217"><ele>249.5</ele><time>2026-04-18T16:45:55.771Z</time></trkpt><trkpt lat="43.2359417" lon="11.480925"><ele>251.25</ele><time>2026-04-18T16:45:56.773Z</time></trkpt><trkpt lat="43.2359117" lon="11.480735"><ele>253.0</ele><time>2026-04-18T16:45:57.762Z</time></trkpt><trkpt lat="43.2358367" lon="11.4805717"><ele>253.0</ele><time>2026-04-18T16:45:58.77Z</time></trkpt><trkpt lat="43.235705" lon="11.48046"><ele>253.0</ele><time>2026-04-18T16:45:59.772Z</time></trkpt><trkpt lat="43.235535" lon="11.4804167"><ele>253.0</ele><time>2026-04-18T16:46:00.771Z</time></trkpt><trkpt lat="43.235345" lon="11.4804367"><ele>252.33333333333331</ele><time>2026-04-18T16:46:01.771Z</time></trkpt><trkpt lat="43.2351617" lon="11.480445"><ele>251.66666666666669</ele><time>2026-04-18T16:46:02.773Z</time></trkpt><trkpt lat="43.2349833" lon="11.4804117"><ele>251.0</ele><time>2026-04-18T16:46:03.77Z</time></trkpt><trkpt lat="43.2348133" lon="11.4803167"><ele>250.33333333333334</ele><time>2026-04-18T16:46:04.77Z</time></trkpt><trkpt lat="43.23464" lon="11.480175"><ele>249.66666666666669</ele><time>2026-04-18T16:46:05.766Z</time></trkpt><trkpt lat="43.2344717" lon="11.4799883"><ele>249.0</ele><time>2026-04-18T16:46:06.77Z</time></trkpt><trkpt lat="43.2342983" lon="11.4797933"><ele>245.5</ele><time>2026-04-18T16:46:07.77Z</time></trkpt><trkpt lat="43.2341267" lon="11.4795883"><ele>242.0</ele><time>2026-04-18T16:46:08.773Z</time></trkpt><trkpt lat="43.2339533" lon="11.4793733"><ele>238.5</ele><time>2026-04-18T16:46:09.77Z</time></trkpt><trkpt lat="43.2337767" lon="11.47915"><ele>235.0</ele><time>2026-04-18T16:46:10.772Z</time></trkpt><trkpt lat="43.2335933" lon="11.4789333"><ele>241.0</ele><time>2026-04-18T16:46:11.769Z</time></trkpt><trkpt lat="43.2334067" lon="11.4787433"><ele>247.0</ele><time>2026-04-18T16:46:12.772Z</time></trkpt><trkpt lat="43.2332233" lon="11.4785717"><ele>239.66666666666666</ele><time>2026-04-18T16:46:13.771Z</time></trkpt><trkpt lat="43.2330567" lon="11.4784133"><ele>232.33333333333331</ele><time>2026-04-18T16:46:14.775Z</time></trkpt><trkpt lat="43.2329083" lon="11.47824"><ele>225.0</ele><time>2026-04-18T16:46:15.771Z</time></trkpt><trkpt lat="43.2327767" lon="11.478025"><ele>227.66666666666669</ele><time>2026-04-18T16:46:16.766Z</time></trkpt><trkpt lat="43.2326533" lon="11.4777783"><ele>230.33333333333334</ele><time>2026-04-18T16:46:17.771Z</time></trkpt><trkpt lat="43.2325217" lon="11.47752"><ele>233.0</ele><time>2026-04-18T16:46:18.766Z</time></trkpt><trkpt lat="43.2323817" lon="11.4772667"><ele>230.0</ele><time>2026-04-18T16:46:19.771Z</time></trkpt><trkpt lat="43.2322283" lon="11.4770183"><ele>227.0</ele><time>2026-04-18T16:46:20.774Z</time></trkpt><trkpt lat="43.23207" lon="11.4767733"><ele>227.0</ele><time>2026-04-18T16:46:21.771Z</time></trkpt><trkpt lat="43.2319117" lon="11.476525"><ele>227.0</ele><time>2026-04-18T16:46:22.77Z</time></trkpt><trkpt lat="43.2317517" lon="11.4762717"><ele>228.5</ele><time>2026-04-18T16:46:23.766Z</time></trkpt><trkpt lat="43.2315967" lon="11.47602"><ele>230.0</ele><time>2026-04-18T16:46:24.773Z</time></trkpt><trkpt lat="43.2314317" lon="11.47579"><ele>230.5</ele><time>2026-04-18T16:46:25.769Z</time></trkpt><trkpt lat="43.2312533" lon="11.4755917"><ele>231.0</ele><time>2026-04-18T16:46:26.774Z</time></trkpt><trkpt lat="43.2310683" lon="11.4754183"><ele>231.0</ele><time>2026-04-18T16:46:27.771Z</time></trkpt><trkpt lat="43.2308833" lon="11.47525"><ele>231.0</ele><time>2026-04-18T16:46:28.769Z</time></trkpt><trkpt lat="43.23072" lon="11.4750683"><ele>231.0</ele><time>2026-04-18T16:46:29.77Z</time></trkpt><trkpt lat="43.2305733" lon="11.4748583"><ele>229.66666666666669</ele><time>2026-04-18T16:46:30.771Z</time></trkpt><trkpt lat="43.2304517" lon="11.47463"><ele>228.33333333333334</ele><time>2026-04-18T16:46:31.771Z</time></trkpt><trkpt lat="43.2303167" lon="11.47441"><ele>227.0</ele><time>2026-04-18T16:46:32.77Z</time></trkpt><trkpt lat="43.23017" lon="11.4742017"><ele>227.0</ele><time>2026-04-18T16:46:33.765Z</time></trkpt><trkpt lat="43.2300083" lon="11.4740133"><ele>227.0</ele><time>2026-04-18T16:46:34.766Z</time></trkpt><trkpt lat="43.2298233" lon="11.47385"><ele>227.0</ele><time>2026-04-18T16:46:35.768Z</time></trkpt><trkpt lat="43.2296217" lon="11.4737183"><ele>228.5</ele><time>2026-04-18T16:46:36.767Z</time></trkpt><trkpt lat="43.2294067" lon="11.4736033"><ele>230.0</ele><time>2026-04-18T16:46:37.768Z</time></trkpt><trkpt lat="43.2291817" lon="11.4734983"><ele>228.5</ele><time>2026-04-18T16:46:38.772Z</time></trkpt><trkpt lat="43.2289583" lon="11.4733967"><ele>227.0</ele><time>2026-04-18T16:46:39.771Z</time></trkpt><trkpt lat="43.2287367" lon="11.473295"><ele>227.0</ele><time>2026-04-18T16:46:40.771Z</time></trkpt><trkpt lat="43.22851" lon="11.4731967"><ele>227.0</ele><time>2026-04-18T16:46:41.768Z</time></trkpt><trkpt lat="43.228285" lon="11.4731133"><ele>225.0</ele><time>2026-04-18T16:46:42.773Z</time></trkpt><trkpt lat="43.2280533" lon="11.473065"><ele>223.0</ele><time>2026-04-18T16:46:43.771Z</time></trkpt><trkpt lat="43.2278217" lon="11.4730467"><ele>223.0</ele><time>2026-04-18T16:46:44.775Z</time></trkpt><trkpt lat="43.2276067" lon="11.4730467"><ele>223.0</ele><time>2026-04-18T16:46:45.766Z</time></trkpt><trkpt lat="43.2274117" lon="11.4730483"><ele>223.0</ele><time>2026-04-18T16:46:46.771Z</time></trkpt><trkpt lat="43.227245" lon="11.473035"><ele>220.0</ele><time>2026-04-18T16:46:47.771Z</time></trkpt><trkpt lat="43.2270933" lon="11.473015"><ele>217.0</ele><time>2026-04-18T16:46:48.772Z</time></trkpt><trkpt lat="43.2269417" lon="11.4729933"><ele>214.0</ele><time>2026-04-18T16:46:49.769Z</time></trkpt><trkpt lat="43.2267817" lon="11.472965"><ele>218.66666666666666</ele><time>2026-04-18T16:46:50.772Z</time></trkpt><trkpt lat="43.2266083" lon="11.47291"><ele>223.33333333333331</ele><time>2026-04-18T16:46:51.77Z</time></trkpt><trkpt lat="43.2264167" lon="11.47283"><ele>228.0</ele><time>2026-04-18T16:46:52.77Z</time></trkpt><trkpt lat="43.2262133" lon="11.47275"><ele>228.0</ele><time>2026-04-18T16:46:53.773Z</time></trkpt><trkpt lat="43.226015" lon="11.4726917"><ele>228.0</ele><time>2026-04-18T16:46:54.769Z</time></trkpt><trkpt lat="43.2258233" lon="11.4726617"><ele>228.0</ele><time>2026-04-18T16:46:55.771Z</time></trkpt><trkpt lat="43.225655" lon="11.4726567"><ele>223.0</ele><time>2026-04-18T16:46:56.773Z</time></trkpt><trkpt lat="43.2254967" lon="11.472635"><ele>218.0</ele><time>2026-04-18T16:46:57.771Z</time></trkpt><trkpt lat="43.2253483" lon="11.4725683"><ele>213.0</ele><time>2026-04-18T16:46:58.771Z</time></trkpt><trkpt lat="43.2252167" lon="11.4724333"><ele>213.0</ele><time>2026-04-18T16:46:59.77Z</time></trkpt><trkpt lat="43.2250867" lon="11.47224"><ele>213.0</ele><time>2026-04-18T16:47:00.773Z</time></trkpt><trkpt lat="43.2249667" lon="11.4720183"><ele>213.0</ele><time>2026-04-18T16:47:01.771Z</time></trkpt><trkpt lat="43.2248417" lon="11.4718133"><ele>210.33333333333331</ele><time>2026-04-18T16:47:02.774Z</time></trkpt><trkpt lat="43.2247167" lon="11.47164"><ele>207.66666666666666</ele><time>2026-04-18T16:47:03.771Z</time></trkpt><trkpt lat="43.22461" lon="11.4714833"><ele>205.0</ele><time>2026-04-18T16:47:04.771Z</time></trkpt><trkpt lat="43.2245467" lon="11.4713217"><ele>206.0</ele><time>2026-04-18T16:47:05.771Z</time></trkpt><trkpt lat="43.2245183" lon="11.4711433"><ele>207.0</ele><time>2026-04-18T16:47:06.771Z</time></trkpt><trkpt lat="43.224535" lon="11.4709533"><ele>208.0</ele><time>2026-04-18T16:47:07.771Z</time></trkpt><trkpt lat="43.2246033" lon="11.470765"><ele>209.0</ele><time>2026-04-18T16:47:08.772Z</time></trkpt><trkpt lat="43.22468" lon="11.47056"><ele>207.0</ele><time>2026-04-18T16:47:09.773Z</time></trkpt><trkpt lat="43.2247317" lon="11.4703433"><ele>205.0</ele><time>2026-04-18T16:47:10.769Z</time></trkpt><trkpt lat="43.2247333" lon="11.470115"><ele>203.0</ele><time>2026-04-18T16:47:11.766Z</time></trkpt><trkpt lat="43.22469" lon="11.4698767"><ele>203.0</ele><time>2026-04-18T16:47:12.772Z</time></trkpt><trkpt lat="43.22461" lon="11.469635"><ele>203.0</ele><time>2026-04-18T16:47:13.771Z</time></trkpt><trkpt lat="43.22452" lon="11.46938"><ele>203.0</ele><time>2026-04-18T16:47:14.771Z</time></trkpt><trkpt lat="43.224415" lon="11.4691183"><ele>204.33333333333334</ele><time>2026-04-18T16:47:15.771Z</time></trkpt><trkpt lat="43.2242867" lon="11.468865"><ele>205.66666666666669</ele><time>2026-04-18T16:47:16.765Z</time></trkpt><trkpt lat="43.2241533" lon="11.468635"><ele>207.0</ele><time>2026-04-18T16:47:17.769Z</time></trkpt><trkpt lat="43.2240217" lon="11.4684317"><ele>200.66666666666666</ele><time>2026-04-18T16:47:18.773Z</time></trkpt><trkpt lat="43.2239117" lon="11.4682517"><ele>194.33333333333331</ele><time>2026-04-18T16:47:19.768Z</time></trkpt><trkpt lat="43.2238267" lon="11.4680783"><ele>188.0</ele><time>2026-04-18T16:47:20.773Z</time></trkpt><trkpt lat="43.2237767" lon="11.4679083"><ele>187.25</ele><time>2026-04-18T16:47:21.772Z</time></trkpt><trkpt lat="43.2237717" lon="11.4677467"><ele>186.5</ele><time>2026-04-18T16:47:22.767Z</time></trkpt><trkpt lat="43.22383" lon="11.46761"><ele>185.75</ele><time>2026-04-18T16:47:23.768Z</time></trkpt><trkpt lat="43.2239517" lon="11.4675133"><ele>185.0</ele><time>2026-04-18T16:47:24.772Z</time></trkpt><trkpt lat="43.22408" lon="11.4674067"><ele>186.33333333333331</ele><time>2026-04-18T16:47:25.767Z</time></trkpt><trkpt lat="43.2242033" lon="11.467265"><ele>187.66666666666666</ele><time>2026-04-18T16:47:26.775Z</time></trkpt><trkpt lat="43.2243183" lon="11.4670983"><ele>189.0</ele><time>2026-04-18T16:47:27.764Z</time></trkpt><trkpt lat="43.2244017" lon="11.46691"><ele>189.0</ele><time>2026-04-18T16:47:28.773Z</time></trkpt><trkpt lat="43.2244633" lon="11.4667317"><ele>189.0</ele><time>2026-04-18T16:47:29.769Z</time></trkpt><trkpt lat="43.22454" lon="11.466575"><ele>189.0</ele><time>2026-04-18T16:47:30.77Z</time></trkpt><trkpt lat="43.2246467" lon="11.4664483"><ele>189.0</ele><time>2026-04-18T16:47:31.771Z</time></trkpt><trkpt lat="43.224785" lon="11.4663683"><ele>189.33333333333334</ele><time>2026-04-18T16:47:32.77Z</time></trkpt><trkpt lat="43.2249267" lon="11.4662883"><ele>189.66666666666669</ele><time>2026-04-18T16:47:33.764Z</time></trkpt><trkpt lat="43.2250617" lon="11.466175"><ele>190.0</ele><time>2026-04-18T16:47:34.765Z</time></trkpt><trkpt lat="43.225165" lon="11.4659933"><ele>190.0</ele><time>2026-04-18T16:47:35.772Z</time></trkpt><trkpt lat="43.22524" lon="11.4657867"><ele>190.0</ele><time>2026-04-18T16:47:36.771Z</time></trkpt><trkpt lat="43.2253133" lon="11.4655933"><ele>190.0</ele><time>2026-04-18T16:47:37.768Z</time></trkpt><trkpt lat="43.2254133" lon="11.4654467"><ele>187.0</ele><time>2026-04-18T16:47:38.772Z</time></trkpt><trkpt lat="43.2255383" lon="11.4653583"><ele>184.0</ele><time>2026-04-18T16:47:39.767Z</time></trkpt><trkpt lat="43.2256633" lon="11.4653133"><ele>181.0</ele><time>2026-04-18T16:47:40.768Z</time></trkpt><trkpt lat="43.225785" lon="11.46533"><ele>178.0</ele><time>2026-04-18T16:47:41.771Z</time></trkpt><trkpt lat="43.2259167" lon="11.4654067"><ele>181.75</ele><time>2026-04-18T16:47:42.772Z</time></trkpt><trkpt lat="43.2260117" lon="11.4655467"><ele>185.5</ele><time>2026-04-18T16:47:43.77Z</time></trkpt><trkpt lat="43.2260867" lon="11.465755"><ele>189.25</ele><time>2026-04-18T16:47:44.771Z</time></trkpt><trkpt lat="43.2261417" lon="11.465905"><ele>193.0</ele><time>2026-04-18T16:47:45.77Z</time></trkpt><trkpt lat="43.2262183" lon="11.46599"><ele>193.0</ele><time>2026-04-18T16:47:46.766Z</time></trkpt><trkpt lat="43.2262917" lon="11.466055"><ele>193.0</ele><time>2026-04-18T16:47:47.768Z</time></trkpt><trkpt lat="43.226385" lon="11.4660667"><ele>193.0</ele><time>2026-04-18T16:47:49.771Z</time></trkpt><trkpt lat="43.2263667" lon="11.465935"><ele>193.0</ele><time>2026-04-18T16:47:50.774Z</time></trkpt><trkpt lat="43.226355" lon="11.4658467"><ele>193.0</ele><time>2026-04-18T16:47:51.765Z</time></trkpt><trkpt lat="43.226305" lon="11.4656767"><ele>185.5</ele><time>2026-04-18T16:47:52.768Z</time></trkpt><trkpt lat="43.2261917" lon="11.465445"><ele>178.0</ele><time>2026-04-18T16:47:53.767Z</time></trkpt><trkpt lat="43.22602" lon="11.4651783"><ele>178.0</ele><time>2026-04-18T16:47:54.769Z</time></trkpt><trkpt lat="43.2258667" lon="11.4649817"><ele>178.0</ele><time>2026-04-18T16:47:55.767Z</time></trkpt><trkpt lat="43.2256967" lon="11.4648467"><ele>178.0</ele><time>2026-04-18T16:47:56.774Z</time></trkpt><trkpt lat="43.2255333" lon="11.4647783"><ele>176.75</ele><time>2026-04-18T16:47:57.772Z</time></trkpt><trkpt lat="43.2253633" lon="11.4648133"><ele>175.5</ele><time>2026-04-18T16:47:58.767Z</time></trkpt><trkpt lat="43.2252367" lon="11.4648383"><ele>174.25</ele><time>2026-04-18T16:47:59.771Z</time></trkpt><trkpt lat="43.22512" lon="11.4648483"><ele>173.0</ele><time>2026-04-18T16:48:00.767Z</time></trkpt><trkpt lat="43.2250317" lon="11.46483"><ele>173.0</ele><time>2026-04-18T16:48:01.772Z</time></trkpt><trkpt lat="43.2249867" lon="11.464765"><ele>173.0</ele><time>2026-04-18T16:48:02.773Z</time></trkpt><trkpt lat="43.2249867" lon="11.46464"><ele>173.0</ele><time>2026-04-18T16:48:03.77Z</time></trkpt><trkpt lat="43.22505" lon="11.46444"><ele>173.0</ele><time>2026-04-18T16:48:04.771Z</time></trkpt><trkpt lat="43.2251467" lon="11.46421"><ele>171.0</ele><time>2026-04-18T16:48:05.77Z</time></trkpt><trkpt lat="43.22523" lon="11.46399"><ele>169.0</ele><time>2026-04-18T16:48:06.766Z</time></trkpt><trkpt lat="43.2253" lon="11.4637733"><ele>167.0</ele><time>2026-04-18T16:48:07.773Z</time></trkpt><trkpt lat="43.2253617" lon="11.463565"><ele>166.5</ele><time>2026-04-18T16:48:08.772Z</time></trkpt><trkpt lat="43.22542" lon="11.4633733"><ele>166.0</ele><time>2026-04-18T16:48:09.769Z</time></trkpt><trkpt lat="43.225475" lon="11.4631967"><ele>165.5</ele><time>2026-04-18T16:48:10.765Z</time></trkpt><trkpt lat="43.22553" lon="11.4630183"><ele>165.0</ele><time>2026-04-18T16:48:11.771Z</time></trkpt><trkpt lat="43.2255833" lon="11.4628383"><ele>165.0</ele><time>2026-04-18T16:48:12.773Z</time></trkpt><trkpt lat="43.2256417" lon="11.4626617"><ele>165.0</ele><time>2026-04-18T16:48:13.771Z</time></trkpt><trkpt lat="43.225725" lon="11.4625067"><ele>165.0</ele><time>2026-04-18T16:48:14.772Z</time></trkpt><trkpt lat="43.2258333" lon="11.4623817"><ele>165.0</ele><time>2026-04-18T16:48:15.77Z</time></trkpt><trkpt lat="43.2259883" lon="11.4623217"><ele>167.0</ele><time>2026-04-18T16:48:16.772Z</time></trkpt><trkpt lat="43.226175" lon="11.4623083"><ele>169.0</ele><time>2026-04-18T16:48:17.768Z</time></trkpt><trkpt lat="43.2263867" lon="11.4623283"><ele>171.0</ele><time>2026-04-18T16:48:18.772Z</time></trkpt><trkpt lat="43.2266083" lon="11.4623317"><ele>173.33333333333334</ele><time>2026-04-18T16:48:19.772Z</time></trkpt><trkpt lat="43.2268283" lon="11.4622833"><ele>175.66666666666669</ele><time>2026-04-18T16:48:20.773Z</time></trkpt><trkpt lat="43.227045" lon="11.4622"><ele>178.0</ele><time>2026-04-18T16:48:21.77Z</time></trkpt><trkpt lat="43.2272483" lon="11.462095"><ele>180.0</ele><time>2026-04-18T16:48:22.772Z</time></trkpt><trkpt lat="43.2274267" lon="11.4619683"><ele>182.0</ele><time>2026-04-18T16:48:23.773Z</time></trkpt><trkpt lat="43.2275783" lon="11.4618283"><ele>184.0</ele><time>2026-04-18T16:48:24.771Z</time></trkpt><trkpt lat="43.227695" lon="11.46166"><ele>184.0</ele><time>2026-04-18T16:48:25.771Z</time></trkpt><trkpt lat="43.2277717" lon="11.461455"><ele>184.0</ele><time>2026-04-18T16:48:26.772Z</time></trkpt><trkpt lat="43.22781" lon="11.4612317"><ele>184.0</ele><time>2026-04-18T16:48:27.771Z</time></trkpt><trkpt lat="43.22784" lon="11.4610233"><ele>188.33333333333334</ele><time>2026-04-18T16:48:28.769Z</time></trkpt><trkpt lat="43.2278983" lon="11.46083"><ele>192.66666666666669</ele><time>2026-04-18T16:48:29.771Z</time></trkpt><trkpt lat="43.22799" lon="11.460655"><ele>197.0</ele><time>2026-04-18T16:48:30.772Z</time></trkpt><trkpt lat="43.228125" lon="11.4605267"><ele>199.0</ele><time>2026-04-18T16:48:31.772Z</time></trkpt><trkpt lat="43.2282933" lon="11.4604383"><ele>201.0</ele><time>2026-04-18T16:48:32.773Z</time></trkpt><trkpt lat="43.2285" lon="11.4603833"><ele>203.0</ele><time>2026-04-18T16:48:33.769Z</time></trkpt><trkpt lat="43.22868" lon="11.460315"><ele>203.0</ele><time>2026-04-18T16:48:34.768Z</time></trkpt><trkpt lat="43.228855" lon="11.460225"><ele>203.0</ele><time>2026-04-18T16:48:35.772Z</time></trkpt><trkpt lat="43.2290117" lon="11.460095"><ele>203.0</ele><time>2026-04-18T16:48:36.772Z</time></trkpt><trkpt lat="43.2291383" lon="11.45992"><ele>203.66666666666669</ele><time>2026-04-18T16:48:37.77Z</time></trkpt><trkpt lat="43.2292333" lon="11.4596883"><ele>204.33333333333331</ele><time>2026-04-18T16:48:38.773Z</time></trkpt><trkpt lat="43.2293067" lon="11.4594267"><ele>205.0</ele><time>2026-04-18T16:48:39.769Z</time></trkpt><trkpt lat="43.22941" lon="11.4591867"><ele>205.0</ele><time>2026-04-18T16:48:40.767Z</time></trkpt><trkpt lat="43.22954" lon="11.4589583"><ele>205.0</ele><time>2026-04-18T16:48:41.77Z</time></trkpt><trkpt lat="43.2296667" lon="11.4587483"><ele>205.0</ele><time>2026-04-18T16:48:42.774Z</time></trkpt><trkpt lat="43.229785" lon="11.4585817"><ele>204.0</ele><time>2026-04-18T16:48:43.769Z</time></trkpt><trkpt lat="43.229885" lon="11.4584317"><ele>203.0</ele><time>2026-04-18T16:48:44.768Z</time></trkpt><trkpt lat="43.229945" lon="11.45827"><ele>202.0</ele><time>2026-04-18T16:48:45.771Z</time></trkpt><trkpt lat="43.2299517" lon="11.4580917"><ele>201.0</ele><time>2026-04-18T16:48:46.766Z</time></trkpt><trkpt lat="43.2299017" lon="11.4579033"><ele>208.33333333333331</ele><time>2026-04-18T16:48:47.772Z</time></trkpt><trkpt lat="43.2297983" lon="11.4577167"><ele>215.66666666666666</ele><time>2026-04-18T16:48:48.771Z</time></trkpt><trkpt lat="43.2296683" lon="11.4575233"><ele>223.0</ele><time>2026-04-18T16:48:49.77Z</time></trkpt><trkpt lat="43.2295417" lon="11.4573017"><ele>222.66666666666666</ele><time>2026-04-18T16:48:50.773Z</time></trkpt><trkpt lat="43.2294467" lon="11.4570517"><ele>222.33333333333331</ele><time>2026-04-18T16:48:51.769Z</time></trkpt><trkpt lat="43.22939" lon="11.4567817"><ele>222.0</ele><time>2026-04-18T16:48:52.77Z</time></trkpt><trkpt lat="43.2293917" lon="11.4565"><ele>218.5</ele><time>2026-04-18T16:48:53.771Z</time></trkpt><trkpt lat="43.229425" lon="11.4562"><ele>215.0</ele><time>2026-04-18T16:48:54.772Z</time></trkpt><trkpt lat="43.229475" lon="11.4558633"><ele>215.0</ele><time>2026-04-18T16:48:55.771Z</time></trkpt><trkpt lat="43.229525" lon="11.4555117"><ele>215.0</ele><time>2026-04-18T16:48:56.773Z</time></trkpt><trkpt lat="43.2295717" lon="11.4551433"><ele>210.5</ele><time>2026-04-18T16:48:57.772Z</time></trkpt><trkpt lat="43.22962" lon="11.45477"><ele>206.0</ele><time>2026-04-18T16:48:58.771Z</time></trkpt><trkpt lat="43.2296617" lon="11.4544017"><ele>202.5</ele><time>2026-04-18T16:48:59.772Z</time></trkpt><trkpt lat="43.229695" lon="11.4540533"><ele>199.0</ele><time>2026-04-18T16:49:00.774Z</time></trkpt><trkpt lat="43.229735" lon="11.4537217"><ele>196.0</ele><time>2026-04-18T16:49:01.771Z</time></trkpt><trkpt lat="43.22978" lon="11.453395"><ele>193.0</ele><time>2026-04-18T16:49:02.775Z</time></trkpt><trkpt lat="43.2298033" lon="11.453065"><ele>190.5</ele><time>2026-04-18T16:49:03.772Z</time></trkpt><trkpt lat="43.2298033" lon="11.4527317"><ele>188.0</ele><time>2026-04-18T16:49:04.771Z</time></trkpt><trkpt lat="43.2297817" lon="11.452385"><ele>185.0</ele><time>2026-04-18T16:49:05.771Z</time></trkpt><trkpt lat="43.2297417" lon="11.4520383"><ele>182.0</ele><time>2026-04-18T16:49:06.771Z</time></trkpt><trkpt lat="43.2296967" lon="11.45169"><ele>182.0</ele><time>2026-04-18T16:49:07.772Z</time></trkpt><trkpt lat="43.2296517" lon="11.4513417"><ele>182.0</ele><time>2026-04-18T16:49:08.776Z</time></trkpt><trkpt lat="43.2296017" lon="11.450995"><ele>181.0</ele><time>2026-04-18T16:49:09.772Z</time></trkpt><trkpt lat="43.229545" lon="11.4506567"><ele>180.0</ele><time>2026-04-18T16:49:10.77Z</time></trkpt><trkpt lat="43.2294817" lon="11.4503167"><ele>180.0</ele><time>2026-04-18T16:49:11.773Z</time></trkpt><trkpt lat="43.2294033" lon="11.449985"><ele>180.0</ele><time>2026-04-18T16:49:12.772Z</time></trkpt><trkpt lat="43.2293117" lon="11.4496683"><ele>183.0</ele><time>2026-04-18T16:49:13.773Z</time></trkpt><trkpt lat="43.2292067" lon="11.4493667"><ele>186.0</ele><time>2026-04-18T16:49:14.77Z</time></trkpt><trkpt lat="43.2290867" lon="11.449075"><ele>179.5</ele><time>2026-04-18T16:49:15.767Z</time></trkpt><trkpt lat="43.22895" lon="11.4487967"><ele>173.0</ele><time>2026-04-18T16:49:16.768Z</time></trkpt><trkpt lat="43.2287983" lon="11.4485217"><ele>173.0</ele><time>2026-04-18T16:49:17.772Z</time></trkpt><trkpt lat="43.22864" lon="11.4482467"><ele>173.0</ele><time>2026-04-18T16:49:18.769Z</time></trkpt><trkpt lat="43.2284783" lon="11.44797"><ele>175.0</ele><time>2026-04-18T16:49:19.77Z</time></trkpt><trkpt lat="43.2283217" lon="11.4476983"><ele>177.0</ele><time>2026-04-18T16:49:20.774Z</time></trkpt><trkpt lat="43.2281767" lon="11.44744"><ele>173.33333333333334</ele><time>2026-04-18T16:49:21.771Z</time></trkpt><trkpt lat="43.22804" lon="11.447195"><ele>169.66666666666669</ele><time>2026-04-18T16:49:22.77Z</time></trkpt><trkpt lat="43.2279083" lon="11.44696"><ele>166.0</ele><time>2026-04-18T16:49:23.771Z</time></trkpt><trkpt lat="43.2277867" lon="11.4467483"><ele>166.0</ele><time>2026-04-18T16:49:24.771Z</time></trkpt><trkpt lat="43.227665" lon="11.4465633"><ele>166.0</ele><time>2026-04-18T16:49:25.77Z</time></trkpt><trkpt lat="43.2275317" lon="11.4463967"><ele>166.0</ele><time>2026-04-18T16:49:26.775Z</time></trkpt><trkpt lat="43.2273717" lon="11.446265"><ele>165.0</ele><time>2026-04-18T16:49:27.772Z</time></trkpt><trkpt lat="43.2271833" lon="11.4461733"><ele>164.0</ele><time>2026-04-18T16:49:28.765Z</time></trkpt><trkpt lat="43.2269667" lon="11.4461217"><ele>163.0</ele><time>2026-04-18T16:49:29.77Z</time></trkpt><trkpt lat="43.2267367" lon="11.4460817"><ele>163.0</ele><time>2026-04-18T16:49:30.772Z</time></trkpt><trkpt lat="43.22649" lon="11.4460517"><ele>163.0</ele><time>2026-04-18T16:49:31.77Z</time></trkpt><trkpt lat="43.22624" lon="11.4460267"><ele>164.5</ele><time>2026-04-18T16:49:32.772Z</time></trkpt><trkpt lat="43.22599" lon="11.4459983"><ele>166.0</ele><time>2026-04-18T16:49:33.772Z</time></trkpt><trkpt lat="43.2257433" lon="11.4459717"><ele>167.5</ele><time>2026-04-18T16:49:34.769Z</time></trkpt><trkpt lat="43.2254933" lon="11.4459383"><ele>169.0</ele><time>2026-04-18T16:49:35.771Z</time></trkpt><trkpt lat="43.225245" lon="11.445905"><ele>169.0</ele><time>2026-04-18T16:49:36.773Z</time></trkpt><trkpt lat="43.2250033" lon="11.4458717"><ele>169.0</ele><time>2026-04-18T16:49:37.769Z</time></trkpt><trkpt lat="43.22476" lon="11.44583"><ele>170.0</ele><time>2026-04-18T16:49:38.771Z</time></trkpt><trkpt lat="43.2245133" lon="11.445775"><ele>171.0</ele><time>2026-04-18T16:49:39.771Z</time></trkpt><trkpt lat="43.224265" lon="11.4457133"><ele>171.0</ele><time>2026-04-18T16:49:40.77Z</time></trkpt><trkpt lat="43.2240167" lon="11.445645"><ele>171.0</ele><time>2026-04-18T16:49:41.772Z</time></trkpt><trkpt lat="43.22377" lon="11.4455717"><ele>172.0</ele><time>2026-04-18T16:49:42.774Z</time></trkpt><trkpt lat="43.2235233" lon="11.44549"><ele>173.0</ele><time>2026-04-18T16:49:43.772Z</time></trkpt><trkpt lat="43.2232833" lon="11.4454017"><ele>169.5</ele><time>2026-04-18T16:49:44.773Z</time></trkpt><trkpt lat="43.22305" lon="11.4453067"><ele>166.0</ele><time>2026-04-18T16:49:45.771Z</time></trkpt><trkpt lat="43.2228217" lon="11.4452067"><ele>166.0</ele><time>2026-04-18T16:49:46.765Z</time></trkpt><trkpt lat="43.2226067" lon="11.44512"><ele>166.0</ele><time>2026-04-18T16:49:47.77Z</time></trkpt><trkpt lat="43.22241" lon="11.4450367"><ele>166.0</ele><time>2026-04-18T16:49:48.769Z</time></trkpt><trkpt lat="43.22224" lon="11.4449417"><ele>165.66666666666669</ele><time>2026-04-18T16:49:49.769Z</time></trkpt><trkpt lat="43.22209" lon="11.4448217"><ele>165.33333333333334</ele><time>2026-04-18T16:49:50.773Z</time></trkpt><trkpt lat="43.221975" lon="11.4446583"><ele>165.0</ele><time>2026-04-18T16:49:51.769Z</time></trkpt><trkpt lat="43.2219117" lon="11.4444467"><ele>164.0</ele><time>2026-04-18T16:49:52.77Z</time></trkpt><trkpt lat="43.2219" lon="11.4441867"><ele>163.0</ele><time>2026-04-18T16:49:53.77Z</time></trkpt><trkpt lat="43.2219083" lon="11.44391"><ele>162.0</ele><time>2026-04-18T16:49:54.771Z</time></trkpt><trkpt lat="43.2219383" lon="11.4436"><ele>161.0</ele><time>2026-04-18T16:49:55.771Z</time></trkpt><trkpt lat="43.22197" lon="11.4432817"><ele>160.0</ele><time>2026-04-18T16:49:56.775Z</time></trkpt><trkpt lat="43.222025" lon="11.4429633"><ele>159.5</ele><time>2026-04-18T16:49:57.772Z</time></trkpt><trkpt lat="43.2221017" lon="11.4426483"><ele>159.0</ele><time>2026-04-18T16:49:58.77Z</time></trkpt><trkpt lat="43.22221" lon="11.4423367"><ele>159.5</ele><time>2026-04-18T16:49:59.765Z</time></trkpt><trkpt lat="43.222335" lon="11.4420267"><ele>160.0</ele><time>2026-04-18T16:50:00.774Z</time></trkpt><trkpt lat="43.222475" lon="11.4417117"><ele>160.0</ele><time>2026-04-18T16:50:01.769Z</time></trkpt><trkpt lat="43.222615" lon="11.4413917"><ele>160.0</ele><time>2026-04-18T16:50:02.773Z</time></trkpt><trkpt lat="43.2227567" lon="11.44107"><ele>160.0</ele><time>2026-04-18T16:50:03.768Z</time></trkpt><trkpt lat="43.2229017" lon="11.4407433"><ele>160.0</ele><time>2026-04-18T16:50:04.77Z</time></trkpt><trkpt lat="43.2230483" lon="11.4404133"><ele>159.5</ele><time>2026-04-18T16:50:05.765Z</time></trkpt><trkpt lat="43.2231967" lon="11.44008"><ele>159.0</ele><time>2026-04-18T16:50:06.775Z</time></trkpt><trkpt lat="43.2233433" lon="11.4397433"><ele>159.5</ele><time>2026-04-18T16:50:07.771Z</time></trkpt><trkpt lat="43.22349" lon="11.4394017"><ele>160.0</ele><time>2026-04-18T16:50:08.771Z</time></trkpt><trkpt lat="43.2236383" lon="11.4390617"><ele>160.0</ele><time>2026-04-18T16:50:09.772Z</time></trkpt><trkpt lat="43.2237817" lon="11.4387217"><ele>160.0</ele><time>2026-04-18T16:50:10.77Z</time></trkpt><trkpt lat="43.2239267" lon="11.4383783"><ele>161.0</ele><time>2026-04-18T16:50:11.766Z</time></trkpt><trkpt lat="43.2240683" lon="11.4380367"><ele>162.0</ele><time>2026-04-18T16:50:12.771Z</time></trkpt><trkpt lat="43.2242117" lon="11.4376983"><ele>162.0</ele><time>2026-04-18T16:50:13.771Z</time></trkpt><trkpt lat="43.2243567" lon="11.43736"><ele>162.0</ele><time>2026-04-18T16:50:14.77Z</time></trkpt><trkpt lat="43.2245" lon="11.4370217"><ele>161.0</ele><time>2026-04-18T16:50:15.77Z</time></trkpt><trkpt lat="43.2246433" lon="11.4366817"><ele>160.0</ele><time>2026-04-18T16:50:16.769Z</time></trkpt><trkpt lat="43.224785" lon="11.4363433"><ele>161.0</ele><time>2026-04-18T16:50:17.77Z</time></trkpt><trkpt lat="43.2249267" lon="11.4360033"><ele>162.0</ele><time>2026-04-18T16:50:18.77Z</time></trkpt><trkpt lat="43.2250667" lon="11.435665"><ele>161.5</ele><time>2026-04-18T16:50:19.769Z</time></trkpt><trkpt lat="43.22521" lon="11.4353217"><ele>161.0</ele><time>2026-04-18T16:50:20.771Z</time></trkpt><trkpt lat="43.2253583" lon="11.4349767"><ele>161.0</ele><time>2026-04-18T16:50:21.771Z</time></trkpt><trkpt lat="43.2255067" lon="11.4346333"><ele>161.0</ele><time>2026-04-18T16:50:22.77Z</time></trkpt><trkpt lat="43.225655" lon="11.4342883"><ele>161.0</ele><time>2026-04-18T16:50:23.769Z</time></trkpt><trkpt lat="43.2258" lon="11.4339467"><ele>161.0</ele><time>2026-04-18T16:50:24.771Z</time></trkpt><trkpt lat="43.225945" lon="11.4336133"><ele>161.0</ele><time>2026-04-18T16:50:25.77Z</time></trkpt><trkpt lat="43.226085" lon="11.433285"><ele>161.0</ele><time>2026-04-18T16:50:26.773Z</time></trkpt><trkpt lat="43.226225" lon="11.43296"><ele>161.0</ele><time>2026-04-18T16:50:27.771Z</time></trkpt><trkpt lat="43.2263683" lon="11.4326383"><ele>161.0</ele><time>2026-04-18T16:50:28.769Z</time></trkpt><trkpt lat="43.2265167" lon="11.4323267"><ele>161.5</ele><time>2026-04-18T16:50:29.769Z</time></trkpt><trkpt lat="43.2266733" lon="11.4320233"><ele>162.0</ele><time>2026-04-18T16:50:30.771Z</time></trkpt><trkpt lat="43.2268483" lon="11.431735"><ele>162.0</ele><time>2026-04-18T16:50:31.767Z</time></trkpt><trkpt lat="43.2270233" lon="11.431445"><ele>162.0</ele><time>2026-04-18T16:50:32.772Z</time></trkpt><trkpt lat="43.2272033" lon="11.431155"><ele>162.0</ele><time>2026-04-18T16:50:33.773Z</time></trkpt><trkpt lat="43.2273883" lon="11.4308567"><ele>162.0</ele><time>2026-04-18T16:50:34.769Z</time></trkpt><trkpt lat="43.2275733" lon="11.430555"><ele>161.0</ele><time>2026-04-18T16:50:35.771Z</time></trkpt><trkpt lat="43.2277517" lon="11.4302567"><ele>160.0</ele><time>2026-04-18T16:50:36.775Z</time></trkpt><trkpt lat="43.2279283" lon="11.4299583"><ele>160.0</ele><time>2026-04-18T16:50:37.77Z</time></trkpt><trkpt lat="43.228105" lon="11.4296683"><ele>160.0</ele><time>2026-04-18T16:50:38.77Z</time></trkpt><trkpt lat="43.2282783" lon="11.42941"><ele>160.5</ele><time>2026-04-18T16:50:39.762Z</time></trkpt><trkpt lat="43.2284633" lon="11.4291967"><ele>161.0</ele><time>2026-04-18T16:50:40.757Z</time></trkpt><trkpt lat="43.22866" lon="11.429015"><ele>161.0</ele><time>2026-04-18T16:50:41.769Z</time></trkpt><trkpt lat="43.2288367" lon="11.428855"><ele>161.0</ele><time>2026-04-18T16:50:42.772Z</time></trkpt><trkpt lat="43.228995" lon="11.428695"><ele>161.0</ele><time>2026-04-18T16:50:43.77Z</time></trkpt><trkpt lat="43.22911" lon="11.428525"><ele>161.33333333333331</ele><time>2026-04-18T16:50:44.774Z</time></trkpt><trkpt lat="43.2291733" lon="11.4283317"><ele>161.66666666666666</ele><time>2026-04-18T16:50:45.77Z</time></trkpt><trkpt lat="43.2292" lon="11.4281117"><ele>162.0</ele><time>2026-04-18T16:50:46.77Z</time></trkpt><trkpt lat="43.2291917" lon="11.427865"><ele>162.0</ele><time>2026-04-18T16:50:47.771Z</time></trkpt><trkpt lat="43.2291617" lon="11.4276033"><ele>162.0</ele><time>2026-04-18T16:50:48.774Z</time></trkpt><trkpt lat="43.229125" lon="11.4273317"><ele>162.0</ele><time>2026-04-18T16:50:49.769Z</time></trkpt><trkpt lat="43.2290867" lon="11.42705"><ele>161.66666666666666</ele><time>2026-04-18T16:50:50.773Z</time></trkpt><trkpt lat="43.2290467" lon="11.4267833"><ele>161.33333333333331</ele><time>2026-04-18T16:50:51.771Z</time></trkpt><trkpt lat="43.229015" lon="11.426525"><ele>161.0</ele><time>2026-04-18T16:50:52.772Z</time></trkpt><trkpt lat="43.2289783" lon="11.4262717"><ele>161.33333333333331</ele><time>2026-04-18T16:50:53.771Z</time></trkpt><trkpt lat="43.2289417" lon="11.426035"><ele>161.66666666666666</ele><time>2026-04-18T16:50:54.77Z</time></trkpt><trkpt lat="43.2289133" lon="11.425815"><ele>162.0</ele><time>2026-04-18T16:50:55.772Z</time></trkpt><trkpt lat="43.2288833" lon="11.4256183"><ele>162.0</ele><time>2026-04-18T16:50:56.77Z</time></trkpt><trkpt lat="43.22886" lon="11.425415"><ele>162.0</ele><time>2026-04-18T16:50:57.772Z</time></trkpt><trkpt lat="43.2288433" lon="11.4252283"><ele>162.0</ele><time>2026-04-18T16:50:58.769Z</time></trkpt><trkpt lat="43.228825" lon="11.4250433"><ele>162.0</ele><time>2026-04-18T16:50:59.769Z</time></trkpt><trkpt lat="43.22881" lon="11.42486"><ele>162.0</ele><time>2026-04-18T16:51:00.772Z</time></trkpt><trkpt lat="43.2287933" lon="11.4246883"><ele>162.0</ele><time>2026-04-18T16:51:01.772Z</time></trkpt><trkpt lat="43.2287767" lon="11.42453"><ele>162.0</ele><time>2026-04-18T16:51:02.772Z</time></trkpt><trkpt lat="43.2287633" lon="11.4243867"><ele>162.0</ele><time>2026-04-18T16:51:03.769Z</time></trkpt><trkpt lat="43.2287467" lon="11.424255"><ele>162.0</ele><time>2026-04-18T16:51:04.768Z</time></trkpt><trkpt lat="43.228735" lon="11.4241317"><ele>162.16666666666666</ele><time>2026-04-18T16:51:05.769Z</time></trkpt><trkpt lat="43.2287283" lon="11.4240167"><ele>162.33333333333334</ele><time>2026-04-18T16:51:06.768Z</time></trkpt><trkpt lat="43.22872" lon="11.4239117"><ele>162.5</ele><time>2026-04-18T16:51:07.765Z</time></trkpt><trkpt lat="43.2287117" lon="11.423815"><ele>162.66666666666669</ele><time>2026-04-18T16:51:08.77Z</time></trkpt><trkpt lat="43.228705" lon="11.4236667"><ele>162.83333333333334</ele><time>2026-04-18T16:51:10.773Z</time></trkpt><trkpt lat="43.2287083" lon="11.42358"><ele>163.0</ele><time>2026-04-18T16:51:12.769Z</time></trkpt><trkpt lat="43.228695" lon="11.423495"><ele>163.2</ele><time>2026-04-18T16:52:18.763Z</time></trkpt><trkpt lat="43.2286267" lon="11.4234383"><ele>163.4</ele><time>2026-04-18T16:52:22.768Z</time></trkpt><trkpt lat="43.228545" lon="11.4234217"><ele>163.6</ele><time>2026-04-18T16:52:24.769Z</time></trkpt><trkpt lat="43.2284133" lon="11.4234633"><ele>163.79999999999998</ele><time>2026-04-18T16:52:26.771Z</time></trkpt><trkpt lat="43.22833" lon="11.4234867"><ele>164.0</ele><time>2026-04-18T16:52:27.77Z</time></trkpt><trkpt lat="43.2282317" lon="11.4235133"><ele>164.0</ele><time>2026-04-18T16:52:28.769Z</time></trkpt><trkpt lat="43.2281317" lon="11.42354"><ele>164.0</ele><time>2026-04-18T16:52:29.77Z</time></trkpt><trkpt lat="43.2280233" lon="11.423565"><ele>164.0</ele><time>2026-04-18T16:52:30.775Z</time></trkpt><trkpt lat="43.2279117" lon="11.4235767"><ele>164.0</ele><time>2026-04-18T16:52:31.772Z</time></trkpt><trkpt lat="43.2278" lon="11.4235867"><ele>164.0</ele><time>2026-04-18T16:52:32.773Z</time></trkpt><trkpt lat="43.22769" lon="11.4235983"><ele>164.0</ele><time>2026-04-18T16:52:33.772Z</time></trkpt><trkpt lat="43.2275733" lon="11.4236083"><ele>164.0</ele><time>2026-04-18T16:52:34.772Z</time></trkpt><trkpt lat="43.2274567" lon="11.4236133"><ele>164.0</ele><time>2026-04-18T16:52:35.768Z</time></trkpt><trkpt lat="43.2273433" lon="11.4236133"><ele>164.0</ele><time>2026-04-18T16:52:36.772Z</time></trkpt><trkpt lat="43.22723" lon="11.423615"><ele>164.2</ele><time>2026-04-18T16:52:37.77Z</time></trkpt><trkpt lat="43.2271167" lon="11.423615"><ele>164.39999999999998</ele><time>2026-04-18T16:52:38.773Z</time></trkpt><trkpt lat="43.2270033" lon="11.4236133"><ele>164.6</ele><time>2026-04-18T16:52:39.77Z</time></trkpt><trkpt lat="43.2268933" lon="11.4236133"><ele>164.8</ele><time>2026-04-18T16:52:40.77Z</time></trkpt><trkpt lat="43.2267833" lon="11.423615"><ele>165.0</ele><time>2026-04-18T16:52:41.771Z</time></trkpt><trkpt lat="43.2266733" lon="11.4236233"><ele>165.0</ele><time>2026-04-18T16:52:42.771Z</time></trkpt><trkpt lat="43.22656" lon="11.4236333"><ele>165.0</ele><time>2026-04-18T16:52:43.772Z</time></trkpt><trkpt lat="43.2264483" lon="11.423655"><ele>165.0</ele><time>2026-04-18T16:52:44.77Z</time></trkpt><trkpt lat="43.22634" lon="11.42369"><ele>165.0</ele><time>2026-04-18T16:52:45.772Z</time></trkpt><trkpt lat="43.2262333" lon="11.423735"><ele>165.0</ele><time>2026-04-18T16:52:46.769Z</time></trkpt><trkpt lat="43.22613" lon="11.4237917"><ele>164.25</ele><time>2026-04-18T16:52:47.769Z</time></trkpt><trkpt lat="43.22603" lon="11.4238633"><ele>163.5</ele><time>2026-04-18T16:52:48.771Z</time></trkpt><trkpt lat="43.2259267" lon="11.42394"><ele>162.75</ele><time>2026-04-18T16:52:49.77Z</time></trkpt><trkpt lat="43.225825" lon="11.4240167"><ele>162.0</ele><time>2026-04-18T16:52:50.773Z</time></trkpt><trkpt lat="43.22573" lon="11.424085"><ele>162.0</ele><time>2026-04-18T16:52:51.771Z</time></trkpt><trkpt lat="43.225645" lon="11.4241467"><ele>162.0</ele><time>2026-04-18T16:52:52.769Z</time></trkpt><trkpt lat="43.2255683" lon="11.4242067"><ele>162.0</ele><time>2026-04-18T16:52:53.77Z</time></trkpt><trkpt lat="43.2255017" lon="11.4242617"><ele>162.0</ele><time>2026-04-18T16:52:54.772Z</time></trkpt><trkpt lat="43.2254433" lon="11.424295"><ele>162.0</ele><time>2026-04-18T16:52:55.767Z</time></trkpt><trkpt lat="43.2253417" lon="11.4242733"><ele>162.0</ele><time>2026-04-18T16:52:57.771Z</time></trkpt><trkpt lat="43.2252867" lon="11.42421"><ele>162.0</ele><time>2026-04-18T16:52:58.768Z</time></trkpt><trkpt lat="43.2252317" lon="11.4240933"><ele>162.0</ele><time>2026-04-18T16:52:59.772Z</time></trkpt><trkpt lat="43.2251867" lon="11.4239433"><ele>162.0</ele><time>2026-04-18T16:53:00.775Z</time></trkpt><trkpt lat="43.2251367" lon="11.4237717"><ele>162.0</ele><time>2026-04-18T16:53:01.768Z</time></trkpt><trkpt lat="43.2250833" lon="11.4236017"><ele>162.0</ele><time>2026-04-18T16:53:02.772Z</time></trkpt><trkpt lat="43.2250133" lon="11.4234283"><ele>162.0</ele><time>2026-04-18T16:53:03.767Z</time></trkpt><trkpt lat="43.224935" lon="11.423255"><ele>162.0</ele><time>2026-04-18T16:53:04.769Z</time></trkpt><trkpt lat="43.2248533" lon="11.4230733"><ele>162.0</ele><time>2026-04-18T16:53:05.769Z</time></trkpt><trkpt lat="43.2247733" lon="11.422895"><ele>161.5</ele><time>2026-04-18T16:53:06.771Z</time></trkpt><trkpt lat="43.2247" lon="11.4227217"><ele>161.0</ele><time>2026-04-18T16:53:07.769Z</time></trkpt><trkpt lat="43.224625" lon="11.4225533"><ele>160.5</ele><time>2026-04-18T16:53:08.773Z</time></trkpt><trkpt lat="43.2245567" lon="11.4223817"><ele>160.0</ele><time>2026-04-18T16:53:09.771Z</time></trkpt><trkpt lat="43.2244917" lon="11.4222217"><ele>160.25</ele><time>2026-04-18T16:53:10.771Z</time></trkpt><trkpt lat="43.2244183" lon="11.422065"><ele>160.5</ele><time>2026-04-18T16:53:11.77Z</time></trkpt><trkpt lat="43.22434" lon="11.4219267"><ele>160.75</ele><time>2026-04-18T16:53:12.771Z</time></trkpt><trkpt lat="43.22426" lon="11.4217967"><ele>161.0</ele><time>2026-04-18T16:53:13.772Z</time></trkpt><trkpt lat="43.2241883" lon="11.42168"><ele>161.0</ele><time>2026-04-18T16:53:14.775Z</time></trkpt><trkpt lat="43.22413" lon="11.4215617"><ele>161.0</ele><time>2026-04-18T16:53:15.771Z</time></trkpt><trkpt lat="43.2240917" lon="11.4214317"><ele>161.0</ele><time>2026-04-18T16:53:16.77Z</time></trkpt><trkpt lat="43.2240633" lon="11.421305"><ele>161.0</ele><time>2026-04-18T16:53:17.771Z</time></trkpt><trkpt lat="43.22403" lon="11.4211767"><ele>161.0</ele><time>2026-04-18T16:53:18.772Z</time></trkpt><trkpt lat="43.2239917" lon="11.421045"><ele>161.60000000000002</ele><time>2026-04-18T16:53:19.77Z</time></trkpt><trkpt lat="43.2239617" lon="11.4209033"><ele>162.2</ele><time>2026-04-18T16:53:20.772Z</time></trkpt><trkpt lat="43.2239517" lon="11.420755"><ele>162.8</ele><time>2026-04-18T16:53:21.766Z</time></trkpt><trkpt lat="43.2239717" lon="11.4206083"><ele>163.39999999999998</ele><time>2026-04-18T16:53:22.77Z</time></trkpt><trkpt lat="43.224" lon="11.4204683"><ele>164.0</ele><time>2026-04-18T16:53:23.769Z</time></trkpt><trkpt lat="43.22404" lon="11.4203283"><ele>164.0</ele><time>2026-04-18T16:53:24.775Z</time></trkpt><trkpt lat="43.224085" lon="11.4201933"><ele>164.0</ele><time>2026-04-18T16:53:25.77Z</time></trkpt><trkpt lat="43.224135" lon="11.4200567"><ele>164.0</ele><time>2026-04-18T16:53:26.774Z</time></trkpt><trkpt lat="43.2241867" lon="11.4199183"><ele>164.0</ele><time>2026-04-18T16:53:27.77Z</time></trkpt><trkpt lat="43.2242383" lon="11.4197817"><ele>164.0</ele><time>2026-04-18T16:53:28.769Z</time></trkpt><trkpt lat="43.2242867" lon="11.4196433"><ele>164.0</ele><time>2026-04-18T16:53:29.769Z</time></trkpt><trkpt lat="43.224335" lon="11.4195067"><ele>164.0</ele><time>2026-04-18T16:53:30.77Z</time></trkpt><trkpt lat="43.2243767" lon="11.4193683"><ele>164.0</ele><time>2026-04-18T16:53:31.771Z</time></trkpt><trkpt lat="43.2244167" lon="11.4192317"><ele>164.0</ele><time>2026-04-18T16:53:32.774Z</time></trkpt><trkpt lat="43.22446" lon="11.4190967"><ele>164.0</ele><time>2026-04-18T16:53:33.772Z</time></trkpt><trkpt lat="43.2245017" lon="11.4189633"><ele>164.0</ele><time>2026-04-18T16:53:34.767Z</time></trkpt><trkpt lat="43.2245433" lon="11.418825"><ele>164.0</ele><time>2026-04-18T16:53:35.755Z</time></trkpt><trkpt lat="43.224585" lon="11.41869"><ele>164.0</ele><time>2026-04-18T16:53:36.775Z</time></trkpt><trkpt lat="43.2246283" lon="11.4185567"><ele>164.0</ele><time>2026-04-18T16:53:37.769Z</time></trkpt><trkpt lat="43.2246667" lon="11.4184233"><ele>164.0</ele><time>2026-04-18T16:53:38.773Z</time></trkpt><trkpt lat="43.2247033" lon="11.41831"><ele>164.33333333333331</ele><time>2026-04-18T16:53:39.77Z</time></trkpt><trkpt lat="43.2247417" lon="11.4182167"><ele>164.66666666666666</ele><time>2026-04-18T16:53:40.77Z</time></trkpt><trkpt lat="43.2247917" lon="11.4181367"><ele>165.0</ele><time>2026-04-18T16:53:41.771Z</time></trkpt><trkpt lat="43.2248583" lon="11.4180767"><ele>165.33333333333334</ele><time>2026-04-18T16:53:42.772Z</time></trkpt><trkpt lat="43.2249283" lon="11.418025"><ele>165.66666666666669</ele><time>2026-04-18T16:53:43.77Z</time></trkpt><trkpt lat="43.2250067" lon="11.41798"><ele>166.0</ele><time>2026-04-18T16:53:44.774Z</time></trkpt><trkpt lat="43.2250817" lon="11.4179367"><ele>167.33333333333334</ele><time>2026-04-18T16:53:45.771Z</time></trkpt><trkpt lat="43.2251567" lon="11.4178967"><ele>168.66666666666669</ele><time>2026-04-18T16:53:46.774Z</time></trkpt><trkpt lat="43.225235" lon="11.4178533"><ele>170.0</ele><time>2026-04-18T16:53:47.77Z</time></trkpt><trkpt lat="43.2253183" lon="11.4178067"><ele>171.33333333333334</ele><time>2026-04-18T16:53:48.774Z</time></trkpt><trkpt lat="43.2254017" lon="11.41776"><ele>172.66666666666666</ele><time>2026-04-18T16:53:49.771Z</time></trkpt><trkpt lat="43.2254883" lon="11.41771"><ele>174.0</ele><time>2026-04-18T16:53:50.772Z</time></trkpt><trkpt lat="43.225575" lon="11.417655"><ele>172.6</ele><time>2026-04-18T16:53:51.768Z</time></trkpt><trkpt lat="43.22566" lon="11.4176"><ele>171.2</ele><time>2026-04-18T16:53:52.77Z</time></trkpt><trkpt lat="43.2257433" lon="11.4175483"><ele>169.79999999999998</ele><time>2026-04-18T16:53:53.77Z</time></trkpt><trkpt lat="43.22583" lon="11.4174983"><ele>168.39999999999998</ele><time>2026-04-18T16:53:54.771Z</time></trkpt><trkpt lat="43.2259183" lon="11.417445"><ele>167.0</ele><time>2026-04-18T16:53:55.771Z</time></trkpt><trkpt lat="43.22601" lon="11.41739"><ele>167.0</ele><time>2026-04-18T16:53:56.773Z</time></trkpt><trkpt lat="43.2260983" lon="11.4173367"><ele>167.0</ele><time>2026-04-18T16:53:57.772Z</time></trkpt><trkpt lat="43.2261917" lon="11.41728"><ele>167.0</ele><time>2026-04-18T16:53:58.77Z</time></trkpt><trkpt lat="43.226285" lon="11.41722"><ele>167.0</ele><time>2026-04-18T16:53:59.771Z</time></trkpt><trkpt lat="43.2263767" lon="11.4171533"><ele>167.0</ele><time>2026-04-18T16:54:00.768Z</time></trkpt><trkpt lat="43.226465" lon="11.41708"><ele>166.8</ele><time>2026-04-18T16:54:01.77Z</time></trkpt><trkpt lat="43.226555" lon="11.41701"><ele>166.6</ele><time>2026-04-18T16:54:02.772Z</time></trkpt><trkpt lat="43.2266433" lon="11.4169417"><ele>166.4</ele><time>2026-04-18T16:54:03.77Z</time></trkpt><trkpt lat="43.2267333" lon="11.4168733"><ele>166.20000000000002</ele><time>2026-04-18T16:54:04.768Z</time></trkpt><trkpt lat="43.2268183" lon="11.4168083"><ele>166.0</ele><time>2026-04-18T16:54:05.771Z</time></trkpt><trkpt lat="43.226905" lon="11.4167533"><ele>166.0</ele><time>2026-04-18T16:54:06.773Z</time></trkpt><trkpt lat="43.2269883" lon="11.4166983"><ele>166.0</ele><time>2026-04-18T16:54:07.77Z</time></trkpt><trkpt lat="43.2270717" lon="11.4166433"><ele>166.0</ele><time>2026-04-18T16:54:08.773Z</time></trkpt><trkpt lat="43.2271533" lon="11.4165883"><ele>166.0</ele><time>2026-04-18T16:54:09.771Z</time></trkpt><trkpt lat="43.22724" lon="11.4165317"><ele>166.0</ele><time>2026-04-18T16:54:10.767Z</time></trkpt><trkpt lat="43.2273283" lon="11.4164733"><ele>166.0</ele><time>2026-04-18T16:54:11.77Z</time></trkpt><trkpt lat="43.22742" lon="11.416415"><ele>166.0</ele><time>2026-04-18T16:54:12.774Z</time></trkpt><trkpt lat="43.2275117" lon="11.4163617"><ele>166.0</ele><time>2026-04-18T16:54:13.771Z</time></trkpt><trkpt lat="43.2275917" lon="11.416315"><ele>166.0</ele><time>2026-04-18T16:54:14.772Z</time></trkpt><trkpt lat="43.227665" lon="11.416285"><ele>166.0</ele><time>2026-04-18T16:54:15.769Z</time></trkpt><trkpt lat="43.2277283" lon="11.4162617"><ele>166.0</ele><time>2026-04-18T16:54:16.769Z</time></trkpt><trkpt lat="43.227835" lon="11.41622"><ele>166.16666666666669</ele><time>2026-04-18T16:54:18.772Z</time></trkpt><trkpt lat="43.2278817" lon="11.4161467"><ele>166.33333333333334</ele><time>2026-04-18T16:54:20.77Z</time></trkpt><trkpt lat="43.2278717" lon="11.4160317"><ele>166.5</ele><time>2026-04-18T16:54:22.767Z</time></trkpt><trkpt lat="43.2278433" lon="11.4159467"><ele>166.66666666666666</ele><time>2026-04-18T16:54:23.77Z</time></trkpt><trkpt lat="43.2278133" lon="11.4158483"><ele>166.83333333333331</ele><time>2026-04-18T16:54:24.77Z</time></trkpt><trkpt lat="43.2277867" lon="11.41574"><ele>167.0</ele><time>2026-04-18T16:54:25.769Z</time></trkpt><trkpt lat="43.22775" lon="11.41563"><ele>167.0</ele><time>2026-04-18T16:54:26.772Z</time></trkpt><trkpt lat="43.22771" lon="11.4155183"><ele>167.0</ele><time>2026-04-18T16:54:27.771Z</time></trkpt><trkpt lat="43.227665" lon="11.415405"><ele>167.0</ele><time>2026-04-18T16:54:28.771Z</time></trkpt><trkpt lat="43.2276083" lon="11.415305"><ele>167.0</ele><time>2026-04-18T16:54:29.764Z</time></trkpt><trkpt lat="43.2275383" lon="11.4152067"><ele>167.0</ele><time>2026-04-18T16:54:30.771Z</time></trkpt><trkpt lat="43.2274567" lon="11.4151267"><ele>167.2</ele><time>2026-04-18T16:54:31.769Z</time></trkpt><trkpt lat="43.22738" lon="11.4150483"><ele>167.39999999999998</ele><time>2026-04-18T16:54:32.77Z</time></trkpt><trkpt lat="43.2273067" lon="11.4149717"><ele>167.60000000000002</ele><time>2026-04-18T16:54:33.768Z</time></trkpt><trkpt lat="43.2272417" lon="11.4148867"><ele>167.8</ele><time>2026-04-18T16:54:34.765Z</time></trkpt><trkpt lat="43.2271883" lon="11.4148083"><ele>168.0</ele><time>2026-04-18T16:54:35.772Z</time></trkpt><trkpt lat="43.227135" lon="11.4146983"><ele>168.60000000000002</ele><time>2026-04-18T16:54:36.771Z</time></trkpt><trkpt lat="43.22709" lon="11.414585"><ele>169.20000000000002</ele><time>2026-04-18T16:54:37.769Z</time></trkpt><trkpt lat="43.227055" lon="11.4144617"><ele>169.8</ele><time>2026-04-18T16:54:38.769Z</time></trkpt><trkpt lat="43.2270183" lon="11.4143317"><ele>170.4</ele><time>2026-04-18T16:54:39.77Z</time></trkpt><trkpt lat="43.2269833" lon="11.4142017"><ele>171.0</ele><time>2026-04-18T16:54:40.765Z</time></trkpt><trkpt lat="43.2269533" lon="11.4140733"><ele>171.0</ele><time>2026-04-18T16:54:41.769Z</time></trkpt><trkpt lat="43.2269217" lon="11.41395"><ele>171.0</ele><time>2026-04-18T16:54:42.772Z</time></trkpt><trkpt lat="43.22689" lon="11.4138283"><ele>171.0</ele><time>2026-04-18T16:54:43.769Z</time></trkpt><trkpt lat="43.226855" lon="11.4137033"><ele>171.0</ele><time>2026-04-18T16:54:44.771Z</time></trkpt><trkpt lat="43.2268167" lon="11.4135683"><ele>171.0</ele><time>2026-04-18T16:54:45.77Z</time></trkpt><trkpt lat="43.2267733" lon="11.413425"><ele>171.5</ele><time>2026-04-18T16:54:46.769Z</time></trkpt><trkpt lat="43.2267267" lon="11.4132783"><ele>172.0</ele><time>2026-04-18T16:54:47.771Z</time></trkpt><trkpt lat="43.2266783" lon="11.4131267"><ele>172.5</ele><time>2026-04-18T16:54:48.775Z</time></trkpt><trkpt lat="43.2266333" lon="11.4129667"><ele>173.0</ele><time>2026-04-18T16:54:49.771Z</time></trkpt><trkpt lat="43.22659" lon="11.4127917"><ele>174.75</ele><time>2026-04-18T16:54:50.774Z</time></trkpt><trkpt lat="43.2265517" lon="11.4126083"><ele>176.5</ele><time>2026-04-18T16:54:51.77Z</time></trkpt><trkpt lat="43.226515" lon="11.4124233"><ele>178.25</ele><time>2026-04-18T16:54:52.772Z</time></trkpt><trkpt lat="43.22647" lon="11.41224"><ele>180.0</ele><time>2026-04-18T16:54:53.771Z</time></trkpt><trkpt lat="43.2264117" lon="11.412065"><ele>184.0</ele><time>2026-04-18T16:54:54.772Z</time></trkpt><trkpt lat="43.22634" lon="11.4119167"><ele>188.0</ele><time>2026-04-18T16:54:55.771Z</time></trkpt><trkpt lat="43.2262467" lon="11.4117917"><ele>192.0</ele><time>2026-04-18T16:54:56.775Z</time></trkpt><trkpt lat="43.2261417" lon="11.411675"><ele>196.0</ele><time>2026-04-18T16:54:57.772Z</time></trkpt><trkpt lat="43.226055" lon="11.4115517"><ele>196.0</ele><time>2026-04-18T16:54:58.771Z</time></trkpt><trkpt lat="43.2260017" lon="11.4114"><ele>196.0</ele><time>2026-04-18T16:54:59.771Z</time></trkpt><trkpt lat="43.2259817" lon="11.4112317"><ele>196.0</ele><time>2026-04-18T16:55:00.772Z</time></trkpt><trkpt lat="43.2259867" lon="11.4110417"><ele>196.0</ele><time>2026-04-18T16:55:01.771Z</time></trkpt><trkpt lat="43.2259817" lon="11.410835"><ele>197.0</ele><time>2026-04-18T16:55:02.772Z</time></trkpt><trkpt lat="43.225965" lon="11.4106217"><ele>198.0</ele><time>2026-04-18T16:55:03.77Z</time></trkpt><trkpt lat="43.22594" lon="11.4104"><ele>199.0</ele><time>2026-04-18T16:55:04.766Z</time></trkpt><trkpt lat="43.2259133" lon="11.4101767"><ele>199.33333333333331</ele><time>2026-04-18T16:55:05.769Z</time></trkpt><trkpt lat="43.2258833" lon="11.40995"><ele>199.66666666666669</ele><time>2026-04-18T16:55:06.771Z</time></trkpt><trkpt lat="43.22585" lon="11.4097133"><ele>200.0</ele><time>2026-04-18T16:55:07.77Z</time></trkpt><trkpt lat="43.2258" lon="11.4094867"><ele>200.0</ele><time>2026-04-18T16:55:08.772Z</time></trkpt><trkpt lat="43.22574" lon="11.4092633"><ele>200.0</ele><time>2026-04-18T16:55:09.772Z</time></trkpt><trkpt lat="43.225675" lon="11.4090483"><ele>200.0</ele><time>2026-04-18T16:55:10.772Z</time></trkpt><trkpt lat="43.22562" lon="11.40884"><ele>200.75</ele><time>2026-04-18T16:55:11.77Z</time></trkpt><trkpt lat="43.225595" lon="11.4086333"><ele>201.5</ele><time>2026-04-18T16:55:12.772Z</time></trkpt><trkpt lat="43.2256133" lon="11.408435"><ele>202.25</ele><time>2026-04-18T16:55:13.771Z</time></trkpt><trkpt lat="43.2256683" lon="11.4082533"><ele>203.0</ele><time>2026-04-18T16:55:14.774Z</time></trkpt><trkpt lat="43.225765" lon="11.4081"><ele>205.33333333333334</ele><time>2026-04-18T16:55:15.773Z</time></trkpt><trkpt lat="43.2258833" lon="11.4079733"><ele>207.66666666666669</ele><time>2026-04-18T16:55:16.769Z</time></trkpt><trkpt lat="43.2260067" lon="11.4078517"><ele>210.0</ele><time>2026-04-18T16:55:17.772Z</time></trkpt><trkpt lat="43.2261217" lon="11.4077133"><ele>210.0</ele><time>2026-04-18T16:55:18.774Z</time></trkpt><trkpt lat="43.22622" lon="11.407555"><ele>210.0</ele><time>2026-04-18T16:55:19.771Z</time></trkpt><trkpt lat="43.2263" lon="11.40737"><ele>210.0</ele><time>2026-04-18T16:55:20.773Z</time></trkpt><trkpt lat="43.2263617" lon="11.407165"><ele>209.66666666666669</ele><time>2026-04-18T16:55:21.772Z</time></trkpt><trkpt lat="43.22642" lon="11.4069633"><ele>209.33333333333334</ele><time>2026-04-18T16:55:22.771Z</time></trkpt><trkpt lat="43.2264917" lon="11.4067767"><ele>209.0</ele><time>2026-04-18T16:55:23.77Z</time></trkpt><trkpt lat="43.2266" lon="11.4066183"><ele>208.66666666666669</ele><time>2026-04-18T16:55:24.771Z</time></trkpt><trkpt lat="43.2267267" lon="11.406485"><ele>208.33333333333331</ele><time>2026-04-18T16:55:25.771Z</time></trkpt><trkpt lat="43.22686" lon="11.4063533"><ele>208.0</ele><time>2026-04-18T16:55:26.775Z</time></trkpt><trkpt lat="43.2269917" lon="11.4062033"><ele>207.66666666666666</ele><time>2026-04-18T16:55:27.772Z</time></trkpt><trkpt lat="43.2271133" lon="11.4060283"><ele>207.33333333333331</ele><time>2026-04-18T16:55:28.772Z</time></trkpt><trkpt lat="43.227205" lon="11.40583"><ele>207.0</ele><time>2026-04-18T16:55:29.773Z</time></trkpt><trkpt lat="43.2272717" lon="11.4056133"><ele>207.0</ele><time>2026-04-18T16:55:30.77Z</time></trkpt><trkpt lat="43.227305" lon="11.4053817"><ele>207.0</ele><time>2026-04-18T16:55:31.77Z</time></trkpt><trkpt lat="43.2273033" lon="11.40514"><ele>207.0</ele><time>2026-04-18T16:55:32.775Z</time></trkpt><trkpt lat="43.2272667" lon="11.4049067"><ele>207.0</ele><time>2026-04-18T16:55:33.77Z</time></trkpt><trkpt lat="43.2271933" lon="11.40469"><ele>207.0</ele><time>2026-04-18T16:55:34.772Z</time></trkpt><trkpt lat="43.2270967" lon="11.4044967"><ele>207.0</ele><time>2026-04-18T16:55:35.769Z</time></trkpt><trkpt lat="43.2269817" lon="11.404325"><ele>210.0</ele><time>2026-04-18T16:55:36.773Z</time></trkpt><trkpt lat="43.2268467" lon="11.40418"><ele>213.0</ele><time>2026-04-18T16:55:37.763Z</time></trkpt><trkpt lat="43.2267" lon="11.4040633"><ele>216.0</ele><time>2026-04-18T16:55:38.773Z</time></trkpt><trkpt lat="43.2265467" lon="11.4039567"><ele>215.0</ele><time>2026-04-18T16:55:39.773Z</time></trkpt><trkpt lat="43.2263967" lon="11.403855"><ele>214.0</ele><time>2026-04-18T16:55:40.771Z</time></trkpt><trkpt lat="43.2262483" lon="11.403755"><ele>213.0</ele><time>2026-04-18T16:55:41.77Z</time></trkpt><trkpt lat="43.2261033" lon="11.4036517"><ele>216.0</ele><time>2026-04-18T16:55:42.76Z</time></trkpt><trkpt lat="43.2259583" lon="11.40355"><ele>219.0</ele><time>2026-04-18T16:55:43.76Z</time></trkpt><trkpt lat="43.2258117" lon="11.4034483"><ele>222.0</ele><time>2026-04-18T16:55:44.773Z</time></trkpt><trkpt lat="43.2256667" lon="11.4033433"><ele>220.33333333333331</ele><time>2026-04-18T16:55:45.771Z</time></trkpt><trkpt lat="43.2255117" lon="11.40324"><ele>218.66666666666666</ele><time>2026-04-18T16:55:46.772Z</time></trkpt><trkpt lat="43.2253517" lon="11.40314"><ele>217.0</ele><time>2026-04-18T16:55:47.772Z</time></trkpt><trkpt lat="43.2251817" lon="11.403055"><ele>217.0</ele><time>2026-04-18T16:55:48.772Z</time></trkpt><trkpt lat="43.2250067" lon="11.4029917"><ele>217.0</ele><time>2026-04-18T16:55:49.772Z</time></trkpt><trkpt lat="43.22483" lon="11.40295"><ele>217.0</ele><time>2026-04-18T16:55:50.772Z</time></trkpt><trkpt lat="43.22465" lon="11.4029167"><ele>217.0</ele><time>2026-04-18T16:55:51.771Z</time></trkpt><trkpt lat="43.224475" lon="11.4028783"><ele>217.0</ele><time>2026-04-18T16:55:52.771Z</time></trkpt><trkpt lat="43.2243" lon="11.402825"><ele>217.0</ele><time>2026-04-18T16:55:53.771Z</time></trkpt><trkpt lat="43.22413" lon="11.4027433"><ele>219.0</ele><time>2026-04-18T16:55:54.771Z</time></trkpt><trkpt lat="43.22397" lon="11.40263"><ele>221.0</ele><time>2026-04-18T16:55:55.772Z</time></trkpt><trkpt lat="43.2238267" lon="11.4024933"><ele>223.0</ele><time>2026-04-18T16:55:56.776Z</time></trkpt><trkpt lat="43.2237033" lon="11.402335"><ele>224.0</ele><time>2026-04-18T16:55:57.773Z</time></trkpt><trkpt lat="43.2236083" lon="11.40216"><ele>225.0</ele><time>2026-04-18T16:55:58.773Z</time></trkpt><trkpt lat="43.2235367" lon="11.4019533"><ele>226.0</ele><time>2026-04-18T16:55:59.77Z</time></trkpt><trkpt lat="43.22348" lon="11.4017383"><ele>226.0</ele><time>2026-04-18T16:56:00.773Z</time></trkpt><trkpt lat="43.223425" lon="11.4015383"><ele>226.0</ele><time>2026-04-18T16:56:01.766Z</time></trkpt><trkpt lat="43.2233583" lon="11.4013683"><ele>226.0</ele><time>2026-04-18T16:56:02.773Z</time></trkpt><trkpt lat="43.2232767" lon="11.40122"><ele>226.0</ele><time>2026-04-18T16:56:03.773Z</time></trkpt><trkpt lat="43.2231733" lon="11.4011017"><ele>227.0</ele><time>2026-04-18T16:56:04.77Z</time></trkpt><trkpt lat="43.2230517" lon="11.401025"><ele>228.0</ele><time>2026-04-18T16:56:05.773Z</time></trkpt><trkpt lat="43.222915" lon="11.4009817"><ele>229.0</ele><time>2026-04-18T16:56:06.772Z</time></trkpt><trkpt lat="43.22278" lon="11.4009533"><ele>230.0</ele><time>2026-04-18T16:56:07.769Z</time></trkpt><trkpt lat="43.2226517" lon="11.4009017"><ele>230.0</ele><time>2026-04-18T16:56:08.775Z</time></trkpt><trkpt lat="43.2225333" lon="11.400805"><ele>230.0</ele><time>2026-04-18T16:56:09.772Z</time></trkpt><trkpt lat="43.2224283" lon="11.4006717"><ele>230.0</ele><time>2026-04-18T16:56:10.773Z</time></trkpt><trkpt lat="43.2223333" lon="11.4005083"><ele>230.0</ele><time>2026-04-18T16:56:11.77Z</time></trkpt><trkpt lat="43.222245" lon="11.400325"><ele>227.0</ele><time>2026-04-18T16:56:12.773Z</time></trkpt><trkpt lat="43.2221567" lon="11.4001333"><ele>224.0</ele><time>2026-04-18T16:56:13.771Z</time></trkpt><trkpt lat="43.22207" lon="11.39994"><ele>221.0</ele><time>2026-04-18T16:56:14.773Z</time></trkpt><trkpt lat="43.2219883" lon="11.399745"><ele>221.33333333333334</ele><time>2026-04-18T16:56:15.769Z</time></trkpt><trkpt lat="43.2219033" lon="11.39955"><ele>221.66666666666669</ele><time>2026-04-18T16:56:16.77Z</time></trkpt><trkpt lat="43.221815" lon="11.3993517"><ele>222.0</ele><time>2026-04-18T16:56:17.77Z</time></trkpt><trkpt lat="43.2217317" lon="11.3991517"><ele>222.0</ele><time>2026-04-18T16:56:18.773Z</time></trkpt><trkpt lat="43.2216433" lon="11.39895"><ele>222.0</ele><time>2026-04-18T16:56:19.768Z</time></trkpt><trkpt lat="43.2215567" lon="11.3987483"><ele>222.0</ele><time>2026-04-18T16:56:20.77Z</time></trkpt><trkpt lat="43.2214733" lon="11.3985517"><ele>220.33333333333331</ele><time>2026-04-18T16:56:21.772Z</time></trkpt><trkpt lat="43.22139" lon="11.398355"><ele>218.66666666666666</ele><time>2026-04-18T16:56:22.773Z</time></trkpt><trkpt lat="43.2213117" lon="11.3981567"><ele>217.0</ele><time>2026-04-18T16:56:23.77Z</time></trkpt><trkpt lat="43.2212367" lon="11.3979533"><ele>217.0</ele><time>2026-04-18T16:56:24.771Z</time></trkpt><trkpt lat="43.2211633" lon="11.39775"><ele>217.0</ele><time>2026-04-18T16:56:25.771Z</time></trkpt><trkpt lat="43.221095" lon="11.3975467"><ele>217.0</ele><time>2026-04-18T16:56:26.771Z</time></trkpt><trkpt lat="43.22103" lon="11.3973333"><ele>217.66666666666666</ele><time>2026-04-18T16:56:27.772Z</time></trkpt><trkpt lat="43.2209733" lon="11.39712"><ele>218.33333333333331</ele><time>2026-04-18T16:56:28.77Z</time></trkpt><trkpt lat="43.2209317" lon="11.3968967"><ele>219.0</ele><time>2026-04-18T16:56:29.772Z</time></trkpt><trkpt lat="43.2209017" lon="11.3966617"><ele>219.0</ele><time>2026-04-18T16:56:30.772Z</time></trkpt><trkpt lat="43.2208833" lon="11.3964183"><ele>219.0</ele><time>2026-04-18T16:56:31.769Z</time></trkpt><trkpt lat="43.2208733" lon="11.3961733"><ele>219.0</ele><time>2026-04-18T16:56:32.773Z</time></trkpt><trkpt lat="43.2208667" lon="11.39593"><ele>218.0</ele><time>2026-04-18T16:56:33.774Z</time></trkpt><trkpt lat="43.2208517" lon="11.3956867"><ele>217.0</ele><time>2026-04-18T16:56:34.77Z</time></trkpt><trkpt lat="43.22082" lon="11.3954467"><ele>216.0</ele><time>2026-04-18T16:56:35.771Z</time></trkpt><trkpt lat="43.2207633" lon="11.395215"><ele>216.0</ele><time>2026-04-18T16:56:36.772Z</time></trkpt><trkpt lat="43.22069" lon="11.3949933"><ele>216.0</ele><time>2026-04-18T16:56:37.771Z</time></trkpt><trkpt lat="43.2206117" lon="11.3947783"><ele>216.0</ele><time>2026-04-18T16:56:38.77Z</time></trkpt><trkpt lat="43.2205383" lon="11.39456"><ele>215.0</ele><time>2026-04-18T16:56:39.768Z</time></trkpt><trkpt lat="43.2204783" lon="11.39434"><ele>214.0</ele><time>2026-04-18T16:56:40.768Z</time></trkpt><trkpt lat="43.2204383" lon="11.3941217"><ele>213.0</ele><time>2026-04-18T16:56:41.768Z</time></trkpt><trkpt lat="43.2203967" lon="11.3939133"><ele>213.75</ele><time>2026-04-18T16:56:42.775Z</time></trkpt><trkpt lat="43.2203417" lon="11.3937283"><ele>214.5</ele><time>2026-04-18T16:56:43.773Z</time></trkpt><trkpt lat="43.2202667" lon="11.3935567"><ele>215.25</ele><time>2026-04-18T16:56:44.775Z</time></trkpt><trkpt lat="43.2201683" lon="11.3933967"><ele>216.0</ele><time>2026-04-18T16:56:45.773Z</time></trkpt><trkpt lat="43.2200467" lon="11.39326"><ele>216.0</ele><time>2026-04-18T16:56:46.772Z</time></trkpt><trkpt lat="43.21991" lon="11.393145"><ele>216.0</ele><time>2026-04-18T16:56:47.772Z</time></trkpt><trkpt lat="43.2197683" lon="11.3930533"><ele>216.0</ele><time>2026-04-18T16:56:48.775Z</time></trkpt><trkpt lat="43.2196183" lon="11.3929817"><ele>214.66666666666669</ele><time>2026-04-18T16:56:49.771Z</time></trkpt><trkpt lat="43.2194667" lon="11.3929133"><ele>213.33333333333334</ele><time>2026-04-18T16:56:50.773Z</time></trkpt><trkpt lat="43.2193117" lon="11.3928417"><ele>212.0</ele><time>2026-04-18T16:56:51.769Z</time></trkpt><trkpt lat="43.219155" lon="11.39276"><ele>212.0</ele><time>2026-04-18T16:56:52.766Z</time></trkpt><trkpt lat="43.219" lon="11.392675"><ele>212.0</ele><time>2026-04-18T16:56:53.772Z</time></trkpt><trkpt lat="43.2188433" lon="11.3925883"><ele>212.0</ele><time>2026-04-18T16:56:54.774Z</time></trkpt><trkpt lat="43.21869" lon="11.392505"><ele>209.0</ele><time>2026-04-18T16:56:55.769Z</time></trkpt><trkpt lat="43.218535" lon="11.3924233"><ele>206.0</ele><time>2026-04-18T16:56:56.774Z</time></trkpt><trkpt lat="43.2183817" lon="11.3923417"><ele>203.0</ele><time>2026-04-18T16:56:57.771Z</time></trkpt><trkpt lat="43.2182283" lon="11.392255"><ele>203.5</ele><time>2026-04-18T16:56:58.771Z</time></trkpt><trkpt lat="43.2180817" lon="11.392165"><ele>204.0</ele><time>2026-04-18T16:56:59.772Z</time></trkpt><trkpt lat="43.2179517" lon="11.3920683"><ele>204.5</ele><time>2026-04-18T16:57:00.77Z</time></trkpt><trkpt lat="43.217845" lon="11.391945"><ele>205.0</ele><time>2026-04-18T16:57:01.772Z</time></trkpt><trkpt lat="43.2177633" lon="11.3917867"><ele>205.0</ele><time>2026-04-18T16:57:02.769Z</time></trkpt><trkpt lat="43.2177" lon="11.39161"><ele>205.0</ele><time>2026-04-18T16:57:03.77Z</time></trkpt><trkpt lat="43.2176533" lon="11.391415"><ele>205.0</ele><time>2026-04-18T16:57:04.767Z</time></trkpt><trkpt lat="43.217615" lon="11.391215"><ele>205.0</ele><time>2026-04-18T16:57:05.769Z</time></trkpt><trkpt lat="43.2175833" lon="11.3910117"><ele>206.33333333333331</ele><time>2026-04-18T16:57:06.769Z</time></trkpt><trkpt lat="43.2175433" lon="11.390805"><ele>207.66666666666669</ele><time>2026-04-18T16:57:07.771Z</time></trkpt><trkpt lat="43.2175" lon="11.3905967"><ele>209.0</ele><time>2026-04-18T16:57:08.771Z</time></trkpt><trkpt lat="43.217455" lon="11.3903883"><ele>209.0</ele><time>2026-04-18T16:57:09.77Z</time></trkpt><trkpt lat="43.2174067" lon="11.39018"><ele>209.0</ele><time>2026-04-18T16:57:10.769Z</time></trkpt><trkpt lat="43.217345" lon="11.3899867"><ele>209.0</ele><time>2026-04-18T16:57:11.77Z</time></trkpt><trkpt lat="43.21726" lon="11.3898067"><ele>203.66666666666669</ele><time>2026-04-18T16:57:12.774Z</time></trkpt><trkpt lat="43.217155" lon="11.3896417"><ele>198.33333333333331</ele><time>2026-04-18T16:57:13.766Z</time></trkpt><trkpt lat="43.217025" lon="11.3895033"><ele>193.0</ele><time>2026-04-18T16:57:14.774Z</time></trkpt><trkpt lat="43.21688" lon="11.3893883"><ele>193.0</ele><time>2026-04-18T16:57:15.771Z</time></trkpt><trkpt lat="43.2167283" lon="11.3892933"><ele>193.0</ele><time>2026-04-18T16:57:16.77Z</time></trkpt><trkpt lat="43.2165817" lon="11.3891983"><ele>193.0</ele><time>2026-04-18T16:57:17.772Z</time></trkpt><trkpt lat="43.2164467" lon="11.389075"><ele>188.66666666666666</ele><time>2026-04-18T16:57:18.771Z</time></trkpt><trkpt lat="43.2163233" lon="11.3889333"><ele>184.33333333333331</ele><time>2026-04-18T16:57:19.768Z</time></trkpt><trkpt lat="43.2162117" lon="11.3887733"><ele>180.0</ele><time>2026-04-18T16:57:20.774Z</time></trkpt><trkpt lat="43.2161083" lon="11.3886117"><ele>180.0</ele><time>2026-04-18T16:57:21.771Z</time></trkpt><trkpt lat="43.2160033" lon="11.388485"><ele>180.0</ele><time>2026-04-18T16:57:22.771Z</time></trkpt><trkpt lat="43.2158867" lon="11.38839"><ele>180.0</ele><time>2026-04-18T16:57:23.772Z</time></trkpt><trkpt lat="43.2157567" lon="11.38833"><ele>180.0</ele><time>2026-04-18T16:57:24.771Z</time></trkpt><trkpt lat="43.2156233" lon="11.388315"><ele>178.0</ele><time>2026-04-18T16:57:25.771Z</time></trkpt><trkpt lat="43.2154917" lon="11.388315"><ele>176.0</ele><time>2026-04-18T16:57:26.773Z</time></trkpt><trkpt lat="43.2153683" lon="11.388295"><ele>174.0</ele><time>2026-04-18T16:57:27.771Z</time></trkpt><trkpt lat="43.215255" lon="11.3882333"><ele>172.0</ele><time>2026-04-18T16:57:28.771Z</time></trkpt><trkpt lat="43.2151667" lon="11.388135"><ele>171.25</ele><time>2026-04-18T16:57:29.768Z</time></trkpt><trkpt lat="43.2151067" lon="11.387995"><ele>170.5</ele><time>2026-04-18T16:57:30.771Z</time></trkpt><trkpt lat="43.2150817" lon="11.387835"><ele>169.75</ele><time>2026-04-18T16:57:31.771Z</time></trkpt><trkpt lat="43.2150867" lon="11.3876467"><ele>169.0</ele><time>2026-04-18T16:57:32.772Z</time></trkpt><trkpt lat="43.215085" lon="11.3874483"><ele>169.0</ele><time>2026-04-18T16:57:33.772Z</time></trkpt><trkpt lat="43.215085" lon="11.387235"><ele>169.0</ele><time>2026-04-18T16:57:34.771Z</time></trkpt><trkpt lat="43.21508" lon="11.3870083"><ele>169.0</ele><time>2026-04-18T16:57:35.771Z</time></trkpt><trkpt lat="43.2150817" lon="11.3867733"><ele>169.0</ele><time>2026-04-18T16:57:36.774Z</time></trkpt><trkpt lat="43.2150817" lon="11.3865333"><ele>169.0</ele><time>2026-04-18T16:57:37.771Z</time></trkpt><trkpt lat="43.2150833" lon="11.3862917"><ele>169.0</ele><time>2026-04-18T16:57:38.773Z</time></trkpt><trkpt lat="43.2150883" lon="11.386035"><ele>169.66666666666669</ele><time>2026-04-18T16:57:39.767Z</time></trkpt><trkpt lat="43.2151083" lon="11.3857767"><ele>170.33333333333334</ele><time>2026-04-18T16:57:40.77Z</time></trkpt><trkpt lat="43.2151367" lon="11.3855167"><ele>171.0</ele><time>2026-04-18T16:57:41.77Z</time></trkpt><trkpt lat="43.2151667" lon="11.38525"><ele>171.66666666666666</ele><time>2026-04-18T16:57:42.771Z</time></trkpt><trkpt lat="43.2151983" lon="11.3849817"><ele>172.33333333333331</ele><time>2026-04-18T16:57:43.772Z</time></trkpt><trkpt lat="43.2152333" lon="11.3847067"><ele>173.0</ele><time>2026-04-18T16:57:44.776Z</time></trkpt><trkpt lat="43.2152683" lon="11.3844233"><ele>173.0</ele><time>2026-04-18T16:57:45.772Z</time></trkpt><trkpt lat="43.215305" lon="11.3841383"><ele>173.0</ele><time>2026-04-18T16:57:46.773Z</time></trkpt><trkpt lat="43.2153433" lon="11.3838533"><ele>173.0</ele><time>2026-04-18T16:57:47.768Z</time></trkpt><trkpt lat="43.2153833" lon="11.3835667"><ele>173.0</ele><time>2026-04-18T16:57:48.773Z</time></trkpt><trkpt lat="43.215425" lon="11.3832817"><ele>173.0</ele><time>2026-04-18T16:57:49.773Z</time></trkpt><trkpt lat="43.215465" lon="11.3829967"><ele>173.0</ele><time>2026-04-18T16:57:50.771Z</time></trkpt><trkpt lat="43.2155" lon="11.3827083"><ele>173.33333333333331</ele><time>2026-04-18T16:57:51.763Z</time></trkpt><trkpt lat="43.2155367" lon="11.3824167"><ele>173.66666666666666</ele><time>2026-04-18T16:57:52.77Z</time></trkpt><trkpt lat="43.2155733" lon="11.3821233"><ele>174.0</ele><time>2026-04-18T16:57:53.768Z</time></trkpt><trkpt lat="43.21561" lon="11.3818283"><ele>174.0</ele><time>2026-04-18T16:57:54.774Z</time></trkpt><trkpt lat="43.215645" lon="11.3815317"><ele>174.0</ele><time>2026-04-18T16:57:55.772Z</time></trkpt><trkpt lat="43.2156783" lon="11.3812383"><ele>174.0</ele><time>2026-04-18T16:57:56.773Z</time></trkpt><trkpt lat="43.2157133" lon="11.380945"><ele>174.33333333333334</ele><time>2026-04-18T16:57:57.772Z</time></trkpt><trkpt lat="43.2157483" lon="11.3806517"><ele>174.66666666666669</ele><time>2026-04-18T16:57:58.77Z</time></trkpt><trkpt lat="43.2157817" lon="11.3803683"><ele>175.0</ele><time>2026-04-18T16:57:59.773Z</time></trkpt><trkpt lat="43.21582" lon="11.3800983"><ele>175.66666666666669</ele><time>2026-04-18T16:58:00.772Z</time></trkpt><trkpt lat="43.21587" lon="11.3798433"><ele>176.33333333333334</ele><time>2026-04-18T16:58:01.771Z</time></trkpt><trkpt lat="43.215935" lon="11.379595"><ele>177.0</ele><time>2026-04-18T16:58:02.772Z</time></trkpt><trkpt lat="43.2160283" lon="11.379355"><ele>177.0</ele><time>2026-04-18T16:58:03.77Z</time></trkpt><trkpt lat="43.2161383" lon="11.379125"><ele>177.0</ele><time>2026-04-18T16:58:04.771Z</time></trkpt><trkpt lat="43.2162617" lon="11.3789033"><ele>177.0</ele><time>2026-04-18T16:58:05.773Z</time></trkpt><trkpt lat="43.2163883" lon="11.3786867"><ele>178.66666666666666</ele><time>2026-04-18T16:58:06.773Z</time></trkpt><trkpt lat="43.21652" lon="11.37847"><ele>180.33333333333331</ele><time>2026-04-18T16:58:07.772Z</time></trkpt><trkpt lat="43.21665" lon="11.3782517"><ele>182.0</ele><time>2026-04-18T16:58:08.773Z</time></trkpt><trkpt lat="43.2167783" lon="11.3780367"><ele>184.33333333333331</ele><time>2026-04-18T16:58:09.773Z</time></trkpt><trkpt lat="43.2169033" lon="11.377825"><ele>186.66666666666666</ele><time>2026-04-18T16:58:10.772Z</time></trkpt><trkpt lat="43.2170267" lon="11.3776183"><ele>189.0</ele><time>2026-04-18T16:58:11.772Z</time></trkpt><trkpt lat="43.2171467" lon="11.3774117"><ele>189.0</ele><time>2026-04-18T16:58:12.775Z</time></trkpt><trkpt lat="43.2172683" lon="11.3772033"><ele>189.0</ele><time>2026-04-18T16:58:13.773Z</time></trkpt><trkpt lat="43.2173917" lon="11.3769933"><ele>189.0</ele><time>2026-04-18T16:58:14.774Z</time></trkpt><trkpt lat="43.2175167" lon="11.3767783"><ele>193.33333333333331</ele><time>2026-04-18T16:58:15.772Z</time></trkpt><trkpt lat="43.2176333" lon="11.3765817"><ele>197.66666666666666</ele><time>2026-04-18T16:58:16.771Z</time></trkpt><trkpt lat="43.2177483" lon="11.3763733"><ele>202.0</ele><time>2026-04-18T16:58:17.77Z</time></trkpt><trkpt lat="43.217855" lon="11.376155"><ele>203.66666666666666</ele><time>2026-04-18T16:58:18.773Z</time></trkpt><trkpt lat="43.2179517" lon="11.3759267"><ele>205.33333333333331</ele><time>2026-04-18T16:58:19.769Z</time></trkpt><trkpt lat="43.2180333" lon="11.3756933"><ele>207.0</ele><time>2026-04-18T16:58:20.771Z</time></trkpt><trkpt lat="43.2181133" lon="11.3754533"><ele>210.33333333333331</ele><time>2026-04-18T16:58:21.77Z</time></trkpt><trkpt lat="43.2181883" lon="11.3752117"><ele>213.66666666666666</ele><time>2026-04-18T16:58:22.768Z</time></trkpt><trkpt lat="43.2182433" lon="11.3749733"><ele>217.0</ele><time>2026-04-18T16:58:23.774Z</time></trkpt><trkpt lat="43.2182833" lon="11.3747283"><ele>220.0</ele><time>2026-04-18T16:58:24.773Z</time></trkpt><trkpt lat="43.2183" lon="11.3744833"><ele>223.0</ele><time>2026-04-18T16:58:25.772Z</time></trkpt><trkpt lat="43.2182883" lon="11.374245"><ele>226.0</ele><time>2026-04-18T16:58:26.775Z</time></trkpt><trkpt lat="43.218245" lon="11.3740117"><ele>227.0</ele><time>2026-04-18T16:58:27.771Z</time></trkpt><trkpt lat="43.2181783" lon="11.3737867"><ele>228.0</ele><time>2026-04-18T16:58:28.769Z</time></trkpt><trkpt lat="43.2180983" lon="11.3735683"><ele>229.0</ele><time>2026-04-18T16:58:29.772Z</time></trkpt><trkpt lat="43.2180017" lon="11.373355"><ele>229.0</ele><time>2026-04-18T16:58:30.77Z</time></trkpt><trkpt lat="43.217895" lon="11.3731583"><ele>229.0</ele><time>2026-04-18T16:58:31.769Z</time></trkpt><trkpt lat="43.21779" lon="11.372975"><ele>229.0</ele><time>2026-04-18T16:58:32.773Z</time></trkpt><trkpt lat="43.21769" lon="11.3728083"><ele>231.6</ele><time>2026-04-18T16:58:33.77Z</time></trkpt><trkpt lat="43.2176" lon="11.372655"><ele>234.2</ele><time>2026-04-18T16:58:34.77Z</time></trkpt><trkpt lat="43.2175217" lon="11.3725283"><ele>236.79999999999998</ele><time>2026-04-18T16:58:35.773Z</time></trkpt><trkpt lat="43.2174733" lon="11.372435"><ele>239.39999999999998</ele><time>2026-04-18T16:58:36.775Z</time></trkpt><trkpt lat="43.2174417" lon="11.3723567"><ele>242.0</ele><time>2026-04-18T16:58:37.767Z</time></trkpt><trkpt lat="43.21741" lon="11.3722633"><ele>242.00000000000003</ele><time>2026-04-18T16:58:39.769Z</time></trkpt><trkpt lat="43.2173567" lon="11.3722017"><ele>242.0</ele><time>2026-04-18T16:58:42.77Z</time></trkpt><trkpt lat="43.2172583" lon="11.37214"><ele>242.0</ele><time>2026-04-18T16:58:44.775Z</time></trkpt><trkpt lat="43.2171983" lon="11.3721"><ele>242.0</ele><time>2026-04-18T16:58:45.773Z</time></trkpt><trkpt lat="43.21713" lon="11.3720567"><ele>242.00000000000003</ele><time>2026-04-18T16:58:46.773Z</time></trkpt><trkpt lat="43.217045" lon="11.3720167"><ele>242.0</ele><time>2026-04-18T16:58:47.771Z</time></trkpt><trkpt lat="43.2169583" lon="11.371975"><ele>242.39999999999998</ele><time>2026-04-18T16:58:48.772Z</time></trkpt><trkpt lat="43.2168717" lon="11.3719283"><ele>242.79999999999998</ele><time>2026-04-18T16:58:49.772Z</time></trkpt><trkpt lat="43.21677" lon="11.3718783"><ele>243.2</ele><time>2026-04-18T16:58:50.773Z</time></trkpt><trkpt lat="43.21666" lon="11.3718233"><ele>243.6</ele><time>2026-04-18T16:58:51.771Z</time></trkpt><trkpt lat="43.2165433" lon="11.3717683"><ele>244.0</ele><time>2026-04-18T16:58:52.771Z</time></trkpt><trkpt lat="43.2164217" lon="11.3717033"><ele>244.0</ele><time>2026-04-18T16:58:53.772Z</time></trkpt><trkpt lat="43.2163" lon="11.371645"><ele>244.0</ele><time>2026-04-18T16:58:54.773Z</time></trkpt><trkpt lat="43.2161867" lon="11.3715917"><ele>244.0</ele><time>2026-04-18T16:58:55.772Z</time></trkpt><trkpt lat="43.2160833" lon="11.3715367"><ele>244.0</ele><time>2026-04-18T16:58:56.774Z</time></trkpt><trkpt lat="43.215985" lon="11.3714883"><ele>244.0</ele><time>2026-04-18T16:58:57.77Z</time></trkpt><trkpt lat="43.2158933" lon="11.3714333"><ele>243.99999999999997</ele><time>2026-04-18T16:58:58.772Z</time></trkpt><trkpt lat="43.215805" lon="11.3713717"><ele>243.99999999999997</ele><time>2026-04-18T16:58:59.769Z</time></trkpt><trkpt lat="43.2157167" lon="11.371305"><ele>244.0</ele><time>2026-04-18T16:59:00.772Z</time></trkpt><trkpt lat="43.215635" lon="11.3712133"><ele>244.0</ele><time>2026-04-18T16:59:01.77Z</time></trkpt><trkpt lat="43.2155483" lon="11.37111"><ele>243.0</ele><time>2026-04-18T16:59:02.771Z</time></trkpt><trkpt lat="43.2154567" lon="11.3710117"><ele>242.0</ele><time>2026-04-18T16:59:03.769Z</time></trkpt><trkpt lat="43.2153533" lon="11.3709133"><ele>241.0</ele><time>2026-04-18T16:59:04.77Z</time></trkpt><trkpt lat="43.21524" lon="11.3708267"><ele>240.0</ele><time>2026-04-18T16:59:05.772Z</time></trkpt><trkpt lat="43.215115" lon="11.3707583"><ele>240.0</ele><time>2026-04-18T16:59:06.772Z</time></trkpt><trkpt lat="43.2149933" lon="11.3707083"><ele>240.0</ele><time>2026-04-18T16:59:07.771Z</time></trkpt><trkpt lat="43.2148667" lon="11.3706767"><ele>240.0</ele><time>2026-04-18T16:59:08.775Z</time></trkpt><trkpt lat="43.21474" lon="11.3706817"><ele>240.0</ele><time>2026-04-18T16:59:09.768Z</time></trkpt><trkpt lat="43.2146117" lon="11.3707267"><ele>237.0</ele><time>2026-04-18T16:59:10.773Z</time></trkpt><trkpt lat="43.2144883" lon="11.3707983"><ele>234.0</ele><time>2026-04-18T16:59:11.771Z</time></trkpt><trkpt lat="43.2143633" lon="11.370885"><ele>231.0</ele><time>2026-04-18T16:59:12.771Z</time></trkpt><trkpt lat="43.2142367" lon="11.370965"><ele>228.0</ele><time>2026-04-18T16:59:13.77Z</time></trkpt><trkpt lat="43.2141117" lon="11.3710433"><ele>228.0</ele><time>2026-04-18T16:59:14.774Z</time></trkpt><trkpt lat="43.2140017" lon="11.37111"><ele>228.0</ele><time>2026-04-18T16:59:15.772Z</time></trkpt><trkpt lat="43.2139083" lon="11.371175"><ele>228.0</ele><time>2026-04-18T16:59:16.772Z</time></trkpt><trkpt lat="43.213825" lon="11.371215"><ele>228.0</ele><time>2026-04-18T16:59:17.767Z</time></trkpt><trkpt lat="43.2137533" lon="11.3712267"><ele>228.0</ele><time>2026-04-18T16:59:18.773Z</time></trkpt><trkpt lat="43.2136917" lon="11.3711917"><ele>226.5</ele><time>2026-04-18T16:59:19.771Z</time></trkpt><trkpt lat="43.2136367" lon="11.37111"><ele>225.0</ele><time>2026-04-18T16:59:20.773Z</time></trkpt><trkpt lat="43.213605" lon="11.3709817"><ele>223.5</ele><time>2026-04-18T16:59:21.771Z</time></trkpt><trkpt lat="43.2136267" lon="11.3707717"><ele>222.0</ele><time>2026-04-18T16:59:22.772Z</time></trkpt><trkpt lat="43.2136383" lon="11.3705583"><ele>220.33333333333331</ele><time>2026-04-18T16:59:23.771Z</time></trkpt><trkpt lat="43.2136467" lon="11.37034"><ele>218.66666666666666</ele><time>2026-04-18T16:59:24.773Z</time></trkpt><trkpt lat="43.213655" lon="11.3701117"><ele>217.0</ele><time>2026-04-18T16:59:25.772Z</time></trkpt><trkpt lat="43.21366" lon="11.36988"><ele>214.33333333333331</ele><time>2026-04-18T16:59:26.774Z</time></trkpt><trkpt lat="43.2136667" lon="11.3696533"><ele>211.66666666666669</ele><time>2026-04-18T16:59:27.772Z</time></trkpt><trkpt lat="43.2136717" lon="11.3694233"><ele>209.0</ele><time>2026-04-18T16:59:28.772Z</time></trkpt><trkpt lat="43.2136783" lon="11.369195"><ele>209.0</ele><time>2026-04-18T16:59:29.771Z</time></trkpt><trkpt lat="43.2136817" lon="11.3689633"><ele>209.0</ele><time>2026-04-18T16:59:30.772Z</time></trkpt><trkpt lat="43.2136817" lon="11.3687417"><ele>209.0</ele><time>2026-04-18T16:59:31.772Z</time></trkpt><trkpt lat="43.2136817" lon="11.3685167"><ele>207.0</ele><time>2026-04-18T16:59:32.775Z</time></trkpt><trkpt lat="43.2136817" lon="11.368295"><ele>205.0</ele><time>2026-04-18T16:59:33.774Z</time></trkpt><trkpt lat="43.2136817" lon="11.368075"><ele>203.0</ele><time>2026-04-18T16:59:34.773Z</time></trkpt><trkpt lat="43.2136833" lon="11.3678617"><ele>201.33333333333334</ele><time>2026-04-18T16:59:35.771Z</time></trkpt><trkpt lat="43.2136833" lon="11.3676483"><ele>199.66666666666669</ele><time>2026-04-18T16:59:36.772Z</time></trkpt><trkpt lat="43.21367" lon="11.3674467"><ele>198.0</ele><time>2026-04-18T16:59:37.771Z</time></trkpt><trkpt lat="43.2136317" lon="11.3672383"><ele>197.33333333333331</ele><time>2026-04-18T16:59:38.776Z</time></trkpt><trkpt lat="43.2135633" lon="11.3670367"><ele>196.66666666666666</ele><time>2026-04-18T16:59:39.771Z</time></trkpt><trkpt lat="43.2134767" lon="11.3668383"><ele>196.0</ele><time>2026-04-18T16:59:40.768Z</time></trkpt><trkpt lat="43.213375" lon="11.3666467"><ele>196.0</ele><time>2026-04-18T16:59:41.772Z</time></trkpt><trkpt lat="43.2132683" lon="11.3664667"><ele>196.0</ele><time>2026-04-18T16:59:42.767Z</time></trkpt><trkpt lat="43.213165" lon="11.3662833"><ele>196.0</ele><time>2026-04-18T16:59:43.774Z</time></trkpt><trkpt lat="43.2130717" lon="11.3660867"><ele>197.33333333333331</ele><time>2026-04-18T16:59:44.775Z</time></trkpt><trkpt lat="43.212995" lon="11.3658883"><ele>198.66666666666669</ele><time>2026-04-18T16:59:45.773Z</time></trkpt><trkpt lat="43.212935" lon="11.3656783"><ele>200.0</ele><time>2026-04-18T16:59:46.772Z</time></trkpt><trkpt lat="43.212895" lon="11.3654617"><ele>201.33333333333334</ele><time>2026-04-18T16:59:47.771Z</time></trkpt><trkpt lat="43.2128817" lon="11.3652333"><ele>202.66666666666669</ele><time>2026-04-18T16:59:48.771Z</time></trkpt><trkpt lat="43.2128983" lon="11.3650067"><ele>204.0</ele><time>2026-04-18T16:59:49.77Z</time></trkpt><trkpt lat="43.21294" lon="11.3647783"><ele>205.0</ele><time>2026-04-18T16:59:50.775Z</time></trkpt><trkpt lat="43.2129983" lon="11.36455"><ele>206.0</ele><time>2026-04-18T16:59:51.772Z</time></trkpt><trkpt lat="43.2130667" lon="11.364325"><ele>207.0</ele><time>2026-04-18T16:59:52.774Z</time></trkpt><trkpt lat="43.2131417" lon="11.3640983"><ele>211.66666666666669</ele><time>2026-04-18T16:59:53.772Z</time></trkpt><trkpt lat="43.2132133" lon="11.3638717"><ele>216.33333333333334</ele><time>2026-04-18T16:59:54.773Z</time></trkpt><trkpt lat="43.21328" lon="11.3636483"><ele>221.0</ele><time>2026-04-18T16:59:55.769Z</time></trkpt><trkpt lat="43.213345" lon="11.3634233"><ele>221.33333333333334</ele><time>2026-04-18T16:59:56.772Z</time></trkpt><trkpt lat="43.21341" lon="11.3632"><ele>221.66666666666669</ele><time>2026-04-18T16:59:57.771Z</time></trkpt><trkpt lat="43.2134783" lon="11.362975"><ele>222.0</ele><time>2026-04-18T16:59:58.767Z</time></trkpt><trkpt lat="43.2135533" lon="11.3627517"><ele>222.33333333333331</ele><time>2026-04-18T16:59:59.77Z</time></trkpt><trkpt lat="43.2136467" lon="11.3625367"><ele>222.66666666666666</ele><time>2026-04-18T17:00:00.768Z</time></trkpt><trkpt lat="43.2137517" lon="11.3623383"><ele>223.0</ele><time>2026-04-18T17:00:01.768Z</time></trkpt><trkpt lat="43.2138683" lon="11.3621517"><ele>223.0</ele><time>2026-04-18T17:00:02.766Z</time></trkpt><trkpt lat="43.2139883" lon="11.3619667"><ele>223.0</ele><time>2026-04-18T17:00:03.765Z</time></trkpt><trkpt lat="43.2141117" lon="11.3617867"><ele>223.0</ele><time>2026-04-18T17:00:04.767Z</time></trkpt><trkpt lat="43.2142383" lon="11.361605"><ele>227.33333333333331</ele><time>2026-04-18T17:00:05.768Z</time></trkpt><trkpt lat="43.2143633" lon="11.3614233"><ele>231.66666666666669</ele><time>2026-04-18T17:00:06.77Z</time></trkpt><trkpt lat="43.2144867" lon="11.3612417"><ele>236.0</ele><time>2026-04-18T17:00:07.768Z</time></trkpt><trkpt lat="43.2146" lon="11.361065"><ele>238.0</ele><time>2026-04-18T17:00:08.769Z</time></trkpt><trkpt lat="43.2147067" lon="11.36089"><ele>240.0</ele><time>2026-04-18T17:00:09.768Z</time></trkpt><trkpt lat="43.214795" lon="11.3607167"><ele>242.0</ele><time>2026-04-18T17:00:10.772Z</time></trkpt><trkpt lat="43.2148667" lon="11.3605483"><ele>242.5</ele><time>2026-04-18T17:00:11.772Z</time></trkpt><trkpt lat="43.2149083" lon="11.3603933"><ele>243.0</ele><time>2026-04-18T17:00:12.771Z</time></trkpt><trkpt lat="43.2149117" lon="11.3602333"><ele>243.5</ele><time>2026-04-18T17:00:13.769Z</time></trkpt><trkpt lat="43.2148783" lon="11.3600767"><ele>244.0</ele><time>2026-04-18T17:00:14.773Z</time></trkpt><trkpt lat="43.2148067" lon="11.3599217"><ele>244.0</ele><time>2026-04-18T17:00:15.772Z</time></trkpt><trkpt lat="43.2147" lon="11.359775"><ele>244.0</ele><time>2026-04-18T17:00:16.772Z</time></trkpt><trkpt lat="43.21457" lon="11.3596433"><ele>244.0</ele><time>2026-04-18T17:00:17.771Z</time></trkpt><trkpt lat="43.21443" lon="11.3595233"><ele>244.33333333333331</ele><time>2026-04-18T17:00:18.772Z</time></trkpt><trkpt lat="43.2142817" lon="11.3594133"><ele>244.66666666666669</ele><time>2026-04-18T17:00:19.768Z</time></trkpt><trkpt lat="43.2141267" lon="11.3593067"><ele>245.0</ele><time>2026-04-18T17:00:20.774Z</time></trkpt><trkpt lat="43.2139767" lon="11.3592017"><ele>244.33333333333334</ele><time>2026-04-18T17:00:21.771Z</time></trkpt><trkpt lat="43.2138283" lon="11.3590933"><ele>243.66666666666669</ele><time>2026-04-18T17:00:22.77Z</time></trkpt><trkpt lat="43.2136933" lon="11.35896"><ele>243.0</ele><time>2026-04-18T17:00:23.772Z</time></trkpt><trkpt lat="43.2135817" lon="11.3587867"><ele>243.0</ele><time>2026-04-18T17:00:24.771Z</time></trkpt><trkpt lat="43.2134967" lon="11.3585783"><ele>243.0</ele><time>2026-04-18T17:00:25.771Z</time></trkpt><trkpt lat="43.213435" lon="11.3583367"><ele>243.0</ele><time>2026-04-18T17:00:26.771Z</time></trkpt><trkpt lat="43.21339" lon="11.3580817"><ele>244.0</ele><time>2026-04-18T17:00:27.771Z</time></trkpt><trkpt lat="43.21335" lon="11.35783"><ele>245.0</ele><time>2026-04-18T17:00:28.772Z</time></trkpt><trkpt lat="43.2133117" lon="11.35758"><ele>246.0</ele><time>2026-04-18T17:00:29.768Z</time></trkpt><trkpt lat="43.213275" lon="11.3573483"><ele>247.0</ele><time>2026-04-18T17:00:30.771Z</time></trkpt><trkpt lat="43.2132467" lon="11.357135"><ele>248.0</ele><time>2026-04-18T17:00:31.769Z</time></trkpt><trkpt lat="43.2132383" lon="11.3569267"><ele>249.0</ele><time>2026-04-18T17:00:32.768Z</time></trkpt><trkpt lat="43.2132617" lon="11.35672"><ele>249.0</ele><time>2026-04-18T17:00:33.77Z</time></trkpt><trkpt lat="43.2133117" lon="11.3565183"><ele>249.0</ele><time>2026-04-18T17:00:34.768Z</time></trkpt><trkpt lat="43.213395" lon="11.3563283"><ele>249.0</ele><time>2026-04-18T17:00:35.771Z</time></trkpt><trkpt lat="43.2135067" lon="11.3561483"><ele>250.66666666666669</ele><time>2026-04-18T17:00:36.771Z</time></trkpt><trkpt lat="43.2136433" lon="11.3559767"><ele>252.33333333333334</ele><time>2026-04-18T17:00:37.772Z</time></trkpt><trkpt lat="43.2137967" lon="11.3558217"><ele>254.0</ele><time>2026-04-18T17:00:38.771Z</time></trkpt><trkpt lat="43.213965" lon="11.355685"><ele>249.33333333333334</ele><time>2026-04-18T17:00:39.768Z</time></trkpt><trkpt lat="43.2141467" lon="11.3555717"><ele>244.66666666666669</ele><time>2026-04-18T17:00:40.77Z</time></trkpt><trkpt lat="43.2143433" lon="11.355485"><ele>240.0</ele><time>2026-04-18T17:00:41.771Z</time></trkpt><trkpt lat="43.2145433" lon="11.3554267"><ele>239.33333333333331</ele><time>2026-04-18T17:00:42.77Z</time></trkpt><trkpt lat="43.2147467" lon="11.3553833"><ele>238.66666666666666</ele><time>2026-04-18T17:00:43.77Z</time></trkpt><trkpt lat="43.2149517" lon="11.35536"><ele>238.0</ele><time>2026-04-18T17:00:44.775Z</time></trkpt><trkpt lat="43.2151567" lon="11.355345"><ele>236.33333333333331</ele><time>2026-04-18T17:00:45.771Z</time></trkpt><trkpt lat="43.2153583" lon="11.3553333"><ele>234.66666666666669</ele><time>2026-04-18T17:00:46.761Z</time></trkpt><trkpt lat="43.2155483" lon="11.355325"><ele>233.0</ele><time>2026-04-18T17:00:47.761Z</time></trkpt><trkpt lat="43.215735" lon="11.3553133"><ele>232.0</ele><time>2026-04-18T17:00:48.768Z</time></trkpt><trkpt lat="43.215905" lon="11.3553033"><ele>231.0</ele><time>2026-04-18T17:00:49.771Z</time></trkpt><trkpt lat="43.2160633" lon="11.3552933"><ele>230.0</ele><time>2026-04-18T17:00:50.77Z</time></trkpt><trkpt lat="43.2162133" lon="11.3552767"><ele>230.0</ele><time>2026-04-18T17:00:51.77Z</time></trkpt><trkpt lat="43.2163467" lon="11.3552433"><ele>230.0</ele><time>2026-04-18T17:00:52.771Z</time></trkpt><trkpt lat="43.21647" lon="11.3551733"><ele>230.0</ele><time>2026-04-18T17:00:53.773Z</time></trkpt><trkpt lat="43.2165817" lon="11.3550467"><ele>230.0</ele><time>2026-04-18T17:00:54.771Z</time></trkpt><trkpt lat="43.2166783" lon="11.35488"><ele>228.0</ele><time>2026-04-18T17:00:55.77Z</time></trkpt><trkpt lat="43.2167717" lon="11.3546883"><ele>226.0</ele><time>2026-04-18T17:00:56.771Z</time></trkpt><trkpt lat="43.2168667" lon="11.3544767"><ele>224.0</ele><time>2026-04-18T17:00:57.772Z</time></trkpt><trkpt lat="43.2169633" lon="11.3542533"><ele>224.0</ele><time>2026-04-18T17:00:58.769Z</time></trkpt><trkpt lat="43.2170633" lon="11.3540317"><ele>224.0</ele><time>2026-04-18T17:00:59.769Z</time></trkpt><trkpt lat="43.2171617" lon="11.3538183"><ele>224.0</ele><time>2026-04-18T17:01:00.772Z</time></trkpt><trkpt lat="43.217255" lon="11.3536167"><ele>223.0</ele><time>2026-04-18T17:01:01.768Z</time></trkpt><trkpt lat="43.2173383" lon="11.3534283"><ele>222.0</ele><time>2026-04-18T17:01:02.772Z</time></trkpt><trkpt lat="43.2174133" lon="11.3532417"><ele>221.0</ele><time>2026-04-18T17:01:03.765Z</time></trkpt><trkpt lat="43.2174617" lon="11.35305"><ele>216.33333333333334</ele><time>2026-04-18T17:01:04.77Z</time></trkpt><trkpt lat="43.2174817" lon="11.3528533"><ele>211.66666666666669</ele><time>2026-04-18T17:01:05.771Z</time></trkpt><trkpt lat="43.2174633" lon="11.352645"><ele>207.0</ele><time>2026-04-18T17:01:06.773Z</time></trkpt><trkpt lat="43.2174183" lon="11.35244"><ele>207.0</ele><time>2026-04-18T17:01:07.772Z</time></trkpt><trkpt lat="43.2173833" lon="11.35225"><ele>207.0</ele><time>2026-04-18T17:01:08.771Z</time></trkpt><trkpt lat="43.2173733" lon="11.3520633"><ele>207.0</ele><time>2026-04-18T17:01:09.771Z</time></trkpt><trkpt lat="43.2173917" lon="11.351875"><ele>207.0</ele><time>2026-04-18T17:01:10.768Z</time></trkpt><trkpt lat="43.2174517" lon="11.3516933"><ele>206.0</ele><time>2026-04-18T17:01:11.772Z</time></trkpt><trkpt lat="43.21755" lon="11.3515267"><ele>205.0</ele><time>2026-04-18T17:01:12.77Z</time></trkpt><trkpt lat="43.2176767" lon="11.3513733"><ele>204.0</ele><time>2026-04-18T17:01:13.769Z</time></trkpt><trkpt lat="43.2178317" lon="11.3512517"><ele>204.0</ele><time>2026-04-18T17:01:14.772Z</time></trkpt><trkpt lat="43.2179833" lon="11.3511383"><ele>204.0</ele><time>2026-04-18T17:01:15.773Z</time></trkpt><trkpt lat="43.2181333" lon="11.35101"><ele>204.0</ele><time>2026-04-18T17:01:16.768Z</time></trkpt><trkpt lat="43.2182717" lon="11.3508567"><ele>205.66666666666669</ele><time>2026-04-18T17:01:17.771Z</time></trkpt><trkpt lat="43.2184017" lon="11.3506867"><ele>207.33333333333334</ele><time>2026-04-18T17:01:18.767Z</time></trkpt><trkpt lat="43.2185317" lon="11.3505083"><ele>209.0</ele><time>2026-04-18T17:01:19.769Z</time></trkpt><trkpt lat="43.2186683" lon="11.3503317"><ele>210.66666666666669</ele><time>2026-04-18T17:01:20.77Z</time></trkpt><trkpt lat="43.2188083" lon="11.3501533"><ele>212.33333333333331</ele><time>2026-04-18T17:01:21.772Z</time></trkpt><trkpt lat="43.2189467" lon="11.34998"><ele>214.0</ele><time>2026-04-18T17:01:22.766Z</time></trkpt><trkpt lat="43.2190783" lon="11.3497933"><ele>217.66666666666666</ele><time>2026-04-18T17:01:23.768Z</time></trkpt><trkpt lat="43.219215" lon="11.3496217"><ele>221.33333333333331</ele><time>2026-04-18T17:01:24.775Z</time></trkpt><trkpt lat="43.219345" lon="11.3494633"><ele>225.0</ele><time>2026-04-18T17:01:25.771Z</time></trkpt><trkpt lat="43.219465" lon="11.3493217"><ele>225.0</ele><time>2026-04-18T17:01:26.773Z</time></trkpt><trkpt lat="43.21957" lon="11.3491917"><ele>225.0</ele><time>2026-04-18T17:01:27.771Z</time></trkpt><trkpt lat="43.2196517" lon="11.3490683"><ele>225.0</ele><time>2026-04-18T17:01:28.768Z</time></trkpt><trkpt lat="43.219705" lon="11.3489367"><ele>225.0</ele><time>2026-04-18T17:01:29.772Z</time></trkpt><trkpt lat="43.2197233" lon="11.3487917"><ele>226.75</ele><time>2026-04-18T17:01:30.773Z</time></trkpt><trkpt lat="43.2196967" lon="11.348635"><ele>228.5</ele><time>2026-04-18T17:01:31.771Z</time></trkpt><trkpt lat="43.2196367" lon="11.3484767"><ele>230.25</ele><time>2026-04-18T17:01:32.774Z</time></trkpt><trkpt lat="43.2195467" lon="11.3483117"><ele>232.0</ele><time>2026-04-18T17:01:33.771Z</time></trkpt><trkpt lat="43.2194533" lon="11.3481367"><ele>234.33333333333331</ele><time>2026-04-18T17:01:34.766Z</time></trkpt><trkpt lat="43.2193583" lon="11.3479483"><ele>236.66666666666669</ele><time>2026-04-18T17:01:35.773Z</time></trkpt><trkpt lat="43.21926" lon="11.3477533"><ele>239.0</ele><time>2026-04-18T17:01:36.771Z</time></trkpt><trkpt lat="43.2191767" lon="11.3475483"><ele>239.0</ele><time>2026-04-18T17:01:37.768Z</time></trkpt><trkpt lat="43.2191067" lon="11.3473333"><ele>239.0</ele><time>2026-04-18T17:01:38.773Z</time></trkpt><trkpt lat="43.21905" lon="11.3471117"><ele>239.0</ele><time>2026-04-18T17:01:39.771Z</time></trkpt><trkpt lat="43.218995" lon="11.3469"><ele>243.66666666666669</ele><time>2026-04-18T17:01:40.768Z</time></trkpt><trkpt lat="43.21893" lon="11.3466917"><ele>248.33333333333331</ele><time>2026-04-18T17:01:41.768Z</time></trkpt><trkpt lat="43.218835" lon="11.3465017"><ele>253.0</ele><time>2026-04-18T17:01:42.771Z</time></trkpt><trkpt lat="43.218715" lon="11.3463467"><ele>253.0</ele><time>2026-04-18T17:01:43.772Z</time></trkpt><trkpt lat="43.2185683" lon="11.34622"><ele>253.0</ele><time>2026-04-18T17:01:44.774Z</time></trkpt><trkpt lat="43.218405" lon="11.3461233"><ele>253.0</ele><time>2026-04-18T17:01:45.77Z</time></trkpt><trkpt lat="43.2182367" lon="11.34602"><ele>253.0</ele><time>2026-04-18T17:01:46.77Z</time></trkpt><trkpt lat="43.218075" lon="11.3459117"><ele>253.0</ele><time>2026-04-18T17:01:47.77Z</time></trkpt><trkpt lat="43.2179183" lon="11.3458"><ele>253.0</ele><time>2026-04-18T17:01:48.771Z</time></trkpt><trkpt lat="43.21777" lon="11.34568"><ele>253.0</ele><time>2026-04-18T17:01:49.772Z</time></trkpt><trkpt lat="43.2176183" lon="11.34556"><ele>253.0</ele><time>2026-04-18T17:01:50.775Z</time></trkpt><trkpt lat="43.2174583" lon="11.34543"><ele>253.0</ele><time>2026-04-18T17:01:51.77Z</time></trkpt><trkpt lat="43.2173017" lon="11.3453033"><ele>254.66666666666666</ele><time>2026-04-18T17:01:52.771Z</time></trkpt><trkpt lat="43.2171517" lon="11.3451783"><ele>256.3333333333333</ele><time>2026-04-18T17:01:53.771Z</time></trkpt><trkpt lat="43.2170167" lon="11.3450333"><ele>258.0</ele><time>2026-04-18T17:01:54.77Z</time></trkpt><trkpt lat="43.216905" lon="11.34487"><ele>261.6666666666667</ele><time>2026-04-18T17:01:55.772Z</time></trkpt><trkpt lat="43.216815" lon="11.3446633"><ele>265.33333333333337</ele><time>2026-04-18T17:01:56.774Z</time></trkpt><trkpt lat="43.2167383" lon="11.34444"><ele>269.0</ele><time>2026-04-18T17:01:57.765Z</time></trkpt><trkpt lat="43.2166633" lon="11.3442067"><ele>269.0</ele><time>2026-04-18T17:01:58.771Z</time></trkpt><trkpt lat="43.2165867" lon="11.3439733"><ele>269.0</ele><time>2026-04-18T17:01:59.771Z</time></trkpt><trkpt lat="43.2165083" lon="11.34375"><ele>269.0</ele><time>2026-04-18T17:02:00.772Z</time></trkpt><trkpt lat="43.2164317" lon="11.343545"><ele>267.6666666666667</ele><time>2026-04-18T17:02:01.768Z</time></trkpt><trkpt lat="43.216365" lon="11.34334"><ele>266.3333333333333</ele><time>2026-04-18T17:02:02.775Z</time></trkpt><trkpt lat="43.216315" lon="11.3431283"><ele>265.0</ele><time>2026-04-18T17:02:03.769Z</time></trkpt><trkpt lat="43.2162683" lon="11.3429033"><ele>265.0</ele><time>2026-04-18T17:02:04.77Z</time></trkpt><trkpt lat="43.2162233" lon="11.34268"><ele>265.0</ele><time>2026-04-18T17:02:05.772Z</time></trkpt><trkpt lat="43.2161867" lon="11.3424667"><ele>265.0</ele><time>2026-04-18T17:02:06.77Z</time></trkpt><trkpt lat="43.21616" lon="11.3422633"><ele>266.0</ele><time>2026-04-18T17:02:07.772Z</time></trkpt><trkpt lat="43.2161483" lon="11.3420617"><ele>267.0</ele><time>2026-04-18T17:02:08.773Z</time></trkpt><trkpt lat="43.216155" lon="11.3418617"><ele>268.0</ele><time>2026-04-18T17:02:09.772Z</time></trkpt><trkpt lat="43.2161783" lon="11.3416533"><ele>269.0</ele><time>2026-04-18T17:02:10.771Z</time></trkpt><trkpt lat="43.216215" lon="11.3414517"><ele>269.6666666666667</ele><time>2026-04-18T17:02:11.769Z</time></trkpt><trkpt lat="43.2162533" lon="11.3412417"><ele>270.3333333333333</ele><time>2026-04-18T17:02:12.774Z</time></trkpt><trkpt lat="43.2162817" lon="11.3410233"><ele>271.0</ele><time>2026-04-18T17:02:13.771Z</time></trkpt><trkpt lat="43.2163" lon="11.340795"><ele>271.0</ele><time>2026-04-18T17:02:14.774Z</time></trkpt><trkpt lat="43.21631" lon="11.3405667"><ele>271.0</ele><time>2026-04-18T17:02:15.772Z</time></trkpt><trkpt lat="43.21632" lon="11.3403283"><ele>271.0</ele><time>2026-04-18T17:02:16.772Z</time></trkpt><trkpt lat="43.21633" lon="11.340085"><ele>270.66666666666663</ele><time>2026-04-18T17:02:17.77Z</time></trkpt><trkpt lat="43.2163433" lon="11.3398367"><ele>270.3333333333333</ele><time>2026-04-18T17:02:18.772Z</time></trkpt><trkpt lat="43.2163517" lon="11.339585"><ele>270.0</ele><time>2026-04-18T17:02:19.772Z</time></trkpt><trkpt lat="43.216365" lon="11.33934"><ele>269.6666666666667</ele><time>2026-04-18T17:02:20.774Z</time></trkpt><trkpt lat="43.216375" lon="11.3390917"><ele>269.33333333333337</ele><time>2026-04-18T17:02:21.771Z</time></trkpt><trkpt lat="43.2163833" lon="11.3388517"><ele>269.0</ele><time>2026-04-18T17:02:22.772Z</time></trkpt><trkpt lat="43.2163933" lon="11.3386067"><ele>269.0</ele><time>2026-04-18T17:02:23.771Z</time></trkpt><trkpt lat="43.2164117" lon="11.33837"><ele>269.0</ele><time>2026-04-18T17:02:24.772Z</time></trkpt><trkpt lat="43.21644" lon="11.3381333"><ele>269.0</ele><time>2026-04-18T17:02:25.769Z</time></trkpt><trkpt lat="43.216475" lon="11.3379"><ele>270.33333333333337</ele><time>2026-04-18T17:02:26.776Z</time></trkpt><trkpt lat="43.216515" lon="11.3376717"><ele>271.6666666666667</ele><time>2026-04-18T17:02:27.771Z</time></trkpt><trkpt lat="43.2165683" lon="11.33745"><ele>273.0</ele><time>2026-04-18T17:02:28.771Z</time></trkpt><trkpt lat="43.2166283" lon="11.33723"><ele>274.3333333333333</ele><time>2026-04-18T17:02:29.77Z</time></trkpt><trkpt lat="43.2166867" lon="11.3370017"><ele>275.66666666666663</ele><time>2026-04-18T17:02:30.773Z</time></trkpt><trkpt lat="43.2167367" lon="11.3367783"><ele>277.0</ele><time>2026-04-18T17:02:31.769Z</time></trkpt><trkpt lat="43.2167617" lon="11.336555"><ele>278.25</ele><time>2026-04-18T17:02:32.775Z</time></trkpt><trkpt lat="43.21677" lon="11.3363433"><ele>279.5</ele><time>2026-04-18T17:02:33.773Z</time></trkpt><trkpt lat="43.216775" lon="11.3361567"><ele>280.75</ele><time>2026-04-18T17:02:34.768Z</time></trkpt><trkpt lat="43.2167867" lon="11.3359983"><ele>282.0</ele><time>2026-04-18T17:02:35.769Z</time></trkpt><trkpt lat="43.2168117" lon="11.335865"><ele>282.0</ele><time>2026-04-18T17:02:36.774Z</time></trkpt><trkpt lat="43.2168517" lon="11.3357567"><ele>282.0</ele><time>2026-04-18T17:02:37.773Z</time></trkpt><trkpt lat="43.2169" lon="11.3356767"><ele>282.0</ele><time>2026-04-18T17:02:38.77Z</time></trkpt><trkpt lat="43.2169617" lon="11.3356367"><ele>282.0</ele><time>2026-04-18T17:02:39.772Z</time></trkpt><trkpt lat="43.21703" lon="11.3356467"><ele>282.0</ele><time>2026-04-18T17:02:40.77Z</time></trkpt><trkpt lat="43.2171267" lon="11.3356833"><ele>282.0</ele><time>2026-04-18T17:02:41.77Z</time></trkpt><trkpt lat="43.217235" lon="11.3357117"><ele>281.6666666666667</ele><time>2026-04-18T17:02:42.773Z</time></trkpt><trkpt lat="43.21738" lon="11.3357567"><ele>281.33333333333337</ele><time>2026-04-18T17:02:43.771Z</time></trkpt><trkpt lat="43.217535" lon="11.335805"><ele>281.0</ele><time>2026-04-18T17:02:44.774Z</time></trkpt><trkpt lat="43.2176967" lon="11.335865"><ele>281.0</ele><time>2026-04-18T17:02:45.772Z</time></trkpt><trkpt lat="43.21784" lon="11.3359583"><ele>281.0</ele><time>2026-04-18T17:02:46.772Z</time></trkpt><trkpt lat="43.2179717" lon="11.33607"><ele>281.0</ele><time>2026-04-18T17:02:47.769Z</time></trkpt><trkpt lat="43.21811" lon="11.3361817"><ele>281.33333333333337</ele><time>2026-04-18T17:02:48.77Z</time></trkpt><trkpt lat="43.2182533" lon="11.3362633"><ele>281.6666666666667</ele><time>2026-04-18T17:02:49.763Z</time></trkpt><trkpt lat="43.2184117" lon="11.3362933"><ele>282.0</ele><time>2026-04-18T17:02:50.77Z</time></trkpt><trkpt lat="43.2185717" lon="11.336275"><ele>282.0</ele><time>2026-04-18T17:02:51.769Z</time></trkpt><trkpt lat="43.2187333" lon="11.3362417"><ele>282.0</ele><time>2026-04-18T17:02:52.768Z</time></trkpt><trkpt lat="43.2188883" lon="11.3362133"><ele>282.0</ele><time>2026-04-18T17:02:53.77Z</time></trkpt><trkpt lat="43.2190367" lon="11.3361867"><ele>283.5</ele><time>2026-04-18T17:02:54.768Z</time></trkpt><trkpt lat="43.2191733" lon="11.3361583"><ele>285.0</ele><time>2026-04-18T17:02:55.764Z</time></trkpt><trkpt lat="43.2193" lon="11.336135"><ele>286.5</ele><time>2026-04-18T17:02:56.771Z</time></trkpt><trkpt lat="43.2194083" lon="11.336115"><ele>288.0</ele><time>2026-04-18T17:02:57.771Z</time></trkpt><trkpt lat="43.2194983" lon="11.3361117"><ele>288.0</ele><time>2026-04-18T17:02:58.769Z</time></trkpt><trkpt lat="43.2195867" lon="11.3361067"><ele>288.0</ele><time>2026-04-18T17:02:59.768Z</time></trkpt><trkpt lat="43.21968" lon="11.3360983"><ele>288.0</ele><time>2026-04-18T17:03:00.769Z</time></trkpt><trkpt lat="43.2197817" lon="11.3360883"><ele>288.0</ele><time>2026-04-18T17:03:01.77Z</time></trkpt><trkpt lat="43.2198833" lon="11.3360717"><ele>288.0</ele><time>2026-04-18T17:03:02.773Z</time></trkpt><trkpt lat="43.2199733" lon="11.3360367"><ele>286.75</ele><time>2026-04-18T17:03:03.77Z</time></trkpt><trkpt lat="43.2200533" lon="11.335965"><ele>285.5</ele><time>2026-04-18T17:03:04.77Z</time></trkpt><trkpt lat="43.2201217" lon="11.3358567"><ele>284.25</ele><time>2026-04-18T17:03:05.77Z</time></trkpt><trkpt lat="43.22018" lon="11.33571"><ele>283.0</ele><time>2026-04-18T17:03:06.771Z</time></trkpt><trkpt lat="43.2202267" lon="11.33554"><ele>283.0</ele><time>2026-04-18T17:03:07.77Z</time></trkpt><trkpt lat="43.220265" lon="11.3353533"><ele>283.0</ele><time>2026-04-18T17:03:08.772Z</time></trkpt><trkpt lat="43.2203017" lon="11.3351683"><ele>283.0</ele><time>2026-04-18T17:03:09.771Z</time></trkpt><trkpt lat="43.2203367" lon="11.3349883"><ele>283.0</ele><time>2026-04-18T17:03:10.77Z</time></trkpt><trkpt lat="43.22037" lon="11.334815"><ele>282.5</ele><time>2026-04-18T17:03:11.772Z</time></trkpt><trkpt lat="43.2203967" lon="11.3346533"><ele>282.0</ele><time>2026-04-18T17:03:12.771Z</time></trkpt><trkpt lat="43.2204233" lon="11.3344967"><ele>281.5</ele><time>2026-04-18T17:03:13.77Z</time></trkpt><trkpt lat="43.220455" lon="11.334345"><ele>281.0</ele><time>2026-04-18T17:03:14.776Z</time></trkpt><trkpt lat="43.220495" lon="11.3341967"><ele>281.0</ele><time>2026-04-18T17:03:15.769Z</time></trkpt><trkpt lat="43.2205483" lon="11.3340533"><ele>281.0</ele><time>2026-04-18T17:03:16.771Z</time></trkpt><trkpt lat="43.2206133" lon="11.333915"><ele>281.0</ele><time>2026-04-18T17:03:17.769Z</time></trkpt><trkpt lat="43.220685" lon="11.333775"><ele>281.0</ele><time>2026-04-18T17:03:18.77Z</time></trkpt><trkpt lat="43.2207633" lon="11.33364"><ele>278.75</ele><time>2026-04-18T17:03:19.769Z</time></trkpt><trkpt lat="43.2208467" lon="11.3335067"><ele>276.5</ele><time>2026-04-18T17:03:20.77Z</time></trkpt><trkpt lat="43.2209317" lon="11.3333783"><ele>274.25</ele><time>2026-04-18T17:03:21.77Z</time></trkpt><trkpt lat="43.2210167" lon="11.3332517"><ele>272.0</ele><time>2026-04-18T17:03:22.77Z</time></trkpt><trkpt lat="43.2210967" lon="11.3331283"><ele>274.0</ele><time>2026-04-18T17:03:23.769Z</time></trkpt><trkpt lat="43.2211733" lon="11.3330117"><ele>276.0</ele><time>2026-04-18T17:03:24.774Z</time></trkpt><trkpt lat="43.221245" lon="11.332895"><ele>278.0</ele><time>2026-04-18T17:03:25.77Z</time></trkpt><trkpt lat="43.2213183" lon="11.3327783"><ele>280.0</ele><time>2026-04-18T17:03:26.773Z</time></trkpt><trkpt lat="43.2213917" lon="11.3326583"><ele>280.0</ele><time>2026-04-18T17:03:27.772Z</time></trkpt><trkpt lat="43.2214683" lon="11.3325367"><ele>280.0</ele><time>2026-04-18T17:03:28.77Z</time></trkpt><trkpt lat="43.2215533" lon="11.3324183"><ele>280.0</ele><time>2026-04-18T17:03:29.767Z</time></trkpt><trkpt lat="43.2216433" lon="11.3323017"><ele>280.0</ele><time>2026-04-18T17:03:30.771Z</time></trkpt><trkpt lat="43.2217333" lon="11.3321867"><ele>281.2</ele><time>2026-04-18T17:03:31.772Z</time></trkpt><trkpt lat="43.22182" lon="11.332075"><ele>282.4</ele><time>2026-04-18T17:03:32.774Z</time></trkpt><trkpt lat="43.221905" lon="11.331965"><ele>283.6</ele><time>2026-04-18T17:03:33.774Z</time></trkpt><trkpt lat="43.2219867" lon="11.3318667"><ele>284.8</ele><time>2026-04-18T17:03:34.771Z</time></trkpt><trkpt lat="43.2220567" lon="11.3317783"><ele>286.0</ele><time>2026-04-18T17:03:35.77Z</time></trkpt><trkpt lat="43.2221183" lon="11.3316967"><ele>286.0</ele><time>2026-04-18T17:03:36.771Z</time></trkpt><trkpt lat="43.22217" lon="11.3316233"><ele>286.0</ele><time>2026-04-18T17:03:37.767Z</time></trkpt><trkpt lat="43.2222633" lon="11.33153"><ele>286.0</ele><time>2026-04-18T17:03:39.77Z</time></trkpt><trkpt lat="43.22235" lon="11.3315067"><ele>286.0</ele><time>2026-04-18T17:03:41.771Z</time></trkpt><trkpt lat="43.2224217" lon="11.3315417"><ele>286.0</ele><time>2026-04-18T17:03:43.767Z</time></trkpt><trkpt lat="43.2225267" lon="11.33161"><ele>285.8</ele><time>2026-04-18T17:03:45.77Z</time></trkpt><trkpt lat="43.2226033" lon="11.331655"><ele>285.6</ele><time>2026-04-18T17:03:46.771Z</time></trkpt><trkpt lat="43.2226767" lon="11.3317033"><ele>285.4</ele><time>2026-04-18T17:03:47.772Z</time></trkpt><trkpt lat="43.2227717" lon="11.3317833"><ele>285.2</ele><time>2026-04-18T17:03:48.765Z</time></trkpt><trkpt lat="43.2228567" lon="11.331885"><ele>285.0</ele><time>2026-04-18T17:03:49.77Z</time></trkpt><trkpt lat="43.2229383" lon="11.332005"><ele>285.0</ele><time>2026-04-18T17:03:50.774Z</time></trkpt><trkpt lat="43.22302" lon="11.3321383"><ele>285.0</ele><time>2026-04-18T17:03:51.768Z</time></trkpt><trkpt lat="43.2231033" lon="11.3322833"><ele>285.0</ele><time>2026-04-18T17:03:52.77Z</time></trkpt><trkpt lat="43.2231867" lon="11.3324267"><ele>285.0</ele><time>2026-04-18T17:03:53.771Z</time></trkpt><trkpt lat="43.22327" lon="11.3325667"><ele>284.25</ele><time>2026-04-18T17:03:54.774Z</time></trkpt><trkpt lat="43.2233517" lon="11.332705"><ele>283.5</ele><time>2026-04-18T17:03:55.771Z</time></trkpt><trkpt lat="43.2234267" lon="11.3328383"><ele>282.75</ele><time>2026-04-18T17:03:56.773Z</time></trkpt><trkpt lat="43.223505" lon="11.3329583"><ele>282.0</ele><time>2026-04-18T17:03:57.767Z</time></trkpt><trkpt lat="43.2235867" lon="11.3330617"><ele>281.8</ele><time>2026-04-18T17:03:58.77Z</time></trkpt><trkpt lat="43.22367" lon="11.3331517"><ele>281.6</ele><time>2026-04-18T17:03:59.771Z</time></trkpt><trkpt lat="43.22376" lon="11.333235"><ele>281.40000000000003</ele><time>2026-04-18T17:04:00.774Z</time></trkpt><trkpt lat="43.2238417" lon="11.3333217"><ele>281.2</ele><time>2026-04-18T17:04:01.772Z</time></trkpt><trkpt lat="43.2239333" lon="11.3334033"><ele>281.0</ele><time>2026-04-18T17:04:02.776Z</time></trkpt><trkpt lat="43.2240283" lon="11.3334867"><ele>281.0</ele><time>2026-04-18T17:04:03.77Z</time></trkpt><trkpt lat="43.224125" lon="11.33358"><ele>281.0</ele><time>2026-04-18T17:04:04.77Z</time></trkpt><trkpt lat="43.2242233" lon="11.33368"><ele>281.0</ele><time>2026-04-18T17:04:05.772Z</time></trkpt><trkpt lat="43.2243283" lon="11.333785"><ele>281.0</ele><time>2026-04-18T17:04:06.776Z</time></trkpt><trkpt lat="43.224445" lon="11.333905"><ele>280.33333333333337</ele><time>2026-04-18T17:04:07.773Z</time></trkpt><trkpt lat="43.2245583" lon="11.3340433"><ele>279.6666666666667</ele><time>2026-04-18T17:04:08.775Z</time></trkpt><trkpt lat="43.2246683" lon="11.3341917"><ele>279.0</ele><time>2026-04-18T17:04:09.77Z</time></trkpt><trkpt lat="43.22477" lon="11.3343517"><ele>278.3333333333333</ele><time>2026-04-18T17:04:10.767Z</time></trkpt><trkpt lat="43.2248733" lon="11.334525"><ele>277.66666666666663</ele><time>2026-04-18T17:04:11.772Z</time></trkpt><trkpt lat="43.2249783" lon="11.3347067"><ele>277.0</ele><time>2026-04-18T17:04:12.771Z</time></trkpt><trkpt lat="43.2250917" lon="11.3348883"><ele>277.0</ele><time>2026-04-18T17:04:13.772Z</time></trkpt><trkpt lat="43.2252117" lon="11.3350617"><ele>277.0</ele><time>2026-04-18T17:04:14.773Z</time></trkpt><trkpt lat="43.22533" lon="11.3352317"><ele>277.0</ele><time>2026-04-18T17:04:15.772Z</time></trkpt><trkpt lat="43.225445" lon="11.3353933"><ele>277.0</ele><time>2026-04-18T17:04:16.773Z</time></trkpt><trkpt lat="43.225555" lon="11.3355467"><ele>277.0</ele><time>2026-04-18T17:04:17.772Z</time></trkpt><trkpt lat="43.22566" lon="11.3356967"><ele>277.0</ele><time>2026-04-18T17:04:18.768Z</time></trkpt><trkpt lat="43.2257667" lon="11.3358483"><ele>276.0</ele><time>2026-04-18T17:04:19.771Z</time></trkpt><trkpt lat="43.2258817" lon="11.33599"><ele>275.0</ele><time>2026-04-18T17:04:20.774Z</time></trkpt><trkpt lat="43.226015" lon="11.33612"><ele>274.0</ele><time>2026-04-18T17:04:21.772Z</time></trkpt><trkpt lat="43.226155" lon="11.3362267"><ele>274.0</ele><time>2026-04-18T17:04:22.768Z</time></trkpt><trkpt lat="43.2262967" lon="11.3363117"><ele>274.0</ele><time>2026-04-18T17:04:23.772Z</time></trkpt><trkpt lat="43.2264267" lon="11.336375"><ele>274.0</ele><time>2026-04-18T17:04:24.775Z</time></trkpt><trkpt lat="43.2265483" lon="11.3364283"><ele>274.0</ele><time>2026-04-18T17:04:25.771Z</time></trkpt><trkpt lat="43.2266617" lon="11.33647"><ele>272.75</ele><time>2026-04-18T17:04:26.774Z</time></trkpt><trkpt lat="43.226775" lon="11.3364917"><ele>271.5</ele><time>2026-04-18T17:04:27.771Z</time></trkpt><trkpt lat="43.2268867" lon="11.3364867"><ele>270.25</ele><time>2026-04-18T17:04:28.77Z</time></trkpt><trkpt lat="43.226995" lon="11.3364533"><ele>269.0</ele><time>2026-04-18T17:04:29.773Z</time></trkpt><trkpt lat="43.2271083" lon="11.3364017"><ele>267.25</ele><time>2026-04-18T17:04:30.769Z</time></trkpt><trkpt lat="43.22724" lon="11.3363567"><ele>265.5</ele><time>2026-04-18T17:04:31.77Z</time></trkpt><trkpt lat="43.2273767" lon="11.3363317"><ele>263.75</ele><time>2026-04-18T17:04:32.774Z</time></trkpt><trkpt lat="43.22752" lon="11.3363167"><ele>262.0</ele><time>2026-04-18T17:04:33.771Z</time></trkpt><trkpt lat="43.227665" lon="11.3363233"><ele>260.0</ele><time>2026-04-18T17:04:34.768Z</time></trkpt><trkpt lat="43.2278167" lon="11.3363417"><ele>258.0</ele><time>2026-04-18T17:04:35.771Z</time></trkpt><trkpt lat="43.2279667" lon="11.3363617"><ele>256.0</ele><time>2026-04-18T17:04:36.773Z</time></trkpt><trkpt lat="43.2281167" lon="11.3363817"><ele>255.25</ele><time>2026-04-18T17:04:37.771Z</time></trkpt><trkpt lat="43.2282617" lon="11.3364"><ele>254.5</ele><time>2026-04-18T17:04:38.774Z</time></trkpt><trkpt lat="43.2284083" lon="11.3364267"><ele>253.75</ele><time>2026-04-18T17:04:39.771Z</time></trkpt><trkpt lat="43.2285567" lon="11.3364617"><ele>253.0</ele><time>2026-04-18T17:04:40.771Z</time></trkpt><trkpt lat="43.2287133" lon="11.33651"><ele>253.0</ele><time>2026-04-18T17:04:41.773Z</time></trkpt><trkpt lat="43.22887" lon="11.336575"><ele>253.0</ele><time>2026-04-18T17:04:42.773Z</time></trkpt><trkpt lat="43.2290217" lon="11.3366483"><ele>253.0</ele><time>2026-04-18T17:04:43.771Z</time></trkpt><trkpt lat="43.22918" lon="11.3367267"><ele>251.33333333333331</ele><time>2026-04-18T17:04:44.776Z</time></trkpt><trkpt lat="43.22933" lon="11.3368117"><ele>249.66666666666669</ele><time>2026-04-18T17:04:45.772Z</time></trkpt><trkpt lat="43.2294733" lon="11.3368917"><ele>248.0</ele><time>2026-04-18T17:04:46.771Z</time></trkpt><trkpt lat="43.22961" lon="11.33697"><ele>248.0</ele><time>2026-04-18T17:04:47.772Z</time></trkpt><trkpt lat="43.2297467" lon="11.3370467"><ele>248.0</ele><time>2026-04-18T17:04:48.772Z</time></trkpt><trkpt lat="43.229885" lon="11.33712"><ele>248.0</ele><time>2026-04-18T17:04:49.772Z</time></trkpt><trkpt lat="43.2300167" lon="11.3371917"><ele>248.0</ele><time>2026-04-18T17:04:50.773Z</time></trkpt><trkpt lat="43.2301517" lon="11.337255"><ele>246.25</ele><time>2026-04-18T17:04:51.771Z</time></trkpt><trkpt lat="43.230285" lon="11.3373017"><ele>244.5</ele><time>2026-04-18T17:04:52.767Z</time></trkpt><trkpt lat="43.2304233" lon="11.3373433"><ele>242.75</ele><time>2026-04-18T17:04:53.77Z</time></trkpt><trkpt lat="43.23056" lon="11.3373833"><ele>241.0</ele><time>2026-04-18T17:04:54.772Z</time></trkpt><trkpt lat="43.2306967" lon="11.3374167"><ele>241.0</ele><time>2026-04-18T17:04:55.769Z</time></trkpt><trkpt lat="43.2308333" lon="11.3374533"><ele>241.0</ele><time>2026-04-18T17:04:56.774Z</time></trkpt><trkpt lat="43.2309683" lon="11.3375"><ele>241.0</ele><time>2026-04-18T17:04:57.771Z</time></trkpt><trkpt lat="43.2311033" lon="11.337555"><ele>241.0</ele><time>2026-04-18T17:04:58.77Z</time></trkpt><trkpt lat="43.231235" lon="11.3376183"><ele>241.0</ele><time>2026-04-18T17:04:59.767Z</time></trkpt><trkpt lat="43.2313583" lon="11.3376967"><ele>241.0</ele><time>2026-04-18T17:05:00.775Z</time></trkpt><trkpt lat="43.23148" lon="11.3377817"><ele>241.0</ele><time>2026-04-18T17:05:01.768Z</time></trkpt><trkpt lat="43.2316033" lon="11.3378583"><ele>241.0</ele><time>2026-04-18T17:05:02.772Z</time></trkpt><trkpt lat="43.23173" lon="11.3379267"><ele>240.25</ele><time>2026-04-18T17:05:03.767Z</time></trkpt><trkpt lat="43.2318517" lon="11.337955"><ele>239.5</ele><time>2026-04-18T17:05:04.77Z</time></trkpt><trkpt lat="43.2319683" lon="11.3379417"><ele>238.75</ele><time>2026-04-18T17:05:05.771Z</time></trkpt><trkpt lat="43.2320767" lon="11.337895"><ele>238.0</ele><time>2026-04-18T17:05:06.772Z</time></trkpt><trkpt lat="43.2321783" lon="11.337835"><ele>238.0</ele><time>2026-04-18T17:05:07.773Z</time></trkpt><trkpt lat="43.232275" lon="11.3377683"><ele>238.0</ele><time>2026-04-18T17:05:08.772Z</time></trkpt><trkpt lat="43.2323717" lon="11.3377083"><ele>238.0</ele><time>2026-04-18T17:05:09.771Z</time></trkpt><trkpt lat="43.2324767" lon="11.3376733"><ele>238.0</ele><time>2026-04-18T17:05:10.77Z</time></trkpt><trkpt lat="43.2325883" lon="11.3376683"><ele>238.0</ele><time>2026-04-18T17:05:11.772Z</time></trkpt><trkpt lat="43.2326883" lon="11.3377"><ele>238.2</ele><time>2026-04-18T17:05:12.772Z</time></trkpt><trkpt lat="43.2327933" lon="11.337755"><ele>238.4</ele><time>2026-04-18T17:05:13.771Z</time></trkpt><trkpt lat="43.2328817" lon="11.33784"><ele>238.59999999999997</ele><time>2026-04-18T17:05:14.775Z</time></trkpt><trkpt lat="43.23296" lon="11.3379417"><ele>238.79999999999998</ele><time>2026-04-18T17:05:15.769Z</time></trkpt><trkpt lat="43.2330333" lon="11.3380433"><ele>239.0</ele><time>2026-04-18T17:05:16.772Z</time></trkpt><trkpt lat="43.2331067" lon="11.338145"><ele>237.25</ele><time>2026-04-18T17:05:17.771Z</time></trkpt><trkpt lat="43.2331883" lon="11.3382517"><ele>235.5</ele><time>2026-04-18T17:05:18.773Z</time></trkpt><trkpt lat="43.2332717" lon="11.338355"><ele>233.75</ele><time>2026-04-18T17:05:19.77Z</time></trkpt><trkpt lat="43.23336" lon="11.3384633"><ele>232.0</ele><time>2026-04-18T17:05:20.774Z</time></trkpt><trkpt lat="43.2334483" lon="11.3385683"><ele>232.0</ele><time>2026-04-18T17:05:21.771Z</time></trkpt><trkpt lat="43.2335317" lon="11.3386733"><ele>232.0</ele><time>2026-04-18T17:05:22.771Z</time></trkpt><trkpt lat="43.233615" lon="11.3387767"><ele>232.0</ele><time>2026-04-18T17:05:23.773Z</time></trkpt><trkpt lat="43.2336933" lon="11.33888"><ele>232.0</ele><time>2026-04-18T17:05:24.775Z</time></trkpt><trkpt lat="43.2337633" lon="11.338995"><ele>232.0</ele><time>2026-04-18T17:05:25.772Z</time></trkpt><trkpt lat="43.2338133" lon="11.3391267"><ele>232.25</ele><time>2026-04-18T17:05:26.774Z</time></trkpt><trkpt lat="43.2338417" lon="11.3392767"><ele>232.5</ele><time>2026-04-18T17:05:27.77Z</time></trkpt><trkpt lat="43.2338517" lon="11.3394333"><ele>232.75</ele><time>2026-04-18T17:05:28.77Z</time></trkpt><trkpt lat="43.2338433" lon="11.33959"><ele>233.0</ele><time>2026-04-18T17:05:29.772Z</time></trkpt><trkpt lat="43.233825" lon="11.339745"><ele>233.0</ele><time>2026-04-18T17:05:30.771Z</time></trkpt><trkpt lat="43.233815" lon="11.3398983"><ele>233.0</ele><time>2026-04-18T17:05:31.77Z</time></trkpt><trkpt lat="43.2338317" lon="11.340045"><ele>233.0</ele><time>2026-04-18T17:05:32.774Z</time></trkpt><trkpt lat="43.233875" lon="11.3401783"><ele>233.0</ele><time>2026-04-18T17:05:33.773Z</time></trkpt><trkpt lat="43.2339467" lon="11.34028"><ele>233.0</ele><time>2026-04-18T17:05:34.77Z</time></trkpt><trkpt lat="43.2340367" lon="11.3403467"><ele>231.0</ele><time>2026-04-18T17:05:35.773Z</time></trkpt><trkpt lat="43.234135" lon="11.340375"><ele>229.0</ele><time>2026-04-18T17:05:36.772Z</time></trkpt><trkpt lat="43.2342417" lon="11.3403617"><ele>227.0</ele><time>2026-04-18T17:05:37.77Z</time></trkpt><trkpt lat="43.2343467" lon="11.34032"><ele>225.0</ele><time>2026-04-18T17:05:38.775Z</time></trkpt><trkpt lat="43.23444" lon="11.3402717"><ele>223.0</ele><time>2026-04-18T17:05:39.773Z</time></trkpt><trkpt lat="43.23453" lon="11.34022"><ele>223.0</ele><time>2026-04-18T17:05:40.771Z</time></trkpt><trkpt lat="43.2346233" lon="11.3401833"><ele>223.0</ele><time>2026-04-18T17:05:41.77Z</time></trkpt><trkpt lat="43.2347317" lon="11.34016"><ele>223.0</ele><time>2026-04-18T17:05:42.771Z</time></trkpt><trkpt lat="43.2348367" lon="11.3401583"><ele>223.0</ele><time>2026-04-18T17:05:43.771Z</time></trkpt><trkpt lat="43.2349517" lon="11.3401817"><ele>223.0</ele><time>2026-04-18T17:05:44.773Z</time></trkpt><trkpt lat="43.2350667" lon="11.3402267"><ele>221.75</ele><time>2026-04-18T17:05:45.772Z</time></trkpt><trkpt lat="43.2351683" lon="11.3403067"><ele>220.5</ele><time>2026-04-18T17:05:46.771Z</time></trkpt><trkpt lat="43.2352567" lon="11.340405"><ele>219.25</ele><time>2026-04-18T17:05:47.77Z</time></trkpt><trkpt lat="43.2353283" lon="11.34052"><ele>218.0</ele><time>2026-04-18T17:05:48.773Z</time></trkpt><trkpt lat="43.2354" lon="11.3406333"><ele>218.2</ele><time>2026-04-18T17:05:49.771Z</time></trkpt><trkpt lat="43.2354733" lon="11.3407383"><ele>218.4</ele><time>2026-04-18T17:05:50.761Z</time></trkpt><trkpt lat="43.23555" lon="11.3408283"><ele>218.59999999999997</ele><time>2026-04-18T17:05:51.771Z</time></trkpt><trkpt lat="43.235635" lon="11.34089"><ele>218.79999999999998</ele><time>2026-04-18T17:05:52.772Z</time></trkpt><trkpt lat="43.2357217" lon="11.3409167"><ele>219.0</ele><time>2026-04-18T17:05:53.771Z</time></trkpt><trkpt lat="43.23581" lon="11.3409067"><ele>219.0</ele><time>2026-04-18T17:05:54.777Z</time></trkpt><trkpt lat="43.2359" lon="11.3408583"><ele>218.99999999999997</ele><time>2026-04-18T17:05:55.772Z</time></trkpt><trkpt lat="43.2359883" lon="11.3407783"><ele>218.99999999999997</ele><time>2026-04-18T17:05:56.773Z</time></trkpt><trkpt lat="43.2360533" lon="11.3406667"><ele>219.0</ele><time>2026-04-18T17:05:57.773Z</time></trkpt><trkpt lat="43.2361017" lon="11.34053"><ele>219.0</ele><time>2026-04-18T17:05:58.772Z</time></trkpt><trkpt lat="43.23614" lon="11.3403883"><ele>218.2</ele><time>2026-04-18T17:05:59.772Z</time></trkpt><trkpt lat="43.2361833" lon="11.340255"><ele>217.39999999999998</ele><time>2026-04-18T17:06:00.768Z</time></trkpt><trkpt lat="43.236235" lon="11.34014"><ele>216.6</ele><time>2026-04-18T17:06:01.772Z</time></trkpt><trkpt lat="43.2363017" lon="11.340055"><ele>215.8</ele><time>2026-04-18T17:06:02.773Z</time></trkpt><trkpt lat="43.23638" lon="11.3399867"><ele>215.0</ele><time>2026-04-18T17:06:03.77Z</time></trkpt><trkpt lat="43.2364767" lon="11.3399483"><ele>215.0</ele><time>2026-04-18T17:06:04.772Z</time></trkpt><trkpt lat="43.2365833" lon="11.3399417"><ele>215.0</ele><time>2026-04-18T17:06:05.769Z</time></trkpt><trkpt lat="43.236695" lon="11.33996"><ele>215.0</ele><time>2026-04-18T17:06:06.769Z</time></trkpt><trkpt lat="43.236805" lon="11.33999"><ele>215.0</ele><time>2026-04-18T17:06:07.769Z</time></trkpt><trkpt lat="43.2369183" lon="11.3400167"><ele>215.0</ele><time>2026-04-18T17:06:08.774Z</time></trkpt><trkpt lat="43.2370333" lon="11.340035"><ele>215.0</ele><time>2026-04-18T17:06:09.769Z</time></trkpt><trkpt lat="43.2371517" lon="11.3400317"><ele>215.0</ele><time>2026-04-18T17:06:10.772Z</time></trkpt><trkpt lat="43.23727" lon="11.34001"><ele>215.0</ele><time>2026-04-18T17:06:11.771Z</time></trkpt><trkpt lat="43.2373733" lon="11.3399667"><ele>215.0</ele><time>2026-04-18T17:06:12.77Z</time></trkpt><trkpt lat="43.2374733" lon="11.339915"><ele>214.2</ele><time>2026-04-18T17:06:13.772Z</time></trkpt><trkpt lat="43.2375717" lon="11.339865"><ele>213.4</ele><time>2026-04-18T17:06:14.773Z</time></trkpt><trkpt lat="43.2376683" lon="11.3398117"><ele>212.60000000000002</ele><time>2026-04-18T17:06:15.772Z</time></trkpt><trkpt lat="43.237765" lon="11.3397683"><ele>211.8</ele><time>2026-04-18T17:06:16.772Z</time></trkpt><trkpt lat="43.237865" lon="11.3397617"><ele>211.0</ele><time>2026-04-18T17:06:17.77Z</time></trkpt><trkpt lat="43.2379583" lon="11.339795"><ele>211.0</ele><time>2026-04-18T17:06:18.769Z</time></trkpt><trkpt lat="43.23803" lon="11.3398683"><ele>211.0</ele><time>2026-04-18T17:06:19.768Z</time></trkpt><trkpt lat="43.23809" lon="11.3399617"><ele>211.0</ele><time>2026-04-18T17:06:20.771Z</time></trkpt><trkpt lat="43.2381283" lon="11.3400733"><ele>211.0</ele><time>2026-04-18T17:06:21.769Z</time></trkpt><trkpt lat="43.2381567" lon="11.3401917"><ele>211.0</ele><time>2026-04-18T17:06:22.77Z</time></trkpt><trkpt lat="43.238185" lon="11.34031"><ele>210.8</ele><time>2026-04-18T17:06:23.765Z</time></trkpt><trkpt lat="43.2382267" lon="11.3404233"><ele>210.60000000000002</ele><time>2026-04-18T17:06:24.79Z</time></trkpt><trkpt lat="43.2382767" lon="11.3405233"><ele>210.4</ele><time>2026-04-18T17:06:25.77Z</time></trkpt><trkpt lat="43.2383433" lon="11.3406"><ele>210.2</ele><time>2026-04-18T17:06:26.774Z</time></trkpt><trkpt lat="43.2384433" lon="11.34065"><ele>210.0</ele><time>2026-04-18T17:06:27.769Z</time></trkpt><trkpt lat="43.2385567" lon="11.3406467"><ele>210.0</ele><time>2026-04-18T17:06:28.769Z</time></trkpt><trkpt lat="43.2386717" lon="11.34059"><ele>210.0</ele><time>2026-04-18T17:06:29.772Z</time></trkpt><trkpt lat="43.2387833" lon="11.3404867"><ele>210.0</ele><time>2026-04-18T17:06:30.77Z</time></trkpt><trkpt lat="43.2388833" lon="11.3403733"><ele>210.0</ele><time>2026-04-18T17:06:31.769Z</time></trkpt><trkpt lat="43.23898" lon="11.3402533"><ele>209.25</ele><time>2026-04-18T17:06:32.771Z</time></trkpt><trkpt lat="43.2390783" lon="11.3401383"><ele>208.5</ele><time>2026-04-18T17:06:33.769Z</time></trkpt><trkpt lat="43.2391817" lon="11.3400333"><ele>207.75</ele><time>2026-04-18T17:06:34.77Z</time></trkpt><trkpt lat="43.2392883" lon="11.3399333"><ele>207.0</ele><time>2026-04-18T17:06:35.768Z</time></trkpt><trkpt lat="43.2394033" lon="11.339845"><ele>207.0</ele><time>2026-04-18T17:06:36.769Z</time></trkpt><trkpt lat="43.23952" lon="11.3397533"><ele>207.0</ele><time>2026-04-18T17:06:37.768Z</time></trkpt><trkpt lat="43.2396383" lon="11.33966"><ele>207.0</ele><time>2026-04-18T17:06:38.778Z</time></trkpt><trkpt lat="43.23976" lon="11.33956"><ele>207.0</ele><time>2026-04-18T17:06:39.768Z</time></trkpt><trkpt lat="43.2398883" lon="11.339465"><ele>205.33333333333331</ele><time>2026-04-18T17:06:40.769Z</time></trkpt><trkpt lat="43.2400267" lon="11.3393817"><ele>203.66666666666666</ele><time>2026-04-18T17:06:41.768Z</time></trkpt><trkpt lat="43.2401667" lon="11.339315"><ele>202.0</ele><time>2026-04-18T17:06:42.77Z</time></trkpt><trkpt lat="43.240315" lon="11.3392633"><ele>202.0</ele><time>2026-04-18T17:06:43.768Z</time></trkpt><trkpt lat="43.2404633" lon="11.3392267"><ele>202.0</ele><time>2026-04-18T17:06:44.77Z</time></trkpt><trkpt lat="43.2406083" lon="11.339185"><ele>202.0</ele><time>2026-04-18T17:06:45.766Z</time></trkpt><trkpt lat="43.2407517" lon="11.339145"><ele>202.0</ele><time>2026-04-18T17:06:46.769Z</time></trkpt><trkpt lat="43.2408883" lon="11.339105"><ele>202.5</ele><time>2026-04-18T17:06:47.769Z</time></trkpt><trkpt lat="43.24102" lon="11.3390617"><ele>203.0</ele><time>2026-04-18T17:06:48.768Z</time></trkpt><trkpt lat="43.241145" lon="11.3390317"><ele>203.5</ele><time>2026-04-18T17:06:49.771Z</time></trkpt><trkpt lat="43.241265" lon="11.3390133"><ele>204.0</ele><time>2026-04-18T17:06:50.77Z</time></trkpt><trkpt lat="43.2413867" lon="11.3390217"><ele>203.5</ele><time>2026-04-18T17:06:51.769Z</time></trkpt><trkpt lat="43.24151" lon="11.3390567"><ele>203.0</ele><time>2026-04-18T17:06:52.769Z</time></trkpt><trkpt lat="43.241635" lon="11.3391217"><ele>202.5</ele><time>2026-04-18T17:06:53.769Z</time></trkpt><trkpt lat="43.2417467" lon="11.3392183"><ele>202.0</ele><time>2026-04-18T17:06:54.768Z</time></trkpt><trkpt lat="43.2418333" lon="11.3393433"><ele>202.0</ele><time>2026-04-18T17:06:55.769Z</time></trkpt><trkpt lat="43.2418917" lon="11.3394867"><ele>202.0</ele><time>2026-04-18T17:06:56.77Z</time></trkpt><trkpt lat="43.2419217" lon="11.3396383"><ele>202.0</ele><time>2026-04-18T17:06:57.77Z</time></trkpt><trkpt lat="43.2419383" lon="11.3397867"><ele>202.0</ele><time>2026-04-18T17:06:58.766Z</time></trkpt><trkpt lat="43.2419467" lon="11.3399217"><ele>202.0</ele><time>2026-04-18T17:06:59.771Z</time></trkpt><trkpt lat="43.2419567" lon="11.3400483"><ele>201.66666666666666</ele><time>2026-04-18T17:07:00.773Z</time></trkpt><trkpt lat="43.2419817" lon="11.3401583"><ele>201.33333333333331</ele><time>2026-04-18T17:07:01.772Z</time></trkpt><trkpt lat="43.2420283" lon="11.3402533"><ele>201.0</ele><time>2026-04-18T17:07:02.768Z</time></trkpt><trkpt lat="43.2420917" lon="11.340335"><ele>200.66666666666669</ele><time>2026-04-18T17:07:03.767Z</time></trkpt><trkpt lat="43.2421667" lon="11.3403967"><ele>200.33333333333334</ele><time>2026-04-18T17:07:04.771Z</time></trkpt><trkpt lat="43.2422517" lon="11.3404167"><ele>200.0</ele><time>2026-04-18T17:07:05.771Z</time></trkpt><trkpt lat="43.2423517" lon="11.3403917"><ele>200.0</ele><time>2026-04-18T17:07:06.772Z</time></trkpt><trkpt lat="43.2424567" lon="11.3403283"><ele>200.0</ele><time>2026-04-18T17:07:07.771Z</time></trkpt><trkpt lat="43.2425617" lon="11.3402517"><ele>200.0</ele><time>2026-04-18T17:07:08.774Z</time></trkpt><trkpt lat="43.242675" lon="11.3401783"><ele>200.0</ele><time>2026-04-18T17:07:09.77Z</time></trkpt><trkpt lat="43.24279" lon="11.3401167"><ele>200.0</ele><time>2026-04-18T17:07:10.77Z</time></trkpt><trkpt lat="43.24292" lon="11.3400733"><ele>200.0</ele><time>2026-04-18T17:07:11.768Z</time></trkpt><trkpt lat="43.2430583" lon="11.34005"><ele>200.0</ele><time>2026-04-18T17:07:12.768Z</time></trkpt><trkpt lat="43.243205" lon="11.3400667"><ele>200.0</ele><time>2026-04-18T17:07:13.768Z</time></trkpt><trkpt lat="43.2433583" lon="11.3401183"><ele>199.33333333333334</ele><time>2026-04-18T17:07:14.77Z</time></trkpt><trkpt lat="43.2435183" lon="11.34019"><ele>198.66666666666669</ele><time>2026-04-18T17:07:15.769Z</time></trkpt><trkpt lat="43.2436983" lon="11.3402583"><ele>198.0</ele><time>2026-04-18T17:07:16.772Z</time></trkpt><trkpt lat="43.24391" lon="11.3403417"><ele>195.5</ele><time>2026-04-18T17:07:17.771Z</time></trkpt><trkpt lat="43.2441483" lon="11.3404483"><ele>193.0</ele><time>2026-04-18T17:07:18.768Z</time></trkpt><trkpt lat="43.2443967" lon="11.3405683"><ele>195.0</ele><time>2026-04-18T17:07:19.769Z</time></trkpt><trkpt lat="43.2446517" lon="11.3406917"><ele>197.0</ele><time>2026-04-18T17:07:20.771Z</time></trkpt><trkpt lat="43.2449067" lon="11.3407883"><ele>197.0</ele><time>2026-04-18T17:07:21.769Z</time></trkpt><trkpt lat="43.2451733" lon="11.3408517"><ele>197.0</ele><time>2026-04-18T17:07:22.771Z</time></trkpt><trkpt lat="43.2454433" lon="11.34089"><ele>195.5</ele><time>2026-04-18T17:07:23.77Z</time></trkpt><trkpt lat="43.2457133" lon="11.3409067"><ele>194.0</ele><time>2026-04-18T17:07:24.769Z</time></trkpt><trkpt lat="43.245985" lon="11.3409217"><ele>194.0</ele><time>2026-04-18T17:07:25.773Z</time></trkpt><trkpt lat="43.2462517" lon="11.3409367"><ele>194.0</ele><time>2026-04-18T17:07:26.771Z</time></trkpt><trkpt lat="43.2465033" lon="11.340965"><ele>192.0</ele><time>2026-04-18T17:07:27.772Z</time></trkpt><trkpt lat="43.24674" lon="11.3410167"><ele>190.0</ele><time>2026-04-18T17:07:28.77Z</time></trkpt><trkpt lat="43.2469683" lon="11.3410933"><ele>190.0</ele><time>2026-04-18T17:07:29.771Z</time></trkpt><trkpt lat="43.2471917" lon="11.34119"><ele>190.0</ele><time>2026-04-18T17:07:30.777Z</time></trkpt><trkpt lat="43.2474183" lon="11.3412967"><ele>189.0</ele><time>2026-04-18T17:07:31.77Z</time></trkpt><trkpt lat="43.2476567" lon="11.34138"><ele>188.0</ele><time>2026-04-18T17:07:32.771Z</time></trkpt><trkpt lat="43.2479067" lon="11.3414467"><ele>187.0</ele><time>2026-04-18T17:07:33.768Z</time></trkpt><trkpt lat="43.24817" lon="11.3415033"><ele>186.0</ele><time>2026-04-18T17:07:34.77Z</time></trkpt><trkpt lat="43.2484517" lon="11.341555"><ele>186.0</ele><time>2026-04-18T17:07:35.769Z</time></trkpt><trkpt lat="43.2487183" lon="11.3416083"><ele>186.0</ele><time>2026-04-18T17:07:36.772Z</time></trkpt><trkpt lat="43.248965" lon="11.3416583"><ele>186.5</ele><time>2026-04-18T17:07:37.767Z</time></trkpt><trkpt lat="43.2492017" lon="11.3417067"><ele>187.0</ele><time>2026-04-18T17:07:38.772Z</time></trkpt><trkpt lat="43.2494283" lon="11.3417333"><ele>187.0</ele><time>2026-04-18T17:07:39.769Z</time></trkpt><trkpt lat="43.249655" lon="11.3417233"><ele>187.0</ele><time>2026-04-18T17:07:40.77Z</time></trkpt><trkpt lat="43.249875" lon="11.3416633"><ele>190.5</ele><time>2026-04-18T17:07:41.769Z</time></trkpt><trkpt lat="43.2500833" lon="11.3415533"><ele>194.0</ele><time>2026-04-18T17:07:42.773Z</time></trkpt><trkpt lat="43.250285" lon="11.341395"><ele>193.0</ele><time>2026-04-18T17:07:43.771Z</time></trkpt><trkpt lat="43.2504633" lon="11.3412067"><ele>192.0</ele><time>2026-04-18T17:07:44.772Z</time></trkpt><trkpt lat="43.2506183" lon="11.34099"><ele>191.0</ele><time>2026-04-18T17:07:45.771Z</time></trkpt><trkpt lat="43.2507367" lon="11.34074"><ele>194.5</ele><time>2026-04-18T17:07:46.771Z</time></trkpt><trkpt lat="43.2508283" lon="11.340445"><ele>198.0</ele><time>2026-04-18T17:07:47.771Z</time></trkpt><trkpt lat="43.2509" lon="11.3401183"><ele>198.0</ele><time>2026-04-18T17:07:48.77Z</time></trkpt><trkpt lat="43.2509583" lon="11.339785"><ele>198.0</ele><time>2026-04-18T17:07:49.77Z</time></trkpt><trkpt lat="43.2510067" lon="11.33945"><ele>199.0</ele><time>2026-04-18T17:07:50.772Z</time></trkpt><trkpt lat="43.25104" lon="11.3391117"><ele>200.0</ele><time>2026-04-18T17:07:51.768Z</time></trkpt><trkpt lat="43.2510417" lon="11.338775"><ele>201.5</ele><time>2026-04-18T17:07:52.77Z</time></trkpt><trkpt lat="43.2510167" lon="11.3384517"><ele>203.0</ele><time>2026-04-18T17:07:53.764Z</time></trkpt><trkpt lat="43.2509633" lon="11.3381533"><ele>204.33333333333334</ele><time>2026-04-18T17:07:54.771Z</time></trkpt><trkpt lat="43.25091" lon="11.3378833"><ele>205.66666666666669</ele><time>2026-04-18T17:07:55.769Z</time></trkpt><trkpt lat="43.2508767" lon="11.33763"><ele>207.0</ele><time>2026-04-18T17:07:56.773Z</time></trkpt><trkpt lat="43.25088" lon="11.3373867"><ele>206.33333333333331</ele><time>2026-04-18T17:07:57.769Z</time></trkpt><trkpt lat="43.2509167" lon="11.337145"><ele>205.66666666666666</ele><time>2026-04-18T17:07:58.77Z</time></trkpt><trkpt lat="43.25099" lon="11.3369083"><ele>205.0</ele><time>2026-04-18T17:07:59.772Z</time></trkpt><trkpt lat="43.2510967" lon="11.3366933"><ele>205.0</ele><time>2026-04-18T17:08:00.77Z</time></trkpt><trkpt lat="43.2512383" lon="11.3365067"><ele>205.0</ele><time>2026-04-18T17:08:01.769Z</time></trkpt><trkpt lat="43.2514" lon="11.3363333"><ele>205.0</ele><time>2026-04-18T17:08:02.773Z</time></trkpt><trkpt lat="43.2515733" lon="11.3361667"><ele>206.33333333333331</ele><time>2026-04-18T17:08:03.77Z</time></trkpt><trkpt lat="43.25175" lon="11.336025"><ele>207.66666666666669</ele><time>2026-04-18T17:08:04.77Z</time></trkpt><trkpt lat="43.2519433" lon="11.3359067"><ele>209.0</ele><time>2026-04-18T17:08:05.77Z</time></trkpt><trkpt lat="43.2521467" lon="11.335835"><ele>210.33333333333334</ele><time>2026-04-18T17:08:06.773Z</time></trkpt><trkpt lat="43.2523583" lon="11.335815"><ele>211.66666666666669</ele><time>2026-04-18T17:08:07.77Z</time></trkpt><trkpt lat="43.2525667" lon="11.3358417"><ele>213.0</ele><time>2026-04-18T17:08:08.773Z</time></trkpt><trkpt lat="43.252775" lon="11.33592"><ele>213.0</ele><time>2026-04-18T17:08:09.772Z</time></trkpt><trkpt lat="43.2529733" lon="11.33602"><ele>213.0</ele><time>2026-04-18T17:08:10.769Z</time></trkpt><trkpt lat="43.2531617" lon="11.3361083"><ele>213.0</ele><time>2026-04-18T17:08:11.77Z</time></trkpt><trkpt lat="43.2533283" lon="11.336165"><ele>213.66666666666669</ele><time>2026-04-18T17:08:12.772Z</time></trkpt><trkpt lat="43.2534817" lon="11.3361517"><ele>214.33333333333334</ele><time>2026-04-18T17:08:13.77Z</time></trkpt><trkpt lat="43.2536183" lon="11.3360567"><ele>215.0</ele><time>2026-04-18T17:08:14.774Z</time></trkpt><trkpt lat="43.2537183" lon="11.33589"><ele>215.0</ele><time>2026-04-18T17:08:15.772Z</time></trkpt><trkpt lat="43.253775" lon="11.335675"><ele>215.0</ele><time>2026-04-18T17:08:16.771Z</time></trkpt><trkpt lat="43.2537833" lon="11.3354367"><ele>215.0</ele><time>2026-04-18T17:08:17.772Z</time></trkpt><trkpt lat="43.2537633" lon="11.3351917"><ele>213.33333333333334</ele><time>2026-04-18T17:08:18.771Z</time></trkpt><trkpt lat="43.2537567" lon="11.33496"><ele>211.66666666666669</ele><time>2026-04-18T17:08:19.77Z</time></trkpt><trkpt lat="43.2537783" lon="11.3347433"><ele>210.0</ele><time>2026-04-18T17:08:20.773Z</time></trkpt><trkpt lat="43.25383" lon="11.334555"><ele>209.66666666666669</ele><time>2026-04-18T17:08:21.769Z</time></trkpt><trkpt lat="43.2539233" lon="11.33439"><ele>209.33333333333334</ele><time>2026-04-18T17:08:22.768Z</time></trkpt><trkpt lat="43.2540417" lon="11.33426"><ele>209.0</ele><time>2026-04-18T17:08:23.766Z</time></trkpt><trkpt lat="43.2541867" lon="11.3342"><ele>211.66666666666669</ele><time>2026-04-18T17:08:24.774Z</time></trkpt><trkpt lat="43.2543617" lon="11.3342317"><ele>214.33333333333331</ele><time>2026-04-18T17:08:25.769Z</time></trkpt><trkpt lat="43.2545583" lon="11.3343433"><ele>217.0</ele><time>2026-04-18T17:08:26.773Z</time></trkpt><trkpt lat="43.25474" lon="11.3345083"><ele>220.0</ele><time>2026-04-18T17:08:27.772Z</time></trkpt><trkpt lat="43.2548867" lon="11.3347367"><ele>223.0</ele><time>2026-04-18T17:08:28.769Z</time></trkpt><trkpt lat="43.25503" lon="11.3349367"><ele>226.0</ele><time>2026-04-18T17:08:29.77Z</time></trkpt><trkpt lat="43.2551817" lon="11.3351067"><ele>226.0</ele><time>2026-04-18T17:08:30.77Z</time></trkpt><trkpt lat="43.2553617" lon="11.3352233"><ele>226.0</ele><time>2026-04-18T17:08:31.769Z</time></trkpt><trkpt lat="43.2555667" lon="11.3352867"><ele>226.0</ele><time>2026-04-18T17:08:32.772Z</time></trkpt><trkpt lat="43.2557917" lon="11.3352967"><ele>224.5</ele><time>2026-04-18T17:08:33.77Z</time></trkpt><trkpt lat="43.2560183" lon="11.3352883"><ele>223.0</ele><time>2026-04-18T17:08:34.77Z</time></trkpt><trkpt lat="43.2562517" lon="11.3352833"><ele>223.5</ele><time>2026-04-18T17:08:35.771Z</time></trkpt><trkpt lat="43.256485" lon="11.335285"><ele>224.0</ele><time>2026-04-18T17:08:36.771Z</time></trkpt><trkpt lat="43.2567167" lon="11.33529"><ele>224.0</ele><time>2026-04-18T17:08:37.769Z</time></trkpt><trkpt lat="43.256945" lon="11.335295"><ele>224.0</ele><time>2026-04-18T17:08:38.774Z</time></trkpt><trkpt lat="43.25717" lon="11.3353017"><ele>225.33333333333334</ele><time>2026-04-18T17:08:39.768Z</time></trkpt><trkpt lat="43.25739" lon="11.3353083"><ele>226.66666666666669</ele><time>2026-04-18T17:08:40.772Z</time></trkpt><trkpt lat="43.2576033" lon="11.3353"><ele>228.0</ele><time>2026-04-18T17:08:41.772Z</time></trkpt><trkpt lat="43.2578067" lon="11.3352567"><ele>228.0</ele><time>2026-04-18T17:08:42.771Z</time></trkpt><trkpt lat="43.2580083" lon="11.33517"><ele>228.0</ele><time>2026-04-18T17:08:43.771Z</time></trkpt><trkpt lat="43.258215" lon="11.335065"><ele>228.0</ele><time>2026-04-18T17:08:44.772Z</time></trkpt><trkpt lat="43.258425" lon="11.3349783"><ele>228.0</ele><time>2026-04-18T17:08:45.77Z</time></trkpt><trkpt lat="43.2586383" lon="11.33493"><ele>228.0</ele><time>2026-04-18T17:08:46.77Z</time></trkpt><trkpt lat="43.2588517" lon="11.33491"><ele>228.0</ele><time>2026-04-18T17:08:47.771Z</time></trkpt><trkpt lat="43.2590633" lon="11.3348783"><ele>226.33333333333331</ele><time>2026-04-18T17:08:48.771Z</time></trkpt><trkpt lat="43.2592733" lon="11.334805"><ele>224.66666666666666</ele><time>2026-04-18T17:08:49.771Z</time></trkpt><trkpt lat="43.25948" lon="11.33471"><ele>223.0</ele><time>2026-04-18T17:08:50.775Z</time></trkpt><trkpt lat="43.2596917" lon="11.3346083"><ele>220.66666666666666</ele><time>2026-04-18T17:08:51.769Z</time></trkpt><trkpt lat="43.2598983" lon="11.3345233"><ele>218.33333333333331</ele><time>2026-04-18T17:08:52.771Z</time></trkpt><trkpt lat="43.2601083" lon="11.3344717"><ele>216.0</ele><time>2026-04-18T17:08:53.77Z</time></trkpt><trkpt lat="43.2603283" lon="11.3344583"><ele>216.0</ele><time>2026-04-18T17:08:54.77Z</time></trkpt><trkpt lat="43.2605467" lon="11.3344817"><ele>216.0</ele><time>2026-04-18T17:08:55.77Z</time></trkpt><trkpt lat="43.26076" lon="11.33453"><ele>216.0</ele><time>2026-04-18T17:08:56.772Z</time></trkpt><trkpt lat="43.260975" lon="11.3346"><ele>215.33333333333331</ele><time>2026-04-18T17:08:57.77Z</time></trkpt><trkpt lat="43.2611833" lon="11.3347"><ele>214.66666666666666</ele><time>2026-04-18T17:08:58.77Z</time></trkpt><trkpt lat="43.26137" lon="11.3348267"><ele>214.0</ele><time>2026-04-18T17:08:59.772Z</time></trkpt><trkpt lat="43.2615483" lon="11.33497"><ele>215.66666666666666</ele><time>2026-04-18T17:09:00.77Z</time></trkpt><trkpt lat="43.261715" lon="11.3350917"><ele>217.33333333333331</ele><time>2026-04-18T17:09:01.772Z</time></trkpt><trkpt lat="43.261885" lon="11.3351633"><ele>219.0</ele><time>2026-04-18T17:09:02.774Z</time></trkpt><trkpt lat="43.262065" lon="11.3351667"><ele>219.0</ele><time>2026-04-18T17:09:03.769Z</time></trkpt><trkpt lat="43.2622433" lon="11.3351033"><ele>219.0</ele><time>2026-04-18T17:09:04.771Z</time></trkpt><trkpt lat="43.2624217" lon="11.3349883"><ele>219.0</ele><time>2026-04-18T17:09:05.769Z</time></trkpt><trkpt lat="43.2625983" lon="11.3348467"><ele>221.0</ele><time>2026-04-18T17:09:06.77Z</time></trkpt><trkpt lat="43.262775" lon="11.3347017"><ele>223.0</ele><time>2026-04-18T17:09:07.77Z</time></trkpt><trkpt lat="43.2629517" lon="11.33456"><ele>225.0</ele><time>2026-04-18T17:09:08.773Z</time></trkpt><trkpt lat="43.263125" lon="11.334425"><ele>225.33333333333331</ele><time>2026-04-18T17:09:09.77Z</time></trkpt><trkpt lat="43.2633033" lon="11.3342967"><ele>225.66666666666666</ele><time>2026-04-18T17:09:10.77Z</time></trkpt><trkpt lat="43.2634867" lon="11.33419"><ele>226.0</ele><time>2026-04-18T17:09:11.768Z</time></trkpt><trkpt lat="43.2636783" lon="11.3341117"><ele>226.0</ele><time>2026-04-18T17:09:12.771Z</time></trkpt><trkpt lat="43.2638783" lon="11.3340517"><ele>226.0</ele><time>2026-04-18T17:09:13.762Z</time></trkpt><trkpt lat="43.2640783" lon="11.3340033"><ele>226.0</ele><time>2026-04-18T17:09:14.774Z</time></trkpt><trkpt lat="43.2642817" lon="11.3339517"><ele>226.0</ele><time>2026-04-18T17:09:15.77Z</time></trkpt><trkpt lat="43.264485" lon="11.3338933"><ele>226.0</ele><time>2026-04-18T17:09:16.769Z</time></trkpt><trkpt lat="43.26469" lon="11.333825"><ele>226.0</ele><time>2026-04-18T17:09:17.771Z</time></trkpt><trkpt lat="43.264895" lon="11.3337467"><ele>226.0</ele><time>2026-04-18T17:09:18.77Z</time></trkpt><trkpt lat="43.265095" lon="11.333655"><ele>226.0</ele><time>2026-04-18T17:09:19.771Z</time></trkpt><trkpt lat="43.265295" lon="11.3335633"><ele>226.0</ele><time>2026-04-18T17:09:20.773Z</time></trkpt><trkpt lat="43.265495" lon="11.3334733"><ele>227.0</ele><time>2026-04-18T17:09:21.771Z</time></trkpt><trkpt lat="43.265695" lon="11.3333933"><ele>228.0</ele><time>2026-04-18T17:09:22.771Z</time></trkpt><trkpt lat="43.265895" lon="11.3333283"><ele>229.0</ele><time>2026-04-18T17:09:23.77Z</time></trkpt><trkpt lat="43.2660967" lon="11.3332733"><ele>229.0</ele><time>2026-04-18T17:09:24.77Z</time></trkpt><trkpt lat="43.2662933" lon="11.3332267"><ele>229.0</ele><time>2026-04-18T17:09:25.769Z</time></trkpt><trkpt lat="43.26649" lon="11.3331817"><ele>229.0</ele><time>2026-04-18T17:09:26.771Z</time></trkpt><trkpt lat="43.2666867" lon="11.3331433"><ele>230.0</ele><time>2026-04-18T17:09:27.77Z</time></trkpt><trkpt lat="43.266875" lon="11.3331133"><ele>231.0</ele><time>2026-04-18T17:09:28.771Z</time></trkpt><trkpt lat="43.2670533" lon="11.3330917"><ele>232.0</ele><time>2026-04-18T17:09:29.772Z</time></trkpt><trkpt lat="43.2672267" lon="11.333075"><ele>232.0</ele><time>2026-04-18T17:09:30.769Z</time></trkpt><trkpt lat="43.2674" lon="11.3330717"><ele>232.0</ele><time>2026-04-18T17:09:31.768Z</time></trkpt><trkpt lat="43.2675717" lon="11.333075"><ele>232.0</ele><time>2026-04-18T17:09:32.771Z</time></trkpt><trkpt lat="43.2677367" lon="11.3330833"><ele>232.0</ele><time>2026-04-18T17:09:33.77Z</time></trkpt><trkpt lat="43.2679" lon="11.3330933"><ele>232.0</ele><time>2026-04-18T17:09:34.77Z</time></trkpt><trkpt lat="43.2680567" lon="11.3331067"><ele>232.0</ele><time>2026-04-18T17:09:35.77Z</time></trkpt><trkpt lat="43.2682117" lon="11.33312"><ele>232.0</ele><time>2026-04-18T17:09:36.769Z</time></trkpt><trkpt lat="43.2683633" lon="11.3331317"><ele>232.0</ele><time>2026-04-18T17:09:37.77Z</time></trkpt><trkpt lat="43.2685117" lon="11.333135"><ele>232.0</ele><time>2026-04-18T17:09:38.771Z</time></trkpt><trkpt lat="43.2686583" lon="11.3331217"><ele>232.0</ele><time>2026-04-18T17:09:39.769Z</time></trkpt><trkpt lat="43.2688033" lon="11.3330867"><ele>232.0</ele><time>2026-04-18T17:09:40.771Z</time></trkpt><trkpt lat="43.2689417" lon="11.3330283"><ele>232.0</ele><time>2026-04-18T17:09:41.768Z</time></trkpt><trkpt lat="43.2690733" lon="11.33295"><ele>232.0</ele><time>2026-04-18T17:09:42.77Z</time></trkpt><trkpt lat="43.2692017" lon="11.3328533"><ele>232.0</ele><time>2026-04-18T17:09:43.77Z</time></trkpt><trkpt lat="43.2693233" lon="11.332735"><ele>232.0</ele><time>2026-04-18T17:09:44.77Z</time></trkpt><trkpt lat="43.2694383" lon="11.3326067"><ele>232.0</ele><time>2026-04-18T17:09:45.766Z</time></trkpt><trkpt lat="43.269555" lon="11.3324717"><ele>232.0</ele><time>2026-04-18T17:09:46.77Z</time></trkpt><trkpt lat="43.2696683" lon="11.3323383"><ele>233.0</ele><time>2026-04-18T17:09:47.766Z</time></trkpt><trkpt lat="43.2697783" lon="11.3322017"><ele>234.0</ele><time>2026-04-18T17:09:48.767Z</time></trkpt><trkpt lat="43.2698883" lon="11.3320667"><ele>235.0</ele><time>2026-04-18T17:09:49.769Z</time></trkpt><trkpt lat="43.27" lon="11.3319333"><ele>236.0</ele><time>2026-04-18T17:09:50.77Z</time></trkpt><trkpt lat="43.2701117" lon="11.3318"><ele>236.0</ele><time>2026-04-18T17:09:51.77Z</time></trkpt><trkpt lat="43.2702233" lon="11.331665"><ele>236.0</ele><time>2026-04-18T17:09:52.765Z</time></trkpt><trkpt lat="43.270335" lon="11.3315317"><ele>236.0</ele><time>2026-04-18T17:09:53.767Z</time></trkpt><trkpt lat="43.27045" lon="11.3314"><ele>236.0</ele><time>2026-04-18T17:09:54.772Z</time></trkpt><trkpt lat="43.2705717" lon="11.3312783"><ele>237.0</ele><time>2026-04-18T17:09:55.77Z</time></trkpt><trkpt lat="43.2707033" lon="11.3311733"><ele>238.0</ele><time>2026-04-18T17:09:56.772Z</time></trkpt><trkpt lat="43.27084" lon="11.33108"><ele>239.0</ele><time>2026-04-18T17:09:57.769Z</time></trkpt><trkpt lat="43.2709883" lon="11.3310017"><ele>239.0</ele><time>2026-04-18T17:09:58.771Z</time></trkpt><trkpt lat="43.2711417" lon="11.3309333"><ele>239.0</ele><time>2026-04-18T17:09:59.771Z</time></trkpt><trkpt lat="43.2712983" lon="11.3308783"><ele>239.0</ele><time>2026-04-18T17:10:00.771Z</time></trkpt><trkpt lat="43.27146" lon="11.3308317"><ele>239.33333333333334</ele><time>2026-04-18T17:10:01.769Z</time></trkpt><trkpt lat="43.2716267" lon="11.330795"><ele>239.66666666666669</ele><time>2026-04-18T17:10:02.773Z</time></trkpt><trkpt lat="43.2717817" lon="11.330775"><ele>240.0</ele><time>2026-04-18T17:10:03.769Z</time></trkpt><trkpt lat="43.2719333" lon="11.330765"><ele>240.0</ele><time>2026-04-18T17:10:04.769Z</time></trkpt><trkpt lat="43.2720767" lon="11.330755"><ele>240.0</ele><time>2026-04-18T17:10:05.771Z</time></trkpt><trkpt lat="43.2722217" lon="11.33074"><ele>240.0</ele><time>2026-04-18T17:10:06.768Z</time></trkpt><trkpt lat="43.272365" lon="11.3307167"><ele>240.0</ele><time>2026-04-18T17:10:07.769Z</time></trkpt><trkpt lat="43.2725033" lon="11.3306883"><ele>240.25</ele><time>2026-04-18T17:10:08.77Z</time></trkpt><trkpt lat="43.2726433" lon="11.33065"><ele>240.5</ele><time>2026-04-18T17:10:09.769Z</time></trkpt><trkpt lat="43.2727833" lon="11.330605"><ele>240.75</ele><time>2026-04-18T17:10:10.768Z</time></trkpt><trkpt lat="43.2729217" lon="11.3305483"><ele>241.0</ele><time>2026-04-18T17:10:11.77Z</time></trkpt><trkpt lat="43.2730567" lon="11.3304833"><ele>240.5</ele><time>2026-04-18T17:10:12.77Z</time></trkpt><trkpt lat="43.2731883" lon="11.3304033"><ele>240.0</ele><time>2026-04-18T17:10:13.768Z</time></trkpt><trkpt lat="43.2733183" lon="11.3303183"><ele>239.5</ele><time>2026-04-18T17:10:14.773Z</time></trkpt><trkpt lat="43.2734383" lon="11.3302283"><ele>239.0</ele><time>2026-04-18T17:10:15.771Z</time></trkpt><trkpt lat="43.2735617" lon="11.3301317"><ele>239.0</ele><time>2026-04-18T17:10:16.77Z</time></trkpt><trkpt lat="43.273685" lon="11.3300317"><ele>239.0</ele><time>2026-04-18T17:10:17.77Z</time></trkpt><trkpt lat="43.273805" lon="11.3299267"><ele>239.0</ele><time>2026-04-18T17:10:18.771Z</time></trkpt><trkpt lat="43.273925" lon="11.3298117"><ele>239.0</ele><time>2026-04-18T17:10:19.772Z</time></trkpt><trkpt lat="43.2740383" lon="11.329685"><ele>241.75</ele><time>2026-04-18T17:10:20.771Z</time></trkpt><trkpt lat="43.2741467" lon="11.3295517"><ele>244.5</ele><time>2026-04-18T17:10:21.769Z</time></trkpt><trkpt lat="43.2742517" lon="11.3294133"><ele>247.25</ele><time>2026-04-18T17:10:22.768Z</time></trkpt><trkpt lat="43.2743467" lon="11.3292667"><ele>250.0</ele><time>2026-04-18T17:10:23.77Z</time></trkpt><trkpt lat="43.27443" lon="11.32911"><ele>250.0</ele><time>2026-04-18T17:10:24.772Z</time></trkpt><trkpt lat="43.2745" lon="11.328945"><ele>250.0</ele><time>2026-04-18T17:10:25.771Z</time></trkpt><trkpt lat="43.2745633" lon="11.3287733"><ele>250.0</ele><time>2026-04-18T17:10:26.771Z</time></trkpt><trkpt lat="43.2746233" lon="11.3286"><ele>250.0</ele><time>2026-04-18T17:10:27.77Z</time></trkpt><trkpt lat="43.2746933" lon="11.32843"><ele>249.75</ele><time>2026-04-18T17:10:28.764Z</time></trkpt><trkpt lat="43.274775" lon="11.3282767"><ele>249.5</ele><time>2026-04-18T17:10:29.769Z</time></trkpt><trkpt lat="43.2748667" lon="11.3281367"><ele>249.25</ele><time>2026-04-18T17:10:30.77Z</time></trkpt><trkpt lat="43.2749717" lon="11.3280133"><ele>249.0</ele><time>2026-04-18T17:10:31.771Z</time></trkpt><trkpt lat="43.27508" lon="11.3278917"><ele>248.75</ele><time>2026-04-18T17:10:32.77Z</time></trkpt><trkpt lat="43.27519" lon="11.3277617"><ele>248.5</ele><time>2026-04-18T17:10:33.771Z</time></trkpt><trkpt lat="43.2753033" lon="11.32763"><ele>248.25</ele><time>2026-04-18T17:10:34.77Z</time></trkpt><trkpt lat="43.2754183" lon="11.3274983"><ele>248.0</ele><time>2026-04-18T17:10:35.771Z</time></trkpt><trkpt lat="43.27553" lon="11.327365"><ele>248.75</ele><time>2026-04-18T17:10:36.771Z</time></trkpt><trkpt lat="43.2756383" lon="11.3272333"><ele>249.5</ele><time>2026-04-18T17:10:37.77Z</time></trkpt><trkpt lat="43.275745" lon="11.3271067"><ele>250.25</ele><time>2026-04-18T17:10:38.773Z</time></trkpt><trkpt lat="43.2758483" lon="11.326975"><ele>251.0</ele><time>2026-04-18T17:10:39.77Z</time></trkpt><trkpt lat="43.2759567" lon="11.3268217"><ele>251.0</ele><time>2026-04-18T17:10:40.77Z</time></trkpt><trkpt lat="43.27607" lon="11.3266417"><ele>251.0</ele><time>2026-04-18T17:10:41.769Z</time></trkpt><trkpt lat="43.2761933" lon="11.3264433"><ele>251.0</ele><time>2026-04-18T17:10:42.77Z</time></trkpt><trkpt lat="43.2763233" lon="11.3262333"><ele>249.66666666666669</ele><time>2026-04-18T17:10:43.771Z</time></trkpt><trkpt lat="43.276455" lon="11.326015"><ele>248.33333333333331</ele><time>2026-04-18T17:10:44.772Z</time></trkpt><trkpt lat="43.2765883" lon="11.3257933"><ele>247.0</ele><time>2026-04-18T17:10:45.77Z</time></trkpt><trkpt lat="43.2767233" lon="11.3255633"><ele>246.0</ele><time>2026-04-18T17:10:46.77Z</time></trkpt><trkpt lat="43.2768583" lon="11.3253367"><ele>245.0</ele><time>2026-04-18T17:10:47.767Z</time></trkpt><trkpt lat="43.27699" lon="11.3251167"><ele>244.0</ele><time>2026-04-18T17:10:48.771Z</time></trkpt><trkpt lat="43.277125" lon="11.3249067"><ele>244.66666666666666</ele><time>2026-04-18T17:10:49.766Z</time></trkpt><trkpt lat="43.27727" lon="11.3247083"><ele>245.33333333333331</ele><time>2026-04-18T17:10:50.773Z</time></trkpt><trkpt lat="43.2774267" lon="11.3245283"><ele>246.0</ele><time>2026-04-18T17:10:51.77Z</time></trkpt><trkpt lat="43.2775933" lon="11.324375"><ele>246.0</ele><time>2026-04-18T17:10:52.759Z</time></trkpt><trkpt lat="43.27777" lon="11.32425"><ele>246.0</ele><time>2026-04-18T17:10:53.759Z</time></trkpt><trkpt lat="43.2779467" lon="11.32414"><ele>246.0</ele><time>2026-04-18T17:10:54.773Z</time></trkpt><trkpt lat="43.27812" lon="11.3240317"><ele>246.0</ele><time>2026-04-18T17:10:55.77Z</time></trkpt><trkpt lat="43.2782983" lon="11.32391"><ele>246.0</ele><time>2026-04-18T17:10:56.773Z</time></trkpt><trkpt lat="43.2784717" lon="11.3237733"><ele>246.0</ele><time>2026-04-18T17:10:57.77Z</time></trkpt><trkpt lat="43.2786317" lon="11.3236333"><ele>246.0</ele><time>2026-04-18T17:10:58.77Z</time></trkpt><trkpt lat="43.2787883" lon="11.3235033"><ele>246.0</ele><time>2026-04-18T17:10:59.769Z</time></trkpt><trkpt lat="43.2789567" lon="11.3234017"><ele>246.0</ele><time>2026-04-18T17:11:00.768Z</time></trkpt><trkpt lat="43.2791383" lon="11.3233317"><ele>246.0</ele><time>2026-04-18T17:11:01.771Z</time></trkpt><trkpt lat="43.279325" lon="11.3232683"><ele>246.0</ele><time>2026-04-18T17:11:02.773Z</time></trkpt><trkpt lat="43.2795083" lon="11.3231767"><ele>246.0</ele><time>2026-04-18T17:11:03.77Z</time></trkpt><trkpt lat="43.2796817" lon="11.3230433"><ele>246.66666666666669</ele><time>2026-04-18T17:11:04.771Z</time></trkpt><trkpt lat="43.2798367" lon="11.3228733"><ele>247.33333333333334</ele><time>2026-04-18T17:11:05.77Z</time></trkpt><trkpt lat="43.279985" lon="11.3226817"><ele>248.0</ele><time>2026-04-18T17:11:06.77Z</time></trkpt><trkpt lat="43.2801117" lon="11.3224717"><ele>248.0</ele><time>2026-04-18T17:11:07.769Z</time></trkpt><trkpt lat="43.2802183" lon="11.32224"><ele>248.0</ele><time>2026-04-18T17:11:08.773Z</time></trkpt><trkpt lat="43.28031" lon="11.321995"><ele>248.0</ele><time>2026-04-18T17:11:09.77Z</time></trkpt><trkpt lat="43.2803967" lon="11.3217533"><ele>248.0</ele><time>2026-04-18T17:11:10.77Z</time></trkpt><trkpt lat="43.2805067" lon="11.32153"><ele>248.0</ele><time>2026-04-18T17:11:11.772Z</time></trkpt><trkpt lat="43.2806383" lon="11.321345"><ele>248.0</ele><time>2026-04-18T17:11:12.771Z</time></trkpt><trkpt lat="43.2807983" lon="11.3212"><ele>248.0</ele><time>2026-04-18T17:11:13.77Z</time></trkpt><trkpt lat="43.28098" lon="11.321075"><ele>248.0</ele><time>2026-04-18T17:11:14.77Z</time></trkpt><trkpt lat="43.2811633" lon="11.3209467"><ele>248.0</ele><time>2026-04-18T17:11:15.77Z</time></trkpt><trkpt lat="43.281355" lon="11.320845"><ele>249.0</ele><time>2026-04-18T17:11:16.771Z</time></trkpt><trkpt lat="43.2815567" lon="11.3207683"><ele>250.0</ele><time>2026-04-18T17:11:17.769Z</time></trkpt><trkpt lat="43.2817583" lon="11.320705"><ele>251.0</ele><time>2026-04-18T17:11:18.769Z</time></trkpt><trkpt lat="43.2819617" lon="11.3206417"><ele>251.0</ele><time>2026-04-18T17:11:19.77Z</time></trkpt><trkpt lat="43.28216" lon="11.3205633"><ele>251.0</ele><time>2026-04-18T17:11:20.77Z</time></trkpt><trkpt lat="43.28235" lon="11.3204767"><ele>251.0</ele><time>2026-04-18T17:11:21.772Z</time></trkpt><trkpt lat="43.2825317" lon="11.3203917"><ele>251.33333333333334</ele><time>2026-04-18T17:11:22.769Z</time></trkpt><trkpt lat="43.2827067" lon="11.3202833"><ele>251.66666666666669</ele><time>2026-04-18T17:11:23.768Z</time></trkpt><trkpt lat="43.2828667" lon="11.3201467"><ele>252.0</ele><time>2026-04-18T17:11:24.773Z</time></trkpt><trkpt lat="43.2830217" lon="11.3199783"><ele>252.66666666666669</ele><time>2026-04-18T17:11:25.771Z</time></trkpt><trkpt lat="43.28316" lon="11.3197767"><ele>253.33333333333334</ele><time>2026-04-18T17:11:26.771Z</time></trkpt><trkpt lat="43.2832783" lon="11.3195483"><ele>254.0</ele><time>2026-04-18T17:11:27.77Z</time></trkpt><trkpt lat="43.2833733" lon="11.3193067"><ele>254.0</ele><time>2026-04-18T17:11:28.77Z</time></trkpt><trkpt lat="43.2834517" lon="11.3190717"><ele>254.0</ele><time>2026-04-18T17:11:29.768Z</time></trkpt><trkpt lat="43.2835317" lon="11.3188583"><ele>254.0</ele><time>2026-04-18T17:11:30.77Z</time></trkpt><trkpt lat="43.2836333" lon="11.31868"><ele>253.66666666666669</ele><time>2026-04-18T17:11:31.77Z</time></trkpt><trkpt lat="43.283755" lon="11.3185483"><ele>253.33333333333331</ele><time>2026-04-18T17:11:32.772Z</time></trkpt><trkpt lat="43.2838983" lon="11.31846"><ele>253.0</ele><time>2026-04-18T17:11:33.771Z</time></trkpt><trkpt lat="43.2840617" lon="11.3184033"><ele>253.0</ele><time>2026-04-18T17:11:34.766Z</time></trkpt><trkpt lat="43.2842383" lon="11.31838"><ele>253.0</ele><time>2026-04-18T17:11:35.771Z</time></trkpt><trkpt lat="43.2844167" lon="11.3183967"><ele>253.0</ele><time>2026-04-18T17:11:36.77Z</time></trkpt><trkpt lat="43.2845933" lon="11.3184433"><ele>254.0</ele><time>2026-04-18T17:11:37.77Z</time></trkpt><trkpt lat="43.2847717" lon="11.318505"><ele>255.0</ele><time>2026-04-18T17:11:38.772Z</time></trkpt><trkpt lat="43.2849383" lon="11.3185517"><ele>256.0</ele><time>2026-04-18T17:11:39.765Z</time></trkpt><trkpt lat="43.2850967" lon="11.318555"><ele>256.0</ele><time>2026-04-18T17:11:40.768Z</time></trkpt><trkpt lat="43.2852583" lon="11.31852"><ele>256.0</ele><time>2026-04-18T17:11:41.77Z</time></trkpt><trkpt lat="43.2854117" lon="11.3184533"><ele>256.0</ele><time>2026-04-18T17:11:42.77Z</time></trkpt><trkpt lat="43.2855467" lon="11.3183567"><ele>255.8</ele><time>2026-04-18T17:11:43.77Z</time></trkpt><trkpt lat="43.28567" lon="11.3182617"><ele>255.60000000000002</ele><time>2026-04-18T17:11:44.775Z</time></trkpt><trkpt lat="43.2857717" lon="11.31817"><ele>255.4</ele><time>2026-04-18T17:11:45.769Z</time></trkpt><trkpt lat="43.2858467" lon="11.3180867"><ele>255.2</ele><time>2026-04-18T17:11:46.77Z</time></trkpt><trkpt lat="43.2859017" lon="11.31803"><ele>255.0</ele><time>2026-04-18T17:11:47.771Z</time></trkpt><trkpt lat="43.2859783" lon="11.3179767"><ele>255.0</ele><time>2026-04-18T17:11:49.77Z</time></trkpt><trkpt lat="43.2859833" lon="11.317865"><ele>255.0</ele><time>2026-04-18T17:11:53.768Z</time></trkpt><trkpt lat="43.2858533" lon="11.317775"><ele>255.0</ele><time>2026-04-18T17:11:55.768Z</time></trkpt><trkpt lat="43.28578" lon="11.3177067"><ele>255.0</ele><time>2026-04-18T17:11:56.77Z</time></trkpt><trkpt lat="43.2856967" lon="11.3176067"><ele>255.0</ele><time>2026-04-18T17:11:57.77Z</time></trkpt><trkpt lat="43.2855983" lon="11.3174783"><ele>255.33333333333331</ele><time>2026-04-18T17:11:58.763Z</time></trkpt><trkpt lat="43.2854733" lon="11.317345"><ele>255.66666666666666</ele><time>2026-04-18T17:11:59.767Z</time></trkpt><trkpt lat="43.28533" lon="11.3172217"><ele>256.0</ele><time>2026-04-18T17:12:00.77Z</time></trkpt><trkpt lat="43.28517" lon="11.3171083"><ele>256.0</ele><time>2026-04-18T17:12:01.767Z</time></trkpt><trkpt lat="43.2849983" lon="11.3169883"><ele>256.0</ele><time>2026-04-18T17:12:02.773Z</time></trkpt><trkpt lat="43.2848383" lon="11.31688"><ele>256.0</ele><time>2026-04-18T17:12:03.767Z</time></trkpt><trkpt lat="43.284685" lon="11.3167783"><ele>257.66666666666663</ele><time>2026-04-18T17:12:04.769Z</time></trkpt><trkpt lat="43.2845433" lon="11.31666"><ele>259.3333333333333</ele><time>2026-04-18T17:12:05.766Z</time></trkpt><trkpt lat="43.2844017" lon="11.3165583"><ele>261.0</ele><time>2026-04-18T17:12:06.772Z</time></trkpt><trkpt lat="43.2842467" lon="11.3164367"><ele>260.0</ele><time>2026-04-18T17:12:07.77Z</time></trkpt><trkpt lat="43.28408" lon="11.3163367"><ele>259.0</ele><time>2026-04-18T17:12:08.77Z</time></trkpt><trkpt lat="43.2839017" lon="11.3162283"><ele>258.0</ele><time>2026-04-18T17:12:09.769Z</time></trkpt><trkpt lat="43.283705" lon="11.316115"><ele>257.0</ele><time>2026-04-18T17:12:10.77Z</time></trkpt><trkpt lat="43.283475" lon="11.31597"><ele>256.0</ele><time>2026-04-18T17:12:11.76Z</time></trkpt><trkpt lat="43.2832167" lon="11.3158183"><ele>252.0</ele><time>2026-04-18T17:12:12.772Z</time></trkpt><trkpt lat="43.28297" lon="11.31568"><ele>248.0</ele><time>2026-04-18T17:12:13.77Z</time></trkpt><trkpt lat="43.2827433" lon="11.3155517"><ele>248.0</ele><time>2026-04-18T17:12:14.773Z</time></trkpt><trkpt lat="43.2825383" lon="11.31543"><ele>248.0</ele><time>2026-04-18T17:12:15.769Z</time></trkpt><trkpt lat="43.28235" lon="11.3153167"><ele>248.0</ele><time>2026-04-18T17:12:16.769Z</time></trkpt><trkpt lat="43.28218" lon="11.3152267"><ele>246.66666666666669</ele><time>2026-04-18T17:12:17.77Z</time></trkpt><trkpt lat="43.2820383" lon="11.315125"><ele>245.33333333333331</ele><time>2026-04-18T17:12:18.771Z</time></trkpt><trkpt lat="43.2819183" lon="11.314975"><ele>244.0</ele><time>2026-04-18T17:12:19.771Z</time></trkpt><trkpt lat="43.2818133" lon="11.3148033"><ele>245.25</ele><time>2026-04-18T17:12:20.773Z</time></trkpt><trkpt lat="43.2817183" lon="11.3146367"><ele>246.5</ele><time>2026-04-18T17:12:21.771Z</time></trkpt><trkpt lat="43.2816183" lon="11.3144883"><ele>247.75</ele><time>2026-04-18T17:12:22.769Z</time></trkpt><trkpt lat="43.2814983" lon="11.3143933"><ele>249.0</ele><time>2026-04-18T17:12:23.77Z</time></trkpt><trkpt lat="43.2813683" lon="11.31436"><ele>249.0</ele><time>2026-04-18T17:12:24.771Z</time></trkpt><trkpt lat="43.2812417" lon="11.3143683"><ele>248.99999999999997</ele><time>2026-04-18T17:12:25.771Z</time></trkpt><trkpt lat="43.2811233" lon="11.3143917"><ele>248.99999999999997</ele><time>2026-04-18T17:12:26.77Z</time></trkpt><trkpt lat="43.281025" lon="11.3144033"><ele>249.0</ele><time>2026-04-18T17:12:27.769Z</time></trkpt><trkpt lat="43.28094" lon="11.3143783"><ele>249.0</ele><time>2026-04-18T17:12:28.769Z</time></trkpt><trkpt lat="43.2808617" lon="11.31432"><ele>249.0</ele><time>2026-04-18T17:12:29.771Z</time></trkpt><trkpt lat="43.2808017" lon="11.3142333"><ele>248.99999999999997</ele><time>2026-04-18T17:12:30.769Z</time></trkpt><trkpt lat="43.2807717" lon="11.3141033"><ele>248.99999999999997</ele><time>2026-04-18T17:12:31.77Z</time></trkpt><trkpt lat="43.2807717" lon="11.313935"><ele>249.0</ele><time>2026-04-18T17:12:32.773Z</time></trkpt><trkpt lat="43.2807867" lon="11.31375"><ele>249.0</ele><time>2026-04-18T17:12:33.771Z</time></trkpt><trkpt lat="43.2807817" lon="11.3135683"><ele>246.75</ele><time>2026-04-18T17:12:34.768Z</time></trkpt><trkpt lat="43.2807583" lon="11.3134033"><ele>244.5</ele><time>2026-04-18T17:12:35.77Z</time></trkpt><trkpt lat="43.2806883" lon="11.3132483"><ele>242.25</ele><time>2026-04-18T17:12:36.766Z</time></trkpt><trkpt lat="43.2805967" lon="11.3130867"><ele>240.0</ele><time>2026-04-18T17:12:37.77Z</time></trkpt><trkpt lat="43.2805033" lon="11.312915"><ele>235.33333333333331</ele><time>2026-04-18T17:12:38.773Z</time></trkpt><trkpt lat="43.280435" lon="11.312705"><ele>230.66666666666666</ele><time>2026-04-18T17:12:39.772Z</time></trkpt><trkpt lat="43.280385" lon="11.3124633"><ele>226.0</ele><time>2026-04-18T17:12:40.77Z</time></trkpt><trkpt lat="43.2803583" lon="11.3122017"><ele>224.66666666666666</ele><time>2026-04-18T17:12:41.771Z</time></trkpt><trkpt lat="43.2803417" lon="11.311935"><ele>223.33333333333331</ele><time>2026-04-18T17:12:42.769Z</time></trkpt><trkpt lat="43.2803267" lon="11.3116633"><ele>222.0</ele><time>2026-04-18T17:12:43.769Z</time></trkpt><trkpt lat="43.28032" lon="11.3113883"><ele>221.33333333333331</ele><time>2026-04-18T17:12:44.773Z</time></trkpt><trkpt lat="43.2803333" lon="11.31112"><ele>220.66666666666666</ele><time>2026-04-18T17:12:45.771Z</time></trkpt><trkpt lat="43.2803583" lon="11.3108533"><ele>220.0</ele><time>2026-04-18T17:12:46.769Z</time></trkpt><trkpt lat="43.280385" lon="11.3105883"><ele>220.33333333333331</ele><time>2026-04-18T17:12:47.77Z</time></trkpt><trkpt lat="43.2804033" lon="11.3103233"><ele>220.66666666666669</ele><time>2026-04-18T17:12:48.77Z</time></trkpt><trkpt lat="43.2804167" lon="11.3100533"><ele>221.0</ele><time>2026-04-18T17:12:49.771Z</time></trkpt><trkpt lat="43.2804217" lon="11.30979"><ele>220.66666666666669</ele><time>2026-04-18T17:12:50.773Z</time></trkpt><trkpt lat="43.2804183" lon="11.3095283"><ele>220.33333333333331</ele><time>2026-04-18T17:12:51.769Z</time></trkpt><trkpt lat="43.2804067" lon="11.3092667"><ele>220.0</ele><time>2026-04-18T17:12:52.771Z</time></trkpt><trkpt lat="43.2803833" lon="11.3090083"><ele>220.33333333333331</ele><time>2026-04-18T17:12:53.77Z</time></trkpt><trkpt lat="43.2803583" lon="11.3087583"><ele>220.66666666666669</ele><time>2026-04-18T17:12:54.771Z</time></trkpt><trkpt lat="43.280335" lon="11.3085"><ele>221.0</ele><time>2026-04-18T17:12:55.769Z</time></trkpt><trkpt lat="43.2803267" lon="11.3082433"><ele>222.66666666666669</ele><time>2026-04-18T17:12:56.771Z</time></trkpt><trkpt lat="43.28034" lon="11.307985"><ele>224.33333333333331</ele><time>2026-04-18T17:12:57.77Z</time></trkpt><trkpt lat="43.28038" lon="11.307735"><ele>226.0</ele><time>2026-04-18T17:12:58.77Z</time></trkpt><trkpt lat="43.280435" lon="11.3074917"><ele>226.0</ele><time>2026-04-18T17:12:59.769Z</time></trkpt><trkpt lat="43.2805" lon="11.3072533"><ele>226.0</ele><time>2026-04-18T17:13:00.771Z</time></trkpt><trkpt lat="43.280575" lon="11.3070267"><ele>226.0</ele><time>2026-04-18T17:13:01.77Z</time></trkpt><trkpt lat="43.2806567" lon="11.3068067"><ele>229.33333333333331</ele><time>2026-04-18T17:13:02.773Z</time></trkpt><trkpt lat="43.2807433" lon="11.3066"><ele>232.66666666666669</ele><time>2026-04-18T17:13:03.769Z</time></trkpt><trkpt lat="43.2808167" lon="11.30639"><ele>236.0</ele><time>2026-04-18T17:13:04.769Z</time></trkpt><trkpt lat="43.2808783" lon="11.3061983"><ele>237.4</ele><time>2026-04-18T17:13:05.771Z</time></trkpt><trkpt lat="43.2809233" lon="11.3060267"><ele>238.8</ele><time>2026-04-18T17:13:06.77Z</time></trkpt><trkpt lat="43.280955" lon="11.3058733"><ele>240.20000000000002</ele><time>2026-04-18T17:13:07.77Z</time></trkpt><trkpt lat="43.28098" lon="11.3057517"><ele>241.60000000000002</ele><time>2026-04-18T17:13:08.772Z</time></trkpt><trkpt lat="43.2810117" lon="11.305655"><ele>243.0</ele><time>2026-04-18T17:13:09.77Z</time></trkpt><trkpt lat="43.2810483" lon="11.305575"><ele>243.0</ele><time>2026-04-18T17:13:10.769Z</time></trkpt><trkpt lat="43.2811067" lon="11.3055167"><ele>243.0</ele><time>2026-04-18T17:13:11.77Z</time></trkpt><trkpt lat="43.281175" lon="11.3054683"><ele>243.0</ele><time>2026-04-18T17:13:12.765Z</time></trkpt><trkpt lat="43.281255" lon="11.3054283"><ele>243.0</ele><time>2026-04-18T17:13:13.769Z</time></trkpt><trkpt lat="43.281345" lon="11.30537"><ele>243.0</ele><time>2026-04-18T17:13:14.771Z</time></trkpt><trkpt lat="43.2814283" lon="11.3052933"><ele>243.0</ele><time>2026-04-18T17:13:15.762Z</time></trkpt><trkpt lat="43.2815033" lon="11.3052017"><ele>244.2</ele><time>2026-04-18T17:13:16.767Z</time></trkpt><trkpt lat="43.28157" lon="11.3050983"><ele>245.4</ele><time>2026-04-18T17:13:17.77Z</time></trkpt><trkpt lat="43.2816383" lon="11.3049833"><ele>246.59999999999997</ele><time>2026-04-18T17:13:18.771Z</time></trkpt><trkpt lat="43.2817033" lon="11.3048767"><ele>247.79999999999998</ele><time>2026-04-18T17:13:19.77Z</time></trkpt><trkpt lat="43.2817633" lon="11.30476"><ele>249.0</ele><time>2026-04-18T17:13:20.77Z</time></trkpt><trkpt lat="43.2818217" lon="11.304645"><ele>249.39999999999998</ele><time>2026-04-18T17:13:21.77Z</time></trkpt><trkpt lat="43.28188" lon="11.304535"><ele>249.79999999999998</ele><time>2026-04-18T17:13:22.765Z</time></trkpt><trkpt lat="43.28194" lon="11.3044283"><ele>250.20000000000002</ele><time>2026-04-18T17:13:23.769Z</time></trkpt><trkpt lat="43.2819983" lon="11.3043183"><ele>250.60000000000002</ele><time>2026-04-18T17:13:24.774Z</time></trkpt><trkpt lat="43.28205" lon="11.3042133"><ele>251.0</ele><time>2026-04-18T17:13:25.77Z</time></trkpt><trkpt lat="43.2821" lon="11.30412"><ele>251.00000000000003</ele><time>2026-04-18T17:13:26.77Z</time></trkpt><trkpt lat="43.2821417" lon="11.3040317"><ele>251.0</ele><time>2026-04-18T17:13:27.771Z</time></trkpt><trkpt lat="43.2821783" lon="11.303945"><ele>251.0</ele><time>2026-04-18T17:13:28.767Z</time></trkpt><trkpt lat="43.2822067" lon="11.3038667"><ele>251.0</ele><time>2026-04-18T17:13:29.769Z</time></trkpt><trkpt lat="43.2822733" lon="11.3037267"><ele>251.00000000000003</ele><time>2026-04-18T17:13:31.765Z</time></trkpt><trkpt lat="43.2823467" lon="11.30361"><ele>251.0</ele><time>2026-04-18T17:13:33.768Z</time></trkpt><trkpt lat="43.28242" lon="11.3035383"><ele>252.60000000000002</ele><time>2026-04-18T17:13:35.77Z</time></trkpt><trkpt lat="43.2824383" lon="11.3034167"><ele>254.20000000000002</ele><time>2026-04-18T17:13:42.766Z</time></trkpt><trkpt lat="43.2824167" lon="11.3033233"><ele>255.79999999999998</ele><time>2026-04-18T17:13:44.77Z</time></trkpt><trkpt lat="43.2823817" lon="11.30324"><ele>257.4</ele><time>2026-04-18T17:13:45.768Z</time></trkpt><trkpt lat="43.282335" lon="11.3031233"><ele>259.0</ele><time>2026-04-18T17:13:46.768Z</time></trkpt><trkpt lat="43.2822767" lon="11.3029717"><ele>256.75</ele><time>2026-04-18T17:13:47.767Z</time></trkpt><trkpt lat="43.2822317" lon="11.3028"><ele>254.5</ele><time>2026-04-18T17:13:48.769Z</time></trkpt><trkpt lat="43.2821983" lon="11.302615"><ele>252.25</ele><time>2026-04-18T17:13:49.768Z</time></trkpt><trkpt lat="43.2821683" lon="11.3024317"><ele>250.0</ele><time>2026-04-18T17:13:50.768Z</time></trkpt><trkpt lat="43.28214" lon="11.302235"><ele>249.33333333333331</ele><time>2026-04-18T17:13:51.769Z</time></trkpt><trkpt lat="43.2821233" lon="11.3020267"><ele>248.66666666666669</ele><time>2026-04-18T17:13:52.765Z</time></trkpt><trkpt lat="43.2821" lon="11.3018183"><ele>248.0</ele><time>2026-04-18T17:13:53.769Z</time></trkpt><trkpt lat="43.2820783" lon="11.3015967"><ele>247.66666666666669</ele><time>2026-04-18T17:13:54.77Z</time></trkpt><trkpt lat="43.28206" lon="11.3013633"><ele>247.33333333333331</ele><time>2026-04-18T17:13:55.766Z</time></trkpt><trkpt lat="43.28204" lon="11.3011283"><ele>247.0</ele><time>2026-04-18T17:13:56.767Z</time></trkpt><trkpt lat="43.2820083" lon="11.3008933"><ele>247.0</ele><time>2026-04-18T17:13:57.771Z</time></trkpt><trkpt lat="43.28198" lon="11.300665"><ele>247.0</ele><time>2026-04-18T17:13:58.769Z</time></trkpt><trkpt lat="43.281965" lon="11.3004483"><ele>247.0</ele><time>2026-04-18T17:13:59.769Z</time></trkpt><trkpt lat="43.281945" lon="11.30024"><ele>247.5</ele><time>2026-04-18T17:14:00.774Z</time></trkpt><trkpt lat="43.2819233" lon="11.300045"><ele>248.0</ele><time>2026-04-18T17:14:01.768Z</time></trkpt><trkpt lat="43.281885" lon="11.299855"><ele>248.5</ele><time>2026-04-18T17:14:02.771Z</time></trkpt><trkpt lat="43.2818283" lon="11.2996833"><ele>249.0</ele><time>2026-04-18T17:14:03.769Z</time></trkpt><trkpt lat="43.2817433" lon="11.29953"><ele>249.0</ele><time>2026-04-18T17:14:04.769Z</time></trkpt><trkpt lat="43.2816483" lon="11.29938"><ele>249.0</ele><time>2026-04-18T17:14:05.769Z</time></trkpt><trkpt lat="43.281555" lon="11.29921"><ele>249.0</ele><time>2026-04-18T17:14:06.771Z</time></trkpt><trkpt lat="43.2814633" lon="11.2990367"><ele>246.66666666666669</ele><time>2026-04-18T17:14:07.765Z</time></trkpt><trkpt lat="43.28137" lon="11.298855"><ele>244.33333333333334</ele><time>2026-04-18T17:14:08.771Z</time></trkpt><trkpt lat="43.2812533" lon="11.2986917"><ele>242.0</ele><time>2026-04-18T17:14:09.768Z</time></trkpt><trkpt lat="43.281115" lon="11.2985567"><ele>242.0</ele><time>2026-04-18T17:14:10.765Z</time></trkpt><trkpt lat="43.2809617" lon="11.29845"><ele>242.0</ele><time>2026-04-18T17:14:11.771Z</time></trkpt><trkpt lat="43.2807983" lon="11.298355"><ele>242.0</ele><time>2026-04-18T17:14:12.77Z</time></trkpt><trkpt lat="43.2806283" lon="11.298265"><ele>241.66666666666669</ele><time>2026-04-18T17:14:13.771Z</time></trkpt><trkpt lat="43.2804567" lon="11.29817"><ele>241.33333333333331</ele><time>2026-04-18T17:14:14.774Z</time></trkpt><trkpt lat="43.2802883" lon="11.29808"><ele>241.0</ele><time>2026-04-18T17:14:15.765Z</time></trkpt><trkpt lat="43.2801267" lon="11.2980067"><ele>241.0</ele><time>2026-04-18T17:14:16.765Z</time></trkpt><trkpt lat="43.279955" lon="11.2979167"><ele>241.0</ele><time>2026-04-18T17:14:17.761Z</time></trkpt><trkpt lat="43.2797867" lon="11.2978"><ele>241.0</ele><time>2026-04-18T17:14:18.773Z</time></trkpt><trkpt lat="43.2796483" lon="11.2976633"><ele>238.66666666666666</ele><time>2026-04-18T17:14:19.769Z</time></trkpt><trkpt lat="43.2795217" lon="11.2974917"><ele>236.33333333333331</ele><time>2026-04-18T17:14:20.772Z</time></trkpt><trkpt lat="43.279395" lon="11.2973033"><ele>234.0</ele><time>2026-04-18T17:14:21.77Z</time></trkpt><trkpt lat="43.279275" lon="11.297105"><ele>233.33333333333331</ele><time>2026-04-18T17:14:22.77Z</time></trkpt><trkpt lat="43.2791667" lon="11.2969017"><ele>232.66666666666666</ele><time>2026-04-18T17:14:23.771Z</time></trkpt><trkpt lat="43.2790583" lon="11.2966867"><ele>232.0</ele><time>2026-04-18T17:14:24.763Z</time></trkpt><trkpt lat="43.2789483" lon="11.2964683"><ele>233.66666666666666</ele><time>2026-04-18T17:14:25.767Z</time></trkpt><trkpt lat="43.2788367" lon="11.2962567"><ele>235.33333333333331</ele><time>2026-04-18T17:14:26.773Z</time></trkpt><trkpt lat="43.2787133" lon="11.29606"><ele>237.0</ele><time>2026-04-18T17:14:27.766Z</time></trkpt><trkpt lat="43.2785783" lon="11.295885"><ele>237.0</ele><time>2026-04-18T17:14:28.764Z</time></trkpt><trkpt lat="43.2784317" lon="11.2957183"><ele>237.0</ele><time>2026-04-18T17:14:29.768Z</time></trkpt><trkpt lat="43.2782783" lon="11.2955633"><ele>237.0</ele><time>2026-04-18T17:14:30.77Z</time></trkpt><trkpt lat="43.278115" lon="11.29542"><ele>239.33333333333331</ele><time>2026-04-18T17:14:31.768Z</time></trkpt><trkpt lat="43.2779367" lon="11.2952967"><ele>241.66666666666666</ele><time>2026-04-18T17:14:32.772Z</time></trkpt><trkpt lat="43.2777483" lon="11.295185"><ele>244.0</ele><time>2026-04-18T17:14:33.771Z</time></trkpt><trkpt lat="43.27756" lon="11.29509"><ele>244.0</ele><time>2026-04-18T17:14:34.769Z</time></trkpt><trkpt lat="43.27737" lon="11.2950033"><ele>244.0</ele><time>2026-04-18T17:14:35.766Z</time></trkpt><trkpt lat="43.2771817" lon="11.2949183"><ele>244.0</ele><time>2026-04-18T17:14:36.77Z</time></trkpt><trkpt lat="43.2769983" lon="11.2948433"><ele>244.33333333333331</ele><time>2026-04-18T17:14:37.77Z</time></trkpt><trkpt lat="43.2768117" lon="11.2947717"><ele>244.66666666666669</ele><time>2026-04-18T17:14:38.77Z</time></trkpt><trkpt lat="43.2766217" lon="11.294705"><ele>245.0</ele><time>2026-04-18T17:14:39.77Z</time></trkpt><trkpt lat="43.27643" lon="11.294645"><ele>247.33333333333334</ele><time>2026-04-18T17:14:40.768Z</time></trkpt><trkpt lat="43.276235" lon="11.2945983"><ele>249.66666666666669</ele><time>2026-04-18T17:14:41.769Z</time></trkpt><trkpt lat="43.2760417" lon="11.2945783"><ele>252.0</ele><time>2026-04-18T17:14:42.77Z</time></trkpt><trkpt lat="43.27585" lon="11.29458"><ele>252.0</ele><time>2026-04-18T17:14:43.771Z</time></trkpt><trkpt lat="43.2756583" lon="11.2946"><ele>252.0</ele><time>2026-04-18T17:14:44.771Z</time></trkpt><trkpt lat="43.2754683" lon="11.2946267"><ele>252.0</ele><time>2026-04-18T17:14:45.771Z</time></trkpt><trkpt lat="43.2752783" lon="11.2946567"><ele>251.66666666666669</ele><time>2026-04-18T17:14:46.77Z</time></trkpt><trkpt lat="43.2750833" lon="11.2946883"><ele>251.33333333333334</ele><time>2026-04-18T17:14:47.771Z</time></trkpt><trkpt lat="43.2748833" lon="11.2947183"><ele>251.0</ele><time>2026-04-18T17:14:48.769Z</time></trkpt><trkpt lat="43.2746833" lon="11.2947433"><ele>253.66666666666669</ele><time>2026-04-18T17:14:49.769Z</time></trkpt><trkpt lat="43.274485" lon="11.29476"><ele>256.3333333333333</ele><time>2026-04-18T17:14:50.773Z</time></trkpt><trkpt lat="43.2742867" lon="11.2947617"><ele>259.0</ele><time>2026-04-18T17:14:51.767Z</time></trkpt><trkpt lat="43.2740883" lon="11.2947567"><ele>255.66666666666666</ele><time>2026-04-18T17:14:52.769Z</time></trkpt><trkpt lat="43.2738883" lon="11.294735"><ele>252.33333333333331</ele><time>2026-04-18T17:14:53.771Z</time></trkpt><trkpt lat="43.2736933" lon="11.2947033"><ele>249.0</ele><time>2026-04-18T17:14:54.768Z</time></trkpt><trkpt lat="43.2735033" lon="11.2946633"><ele>249.0</ele><time>2026-04-18T17:14:55.77Z</time></trkpt><trkpt lat="43.2733133" lon="11.2946067"><ele>249.0</ele><time>2026-04-18T17:14:56.77Z</time></trkpt><trkpt lat="43.2731233" lon="11.2945267"><ele>249.0</ele><time>2026-04-18T17:14:57.77Z</time></trkpt><trkpt lat="43.2729317" lon="11.2944267"><ele>250.66666666666669</ele><time>2026-04-18T17:14:58.764Z</time></trkpt><trkpt lat="43.2727567" lon="11.2943233"><ele>252.33333333333334</ele><time>2026-04-18T17:14:59.768Z</time></trkpt><trkpt lat="43.2725883" lon="11.29422"><ele>254.0</ele><time>2026-04-18T17:15:00.772Z</time></trkpt><trkpt lat="43.2724233" lon="11.2941167"><ele>255.33333333333334</ele><time>2026-04-18T17:15:01.769Z</time></trkpt><trkpt lat="43.27226" lon="11.29402"><ele>256.6666666666667</ele><time>2026-04-18T17:15:02.77Z</time></trkpt><trkpt lat="43.2721" lon="11.2939317"><ele>258.0</ele><time>2026-04-18T17:15:03.77Z</time></trkpt><trkpt lat="43.2719467" lon="11.2938617"><ele>258.0</ele><time>2026-04-18T17:15:04.769Z</time></trkpt><trkpt lat="43.2717933" lon="11.2937967"><ele>258.0</ele><time>2026-04-18T17:15:05.766Z</time></trkpt><trkpt lat="43.2716467" lon="11.2937417"><ele>258.0</ele><time>2026-04-18T17:15:06.772Z</time></trkpt><trkpt lat="43.27151" lon="11.29369"><ele>256.0</ele><time>2026-04-18T17:15:07.771Z</time></trkpt><trkpt lat="43.2713917" lon="11.29363"><ele>254.0</ele><time>2026-04-18T17:15:08.77Z</time></trkpt><trkpt lat="43.27129" lon="11.29355"><ele>252.0</ele><time>2026-04-18T17:15:09.768Z</time></trkpt><trkpt lat="43.2712017" lon="11.293415"><ele>250.0</ele><time>2026-04-18T17:15:10.771Z</time></trkpt><trkpt lat="43.2711417" lon="11.2932267"><ele>249.66666666666666</ele><time>2026-04-18T17:15:11.769Z</time></trkpt><trkpt lat="43.2710883" lon="11.2930233"><ele>249.33333333333331</ele><time>2026-04-18T17:15:12.764Z</time></trkpt><trkpt lat="43.2710317" lon="11.2928017"><ele>249.0</ele><time>2026-04-18T17:15:13.769Z</time></trkpt><trkpt lat="43.270965" lon="11.2925883"><ele>249.0</ele><time>2026-04-18T17:15:14.771Z</time></trkpt><trkpt lat="43.2708967" lon="11.292385"><ele>249.0</ele><time>2026-04-18T17:15:15.77Z</time></trkpt><trkpt lat="43.2708267" lon="11.2921967"><ele>249.0</ele><time>2026-04-18T17:15:16.769Z</time></trkpt><trkpt lat="43.2707533" lon="11.292015"><ele>249.5</ele><time>2026-04-18T17:15:17.769Z</time></trkpt><trkpt lat="43.2706683" lon="11.29186"><ele>250.0</ele><time>2026-04-18T17:15:18.773Z</time></trkpt><trkpt lat="43.270585" lon="11.2917267"><ele>250.5</ele><time>2026-04-18T17:15:19.766Z</time></trkpt><trkpt lat="43.27046" lon="11.2916283"><ele>251.0</ele><time>2026-04-18T17:15:20.771Z</time></trkpt><trkpt lat="43.2703233" lon="11.29154"><ele>251.0</ele><time>2026-04-18T17:15:21.771Z</time></trkpt><trkpt lat="43.2701767" lon="11.2914583"><ele>251.0</ele><time>2026-04-18T17:15:22.766Z</time></trkpt><trkpt lat="43.2700317" lon="11.291385"><ele>251.0</ele><time>2026-04-18T17:15:23.77Z</time></trkpt><trkpt lat="43.269895" lon="11.291305"><ele>251.75</ele><time>2026-04-18T17:15:24.773Z</time></trkpt><trkpt lat="43.2697533" lon="11.291235"><ele>252.5</ele><time>2026-04-18T17:15:25.769Z</time></trkpt><trkpt lat="43.2696183" lon="11.2911717"><ele>253.25</ele><time>2026-04-18T17:15:26.772Z</time></trkpt><trkpt lat="43.2694883" lon="11.291115"><ele>254.0</ele><time>2026-04-18T17:15:27.77Z</time></trkpt><trkpt lat="43.2693683" lon="11.2910767"><ele>254.0</ele><time>2026-04-18T17:15:28.77Z</time></trkpt><trkpt lat="43.269255" lon="11.2910333"><ele>253.99999999999997</ele><time>2026-04-18T17:15:29.767Z</time></trkpt><trkpt lat="43.2691517" lon="11.2910133"><ele>253.99999999999997</ele><time>2026-04-18T17:15:30.771Z</time></trkpt><trkpt lat="43.2690433" lon="11.29098"><ele>254.0</ele><time>2026-04-18T17:15:31.77Z</time></trkpt><trkpt lat="43.2689333" lon="11.290935"><ele>254.0</ele><time>2026-04-18T17:15:32.77Z</time></trkpt><trkpt lat="43.2688267" lon="11.2908867"><ele>253.25</ele><time>2026-04-18T17:15:33.77Z</time></trkpt><trkpt lat="43.26872" lon="11.29081"><ele>252.5</ele><time>2026-04-18T17:15:34.767Z</time></trkpt><trkpt lat="43.2686183" lon="11.29074"><ele>251.75</ele><time>2026-04-18T17:15:35.769Z</time></trkpt><trkpt lat="43.26852" lon="11.29066"><ele>251.0</ele><time>2026-04-18T17:15:36.765Z</time></trkpt><trkpt lat="43.2684183" lon="11.2905633"><ele>251.0</ele><time>2026-04-18T17:15:37.77Z</time></trkpt><trkpt lat="43.26832" lon="11.2904667"><ele>251.00000000000003</ele><time>2026-04-18T17:15:38.772Z</time></trkpt><trkpt lat="43.26823" lon="11.2903817"><ele>251.00000000000003</ele><time>2026-04-18T17:15:39.771Z</time></trkpt><trkpt lat="43.268145" lon="11.2902917"><ele>251.0</ele><time>2026-04-18T17:15:40.769Z</time></trkpt><trkpt lat="43.2680683" lon="11.290205"><ele>251.0</ele><time>2026-04-18T17:15:41.769Z</time></trkpt><trkpt lat="43.26799" lon="11.2901283"><ele>251.66666666666669</ele><time>2026-04-18T17:15:42.77Z</time></trkpt><trkpt lat="43.267925" lon="11.2900483"><ele>252.33333333333334</ele><time>2026-04-18T17:15:43.771Z</time></trkpt><trkpt lat="43.2678867" lon="11.2899733"><ele>253.0</ele><time>2026-04-18T17:15:44.774Z</time></trkpt><trkpt lat="43.2678583" lon="11.2898583"><ele>253.66666666666669</ele><time>2026-04-18T17:15:46.772Z</time></trkpt><trkpt lat="43.2678483" lon="11.2897517"><ele>254.33333333333334</ele><time>2026-04-18T17:15:48.769Z</time></trkpt><trkpt lat="43.2678683" lon="11.2896283"><ele>255.0</ele><time>2026-04-18T17:15:50.77Z</time></trkpt><trkpt lat="43.2678983" lon="11.2895067"><ele>253.2</ele><time>2026-04-18T17:15:52.769Z</time></trkpt><trkpt lat="43.2679217" lon="11.2893717"><ele>251.4</ele><time>2026-04-18T17:15:54.768Z</time></trkpt><trkpt lat="43.26794" lon="11.2892133"><ele>249.60000000000002</ele><time>2026-04-18T17:15:56.758Z</time></trkpt><trkpt lat="43.2679567" lon="11.2890683"><ele>247.8</ele><time>2026-04-18T17:15:58.77Z</time></trkpt><trkpt lat="43.2679583" lon="11.2889233"><ele>246.0</ele><time>2026-04-18T17:16:00.77Z</time></trkpt><trkpt lat="43.26794" lon="11.2887933"><ele>244.33333333333334</ele><time>2026-04-18T17:16:02.769Z</time></trkpt><trkpt lat="43.2679367" lon="11.288695"><ele>242.66666666666669</ele><time>2026-04-18T17:16:03.77Z</time></trkpt><trkpt lat="43.2679383" lon="11.2885867"><ele>241.0</ele><time>2026-04-18T17:16:04.77Z</time></trkpt><trkpt lat="43.2679483" lon="11.2884833"><ele>239.33333333333334</ele><time>2026-04-18T17:16:05.77Z</time></trkpt><trkpt lat="43.2679583" lon="11.2883767"><ele>237.66666666666669</ele><time>2026-04-18T17:16:06.771Z</time></trkpt><trkpt lat="43.26798" lon="11.2882733"><ele>236.0</ele><time>2026-04-18T17:16:07.77Z</time></trkpt><trkpt lat="43.2680017" lon="11.288175"><ele>234.83333333333334</ele><time>2026-04-18T17:16:08.774Z</time></trkpt><trkpt lat="43.2680267" lon="11.2880833"><ele>233.66666666666669</ele><time>2026-04-18T17:16:09.768Z</time></trkpt><trkpt lat="43.2680567" lon="11.28799"><ele>232.5</ele><time>2026-04-18T17:16:10.771Z</time></trkpt><trkpt lat="43.2680883" lon="11.2879033"><ele>231.33333333333331</ele><time>2026-04-18T17:16:11.766Z</time></trkpt><trkpt lat="43.2681217" lon="11.287815"><ele>230.16666666666666</ele><time>2026-04-18T17:16:12.774Z</time></trkpt><trkpt lat="43.268155" lon="11.2877083"><ele>229.0</ele><time>2026-04-18T17:16:13.772Z</time></trkpt><trkpt lat="43.2681817" lon="11.287605"><ele>228.99999999999997</ele><time>2026-04-18T17:16:14.773Z</time></trkpt><trkpt lat="43.268205" lon="11.2874967"><ele>229.0</ele><time>2026-04-18T17:16:15.771Z</time></trkpt><trkpt lat="43.2682217" lon="11.287385"><ele>229.0</ele><time>2026-04-18T17:16:16.77Z</time></trkpt><trkpt lat="43.2682267" lon="11.2872833"><ele>229.0</ele><time>2026-04-18T17:16:17.77Z</time></trkpt><trkpt lat="43.268225" lon="11.2871817"><ele>228.99999999999997</ele><time>2026-04-18T17:16:18.764Z</time></trkpt><trkpt lat="43.2682283" lon="11.2870817"><ele>229.0</ele><time>2026-04-18T17:16:19.769Z</time></trkpt><trkpt lat="43.26823" lon="11.2869833"><ele>229.14285714285714</ele><time>2026-04-18T17:16:20.772Z</time></trkpt><trkpt lat="43.2682333" lon="11.2868817"><ele>229.28571428571428</ele><time>2026-04-18T17:16:21.77Z</time></trkpt><trkpt lat="43.2682417" lon="11.2867817"><ele>229.42857142857142</ele><time>2026-04-18T17:16:22.765Z</time></trkpt><trkpt lat="43.2682517" lon="11.286675"><ele>229.57142857142856</ele><time>2026-04-18T17:16:23.77Z</time></trkpt><trkpt lat="43.268265" lon="11.2865733"><ele>229.71428571428572</ele><time>2026-04-18T17:16:24.768Z</time></trkpt><trkpt lat="43.2682833" lon="11.286475"><ele>229.85714285714283</ele><time>2026-04-18T17:16:25.77Z</time></trkpt><trkpt lat="43.2682983" lon="11.2863783"><ele>229.99999999999997</ele><time>2026-04-18T17:16:26.77Z</time></trkpt><trkpt lat="43.26831" lon="11.28628"><ele>229.66666666666669</ele><time>2026-04-18T17:16:27.77Z</time></trkpt><trkpt lat="43.2683183" lon="11.28618"><ele>229.33333333333334</ele><time>2026-04-18T17:16:28.767Z</time></trkpt><trkpt lat="43.26833" lon="11.2860883"><ele>229.0</ele><time>2026-04-18T17:16:29.77Z</time></trkpt><trkpt lat="43.2683433" lon="11.2859567"><ele>228.66666666666669</ele><time>2026-04-18T17:16:31.771Z</time></trkpt><trkpt lat="43.2683217" lon="11.2858617"><ele>228.33333333333334</ele><time>2026-04-18T17:16:34.77Z</time></trkpt><trkpt lat="43.2682267" lon="11.28585"><ele>228.0</ele><time>2026-04-18T17:16:44.762Z</time></trkpt><trkpt lat="43.2681667" lon="11.2859"><ele>228.0</ele><time>2026-04-18T17:16:46.768Z</time></trkpt><trkpt lat="43.26813" lon="11.2859733"><ele>227.99999999999997</ele><time>2026-04-18T17:16:48.771Z</time></trkpt><trkpt lat="43.268105" lon="11.2860683"><ele>228.0</ele><time>2026-04-18T17:16:50.771Z</time></trkpt><trkpt lat="43.2680917" lon="11.2861533"><ele>228.0</ele><time>2026-04-18T17:16:52.769Z</time></trkpt><trkpt lat="43.2680867" lon="11.2862417"><ele>227.99999999999997</ele><time>2026-04-18T17:16:55.767Z</time></trkpt><trkpt lat="43.26806" lon="11.2863267"><ele>228.0</ele><time>2026-04-18T17:16:58.772Z</time></trkpt><trkpt lat="43.2679983" lon="11.2863817"><ele>228.0</ele><time>2026-04-18T17:17:03.758Z</time></trkpt><trkpt lat="43.2679583" lon="11.286485"><ele>227.0</ele><time>2026-04-18T17:17:07.769Z</time></trkpt><trkpt lat="43.26792" lon="11.2866183"><ele>226.0</ele><time>2026-04-18T17:17:09.771Z</time></trkpt><trkpt lat="43.267985" lon="11.2868517"><ele>225.0</ele><time>2026-04-18T17:17:10.765Z</time></trkpt><trkpt lat="43.2679817" lon="11.286975"><ele>224.0</ele><time>2026-04-18T17:17:12.769Z</time></trkpt><trkpt lat="43.26797" lon="11.2870833"><ele>225.33333333333334</ele><time>2026-04-18T17:17:14.759Z</time></trkpt><trkpt lat="43.267925" lon="11.28727"><ele>226.66666666666669</ele><time>2026-04-18T17:17:18.77Z</time></trkpt><trkpt lat="43.2677767" lon="11.2876133"><ele>228.0</ele><time>2026-04-18T17:17:24.772Z</time></trkpt><trkpt lat="43.2677067" lon="11.2880767"><ele>228.66666666666669</ele><time>2026-04-18T17:17:30.772Z</time></trkpt><trkpt lat="43.26771" lon="11.2881983"><ele>229.33333333333334</ele><time>2026-04-18T17:17:32.773Z</time></trkpt><trkpt lat="43.2678583" lon="11.28855"><ele>230.0</ele><time>2026-04-18T17:17:36.76Z</time></trkpt><trkpt lat="43.2685167" lon="11.2867333"><ele>230.0</ele><time>2026-04-18T17:17:42.772Z</time></trkpt><trkpt lat="43.26855" lon="11.286495"><ele>230.0</ele><time>2026-04-18T17:17:44.771Z</time></trkpt><trkpt lat="43.2685067" lon="11.286365"><ele>230.0</ele><time>2026-04-18T17:17:46.77Z</time></trkpt><trkpt lat="43.2681383" lon="11.2860933"><ele>228.2</ele><time>2026-04-18T17:18:22.769Z</time></trkpt><trkpt lat="43.2680367" lon="11.286065"><ele>226.4</ele><time>2026-04-18T17:18:23.769Z</time></trkpt><trkpt lat="43.268" lon="11.2859317"><ele>224.60000000000002</ele><time>2026-04-18T17:18:38.77Z</time></trkpt><trkpt lat="43.2679233" lon="11.28585"><ele>222.8</ele><time>2026-04-18T17:18:44.771Z</time></trkpt><trkpt lat="43.2678733" lon="11.2857783"><ele>221.0</ele><time>2026-04-18T17:18:49.766Z</time></trkpt><trkpt lat="43.267815" lon="11.2856933"><ele>228.0</ele><time>2026-04-18T17:18:52.77Z</time></trkpt><trkpt lat="43.26833" lon="11.2863733"><ele>228.4</ele><time>2026-04-18T17:19:14.769Z</time></trkpt><trkpt lat="43.2681583" lon="11.2865183"><ele>228.8</ele><time>2026-04-18T17:19:16.77Z</time></trkpt><trkpt lat="43.26824" lon="11.2864867"><ele>229.2</ele><time>2026-04-18T17:19:46.758Z</time></trkpt><trkpt lat="43.268305" lon="11.2865017"><ele>229.6</ele><time>2026-04-18T17:19:49.769Z</time></trkpt><trkpt lat="43.268375" lon="11.2865267"><ele>230.0</ele><time>2026-04-18T17:19:54.759Z</time></trkpt><trkpt lat="43.2682817" lon="11.2865133"><ele>230.0</ele><time>2026-04-18T17:20:06.772Z</time></trkpt><trkpt lat="43.2681983" lon="11.286425"><ele>228.0</ele><time>2026-04-18T17:20:13.768Z</time></trkpt><trkpt lat="43.2681633" lon="11.286505"><ele>230.0</ele><time>2026-04-18T17:20:17.767Z</time></trkpt><trkpt lat="43.268247" lon="11.2865504"><ele>230.0</ele><time>2026-04-18T17:20:18.813Z</time></trkpt></trkseg></trk></gpx>